<?xml version="1.0" encoding="UTF-8" standalone="no" ?>
<gpx xmlns="http://www.topografix.com/GPX/1/1" xmlns:xsi="http://www.w3.org/2001/XMLSchema-instance" xsi:schemaLocation="http://www.topografix.com/GPX/1/1 http://www.topografix.com/GPX/1/1/gpx.xsd" version="1.1" creator="VisuGPX - https://www.visugpx.com">
  <metadata>
    <name>reckingen_randonnée</name>
  </metadata>
  <trk>
    <name><![CDATA[reckingen_randonnée_1]]></name>
    <extensions>
      <line xmlns="http://www.topografix.com/GPX/gpx_style/0/2">
        <color>ff2600</color>
        <width>4</width>
        <dasharray>16</dasharray>
      </line>
    </extensions>
    <trkseg>
      <trkpt lat="46.48849" lon="8.26248">
        <ele>1450</ele>
        <time>2020-07-16T12:25:28.524Z</time>
      </trkpt>
      <trkpt lat="46.48847" lon="8.26248">
        <ele>1443</ele>
        <time>2020-07-16T12:25:29.524Z</time>
      </trkpt>
      <trkpt lat="46.48846" lon="8.26248">
        <ele>1436</ele>
        <time>2020-07-16T12:25:30.525Z</time>
      </trkpt>
      <trkpt lat="46.48845" lon="8.26248">
        <ele>1430</ele>
        <time>2020-07-16T12:25:31.524Z</time>
      </trkpt>
      <trkpt lat="46.48843" lon="8.26248">
        <ele>1425</ele>
        <time>2020-07-16T12:25:32.524Z</time>
      </trkpt>
      <trkpt lat="46.48842" lon="8.26247">
        <ele>1420</ele>
        <time>2020-07-16T12:25:33.525Z</time>
      </trkpt>
      <trkpt lat="46.48841" lon="8.26247">
        <ele>1416</ele>
        <time>2020-07-16T12:25:34.524Z</time>
      </trkpt>
      <trkpt lat="46.4884" lon="8.26247">
        <ele>1412</ele>
        <time>2020-07-16T12:25:35.524Z</time>
      </trkpt>
      <trkpt lat="46.48839" lon="8.26247">
        <ele>1409</ele>
        <time>2020-07-16T12:25:36.524Z</time>
      </trkpt>
      <trkpt lat="46.48838" lon="8.26247">
        <ele>1406</ele>
        <time>2020-07-16T12:25:37.524Z</time>
      </trkpt>
      <trkpt lat="46.48836" lon="8.26247">
        <ele>1403</ele>
        <time>2020-07-16T12:25:38.524Z</time>
      </trkpt>
      <trkpt lat="46.48835" lon="8.26247">
        <ele>1401</ele>
        <time>2020-07-16T12:25:39.525Z</time>
      </trkpt>
      <trkpt lat="46.48833" lon="8.26247">
        <ele>1399</ele>
        <time>2020-07-16T12:25:40.525Z</time>
      </trkpt>
      <trkpt lat="46.48832" lon="8.26248">
        <ele>1397</ele>
        <time>2020-07-16T12:25:41.525Z</time>
      </trkpt>
      <trkpt lat="46.48831" lon="8.26248">
        <ele>1396</ele>
        <time>2020-07-16T12:25:42.525Z</time>
      </trkpt>
      <trkpt lat="46.48829" lon="8.26249">
        <ele>1395</ele>
        <time>2020-07-16T12:25:43.525Z</time>
      </trkpt>
      <trkpt lat="46.48828" lon="8.26249">
        <ele>1394</ele>
        <time>2020-07-16T12:25:44.525Z</time>
      </trkpt>
      <trkpt lat="46.48828" lon="8.26249">
        <ele>1393</ele>
        <time>2020-07-16T12:25:45.525Z</time>
      </trkpt>
      <trkpt lat="46.48827" lon="8.26249">
        <ele>1392</ele>
        <time>2020-07-16T12:25:46.525Z</time>
      </trkpt>
      <trkpt lat="46.48826" lon="8.26249">
        <ele>1392</ele>
        <time>2020-07-16T12:25:47.525Z</time>
      </trkpt>
      <trkpt lat="46.48825" lon="8.26249">
        <ele>1391</ele>
        <time>2020-07-16T12:25:48.525Z</time>
      </trkpt>
      <trkpt lat="46.48823" lon="8.26249">
        <ele>1391</ele>
        <time>2020-07-16T12:25:49.525Z</time>
      </trkpt>
      <trkpt lat="46.48823" lon="8.26249">
        <ele>1391</ele>
        <time>2020-07-16T12:25:50.525Z</time>
      </trkpt>
      <trkpt lat="46.48822" lon="8.26249">
        <ele>1390</ele>
        <time>2020-07-16T12:25:51.525Z</time>
      </trkpt>
      <trkpt lat="46.48821" lon="8.26248">
        <ele>1390</ele>
        <time>2020-07-16T12:25:52.525Z</time>
      </trkpt>
      <trkpt lat="46.4882" lon="8.26248">
        <ele>1389</ele>
        <time>2020-07-16T12:25:53.525Z</time>
      </trkpt>
      <trkpt lat="46.48819" lon="8.26248">
        <ele>1389</ele>
        <time>2020-07-16T12:25:54.525Z</time>
      </trkpt>
      <trkpt lat="46.48818" lon="8.26247">
        <ele>1389</ele>
        <time>2020-07-16T12:25:55.525Z</time>
      </trkpt>
      <trkpt lat="46.48817" lon="8.26247">
        <ele>1388</ele>
        <time>2020-07-16T12:25:56.524Z</time>
      </trkpt>
      <trkpt lat="46.48816" lon="8.26246">
        <ele>1388</ele>
        <time>2020-07-16T12:25:57.525Z</time>
      </trkpt>
      <trkpt lat="46.48815" lon="8.26246">
        <ele>1388</ele>
        <time>2020-07-16T12:25:58.525Z</time>
      </trkpt>
      <trkpt lat="46.48814" lon="8.26245">
        <ele>1389</ele>
        <time>2020-07-16T12:25:59.525Z</time>
      </trkpt>
      <trkpt lat="46.48812" lon="8.26244">
        <ele>1389</ele>
        <time>2020-07-16T12:26:00.525Z</time>
      </trkpt>
      <trkpt lat="46.48811" lon="8.26244">
        <ele>1389</ele>
        <time>2020-07-16T12:26:01.524Z</time>
      </trkpt>
      <trkpt lat="46.48811" lon="8.26245">
        <ele>1389</ele>
        <time>2020-07-16T12:26:02.524Z</time>
      </trkpt>
      <trkpt lat="46.48811" lon="8.26246">
        <ele>1390</ele>
        <time>2020-07-16T12:26:03.524Z</time>
      </trkpt>
      <trkpt lat="46.48811" lon="8.26246">
        <ele>1390</ele>
        <time>2020-07-16T12:26:04.524Z</time>
      </trkpt>
      <trkpt lat="46.48811" lon="8.26246">
        <ele>1391</ele>
        <time>2020-07-16T12:26:05.525Z</time>
      </trkpt>
      <trkpt lat="46.4881" lon="8.26245">
        <ele>1391</ele>
        <time>2020-07-16T12:26:06.525Z</time>
      </trkpt>
      <trkpt lat="46.48809" lon="8.26245">
        <ele>1391</ele>
        <time>2020-07-16T12:26:07.524Z</time>
      </trkpt>
      <trkpt lat="46.48809" lon="8.26245">
        <ele>1392</ele>
        <time>2020-07-16T12:26:08.524Z</time>
      </trkpt>
      <trkpt lat="46.48808" lon="8.26245">
        <ele>1392</ele>
        <time>2020-07-16T12:26:09.525Z</time>
      </trkpt>
      <trkpt lat="46.48807" lon="8.26245">
        <ele>1392</ele>
        <time>2020-07-16T12:26:10.525Z</time>
      </trkpt>
      <trkpt lat="46.48807" lon="8.26245">
        <ele>1392</ele>
        <time>2020-07-16T12:26:11.524Z</time>
      </trkpt>
      <trkpt lat="46.48806" lon="8.26245">
        <ele>1391</ele>
        <time>2020-07-16T12:26:12.525Z</time>
      </trkpt>
      <trkpt lat="46.48806" lon="8.26244">
        <ele>1391</ele>
        <time>2020-07-16T12:26:13.524Z</time>
      </trkpt>
      <trkpt lat="46.48806" lon="8.26243">
        <ele>1391</ele>
        <time>2020-07-16T12:26:14.525Z</time>
      </trkpt>
      <trkpt lat="46.48806" lon="8.26242">
        <ele>1391</ele>
        <time>2020-07-16T12:26:15.525Z</time>
      </trkpt>
      <trkpt lat="46.48805" lon="8.26241">
        <ele>1390</ele>
        <time>2020-07-16T12:26:16.525Z</time>
      </trkpt>
      <trkpt lat="46.48805" lon="8.26239">
        <ele>1390</ele>
        <time>2020-07-16T12:26:17.525Z</time>
      </trkpt>
      <trkpt lat="46.48805" lon="8.26238">
        <ele>1389</ele>
        <time>2020-07-16T12:26:18.525Z</time>
      </trkpt>
      <trkpt lat="46.48805" lon="8.26237">
        <ele>1389</ele>
        <time>2020-07-16T12:26:19.525Z</time>
      </trkpt>
      <trkpt lat="46.48805" lon="8.26236">
        <ele>1388</ele>
        <time>2020-07-16T12:26:20.525Z</time>
      </trkpt>
      <trkpt lat="46.48804" lon="8.26235">
        <ele>1388</ele>
        <time>2020-07-16T12:26:21.525Z</time>
      </trkpt>
      <trkpt lat="46.48804" lon="8.26234">
        <ele>1388</ele>
        <time>2020-07-16T12:26:22.524Z</time>
      </trkpt>
      <trkpt lat="46.48803" lon="8.26233">
        <ele>1387</ele>
        <time>2020-07-16T12:26:23.525Z</time>
      </trkpt>
      <trkpt lat="46.48803" lon="8.26233">
        <ele>1387</ele>
        <time>2020-07-16T12:26:24.525Z</time>
      </trkpt>
      <trkpt lat="46.48803" lon="8.26232">
        <ele>1387</ele>
        <time>2020-07-16T12:26:25.525Z</time>
      </trkpt>
      <trkpt lat="46.48803" lon="8.26231">
        <ele>1387</ele>
        <time>2020-07-16T12:26:26.525Z</time>
      </trkpt>
      <trkpt lat="46.48803" lon="8.2623">
        <ele>1387</ele>
        <time>2020-07-16T12:26:27.525Z</time>
      </trkpt>
      <trkpt lat="46.48802" lon="8.26229">
        <ele>1387</ele>
        <time>2020-07-16T12:26:28.524Z</time>
      </trkpt>
      <trkpt lat="46.48803" lon="8.26227">
        <ele>1388</ele>
        <time>2020-07-16T12:26:29.525Z</time>
      </trkpt>
      <trkpt lat="46.48803" lon="8.26225">
        <ele>1388</ele>
        <time>2020-07-16T12:26:30.525Z</time>
      </trkpt>
      <trkpt lat="46.48803" lon="8.26224">
        <ele>1388</ele>
        <time>2020-07-16T12:26:31.524Z</time>
      </trkpt>
      <trkpt lat="46.48802" lon="8.26223">
        <ele>1388</ele>
        <time>2020-07-16T12:26:32.525Z</time>
      </trkpt>
      <trkpt lat="46.48802" lon="8.26222">
        <ele>1389</ele>
        <time>2020-07-16T12:26:33.525Z</time>
      </trkpt>
      <trkpt lat="46.48801" lon="8.26221">
        <ele>1389</ele>
        <time>2020-07-16T12:26:34.525Z</time>
      </trkpt>
      <trkpt lat="46.488" lon="8.26221">
        <ele>1389</ele>
        <time>2020-07-16T12:26:35.525Z</time>
      </trkpt>
      <trkpt lat="46.488" lon="8.26221">
        <ele>1390</ele>
        <time>2020-07-16T12:26:36.525Z</time>
      </trkpt>
      <trkpt lat="46.488" lon="8.26221">
        <ele>1390</ele>
        <time>2020-07-16T12:26:37.524Z</time>
      </trkpt>
      <trkpt lat="46.488" lon="8.26222">
        <ele>1391</ele>
        <time>2020-07-16T12:26:38.525Z</time>
      </trkpt>
      <trkpt lat="46.48799" lon="8.26222">
        <ele>1391</ele>
        <time>2020-07-16T12:26:39.525Z</time>
      </trkpt>
      <trkpt lat="46.48798" lon="8.26222">
        <ele>1392</ele>
        <time>2020-07-16T12:26:40.526Z</time>
      </trkpt>
      <trkpt lat="46.48798" lon="8.26222">
        <ele>1393</ele>
        <time>2020-07-16T12:26:41.526Z</time>
      </trkpt>
      <trkpt lat="46.48797" lon="8.26221">
        <ele>1393</ele>
        <time>2020-07-16T12:26:42.526Z</time>
      </trkpt>
      <trkpt lat="46.48796" lon="8.2622">
        <ele>1393</ele>
        <time>2020-07-16T12:26:43.525Z</time>
      </trkpt>
      <trkpt lat="46.48796" lon="8.2622">
        <ele>1393</ele>
        <time>2020-07-16T12:26:44.526Z</time>
      </trkpt>
      <trkpt lat="46.48795" lon="8.26219">
        <ele>1394</ele>
        <time>2020-07-16T12:26:45.526Z</time>
      </trkpt>
      <trkpt lat="46.48795" lon="8.26218">
        <ele>1394</ele>
        <time>2020-07-16T12:26:46.526Z</time>
      </trkpt>
      <trkpt lat="46.48794" lon="8.26217">
        <ele>1394</ele>
        <time>2020-07-16T12:26:47.526Z</time>
      </trkpt>
      <trkpt lat="46.48794" lon="8.26216">
        <ele>1394</ele>
        <time>2020-07-16T12:26:48.525Z</time>
      </trkpt>
      <trkpt lat="46.48793" lon="8.26216">
        <ele>1395</ele>
        <time>2020-07-16T12:26:49.525Z</time>
      </trkpt>
      <trkpt lat="46.48792" lon="8.26216">
        <ele>1395</ele>
        <time>2020-07-16T12:26:50.525Z</time>
      </trkpt>
      <trkpt lat="46.48791" lon="8.26215">
        <ele>1395</ele>
        <time>2020-07-16T12:26:51.526Z</time>
      </trkpt>
      <trkpt lat="46.48791" lon="8.26216">
        <ele>1395</ele>
        <time>2020-07-16T12:26:52.526Z</time>
      </trkpt>
      <trkpt lat="46.4879" lon="8.26216">
        <ele>1396</ele>
        <time>2020-07-16T12:26:53.526Z</time>
      </trkpt>
      <trkpt lat="46.4879" lon="8.26216">
        <ele>1396</ele>
        <time>2020-07-16T12:26:54.525Z</time>
      </trkpt>
      <trkpt lat="46.48789" lon="8.26217">
        <ele>1396</ele>
        <time>2020-07-16T12:26:55.525Z</time>
      </trkpt>
      <trkpt lat="46.48788" lon="8.26219">
        <ele>1398</ele>
        <time>2020-07-16T12:26:56.525Z</time>
      </trkpt>
      <trkpt lat="46.48787" lon="8.26221">
        <ele>1398</ele>
        <time>2020-07-16T12:26:57.526Z</time>
      </trkpt>
      <trkpt lat="46.48787" lon="8.26223">
        <ele>1399</ele>
        <time>2020-07-16T12:26:58.525Z</time>
      </trkpt>
      <trkpt lat="46.48787" lon="8.26224">
        <ele>1399</ele>
        <time>2020-07-16T12:26:59.526Z</time>
      </trkpt>
      <trkpt lat="46.48788" lon="8.26224">
        <ele>1399</ele>
        <time>2020-07-16T12:27:00.525Z</time>
      </trkpt>
      <trkpt lat="46.48788" lon="8.26222">
        <ele>1399</ele>
        <time>2020-07-16T12:27:01.526Z</time>
      </trkpt>
      <trkpt lat="46.48788" lon="8.26221">
        <ele>1399</ele>
        <time>2020-07-16T12:27:02.526Z</time>
      </trkpt>
      <trkpt lat="46.48787" lon="8.2622">
        <ele>1399</ele>
        <time>2020-07-16T12:27:03.526Z</time>
      </trkpt>
      <trkpt lat="46.48787" lon="8.26219">
        <ele>1399</ele>
        <time>2020-07-16T12:27:04.526Z</time>
      </trkpt>
      <trkpt lat="46.48786" lon="8.26218">
        <ele>1398</ele>
        <time>2020-07-16T12:27:05.526Z</time>
      </trkpt>
      <trkpt lat="46.48785" lon="8.26218">
        <ele>1398</ele>
        <time>2020-07-16T12:27:06.525Z</time>
      </trkpt>
      <trkpt lat="46.48785" lon="8.26217">
        <ele>1398</ele>
        <time>2020-07-16T12:27:07.525Z</time>
      </trkpt>
      <trkpt lat="46.48784" lon="8.26216">
        <ele>1398</ele>
        <time>2020-07-16T12:27:08.526Z</time>
      </trkpt>
      <trkpt lat="46.48783" lon="8.26215">
        <ele>1397</ele>
        <time>2020-07-16T12:27:09.526Z</time>
      </trkpt>
      <trkpt lat="46.48782" lon="8.26215">
        <ele>1397</ele>
        <time>2020-07-16T12:27:10.525Z</time>
      </trkpt>
      <trkpt lat="46.48782" lon="8.26214">
        <ele>1397</ele>
        <time>2020-07-16T12:27:11.526Z</time>
      </trkpt>
      <trkpt lat="46.48781" lon="8.26213">
        <ele>1397</ele>
        <time>2020-07-16T12:27:12.525Z</time>
      </trkpt>
      <trkpt lat="46.48781" lon="8.26212">
        <ele>1397</ele>
        <time>2020-07-16T12:27:13.525Z</time>
      </trkpt>
      <trkpt lat="46.4878" lon="8.26212">
        <ele>1397</ele>
        <time>2020-07-16T12:27:14.526Z</time>
      </trkpt>
      <trkpt lat="46.4878" lon="8.26211">
        <ele>1397</ele>
        <time>2020-07-16T12:27:15.525Z</time>
      </trkpt>
      <trkpt lat="46.4878" lon="8.2621">
        <ele>1396</ele>
        <time>2020-07-16T12:27:16.525Z</time>
      </trkpt>
      <trkpt lat="46.48779" lon="8.2621">
        <ele>1396</ele>
        <time>2020-07-16T12:27:17.526Z</time>
      </trkpt>
      <trkpt lat="46.48778" lon="8.26209">
        <ele>1396</ele>
        <time>2020-07-16T12:27:18.526Z</time>
      </trkpt>
      <trkpt lat="46.48778" lon="8.26208">
        <ele>1396</ele>
        <time>2020-07-16T12:27:19.526Z</time>
      </trkpt>
      <trkpt lat="46.48777" lon="8.26207">
        <ele>1396</ele>
        <time>2020-07-16T12:27:20.525Z</time>
      </trkpt>
      <trkpt lat="46.48776" lon="8.26207">
        <ele>1396</ele>
        <time>2020-07-16T12:27:21.526Z</time>
      </trkpt>
      <trkpt lat="46.48776" lon="8.26206">
        <ele>1395</ele>
        <time>2020-07-16T12:27:22.526Z</time>
      </trkpt>
      <trkpt lat="46.48776" lon="8.26205">
        <ele>1395</ele>
        <time>2020-07-16T12:27:23.526Z</time>
      </trkpt>
      <trkpt lat="46.48775" lon="8.26205">
        <ele>1395</ele>
        <time>2020-07-16T12:27:24.526Z</time>
      </trkpt>
      <trkpt lat="46.48775" lon="8.26204">
        <ele>1395</ele>
        <time>2020-07-16T12:27:25.526Z</time>
      </trkpt>
      <trkpt lat="46.48774" lon="8.26204">
        <ele>1394</ele>
        <time>2020-07-16T12:27:26.525Z</time>
      </trkpt>
      <trkpt lat="46.48774" lon="8.26203">
        <ele>1394</ele>
        <time>2020-07-16T12:27:27.525Z</time>
      </trkpt>
      <trkpt lat="46.48773" lon="8.26202">
        <ele>1394</ele>
        <time>2020-07-16T12:27:28.526Z</time>
      </trkpt>
      <trkpt lat="46.48773" lon="8.26202">
        <ele>1394</ele>
        <time>2020-07-16T12:27:29.526Z</time>
      </trkpt>
      <trkpt lat="46.48772" lon="8.26202">
        <ele>1394</ele>
        <time>2020-07-16T12:27:30.526Z</time>
      </trkpt>
      <trkpt lat="46.48772" lon="8.26201">
        <ele>1394</ele>
        <time>2020-07-16T12:27:31.526Z</time>
      </trkpt>
      <trkpt lat="46.48772" lon="8.262">
        <ele>1394</ele>
        <time>2020-07-16T12:27:32.526Z</time>
      </trkpt>
      <trkpt lat="46.48771" lon="8.26199">
        <ele>1394</ele>
        <time>2020-07-16T12:27:33.526Z</time>
      </trkpt>
      <trkpt lat="46.48771" lon="8.26198">
        <ele>1394</ele>
        <time>2020-07-16T12:27:34.526Z</time>
      </trkpt>
      <trkpt lat="46.48771" lon="8.26197">
        <ele>1393</ele>
        <time>2020-07-16T12:27:35.526Z</time>
      </trkpt>
      <trkpt lat="46.4877" lon="8.26197">
        <ele>1393</ele>
        <time>2020-07-16T12:27:36.526Z</time>
      </trkpt>
      <trkpt lat="46.4877" lon="8.26196">
        <ele>1393</ele>
        <time>2020-07-16T12:27:37.525Z</time>
      </trkpt>
      <trkpt lat="46.48769" lon="8.26195">
        <ele>1393</ele>
        <time>2020-07-16T12:27:38.525Z</time>
      </trkpt>
      <trkpt lat="46.48768" lon="8.26193">
        <ele>1393</ele>
        <time>2020-07-16T12:27:39.526Z</time>
      </trkpt>
      <trkpt lat="46.48768" lon="8.26193">
        <ele>1394</ele>
        <time>2020-07-16T12:27:40.526Z</time>
      </trkpt>
      <trkpt lat="46.48767" lon="8.26192">
        <ele>1394</ele>
        <time>2020-07-16T12:27:41.525Z</time>
      </trkpt>
      <trkpt lat="46.48766" lon="8.26192">
        <ele>1395</ele>
        <time>2020-07-16T12:27:42.526Z</time>
      </trkpt>
      <trkpt lat="46.48766" lon="8.26191">
        <ele>1395</ele>
        <time>2020-07-16T12:27:43.525Z</time>
      </trkpt>
      <trkpt lat="46.48766" lon="8.2619">
        <ele>1396</ele>
        <time>2020-07-16T12:27:44.526Z</time>
      </trkpt>
      <trkpt lat="46.48766" lon="8.26189">
        <ele>1397</ele>
        <time>2020-07-16T12:27:45.526Z</time>
      </trkpt>
      <trkpt lat="46.48766" lon="8.26188">
        <ele>1397</ele>
        <time>2020-07-16T12:27:46.525Z</time>
      </trkpt>
      <trkpt lat="46.48766" lon="8.26188">
        <ele>1398</ele>
        <time>2020-07-16T12:27:47.526Z</time>
      </trkpt>
      <trkpt lat="46.48766" lon="8.26187">
        <ele>1399</ele>
        <time>2020-07-16T12:27:48.526Z</time>
      </trkpt>
      <trkpt lat="46.48766" lon="8.26188">
        <ele>1400</ele>
        <time>2020-07-16T12:27:49.525Z</time>
      </trkpt>
      <trkpt lat="46.48766" lon="8.26189">
        <ele>1400</ele>
        <time>2020-07-16T12:27:50.526Z</time>
      </trkpt>
      <trkpt lat="46.48763" lon="8.26184">
        <ele>1399</ele>
        <time>2020-07-16T12:27:51.526Z</time>
      </trkpt>
      <trkpt lat="46.48763" lon="8.26183">
        <ele>1399</ele>
        <time>2020-07-16T12:27:52.527Z</time>
      </trkpt>
      <trkpt lat="46.48762" lon="8.26182">
        <ele>1399</ele>
        <time>2020-07-16T12:27:53.526Z</time>
      </trkpt>
      <trkpt lat="46.48762" lon="8.26181">
        <ele>1400</ele>
        <time>2020-07-16T12:27:54.527Z</time>
      </trkpt>
      <trkpt lat="46.48761" lon="8.26179">
        <ele>1400</ele>
        <time>2020-07-16T12:27:55.527Z</time>
      </trkpt>
      <trkpt lat="46.48761" lon="8.26178">
        <ele>1400</ele>
        <time>2020-07-16T12:27:56.526Z</time>
      </trkpt>
      <trkpt lat="46.4876" lon="8.26177">
        <ele>1400</ele>
        <time>2020-07-16T12:27:57.526Z</time>
      </trkpt>
      <trkpt lat="46.4876" lon="8.26177">
        <ele>1400</ele>
        <time>2020-07-16T12:27:58.526Z</time>
      </trkpt>
      <trkpt lat="46.4876" lon="8.26176">
        <ele>1400</ele>
        <time>2020-07-16T12:27:59.526Z</time>
      </trkpt>
      <trkpt lat="46.48759" lon="8.26176">
        <ele>1401</ele>
        <time>2020-07-16T12:28:00.526Z</time>
      </trkpt>
      <trkpt lat="46.48758" lon="8.26175">
        <ele>1401</ele>
        <time>2020-07-16T12:28:01.527Z</time>
      </trkpt>
      <trkpt lat="46.48758" lon="8.26174">
        <ele>1401</ele>
        <time>2020-07-16T12:28:02.526Z</time>
      </trkpt>
      <trkpt lat="46.48758" lon="8.26173">
        <ele>1401</ele>
        <time>2020-07-16T12:28:03.527Z</time>
      </trkpt>
      <trkpt lat="46.48758" lon="8.26172">
        <ele>1401</ele>
        <time>2020-07-16T12:28:04.527Z</time>
      </trkpt>
      <trkpt lat="46.48758" lon="8.26172">
        <ele>1401</ele>
        <time>2020-07-16T12:28:05.527Z</time>
      </trkpt>
      <trkpt lat="46.48757" lon="8.26172">
        <ele>1401</ele>
        <time>2020-07-16T12:28:06.527Z</time>
      </trkpt>
      <trkpt lat="46.48757" lon="8.26171">
        <ele>1401</ele>
        <time>2020-07-16T12:28:07.527Z</time>
      </trkpt>
      <trkpt lat="46.48756" lon="8.26171">
        <ele>1401</ele>
        <time>2020-07-16T12:28:08.527Z</time>
      </trkpt>
      <trkpt lat="46.48756" lon="8.2617">
        <ele>1401</ele>
        <time>2020-07-16T12:28:09.527Z</time>
      </trkpt>
      <trkpt lat="46.48755" lon="8.2617">
        <ele>1401</ele>
        <time>2020-07-16T12:28:10.527Z</time>
      </trkpt>
      <trkpt lat="46.48754" lon="8.26169">
        <ele>1400</ele>
        <time>2020-07-16T12:28:11.526Z</time>
      </trkpt>
      <trkpt lat="46.48754" lon="8.26169">
        <ele>1400</ele>
        <time>2020-07-16T12:28:12.527Z</time>
      </trkpt>
      <trkpt lat="46.48754" lon="8.26168">
        <ele>1400</ele>
        <time>2020-07-16T12:28:13.526Z</time>
      </trkpt>
      <trkpt lat="46.48754" lon="8.26167">
        <ele>1400</ele>
        <time>2020-07-16T12:28:14.527Z</time>
      </trkpt>
      <trkpt lat="46.48754" lon="8.26166">
        <ele>1400</ele>
        <time>2020-07-16T12:28:15.526Z</time>
      </trkpt>
      <trkpt lat="46.48754" lon="8.26165">
        <ele>1400</ele>
        <time>2020-07-16T12:28:16.527Z</time>
      </trkpt>
      <trkpt lat="46.48754" lon="8.26165">
        <ele>1400</ele>
        <time>2020-07-16T12:28:17.526Z</time>
      </trkpt>
      <trkpt lat="46.48754" lon="8.26164">
        <ele>1400</ele>
        <time>2020-07-16T12:28:18.527Z</time>
      </trkpt>
      <trkpt lat="46.48754" lon="8.26163">
        <ele>1400</ele>
        <time>2020-07-16T12:28:19.527Z</time>
      </trkpt>
      <trkpt lat="46.48753" lon="8.26162">
        <ele>1400</ele>
        <time>2020-07-16T12:28:20.527Z</time>
      </trkpt>
      <trkpt lat="46.48753" lon="8.26161">
        <ele>1400</ele>
        <time>2020-07-16T12:28:21.527Z</time>
      </trkpt>
      <trkpt lat="46.48753" lon="8.2616">
        <ele>1400</ele>
        <time>2020-07-16T12:28:22.526Z</time>
      </trkpt>
      <trkpt lat="46.48752" lon="8.26159">
        <ele>1400</ele>
        <time>2020-07-16T12:28:23.527Z</time>
      </trkpt>
      <trkpt lat="46.48752" lon="8.26158">
        <ele>1400</ele>
        <time>2020-07-16T12:28:24.527Z</time>
      </trkpt>
      <trkpt lat="46.48752" lon="8.26157">
        <ele>1400</ele>
        <time>2020-07-16T12:28:25.526Z</time>
      </trkpt>
      <trkpt lat="46.48752" lon="8.26155">
        <ele>1400</ele>
        <time>2020-07-16T12:28:26.526Z</time>
      </trkpt>
      <trkpt lat="46.48751" lon="8.26154">
        <ele>1400</ele>
        <time>2020-07-16T12:28:27.527Z</time>
      </trkpt>
      <trkpt lat="46.48751" lon="8.26153">
        <ele>1401</ele>
        <time>2020-07-16T12:28:28.527Z</time>
      </trkpt>
      <trkpt lat="46.4875" lon="8.26151">
        <ele>1401</ele>
        <time>2020-07-16T12:28:29.527Z</time>
      </trkpt>
      <trkpt lat="46.4875" lon="8.2615">
        <ele>1401</ele>
        <time>2020-07-16T12:28:30.527Z</time>
      </trkpt>
      <trkpt lat="46.48749" lon="8.26149">
        <ele>1402</ele>
        <time>2020-07-16T12:28:31.527Z</time>
      </trkpt>
      <trkpt lat="46.48749" lon="8.26148">
        <ele>1403</ele>
        <time>2020-07-16T12:28:32.526Z</time>
      </trkpt>
      <trkpt lat="46.48747" lon="8.26146">
        <ele>1404</ele>
        <time>2020-07-16T12:28:33.527Z</time>
      </trkpt>
      <trkpt lat="46.48747" lon="8.26145">
        <ele>1405</ele>
        <time>2020-07-16T12:28:34.527Z</time>
      </trkpt>
      <trkpt lat="46.48747" lon="8.26144">
        <ele>1406</ele>
        <time>2020-07-16T12:28:35.527Z</time>
      </trkpt>
      <trkpt lat="46.48746" lon="8.26143">
        <ele>1407</ele>
        <time>2020-07-16T12:28:36.526Z</time>
      </trkpt>
      <trkpt lat="46.48746" lon="8.26143">
        <ele>1407</ele>
        <time>2020-07-16T12:28:37.527Z</time>
      </trkpt>
      <trkpt lat="46.48746" lon="8.26142">
        <ele>1408</ele>
        <time>2020-07-16T12:28:38.527Z</time>
      </trkpt>
      <trkpt lat="46.48745" lon="8.26141">
        <ele>1408</ele>
        <time>2020-07-16T12:28:39.526Z</time>
      </trkpt>
      <trkpt lat="46.48745" lon="8.2614">
        <ele>1408</ele>
        <time>2020-07-16T12:28:40.527Z</time>
      </trkpt>
      <trkpt lat="46.48744" lon="8.26139">
        <ele>1409</ele>
        <time>2020-07-16T12:28:41.526Z</time>
      </trkpt>
      <trkpt lat="46.48744" lon="8.26139">
        <ele>1409</ele>
        <time>2020-07-16T12:28:42.526Z</time>
      </trkpt>
      <trkpt lat="46.48743" lon="8.26139">
        <ele>1409</ele>
        <time>2020-07-16T12:28:43.526Z</time>
      </trkpt>
      <trkpt lat="46.48743" lon="8.26139">
        <ele>1410</ele>
        <time>2020-07-16T12:28:44.526Z</time>
      </trkpt>
      <trkpt lat="46.48741" lon="8.26137">
        <ele>1411</ele>
        <time>2020-07-16T12:28:45.527Z</time>
      </trkpt>
      <trkpt lat="46.48741" lon="8.26136">
        <ele>1411</ele>
        <time>2020-07-16T12:28:46.527Z</time>
      </trkpt>
      <trkpt lat="46.48741" lon="8.26135">
        <ele>1411</ele>
        <time>2020-07-16T12:28:47.527Z</time>
      </trkpt>
      <trkpt lat="46.48741" lon="8.26135">
        <ele>1411</ele>
        <time>2020-07-16T12:28:48.527Z</time>
      </trkpt>
      <trkpt lat="46.4874" lon="8.26134">
        <ele>1412</ele>
        <time>2020-07-16T12:28:49.527Z</time>
      </trkpt>
      <trkpt lat="46.4874" lon="8.26133">
        <ele>1412</ele>
        <time>2020-07-16T12:28:50.527Z</time>
      </trkpt>
      <trkpt lat="46.48739" lon="8.26132">
        <ele>1412</ele>
        <time>2020-07-16T12:28:51.527Z</time>
      </trkpt>
      <trkpt lat="46.48739" lon="8.26132">
        <ele>1412</ele>
        <time>2020-07-16T12:28:52.527Z</time>
      </trkpt>
      <trkpt lat="46.48738" lon="8.26131">
        <ele>1412</ele>
        <time>2020-07-16T12:28:53.527Z</time>
      </trkpt>
      <trkpt lat="46.48737" lon="8.26131">
        <ele>1412</ele>
        <time>2020-07-16T12:28:54.527Z</time>
      </trkpt>
      <trkpt lat="46.48737" lon="8.2613">
        <ele>1412</ele>
        <time>2020-07-16T12:28:55.527Z</time>
      </trkpt>
      <trkpt lat="46.48737" lon="8.2613">
        <ele>1412</ele>
        <time>2020-07-16T12:28:56.527Z</time>
      </trkpt>
      <trkpt lat="46.48737" lon="8.26129">
        <ele>1412</ele>
        <time>2020-07-16T12:28:57.527Z</time>
      </trkpt>
      <trkpt lat="46.48737" lon="8.26128">
        <ele>1412</ele>
        <time>2020-07-16T12:28:58.527Z</time>
      </trkpt>
      <trkpt lat="46.48737" lon="8.26127">
        <ele>1412</ele>
        <time>2020-07-16T12:28:59.527Z</time>
      </trkpt>
      <trkpt lat="46.48737" lon="8.26127">
        <ele>1412</ele>
        <time>2020-07-16T12:29:00.527Z</time>
      </trkpt>
      <trkpt lat="46.48736" lon="8.26127">
        <ele>1413</ele>
        <time>2020-07-16T12:29:01.527Z</time>
      </trkpt>
      <trkpt lat="46.48735" lon="8.26127">
        <ele>1413</ele>
        <time>2020-07-16T12:29:02.527Z</time>
      </trkpt>
      <trkpt lat="46.48735" lon="8.26127">
        <ele>1412</ele>
        <time>2020-07-16T12:29:03.527Z</time>
      </trkpt>
      <trkpt lat="46.48734" lon="8.26127">
        <ele>1412</ele>
        <time>2020-07-16T12:29:04.527Z</time>
      </trkpt>
      <trkpt lat="46.48734" lon="8.26127">
        <ele>1411</ele>
        <time>2020-07-16T12:29:05.527Z</time>
      </trkpt>
      <trkpt lat="46.48733" lon="8.26126">
        <ele>1411</ele>
        <time>2020-07-16T12:29:06.527Z</time>
      </trkpt>
      <trkpt lat="46.48733" lon="8.26126">
        <ele>1410</ele>
        <time>2020-07-16T12:29:07.527Z</time>
      </trkpt>
      <trkpt lat="46.48732" lon="8.26126">
        <ele>1410</ele>
        <time>2020-07-16T12:29:08.527Z</time>
      </trkpt>
      <trkpt lat="46.48732" lon="8.26125">
        <ele>1410</ele>
        <time>2020-07-16T12:29:09.527Z</time>
      </trkpt>
      <trkpt lat="46.48731" lon="8.26125">
        <ele>1410</ele>
        <time>2020-07-16T12:29:10.527Z</time>
      </trkpt>
      <trkpt lat="46.48731" lon="8.26125">
        <ele>1410</ele>
        <time>2020-07-16T12:29:11.527Z</time>
      </trkpt>
      <trkpt lat="46.4873" lon="8.26125">
        <ele>1410</ele>
        <time>2020-07-16T12:29:12.527Z</time>
      </trkpt>
      <trkpt lat="46.4873" lon="8.26124">
        <ele>1410</ele>
        <time>2020-07-16T12:29:13.527Z</time>
      </trkpt>
      <trkpt lat="46.48729" lon="8.26124">
        <ele>1409</ele>
        <time>2020-07-16T12:29:14.527Z</time>
      </trkpt>
      <trkpt lat="46.48729" lon="8.26123">
        <ele>1409</ele>
        <time>2020-07-16T12:29:15.527Z</time>
      </trkpt>
      <trkpt lat="46.48729" lon="8.26123">
        <ele>1408</ele>
        <time>2020-07-16T12:29:16.527Z</time>
      </trkpt>
      <trkpt lat="46.48728" lon="8.26122">
        <ele>1408</ele>
        <time>2020-07-16T12:29:17.527Z</time>
      </trkpt>
      <trkpt lat="46.48728" lon="8.26122">
        <ele>1408</ele>
        <time>2020-07-16T12:29:18.527Z</time>
      </trkpt>
      <trkpt lat="46.48726" lon="8.2612">
        <ele>1410</ele>
        <time>2020-07-16T12:29:19.528Z</time>
      </trkpt>
      <trkpt lat="46.48726" lon="8.2612">
        <ele>1409</ele>
        <time>2020-07-16T12:29:20.527Z</time>
      </trkpt>
      <trkpt lat="46.48726" lon="8.26119">
        <ele>1409</ele>
        <time>2020-07-16T12:29:21.527Z</time>
      </trkpt>
      <trkpt lat="46.48726" lon="8.26119">
        <ele>1409</ele>
        <time>2020-07-16T12:29:22.528Z</time>
      </trkpt>
      <trkpt lat="46.48726" lon="8.26119">
        <ele>1409</ele>
        <time>2020-07-16T12:29:23.528Z</time>
      </trkpt>
      <trkpt lat="46.48725" lon="8.26119">
        <ele>1408</ele>
        <time>2020-07-16T12:29:24.528Z</time>
      </trkpt>
      <trkpt lat="46.48725" lon="8.26118">
        <ele>1407</ele>
        <time>2020-07-16T12:29:25.528Z</time>
      </trkpt>
      <trkpt lat="46.48724" lon="8.26118">
        <ele>1407</ele>
        <time>2020-07-16T12:29:26.528Z</time>
      </trkpt>
      <trkpt lat="46.48724" lon="8.26117">
        <ele>1407</ele>
        <time>2020-07-16T12:29:27.528Z</time>
      </trkpt>
      <trkpt lat="46.48723" lon="8.26117">
        <ele>1407</ele>
        <time>2020-07-16T12:29:28.528Z</time>
      </trkpt>
      <trkpt lat="46.48723" lon="8.26116">
        <ele>1407</ele>
        <time>2020-07-16T12:29:29.528Z</time>
      </trkpt>
      <trkpt lat="46.48722" lon="8.26115">
        <ele>1407</ele>
        <time>2020-07-16T12:29:30.528Z</time>
      </trkpt>
      <trkpt lat="46.48721" lon="8.26115">
        <ele>1407</ele>
        <time>2020-07-16T12:29:31.528Z</time>
      </trkpt>
      <trkpt lat="46.48721" lon="8.26114">
        <ele>1408</ele>
        <time>2020-07-16T12:29:32.528Z</time>
      </trkpt>
      <trkpt lat="46.4872" lon="8.26114">
        <ele>1408</ele>
        <time>2020-07-16T12:29:33.528Z</time>
      </trkpt>
      <trkpt lat="46.4872" lon="8.26113">
        <ele>1408</ele>
        <time>2020-07-16T12:29:34.528Z</time>
      </trkpt>
      <trkpt lat="46.48719" lon="8.26112">
        <ele>1409</ele>
        <time>2020-07-16T12:29:35.528Z</time>
      </trkpt>
      <trkpt lat="46.48719" lon="8.26112">
        <ele>1409</ele>
        <time>2020-07-16T12:29:36.528Z</time>
      </trkpt>
      <trkpt lat="46.48718" lon="8.26112">
        <ele>1410</ele>
        <time>2020-07-16T12:29:37.528Z</time>
      </trkpt>
      <trkpt lat="46.48718" lon="8.26111">
        <ele>1410</ele>
        <time>2020-07-16T12:29:38.528Z</time>
      </trkpt>
      <trkpt lat="46.48718" lon="8.2611">
        <ele>1411</ele>
        <time>2020-07-16T12:29:39.528Z</time>
      </trkpt>
      <trkpt lat="46.48718" lon="8.26109">
        <ele>1411</ele>
        <time>2020-07-16T12:29:40.528Z</time>
      </trkpt>
      <trkpt lat="46.48717" lon="8.26109">
        <ele>1411</ele>
        <time>2020-07-16T12:29:41.527Z</time>
      </trkpt>
      <trkpt lat="46.48717" lon="8.26108">
        <ele>1411</ele>
        <time>2020-07-16T12:29:42.527Z</time>
      </trkpt>
      <trkpt lat="46.48716" lon="8.26107">
        <ele>1411</ele>
        <time>2020-07-16T12:29:43.527Z</time>
      </trkpt>
      <trkpt lat="46.48715" lon="8.26106">
        <ele>1411</ele>
        <time>2020-07-16T12:29:44.528Z</time>
      </trkpt>
      <trkpt lat="46.48714" lon="8.26105">
        <ele>1411</ele>
        <time>2020-07-16T12:29:45.528Z</time>
      </trkpt>
      <trkpt lat="46.48714" lon="8.26105">
        <ele>1411</ele>
        <time>2020-07-16T12:29:46.527Z</time>
      </trkpt>
      <trkpt lat="46.48713" lon="8.26104">
        <ele>1411</ele>
        <time>2020-07-16T12:29:47.528Z</time>
      </trkpt>
      <trkpt lat="46.48713" lon="8.26103">
        <ele>1411</ele>
        <time>2020-07-16T12:29:48.528Z</time>
      </trkpt>
      <trkpt lat="46.48713" lon="8.26103">
        <ele>1411</ele>
        <time>2020-07-16T12:29:49.528Z</time>
      </trkpt>
      <trkpt lat="46.4871" lon="8.26105">
        <ele>1411</ele>
        <time>2020-07-16T12:29:50.529Z</time>
      </trkpt>
      <trkpt lat="46.48711" lon="8.26105">
        <ele>1411</ele>
        <time>2020-07-16T12:29:51.529Z</time>
      </trkpt>
      <trkpt lat="46.48711" lon="8.26104">
        <ele>1411</ele>
        <time>2020-07-16T12:29:52.528Z</time>
      </trkpt>
      <trkpt lat="46.48712" lon="8.26104">
        <ele>1411</ele>
        <time>2020-07-16T12:29:53.529Z</time>
      </trkpt>
      <trkpt lat="46.48712" lon="8.26103">
        <ele>1411</ele>
        <time>2020-07-16T12:29:54.529Z</time>
      </trkpt>
      <trkpt lat="46.48712" lon="8.26102">
        <ele>1411</ele>
        <time>2020-07-16T12:29:55.530Z</time>
      </trkpt>
      <trkpt lat="46.48712" lon="8.26102">
        <ele>1411</ele>
        <time>2020-07-16T12:29:56.530Z</time>
      </trkpt>
      <trkpt lat="46.48712" lon="8.26101">
        <ele>1411</ele>
        <time>2020-07-16T12:29:57.529Z</time>
      </trkpt>
      <trkpt lat="46.48711" lon="8.26101">
        <ele>1410</ele>
        <time>2020-07-16T12:29:58.530Z</time>
      </trkpt>
      <trkpt lat="46.48711" lon="8.26101">
        <ele>1410</ele>
        <time>2020-07-16T12:29:59.529Z</time>
      </trkpt>
      <trkpt lat="46.48711" lon="8.26102">
        <ele>1409</ele>
        <time>2020-07-16T12:30:00.529Z</time>
      </trkpt>
      <trkpt lat="46.48711" lon="8.26102">
        <ele>1409</ele>
        <time>2020-07-16T12:30:01.529Z</time>
      </trkpt>
      <trkpt lat="46.48712" lon="8.26103">
        <ele>1408</ele>
        <time>2020-07-16T12:30:02.530Z</time>
      </trkpt>
      <trkpt lat="46.48712" lon="8.26103">
        <ele>1407</ele>
        <time>2020-07-16T12:30:03.529Z</time>
      </trkpt>
      <trkpt lat="46.48712" lon="8.261">
        <ele>1405</ele>
        <time>2020-07-16T12:30:04.529Z</time>
      </trkpt>
      <trkpt lat="46.48712" lon="8.261">
        <ele>1405</ele>
        <time>2020-07-16T12:30:05.529Z</time>
      </trkpt>
      <trkpt lat="46.48712" lon="8.26099">
        <ele>1405</ele>
        <time>2020-07-16T12:30:06.530Z</time>
      </trkpt>
      <trkpt lat="46.48712" lon="8.26098">
        <ele>1405</ele>
        <time>2020-07-16T12:30:07.529Z</time>
      </trkpt>
      <trkpt lat="46.48711" lon="8.26097">
        <ele>1405</ele>
        <time>2020-07-16T12:30:08.530Z</time>
      </trkpt>
      <trkpt lat="46.48711" lon="8.26096">
        <ele>1406</ele>
        <time>2020-07-16T12:30:09.530Z</time>
      </trkpt>
      <trkpt lat="46.48711" lon="8.26095">
        <ele>1406</ele>
        <time>2020-07-16T12:30:10.530Z</time>
      </trkpt>
      <trkpt lat="46.4871" lon="8.26095">
        <ele>1406</ele>
        <time>2020-07-16T12:30:11.529Z</time>
      </trkpt>
      <trkpt lat="46.4871" lon="8.26095">
        <ele>1406</ele>
        <time>2020-07-16T12:30:12.529Z</time>
      </trkpt>
      <trkpt lat="46.4871" lon="8.26094">
        <ele>1407</ele>
        <time>2020-07-16T12:30:13.529Z</time>
      </trkpt>
      <trkpt lat="46.48709" lon="8.26094">
        <ele>1407</ele>
        <time>2020-07-16T12:30:14.530Z</time>
      </trkpt>
      <trkpt lat="46.48709" lon="8.26093">
        <ele>1407</ele>
        <time>2020-07-16T12:30:15.530Z</time>
      </trkpt>
      <trkpt lat="46.48709" lon="8.26093">
        <ele>1408</ele>
        <time>2020-07-16T12:30:16.529Z</time>
      </trkpt>
      <trkpt lat="46.48709" lon="8.26092">
        <ele>1408</ele>
        <time>2020-07-16T12:30:17.530Z</time>
      </trkpt>
      <trkpt lat="46.48709" lon="8.26092">
        <ele>1408</ele>
        <time>2020-07-16T12:30:18.530Z</time>
      </trkpt>
      <trkpt lat="46.48708" lon="8.26091">
        <ele>1409</ele>
        <time>2020-07-16T12:30:19.529Z</time>
      </trkpt>
      <trkpt lat="46.48708" lon="8.26091">
        <ele>1409</ele>
        <time>2020-07-16T12:30:20.530Z</time>
      </trkpt>
      <trkpt lat="46.48708" lon="8.26091">
        <ele>1410</ele>
        <time>2020-07-16T12:30:21.530Z</time>
      </trkpt>
      <trkpt lat="46.48708" lon="8.2609">
        <ele>1411</ele>
        <time>2020-07-16T12:30:22.530Z</time>
      </trkpt>
      <trkpt lat="46.48708" lon="8.2609">
        <ele>1412</ele>
        <time>2020-07-16T12:30:23.530Z</time>
      </trkpt>
      <trkpt lat="46.48708" lon="8.26089">
        <ele>1413</ele>
        <time>2020-07-16T12:30:24.529Z</time>
      </trkpt>
      <trkpt lat="46.48708" lon="8.26088">
        <ele>1413</ele>
        <time>2020-07-16T12:30:25.530Z</time>
      </trkpt>
      <trkpt lat="46.48708" lon="8.26087">
        <ele>1414</ele>
        <time>2020-07-16T12:30:26.529Z</time>
      </trkpt>
      <trkpt lat="46.48708" lon="8.26087">
        <ele>1414</ele>
        <time>2020-07-16T12:30:27.530Z</time>
      </trkpt>
      <trkpt lat="46.48708" lon="8.26086">
        <ele>1414</ele>
        <time>2020-07-16T12:30:28.530Z</time>
      </trkpt>
      <trkpt lat="46.48708" lon="8.26086">
        <ele>1414</ele>
        <time>2020-07-16T12:30:29.529Z</time>
      </trkpt>
      <trkpt lat="46.48707" lon="8.26086">
        <ele>1413</ele>
        <time>2020-07-16T12:30:30.529Z</time>
      </trkpt>
      <trkpt lat="46.48707" lon="8.26085">
        <ele>1413</ele>
        <time>2020-07-16T12:30:31.529Z</time>
      </trkpt>
      <trkpt lat="46.48706" lon="8.26085">
        <ele>1413</ele>
        <time>2020-07-16T12:30:32.529Z</time>
      </trkpt>
      <trkpt lat="46.48706" lon="8.26084">
        <ele>1413</ele>
        <time>2020-07-16T12:30:33.529Z</time>
      </trkpt>
      <trkpt lat="46.48706" lon="8.26083">
        <ele>1413</ele>
        <time>2020-07-16T12:30:34.530Z</time>
      </trkpt>
      <trkpt lat="46.48706" lon="8.26082">
        <ele>1413</ele>
        <time>2020-07-16T12:30:35.530Z</time>
      </trkpt>
      <trkpt lat="46.48706" lon="8.26082">
        <ele>1413</ele>
        <time>2020-07-16T12:30:36.530Z</time>
      </trkpt>
      <trkpt lat="46.48705" lon="8.26082">
        <ele>1413</ele>
        <time>2020-07-16T12:30:37.530Z</time>
      </trkpt>
      <trkpt lat="46.48705" lon="8.26081">
        <ele>1414</ele>
        <time>2020-07-16T12:30:38.529Z</time>
      </trkpt>
      <trkpt lat="46.48705" lon="8.26081">
        <ele>1414</ele>
        <time>2020-07-16T12:30:39.530Z</time>
      </trkpt>
      <trkpt lat="46.48704" lon="8.2608">
        <ele>1415</ele>
        <time>2020-07-16T12:30:40.530Z</time>
      </trkpt>
      <trkpt lat="46.48704" lon="8.26079">
        <ele>1415</ele>
        <time>2020-07-16T12:30:41.530Z</time>
      </trkpt>
      <trkpt lat="46.48705" lon="8.26079">
        <ele>1415</ele>
        <time>2020-07-16T12:30:42.530Z</time>
      </trkpt>
      <trkpt lat="46.48704" lon="8.26078">
        <ele>1415</ele>
        <time>2020-07-16T12:30:43.530Z</time>
      </trkpt>
      <trkpt lat="46.48704" lon="8.26077">
        <ele>1415</ele>
        <time>2020-07-16T12:30:44.530Z</time>
      </trkpt>
      <trkpt lat="46.48704" lon="8.26077">
        <ele>1415</ele>
        <time>2020-07-16T12:30:45.530Z</time>
      </trkpt>
      <trkpt lat="46.48704" lon="8.26076">
        <ele>1416</ele>
        <time>2020-07-16T12:30:46.530Z</time>
      </trkpt>
      <trkpt lat="46.48704" lon="8.26076">
        <ele>1416</ele>
        <time>2020-07-16T12:30:47.530Z</time>
      </trkpt>
      <trkpt lat="46.48704" lon="8.26074">
        <ele>1415</ele>
        <time>2020-07-16T12:30:48.530Z</time>
      </trkpt>
      <trkpt lat="46.48704" lon="8.26073">
        <ele>1415</ele>
        <time>2020-07-16T12:30:49.529Z</time>
      </trkpt>
      <trkpt lat="46.48704" lon="8.26073">
        <ele>1414</ele>
        <time>2020-07-16T12:30:50.530Z</time>
      </trkpt>
      <trkpt lat="46.48704" lon="8.26072">
        <ele>1414</ele>
        <time>2020-07-16T12:30:51.530Z</time>
      </trkpt>
      <trkpt lat="46.48704" lon="8.26071">
        <ele>1414</ele>
        <time>2020-07-16T12:30:52.529Z</time>
      </trkpt>
      <trkpt lat="46.48704" lon="8.26071">
        <ele>1414</ele>
        <time>2020-07-16T12:30:53.530Z</time>
      </trkpt>
      <trkpt lat="46.48704" lon="8.2607">
        <ele>1414</ele>
        <time>2020-07-16T12:30:54.529Z</time>
      </trkpt>
      <trkpt lat="46.48704" lon="8.2607">
        <ele>1414</ele>
        <time>2020-07-16T12:30:55.529Z</time>
      </trkpt>
      <trkpt lat="46.48704" lon="8.26069">
        <ele>1414</ele>
        <time>2020-07-16T12:30:56.530Z</time>
      </trkpt>
      <trkpt lat="46.48704" lon="8.26069">
        <ele>1414</ele>
        <time>2020-07-16T12:30:57.530Z</time>
      </trkpt>
      <trkpt lat="46.48704" lon="8.26068">
        <ele>1415</ele>
        <time>2020-07-16T12:30:58.529Z</time>
      </trkpt>
      <trkpt lat="46.48704" lon="8.26067">
        <ele>1415</ele>
        <time>2020-07-16T12:30:59.530Z</time>
      </trkpt>
      <trkpt lat="46.48704" lon="8.26067">
        <ele>1415</ele>
        <time>2020-07-16T12:31:00.530Z</time>
      </trkpt>
      <trkpt lat="46.48704" lon="8.26066">
        <ele>1415</ele>
        <time>2020-07-16T12:31:01.530Z</time>
      </trkpt>
      <trkpt lat="46.48704" lon="8.26065">
        <ele>1415</ele>
        <time>2020-07-16T12:31:02.529Z</time>
      </trkpt>
      <trkpt lat="46.48703" lon="8.26064">
        <ele>1415</ele>
        <time>2020-07-16T12:31:03.530Z</time>
      </trkpt>
      <trkpt lat="46.48703" lon="8.26063">
        <ele>1415</ele>
        <time>2020-07-16T12:31:04.529Z</time>
      </trkpt>
      <trkpt lat="46.48703" lon="8.26063">
        <ele>1415</ele>
        <time>2020-07-16T12:31:05.530Z</time>
      </trkpt>
      <trkpt lat="46.48702" lon="8.26062">
        <ele>1416</ele>
        <time>2020-07-16T12:31:06.529Z</time>
      </trkpt>
      <trkpt lat="46.48702" lon="8.26062">
        <ele>1416</ele>
        <time>2020-07-16T12:31:07.530Z</time>
      </trkpt>
      <trkpt lat="46.48702" lon="8.26061">
        <ele>1417</ele>
        <time>2020-07-16T12:31:08.530Z</time>
      </trkpt>
      <trkpt lat="46.48702" lon="8.2606">
        <ele>1417</ele>
        <time>2020-07-16T12:31:09.529Z</time>
      </trkpt>
      <trkpt lat="46.48702" lon="8.26059">
        <ele>1417</ele>
        <time>2020-07-16T12:31:10.529Z</time>
      </trkpt>
      <trkpt lat="46.48702" lon="8.26057">
        <ele>1417</ele>
        <time>2020-07-16T12:31:11.530Z</time>
      </trkpt>
      <trkpt lat="46.48702" lon="8.26056">
        <ele>1417</ele>
        <time>2020-07-16T12:31:12.530Z</time>
      </trkpt>
      <trkpt lat="46.48702" lon="8.26056">
        <ele>1417</ele>
        <time>2020-07-16T12:31:13.529Z</time>
      </trkpt>
      <trkpt lat="46.48702" lon="8.26055">
        <ele>1417</ele>
        <time>2020-07-16T12:31:14.530Z</time>
      </trkpt>
      <trkpt lat="46.48702" lon="8.26055">
        <ele>1417</ele>
        <time>2020-07-16T12:31:15.529Z</time>
      </trkpt>
      <trkpt lat="46.48702" lon="8.26054">
        <ele>1417</ele>
        <time>2020-07-16T12:31:16.530Z</time>
      </trkpt>
      <trkpt lat="46.48703" lon="8.26053">
        <ele>1417</ele>
        <time>2020-07-16T12:31:17.529Z</time>
      </trkpt>
      <trkpt lat="46.48702" lon="8.26052">
        <ele>1417</ele>
        <time>2020-07-16T12:31:18.529Z</time>
      </trkpt>
      <trkpt lat="46.48702" lon="8.26051">
        <ele>1416</ele>
        <time>2020-07-16T12:31:19.530Z</time>
      </trkpt>
      <trkpt lat="46.48702" lon="8.2605">
        <ele>1415</ele>
        <time>2020-07-16T12:31:20.529Z</time>
      </trkpt>
      <trkpt lat="46.48702" lon="8.26049">
        <ele>1415</ele>
        <time>2020-07-16T12:31:21.529Z</time>
      </trkpt>
      <trkpt lat="46.48702" lon="8.26049">
        <ele>1415</ele>
        <time>2020-07-16T12:31:22.529Z</time>
      </trkpt>
      <trkpt lat="46.48701" lon="8.26048">
        <ele>1415</ele>
        <time>2020-07-16T12:31:23.529Z</time>
      </trkpt>
      <trkpt lat="46.48701" lon="8.26047">
        <ele>1415</ele>
        <time>2020-07-16T12:31:24.529Z</time>
      </trkpt>
      <trkpt lat="46.48701" lon="8.26046">
        <ele>1415</ele>
        <time>2020-07-16T12:31:25.530Z</time>
      </trkpt>
      <trkpt lat="46.48701" lon="8.26045">
        <ele>1415</ele>
        <time>2020-07-16T12:31:26.530Z</time>
      </trkpt>
      <trkpt lat="46.48701" lon="8.26044">
        <ele>1415</ele>
        <time>2020-07-16T12:31:27.530Z</time>
      </trkpt>
      <trkpt lat="46.48701" lon="8.26043">
        <ele>1415</ele>
        <time>2020-07-16T12:31:28.529Z</time>
      </trkpt>
      <trkpt lat="46.48701" lon="8.26042">
        <ele>1416</ele>
        <time>2020-07-16T12:31:29.530Z</time>
      </trkpt>
      <trkpt lat="46.48701" lon="8.26041">
        <ele>1416</ele>
        <time>2020-07-16T12:31:30.530Z</time>
      </trkpt>
      <trkpt lat="46.48701" lon="8.2604">
        <ele>1416</ele>
        <time>2020-07-16T12:31:31.529Z</time>
      </trkpt>
      <trkpt lat="46.48701" lon="8.2604">
        <ele>1416</ele>
        <time>2020-07-16T12:31:32.530Z</time>
      </trkpt>
      <trkpt lat="46.48701" lon="8.26039">
        <ele>1416</ele>
        <time>2020-07-16T12:31:33.529Z</time>
      </trkpt>
      <trkpt lat="46.48701" lon="8.26039">
        <ele>1416</ele>
        <time>2020-07-16T12:31:34.530Z</time>
      </trkpt>
      <trkpt lat="46.487" lon="8.26039">
        <ele>1416</ele>
        <time>2020-07-16T12:31:35.530Z</time>
      </trkpt>
      <trkpt lat="46.487" lon="8.26038">
        <ele>1416</ele>
        <time>2020-07-16T12:31:36.529Z</time>
      </trkpt>
      <trkpt lat="46.487" lon="8.26037">
        <ele>1417</ele>
        <time>2020-07-16T12:31:37.530Z</time>
      </trkpt>
      <trkpt lat="46.48699" lon="8.26036">
        <ele>1417</ele>
        <time>2020-07-16T12:31:38.530Z</time>
      </trkpt>
      <trkpt lat="46.48697" lon="8.26036">
        <ele>1417</ele>
        <time>2020-07-16T12:31:39.530Z</time>
      </trkpt>
      <trkpt lat="46.48697" lon="8.26036">
        <ele>1417</ele>
        <time>2020-07-16T12:31:40.529Z</time>
      </trkpt>
      <trkpt lat="46.48697" lon="8.26035">
        <ele>1416</ele>
        <time>2020-07-16T12:31:41.529Z</time>
      </trkpt>
      <trkpt lat="46.48697" lon="8.26035">
        <ele>1416</ele>
        <time>2020-07-16T12:31:42.530Z</time>
      </trkpt>
      <trkpt lat="46.48697" lon="8.26034">
        <ele>1416</ele>
        <time>2020-07-16T12:31:43.530Z</time>
      </trkpt>
      <trkpt lat="46.48696" lon="8.26033">
        <ele>1416</ele>
        <time>2020-07-16T12:31:44.530Z</time>
      </trkpt>
      <trkpt lat="46.48695" lon="8.26032">
        <ele>1416</ele>
        <time>2020-07-16T12:31:45.530Z</time>
      </trkpt>
      <trkpt lat="46.48695" lon="8.26031">
        <ele>1416</ele>
        <time>2020-07-16T12:31:46.530Z</time>
      </trkpt>
      <trkpt lat="46.48695" lon="8.2603">
        <ele>1415</ele>
        <time>2020-07-16T12:31:47.530Z</time>
      </trkpt>
      <trkpt lat="46.48695" lon="8.26029">
        <ele>1415</ele>
        <time>2020-07-16T12:31:48.529Z</time>
      </trkpt>
      <trkpt lat="46.48694" lon="8.26029">
        <ele>1415</ele>
        <time>2020-07-16T12:31:49.530Z</time>
      </trkpt>
      <trkpt lat="46.48694" lon="8.26029">
        <ele>1415</ele>
        <time>2020-07-16T12:31:50.530Z</time>
      </trkpt>
      <trkpt lat="46.48693" lon="8.26028">
        <ele>1414</ele>
        <time>2020-07-16T12:31:51.529Z</time>
      </trkpt>
      <trkpt lat="46.48693" lon="8.26027">
        <ele>1414</ele>
        <time>2020-07-16T12:31:52.529Z</time>
      </trkpt>
      <trkpt lat="46.48692" lon="8.26027">
        <ele>1413</ele>
        <time>2020-07-16T12:31:53.530Z</time>
      </trkpt>
      <trkpt lat="46.48692" lon="8.26027">
        <ele>1413</ele>
        <time>2020-07-16T12:31:54.530Z</time>
      </trkpt>
      <trkpt lat="46.48691" lon="8.26026">
        <ele>1413</ele>
        <time>2020-07-16T12:31:55.529Z</time>
      </trkpt>
      <trkpt lat="46.48691" lon="8.26026">
        <ele>1413</ele>
        <time>2020-07-16T12:31:56.530Z</time>
      </trkpt>
      <trkpt lat="46.48691" lon="8.26026">
        <ele>1413</ele>
        <time>2020-07-16T12:31:57.529Z</time>
      </trkpt>
      <trkpt lat="46.4869" lon="8.26026">
        <ele>1413</ele>
        <time>2020-07-16T12:31:58.530Z</time>
      </trkpt>
      <trkpt lat="46.48689" lon="8.26026">
        <ele>1414</ele>
        <time>2020-07-16T12:31:59.531Z</time>
      </trkpt>
      <trkpt lat="46.48689" lon="8.26025">
        <ele>1414</ele>
        <time>2020-07-16T12:32:00.531Z</time>
      </trkpt>
      <trkpt lat="46.48688" lon="8.26025">
        <ele>1415</ele>
        <time>2020-07-16T12:32:01.530Z</time>
      </trkpt>
      <trkpt lat="46.48687" lon="8.26025">
        <ele>1415</ele>
        <time>2020-07-16T12:32:02.531Z</time>
      </trkpt>
      <trkpt lat="46.48687" lon="8.26025">
        <ele>1416</ele>
        <time>2020-07-16T12:32:03.531Z</time>
      </trkpt>
      <trkpt lat="46.48687" lon="8.26025">
        <ele>1416</ele>
        <time>2020-07-16T12:32:04.531Z</time>
      </trkpt>
      <trkpt lat="46.48687" lon="8.26024">
        <ele>1417</ele>
        <time>2020-07-16T12:32:05.531Z</time>
      </trkpt>
      <trkpt lat="46.48686" lon="8.26024">
        <ele>1417</ele>
        <time>2020-07-16T12:32:06.531Z</time>
      </trkpt>
      <trkpt lat="46.48686" lon="8.26023">
        <ele>1418</ele>
        <time>2020-07-16T12:32:07.530Z</time>
      </trkpt>
      <trkpt lat="46.48685" lon="8.26023">
        <ele>1418</ele>
        <time>2020-07-16T12:32:08.531Z</time>
      </trkpt>
      <trkpt lat="46.48685" lon="8.26023">
        <ele>1419</ele>
        <time>2020-07-16T12:32:09.530Z</time>
      </trkpt>
      <trkpt lat="46.48684" lon="8.26022">
        <ele>1420</ele>
        <time>2020-07-16T12:32:10.531Z</time>
      </trkpt>
      <trkpt lat="46.48684" lon="8.26022">
        <ele>1420</ele>
        <time>2020-07-16T12:32:11.531Z</time>
      </trkpt>
      <trkpt lat="46.48683" lon="8.26022">
        <ele>1421</ele>
        <time>2020-07-16T12:32:12.531Z</time>
      </trkpt>
      <trkpt lat="46.48682" lon="8.26021">
        <ele>1422</ele>
        <time>2020-07-16T12:32:13.531Z</time>
      </trkpt>
      <trkpt lat="46.48682" lon="8.2602">
        <ele>1422</ele>
        <time>2020-07-16T12:32:14.531Z</time>
      </trkpt>
      <trkpt lat="46.4868" lon="8.26019">
        <ele>1423</ele>
        <time>2020-07-16T12:32:15.530Z</time>
      </trkpt>
      <trkpt lat="46.4868" lon="8.26019">
        <ele>1423</ele>
        <time>2020-07-16T12:32:16.531Z</time>
      </trkpt>
      <trkpt lat="46.48679" lon="8.26018">
        <ele>1424</ele>
        <time>2020-07-16T12:32:17.531Z</time>
      </trkpt>
      <trkpt lat="46.48679" lon="8.26017">
        <ele>1425</ele>
        <time>2020-07-16T12:32:18.530Z</time>
      </trkpt>
      <trkpt lat="46.48679" lon="8.26017">
        <ele>1425</ele>
        <time>2020-07-16T12:32:19.531Z</time>
      </trkpt>
      <trkpt lat="46.48679" lon="8.26016">
        <ele>1425</ele>
        <time>2020-07-16T12:32:20.531Z</time>
      </trkpt>
      <trkpt lat="46.48678" lon="8.26015">
        <ele>1425</ele>
        <time>2020-07-16T12:32:21.531Z</time>
      </trkpt>
      <trkpt lat="46.48678" lon="8.26014">
        <ele>1425</ele>
        <time>2020-07-16T12:32:22.530Z</time>
      </trkpt>
      <trkpt lat="46.48678" lon="8.26014">
        <ele>1425</ele>
        <time>2020-07-16T12:32:23.531Z</time>
      </trkpt>
      <trkpt lat="46.48677" lon="8.26013">
        <ele>1424</ele>
        <time>2020-07-16T12:32:24.531Z</time>
      </trkpt>
      <trkpt lat="46.48677" lon="8.26013">
        <ele>1424</ele>
        <time>2020-07-16T12:32:25.531Z</time>
      </trkpt>
      <trkpt lat="46.48676" lon="8.26013">
        <ele>1424</ele>
        <time>2020-07-16T12:32:26.531Z</time>
      </trkpt>
      <trkpt lat="46.48675" lon="8.26012">
        <ele>1425</ele>
        <time>2020-07-16T12:32:27.531Z</time>
      </trkpt>
      <trkpt lat="46.48673" lon="8.26012">
        <ele>1425</ele>
        <time>2020-07-16T12:32:28.530Z</time>
      </trkpt>
      <trkpt lat="46.48673" lon="8.26011">
        <ele>1425</ele>
        <time>2020-07-16T12:32:29.531Z</time>
      </trkpt>
      <trkpt lat="46.48672" lon="8.26011">
        <ele>1425</ele>
        <time>2020-07-16T12:32:30.531Z</time>
      </trkpt>
      <trkpt lat="46.48672" lon="8.2601">
        <ele>1425</ele>
        <time>2020-07-16T12:32:31.531Z</time>
      </trkpt>
      <trkpt lat="46.48671" lon="8.2601">
        <ele>1425</ele>
        <time>2020-07-16T12:32:32.530Z</time>
      </trkpt>
      <trkpt lat="46.48671" lon="8.26009">
        <ele>1425</ele>
        <time>2020-07-16T12:32:33.531Z</time>
      </trkpt>
      <trkpt lat="46.4867" lon="8.26009">
        <ele>1426</ele>
        <time>2020-07-16T12:32:34.531Z</time>
      </trkpt>
      <trkpt lat="46.4867" lon="8.26008">
        <ele>1426</ele>
        <time>2020-07-16T12:32:35.531Z</time>
      </trkpt>
      <trkpt lat="46.48669" lon="8.26008">
        <ele>1426</ele>
        <time>2020-07-16T12:32:36.531Z</time>
      </trkpt>
      <trkpt lat="46.48669" lon="8.26007">
        <ele>1427</ele>
        <time>2020-07-16T12:32:37.531Z</time>
      </trkpt>
      <trkpt lat="46.48668" lon="8.26007">
        <ele>1427</ele>
        <time>2020-07-16T12:32:38.531Z</time>
      </trkpt>
      <trkpt lat="46.48668" lon="8.26006">
        <ele>1428</ele>
        <time>2020-07-16T12:32:39.530Z</time>
      </trkpt>
      <trkpt lat="46.48667" lon="8.26005">
        <ele>1428</ele>
        <time>2020-07-16T12:32:40.531Z</time>
      </trkpt>
      <trkpt lat="46.48667" lon="8.26005">
        <ele>1429</ele>
        <time>2020-07-16T12:32:41.530Z</time>
      </trkpt>
      <trkpt lat="46.48667" lon="8.26004">
        <ele>1429</ele>
        <time>2020-07-16T12:32:42.531Z</time>
      </trkpt>
      <trkpt lat="46.48667" lon="8.26004">
        <ele>1430</ele>
        <time>2020-07-16T12:32:43.530Z</time>
      </trkpt>
      <trkpt lat="46.48667" lon="8.26003">
        <ele>1430</ele>
        <time>2020-07-16T12:32:44.530Z</time>
      </trkpt>
      <trkpt lat="46.48667" lon="8.26003">
        <ele>1431</ele>
        <time>2020-07-16T12:32:45.531Z</time>
      </trkpt>
      <trkpt lat="46.48667" lon="8.26002">
        <ele>1431</ele>
        <time>2020-07-16T12:32:46.530Z</time>
      </trkpt>
      <trkpt lat="46.48667" lon="8.26002">
        <ele>1431</ele>
        <time>2020-07-16T12:32:47.531Z</time>
      </trkpt>
      <trkpt lat="46.48666" lon="8.26001">
        <ele>1431</ele>
        <time>2020-07-16T12:32:48.530Z</time>
      </trkpt>
      <trkpt lat="46.48666" lon="8.26">
        <ele>1431</ele>
        <time>2020-07-16T12:32:49.531Z</time>
      </trkpt>
      <trkpt lat="46.48666" lon="8.26">
        <ele>1430</ele>
        <time>2020-07-16T12:32:50.531Z</time>
      </trkpt>
      <trkpt lat="46.48666" lon="8.25999">
        <ele>1430</ele>
        <time>2020-07-16T12:32:51.530Z</time>
      </trkpt>
      <trkpt lat="46.48667" lon="8.25998">
        <ele>1430</ele>
        <time>2020-07-16T12:32:52.531Z</time>
      </trkpt>
      <trkpt lat="46.48666" lon="8.25997">
        <ele>1430</ele>
        <time>2020-07-16T12:32:53.531Z</time>
      </trkpt>
      <trkpt lat="46.48666" lon="8.25995">
        <ele>1429</ele>
        <time>2020-07-16T12:32:54.531Z</time>
      </trkpt>
      <trkpt lat="46.48665" lon="8.25994">
        <ele>1429</ele>
        <time>2020-07-16T12:32:55.531Z</time>
      </trkpt>
      <trkpt lat="46.48665" lon="8.25993">
        <ele>1428</ele>
        <time>2020-07-16T12:32:56.530Z</time>
      </trkpt>
      <trkpt lat="46.48665" lon="8.25993">
        <ele>1428</ele>
        <time>2020-07-16T12:32:57.531Z</time>
      </trkpt>
      <trkpt lat="46.48665" lon="8.25992">
        <ele>1428</ele>
        <time>2020-07-16T12:32:58.531Z</time>
      </trkpt>
      <trkpt lat="46.48665" lon="8.25992">
        <ele>1427</ele>
        <time>2020-07-16T12:32:59.530Z</time>
      </trkpt>
      <trkpt lat="46.48665" lon="8.25991">
        <ele>1427</ele>
        <time>2020-07-16T12:33:00.531Z</time>
      </trkpt>
      <trkpt lat="46.48665" lon="8.2599">
        <ele>1427</ele>
        <time>2020-07-16T12:33:01.531Z</time>
      </trkpt>
      <trkpt lat="46.48664" lon="8.25989">
        <ele>1427</ele>
        <time>2020-07-16T12:33:02.531Z</time>
      </trkpt>
      <trkpt lat="46.48664" lon="8.25988">
        <ele>1427</ele>
        <time>2020-07-16T12:33:03.530Z</time>
      </trkpt>
      <trkpt lat="46.48664" lon="8.25987">
        <ele>1427</ele>
        <time>2020-07-16T12:33:04.530Z</time>
      </trkpt>
      <trkpt lat="46.48664" lon="8.25986">
        <ele>1427</ele>
        <time>2020-07-16T12:33:05.531Z</time>
      </trkpt>
      <trkpt lat="46.48664" lon="8.25986">
        <ele>1427</ele>
        <time>2020-07-16T12:33:06.531Z</time>
      </trkpt>
      <trkpt lat="46.48664" lon="8.25985">
        <ele>1427</ele>
        <time>2020-07-16T12:33:07.530Z</time>
      </trkpt>
      <trkpt lat="46.48663" lon="8.25984">
        <ele>1427</ele>
        <time>2020-07-16T12:33:08.530Z</time>
      </trkpt>
      <trkpt lat="46.48663" lon="8.25983">
        <ele>1426</ele>
        <time>2020-07-16T12:33:09.531Z</time>
      </trkpt>
      <trkpt lat="46.48662" lon="8.25982">
        <ele>1426</ele>
        <time>2020-07-16T12:33:10.530Z</time>
      </trkpt>
      <trkpt lat="46.48662" lon="8.25982">
        <ele>1426</ele>
        <time>2020-07-16T12:33:11.531Z</time>
      </trkpt>
      <trkpt lat="46.48662" lon="8.25981">
        <ele>1425</ele>
        <time>2020-07-16T12:33:12.531Z</time>
      </trkpt>
      <trkpt lat="46.48662" lon="8.25981">
        <ele>1425</ele>
        <time>2020-07-16T12:33:13.531Z</time>
      </trkpt>
      <trkpt lat="46.48662" lon="8.2598">
        <ele>1425</ele>
        <time>2020-07-16T12:33:14.531Z</time>
      </trkpt>
      <trkpt lat="46.48662" lon="8.2598">
        <ele>1425</ele>
        <time>2020-07-16T12:33:15.531Z</time>
      </trkpt>
      <trkpt lat="46.48661" lon="8.25979">
        <ele>1424</ele>
        <time>2020-07-16T12:33:16.531Z</time>
      </trkpt>
      <trkpt lat="46.48661" lon="8.25978">
        <ele>1424</ele>
        <time>2020-07-16T12:33:17.531Z</time>
      </trkpt>
      <trkpt lat="46.48661" lon="8.25978">
        <ele>1423</ele>
        <time>2020-07-16T12:33:18.531Z</time>
      </trkpt>
      <trkpt lat="46.48661" lon="8.25977">
        <ele>1423</ele>
        <time>2020-07-16T12:33:19.530Z</time>
      </trkpt>
      <trkpt lat="46.48661" lon="8.25977">
        <ele>1424</ele>
        <time>2020-07-16T12:33:20.531Z</time>
      </trkpt>
      <trkpt lat="46.4866" lon="8.25977">
        <ele>1424</ele>
        <time>2020-07-16T12:33:21.531Z</time>
      </trkpt>
      <trkpt lat="46.4866" lon="8.25976">
        <ele>1424</ele>
        <time>2020-07-16T12:33:22.530Z</time>
      </trkpt>
      <trkpt lat="46.4866" lon="8.25975">
        <ele>1425</ele>
        <time>2020-07-16T12:33:23.531Z</time>
      </trkpt>
      <trkpt lat="46.4866" lon="8.25974">
        <ele>1425</ele>
        <time>2020-07-16T12:33:24.530Z</time>
      </trkpt>
      <trkpt lat="46.4866" lon="8.25974">
        <ele>1425</ele>
        <time>2020-07-16T12:33:25.531Z</time>
      </trkpt>
      <trkpt lat="46.4866" lon="8.25973">
        <ele>1425</ele>
        <time>2020-07-16T12:33:26.531Z</time>
      </trkpt>
      <trkpt lat="46.4866" lon="8.25972">
        <ele>1425</ele>
        <time>2020-07-16T12:33:27.531Z</time>
      </trkpt>
      <trkpt lat="46.4866" lon="8.25972">
        <ele>1425</ele>
        <time>2020-07-16T12:33:28.531Z</time>
      </trkpt>
      <trkpt lat="46.4866" lon="8.25971">
        <ele>1425</ele>
        <time>2020-07-16T12:33:29.531Z</time>
      </trkpt>
      <trkpt lat="46.48659" lon="8.25971">
        <ele>1425</ele>
        <time>2020-07-16T12:33:30.531Z</time>
      </trkpt>
      <trkpt lat="46.48659" lon="8.25971">
        <ele>1425</ele>
        <time>2020-07-16T12:33:31.530Z</time>
      </trkpt>
      <trkpt lat="46.48659" lon="8.2597">
        <ele>1425</ele>
        <time>2020-07-16T12:33:32.531Z</time>
      </trkpt>
      <trkpt lat="46.48658" lon="8.2597">
        <ele>1424</ele>
        <time>2020-07-16T12:33:33.531Z</time>
      </trkpt>
      <trkpt lat="46.48658" lon="8.25969">
        <ele>1424</ele>
        <time>2020-07-16T12:33:34.530Z</time>
      </trkpt>
      <trkpt lat="46.48658" lon="8.25969">
        <ele>1424</ele>
        <time>2020-07-16T12:33:35.531Z</time>
      </trkpt>
      <trkpt lat="46.48658" lon="8.25969">
        <ele>1424</ele>
        <time>2020-07-16T12:33:36.530Z</time>
      </trkpt>
      <trkpt lat="46.48657" lon="8.25968">
        <ele>1425</ele>
        <time>2020-07-16T12:33:37.530Z</time>
      </trkpt>
      <trkpt lat="46.48657" lon="8.25968">
        <ele>1425</ele>
        <time>2020-07-16T12:33:38.531Z</time>
      </trkpt>
      <trkpt lat="46.48656" lon="8.25968">
        <ele>1425</ele>
        <time>2020-07-16T12:33:39.531Z</time>
      </trkpt>
      <trkpt lat="46.48656" lon="8.25967">
        <ele>1426</ele>
        <time>2020-07-16T12:33:40.531Z</time>
      </trkpt>
      <trkpt lat="46.48655" lon="8.25966">
        <ele>1425</ele>
        <time>2020-07-16T12:33:41.530Z</time>
      </trkpt>
      <trkpt lat="46.48655" lon="8.25965">
        <ele>1425</ele>
        <time>2020-07-16T12:33:42.531Z</time>
      </trkpt>
      <trkpt lat="46.48655" lon="8.25965">
        <ele>1425</ele>
        <time>2020-07-16T12:33:43.531Z</time>
      </trkpt>
      <trkpt lat="46.48656" lon="8.25964">
        <ele>1425</ele>
        <time>2020-07-16T12:33:44.531Z</time>
      </trkpt>
      <trkpt lat="46.48656" lon="8.25963">
        <ele>1425</ele>
        <time>2020-07-16T12:33:45.530Z</time>
      </trkpt>
      <trkpt lat="46.48655" lon="8.25963">
        <ele>1426</ele>
        <time>2020-07-16T12:33:46.531Z</time>
      </trkpt>
      <trkpt lat="46.48654" lon="8.25962">
        <ele>1426</ele>
        <time>2020-07-16T12:33:47.530Z</time>
      </trkpt>
      <trkpt lat="46.48654" lon="8.25961">
        <ele>1426</ele>
        <time>2020-07-16T12:33:48.530Z</time>
      </trkpt>
      <trkpt lat="46.48653" lon="8.25959">
        <ele>1426</ele>
        <time>2020-07-16T12:33:49.531Z</time>
      </trkpt>
      <trkpt lat="46.48653" lon="8.25958">
        <ele>1426</ele>
        <time>2020-07-16T12:33:50.531Z</time>
      </trkpt>
      <trkpt lat="46.48653" lon="8.25957">
        <ele>1426</ele>
        <time>2020-07-16T12:33:51.530Z</time>
      </trkpt>
      <trkpt lat="46.48653" lon="8.25956">
        <ele>1426</ele>
        <time>2020-07-16T12:33:52.531Z</time>
      </trkpt>
      <trkpt lat="46.48652" lon="8.25956">
        <ele>1426</ele>
        <time>2020-07-16T12:33:53.531Z</time>
      </trkpt>
      <trkpt lat="46.48652" lon="8.25956">
        <ele>1427</ele>
        <time>2020-07-16T12:33:54.531Z</time>
      </trkpt>
      <trkpt lat="46.48651" lon="8.25955">
        <ele>1427</ele>
        <time>2020-07-16T12:33:55.531Z</time>
      </trkpt>
      <trkpt lat="46.48651" lon="8.25955">
        <ele>1428</ele>
        <time>2020-07-16T12:33:56.531Z</time>
      </trkpt>
      <trkpt lat="46.4865" lon="8.25954">
        <ele>1428</ele>
        <time>2020-07-16T12:33:57.531Z</time>
      </trkpt>
      <trkpt lat="46.4865" lon="8.25953">
        <ele>1429</ele>
        <time>2020-07-16T12:33:58.531Z</time>
      </trkpt>
      <trkpt lat="46.48649" lon="8.25952">
        <ele>1429</ele>
        <time>2020-07-16T12:33:59.530Z</time>
      </trkpt>
      <trkpt lat="46.48649" lon="8.25951">
        <ele>1429</ele>
        <time>2020-07-16T12:34:00.531Z</time>
      </trkpt>
      <trkpt lat="46.48648" lon="8.2595">
        <ele>1430</ele>
        <time>2020-07-16T12:34:01.531Z</time>
      </trkpt>
      <trkpt lat="46.48648" lon="8.25949">
        <ele>1430</ele>
        <time>2020-07-16T12:34:02.530Z</time>
      </trkpt>
      <trkpt lat="46.48647" lon="8.25947">
        <ele>1430</ele>
        <time>2020-07-16T12:34:03.531Z</time>
      </trkpt>
      <trkpt lat="46.48647" lon="8.25945">
        <ele>1430</ele>
        <time>2020-07-16T12:34:04.530Z</time>
      </trkpt>
      <trkpt lat="46.48646" lon="8.25944">
        <ele>1430</ele>
        <time>2020-07-16T12:34:05.531Z</time>
      </trkpt>
      <trkpt lat="46.48645" lon="8.25943">
        <ele>1430</ele>
        <time>2020-07-16T12:34:06.530Z</time>
      </trkpt>
      <trkpt lat="46.48644" lon="8.25943">
        <ele>1429</ele>
        <time>2020-07-16T12:34:07.531Z</time>
      </trkpt>
      <trkpt lat="46.48644" lon="8.25942">
        <ele>1429</ele>
        <time>2020-07-16T12:34:08.531Z</time>
      </trkpt>
      <trkpt lat="46.48643" lon="8.25941">
        <ele>1429</ele>
        <time>2020-07-16T12:34:09.530Z</time>
      </trkpt>
      <trkpt lat="46.48643" lon="8.2594">
        <ele>1428</ele>
        <time>2020-07-16T12:34:10.531Z</time>
      </trkpt>
      <trkpt lat="46.48642" lon="8.2594">
        <ele>1428</ele>
        <time>2020-07-16T12:34:11.531Z</time>
      </trkpt>
      <trkpt lat="46.48642" lon="8.25939">
        <ele>1428</ele>
        <time>2020-07-16T12:34:12.530Z</time>
      </trkpt>
      <trkpt lat="46.48642" lon="8.25938">
        <ele>1428</ele>
        <time>2020-07-16T12:34:13.531Z</time>
      </trkpt>
      <trkpt lat="46.48642" lon="8.25937">
        <ele>1428</ele>
        <time>2020-07-16T12:34:14.530Z</time>
      </trkpt>
      <trkpt lat="46.48641" lon="8.25936">
        <ele>1428</ele>
        <time>2020-07-16T12:34:15.530Z</time>
      </trkpt>
      <trkpt lat="46.48641" lon="8.25935">
        <ele>1427</ele>
        <time>2020-07-16T12:34:16.531Z</time>
      </trkpt>
      <trkpt lat="46.48641" lon="8.25934">
        <ele>1427</ele>
        <time>2020-07-16T12:34:17.530Z</time>
      </trkpt>
      <trkpt lat="46.48641" lon="8.25934">
        <ele>1427</ele>
        <time>2020-07-16T12:34:18.530Z</time>
      </trkpt>
      <trkpt lat="46.4864" lon="8.25933">
        <ele>1427</ele>
        <time>2020-07-16T12:34:19.531Z</time>
      </trkpt>
      <trkpt lat="46.4864" lon="8.25932">
        <ele>1427</ele>
        <time>2020-07-16T12:34:20.531Z</time>
      </trkpt>
      <trkpt lat="46.4864" lon="8.25931">
        <ele>1426</ele>
        <time>2020-07-16T12:34:21.530Z</time>
      </trkpt>
      <trkpt lat="46.48639" lon="8.2593">
        <ele>1426</ele>
        <time>2020-07-16T12:34:22.530Z</time>
      </trkpt>
      <trkpt lat="46.48639" lon="8.25929">
        <ele>1425</ele>
        <time>2020-07-16T12:34:23.530Z</time>
      </trkpt>
      <trkpt lat="46.48639" lon="8.25928">
        <ele>1425</ele>
        <time>2020-07-16T12:34:24.530Z</time>
      </trkpt>
      <trkpt lat="46.48639" lon="8.25927">
        <ele>1425</ele>
        <time>2020-07-16T12:34:25.530Z</time>
      </trkpt>
      <trkpt lat="46.48639" lon="8.25926">
        <ele>1426</ele>
        <time>2020-07-16T12:34:26.530Z</time>
      </trkpt>
      <trkpt lat="46.48639" lon="8.25925">
        <ele>1426</ele>
        <time>2020-07-16T12:34:27.531Z</time>
      </trkpt>
      <trkpt lat="46.48639" lon="8.25924">
        <ele>1426</ele>
        <time>2020-07-16T12:34:28.531Z</time>
      </trkpt>
      <trkpt lat="46.48639" lon="8.25923">
        <ele>1426</ele>
        <time>2020-07-16T12:34:29.531Z</time>
      </trkpt>
      <trkpt lat="46.48639" lon="8.25922">
        <ele>1426</ele>
        <time>2020-07-16T12:34:30.530Z</time>
      </trkpt>
      <trkpt lat="46.48639" lon="8.2592">
        <ele>1427</ele>
        <time>2020-07-16T12:34:31.530Z</time>
      </trkpt>
      <trkpt lat="46.4864" lon="8.25919">
        <ele>1427</ele>
        <time>2020-07-16T12:34:32.531Z</time>
      </trkpt>
      <trkpt lat="46.4864" lon="8.25917">
        <ele>1426</ele>
        <time>2020-07-16T12:34:33.530Z</time>
      </trkpt>
      <trkpt lat="46.4864" lon="8.25916">
        <ele>1426</ele>
        <time>2020-07-16T12:34:34.531Z</time>
      </trkpt>
      <trkpt lat="46.4864" lon="8.25915">
        <ele>1425</ele>
        <time>2020-07-16T12:34:35.531Z</time>
      </trkpt>
      <trkpt lat="46.48641" lon="8.25914">
        <ele>1425</ele>
        <time>2020-07-16T12:34:36.531Z</time>
      </trkpt>
      <trkpt lat="46.48641" lon="8.25912">
        <ele>1424</ele>
        <time>2020-07-16T12:34:37.531Z</time>
      </trkpt>
      <trkpt lat="46.48642" lon="8.25911">
        <ele>1423</ele>
        <time>2020-07-16T12:34:38.531Z</time>
      </trkpt>
      <trkpt lat="46.48642" lon="8.2591">
        <ele>1423</ele>
        <time>2020-07-16T12:34:39.531Z</time>
      </trkpt>
      <trkpt lat="46.48643" lon="8.25909">
        <ele>1422</ele>
        <time>2020-07-16T12:34:40.531Z</time>
      </trkpt>
      <trkpt lat="46.48643" lon="8.25909">
        <ele>1422</ele>
        <time>2020-07-16T12:34:41.531Z</time>
      </trkpt>
      <trkpt lat="46.48644" lon="8.25907">
        <ele>1421</ele>
        <time>2020-07-16T12:34:42.530Z</time>
      </trkpt>
      <trkpt lat="46.48645" lon="8.25906">
        <ele>1421</ele>
        <time>2020-07-16T12:34:43.531Z</time>
      </trkpt>
      <trkpt lat="46.48645" lon="8.25905">
        <ele>1421</ele>
        <time>2020-07-16T12:34:44.530Z</time>
      </trkpt>
      <trkpt lat="46.48646" lon="8.25904">
        <ele>1421</ele>
        <time>2020-07-16T12:34:45.531Z</time>
      </trkpt>
      <trkpt lat="46.48646" lon="8.25903">
        <ele>1421</ele>
        <time>2020-07-16T12:34:46.530Z</time>
      </trkpt>
      <trkpt lat="46.48646" lon="8.25902">
        <ele>1421</ele>
        <time>2020-07-16T12:34:47.530Z</time>
      </trkpt>
      <trkpt lat="46.48647" lon="8.25901">
        <ele>1421</ele>
        <time>2020-07-16T12:34:48.530Z</time>
      </trkpt>
      <trkpt lat="46.48647" lon="8.259">
        <ele>1420</ele>
        <time>2020-07-16T12:34:49.531Z</time>
      </trkpt>
      <trkpt lat="46.48647" lon="8.25899">
        <ele>1420</ele>
        <time>2020-07-16T12:34:50.531Z</time>
      </trkpt>
      <trkpt lat="46.48647" lon="8.25898">
        <ele>1420</ele>
        <time>2020-07-16T12:34:51.531Z</time>
      </trkpt>
      <trkpt lat="46.48647" lon="8.25897">
        <ele>1420</ele>
        <time>2020-07-16T12:34:52.531Z</time>
      </trkpt>
      <trkpt lat="46.48646" lon="8.25894">
        <ele>1421</ele>
        <time>2020-07-16T12:34:53.531Z</time>
      </trkpt>
      <trkpt lat="46.48646" lon="8.25893">
        <ele>1422</ele>
        <time>2020-07-16T12:34:54.532Z</time>
      </trkpt>
      <trkpt lat="46.48646" lon="8.25892">
        <ele>1422</ele>
        <time>2020-07-16T12:34:55.531Z</time>
      </trkpt>
      <trkpt lat="46.48647" lon="8.25892">
        <ele>1423</ele>
        <time>2020-07-16T12:34:56.531Z</time>
      </trkpt>
      <trkpt lat="46.48647" lon="8.25891">
        <ele>1423</ele>
        <time>2020-07-16T12:34:57.531Z</time>
      </trkpt>
      <trkpt lat="46.48647" lon="8.2589">
        <ele>1423</ele>
        <time>2020-07-16T12:34:58.531Z</time>
      </trkpt>
      <trkpt lat="46.48648" lon="8.25889">
        <ele>1424</ele>
        <time>2020-07-16T12:34:59.531Z</time>
      </trkpt>
      <trkpt lat="46.48648" lon="8.25887">
        <ele>1424</ele>
        <time>2020-07-16T12:35:00.531Z</time>
      </trkpt>
      <trkpt lat="46.48648" lon="8.25886">
        <ele>1424</ele>
        <time>2020-07-16T12:35:01.532Z</time>
      </trkpt>
      <trkpt lat="46.48647" lon="8.25885">
        <ele>1424</ele>
        <time>2020-07-16T12:35:02.531Z</time>
      </trkpt>
      <trkpt lat="46.48647" lon="8.25883">
        <ele>1424</ele>
        <time>2020-07-16T12:35:03.532Z</time>
      </trkpt>
      <trkpt lat="46.48647" lon="8.25882">
        <ele>1424</ele>
        <time>2020-07-16T12:35:04.531Z</time>
      </trkpt>
      <trkpt lat="46.48647" lon="8.25881">
        <ele>1424</ele>
        <time>2020-07-16T12:35:05.532Z</time>
      </trkpt>
      <trkpt lat="46.48647" lon="8.25881">
        <ele>1424</ele>
        <time>2020-07-16T12:35:06.532Z</time>
      </trkpt>
      <trkpt lat="46.48646" lon="8.2588">
        <ele>1425</ele>
        <time>2020-07-16T12:35:07.531Z</time>
      </trkpt>
      <trkpt lat="46.48646" lon="8.25879">
        <ele>1425</ele>
        <time>2020-07-16T12:35:08.532Z</time>
      </trkpt>
      <trkpt lat="46.48646" lon="8.25878">
        <ele>1425</ele>
        <time>2020-07-16T12:35:09.532Z</time>
      </trkpt>
      <trkpt lat="46.48646" lon="8.25877">
        <ele>1425</ele>
        <time>2020-07-16T12:35:10.532Z</time>
      </trkpt>
      <trkpt lat="46.48646" lon="8.25877">
        <ele>1424</ele>
        <time>2020-07-16T12:35:11.532Z</time>
      </trkpt>
      <trkpt lat="46.48646" lon="8.25876">
        <ele>1424</ele>
        <time>2020-07-16T12:35:12.531Z</time>
      </trkpt>
      <trkpt lat="46.48645" lon="8.25876">
        <ele>1424</ele>
        <time>2020-07-16T12:35:13.532Z</time>
      </trkpt>
      <trkpt lat="46.48645" lon="8.25875">
        <ele>1424</ele>
        <time>2020-07-16T12:35:14.532Z</time>
      </trkpt>
      <trkpt lat="46.48645" lon="8.25875">
        <ele>1424</ele>
        <time>2020-07-16T12:35:15.532Z</time>
      </trkpt>
      <trkpt lat="46.48645" lon="8.25874">
        <ele>1425</ele>
        <time>2020-07-16T12:35:16.532Z</time>
      </trkpt>
      <trkpt lat="46.48645" lon="8.25873">
        <ele>1425</ele>
        <time>2020-07-16T12:35:17.532Z</time>
      </trkpt>
      <trkpt lat="46.48644" lon="8.25873">
        <ele>1425</ele>
        <time>2020-07-16T12:35:18.532Z</time>
      </trkpt>
      <trkpt lat="46.48644" lon="8.25872">
        <ele>1425</ele>
        <time>2020-07-16T12:35:19.532Z</time>
      </trkpt>
      <trkpt lat="46.48643" lon="8.25871">
        <ele>1425</ele>
        <time>2020-07-16T12:35:20.532Z</time>
      </trkpt>
      <trkpt lat="46.48643" lon="8.25871">
        <ele>1424</ele>
        <time>2020-07-16T12:35:21.532Z</time>
      </trkpt>
      <trkpt lat="46.48643" lon="8.2587">
        <ele>1424</ele>
        <time>2020-07-16T12:35:22.531Z</time>
      </trkpt>
      <trkpt lat="46.48643" lon="8.25869">
        <ele>1424</ele>
        <time>2020-07-16T12:35:23.531Z</time>
      </trkpt>
      <trkpt lat="46.48643" lon="8.25869">
        <ele>1424</ele>
        <time>2020-07-16T12:35:24.532Z</time>
      </trkpt>
      <trkpt lat="46.48642" lon="8.25868">
        <ele>1424</ele>
        <time>2020-07-16T12:35:25.531Z</time>
      </trkpt>
      <trkpt lat="46.48642" lon="8.25868">
        <ele>1424</ele>
        <time>2020-07-16T12:35:26.531Z</time>
      </trkpt>
      <trkpt lat="46.48642" lon="8.25868">
        <ele>1424</ele>
        <time>2020-07-16T12:35:27.532Z</time>
      </trkpt>
      <trkpt lat="46.48641" lon="8.25867">
        <ele>1424</ele>
        <time>2020-07-16T12:35:28.532Z</time>
      </trkpt>
      <trkpt lat="46.48641" lon="8.25866">
        <ele>1424</ele>
        <time>2020-07-16T12:35:29.532Z</time>
      </trkpt>
      <trkpt lat="46.48641" lon="8.25866">
        <ele>1424</ele>
        <time>2020-07-16T12:35:30.531Z</time>
      </trkpt>
      <trkpt lat="46.48641" lon="8.25865">
        <ele>1424</ele>
        <time>2020-07-16T12:35:31.532Z</time>
      </trkpt>
      <trkpt lat="46.48641" lon="8.25864">
        <ele>1424</ele>
        <time>2020-07-16T12:35:32.531Z</time>
      </trkpt>
      <trkpt lat="46.48641" lon="8.25864">
        <ele>1423</ele>
        <time>2020-07-16T12:35:33.532Z</time>
      </trkpt>
      <trkpt lat="46.4864" lon="8.25863">
        <ele>1423</ele>
        <time>2020-07-16T12:35:34.531Z</time>
      </trkpt>
      <trkpt lat="46.4864" lon="8.25862">
        <ele>1423</ele>
        <time>2020-07-16T12:35:35.531Z</time>
      </trkpt>
      <trkpt lat="46.4864" lon="8.25861">
        <ele>1423</ele>
        <time>2020-07-16T12:35:36.531Z</time>
      </trkpt>
      <trkpt lat="46.48639" lon="8.25861">
        <ele>1422</ele>
        <time>2020-07-16T12:35:37.532Z</time>
      </trkpt>
      <trkpt lat="46.48639" lon="8.2586">
        <ele>1422</ele>
        <time>2020-07-16T12:35:38.531Z</time>
      </trkpt>
      <trkpt lat="46.48638" lon="8.2586">
        <ele>1422</ele>
        <time>2020-07-16T12:35:39.531Z</time>
      </trkpt>
      <trkpt lat="46.48638" lon="8.25859">
        <ele>1422</ele>
        <time>2020-07-16T12:35:40.532Z</time>
      </trkpt>
      <trkpt lat="46.48637" lon="8.25858">
        <ele>1422</ele>
        <time>2020-07-16T12:35:41.532Z</time>
      </trkpt>
      <trkpt lat="46.48637" lon="8.25857">
        <ele>1421</ele>
        <time>2020-07-16T12:35:42.532Z</time>
      </trkpt>
      <trkpt lat="46.48636" lon="8.25856">
        <ele>1421</ele>
        <time>2020-07-16T12:35:43.531Z</time>
      </trkpt>
      <trkpt lat="46.48636" lon="8.25854">
        <ele>1421</ele>
        <time>2020-07-16T12:35:44.532Z</time>
      </trkpt>
      <trkpt lat="46.48635" lon="8.25853">
        <ele>1421</ele>
        <time>2020-07-16T12:35:45.531Z</time>
      </trkpt>
      <trkpt lat="46.48635" lon="8.25852">
        <ele>1421</ele>
        <time>2020-07-16T12:35:46.531Z</time>
      </trkpt>
      <trkpt lat="46.48635" lon="8.25852">
        <ele>1421</ele>
        <time>2020-07-16T12:35:47.531Z</time>
      </trkpt>
      <trkpt lat="46.48634" lon="8.25851">
        <ele>1422</ele>
        <time>2020-07-16T12:35:48.532Z</time>
      </trkpt>
      <trkpt lat="46.48634" lon="8.2585">
        <ele>1422</ele>
        <time>2020-07-16T12:35:49.532Z</time>
      </trkpt>
      <trkpt lat="46.48634" lon="8.25849">
        <ele>1422</ele>
        <time>2020-07-16T12:35:50.532Z</time>
      </trkpt>
      <trkpt lat="46.48633" lon="8.25849">
        <ele>1422</ele>
        <time>2020-07-16T12:35:51.532Z</time>
      </trkpt>
      <trkpt lat="46.48633" lon="8.25848">
        <ele>1422</ele>
        <time>2020-07-16T12:35:52.532Z</time>
      </trkpt>
      <trkpt lat="46.48633" lon="8.25847">
        <ele>1422</ele>
        <time>2020-07-16T12:35:53.531Z</time>
      </trkpt>
      <trkpt lat="46.48633" lon="8.25847">
        <ele>1422</ele>
        <time>2020-07-16T12:35:54.531Z</time>
      </trkpt>
      <trkpt lat="46.48632" lon="8.25846">
        <ele>1423</ele>
        <time>2020-07-16T12:35:55.532Z</time>
      </trkpt>
      <trkpt lat="46.48632" lon="8.25845">
        <ele>1424</ele>
        <time>2020-07-16T12:35:56.532Z</time>
      </trkpt>
      <trkpt lat="46.48632" lon="8.25844">
        <ele>1424</ele>
        <time>2020-07-16T12:35:57.532Z</time>
      </trkpt>
      <trkpt lat="46.48632" lon="8.25843">
        <ele>1425</ele>
        <time>2020-07-16T12:35:58.531Z</time>
      </trkpt>
      <trkpt lat="46.48631" lon="8.25842">
        <ele>1426</ele>
        <time>2020-07-16T12:35:59.532Z</time>
      </trkpt>
      <trkpt lat="46.4863" lon="8.25841">
        <ele>1427</ele>
        <time>2020-07-16T12:36:00.532Z</time>
      </trkpt>
      <trkpt lat="46.4863" lon="8.2584">
        <ele>1427</ele>
        <time>2020-07-16T12:36:01.532Z</time>
      </trkpt>
      <trkpt lat="46.48629" lon="8.25838">
        <ele>1428</ele>
        <time>2020-07-16T12:36:02.532Z</time>
      </trkpt>
      <trkpt lat="46.48628" lon="8.25837">
        <ele>1428</ele>
        <time>2020-07-16T12:36:03.531Z</time>
      </trkpt>
      <trkpt lat="46.48627" lon="8.25836">
        <ele>1429</ele>
        <time>2020-07-16T12:36:04.532Z</time>
      </trkpt>
      <trkpt lat="46.48626" lon="8.25835">
        <ele>1429</ele>
        <time>2020-07-16T12:36:05.532Z</time>
      </trkpt>
      <trkpt lat="46.48626" lon="8.25834">
        <ele>1430</ele>
        <time>2020-07-16T12:36:06.532Z</time>
      </trkpt>
      <trkpt lat="46.48625" lon="8.25833">
        <ele>1430</ele>
        <time>2020-07-16T12:36:07.531Z</time>
      </trkpt>
      <trkpt lat="46.48624" lon="8.25832">
        <ele>1431</ele>
        <time>2020-07-16T12:36:08.532Z</time>
      </trkpt>
      <trkpt lat="46.48624" lon="8.25831">
        <ele>1431</ele>
        <time>2020-07-16T12:36:09.532Z</time>
      </trkpt>
      <trkpt lat="46.48624" lon="8.25829">
        <ele>1431</ele>
        <time>2020-07-16T12:36:10.532Z</time>
      </trkpt>
      <trkpt lat="46.48623" lon="8.25829">
        <ele>1431</ele>
        <time>2020-07-16T12:36:11.532Z</time>
      </trkpt>
      <trkpt lat="46.48623" lon="8.25828">
        <ele>1431</ele>
        <time>2020-07-16T12:36:12.531Z</time>
      </trkpt>
      <trkpt lat="46.48623" lon="8.25828">
        <ele>1431</ele>
        <time>2020-07-16T12:36:13.532Z</time>
      </trkpt>
      <trkpt lat="46.48622" lon="8.25827">
        <ele>1431</ele>
        <time>2020-07-16T12:36:14.531Z</time>
      </trkpt>
      <trkpt lat="46.48622" lon="8.25826">
        <ele>1431</ele>
        <time>2020-07-16T12:36:15.531Z</time>
      </trkpt>
      <trkpt lat="46.48622" lon="8.25825">
        <ele>1431</ele>
        <time>2020-07-16T12:36:16.532Z</time>
      </trkpt>
      <trkpt lat="46.48621" lon="8.25824">
        <ele>1432</ele>
        <time>2020-07-16T12:36:17.532Z</time>
      </trkpt>
      <trkpt lat="46.48621" lon="8.25824">
        <ele>1432</ele>
        <time>2020-07-16T12:36:18.532Z</time>
      </trkpt>
      <trkpt lat="46.48621" lon="8.25823">
        <ele>1432</ele>
        <time>2020-07-16T12:36:19.531Z</time>
      </trkpt>
      <trkpt lat="46.48621" lon="8.25823">
        <ele>1432</ele>
        <time>2020-07-16T12:36:20.532Z</time>
      </trkpt>
      <trkpt lat="46.48621" lon="8.25822">
        <ele>1432</ele>
        <time>2020-07-16T12:36:21.531Z</time>
      </trkpt>
      <trkpt lat="46.48621" lon="8.25822">
        <ele>1432</ele>
        <time>2020-07-16T12:36:22.532Z</time>
      </trkpt>
      <trkpt lat="46.48617" lon="8.25821">
        <ele>1445</ele>
        <time>2020-07-16T12:36:23.532Z</time>
      </trkpt>
      <trkpt lat="46.48617" lon="8.25821">
        <ele>1445</ele>
        <time>2020-07-16T12:36:24.532Z</time>
      </trkpt>
      <trkpt lat="46.48617" lon="8.2582">
        <ele>1444</ele>
        <time>2020-07-16T12:36:25.531Z</time>
      </trkpt>
      <trkpt lat="46.48617" lon="8.25819">
        <ele>1444</ele>
        <time>2020-07-16T12:36:26.532Z</time>
      </trkpt>
      <trkpt lat="46.48617" lon="8.25818">
        <ele>1443</ele>
        <time>2020-07-16T12:36:27.532Z</time>
      </trkpt>
      <trkpt lat="46.48617" lon="8.25818">
        <ele>1442</ele>
        <time>2020-07-16T12:36:28.532Z</time>
      </trkpt>
      <trkpt lat="46.48617" lon="8.25817">
        <ele>1441</ele>
        <time>2020-07-16T12:36:29.532Z</time>
      </trkpt>
      <trkpt lat="46.48617" lon="8.25816">
        <ele>1441</ele>
        <time>2020-07-16T12:36:30.532Z</time>
      </trkpt>
      <trkpt lat="46.48616" lon="8.25816">
        <ele>1440</ele>
        <time>2020-07-16T12:36:31.532Z</time>
      </trkpt>
      <trkpt lat="46.48616" lon="8.25814">
        <ele>1439</ele>
        <time>2020-07-16T12:36:32.532Z</time>
      </trkpt>
      <trkpt lat="46.48616" lon="8.25813">
        <ele>1439</ele>
        <time>2020-07-16T12:36:33.532Z</time>
      </trkpt>
      <trkpt lat="46.48616" lon="8.25812">
        <ele>1438</ele>
        <time>2020-07-16T12:36:34.532Z</time>
      </trkpt>
      <trkpt lat="46.48616" lon="8.25811">
        <ele>1436</ele>
        <time>2020-07-16T12:36:35.532Z</time>
      </trkpt>
      <trkpt lat="46.48615" lon="8.2581">
        <ele>1436</ele>
        <time>2020-07-16T12:36:36.531Z</time>
      </trkpt>
      <trkpt lat="46.48615" lon="8.2581">
        <ele>1435</ele>
        <time>2020-07-16T12:36:37.532Z</time>
      </trkpt>
      <trkpt lat="46.48615" lon="8.25809">
        <ele>1435</ele>
        <time>2020-07-16T12:36:38.532Z</time>
      </trkpt>
      <trkpt lat="46.48614" lon="8.25808">
        <ele>1435</ele>
        <time>2020-07-16T12:36:39.532Z</time>
      </trkpt>
      <trkpt lat="46.48614" lon="8.25807">
        <ele>1435</ele>
        <time>2020-07-16T12:36:40.532Z</time>
      </trkpt>
      <trkpt lat="46.48614" lon="8.25806">
        <ele>1435</ele>
        <time>2020-07-16T12:36:41.532Z</time>
      </trkpt>
      <trkpt lat="46.48614" lon="8.25805">
        <ele>1435</ele>
        <time>2020-07-16T12:36:42.532Z</time>
      </trkpt>
      <trkpt lat="46.48613" lon="8.25805">
        <ele>1435</ele>
        <time>2020-07-16T12:36:43.532Z</time>
      </trkpt>
      <trkpt lat="46.48613" lon="8.25804">
        <ele>1436</ele>
        <time>2020-07-16T12:36:44.532Z</time>
      </trkpt>
      <trkpt lat="46.48613" lon="8.25803">
        <ele>1436</ele>
        <time>2020-07-16T12:36:45.532Z</time>
      </trkpt>
      <trkpt lat="46.48613" lon="8.25803">
        <ele>1436</ele>
        <time>2020-07-16T12:36:46.532Z</time>
      </trkpt>
      <trkpt lat="46.48612" lon="8.25802">
        <ele>1436</ele>
        <time>2020-07-16T12:36:47.531Z</time>
      </trkpt>
      <trkpt lat="46.48612" lon="8.25801">
        <ele>1436</ele>
        <time>2020-07-16T12:36:48.532Z</time>
      </trkpt>
      <trkpt lat="46.48612" lon="8.258">
        <ele>1436</ele>
        <time>2020-07-16T12:36:49.532Z</time>
      </trkpt>
      <trkpt lat="46.48612" lon="8.258">
        <ele>1436</ele>
        <time>2020-07-16T12:36:50.531Z</time>
      </trkpt>
      <trkpt lat="46.48612" lon="8.258">
        <ele>1437</ele>
        <time>2020-07-16T12:36:51.531Z</time>
      </trkpt>
      <trkpt lat="46.48611" lon="8.25799">
        <ele>1437</ele>
        <time>2020-07-16T12:36:52.532Z</time>
      </trkpt>
      <trkpt lat="46.48611" lon="8.25798">
        <ele>1437</ele>
        <time>2020-07-16T12:36:53.532Z</time>
      </trkpt>
      <trkpt lat="46.48611" lon="8.25798">
        <ele>1437</ele>
        <time>2020-07-16T12:36:54.531Z</time>
      </trkpt>
      <trkpt lat="46.48611" lon="8.25797">
        <ele>1437</ele>
        <time>2020-07-16T12:36:55.531Z</time>
      </trkpt>
      <trkpt lat="46.4861" lon="8.25796">
        <ele>1437</ele>
        <time>2020-07-16T12:36:56.531Z</time>
      </trkpt>
      <trkpt lat="46.4861" lon="8.25795">
        <ele>1437</ele>
        <time>2020-07-16T12:36:57.532Z</time>
      </trkpt>
      <trkpt lat="46.4861" lon="8.25795">
        <ele>1438</ele>
        <time>2020-07-16T12:36:58.532Z</time>
      </trkpt>
      <trkpt lat="46.48609" lon="8.25794">
        <ele>1438</ele>
        <time>2020-07-16T12:36:59.532Z</time>
      </trkpt>
      <trkpt lat="46.48609" lon="8.25794">
        <ele>1438</ele>
        <time>2020-07-16T12:37:00.532Z</time>
      </trkpt>
      <trkpt lat="46.48609" lon="8.25793">
        <ele>1439</ele>
        <time>2020-07-16T12:37:01.532Z</time>
      </trkpt>
      <trkpt lat="46.48609" lon="8.25792">
        <ele>1439</ele>
        <time>2020-07-16T12:37:02.531Z</time>
      </trkpt>
      <trkpt lat="46.48609" lon="8.25791">
        <ele>1439</ele>
        <time>2020-07-16T12:37:03.531Z</time>
      </trkpt>
      <trkpt lat="46.48608" lon="8.25791">
        <ele>1439</ele>
        <time>2020-07-16T12:37:04.532Z</time>
      </trkpt>
      <trkpt lat="46.48608" lon="8.2579">
        <ele>1439</ele>
        <time>2020-07-16T12:37:05.532Z</time>
      </trkpt>
      <trkpt lat="46.48609" lon="8.25788">
        <ele>1439</ele>
        <time>2020-07-16T12:37:06.532Z</time>
      </trkpt>
      <trkpt lat="46.48609" lon="8.25787">
        <ele>1439</ele>
        <time>2020-07-16T12:37:07.532Z</time>
      </trkpt>
      <trkpt lat="46.48609" lon="8.25786">
        <ele>1438</ele>
        <time>2020-07-16T12:37:08.532Z</time>
      </trkpt>
      <trkpt lat="46.48609" lon="8.25785">
        <ele>1438</ele>
        <time>2020-07-16T12:37:09.531Z</time>
      </trkpt>
      <trkpt lat="46.48608" lon="8.25784">
        <ele>1439</ele>
        <time>2020-07-16T12:37:10.531Z</time>
      </trkpt>
      <trkpt lat="46.48607" lon="8.25784">
        <ele>1439</ele>
        <time>2020-07-16T12:37:11.531Z</time>
      </trkpt>
      <trkpt lat="46.48607" lon="8.25783">
        <ele>1439</ele>
        <time>2020-07-16T12:37:12.531Z</time>
      </trkpt>
      <trkpt lat="46.48606" lon="8.25782">
        <ele>1439</ele>
        <time>2020-07-16T12:37:13.532Z</time>
      </trkpt>
      <trkpt lat="46.48606" lon="8.25781">
        <ele>1439</ele>
        <time>2020-07-16T12:37:14.532Z</time>
      </trkpt>
      <trkpt lat="46.48605" lon="8.2578">
        <ele>1439</ele>
        <time>2020-07-16T12:37:15.532Z</time>
      </trkpt>
      <trkpt lat="46.48604" lon="8.25779">
        <ele>1439</ele>
        <time>2020-07-16T12:37:16.531Z</time>
      </trkpt>
      <trkpt lat="46.48604" lon="8.25779">
        <ele>1439</ele>
        <time>2020-07-16T12:37:17.532Z</time>
      </trkpt>
      <trkpt lat="46.48603" lon="8.25778">
        <ele>1439</ele>
        <time>2020-07-16T12:37:18.532Z</time>
      </trkpt>
      <trkpt lat="46.48603" lon="8.25777">
        <ele>1439</ele>
        <time>2020-07-16T12:37:19.532Z</time>
      </trkpt>
      <trkpt lat="46.48602" lon="8.25776">
        <ele>1439</ele>
        <time>2020-07-16T12:37:20.532Z</time>
      </trkpt>
      <trkpt lat="46.48601" lon="8.25776">
        <ele>1439</ele>
        <time>2020-07-16T12:37:21.531Z</time>
      </trkpt>
      <trkpt lat="46.48601" lon="8.25775">
        <ele>1440</ele>
        <time>2020-07-16T12:37:22.532Z</time>
      </trkpt>
      <trkpt lat="46.486" lon="8.25774">
        <ele>1440</ele>
        <time>2020-07-16T12:37:23.531Z</time>
      </trkpt>
      <trkpt lat="46.486" lon="8.25773">
        <ele>1440</ele>
        <time>2020-07-16T12:37:24.532Z</time>
      </trkpt>
      <trkpt lat="46.486" lon="8.25772">
        <ele>1440</ele>
        <time>2020-07-16T12:37:25.532Z</time>
      </trkpt>
      <trkpt lat="46.48599" lon="8.25771">
        <ele>1440</ele>
        <time>2020-07-16T12:37:26.532Z</time>
      </trkpt>
      <trkpt lat="46.48599" lon="8.2577">
        <ele>1439</ele>
        <time>2020-07-16T12:37:27.532Z</time>
      </trkpt>
      <trkpt lat="46.48598" lon="8.25769">
        <ele>1439</ele>
        <time>2020-07-16T12:37:28.531Z</time>
      </trkpt>
      <trkpt lat="46.48598" lon="8.25768">
        <ele>1439</ele>
        <time>2020-07-16T12:37:29.532Z</time>
      </trkpt>
      <trkpt lat="46.48598" lon="8.25767">
        <ele>1439</ele>
        <time>2020-07-16T12:37:30.531Z</time>
      </trkpt>
      <trkpt lat="46.48597" lon="8.25766">
        <ele>1439</ele>
        <time>2020-07-16T12:37:31.532Z</time>
      </trkpt>
      <trkpt lat="46.48597" lon="8.25765">
        <ele>1438</ele>
        <time>2020-07-16T12:37:32.532Z</time>
      </trkpt>
      <trkpt lat="46.48596" lon="8.25764">
        <ele>1439</ele>
        <time>2020-07-16T12:37:33.532Z</time>
      </trkpt>
      <trkpt lat="46.48596" lon="8.25763">
        <ele>1439</ele>
        <time>2020-07-16T12:37:34.531Z</time>
      </trkpt>
      <trkpt lat="46.48595" lon="8.25762">
        <ele>1439</ele>
        <time>2020-07-16T12:37:35.531Z</time>
      </trkpt>
      <trkpt lat="46.48594" lon="8.25761">
        <ele>1440</ele>
        <time>2020-07-16T12:37:36.531Z</time>
      </trkpt>
      <trkpt lat="46.48594" lon="8.25761">
        <ele>1440</ele>
        <time>2020-07-16T12:37:37.532Z</time>
      </trkpt>
      <trkpt lat="46.48593" lon="8.25759">
        <ele>1440</ele>
        <time>2020-07-16T12:37:38.532Z</time>
      </trkpt>
      <trkpt lat="46.48593" lon="8.25758">
        <ele>1440</ele>
        <time>2020-07-16T12:37:39.532Z</time>
      </trkpt>
      <trkpt lat="46.48593" lon="8.25757">
        <ele>1440</ele>
        <time>2020-07-16T12:37:40.532Z</time>
      </trkpt>
      <trkpt lat="46.48593" lon="8.25756">
        <ele>1439</ele>
        <time>2020-07-16T12:37:41.531Z</time>
      </trkpt>
      <trkpt lat="46.48593" lon="8.25755">
        <ele>1439</ele>
        <time>2020-07-16T12:37:42.532Z</time>
      </trkpt>
      <trkpt lat="46.48593" lon="8.25754">
        <ele>1439</ele>
        <time>2020-07-16T12:37:43.531Z</time>
      </trkpt>
      <trkpt lat="46.48592" lon="8.25753">
        <ele>1439</ele>
        <time>2020-07-16T12:37:44.532Z</time>
      </trkpt>
      <trkpt lat="46.48591" lon="8.25752">
        <ele>1438</ele>
        <time>2020-07-16T12:37:45.532Z</time>
      </trkpt>
      <trkpt lat="46.48591" lon="8.25751">
        <ele>1438</ele>
        <time>2020-07-16T12:37:46.532Z</time>
      </trkpt>
      <trkpt lat="46.48591" lon="8.2575">
        <ele>1438</ele>
        <time>2020-07-16T12:37:47.531Z</time>
      </trkpt>
      <trkpt lat="46.48591" lon="8.2575">
        <ele>1439</ele>
        <time>2020-07-16T12:37:48.532Z</time>
      </trkpt>
      <trkpt lat="46.48591" lon="8.25749">
        <ele>1439</ele>
        <time>2020-07-16T12:37:49.532Z</time>
      </trkpt>
      <trkpt lat="46.48591" lon="8.25748">
        <ele>1440</ele>
        <time>2020-07-16T12:37:50.532Z</time>
      </trkpt>
      <trkpt lat="46.4859" lon="8.25747">
        <ele>1439</ele>
        <time>2020-07-16T12:37:51.531Z</time>
      </trkpt>
      <trkpt lat="46.4859" lon="8.25746">
        <ele>1439</ele>
        <time>2020-07-16T12:37:52.531Z</time>
      </trkpt>
      <trkpt lat="46.48589" lon="8.25745">
        <ele>1440</ele>
        <time>2020-07-16T12:37:53.532Z</time>
      </trkpt>
      <trkpt lat="46.48589" lon="8.25743">
        <ele>1440</ele>
        <time>2020-07-16T12:37:54.531Z</time>
      </trkpt>
      <trkpt lat="46.48589" lon="8.25743">
        <ele>1440</ele>
        <time>2020-07-16T12:37:55.532Z</time>
      </trkpt>
      <trkpt lat="46.48588" lon="8.25741">
        <ele>1440</ele>
        <time>2020-07-16T12:37:56.532Z</time>
      </trkpt>
      <trkpt lat="46.48588" lon="8.2574">
        <ele>1439</ele>
        <time>2020-07-16T12:37:57.532Z</time>
      </trkpt>
      <trkpt lat="46.48587" lon="8.25739">
        <ele>1439</ele>
        <time>2020-07-16T12:37:58.532Z</time>
      </trkpt>
      <trkpt lat="46.48587" lon="8.25739">
        <ele>1439</ele>
        <time>2020-07-16T12:37:59.532Z</time>
      </trkpt>
      <trkpt lat="46.48586" lon="8.25738">
        <ele>1439</ele>
        <time>2020-07-16T12:38:00.532Z</time>
      </trkpt>
      <trkpt lat="46.48585" lon="8.25737">
        <ele>1439</ele>
        <time>2020-07-16T12:38:01.531Z</time>
      </trkpt>
      <trkpt lat="46.48585" lon="8.25736">
        <ele>1439</ele>
        <time>2020-07-16T12:38:02.531Z</time>
      </trkpt>
      <trkpt lat="46.48584" lon="8.25735">
        <ele>1439</ele>
        <time>2020-07-16T12:38:03.532Z</time>
      </trkpt>
      <trkpt lat="46.48583" lon="8.25735">
        <ele>1440</ele>
        <time>2020-07-16T12:38:04.532Z</time>
      </trkpt>
      <trkpt lat="46.48583" lon="8.25734">
        <ele>1440</ele>
        <time>2020-07-16T12:38:05.531Z</time>
      </trkpt>
      <trkpt lat="46.48583" lon="8.25734">
        <ele>1440</ele>
        <time>2020-07-16T12:38:06.532Z</time>
      </trkpt>
      <trkpt lat="46.48582" lon="8.25734">
        <ele>1450</ele>
        <time>2020-07-16T12:38:07.532Z</time>
      </trkpt>
      <trkpt lat="46.48582" lon="8.25733">
        <ele>1450</ele>
        <time>2020-07-16T12:38:08.533Z</time>
      </trkpt>
      <trkpt lat="46.48582" lon="8.25733">
        <ele>1450</ele>
        <time>2020-07-16T12:38:09.533Z</time>
      </trkpt>
      <trkpt lat="46.48581" lon="8.25733">
        <ele>1449</ele>
        <time>2020-07-16T12:38:10.533Z</time>
      </trkpt>
      <trkpt lat="46.48581" lon="8.25733">
        <ele>1449</ele>
        <time>2020-07-16T12:38:11.533Z</time>
      </trkpt>
      <trkpt lat="46.48581" lon="8.25733">
        <ele>1449</ele>
        <time>2020-07-16T12:38:12.533Z</time>
      </trkpt>
      <trkpt lat="46.48579" lon="8.25732">
        <ele>1447</ele>
        <time>2020-07-16T12:38:13.533Z</time>
      </trkpt>
      <trkpt lat="46.48578" lon="8.25731">
        <ele>1446</ele>
        <time>2020-07-16T12:38:14.533Z</time>
      </trkpt>
      <trkpt lat="46.48578" lon="8.25731">
        <ele>1446</ele>
        <time>2020-07-16T12:38:15.533Z</time>
      </trkpt>
      <trkpt lat="46.48578" lon="8.25732">
        <ele>1447</ele>
        <time>2020-07-16T12:38:16.533Z</time>
      </trkpt>
      <trkpt lat="46.48578" lon="8.25732">
        <ele>1448</ele>
        <time>2020-07-16T12:38:17.533Z</time>
      </trkpt>
      <trkpt lat="46.48577" lon="8.2573">
        <ele>1447</ele>
        <time>2020-07-16T12:38:18.535Z</time>
      </trkpt>
      <trkpt lat="46.48577" lon="8.25729">
        <ele>1446</ele>
        <time>2020-07-16T12:38:19.534Z</time>
      </trkpt>
      <trkpt lat="46.48576" lon="8.25728">
        <ele>1446</ele>
        <time>2020-07-16T12:38:20.534Z</time>
      </trkpt>
      <trkpt lat="46.48576" lon="8.25726">
        <ele>1446</ele>
        <time>2020-07-16T12:38:21.534Z</time>
      </trkpt>
      <trkpt lat="46.48576" lon="8.25725">
        <ele>1445</ele>
        <time>2020-07-16T12:38:22.534Z</time>
      </trkpt>
      <trkpt lat="46.48576" lon="8.25724">
        <ele>1445</ele>
        <time>2020-07-16T12:38:23.534Z</time>
      </trkpt>
      <trkpt lat="46.48576" lon="8.25723">
        <ele>1445</ele>
        <time>2020-07-16T12:38:24.534Z</time>
      </trkpt>
      <trkpt lat="46.48575" lon="8.25722">
        <ele>1444</ele>
        <time>2020-07-16T12:38:25.534Z</time>
      </trkpt>
      <trkpt lat="46.48575" lon="8.25721">
        <ele>1444</ele>
        <time>2020-07-16T12:38:26.534Z</time>
      </trkpt>
      <trkpt lat="46.48575" lon="8.2572">
        <ele>1444</ele>
        <time>2020-07-16T12:38:27.534Z</time>
      </trkpt>
      <trkpt lat="46.48575" lon="8.25719">
        <ele>1444</ele>
        <time>2020-07-16T12:38:28.534Z</time>
      </trkpt>
      <trkpt lat="46.48575" lon="8.25718">
        <ele>1444</ele>
        <time>2020-07-16T12:38:29.534Z</time>
      </trkpt>
      <trkpt lat="46.48575" lon="8.25717">
        <ele>1444</ele>
        <time>2020-07-16T12:38:30.534Z</time>
      </trkpt>
      <trkpt lat="46.48575" lon="8.25715">
        <ele>1444</ele>
        <time>2020-07-16T12:38:31.535Z</time>
      </trkpt>
      <trkpt lat="46.48575" lon="8.25715">
        <ele>1444</ele>
        <time>2020-07-16T12:38:32.534Z</time>
      </trkpt>
      <trkpt lat="46.48575" lon="8.25713">
        <ele>1444</ele>
        <time>2020-07-16T12:38:33.534Z</time>
      </trkpt>
      <trkpt lat="46.48574" lon="8.25712">
        <ele>1445</ele>
        <time>2020-07-16T12:38:34.535Z</time>
      </trkpt>
      <trkpt lat="46.48574" lon="8.25711">
        <ele>1445</ele>
        <time>2020-07-16T12:38:35.535Z</time>
      </trkpt>
      <trkpt lat="46.48574" lon="8.2571">
        <ele>1445</ele>
        <time>2020-07-16T12:38:36.535Z</time>
      </trkpt>
      <trkpt lat="46.48573" lon="8.25709">
        <ele>1445</ele>
        <time>2020-07-16T12:38:37.534Z</time>
      </trkpt>
      <trkpt lat="46.48572" lon="8.25708">
        <ele>1446</ele>
        <time>2020-07-16T12:38:38.534Z</time>
      </trkpt>
      <trkpt lat="46.48572" lon="8.25707">
        <ele>1446</ele>
        <time>2020-07-16T12:38:39.534Z</time>
      </trkpt>
      <trkpt lat="46.48571" lon="8.25706">
        <ele>1446</ele>
        <time>2020-07-16T12:38:40.534Z</time>
      </trkpt>
      <trkpt lat="46.4857" lon="8.25705">
        <ele>1446</ele>
        <time>2020-07-16T12:38:41.535Z</time>
      </trkpt>
      <trkpt lat="46.4857" lon="8.25704">
        <ele>1447</ele>
        <time>2020-07-16T12:38:42.534Z</time>
      </trkpt>
      <trkpt lat="46.48569" lon="8.25703">
        <ele>1447</ele>
        <time>2020-07-16T12:38:43.534Z</time>
      </trkpt>
      <trkpt lat="46.48569" lon="8.25702">
        <ele>1447</ele>
        <time>2020-07-16T12:38:44.534Z</time>
      </trkpt>
      <trkpt lat="46.48568" lon="8.257">
        <ele>1447</ele>
        <time>2020-07-16T12:38:45.534Z</time>
      </trkpt>
      <trkpt lat="46.48567" lon="8.25699">
        <ele>1447</ele>
        <time>2020-07-16T12:38:46.535Z</time>
      </trkpt>
      <trkpt lat="46.48566" lon="8.25699">
        <ele>1447</ele>
        <time>2020-07-16T12:38:47.535Z</time>
      </trkpt>
      <trkpt lat="46.48566" lon="8.25698">
        <ele>1448</ele>
        <time>2020-07-16T12:38:48.535Z</time>
      </trkpt>
      <trkpt lat="46.48565" lon="8.25698">
        <ele>1448</ele>
        <time>2020-07-16T12:38:49.534Z</time>
      </trkpt>
      <trkpt lat="46.48565" lon="8.25698">
        <ele>1448</ele>
        <time>2020-07-16T12:38:50.534Z</time>
      </trkpt>
      <trkpt lat="46.48564" lon="8.257">
        <ele>1458</ele>
        <time>2020-07-16T12:38:51.535Z</time>
      </trkpt>
      <trkpt lat="46.48564" lon="8.257">
        <ele>1458</ele>
        <time>2020-07-16T12:38:52.535Z</time>
      </trkpt>
      <trkpt lat="46.48563" lon="8.25699">
        <ele>1452</ele>
        <time>2020-07-16T12:38:53.536Z</time>
      </trkpt>
      <trkpt lat="46.48563" lon="8.25699">
        <ele>1451</ele>
        <time>2020-07-16T12:38:54.537Z</time>
      </trkpt>
      <trkpt lat="46.48563" lon="8.25698">
        <ele>1450</ele>
        <time>2020-07-16T12:38:55.537Z</time>
      </trkpt>
      <trkpt lat="46.48563" lon="8.25698">
        <ele>1449</ele>
        <time>2020-07-16T12:38:56.537Z</time>
      </trkpt>
      <trkpt lat="46.48564" lon="8.25697">
        <ele>1448</ele>
        <time>2020-07-16T12:38:57.536Z</time>
      </trkpt>
      <trkpt lat="46.48564" lon="8.25697">
        <ele>1447</ele>
        <time>2020-07-16T12:38:58.537Z</time>
      </trkpt>
      <trkpt lat="46.48564" lon="8.25696">
        <ele>1443</ele>
        <time>2020-07-16T12:38:59.537Z</time>
      </trkpt>
      <trkpt lat="46.48564" lon="8.25695">
        <ele>1443</ele>
        <time>2020-07-16T12:39:00.537Z</time>
      </trkpt>
      <trkpt lat="46.48564" lon="8.25695">
        <ele>1442</ele>
        <time>2020-07-16T12:39:01.537Z</time>
      </trkpt>
      <trkpt lat="46.48563" lon="8.25695">
        <ele>1444</ele>
        <time>2020-07-16T12:39:02.536Z</time>
      </trkpt>
      <trkpt lat="46.48563" lon="8.25694">
        <ele>1444</ele>
        <time>2020-07-16T12:39:03.537Z</time>
      </trkpt>
      <trkpt lat="46.48563" lon="8.25694">
        <ele>1444</ele>
        <time>2020-07-16T12:39:04.536Z</time>
      </trkpt>
      <trkpt lat="46.48563" lon="8.25693">
        <ele>1444</ele>
        <time>2020-07-16T12:39:05.537Z</time>
      </trkpt>
      <trkpt lat="46.48563" lon="8.25691">
        <ele>1444</ele>
        <time>2020-07-16T12:39:06.537Z</time>
      </trkpt>
      <trkpt lat="46.48562" lon="8.2569">
        <ele>1443</ele>
        <time>2020-07-16T12:39:07.537Z</time>
      </trkpt>
      <trkpt lat="46.48562" lon="8.25689">
        <ele>1443</ele>
        <time>2020-07-16T12:39:08.537Z</time>
      </trkpt>
      <trkpt lat="46.48562" lon="8.25688">
        <ele>1442</ele>
        <time>2020-07-16T12:39:09.537Z</time>
      </trkpt>
      <trkpt lat="46.48562" lon="8.25687">
        <ele>1442</ele>
        <time>2020-07-16T12:39:10.537Z</time>
      </trkpt>
      <trkpt lat="46.48562" lon="8.25687">
        <ele>1442</ele>
        <time>2020-07-16T12:39:11.536Z</time>
      </trkpt>
      <trkpt lat="46.48561" lon="8.25686">
        <ele>1441</ele>
        <time>2020-07-16T12:39:12.537Z</time>
      </trkpt>
      <trkpt lat="46.48561" lon="8.25686">
        <ele>1441</ele>
        <time>2020-07-16T12:39:13.537Z</time>
      </trkpt>
      <trkpt lat="46.48561" lon="8.25686">
        <ele>1441</ele>
        <time>2020-07-16T12:39:14.537Z</time>
      </trkpt>
      <trkpt lat="46.48561" lon="8.25685">
        <ele>1441</ele>
        <time>2020-07-16T12:39:15.537Z</time>
      </trkpt>
      <trkpt lat="46.4856" lon="8.25684">
        <ele>1441</ele>
        <time>2020-07-16T12:39:16.536Z</time>
      </trkpt>
      <trkpt lat="46.4856" lon="8.25683">
        <ele>1441</ele>
        <time>2020-07-16T12:39:17.537Z</time>
      </trkpt>
      <trkpt lat="46.48559" lon="8.25682">
        <ele>1441</ele>
        <time>2020-07-16T12:39:18.536Z</time>
      </trkpt>
      <trkpt lat="46.48559" lon="8.25681">
        <ele>1441</ele>
        <time>2020-07-16T12:39:19.537Z</time>
      </trkpt>
      <trkpt lat="46.48558" lon="8.2568">
        <ele>1441</ele>
        <time>2020-07-16T12:39:20.537Z</time>
      </trkpt>
      <trkpt lat="46.48557" lon="8.25679">
        <ele>1442</ele>
        <time>2020-07-16T12:39:21.537Z</time>
      </trkpt>
      <trkpt lat="46.48556" lon="8.25677">
        <ele>1442</ele>
        <time>2020-07-16T12:39:22.536Z</time>
      </trkpt>
      <trkpt lat="46.48556" lon="8.25676">
        <ele>1442</ele>
        <time>2020-07-16T12:39:23.536Z</time>
      </trkpt>
      <trkpt lat="46.48556" lon="8.25675">
        <ele>1442</ele>
        <time>2020-07-16T12:39:24.537Z</time>
      </trkpt>
      <trkpt lat="46.48555" lon="8.25674">
        <ele>1442</ele>
        <time>2020-07-16T12:39:25.537Z</time>
      </trkpt>
      <trkpt lat="46.48555" lon="8.25673">
        <ele>1443</ele>
        <time>2020-07-16T12:39:26.537Z</time>
      </trkpt>
      <trkpt lat="46.48554" lon="8.25672">
        <ele>1443</ele>
        <time>2020-07-16T12:39:27.537Z</time>
      </trkpt>
      <trkpt lat="46.48554" lon="8.25671">
        <ele>1443</ele>
        <time>2020-07-16T12:39:28.537Z</time>
      </trkpt>
      <trkpt lat="46.48553" lon="8.25669">
        <ele>1443</ele>
        <time>2020-07-16T12:39:29.536Z</time>
      </trkpt>
      <trkpt lat="46.48553" lon="8.25669">
        <ele>1444</ele>
        <time>2020-07-16T12:39:30.537Z</time>
      </trkpt>
      <trkpt lat="46.48552" lon="8.25669">
        <ele>1444</ele>
        <time>2020-07-16T12:39:31.536Z</time>
      </trkpt>
      <trkpt lat="46.48552" lon="8.25669">
        <ele>1444</ele>
        <time>2020-07-16T12:39:32.537Z</time>
      </trkpt>
      <trkpt lat="46.48551" lon="8.25667">
        <ele>1447</ele>
        <time>2020-07-16T12:39:33.538Z</time>
      </trkpt>
      <trkpt lat="46.48551" lon="8.25667">
        <ele>1447</ele>
        <time>2020-07-16T12:39:34.537Z</time>
      </trkpt>
      <trkpt lat="46.48551" lon="8.25667">
        <ele>1448</ele>
        <time>2020-07-16T12:39:35.537Z</time>
      </trkpt>
      <trkpt lat="46.4855" lon="8.25666">
        <ele>1449</ele>
        <time>2020-07-16T12:39:36.538Z</time>
      </trkpt>
      <trkpt lat="46.4855" lon="8.25666">
        <ele>1450</ele>
        <time>2020-07-16T12:39:37.537Z</time>
      </trkpt>
      <trkpt lat="46.48551" lon="8.25667">
        <ele>1452</ele>
        <time>2020-07-16T12:39:38.538Z</time>
      </trkpt>
      <trkpt lat="46.48552" lon="8.25668">
        <ele>1452</ele>
        <time>2020-07-16T12:39:39.538Z</time>
      </trkpt>
      <trkpt lat="46.48552" lon="8.2567">
        <ele>1453</ele>
        <time>2020-07-16T12:39:40.537Z</time>
      </trkpt>
      <trkpt lat="46.48553" lon="8.2567">
        <ele>1453</ele>
        <time>2020-07-16T12:39:41.538Z</time>
      </trkpt>
      <trkpt lat="46.48553" lon="8.25669">
        <ele>1453</ele>
        <time>2020-07-16T12:39:42.537Z</time>
      </trkpt>
      <trkpt lat="46.48552" lon="8.25668">
        <ele>1454</ele>
        <time>2020-07-16T12:39:43.537Z</time>
      </trkpt>
      <trkpt lat="46.48552" lon="8.25667">
        <ele>1454</ele>
        <time>2020-07-16T12:39:44.538Z</time>
      </trkpt>
      <trkpt lat="46.48552" lon="8.25666">
        <ele>1454</ele>
        <time>2020-07-16T12:39:45.537Z</time>
      </trkpt>
      <trkpt lat="46.48551" lon="8.25666">
        <ele>1455</ele>
        <time>2020-07-16T12:39:46.538Z</time>
      </trkpt>
      <trkpt lat="46.48551" lon="8.25665">
        <ele>1455</ele>
        <time>2020-07-16T12:39:47.537Z</time>
      </trkpt>
      <trkpt lat="46.4855" lon="8.25664">
        <ele>1455</ele>
        <time>2020-07-16T12:39:48.537Z</time>
      </trkpt>
      <trkpt lat="46.4855" lon="8.25663">
        <ele>1455</ele>
        <time>2020-07-16T12:39:49.537Z</time>
      </trkpt>
      <trkpt lat="46.48549" lon="8.25662">
        <ele>1455</ele>
        <time>2020-07-16T12:39:50.538Z</time>
      </trkpt>
      <trkpt lat="46.48549" lon="8.25661">
        <ele>1455</ele>
        <time>2020-07-16T12:39:51.538Z</time>
      </trkpt>
      <trkpt lat="46.48548" lon="8.2566">
        <ele>1455</ele>
        <time>2020-07-16T12:39:52.537Z</time>
      </trkpt>
      <trkpt lat="46.48548" lon="8.25659">
        <ele>1455</ele>
        <time>2020-07-16T12:39:53.538Z</time>
      </trkpt>
      <trkpt lat="46.48548" lon="8.25658">
        <ele>1455</ele>
        <time>2020-07-16T12:39:54.538Z</time>
      </trkpt>
      <trkpt lat="46.48548" lon="8.25656">
        <ele>1455</ele>
        <time>2020-07-16T12:39:55.538Z</time>
      </trkpt>
      <trkpt lat="46.48547" lon="8.25655">
        <ele>1455</ele>
        <time>2020-07-16T12:39:56.537Z</time>
      </trkpt>
      <trkpt lat="46.48547" lon="8.25654">
        <ele>1455</ele>
        <time>2020-07-16T12:39:57.538Z</time>
      </trkpt>
      <trkpt lat="46.48546" lon="8.25652">
        <ele>1454</ele>
        <time>2020-07-16T12:39:58.538Z</time>
      </trkpt>
      <trkpt lat="46.48545" lon="8.25651">
        <ele>1454</ele>
        <time>2020-07-16T12:39:59.538Z</time>
      </trkpt>
      <trkpt lat="46.48544" lon="8.2565">
        <ele>1453</ele>
        <time>2020-07-16T12:40:00.537Z</time>
      </trkpt>
      <trkpt lat="46.48543" lon="8.25649">
        <ele>1453</ele>
        <time>2020-07-16T12:40:01.538Z</time>
      </trkpt>
      <trkpt lat="46.48543" lon="8.25649">
        <ele>1453</ele>
        <time>2020-07-16T12:40:02.538Z</time>
      </trkpt>
      <trkpt lat="46.48543" lon="8.25648">
        <ele>1453</ele>
        <time>2020-07-16T12:40:03.538Z</time>
      </trkpt>
      <trkpt lat="46.48543" lon="8.25648">
        <ele>1452</ele>
        <time>2020-07-16T12:40:04.538Z</time>
      </trkpt>
      <trkpt lat="46.48542" lon="8.25647">
        <ele>1452</ele>
        <time>2020-07-16T12:40:05.538Z</time>
      </trkpt>
      <trkpt lat="46.48542" lon="8.25645">
        <ele>1452</ele>
        <time>2020-07-16T12:40:06.538Z</time>
      </trkpt>
      <trkpt lat="46.48541" lon="8.25645">
        <ele>1452</ele>
        <time>2020-07-16T12:40:07.537Z</time>
      </trkpt>
      <trkpt lat="46.48541" lon="8.25645">
        <ele>1452</ele>
        <time>2020-07-16T12:40:08.538Z</time>
      </trkpt>
      <trkpt lat="46.48539" lon="8.25645">
        <ele>1455</ele>
        <time>2020-07-16T12:40:09.538Z</time>
      </trkpt>
      <trkpt lat="46.48538" lon="8.25644">
        <ele>1454</ele>
        <time>2020-07-16T12:40:10.538Z</time>
      </trkpt>
      <trkpt lat="46.48538" lon="8.25644">
        <ele>1453</ele>
        <time>2020-07-16T12:40:11.538Z</time>
      </trkpt>
      <trkpt lat="46.48538" lon="8.25645">
        <ele>1452</ele>
        <time>2020-07-16T12:40:12.538Z</time>
      </trkpt>
      <trkpt lat="46.48537" lon="8.25645">
        <ele>1452</ele>
        <time>2020-07-16T12:40:13.538Z</time>
      </trkpt>
      <trkpt lat="46.48538" lon="8.25643">
        <ele>1450</ele>
        <time>2020-07-16T12:40:14.539Z</time>
      </trkpt>
      <trkpt lat="46.48538" lon="8.25642">
        <ele>1450</ele>
        <time>2020-07-16T12:40:15.538Z</time>
      </trkpt>
      <trkpt lat="46.48538" lon="8.25641">
        <ele>1450</ele>
        <time>2020-07-16T12:40:16.539Z</time>
      </trkpt>
      <trkpt lat="46.48538" lon="8.2564">
        <ele>1450</ele>
        <time>2020-07-16T12:40:17.539Z</time>
      </trkpt>
      <trkpt lat="46.48537" lon="8.2564">
        <ele>1449</ele>
        <time>2020-07-16T12:40:18.539Z</time>
      </trkpt>
      <trkpt lat="46.48537" lon="8.25639">
        <ele>1449</ele>
        <time>2020-07-16T12:40:19.538Z</time>
      </trkpt>
      <trkpt lat="46.48537" lon="8.25638">
        <ele>1449</ele>
        <time>2020-07-16T12:40:20.539Z</time>
      </trkpt>
      <trkpt lat="46.48536" lon="8.25637">
        <ele>1449</ele>
        <time>2020-07-16T12:40:21.539Z</time>
      </trkpt>
      <trkpt lat="46.48536" lon="8.25636">
        <ele>1450</ele>
        <time>2020-07-16T12:40:22.539Z</time>
      </trkpt>
      <trkpt lat="46.48535" lon="8.25636">
        <ele>1450</ele>
        <time>2020-07-16T12:40:23.538Z</time>
      </trkpt>
      <trkpt lat="46.48535" lon="8.25635">
        <ele>1451</ele>
        <time>2020-07-16T12:40:24.538Z</time>
      </trkpt>
      <trkpt lat="46.48534" lon="8.25634">
        <ele>1452</ele>
        <time>2020-07-16T12:40:25.539Z</time>
      </trkpt>
      <trkpt lat="46.48534" lon="8.25634">
        <ele>1453</ele>
        <time>2020-07-16T12:40:26.539Z</time>
      </trkpt>
      <trkpt lat="46.48534" lon="8.25633">
        <ele>1453</ele>
        <time>2020-07-16T12:40:27.538Z</time>
      </trkpt>
      <trkpt lat="46.48533" lon="8.25632">
        <ele>1453</ele>
        <time>2020-07-16T12:40:28.538Z</time>
      </trkpt>
      <trkpt lat="46.48533" lon="8.25631">
        <ele>1453</ele>
        <time>2020-07-16T12:40:29.539Z</time>
      </trkpt>
      <trkpt lat="46.48532" lon="8.2563">
        <ele>1453</ele>
        <time>2020-07-16T12:40:30.539Z</time>
      </trkpt>
      <trkpt lat="46.48532" lon="8.25629">
        <ele>1453</ele>
        <time>2020-07-16T12:40:31.538Z</time>
      </trkpt>
      <trkpt lat="46.48532" lon="8.25628">
        <ele>1453</ele>
        <time>2020-07-16T12:40:32.538Z</time>
      </trkpt>
      <trkpt lat="46.48531" lon="8.25627">
        <ele>1453</ele>
        <time>2020-07-16T12:40:33.538Z</time>
      </trkpt>
      <trkpt lat="46.48531" lon="8.25627">
        <ele>1453</ele>
        <time>2020-07-16T12:40:34.538Z</time>
      </trkpt>
      <trkpt lat="46.4853" lon="8.25626">
        <ele>1453</ele>
        <time>2020-07-16T12:40:35.539Z</time>
      </trkpt>
      <trkpt lat="46.4853" lon="8.25625">
        <ele>1453</ele>
        <time>2020-07-16T12:40:36.538Z</time>
      </trkpt>
      <trkpt lat="46.48529" lon="8.25624">
        <ele>1452</ele>
        <time>2020-07-16T12:40:37.538Z</time>
      </trkpt>
      <trkpt lat="46.48529" lon="8.25623">
        <ele>1452</ele>
        <time>2020-07-16T12:40:38.538Z</time>
      </trkpt>
      <trkpt lat="46.48529" lon="8.25622">
        <ele>1452</ele>
        <time>2020-07-16T12:40:39.539Z</time>
      </trkpt>
      <trkpt lat="46.48528" lon="8.25621">
        <ele>1452</ele>
        <time>2020-07-16T12:40:40.539Z</time>
      </trkpt>
      <trkpt lat="46.48528" lon="8.25621">
        <ele>1451</ele>
        <time>2020-07-16T12:40:41.539Z</time>
      </trkpt>
      <trkpt lat="46.48528" lon="8.2562">
        <ele>1451</ele>
        <time>2020-07-16T12:40:42.539Z</time>
      </trkpt>
      <trkpt lat="46.48527" lon="8.25619">
        <ele>1451</ele>
        <time>2020-07-16T12:40:43.539Z</time>
      </trkpt>
      <trkpt lat="46.48527" lon="8.25619">
        <ele>1450</ele>
        <time>2020-07-16T12:40:44.539Z</time>
      </trkpt>
      <trkpt lat="46.48527" lon="8.25618">
        <ele>1450</ele>
        <time>2020-07-16T12:40:45.538Z</time>
      </trkpt>
      <trkpt lat="46.48526" lon="8.25617">
        <ele>1450</ele>
        <time>2020-07-16T12:40:46.539Z</time>
      </trkpt>
      <trkpt lat="46.48526" lon="8.25616">
        <ele>1450</ele>
        <time>2020-07-16T12:40:47.539Z</time>
      </trkpt>
      <trkpt lat="46.48526" lon="8.25615">
        <ele>1450</ele>
        <time>2020-07-16T12:40:48.539Z</time>
      </trkpt>
      <trkpt lat="46.48525" lon="8.25614">
        <ele>1450</ele>
        <time>2020-07-16T12:40:49.539Z</time>
      </trkpt>
      <trkpt lat="46.48525" lon="8.25613">
        <ele>1450</ele>
        <time>2020-07-16T12:40:50.539Z</time>
      </trkpt>
      <trkpt lat="46.48524" lon="8.25612">
        <ele>1450</ele>
        <time>2020-07-16T12:40:51.538Z</time>
      </trkpt>
      <trkpt lat="46.48524" lon="8.25611">
        <ele>1451</ele>
        <time>2020-07-16T12:40:52.539Z</time>
      </trkpt>
      <trkpt lat="46.48524" lon="8.25611">
        <ele>1451</ele>
        <time>2020-07-16T12:40:53.538Z</time>
      </trkpt>
      <trkpt lat="46.48524" lon="8.2561">
        <ele>1451</ele>
        <time>2020-07-16T12:40:54.538Z</time>
      </trkpt>
      <trkpt lat="46.48523" lon="8.25609">
        <ele>1451</ele>
        <time>2020-07-16T12:40:55.538Z</time>
      </trkpt>
      <trkpt lat="46.48523" lon="8.25608">
        <ele>1452</ele>
        <time>2020-07-16T12:40:56.538Z</time>
      </trkpt>
      <trkpt lat="46.48522" lon="8.25607">
        <ele>1452</ele>
        <time>2020-07-16T12:40:57.538Z</time>
      </trkpt>
      <trkpt lat="46.48522" lon="8.25607">
        <ele>1452</ele>
        <time>2020-07-16T12:40:58.539Z</time>
      </trkpt>
      <trkpt lat="46.48522" lon="8.25606">
        <ele>1452</ele>
        <time>2020-07-16T12:40:59.539Z</time>
      </trkpt>
      <trkpt lat="46.48522" lon="8.25605">
        <ele>1452</ele>
        <time>2020-07-16T12:41:00.539Z</time>
      </trkpt>
      <trkpt lat="46.48522" lon="8.25604">
        <ele>1452</ele>
        <time>2020-07-16T12:41:01.538Z</time>
      </trkpt>
      <trkpt lat="46.48522" lon="8.25603">
        <ele>1452</ele>
        <time>2020-07-16T12:41:02.538Z</time>
      </trkpt>
      <trkpt lat="46.48522" lon="8.25603">
        <ele>1453</ele>
        <time>2020-07-16T12:41:03.539Z</time>
      </trkpt>
      <trkpt lat="46.48521" lon="8.25602">
        <ele>1453</ele>
        <time>2020-07-16T12:41:04.539Z</time>
      </trkpt>
      <trkpt lat="46.48521" lon="8.25601">
        <ele>1454</ele>
        <time>2020-07-16T12:41:05.539Z</time>
      </trkpt>
      <trkpt lat="46.4852" lon="8.25601">
        <ele>1454</ele>
        <time>2020-07-16T12:41:06.539Z</time>
      </trkpt>
      <trkpt lat="46.48519" lon="8.256">
        <ele>1454</ele>
        <time>2020-07-16T12:41:07.538Z</time>
      </trkpt>
      <trkpt lat="46.48518" lon="8.25599">
        <ele>1454</ele>
        <time>2020-07-16T12:41:08.538Z</time>
      </trkpt>
      <trkpt lat="46.48518" lon="8.25598">
        <ele>1454</ele>
        <time>2020-07-16T12:41:09.538Z</time>
      </trkpt>
      <trkpt lat="46.48517" lon="8.25598">
        <ele>1454</ele>
        <time>2020-07-16T12:41:10.539Z</time>
      </trkpt>
      <trkpt lat="46.48517" lon="8.25597">
        <ele>1454</ele>
        <time>2020-07-16T12:41:11.539Z</time>
      </trkpt>
      <trkpt lat="46.48516" lon="8.25596">
        <ele>1454</ele>
        <time>2020-07-16T12:41:12.538Z</time>
      </trkpt>
      <trkpt lat="46.48515" lon="8.25595">
        <ele>1454</ele>
        <time>2020-07-16T12:41:13.538Z</time>
      </trkpt>
      <trkpt lat="46.48515" lon="8.25594">
        <ele>1455</ele>
        <time>2020-07-16T12:41:14.539Z</time>
      </trkpt>
      <trkpt lat="46.48514" lon="8.25593">
        <ele>1455</ele>
        <time>2020-07-16T12:41:15.539Z</time>
      </trkpt>
      <trkpt lat="46.48514" lon="8.25593">
        <ele>1455</ele>
        <time>2020-07-16T12:41:16.539Z</time>
      </trkpt>
      <trkpt lat="46.48513" lon="8.25592">
        <ele>1455</ele>
        <time>2020-07-16T12:41:17.539Z</time>
      </trkpt>
      <trkpt lat="46.48513" lon="8.25592">
        <ele>1455</ele>
        <time>2020-07-16T12:41:18.538Z</time>
      </trkpt>
      <trkpt lat="46.48512" lon="8.25592">
        <ele>1455</ele>
        <time>2020-07-16T12:41:19.539Z</time>
      </trkpt>
      <trkpt lat="46.48512" lon="8.25591">
        <ele>1455</ele>
        <time>2020-07-16T12:41:20.538Z</time>
      </trkpt>
      <trkpt lat="46.48511" lon="8.2559">
        <ele>1454</ele>
        <time>2020-07-16T12:41:21.539Z</time>
      </trkpt>
      <trkpt lat="46.48511" lon="8.25589">
        <ele>1454</ele>
        <time>2020-07-16T12:41:22.538Z</time>
      </trkpt>
      <trkpt lat="46.4851" lon="8.25588">
        <ele>1453</ele>
        <time>2020-07-16T12:41:23.539Z</time>
      </trkpt>
      <trkpt lat="46.4851" lon="8.25588">
        <ele>1453</ele>
        <time>2020-07-16T12:41:24.539Z</time>
      </trkpt>
      <trkpt lat="46.4851" lon="8.25587">
        <ele>1452</ele>
        <time>2020-07-16T12:41:25.539Z</time>
      </trkpt>
      <trkpt lat="46.4851" lon="8.25586">
        <ele>1452</ele>
        <time>2020-07-16T12:41:26.539Z</time>
      </trkpt>
      <trkpt lat="46.4851" lon="8.25585">
        <ele>1452</ele>
        <time>2020-07-16T12:41:27.538Z</time>
      </trkpt>
      <trkpt lat="46.4851" lon="8.25584">
        <ele>1453</ele>
        <time>2020-07-16T12:41:28.538Z</time>
      </trkpt>
      <trkpt lat="46.4851" lon="8.25583">
        <ele>1453</ele>
        <time>2020-07-16T12:41:29.538Z</time>
      </trkpt>
      <trkpt lat="46.4851" lon="8.25582">
        <ele>1453</ele>
        <time>2020-07-16T12:41:30.538Z</time>
      </trkpt>
      <trkpt lat="46.48509" lon="8.25582">
        <ele>1453</ele>
        <time>2020-07-16T12:41:31.538Z</time>
      </trkpt>
      <trkpt lat="46.48507" lon="8.2558">
        <ele>1454</ele>
        <time>2020-07-16T12:41:32.538Z</time>
      </trkpt>
      <trkpt lat="46.48507" lon="8.2558">
        <ele>1454</ele>
        <time>2020-07-16T12:41:33.538Z</time>
      </trkpt>
      <trkpt lat="46.48507" lon="8.25579">
        <ele>1454</ele>
        <time>2020-07-16T12:41:34.539Z</time>
      </trkpt>
      <trkpt lat="46.48507" lon="8.25578">
        <ele>1455</ele>
        <time>2020-07-16T12:41:35.538Z</time>
      </trkpt>
      <trkpt lat="46.48506" lon="8.25578">
        <ele>1455</ele>
        <time>2020-07-16T12:41:36.539Z</time>
      </trkpt>
      <trkpt lat="46.48506" lon="8.25579">
        <ele>1455</ele>
        <time>2020-07-16T12:41:37.538Z</time>
      </trkpt>
      <trkpt lat="46.48505" lon="8.2558">
        <ele>1455</ele>
        <time>2020-07-16T12:41:38.538Z</time>
      </trkpt>
      <trkpt lat="46.48507" lon="8.2558">
        <ele>1453</ele>
        <time>2020-07-16T12:41:39.539Z</time>
      </trkpt>
      <trkpt lat="46.48507" lon="8.25579">
        <ele>1453</ele>
        <time>2020-07-16T12:41:40.539Z</time>
      </trkpt>
      <trkpt lat="46.48507" lon="8.25579">
        <ele>1453</ele>
        <time>2020-07-16T12:41:41.538Z</time>
      </trkpt>
      <trkpt lat="46.48507" lon="8.25578">
        <ele>1453</ele>
        <time>2020-07-16T12:41:42.539Z</time>
      </trkpt>
      <trkpt lat="46.48506" lon="8.25577">
        <ele>1453</ele>
        <time>2020-07-16T12:41:43.539Z</time>
      </trkpt>
      <trkpt lat="46.48506" lon="8.25576">
        <ele>1452</ele>
        <time>2020-07-16T12:41:44.538Z</time>
      </trkpt>
      <trkpt lat="46.48506" lon="8.25575">
        <ele>1452</ele>
        <time>2020-07-16T12:41:45.538Z</time>
      </trkpt>
      <trkpt lat="46.48505" lon="8.25574">
        <ele>1451</ele>
        <time>2020-07-16T12:41:46.538Z</time>
      </trkpt>
      <trkpt lat="46.48504" lon="8.25573">
        <ele>1451</ele>
        <time>2020-07-16T12:41:47.539Z</time>
      </trkpt>
      <trkpt lat="46.48504" lon="8.25572">
        <ele>1451</ele>
        <time>2020-07-16T12:41:48.539Z</time>
      </trkpt>
      <trkpt lat="46.48503" lon="8.25572">
        <ele>1451</ele>
        <time>2020-07-16T12:41:49.538Z</time>
      </trkpt>
      <trkpt lat="46.48503" lon="8.25571">
        <ele>1451</ele>
        <time>2020-07-16T12:41:50.538Z</time>
      </trkpt>
      <trkpt lat="46.48502" lon="8.2557">
        <ele>1451</ele>
        <time>2020-07-16T12:41:51.539Z</time>
      </trkpt>
      <trkpt lat="46.48502" lon="8.2557">
        <ele>1451</ele>
        <time>2020-07-16T12:41:52.538Z</time>
      </trkpt>
      <trkpt lat="46.48502" lon="8.25569">
        <ele>1450</ele>
        <time>2020-07-16T12:41:53.538Z</time>
      </trkpt>
      <trkpt lat="46.48502" lon="8.25569">
        <ele>1449</ele>
        <time>2020-07-16T12:41:54.539Z</time>
      </trkpt>
      <trkpt lat="46.48502" lon="8.25568">
        <ele>1449</ele>
        <time>2020-07-16T12:41:55.538Z</time>
      </trkpt>
      <trkpt lat="46.48502" lon="8.25568">
        <ele>1449</ele>
        <time>2020-07-16T12:41:56.539Z</time>
      </trkpt>
      <trkpt lat="46.48501" lon="8.25567">
        <ele>1448</ele>
        <time>2020-07-16T12:41:57.539Z</time>
      </trkpt>
      <trkpt lat="46.48501" lon="8.25566">
        <ele>1449</ele>
        <time>2020-07-16T12:41:58.539Z</time>
      </trkpt>
      <trkpt lat="46.485" lon="8.25565">
        <ele>1449</ele>
        <time>2020-07-16T12:41:59.539Z</time>
      </trkpt>
      <trkpt lat="46.485" lon="8.25564">
        <ele>1449</ele>
        <time>2020-07-16T12:42:00.538Z</time>
      </trkpt>
      <trkpt lat="46.48499" lon="8.25563">
        <ele>1450</ele>
        <time>2020-07-16T12:42:01.539Z</time>
      </trkpt>
      <trkpt lat="46.48499" lon="8.25563">
        <ele>1451</ele>
        <time>2020-07-16T12:42:02.539Z</time>
      </trkpt>
      <trkpt lat="46.48498" lon="8.25562">
        <ele>1452</ele>
        <time>2020-07-16T12:42:03.539Z</time>
      </trkpt>
      <trkpt lat="46.48498" lon="8.25562">
        <ele>1452</ele>
        <time>2020-07-16T12:42:04.538Z</time>
      </trkpt>
      <trkpt lat="46.48498" lon="8.25561">
        <ele>1452</ele>
        <time>2020-07-16T12:42:05.539Z</time>
      </trkpt>
      <trkpt lat="46.48497" lon="8.2556">
        <ele>1452</ele>
        <time>2020-07-16T12:42:06.538Z</time>
      </trkpt>
      <trkpt lat="46.48497" lon="8.25558">
        <ele>1452</ele>
        <time>2020-07-16T12:42:07.538Z</time>
      </trkpt>
      <trkpt lat="46.48497" lon="8.25557">
        <ele>1452</ele>
        <time>2020-07-16T12:42:08.538Z</time>
      </trkpt>
      <trkpt lat="46.48496" lon="8.25556">
        <ele>1452</ele>
        <time>2020-07-16T12:42:09.539Z</time>
      </trkpt>
      <trkpt lat="46.48497" lon="8.25555">
        <ele>1453</ele>
        <time>2020-07-16T12:42:10.538Z</time>
      </trkpt>
      <trkpt lat="46.48498" lon="8.25554">
        <ele>1453</ele>
        <time>2020-07-16T12:42:11.539Z</time>
      </trkpt>
      <trkpt lat="46.48498" lon="8.25554">
        <ele>1454</ele>
        <time>2020-07-16T12:42:12.539Z</time>
      </trkpt>
      <trkpt lat="46.48497" lon="8.25553">
        <ele>1456</ele>
        <time>2020-07-16T12:42:13.539Z</time>
      </trkpt>
      <trkpt lat="46.48497" lon="8.25552">
        <ele>1456</ele>
        <time>2020-07-16T12:42:14.538Z</time>
      </trkpt>
      <trkpt lat="46.48497" lon="8.25552">
        <ele>1457</ele>
        <time>2020-07-16T12:42:15.538Z</time>
      </trkpt>
      <trkpt lat="46.48496" lon="8.25552">
        <ele>1457</ele>
        <time>2020-07-16T12:42:16.538Z</time>
      </trkpt>
      <trkpt lat="46.48495" lon="8.25551">
        <ele>1457</ele>
        <time>2020-07-16T12:42:17.539Z</time>
      </trkpt>
      <trkpt lat="46.48494" lon="8.2555">
        <ele>1458</ele>
        <time>2020-07-16T12:42:18.539Z</time>
      </trkpt>
      <trkpt lat="46.48494" lon="8.25549">
        <ele>1458</ele>
        <time>2020-07-16T12:42:19.539Z</time>
      </trkpt>
      <trkpt lat="46.48493" lon="8.25548">
        <ele>1458</ele>
        <time>2020-07-16T12:42:20.538Z</time>
      </trkpt>
      <trkpt lat="46.48492" lon="8.25547">
        <ele>1459</ele>
        <time>2020-07-16T12:42:21.539Z</time>
      </trkpt>
      <trkpt lat="46.48492" lon="8.25546">
        <ele>1459</ele>
        <time>2020-07-16T12:42:22.539Z</time>
      </trkpt>
      <trkpt lat="46.48492" lon="8.25546">
        <ele>1460</ele>
        <time>2020-07-16T12:42:23.539Z</time>
      </trkpt>
      <trkpt lat="46.4849" lon="8.25547">
        <ele>1458</ele>
        <time>2020-07-16T12:42:24.539Z</time>
      </trkpt>
      <trkpt lat="46.48489" lon="8.25545">
        <ele>1457</ele>
        <time>2020-07-16T12:42:25.539Z</time>
      </trkpt>
      <trkpt lat="46.48489" lon="8.25545">
        <ele>1457</ele>
        <time>2020-07-16T12:42:26.538Z</time>
      </trkpt>
      <trkpt lat="46.48489" lon="8.25544">
        <ele>1457</ele>
        <time>2020-07-16T12:42:27.538Z</time>
      </trkpt>
      <trkpt lat="46.48489" lon="8.25544">
        <ele>1457</ele>
        <time>2020-07-16T12:42:28.539Z</time>
      </trkpt>
      <trkpt lat="46.48489" lon="8.25543">
        <ele>1456</ele>
        <time>2020-07-16T12:42:29.538Z</time>
      </trkpt>
      <trkpt lat="46.48488" lon="8.25542">
        <ele>1455</ele>
        <time>2020-07-16T12:42:30.539Z</time>
      </trkpt>
      <trkpt lat="46.48488" lon="8.25541">
        <ele>1455</ele>
        <time>2020-07-16T12:42:31.538Z</time>
      </trkpt>
      <trkpt lat="46.48487" lon="8.2554">
        <ele>1455</ele>
        <time>2020-07-16T12:42:32.539Z</time>
      </trkpt>
      <trkpt lat="46.48486" lon="8.25539">
        <ele>1455</ele>
        <time>2020-07-16T12:42:33.539Z</time>
      </trkpt>
      <trkpt lat="46.48486" lon="8.25538">
        <ele>1454</ele>
        <time>2020-07-16T12:42:34.538Z</time>
      </trkpt>
      <trkpt lat="46.48486" lon="8.25536">
        <ele>1454</ele>
        <time>2020-07-16T12:42:35.538Z</time>
      </trkpt>
      <trkpt lat="46.48486" lon="8.25535">
        <ele>1455</ele>
        <time>2020-07-16T12:42:36.538Z</time>
      </trkpt>
      <trkpt lat="46.48485" lon="8.25535">
        <ele>1455</ele>
        <time>2020-07-16T12:42:37.538Z</time>
      </trkpt>
      <trkpt lat="46.48485" lon="8.25534">
        <ele>1455</ele>
        <time>2020-07-16T12:42:38.538Z</time>
      </trkpt>
      <trkpt lat="46.48484" lon="8.25533">
        <ele>1455</ele>
        <time>2020-07-16T12:42:39.539Z</time>
      </trkpt>
      <trkpt lat="46.48484" lon="8.25532">
        <ele>1455</ele>
        <time>2020-07-16T12:42:40.539Z</time>
      </trkpt>
      <trkpt lat="46.48483" lon="8.25531">
        <ele>1455</ele>
        <time>2020-07-16T12:42:41.539Z</time>
      </trkpt>
      <trkpt lat="46.48483" lon="8.2553">
        <ele>1456</ele>
        <time>2020-07-16T12:42:42.538Z</time>
      </trkpt>
      <trkpt lat="46.48482" lon="8.25529">
        <ele>1456</ele>
        <time>2020-07-16T12:42:43.539Z</time>
      </trkpt>
      <trkpt lat="46.48482" lon="8.25528">
        <ele>1456</ele>
        <time>2020-07-16T12:42:44.539Z</time>
      </trkpt>
      <trkpt lat="46.48482" lon="8.25527">
        <ele>1456</ele>
        <time>2020-07-16T12:42:45.539Z</time>
      </trkpt>
      <trkpt lat="46.48481" lon="8.25526">
        <ele>1456</ele>
        <time>2020-07-16T12:42:46.539Z</time>
      </trkpt>
      <trkpt lat="46.48481" lon="8.25526">
        <ele>1456</ele>
        <time>2020-07-16T12:42:47.539Z</time>
      </trkpt>
      <trkpt lat="46.48481" lon="8.25525">
        <ele>1456</ele>
        <time>2020-07-16T12:42:48.538Z</time>
      </trkpt>
      <trkpt lat="46.4848" lon="8.25524">
        <ele>1456</ele>
        <time>2020-07-16T12:42:49.538Z</time>
      </trkpt>
      <trkpt lat="46.48479" lon="8.25523">
        <ele>1456</ele>
        <time>2020-07-16T12:42:50.539Z</time>
      </trkpt>
      <trkpt lat="46.48479" lon="8.25522">
        <ele>1455</ele>
        <time>2020-07-16T12:42:51.539Z</time>
      </trkpt>
      <trkpt lat="46.48479" lon="8.25521">
        <ele>1456</ele>
        <time>2020-07-16T12:42:52.538Z</time>
      </trkpt>
      <trkpt lat="46.48478" lon="8.2552">
        <ele>1456</ele>
        <time>2020-07-16T12:42:53.538Z</time>
      </trkpt>
      <trkpt lat="46.48478" lon="8.25519">
        <ele>1457</ele>
        <time>2020-07-16T12:42:54.538Z</time>
      </trkpt>
      <trkpt lat="46.48477" lon="8.25519">
        <ele>1457</ele>
        <time>2020-07-16T12:42:55.539Z</time>
      </trkpt>
      <trkpt lat="46.48477" lon="8.25518">
        <ele>1457</ele>
        <time>2020-07-16T12:42:56.539Z</time>
      </trkpt>
      <trkpt lat="46.48477" lon="8.25516">
        <ele>1457</ele>
        <time>2020-07-16T12:42:57.538Z</time>
      </trkpt>
      <trkpt lat="46.48476" lon="8.25516">
        <ele>1457</ele>
        <time>2020-07-16T12:42:58.539Z</time>
      </trkpt>
      <trkpt lat="46.48475" lon="8.25515">
        <ele>1458</ele>
        <time>2020-07-16T12:42:59.538Z</time>
      </trkpt>
      <trkpt lat="46.48475" lon="8.25514">
        <ele>1458</ele>
        <time>2020-07-16T12:43:00.539Z</time>
      </trkpt>
      <trkpt lat="46.48475" lon="8.25513">
        <ele>1458</ele>
        <time>2020-07-16T12:43:01.539Z</time>
      </trkpt>
      <trkpt lat="46.48474" lon="8.25512">
        <ele>1457</ele>
        <time>2020-07-16T12:43:02.539Z</time>
      </trkpt>
      <trkpt lat="46.48474" lon="8.2551">
        <ele>1457</ele>
        <time>2020-07-16T12:43:03.539Z</time>
      </trkpt>
      <trkpt lat="46.48474" lon="8.25509">
        <ele>1457</ele>
        <time>2020-07-16T12:43:04.538Z</time>
      </trkpt>
      <trkpt lat="46.48474" lon="8.25509">
        <ele>1457</ele>
        <time>2020-07-16T12:43:05.539Z</time>
      </trkpt>
      <trkpt lat="46.48473" lon="8.25508">
        <ele>1458</ele>
        <time>2020-07-16T12:43:06.538Z</time>
      </trkpt>
      <trkpt lat="46.48473" lon="8.25507">
        <ele>1459</ele>
        <time>2020-07-16T12:43:07.538Z</time>
      </trkpt>
      <trkpt lat="46.48472" lon="8.25506">
        <ele>1459</ele>
        <time>2020-07-16T12:43:08.539Z</time>
      </trkpt>
      <trkpt lat="46.48472" lon="8.25505">
        <ele>1459</ele>
        <time>2020-07-16T12:43:09.539Z</time>
      </trkpt>
      <trkpt lat="46.48472" lon="8.25504">
        <ele>1460</ele>
        <time>2020-07-16T12:43:10.538Z</time>
      </trkpt>
      <trkpt lat="46.48471" lon="8.25503">
        <ele>1460</ele>
        <time>2020-07-16T12:43:11.539Z</time>
      </trkpt>
      <trkpt lat="46.4847" lon="8.25503">
        <ele>1460</ele>
        <time>2020-07-16T12:43:12.539Z</time>
      </trkpt>
      <trkpt lat="46.4847" lon="8.25502">
        <ele>1460</ele>
        <time>2020-07-16T12:43:13.539Z</time>
      </trkpt>
      <trkpt lat="46.48469" lon="8.25501">
        <ele>1460</ele>
        <time>2020-07-16T12:43:14.538Z</time>
      </trkpt>
      <trkpt lat="46.48469" lon="8.25501">
        <ele>1460</ele>
        <time>2020-07-16T12:43:15.539Z</time>
      </trkpt>
      <trkpt lat="46.48468" lon="8.255">
        <ele>1460</ele>
        <time>2020-07-16T12:43:16.538Z</time>
      </trkpt>
      <trkpt lat="46.48468" lon="8.255">
        <ele>1460</ele>
        <time>2020-07-16T12:43:17.539Z</time>
      </trkpt>
      <trkpt lat="46.48467" lon="8.25499">
        <ele>1460</ele>
        <time>2020-07-16T12:43:18.538Z</time>
      </trkpt>
      <trkpt lat="46.48466" lon="8.25498">
        <ele>1459</ele>
        <time>2020-07-16T12:43:19.539Z</time>
      </trkpt>
      <trkpt lat="46.48466" lon="8.25497">
        <ele>1459</ele>
        <time>2020-07-16T12:43:20.538Z</time>
      </trkpt>
      <trkpt lat="46.48465" lon="8.25497">
        <ele>1459</ele>
        <time>2020-07-16T12:43:21.539Z</time>
      </trkpt>
      <trkpt lat="46.48465" lon="8.25496">
        <ele>1459</ele>
        <time>2020-07-16T12:43:22.539Z</time>
      </trkpt>
      <trkpt lat="46.48464" lon="8.25495">
        <ele>1459</ele>
        <time>2020-07-16T12:43:23.539Z</time>
      </trkpt>
      <trkpt lat="46.48464" lon="8.25494">
        <ele>1459</ele>
        <time>2020-07-16T12:43:24.538Z</time>
      </trkpt>
      <trkpt lat="46.48463" lon="8.25493">
        <ele>1460</ele>
        <time>2020-07-16T12:43:25.538Z</time>
      </trkpt>
      <trkpt lat="46.48463" lon="8.25492">
        <ele>1460</ele>
        <time>2020-07-16T12:43:26.539Z</time>
      </trkpt>
      <trkpt lat="46.48463" lon="8.25491">
        <ele>1461</ele>
        <time>2020-07-16T12:43:27.538Z</time>
      </trkpt>
      <trkpt lat="46.48462" lon="8.2549">
        <ele>1461</ele>
        <time>2020-07-16T12:43:28.539Z</time>
      </trkpt>
      <trkpt lat="46.48462" lon="8.25489">
        <ele>1461</ele>
        <time>2020-07-16T12:43:29.539Z</time>
      </trkpt>
      <trkpt lat="46.48461" lon="8.25488">
        <ele>1461</ele>
        <time>2020-07-16T12:43:30.538Z</time>
      </trkpt>
      <trkpt lat="46.48461" lon="8.25488">
        <ele>1461</ele>
        <time>2020-07-16T12:43:31.538Z</time>
      </trkpt>
      <trkpt lat="46.4846" lon="8.25487">
        <ele>1461</ele>
        <time>2020-07-16T12:43:32.539Z</time>
      </trkpt>
      <trkpt lat="46.4846" lon="8.25486">
        <ele>1461</ele>
        <time>2020-07-16T12:43:33.539Z</time>
      </trkpt>
      <trkpt lat="46.48459" lon="8.25485">
        <ele>1461</ele>
        <time>2020-07-16T12:43:34.538Z</time>
      </trkpt>
      <trkpt lat="46.48458" lon="8.25485">
        <ele>1461</ele>
        <time>2020-07-16T12:43:35.539Z</time>
      </trkpt>
      <trkpt lat="46.48458" lon="8.25484">
        <ele>1461</ele>
        <time>2020-07-16T12:43:36.538Z</time>
      </trkpt>
      <trkpt lat="46.48457" lon="8.25483">
        <ele>1461</ele>
        <time>2020-07-16T12:43:37.539Z</time>
      </trkpt>
      <trkpt lat="46.48457" lon="8.25482">
        <ele>1461</ele>
        <time>2020-07-16T12:43:38.539Z</time>
      </trkpt>
      <trkpt lat="46.48456" lon="8.25481">
        <ele>1461</ele>
        <time>2020-07-16T12:43:39.538Z</time>
      </trkpt>
      <trkpt lat="46.48456" lon="8.2548">
        <ele>1462</ele>
        <time>2020-07-16T12:43:40.538Z</time>
      </trkpt>
      <trkpt lat="46.48456" lon="8.25479">
        <ele>1462</ele>
        <time>2020-07-16T12:43:41.539Z</time>
      </trkpt>
      <trkpt lat="46.48455" lon="8.25477">
        <ele>1462</ele>
        <time>2020-07-16T12:43:42.539Z</time>
      </trkpt>
      <trkpt lat="46.48455" lon="8.25477">
        <ele>1462</ele>
        <time>2020-07-16T12:43:43.538Z</time>
      </trkpt>
      <trkpt lat="46.48453" lon="8.25476">
        <ele>1463</ele>
        <time>2020-07-16T12:43:44.539Z</time>
      </trkpt>
      <trkpt lat="46.48452" lon="8.25475">
        <ele>1463</ele>
        <time>2020-07-16T12:43:45.539Z</time>
      </trkpt>
      <trkpt lat="46.48452" lon="8.25474">
        <ele>1464</ele>
        <time>2020-07-16T12:43:46.538Z</time>
      </trkpt>
      <trkpt lat="46.48452" lon="8.25473">
        <ele>1464</ele>
        <time>2020-07-16T12:43:47.539Z</time>
      </trkpt>
      <trkpt lat="46.48452" lon="8.25472">
        <ele>1464</ele>
        <time>2020-07-16T12:43:48.538Z</time>
      </trkpt>
      <trkpt lat="46.48452" lon="8.25471">
        <ele>1465</ele>
        <time>2020-07-16T12:43:49.539Z</time>
      </trkpt>
      <trkpt lat="46.48452" lon="8.2547">
        <ele>1465</ele>
        <time>2020-07-16T12:43:50.539Z</time>
      </trkpt>
      <trkpt lat="46.48452" lon="8.25469">
        <ele>1466</ele>
        <time>2020-07-16T12:43:51.538Z</time>
      </trkpt>
      <trkpt lat="46.48451" lon="8.25467">
        <ele>1467</ele>
        <time>2020-07-16T12:43:52.539Z</time>
      </trkpt>
      <trkpt lat="46.48451" lon="8.25466">
        <ele>1467</ele>
        <time>2020-07-16T12:43:53.538Z</time>
      </trkpt>
      <trkpt lat="46.48451" lon="8.25465">
        <ele>1468</ele>
        <time>2020-07-16T12:43:54.539Z</time>
      </trkpt>
      <trkpt lat="46.48451" lon="8.25465">
        <ele>1468</ele>
        <time>2020-07-16T12:43:55.538Z</time>
      </trkpt>
      <trkpt lat="46.4845" lon="8.25464">
        <ele>1469</ele>
        <time>2020-07-16T12:43:56.539Z</time>
      </trkpt>
      <trkpt lat="46.48449" lon="8.25463">
        <ele>1468</ele>
        <time>2020-07-16T12:43:57.538Z</time>
      </trkpt>
      <trkpt lat="46.48449" lon="8.25462">
        <ele>1468</ele>
        <time>2020-07-16T12:43:58.539Z</time>
      </trkpt>
      <trkpt lat="46.48448" lon="8.25461">
        <ele>1468</ele>
        <time>2020-07-16T12:43:59.539Z</time>
      </trkpt>
      <trkpt lat="46.48447" lon="8.2546">
        <ele>1468</ele>
        <time>2020-07-16T12:44:00.538Z</time>
      </trkpt>
      <trkpt lat="46.48446" lon="8.25459">
        <ele>1468</ele>
        <time>2020-07-16T12:44:01.539Z</time>
      </trkpt>
      <trkpt lat="46.48446" lon="8.25458">
        <ele>1468</ele>
        <time>2020-07-16T12:44:02.538Z</time>
      </trkpt>
      <trkpt lat="46.48446" lon="8.25457">
        <ele>1468</ele>
        <time>2020-07-16T12:44:03.538Z</time>
      </trkpt>
      <trkpt lat="46.48445" lon="8.25457">
        <ele>1468</ele>
        <time>2020-07-16T12:44:04.539Z</time>
      </trkpt>
      <trkpt lat="46.48444" lon="8.25456">
        <ele>1468</ele>
        <time>2020-07-16T12:44:05.538Z</time>
      </trkpt>
      <trkpt lat="46.48444" lon="8.25455">
        <ele>1467</ele>
        <time>2020-07-16T12:44:06.539Z</time>
      </trkpt>
      <trkpt lat="46.48443" lon="8.25454">
        <ele>1467</ele>
        <time>2020-07-16T12:44:07.538Z</time>
      </trkpt>
      <trkpt lat="46.48443" lon="8.25453">
        <ele>1467</ele>
        <time>2020-07-16T12:44:08.539Z</time>
      </trkpt>
      <trkpt lat="46.48443" lon="8.25452">
        <ele>1467</ele>
        <time>2020-07-16T12:44:09.538Z</time>
      </trkpt>
      <trkpt lat="46.48442" lon="8.25451">
        <ele>1468</ele>
        <time>2020-07-16T12:44:10.539Z</time>
      </trkpt>
      <trkpt lat="46.48441" lon="8.25451">
        <ele>1468</ele>
        <time>2020-07-16T12:44:11.539Z</time>
      </trkpt>
      <trkpt lat="46.48441" lon="8.2545">
        <ele>1468</ele>
        <time>2020-07-16T12:44:12.538Z</time>
      </trkpt>
      <trkpt lat="46.4844" lon="8.25449">
        <ele>1468</ele>
        <time>2020-07-16T12:44:13.539Z</time>
      </trkpt>
      <trkpt lat="46.4844" lon="8.25448">
        <ele>1468</ele>
        <time>2020-07-16T12:44:14.539Z</time>
      </trkpt>
      <trkpt lat="46.4844" lon="8.25447">
        <ele>1468</ele>
        <time>2020-07-16T12:44:15.539Z</time>
      </trkpt>
      <trkpt lat="46.4844" lon="8.25446">
        <ele>1468</ele>
        <time>2020-07-16T12:44:16.539Z</time>
      </trkpt>
      <trkpt lat="46.48439" lon="8.25445">
        <ele>1468</ele>
        <time>2020-07-16T12:44:17.538Z</time>
      </trkpt>
      <trkpt lat="46.48438" lon="8.25444">
        <ele>1468</ele>
        <time>2020-07-16T12:44:18.539Z</time>
      </trkpt>
      <trkpt lat="46.48438" lon="8.25444">
        <ele>1468</ele>
        <time>2020-07-16T12:44:19.538Z</time>
      </trkpt>
      <trkpt lat="46.48437" lon="8.25443">
        <ele>1468</ele>
        <time>2020-07-16T12:44:20.538Z</time>
      </trkpt>
      <trkpt lat="46.48437" lon="8.25442">
        <ele>1468</ele>
        <time>2020-07-16T12:44:21.539Z</time>
      </trkpt>
      <trkpt lat="46.48436" lon="8.25441">
        <ele>1468</ele>
        <time>2020-07-16T12:44:22.538Z</time>
      </trkpt>
      <trkpt lat="46.48435" lon="8.2544">
        <ele>1468</ele>
        <time>2020-07-16T12:44:23.539Z</time>
      </trkpt>
      <trkpt lat="46.48435" lon="8.25439">
        <ele>1468</ele>
        <time>2020-07-16T12:44:24.539Z</time>
      </trkpt>
      <trkpt lat="46.48434" lon="8.25438">
        <ele>1468</ele>
        <time>2020-07-16T12:44:25.539Z</time>
      </trkpt>
      <trkpt lat="46.48434" lon="8.25438">
        <ele>1468</ele>
        <time>2020-07-16T12:44:26.539Z</time>
      </trkpt>
      <trkpt lat="46.48434" lon="8.25437">
        <ele>1468</ele>
        <time>2020-07-16T12:44:27.538Z</time>
      </trkpt>
      <trkpt lat="46.48433" lon="8.25436">
        <ele>1468</ele>
        <time>2020-07-16T12:44:28.538Z</time>
      </trkpt>
      <trkpt lat="46.48432" lon="8.25435">
        <ele>1469</ele>
        <time>2020-07-16T12:44:29.539Z</time>
      </trkpt>
      <trkpt lat="46.48432" lon="8.25434">
        <ele>1469</ele>
        <time>2020-07-16T12:44:30.538Z</time>
      </trkpt>
      <trkpt lat="46.48431" lon="8.25433">
        <ele>1469</ele>
        <time>2020-07-16T12:44:31.539Z</time>
      </trkpt>
      <trkpt lat="46.48431" lon="8.25432">
        <ele>1468</ele>
        <time>2020-07-16T12:44:32.539Z</time>
      </trkpt>
      <trkpt lat="46.48431" lon="8.25431">
        <ele>1468</ele>
        <time>2020-07-16T12:44:33.539Z</time>
      </trkpt>
      <trkpt lat="46.4843" lon="8.2543">
        <ele>1468</ele>
        <time>2020-07-16T12:44:34.539Z</time>
      </trkpt>
      <trkpt lat="46.4843" lon="8.25429">
        <ele>1468</ele>
        <time>2020-07-16T12:44:35.539Z</time>
      </trkpt>
      <trkpt lat="46.48429" lon="8.25428">
        <ele>1468</ele>
        <time>2020-07-16T12:44:36.538Z</time>
      </trkpt>
      <trkpt lat="46.48429" lon="8.25427">
        <ele>1468</ele>
        <time>2020-07-16T12:44:37.538Z</time>
      </trkpt>
      <trkpt lat="46.48429" lon="8.25426">
        <ele>1468</ele>
        <time>2020-07-16T12:44:38.539Z</time>
      </trkpt>
      <trkpt lat="46.48428" lon="8.25425">
        <ele>1468</ele>
        <time>2020-07-16T12:44:39.539Z</time>
      </trkpt>
      <trkpt lat="46.48428" lon="8.25425">
        <ele>1468</ele>
        <time>2020-07-16T12:44:40.539Z</time>
      </trkpt>
      <trkpt lat="46.48427" lon="8.25424">
        <ele>1468</ele>
        <time>2020-07-16T12:44:41.539Z</time>
      </trkpt>
      <trkpt lat="46.48426" lon="8.25423">
        <ele>1468</ele>
        <time>2020-07-16T12:44:42.539Z</time>
      </trkpt>
      <trkpt lat="46.48425" lon="8.25422">
        <ele>1469</ele>
        <time>2020-07-16T12:44:43.539Z</time>
      </trkpt>
      <trkpt lat="46.48425" lon="8.25421">
        <ele>1469</ele>
        <time>2020-07-16T12:44:44.539Z</time>
      </trkpt>
      <trkpt lat="46.48424" lon="8.2542">
        <ele>1470</ele>
        <time>2020-07-16T12:44:45.538Z</time>
      </trkpt>
      <trkpt lat="46.48423" lon="8.25418">
        <ele>1470</ele>
        <time>2020-07-16T12:44:46.538Z</time>
      </trkpt>
      <trkpt lat="46.48423" lon="8.25417">
        <ele>1470</ele>
        <time>2020-07-16T12:44:47.538Z</time>
      </trkpt>
      <trkpt lat="46.48422" lon="8.25417">
        <ele>1470</ele>
        <time>2020-07-16T12:44:48.539Z</time>
      </trkpt>
      <trkpt lat="46.48422" lon="8.25416">
        <ele>1471</ele>
        <time>2020-07-16T12:44:49.539Z</time>
      </trkpt>
      <trkpt lat="46.48421" lon="8.25415">
        <ele>1471</ele>
        <time>2020-07-16T12:44:50.539Z</time>
      </trkpt>
      <trkpt lat="46.48421" lon="8.25414">
        <ele>1471</ele>
        <time>2020-07-16T12:44:51.539Z</time>
      </trkpt>
      <trkpt lat="46.48421" lon="8.25413">
        <ele>1470</ele>
        <time>2020-07-16T12:44:52.538Z</time>
      </trkpt>
      <trkpt lat="46.48421" lon="8.25413">
        <ele>1470</ele>
        <time>2020-07-16T12:44:53.538Z</time>
      </trkpt>
      <trkpt lat="46.4842" lon="8.25412">
        <ele>1470</ele>
        <time>2020-07-16T12:44:54.539Z</time>
      </trkpt>
      <trkpt lat="46.48419" lon="8.2541">
        <ele>1470</ele>
        <time>2020-07-16T12:44:55.538Z</time>
      </trkpt>
      <trkpt lat="46.48419" lon="8.25409">
        <ele>1471</ele>
        <time>2020-07-16T12:44:56.538Z</time>
      </trkpt>
      <trkpt lat="46.48418" lon="8.25408">
        <ele>1471</ele>
        <time>2020-07-16T12:44:57.539Z</time>
      </trkpt>
      <trkpt lat="46.48417" lon="8.25407">
        <ele>1472</ele>
        <time>2020-07-16T12:44:58.538Z</time>
      </trkpt>
      <trkpt lat="46.48416" lon="8.25406">
        <ele>1473</ele>
        <time>2020-07-16T12:44:59.539Z</time>
      </trkpt>
      <trkpt lat="46.48417" lon="8.25404">
        <ele>1473</ele>
        <time>2020-07-16T12:45:00.539Z</time>
      </trkpt>
      <trkpt lat="46.48417" lon="8.25403">
        <ele>1473</ele>
        <time>2020-07-16T12:45:01.538Z</time>
      </trkpt>
      <trkpt lat="46.48418" lon="8.25403">
        <ele>1474</ele>
        <time>2020-07-16T12:45:02.539Z</time>
      </trkpt>
      <trkpt lat="46.48418" lon="8.25401">
        <ele>1474</ele>
        <time>2020-07-16T12:45:03.538Z</time>
      </trkpt>
      <trkpt lat="46.48417" lon="8.254">
        <ele>1474</ele>
        <time>2020-07-16T12:45:04.538Z</time>
      </trkpt>
      <trkpt lat="46.48416" lon="8.25399">
        <ele>1474</ele>
        <time>2020-07-16T12:45:05.539Z</time>
      </trkpt>
      <trkpt lat="46.48415" lon="8.25398">
        <ele>1474</ele>
        <time>2020-07-16T12:45:06.539Z</time>
      </trkpt>
      <trkpt lat="46.48415" lon="8.25397">
        <ele>1475</ele>
        <time>2020-07-16T12:45:07.538Z</time>
      </trkpt>
      <trkpt lat="46.48414" lon="8.25396">
        <ele>1475</ele>
        <time>2020-07-16T12:45:08.538Z</time>
      </trkpt>
      <trkpt lat="46.48414" lon="8.25395">
        <ele>1475</ele>
        <time>2020-07-16T12:45:09.539Z</time>
      </trkpt>
      <trkpt lat="46.48413" lon="8.25395">
        <ele>1474</ele>
        <time>2020-07-16T12:45:10.539Z</time>
      </trkpt>
      <trkpt lat="46.48413" lon="8.25394">
        <ele>1474</ele>
        <time>2020-07-16T12:45:11.538Z</time>
      </trkpt>
      <trkpt lat="46.48413" lon="8.25394">
        <ele>1474</ele>
        <time>2020-07-16T12:45:12.539Z</time>
      </trkpt>
      <trkpt lat="46.48412" lon="8.25394">
        <ele>1474</ele>
        <time>2020-07-16T12:45:13.539Z</time>
      </trkpt>
      <trkpt lat="46.48411" lon="8.25391">
        <ele>1476</ele>
        <time>2020-07-16T12:45:14.538Z</time>
      </trkpt>
      <trkpt lat="46.48412" lon="8.2539">
        <ele>1477</ele>
        <time>2020-07-16T12:45:15.539Z</time>
      </trkpt>
      <trkpt lat="46.48412" lon="8.25389">
        <ele>1477</ele>
        <time>2020-07-16T12:45:16.538Z</time>
      </trkpt>
      <trkpt lat="46.48413" lon="8.25388">
        <ele>1477</ele>
        <time>2020-07-16T12:45:17.539Z</time>
      </trkpt>
      <trkpt lat="46.48412" lon="8.25387">
        <ele>1477</ele>
        <time>2020-07-16T12:45:18.538Z</time>
      </trkpt>
      <trkpt lat="46.48412" lon="8.25386">
        <ele>1478</ele>
        <time>2020-07-16T12:45:19.539Z</time>
      </trkpt>
      <trkpt lat="46.48412" lon="8.25384">
        <ele>1478</ele>
        <time>2020-07-16T12:45:20.538Z</time>
      </trkpt>
      <trkpt lat="46.48412" lon="8.25383">
        <ele>1479</ele>
        <time>2020-07-16T12:45:21.539Z</time>
      </trkpt>
      <trkpt lat="46.48411" lon="8.25382">
        <ele>1479</ele>
        <time>2020-07-16T12:45:22.539Z</time>
      </trkpt>
      <trkpt lat="46.4841" lon="8.25381">
        <ele>1478</ele>
        <time>2020-07-16T12:45:23.538Z</time>
      </trkpt>
      <trkpt lat="46.4841" lon="8.2538">
        <ele>1478</ele>
        <time>2020-07-16T12:45:24.538Z</time>
      </trkpt>
      <trkpt lat="46.48409" lon="8.25379">
        <ele>1477</ele>
        <time>2020-07-16T12:45:25.539Z</time>
      </trkpt>
      <trkpt lat="46.48409" lon="8.25378">
        <ele>1477</ele>
        <time>2020-07-16T12:45:26.539Z</time>
      </trkpt>
      <trkpt lat="46.48408" lon="8.25377">
        <ele>1477</ele>
        <time>2020-07-16T12:45:27.539Z</time>
      </trkpt>
      <trkpt lat="46.48408" lon="8.25376">
        <ele>1476</ele>
        <time>2020-07-16T12:45:28.539Z</time>
      </trkpt>
      <trkpt lat="46.48407" lon="8.25376">
        <ele>1476</ele>
        <time>2020-07-16T12:45:29.538Z</time>
      </trkpt>
      <trkpt lat="46.48406" lon="8.25375">
        <ele>1475</ele>
        <time>2020-07-16T12:45:30.539Z</time>
      </trkpt>
      <trkpt lat="46.48406" lon="8.25373">
        <ele>1475</ele>
        <time>2020-07-16T12:45:31.539Z</time>
      </trkpt>
      <trkpt lat="46.48405" lon="8.25372">
        <ele>1474</ele>
        <time>2020-07-16T12:45:32.539Z</time>
      </trkpt>
      <trkpt lat="46.48404" lon="8.25371">
        <ele>1474</ele>
        <time>2020-07-16T12:45:33.539Z</time>
      </trkpt>
      <trkpt lat="46.48404" lon="8.2537">
        <ele>1474</ele>
        <time>2020-07-16T12:45:34.539Z</time>
      </trkpt>
      <trkpt lat="46.48404" lon="8.25369">
        <ele>1473</ele>
        <time>2020-07-16T12:45:35.538Z</time>
      </trkpt>
      <trkpt lat="46.48403" lon="8.25368">
        <ele>1473</ele>
        <time>2020-07-16T12:45:36.539Z</time>
      </trkpt>
      <trkpt lat="46.48402" lon="8.25366">
        <ele>1474</ele>
        <time>2020-07-16T12:45:37.539Z</time>
      </trkpt>
      <trkpt lat="46.48402" lon="8.25365">
        <ele>1474</ele>
        <time>2020-07-16T12:45:38.538Z</time>
      </trkpt>
      <trkpt lat="46.48401" lon="8.25364">
        <ele>1475</ele>
        <time>2020-07-16T12:45:39.539Z</time>
      </trkpt>
      <trkpt lat="46.484" lon="8.25363">
        <ele>1476</ele>
        <time>2020-07-16T12:45:40.539Z</time>
      </trkpt>
      <trkpt lat="46.48399" lon="8.25362">
        <ele>1477</ele>
        <time>2020-07-16T12:45:41.539Z</time>
      </trkpt>
      <trkpt lat="46.48398" lon="8.25361">
        <ele>1477</ele>
        <time>2020-07-16T12:45:42.539Z</time>
      </trkpt>
      <trkpt lat="46.48397" lon="8.2536">
        <ele>1478</ele>
        <time>2020-07-16T12:45:43.539Z</time>
      </trkpt>
      <trkpt lat="46.48397" lon="8.25359">
        <ele>1478</ele>
        <time>2020-07-16T12:45:44.538Z</time>
      </trkpt>
      <trkpt lat="46.48396" lon="8.25358">
        <ele>1478</ele>
        <time>2020-07-16T12:45:45.539Z</time>
      </trkpt>
      <trkpt lat="46.48396" lon="8.25357">
        <ele>1477</ele>
        <time>2020-07-16T12:45:46.539Z</time>
      </trkpt>
      <trkpt lat="46.48396" lon="8.25356">
        <ele>1476</ele>
        <time>2020-07-16T12:45:47.539Z</time>
      </trkpt>
      <trkpt lat="46.48396" lon="8.25355">
        <ele>1476</ele>
        <time>2020-07-16T12:45:48.539Z</time>
      </trkpt>
      <trkpt lat="46.48397" lon="8.25354">
        <ele>1475</ele>
        <time>2020-07-16T12:45:49.539Z</time>
      </trkpt>
      <trkpt lat="46.48397" lon="8.25352">
        <ele>1475</ele>
        <time>2020-07-16T12:45:50.539Z</time>
      </trkpt>
      <trkpt lat="46.48396" lon="8.2535">
        <ele>1474</ele>
        <time>2020-07-16T12:45:51.538Z</time>
      </trkpt>
      <trkpt lat="46.48396" lon="8.25348">
        <ele>1474</ele>
        <time>2020-07-16T12:45:52.538Z</time>
      </trkpt>
      <trkpt lat="46.48395" lon="8.25346">
        <ele>1475</ele>
        <time>2020-07-16T12:45:53.539Z</time>
      </trkpt>
      <trkpt lat="46.48394" lon="8.25345">
        <ele>1475</ele>
        <time>2020-07-16T12:45:54.539Z</time>
      </trkpt>
      <trkpt lat="46.48393" lon="8.25344">
        <ele>1475</ele>
        <time>2020-07-16T12:45:55.539Z</time>
      </trkpt>
      <trkpt lat="46.48393" lon="8.25342">
        <ele>1475</ele>
        <time>2020-07-16T12:45:56.539Z</time>
      </trkpt>
      <trkpt lat="46.48393" lon="8.25341">
        <ele>1475</ele>
        <time>2020-07-16T12:45:57.538Z</time>
      </trkpt>
      <trkpt lat="46.48393" lon="8.2534">
        <ele>1475</ele>
        <time>2020-07-16T12:45:58.539Z</time>
      </trkpt>
      <trkpt lat="46.48392" lon="8.25339">
        <ele>1475</ele>
        <time>2020-07-16T12:45:59.539Z</time>
      </trkpt>
      <trkpt lat="46.48392" lon="8.25338">
        <ele>1476</ele>
        <time>2020-07-16T12:46:00.538Z</time>
      </trkpt>
      <trkpt lat="46.48392" lon="8.25338">
        <ele>1476</ele>
        <time>2020-07-16T12:46:01.538Z</time>
      </trkpt>
      <trkpt lat="46.48391" lon="8.25335">
        <ele>1477</ele>
        <time>2020-07-16T12:46:02.539Z</time>
      </trkpt>
      <trkpt lat="46.4839" lon="8.25334">
        <ele>1478</ele>
        <time>2020-07-16T12:46:03.539Z</time>
      </trkpt>
      <trkpt lat="46.48389" lon="8.25333">
        <ele>1479</ele>
        <time>2020-07-16T12:46:04.539Z</time>
      </trkpt>
      <trkpt lat="46.48388" lon="8.25332">
        <ele>1480</ele>
        <time>2020-07-16T12:46:05.539Z</time>
      </trkpt>
      <trkpt lat="46.48388" lon="8.25331">
        <ele>1481</ele>
        <time>2020-07-16T12:46:06.538Z</time>
      </trkpt>
      <trkpt lat="46.48387" lon="8.25329">
        <ele>1482</ele>
        <time>2020-07-16T12:46:07.539Z</time>
      </trkpt>
      <trkpt lat="46.48387" lon="8.25328">
        <ele>1482</ele>
        <time>2020-07-16T12:46:08.539Z</time>
      </trkpt>
      <trkpt lat="46.48386" lon="8.25327">
        <ele>1483</ele>
        <time>2020-07-16T12:46:09.538Z</time>
      </trkpt>
      <trkpt lat="46.48385" lon="8.25325">
        <ele>1483</ele>
        <time>2020-07-16T12:46:10.539Z</time>
      </trkpt>
      <trkpt lat="46.48385" lon="8.25324">
        <ele>1484</ele>
        <time>2020-07-16T12:46:11.538Z</time>
      </trkpt>
      <trkpt lat="46.48384" lon="8.25323">
        <ele>1484</ele>
        <time>2020-07-16T12:46:12.539Z</time>
      </trkpt>
      <trkpt lat="46.48384" lon="8.25322">
        <ele>1484</ele>
        <time>2020-07-16T12:46:13.539Z</time>
      </trkpt>
      <trkpt lat="46.48384" lon="8.25321">
        <ele>1483</ele>
        <time>2020-07-16T12:46:14.539Z</time>
      </trkpt>
      <trkpt lat="46.48383" lon="8.25319">
        <ele>1483</ele>
        <time>2020-07-16T12:46:15.538Z</time>
      </trkpt>
      <trkpt lat="46.48383" lon="8.25318">
        <ele>1483</ele>
        <time>2020-07-16T12:46:16.539Z</time>
      </trkpt>
      <trkpt lat="46.48382" lon="8.25316">
        <ele>1483</ele>
        <time>2020-07-16T12:46:17.539Z</time>
      </trkpt>
      <trkpt lat="46.48382" lon="8.25315">
        <ele>1482</ele>
        <time>2020-07-16T12:46:18.539Z</time>
      </trkpt>
      <trkpt lat="46.48382" lon="8.25314">
        <ele>1482</ele>
        <time>2020-07-16T12:46:19.538Z</time>
      </trkpt>
      <trkpt lat="46.48381" lon="8.25313">
        <ele>1482</ele>
        <time>2020-07-16T12:46:20.539Z</time>
      </trkpt>
      <trkpt lat="46.48381" lon="8.25312">
        <ele>1482</ele>
        <time>2020-07-16T12:46:21.539Z</time>
      </trkpt>
      <trkpt lat="46.4838" lon="8.25311">
        <ele>1482</ele>
        <time>2020-07-16T12:46:22.539Z</time>
      </trkpt>
      <trkpt lat="46.48379" lon="8.2531">
        <ele>1482</ele>
        <time>2020-07-16T12:46:23.539Z</time>
      </trkpt>
      <trkpt lat="46.48378" lon="8.25309">
        <ele>1482</ele>
        <time>2020-07-16T12:46:24.539Z</time>
      </trkpt>
      <trkpt lat="46.48378" lon="8.25308">
        <ele>1482</ele>
        <time>2020-07-16T12:46:25.539Z</time>
      </trkpt>
      <trkpt lat="46.48377" lon="8.25306">
        <ele>1483</ele>
        <time>2020-07-16T12:46:26.539Z</time>
      </trkpt>
      <trkpt lat="46.48377" lon="8.25305">
        <ele>1483</ele>
        <time>2020-07-16T12:46:27.538Z</time>
      </trkpt>
      <trkpt lat="46.48377" lon="8.25304">
        <ele>1483</ele>
        <time>2020-07-16T12:46:28.539Z</time>
      </trkpt>
      <trkpt lat="46.48376" lon="8.25303">
        <ele>1483</ele>
        <time>2020-07-16T12:46:29.539Z</time>
      </trkpt>
      <trkpt lat="46.48376" lon="8.25302">
        <ele>1483</ele>
        <time>2020-07-16T12:46:30.538Z</time>
      </trkpt>
      <trkpt lat="46.48375" lon="8.253">
        <ele>1482</ele>
        <time>2020-07-16T12:46:31.539Z</time>
      </trkpt>
      <trkpt lat="46.48375" lon="8.25299">
        <ele>1482</ele>
        <time>2020-07-16T12:46:32.539Z</time>
      </trkpt>
      <trkpt lat="46.48375" lon="8.25298">
        <ele>1481</ele>
        <time>2020-07-16T12:46:33.539Z</time>
      </trkpt>
      <trkpt lat="46.48374" lon="8.25297">
        <ele>1481</ele>
        <time>2020-07-16T12:46:34.539Z</time>
      </trkpt>
      <trkpt lat="46.48374" lon="8.25296">
        <ele>1481</ele>
        <time>2020-07-16T12:46:35.538Z</time>
      </trkpt>
      <trkpt lat="46.48374" lon="8.25295">
        <ele>1481</ele>
        <time>2020-07-16T12:46:36.538Z</time>
      </trkpt>
      <trkpt lat="46.48374" lon="8.25293">
        <ele>1482</ele>
        <time>2020-07-16T12:46:37.539Z</time>
      </trkpt>
      <trkpt lat="46.48373" lon="8.25292">
        <ele>1482</ele>
        <time>2020-07-16T12:46:38.539Z</time>
      </trkpt>
      <trkpt lat="46.48373" lon="8.25291">
        <ele>1483</ele>
        <time>2020-07-16T12:46:39.539Z</time>
      </trkpt>
      <trkpt lat="46.48372" lon="8.25289">
        <ele>1483</ele>
        <time>2020-07-16T12:46:40.538Z</time>
      </trkpt>
      <trkpt lat="46.48371" lon="8.25287">
        <ele>1483</ele>
        <time>2020-07-16T12:46:41.539Z</time>
      </trkpt>
      <trkpt lat="46.48371" lon="8.25286">
        <ele>1484</ele>
        <time>2020-07-16T12:46:42.538Z</time>
      </trkpt>
      <trkpt lat="46.4837" lon="8.25285">
        <ele>1484</ele>
        <time>2020-07-16T12:46:43.539Z</time>
      </trkpt>
      <trkpt lat="46.4837" lon="8.25284">
        <ele>1484</ele>
        <time>2020-07-16T12:46:44.538Z</time>
      </trkpt>
      <trkpt lat="46.4837" lon="8.25284">
        <ele>1484</ele>
        <time>2020-07-16T12:46:45.538Z</time>
      </trkpt>
      <trkpt lat="46.48369" lon="8.25282">
        <ele>1483</ele>
        <time>2020-07-16T12:46:46.539Z</time>
      </trkpt>
      <trkpt lat="46.4837" lon="8.25281">
        <ele>1483</ele>
        <time>2020-07-16T12:46:47.539Z</time>
      </trkpt>
      <trkpt lat="46.48369" lon="8.25279">
        <ele>1483</ele>
        <time>2020-07-16T12:46:48.538Z</time>
      </trkpt>
      <trkpt lat="46.48369" lon="8.25278">
        <ele>1482</ele>
        <time>2020-07-16T12:46:49.539Z</time>
      </trkpt>
      <trkpt lat="46.48368" lon="8.25277">
        <ele>1482</ele>
        <time>2020-07-16T12:46:50.539Z</time>
      </trkpt>
      <trkpt lat="46.48368" lon="8.25276">
        <ele>1482</ele>
        <time>2020-07-16T12:46:51.539Z</time>
      </trkpt>
      <trkpt lat="46.48367" lon="8.25275">
        <ele>1482</ele>
        <time>2020-07-16T12:46:52.538Z</time>
      </trkpt>
      <trkpt lat="46.48366" lon="8.25273">
        <ele>1483</ele>
        <time>2020-07-16T12:46:53.539Z</time>
      </trkpt>
      <trkpt lat="46.48365" lon="8.25272">
        <ele>1483</ele>
        <time>2020-07-16T12:46:54.539Z</time>
      </trkpt>
      <trkpt lat="46.48365" lon="8.25271">
        <ele>1483</ele>
        <time>2020-07-16T12:46:55.539Z</time>
      </trkpt>
      <trkpt lat="46.48365" lon="8.25269">
        <ele>1483</ele>
        <time>2020-07-16T12:46:56.539Z</time>
      </trkpt>
      <trkpt lat="46.48364" lon="8.25268">
        <ele>1483</ele>
        <time>2020-07-16T12:46:57.539Z</time>
      </trkpt>
      <trkpt lat="46.48364" lon="8.25267">
        <ele>1482</ele>
        <time>2020-07-16T12:46:58.539Z</time>
      </trkpt>
      <trkpt lat="46.48363" lon="8.25266">
        <ele>1482</ele>
        <time>2020-07-16T12:46:59.539Z</time>
      </trkpt>
      <trkpt lat="46.48363" lon="8.25265">
        <ele>1482</ele>
        <time>2020-07-16T12:47:00.538Z</time>
      </trkpt>
      <trkpt lat="46.48362" lon="8.25265">
        <ele>1482</ele>
        <time>2020-07-16T12:47:01.538Z</time>
      </trkpt>
      <trkpt lat="46.48362" lon="8.25264">
        <ele>1482</ele>
        <time>2020-07-16T12:47:02.539Z</time>
      </trkpt>
      <trkpt lat="46.48361" lon="8.25263">
        <ele>1482</ele>
        <time>2020-07-16T12:47:03.539Z</time>
      </trkpt>
      <trkpt lat="46.48361" lon="8.25262">
        <ele>1482</ele>
        <time>2020-07-16T12:47:04.538Z</time>
      </trkpt>
      <trkpt lat="46.4836" lon="8.25261">
        <ele>1483</ele>
        <time>2020-07-16T12:47:05.539Z</time>
      </trkpt>
      <trkpt lat="46.48359" lon="8.2526">
        <ele>1483</ele>
        <time>2020-07-16T12:47:06.538Z</time>
      </trkpt>
      <trkpt lat="46.48359" lon="8.25259">
        <ele>1483</ele>
        <time>2020-07-16T12:47:07.539Z</time>
      </trkpt>
      <trkpt lat="46.48359" lon="8.25258">
        <ele>1483</ele>
        <time>2020-07-16T12:47:08.538Z</time>
      </trkpt>
      <trkpt lat="46.48359" lon="8.25258">
        <ele>1483</ele>
        <time>2020-07-16T12:47:09.538Z</time>
      </trkpt>
      <trkpt lat="46.48359" lon="8.25256">
        <ele>1484</ele>
        <time>2020-07-16T12:47:10.539Z</time>
      </trkpt>
      <trkpt lat="46.48359" lon="8.25256">
        <ele>1484</ele>
        <time>2020-07-16T12:47:11.538Z</time>
      </trkpt>
      <trkpt lat="46.48359" lon="8.25255">
        <ele>1484</ele>
        <time>2020-07-16T12:47:12.538Z</time>
      </trkpt>
      <trkpt lat="46.48359" lon="8.25254">
        <ele>1485</ele>
        <time>2020-07-16T12:47:13.539Z</time>
      </trkpt>
      <trkpt lat="46.48359" lon="8.25254">
        <ele>1485</ele>
        <time>2020-07-16T12:47:14.538Z</time>
      </trkpt>
      <trkpt lat="46.48359" lon="8.25254">
        <ele>1486</ele>
        <time>2020-07-16T12:47:15.539Z</time>
      </trkpt>
      <trkpt lat="46.48358" lon="8.25253">
        <ele>1486</ele>
        <time>2020-07-16T12:47:16.539Z</time>
      </trkpt>
      <trkpt lat="46.48357" lon="8.25252">
        <ele>1487</ele>
        <time>2020-07-16T12:47:17.538Z</time>
      </trkpt>
      <trkpt lat="46.48356" lon="8.25251">
        <ele>1487</ele>
        <time>2020-07-16T12:47:18.539Z</time>
      </trkpt>
      <trkpt lat="46.48356" lon="8.2525">
        <ele>1487</ele>
        <time>2020-07-16T12:47:19.538Z</time>
      </trkpt>
      <trkpt lat="46.48356" lon="8.25249">
        <ele>1488</ele>
        <time>2020-07-16T12:47:20.538Z</time>
      </trkpt>
      <trkpt lat="46.48355" lon="8.25248">
        <ele>1488</ele>
        <time>2020-07-16T12:47:21.538Z</time>
      </trkpt>
      <trkpt lat="46.48355" lon="8.25248">
        <ele>1489</ele>
        <time>2020-07-16T12:47:22.539Z</time>
      </trkpt>
      <trkpt lat="46.48355" lon="8.25247">
        <ele>1489</ele>
        <time>2020-07-16T12:47:23.539Z</time>
      </trkpt>
      <trkpt lat="46.48355" lon="8.25245">
        <ele>1490</ele>
        <time>2020-07-16T12:47:24.539Z</time>
      </trkpt>
      <trkpt lat="46.48355" lon="8.25244">
        <ele>1490</ele>
        <time>2020-07-16T12:47:25.539Z</time>
      </trkpt>
      <trkpt lat="46.48355" lon="8.25244">
        <ele>1490</ele>
        <time>2020-07-16T12:47:26.539Z</time>
      </trkpt>
      <trkpt lat="46.48356" lon="8.25243">
        <ele>1491</ele>
        <time>2020-07-16T12:47:27.539Z</time>
      </trkpt>
      <trkpt lat="46.48356" lon="8.25243">
        <ele>1491</ele>
        <time>2020-07-16T12:47:28.538Z</time>
      </trkpt>
      <trkpt lat="46.48357" lon="8.25242">
        <ele>1491</ele>
        <time>2020-07-16T12:47:29.538Z</time>
      </trkpt>
      <trkpt lat="46.48356" lon="8.25241">
        <ele>1490</ele>
        <time>2020-07-16T12:47:30.539Z</time>
      </trkpt>
      <trkpt lat="46.48356" lon="8.2524">
        <ele>1490</ele>
        <time>2020-07-16T12:47:31.538Z</time>
      </trkpt>
      <trkpt lat="46.48355" lon="8.25239">
        <ele>1490</ele>
        <time>2020-07-16T12:47:32.538Z</time>
      </trkpt>
      <trkpt lat="46.48354" lon="8.25238">
        <ele>1490</ele>
        <time>2020-07-16T12:47:33.538Z</time>
      </trkpt>
      <trkpt lat="46.48353" lon="8.25238">
        <ele>1490</ele>
        <time>2020-07-16T12:47:34.538Z</time>
      </trkpt>
      <trkpt lat="46.48353" lon="8.25236">
        <ele>1490</ele>
        <time>2020-07-16T12:47:35.538Z</time>
      </trkpt>
      <trkpt lat="46.48352" lon="8.25235">
        <ele>1491</ele>
        <time>2020-07-16T12:47:36.538Z</time>
      </trkpt>
      <trkpt lat="46.48352" lon="8.25234">
        <ele>1491</ele>
        <time>2020-07-16T12:47:37.539Z</time>
      </trkpt>
      <trkpt lat="46.48352" lon="8.25233">
        <ele>1492</ele>
        <time>2020-07-16T12:47:38.538Z</time>
      </trkpt>
      <trkpt lat="46.48351" lon="8.25233">
        <ele>1492</ele>
        <time>2020-07-16T12:47:39.538Z</time>
      </trkpt>
      <trkpt lat="46.4835" lon="8.25232">
        <ele>1493</ele>
        <time>2020-07-16T12:47:40.538Z</time>
      </trkpt>
      <trkpt lat="46.48349" lon="8.2523">
        <ele>1494</ele>
        <time>2020-07-16T12:47:41.538Z</time>
      </trkpt>
      <trkpt lat="46.48348" lon="8.25229">
        <ele>1494</ele>
        <time>2020-07-16T12:47:42.539Z</time>
      </trkpt>
      <trkpt lat="46.48348" lon="8.25228">
        <ele>1495</ele>
        <time>2020-07-16T12:47:43.539Z</time>
      </trkpt>
      <trkpt lat="46.48347" lon="8.25227">
        <ele>1495</ele>
        <time>2020-07-16T12:47:44.538Z</time>
      </trkpt>
      <trkpt lat="46.48347" lon="8.25226">
        <ele>1496</ele>
        <time>2020-07-16T12:47:45.539Z</time>
      </trkpt>
      <trkpt lat="46.48347" lon="8.25225">
        <ele>1496</ele>
        <time>2020-07-16T12:47:46.539Z</time>
      </trkpt>
      <trkpt lat="46.48346" lon="8.25224">
        <ele>1497</ele>
        <time>2020-07-16T12:47:47.538Z</time>
      </trkpt>
      <trkpt lat="46.48346" lon="8.25223">
        <ele>1498</ele>
        <time>2020-07-16T12:47:48.539Z</time>
      </trkpt>
      <trkpt lat="46.48345" lon="8.25223">
        <ele>1498</ele>
        <time>2020-07-16T12:47:49.539Z</time>
      </trkpt>
      <trkpt lat="46.48345" lon="8.25222">
        <ele>1498</ele>
        <time>2020-07-16T12:47:50.538Z</time>
      </trkpt>
      <trkpt lat="46.48344" lon="8.25221">
        <ele>1499</ele>
        <time>2020-07-16T12:47:51.538Z</time>
      </trkpt>
      <trkpt lat="46.48344" lon="8.2522">
        <ele>1499</ele>
        <time>2020-07-16T12:47:52.539Z</time>
      </trkpt>
      <trkpt lat="46.48343" lon="8.2522">
        <ele>1499</ele>
        <time>2020-07-16T12:47:53.538Z</time>
      </trkpt>
      <trkpt lat="46.48342" lon="8.25219">
        <ele>1500</ele>
        <time>2020-07-16T12:47:54.539Z</time>
      </trkpt>
      <trkpt lat="46.48341" lon="8.2522">
        <ele>1500</ele>
        <time>2020-07-16T12:47:55.539Z</time>
      </trkpt>
      <trkpt lat="46.4834" lon="8.2522">
        <ele>1500</ele>
        <time>2020-07-16T12:47:56.538Z</time>
      </trkpt>
      <trkpt lat="46.4834" lon="8.25221">
        <ele>1500</ele>
        <time>2020-07-16T12:47:57.538Z</time>
      </trkpt>
      <trkpt lat="46.48339" lon="8.25221">
        <ele>1501</ele>
        <time>2020-07-16T12:47:58.539Z</time>
      </trkpt>
      <trkpt lat="46.48338" lon="8.25225">
        <ele>1502</ele>
        <time>2020-07-16T12:47:59.539Z</time>
      </trkpt>
      <trkpt lat="46.48338" lon="8.25225">
        <ele>1503</ele>
        <time>2020-07-16T12:48:00.538Z</time>
      </trkpt>
      <trkpt lat="46.48337" lon="8.25224">
        <ele>1503</ele>
        <time>2020-07-16T12:48:01.538Z</time>
      </trkpt>
      <trkpt lat="46.48337" lon="8.25223">
        <ele>1504</ele>
        <time>2020-07-16T12:48:02.539Z</time>
      </trkpt>
      <trkpt lat="46.48336" lon="8.25222">
        <ele>1504</ele>
        <time>2020-07-16T12:48:03.539Z</time>
      </trkpt>
      <trkpt lat="46.48336" lon="8.25222">
        <ele>1505</ele>
        <time>2020-07-16T12:48:04.539Z</time>
      </trkpt>
      <trkpt lat="46.48335" lon="8.25221">
        <ele>1505</ele>
        <time>2020-07-16T12:48:05.538Z</time>
      </trkpt>
      <trkpt lat="46.48334" lon="8.2522">
        <ele>1505</ele>
        <time>2020-07-16T12:48:06.539Z</time>
      </trkpt>
      <trkpt lat="46.48333" lon="8.2522">
        <ele>1505</ele>
        <time>2020-07-16T12:48:07.538Z</time>
      </trkpt>
      <trkpt lat="46.48333" lon="8.2522">
        <ele>1505</ele>
        <time>2020-07-16T12:48:08.539Z</time>
      </trkpt>
      <trkpt lat="46.48333" lon="8.2522">
        <ele>1506</ele>
        <time>2020-07-16T12:48:09.539Z</time>
      </trkpt>
      <trkpt lat="46.48332" lon="8.25219">
        <ele>1506</ele>
        <time>2020-07-16T12:48:10.539Z</time>
      </trkpt>
      <trkpt lat="46.48332" lon="8.2522">
        <ele>1506</ele>
        <time>2020-07-16T12:48:11.538Z</time>
      </trkpt>
      <trkpt lat="46.48331" lon="8.25219">
        <ele>1506</ele>
        <time>2020-07-16T12:48:12.538Z</time>
      </trkpt>
      <trkpt lat="46.48331" lon="8.25218">
        <ele>1506</ele>
        <time>2020-07-16T12:48:13.539Z</time>
      </trkpt>
      <trkpt lat="46.4833" lon="8.25218">
        <ele>1505</ele>
        <time>2020-07-16T12:48:14.538Z</time>
      </trkpt>
      <trkpt lat="46.4833" lon="8.25217">
        <ele>1505</ele>
        <time>2020-07-16T12:48:15.538Z</time>
      </trkpt>
      <trkpt lat="46.48329" lon="8.25217">
        <ele>1505</ele>
        <time>2020-07-16T12:48:16.538Z</time>
      </trkpt>
      <trkpt lat="46.48329" lon="8.25216">
        <ele>1505</ele>
        <time>2020-07-16T12:48:17.539Z</time>
      </trkpt>
      <trkpt lat="46.48329" lon="8.25216">
        <ele>1505</ele>
        <time>2020-07-16T12:48:18.539Z</time>
      </trkpt>
      <trkpt lat="46.48328" lon="8.25216">
        <ele>1504</ele>
        <time>2020-07-16T12:48:19.539Z</time>
      </trkpt>
      <trkpt lat="46.48328" lon="8.25217">
        <ele>1504</ele>
        <time>2020-07-16T12:48:20.539Z</time>
      </trkpt>
      <trkpt lat="46.48327" lon="8.25217">
        <ele>1503</ele>
        <time>2020-07-16T12:48:21.539Z</time>
      </trkpt>
      <trkpt lat="46.48326" lon="8.25217">
        <ele>1501</ele>
        <time>2020-07-16T12:48:22.540Z</time>
      </trkpt>
      <trkpt lat="46.48326" lon="8.25217">
        <ele>1501</ele>
        <time>2020-07-16T12:48:23.539Z</time>
      </trkpt>
      <trkpt lat="46.48326" lon="8.25217">
        <ele>1500</ele>
        <time>2020-07-16T12:48:24.539Z</time>
      </trkpt>
      <trkpt lat="46.48326" lon="8.25216">
        <ele>1500</ele>
        <time>2020-07-16T12:48:25.539Z</time>
      </trkpt>
      <trkpt lat="46.48325" lon="8.25216">
        <ele>1499</ele>
        <time>2020-07-16T12:48:26.540Z</time>
      </trkpt>
      <trkpt lat="46.48324" lon="8.25215">
        <ele>1499</ele>
        <time>2020-07-16T12:48:27.540Z</time>
      </trkpt>
      <trkpt lat="46.48323" lon="8.25215">
        <ele>1498</ele>
        <time>2020-07-16T12:48:28.539Z</time>
      </trkpt>
      <trkpt lat="46.48322" lon="8.25215">
        <ele>1498</ele>
        <time>2020-07-16T12:48:29.540Z</time>
      </trkpt>
      <trkpt lat="46.48321" lon="8.25216">
        <ele>1498</ele>
        <time>2020-07-16T12:48:30.539Z</time>
      </trkpt>
      <trkpt lat="46.4832" lon="8.25215">
        <ele>1498</ele>
        <time>2020-07-16T12:48:31.540Z</time>
      </trkpt>
      <trkpt lat="46.48319" lon="8.25215">
        <ele>1498</ele>
        <time>2020-07-16T12:48:32.540Z</time>
      </trkpt>
      <trkpt lat="46.48318" lon="8.25215">
        <ele>1498</ele>
        <time>2020-07-16T12:48:33.540Z</time>
      </trkpt>
      <trkpt lat="46.48318" lon="8.25214">
        <ele>1498</ele>
        <time>2020-07-16T12:48:34.540Z</time>
      </trkpt>
      <trkpt lat="46.48317" lon="8.25213">
        <ele>1498</ele>
        <time>2020-07-16T12:48:35.539Z</time>
      </trkpt>
      <trkpt lat="46.48317" lon="8.25212">
        <ele>1498</ele>
        <time>2020-07-16T12:48:36.540Z</time>
      </trkpt>
      <trkpt lat="46.48317" lon="8.25211">
        <ele>1498</ele>
        <time>2020-07-16T12:48:37.540Z</time>
      </trkpt>
      <trkpt lat="46.48315" lon="8.25207">
        <ele>1500</ele>
        <time>2020-07-16T12:48:38.539Z</time>
      </trkpt>
      <trkpt lat="46.48315" lon="8.25208">
        <ele>1500</ele>
        <time>2020-07-16T12:48:39.540Z</time>
      </trkpt>
      <trkpt lat="46.48316" lon="8.25208">
        <ele>1500</ele>
        <time>2020-07-16T12:48:40.539Z</time>
      </trkpt>
      <trkpt lat="46.48316" lon="8.25209">
        <ele>1500</ele>
        <time>2020-07-16T12:48:41.539Z</time>
      </trkpt>
      <trkpt lat="46.48317" lon="8.25207">
        <ele>1500</ele>
        <time>2020-07-16T12:48:42.541Z</time>
      </trkpt>
      <trkpt lat="46.48316" lon="8.25206">
        <ele>1500</ele>
        <time>2020-07-16T12:48:43.541Z</time>
      </trkpt>
      <trkpt lat="46.48316" lon="8.25205">
        <ele>1500</ele>
        <time>2020-07-16T12:48:44.540Z</time>
      </trkpt>
      <trkpt lat="46.48315" lon="8.25205">
        <ele>1500</ele>
        <time>2020-07-16T12:48:45.541Z</time>
      </trkpt>
      <trkpt lat="46.48314" lon="8.25204">
        <ele>1500</ele>
        <time>2020-07-16T12:48:46.541Z</time>
      </trkpt>
      <trkpt lat="46.48314" lon="8.25204">
        <ele>1500</ele>
        <time>2020-07-16T12:48:47.540Z</time>
      </trkpt>
      <trkpt lat="46.48314" lon="8.25204">
        <ele>1500</ele>
        <time>2020-07-16T12:48:48.541Z</time>
      </trkpt>
      <trkpt lat="46.48314" lon="8.25203">
        <ele>1500</ele>
        <time>2020-07-16T12:48:49.541Z</time>
      </trkpt>
      <trkpt lat="46.48313" lon="8.25203">
        <ele>1500</ele>
        <time>2020-07-16T12:48:50.541Z</time>
      </trkpt>
      <trkpt lat="46.48313" lon="8.25202">
        <ele>1500</ele>
        <time>2020-07-16T12:48:51.540Z</time>
      </trkpt>
      <trkpt lat="46.48312" lon="8.25202">
        <ele>1500</ele>
        <time>2020-07-16T12:48:52.540Z</time>
      </trkpt>
      <trkpt lat="46.48312" lon="8.25201">
        <ele>1500</ele>
        <time>2020-07-16T12:48:53.541Z</time>
      </trkpt>
      <trkpt lat="46.48311" lon="8.25201">
        <ele>1500</ele>
        <time>2020-07-16T12:48:54.541Z</time>
      </trkpt>
      <trkpt lat="46.4831" lon="8.25201">
        <ele>1501</ele>
        <time>2020-07-16T12:48:55.540Z</time>
      </trkpt>
      <trkpt lat="46.48309" lon="8.25201">
        <ele>1501</ele>
        <time>2020-07-16T12:48:56.541Z</time>
      </trkpt>
      <trkpt lat="46.48309" lon="8.252">
        <ele>1501</ele>
        <time>2020-07-16T12:48:57.540Z</time>
      </trkpt>
      <trkpt lat="46.48308" lon="8.25198">
        <ele>1500</ele>
        <time>2020-07-16T12:48:58.541Z</time>
      </trkpt>
      <trkpt lat="46.48307" lon="8.25196">
        <ele>1500</ele>
        <time>2020-07-16T12:48:59.541Z</time>
      </trkpt>
      <trkpt lat="46.48307" lon="8.25195">
        <ele>1500</ele>
        <time>2020-07-16T12:49:00.540Z</time>
      </trkpt>
      <trkpt lat="46.48307" lon="8.25194">
        <ele>1500</ele>
        <time>2020-07-16T12:49:01.541Z</time>
      </trkpt>
      <trkpt lat="46.48306" lon="8.25193">
        <ele>1500</ele>
        <time>2020-07-16T12:49:02.541Z</time>
      </trkpt>
      <trkpt lat="46.48305" lon="8.25192">
        <ele>1501</ele>
        <time>2020-07-16T12:49:03.541Z</time>
      </trkpt>
      <trkpt lat="46.48304" lon="8.2519">
        <ele>1501</ele>
        <time>2020-07-16T12:49:04.540Z</time>
      </trkpt>
      <trkpt lat="46.48303" lon="8.25189">
        <ele>1501</ele>
        <time>2020-07-16T12:49:05.541Z</time>
      </trkpt>
      <trkpt lat="46.48302" lon="8.25188">
        <ele>1501</ele>
        <time>2020-07-16T12:49:06.541Z</time>
      </trkpt>
      <trkpt lat="46.48302" lon="8.25187">
        <ele>1502</ele>
        <time>2020-07-16T12:49:07.541Z</time>
      </trkpt>
      <trkpt lat="46.48302" lon="8.25186">
        <ele>1502</ele>
        <time>2020-07-16T12:49:08.541Z</time>
      </trkpt>
      <trkpt lat="46.48302" lon="8.25186">
        <ele>1502</ele>
        <time>2020-07-16T12:49:09.541Z</time>
      </trkpt>
      <trkpt lat="46.48302" lon="8.25185">
        <ele>1503</ele>
        <time>2020-07-16T12:49:10.541Z</time>
      </trkpt>
      <trkpt lat="46.48302" lon="8.25185">
        <ele>1503</ele>
        <time>2020-07-16T12:49:11.540Z</time>
      </trkpt>
      <trkpt lat="46.48301" lon="8.25185">
        <ele>1503</ele>
        <time>2020-07-16T12:49:12.540Z</time>
      </trkpt>
      <trkpt lat="46.48299" lon="8.25184">
        <ele>1503</ele>
        <time>2020-07-16T12:49:13.541Z</time>
      </trkpt>
      <trkpt lat="46.48298" lon="8.25184">
        <ele>1503</ele>
        <time>2020-07-16T12:49:14.540Z</time>
      </trkpt>
      <trkpt lat="46.48299" lon="8.25183">
        <ele>1503</ele>
        <time>2020-07-16T12:49:15.541Z</time>
      </trkpt>
      <trkpt lat="46.48299" lon="8.25183">
        <ele>1503</ele>
        <time>2020-07-16T12:49:16.541Z</time>
      </trkpt>
      <trkpt lat="46.48299" lon="8.25183">
        <ele>1504</ele>
        <time>2020-07-16T12:49:17.541Z</time>
      </trkpt>
      <trkpt lat="46.48298" lon="8.25182">
        <ele>1504</ele>
        <time>2020-07-16T12:49:18.541Z</time>
      </trkpt>
      <trkpt lat="46.48298" lon="8.25182">
        <ele>1504</ele>
        <time>2020-07-16T12:49:19.540Z</time>
      </trkpt>
      <trkpt lat="46.48297" lon="8.25181">
        <ele>1504</ele>
        <time>2020-07-16T12:49:20.541Z</time>
      </trkpt>
      <trkpt lat="46.48297" lon="8.25181">
        <ele>1504</ele>
        <time>2020-07-16T12:49:21.540Z</time>
      </trkpt>
      <trkpt lat="46.48297" lon="8.25181">
        <ele>1505</ele>
        <time>2020-07-16T12:49:22.541Z</time>
      </trkpt>
      <trkpt lat="46.48296" lon="8.2518">
        <ele>1505</ele>
        <time>2020-07-16T12:49:23.541Z</time>
      </trkpt>
      <trkpt lat="46.48296" lon="8.2518">
        <ele>1506</ele>
        <time>2020-07-16T12:49:24.540Z</time>
      </trkpt>
      <trkpt lat="46.48295" lon="8.25179">
        <ele>1506</ele>
        <time>2020-07-16T12:49:25.540Z</time>
      </trkpt>
      <trkpt lat="46.48295" lon="8.25179">
        <ele>1507</ele>
        <time>2020-07-16T12:49:26.541Z</time>
      </trkpt>
      <trkpt lat="46.48295" lon="8.25178">
        <ele>1508</ele>
        <time>2020-07-16T12:49:27.540Z</time>
      </trkpt>
      <trkpt lat="46.48294" lon="8.25178">
        <ele>1508</ele>
        <time>2020-07-16T12:49:28.541Z</time>
      </trkpt>
      <trkpt lat="46.48294" lon="8.25177">
        <ele>1509</ele>
        <time>2020-07-16T12:49:29.541Z</time>
      </trkpt>
      <trkpt lat="46.48294" lon="8.25176">
        <ele>1509</ele>
        <time>2020-07-16T12:49:30.540Z</time>
      </trkpt>
      <trkpt lat="46.48294" lon="8.25176">
        <ele>1509</ele>
        <time>2020-07-16T12:49:31.541Z</time>
      </trkpt>
      <trkpt lat="46.48293" lon="8.25175">
        <ele>1509</ele>
        <time>2020-07-16T12:49:32.540Z</time>
      </trkpt>
      <trkpt lat="46.48293" lon="8.25175">
        <ele>1509</ele>
        <time>2020-07-16T12:49:33.541Z</time>
      </trkpt>
      <trkpt lat="46.48292" lon="8.25174">
        <ele>1509</ele>
        <time>2020-07-16T12:49:34.541Z</time>
      </trkpt>
      <trkpt lat="46.48291" lon="8.25174">
        <ele>1509</ele>
        <time>2020-07-16T12:49:35.541Z</time>
      </trkpt>
      <trkpt lat="46.48291" lon="8.25173">
        <ele>1509</ele>
        <time>2020-07-16T12:49:36.541Z</time>
      </trkpt>
      <trkpt lat="46.4829" lon="8.25172">
        <ele>1509</ele>
        <time>2020-07-16T12:49:37.541Z</time>
      </trkpt>
      <trkpt lat="46.48288" lon="8.25172">
        <ele>1509</ele>
        <time>2020-07-16T12:49:38.540Z</time>
      </trkpt>
      <trkpt lat="46.48288" lon="8.25171">
        <ele>1509</ele>
        <time>2020-07-16T12:49:39.540Z</time>
      </trkpt>
      <trkpt lat="46.48287" lon="8.25171">
        <ele>1510</ele>
        <time>2020-07-16T12:49:40.540Z</time>
      </trkpt>
      <trkpt lat="46.48286" lon="8.2517">
        <ele>1510</ele>
        <time>2020-07-16T12:49:41.541Z</time>
      </trkpt>
      <trkpt lat="46.48285" lon="8.2517">
        <ele>1510</ele>
        <time>2020-07-16T12:49:42.541Z</time>
      </trkpt>
      <trkpt lat="46.48284" lon="8.25168">
        <ele>1510</ele>
        <time>2020-07-16T12:49:43.541Z</time>
      </trkpt>
      <trkpt lat="46.48283" lon="8.25168">
        <ele>1510</ele>
        <time>2020-07-16T12:49:44.541Z</time>
      </trkpt>
      <trkpt lat="46.48282" lon="8.25167">
        <ele>1510</ele>
        <time>2020-07-16T12:49:45.541Z</time>
      </trkpt>
      <trkpt lat="46.48281" lon="8.25167">
        <ele>1511</ele>
        <time>2020-07-16T12:49:46.541Z</time>
      </trkpt>
      <trkpt lat="46.48281" lon="8.25167">
        <ele>1511</ele>
        <time>2020-07-16T12:49:47.541Z</time>
      </trkpt>
      <trkpt lat="46.48281" lon="8.25166">
        <ele>1511</ele>
        <time>2020-07-16T12:49:48.541Z</time>
      </trkpt>
      <trkpt lat="46.48281" lon="8.25165">
        <ele>1511</ele>
        <time>2020-07-16T12:49:49.541Z</time>
      </trkpt>
      <trkpt lat="46.4828" lon="8.25164">
        <ele>1511</ele>
        <time>2020-07-16T12:49:50.541Z</time>
      </trkpt>
      <trkpt lat="46.4828" lon="8.25163">
        <ele>1510</ele>
        <time>2020-07-16T12:49:51.541Z</time>
      </trkpt>
      <trkpt lat="46.48279" lon="8.25163">
        <ele>1511</ele>
        <time>2020-07-16T12:49:52.540Z</time>
      </trkpt>
      <trkpt lat="46.48279" lon="8.25162">
        <ele>1511</ele>
        <time>2020-07-16T12:49:53.541Z</time>
      </trkpt>
      <trkpt lat="46.48278" lon="8.25161">
        <ele>1511</ele>
        <time>2020-07-16T12:49:54.540Z</time>
      </trkpt>
      <trkpt lat="46.48278" lon="8.2516">
        <ele>1511</ele>
        <time>2020-07-16T12:49:55.541Z</time>
      </trkpt>
      <trkpt lat="46.48279" lon="8.25159">
        <ele>1511</ele>
        <time>2020-07-16T12:49:56.540Z</time>
      </trkpt>
      <trkpt lat="46.48278" lon="8.25157">
        <ele>1512</ele>
        <time>2020-07-16T12:49:57.541Z</time>
      </trkpt>
      <trkpt lat="46.48278" lon="8.25156">
        <ele>1512</ele>
        <time>2020-07-16T12:49:58.541Z</time>
      </trkpt>
      <trkpt lat="46.48277" lon="8.25154">
        <ele>1512</ele>
        <time>2020-07-16T12:49:59.540Z</time>
      </trkpt>
      <trkpt lat="46.48276" lon="8.25153">
        <ele>1513</ele>
        <time>2020-07-16T12:50:00.540Z</time>
      </trkpt>
      <trkpt lat="46.48276" lon="8.25153">
        <ele>1513</ele>
        <time>2020-07-16T12:50:01.541Z</time>
      </trkpt>
      <trkpt lat="46.48275" lon="8.25152">
        <ele>1513</ele>
        <time>2020-07-16T12:50:02.540Z</time>
      </trkpt>
      <trkpt lat="46.48275" lon="8.25151">
        <ele>1514</ele>
        <time>2020-07-16T12:50:03.541Z</time>
      </trkpt>
      <trkpt lat="46.48274" lon="8.25151">
        <ele>1514</ele>
        <time>2020-07-16T12:50:04.541Z</time>
      </trkpt>
      <trkpt lat="46.48274" lon="8.2515">
        <ele>1514</ele>
        <time>2020-07-16T12:50:05.541Z</time>
      </trkpt>
      <trkpt lat="46.48272" lon="8.2515">
        <ele>1514</ele>
        <time>2020-07-16T12:50:06.541Z</time>
      </trkpt>
      <trkpt lat="46.48271" lon="8.25149">
        <ele>1514</ele>
        <time>2020-07-16T12:50:07.541Z</time>
      </trkpt>
      <trkpt lat="46.48271" lon="8.25149">
        <ele>1514</ele>
        <time>2020-07-16T12:50:08.540Z</time>
      </trkpt>
      <trkpt lat="46.48269" lon="8.25148">
        <ele>1513</ele>
        <time>2020-07-16T12:50:09.540Z</time>
      </trkpt>
      <trkpt lat="46.48269" lon="8.25149">
        <ele>1513</ele>
        <time>2020-07-16T12:50:10.540Z</time>
      </trkpt>
      <trkpt lat="46.4827" lon="8.25153">
        <ele>1512</ele>
        <time>2020-07-16T12:50:11.541Z</time>
      </trkpt>
      <trkpt lat="46.48269" lon="8.25152">
        <ele>1507</ele>
        <time>2020-07-16T12:50:12.540Z</time>
      </trkpt>
      <trkpt lat="46.48269" lon="8.25152">
        <ele>1506</ele>
        <time>2020-07-16T12:50:13.541Z</time>
      </trkpt>
      <trkpt lat="46.48269" lon="8.25152">
        <ele>1506</ele>
        <time>2020-07-16T12:50:14.540Z</time>
      </trkpt>
      <trkpt lat="46.48269" lon="8.25148">
        <ele>1503</ele>
        <time>2020-07-16T12:50:15.542Z</time>
      </trkpt>
      <trkpt lat="46.48268" lon="8.25147">
        <ele>1503</ele>
        <time>2020-07-16T12:50:16.542Z</time>
      </trkpt>
      <trkpt lat="46.48267" lon="8.25146">
        <ele>1503</ele>
        <time>2020-07-16T12:50:17.541Z</time>
      </trkpt>
      <trkpt lat="46.48266" lon="8.25145">
        <ele>1503</ele>
        <time>2020-07-16T12:50:18.541Z</time>
      </trkpt>
      <trkpt lat="46.48265" lon="8.25144">
        <ele>1503</ele>
        <time>2020-07-16T12:50:19.542Z</time>
      </trkpt>
      <trkpt lat="46.48264" lon="8.25143">
        <ele>1503</ele>
        <time>2020-07-16T12:50:20.542Z</time>
      </trkpt>
      <trkpt lat="46.48264" lon="8.25143">
        <ele>1503</ele>
        <time>2020-07-16T12:50:21.541Z</time>
      </trkpt>
      <trkpt lat="46.48263" lon="8.25142">
        <ele>1503</ele>
        <time>2020-07-16T12:50:22.541Z</time>
      </trkpt>
      <trkpt lat="46.48262" lon="8.2514">
        <ele>1504</ele>
        <time>2020-07-16T12:50:23.541Z</time>
      </trkpt>
      <trkpt lat="46.48262" lon="8.25139">
        <ele>1504</ele>
        <time>2020-07-16T12:50:24.541Z</time>
      </trkpt>
      <trkpt lat="46.48261" lon="8.25138">
        <ele>1504</ele>
        <time>2020-07-16T12:50:25.541Z</time>
      </trkpt>
      <trkpt lat="46.48261" lon="8.25137">
        <ele>1505</ele>
        <time>2020-07-16T12:50:26.541Z</time>
      </trkpt>
      <trkpt lat="46.48261" lon="8.25136">
        <ele>1505</ele>
        <time>2020-07-16T12:50:27.542Z</time>
      </trkpt>
      <trkpt lat="46.4826" lon="8.25135">
        <ele>1505</ele>
        <time>2020-07-16T12:50:28.542Z</time>
      </trkpt>
      <trkpt lat="46.4826" lon="8.25135">
        <ele>1505</ele>
        <time>2020-07-16T12:50:29.541Z</time>
      </trkpt>
      <trkpt lat="46.4826" lon="8.25134">
        <ele>1504</ele>
        <time>2020-07-16T12:50:30.542Z</time>
      </trkpt>
      <trkpt lat="46.48259" lon="8.25133">
        <ele>1502</ele>
        <time>2020-07-16T12:50:31.543Z</time>
      </trkpt>
      <trkpt lat="46.48259" lon="8.25132">
        <ele>1502</ele>
        <time>2020-07-16T12:50:32.542Z</time>
      </trkpt>
      <trkpt lat="46.48258" lon="8.25132">
        <ele>1502</ele>
        <time>2020-07-16T12:50:33.542Z</time>
      </trkpt>
      <trkpt lat="46.48257" lon="8.25131">
        <ele>1502</ele>
        <time>2020-07-16T12:50:34.542Z</time>
      </trkpt>
      <trkpt lat="46.48257" lon="8.25131">
        <ele>1503</ele>
        <time>2020-07-16T12:50:35.543Z</time>
      </trkpt>
      <trkpt lat="46.48256" lon="8.2513">
        <ele>1504</ele>
        <time>2020-07-16T12:50:36.543Z</time>
      </trkpt>
      <trkpt lat="46.48255" lon="8.25129">
        <ele>1504</ele>
        <time>2020-07-16T12:50:37.543Z</time>
      </trkpt>
      <trkpt lat="46.48255" lon="8.25129">
        <ele>1504</ele>
        <time>2020-07-16T12:50:38.543Z</time>
      </trkpt>
      <trkpt lat="46.48254" lon="8.25128">
        <ele>1505</ele>
        <time>2020-07-16T12:50:39.543Z</time>
      </trkpt>
      <trkpt lat="46.48254" lon="8.25128">
        <ele>1505</ele>
        <time>2020-07-16T12:50:40.542Z</time>
      </trkpt>
      <trkpt lat="46.48253" lon="8.25128">
        <ele>1505</ele>
        <time>2020-07-16T12:50:41.543Z</time>
      </trkpt>
      <trkpt lat="46.48253" lon="8.25127">
        <ele>1506</ele>
        <time>2020-07-16T12:50:42.542Z</time>
      </trkpt>
      <trkpt lat="46.48252" lon="8.25127">
        <ele>1506</ele>
        <time>2020-07-16T12:50:43.543Z</time>
      </trkpt>
      <trkpt lat="46.48252" lon="8.25127">
        <ele>1507</ele>
        <time>2020-07-16T12:50:44.542Z</time>
      </trkpt>
      <trkpt lat="46.48251" lon="8.25126">
        <ele>1507</ele>
        <time>2020-07-16T12:50:45.543Z</time>
      </trkpt>
      <trkpt lat="46.4825" lon="8.25126">
        <ele>1508</ele>
        <time>2020-07-16T12:50:46.543Z</time>
      </trkpt>
      <trkpt lat="46.4825" lon="8.25126">
        <ele>1508</ele>
        <time>2020-07-16T12:50:47.543Z</time>
      </trkpt>
      <trkpt lat="46.48249" lon="8.25125">
        <ele>1509</ele>
        <time>2020-07-16T12:50:48.543Z</time>
      </trkpt>
      <trkpt lat="46.48249" lon="8.25125">
        <ele>1509</ele>
        <time>2020-07-16T12:50:49.543Z</time>
      </trkpt>
      <trkpt lat="46.48248" lon="8.25124">
        <ele>1509</ele>
        <time>2020-07-16T12:50:50.543Z</time>
      </trkpt>
      <trkpt lat="46.48248" lon="8.25124">
        <ele>1509</ele>
        <time>2020-07-16T12:50:51.543Z</time>
      </trkpt>
      <trkpt lat="46.48247" lon="8.25123">
        <ele>1511</ele>
        <time>2020-07-16T12:50:52.544Z</time>
      </trkpt>
      <trkpt lat="46.48247" lon="8.25122">
        <ele>1511</ele>
        <time>2020-07-16T12:50:53.545Z</time>
      </trkpt>
      <trkpt lat="46.48246" lon="8.25122">
        <ele>1511</ele>
        <time>2020-07-16T12:50:54.545Z</time>
      </trkpt>
      <trkpt lat="46.48245" lon="8.25125">
        <ele>1514</ele>
        <time>2020-07-16T12:50:55.545Z</time>
      </trkpt>
      <trkpt lat="46.48245" lon="8.25124">
        <ele>1514</ele>
        <time>2020-07-16T12:50:56.544Z</time>
      </trkpt>
      <trkpt lat="46.48245" lon="8.2512">
        <ele>1514</ele>
        <time>2020-07-16T12:50:57.545Z</time>
      </trkpt>
      <trkpt lat="46.48245" lon="8.2512">
        <ele>1514</ele>
        <time>2020-07-16T12:50:58.544Z</time>
      </trkpt>
      <trkpt lat="46.48244" lon="8.25119">
        <ele>1514</ele>
        <time>2020-07-16T12:50:59.544Z</time>
      </trkpt>
      <trkpt lat="46.48243" lon="8.25119">
        <ele>1514</ele>
        <time>2020-07-16T12:51:00.545Z</time>
      </trkpt>
      <trkpt lat="46.48243" lon="8.25119">
        <ele>1514</ele>
        <time>2020-07-16T12:51:01.545Z</time>
      </trkpt>
      <trkpt lat="46.48243" lon="8.25119">
        <ele>1515</ele>
        <time>2020-07-16T12:51:02.544Z</time>
      </trkpt>
      <trkpt lat="46.48243" lon="8.25119">
        <ele>1515</ele>
        <time>2020-07-16T12:51:03.544Z</time>
      </trkpt>
      <trkpt lat="46.48242" lon="8.25118">
        <ele>1515</ele>
        <time>2020-07-16T12:51:04.544Z</time>
      </trkpt>
      <trkpt lat="46.48242" lon="8.25118">
        <ele>1515</ele>
        <time>2020-07-16T12:51:05.544Z</time>
      </trkpt>
      <trkpt lat="46.48242" lon="8.25117">
        <ele>1514</ele>
        <time>2020-07-16T12:51:06.544Z</time>
      </trkpt>
      <trkpt lat="46.48242" lon="8.25116">
        <ele>1514</ele>
        <time>2020-07-16T12:51:07.545Z</time>
      </trkpt>
      <trkpt lat="46.48241" lon="8.25115">
        <ele>1514</ele>
        <time>2020-07-16T12:51:08.544Z</time>
      </trkpt>
      <trkpt lat="46.4824" lon="8.25115">
        <ele>1513</ele>
        <time>2020-07-16T12:51:09.545Z</time>
      </trkpt>
      <trkpt lat="46.4824" lon="8.25114">
        <ele>1513</ele>
        <time>2020-07-16T12:51:10.545Z</time>
      </trkpt>
      <trkpt lat="46.48239" lon="8.25114">
        <ele>1513</ele>
        <time>2020-07-16T12:51:11.544Z</time>
      </trkpt>
      <trkpt lat="46.48239" lon="8.25113">
        <ele>1513</ele>
        <time>2020-07-16T12:51:12.544Z</time>
      </trkpt>
      <trkpt lat="46.48239" lon="8.25112">
        <ele>1513</ele>
        <time>2020-07-16T12:51:13.545Z</time>
      </trkpt>
      <trkpt lat="46.48238" lon="8.25111">
        <ele>1513</ele>
        <time>2020-07-16T12:51:14.544Z</time>
      </trkpt>
      <trkpt lat="46.48238" lon="8.25109">
        <ele>1514</ele>
        <time>2020-07-16T12:51:15.545Z</time>
      </trkpt>
      <trkpt lat="46.48237" lon="8.25108">
        <ele>1514</ele>
        <time>2020-07-16T12:51:16.545Z</time>
      </trkpt>
      <trkpt lat="46.48237" lon="8.25107">
        <ele>1514</ele>
        <time>2020-07-16T12:51:17.545Z</time>
      </trkpt>
      <trkpt lat="46.48237" lon="8.25106">
        <ele>1514</ele>
        <time>2020-07-16T12:51:18.545Z</time>
      </trkpt>
      <trkpt lat="46.48237" lon="8.25106">
        <ele>1514</ele>
        <time>2020-07-16T12:51:19.545Z</time>
      </trkpt>
      <trkpt lat="46.48237" lon="8.25105">
        <ele>1514</ele>
        <time>2020-07-16T12:51:20.544Z</time>
      </trkpt>
      <trkpt lat="46.48237" lon="8.25104">
        <ele>1514</ele>
        <time>2020-07-16T12:51:21.545Z</time>
      </trkpt>
      <trkpt lat="46.48237" lon="8.25103">
        <ele>1514</ele>
        <time>2020-07-16T12:51:22.545Z</time>
      </trkpt>
      <trkpt lat="46.48236" lon="8.25102">
        <ele>1514</ele>
        <time>2020-07-16T12:51:23.545Z</time>
      </trkpt>
      <trkpt lat="46.48236" lon="8.25101">
        <ele>1513</ele>
        <time>2020-07-16T12:51:24.545Z</time>
      </trkpt>
      <trkpt lat="46.48236" lon="8.25101">
        <ele>1513</ele>
        <time>2020-07-16T12:51:25.545Z</time>
      </trkpt>
      <trkpt lat="46.48235" lon="8.251">
        <ele>1514</ele>
        <time>2020-07-16T12:51:26.545Z</time>
      </trkpt>
      <trkpt lat="46.48235" lon="8.25098">
        <ele>1514</ele>
        <time>2020-07-16T12:51:27.544Z</time>
      </trkpt>
      <trkpt lat="46.48234" lon="8.25097">
        <ele>1514</ele>
        <time>2020-07-16T12:51:28.545Z</time>
      </trkpt>
      <trkpt lat="46.48233" lon="8.25097">
        <ele>1514</ele>
        <time>2020-07-16T12:51:29.545Z</time>
      </trkpt>
      <trkpt lat="46.48232" lon="8.25096">
        <ele>1514</ele>
        <time>2020-07-16T12:51:30.545Z</time>
      </trkpt>
      <trkpt lat="46.48232" lon="8.25094">
        <ele>1515</ele>
        <time>2020-07-16T12:51:31.544Z</time>
      </trkpt>
      <trkpt lat="46.48231" lon="8.25093">
        <ele>1515</ele>
        <time>2020-07-16T12:51:32.545Z</time>
      </trkpt>
      <trkpt lat="46.4823" lon="8.25093">
        <ele>1515</ele>
        <time>2020-07-16T12:51:33.544Z</time>
      </trkpt>
      <trkpt lat="46.48229" lon="8.25092">
        <ele>1514</ele>
        <time>2020-07-16T12:51:34.545Z</time>
      </trkpt>
      <trkpt lat="46.48229" lon="8.25091">
        <ele>1514</ele>
        <time>2020-07-16T12:51:35.545Z</time>
      </trkpt>
      <trkpt lat="46.48228" lon="8.2509">
        <ele>1514</ele>
        <time>2020-07-16T12:51:36.545Z</time>
      </trkpt>
      <trkpt lat="46.48228" lon="8.25089">
        <ele>1513</ele>
        <time>2020-07-16T12:51:37.545Z</time>
      </trkpt>
      <trkpt lat="46.48228" lon="8.25089">
        <ele>1513</ele>
        <time>2020-07-16T12:51:38.545Z</time>
      </trkpt>
      <trkpt lat="46.48227" lon="8.25089">
        <ele>1513</ele>
        <time>2020-07-16T12:51:39.544Z</time>
      </trkpt>
      <trkpt lat="46.48227" lon="8.25089">
        <ele>1512</ele>
        <time>2020-07-16T12:51:40.544Z</time>
      </trkpt>
      <trkpt lat="46.48223" lon="8.25087">
        <ele>1508</ele>
        <time>2020-07-16T12:51:41.544Z</time>
      </trkpt>
      <trkpt lat="46.48223" lon="8.25087">
        <ele>1508</ele>
        <time>2020-07-16T12:51:42.544Z</time>
      </trkpt>
      <trkpt lat="46.48222" lon="8.25087">
        <ele>1508</ele>
        <time>2020-07-16T12:51:43.544Z</time>
      </trkpt>
      <trkpt lat="46.48223" lon="8.25086">
        <ele>1507</ele>
        <time>2020-07-16T12:51:44.545Z</time>
      </trkpt>
      <trkpt lat="46.48223" lon="8.25087">
        <ele>1506</ele>
        <time>2020-07-16T12:51:45.546Z</time>
      </trkpt>
      <trkpt lat="46.48222" lon="8.25086">
        <ele>1507</ele>
        <time>2020-07-16T12:51:46.546Z</time>
      </trkpt>
      <trkpt lat="46.48223" lon="8.25085">
        <ele>1507</ele>
        <time>2020-07-16T12:51:47.545Z</time>
      </trkpt>
      <trkpt lat="46.48223" lon="8.25085">
        <ele>1507</ele>
        <time>2020-07-16T12:51:48.546Z</time>
      </trkpt>
      <trkpt lat="46.48223" lon="8.25084">
        <ele>1508</ele>
        <time>2020-07-16T12:51:49.546Z</time>
      </trkpt>
      <trkpt lat="46.48222" lon="8.25084">
        <ele>1508</ele>
        <time>2020-07-16T12:51:50.545Z</time>
      </trkpt>
      <trkpt lat="46.48222" lon="8.25084">
        <ele>1509</ele>
        <time>2020-07-16T12:51:51.545Z</time>
      </trkpt>
      <trkpt lat="46.48222" lon="8.25083">
        <ele>1509</ele>
        <time>2020-07-16T12:51:52.546Z</time>
      </trkpt>
      <trkpt lat="46.48221" lon="8.25083">
        <ele>1510</ele>
        <time>2020-07-16T12:51:53.546Z</time>
      </trkpt>
      <trkpt lat="46.48221" lon="8.25083">
        <ele>1511</ele>
        <time>2020-07-16T12:51:54.546Z</time>
      </trkpt>
      <trkpt lat="46.4822" lon="8.25082">
        <ele>1512</ele>
        <time>2020-07-16T12:51:55.546Z</time>
      </trkpt>
      <trkpt lat="46.4822" lon="8.25081">
        <ele>1512</ele>
        <time>2020-07-16T12:51:56.546Z</time>
      </trkpt>
      <trkpt lat="46.4822" lon="8.25081">
        <ele>1513</ele>
        <time>2020-07-16T12:51:57.545Z</time>
      </trkpt>
      <trkpt lat="46.4822" lon="8.2508">
        <ele>1513</ele>
        <time>2020-07-16T12:51:58.546Z</time>
      </trkpt>
      <trkpt lat="46.48219" lon="8.25079">
        <ele>1513</ele>
        <time>2020-07-16T12:51:59.545Z</time>
      </trkpt>
      <trkpt lat="46.48219" lon="8.25079">
        <ele>1513</ele>
        <time>2020-07-16T12:52:00.546Z</time>
      </trkpt>
      <trkpt lat="46.48219" lon="8.25078">
        <ele>1513</ele>
        <time>2020-07-16T12:52:01.545Z</time>
      </trkpt>
      <trkpt lat="46.48218" lon="8.25078">
        <ele>1513</ele>
        <time>2020-07-16T12:52:02.545Z</time>
      </trkpt>
      <trkpt lat="46.48218" lon="8.25077">
        <ele>1513</ele>
        <time>2020-07-16T12:52:03.546Z</time>
      </trkpt>
      <trkpt lat="46.48217" lon="8.25076">
        <ele>1513</ele>
        <time>2020-07-16T12:52:04.546Z</time>
      </trkpt>
      <trkpt lat="46.48216" lon="8.25075">
        <ele>1514</ele>
        <time>2020-07-16T12:52:05.545Z</time>
      </trkpt>
      <trkpt lat="46.48216" lon="8.25074">
        <ele>1514</ele>
        <time>2020-07-16T12:52:06.546Z</time>
      </trkpt>
      <trkpt lat="46.48216" lon="8.25074">
        <ele>1514</ele>
        <time>2020-07-16T12:52:07.546Z</time>
      </trkpt>
      <trkpt lat="46.48215" lon="8.25073">
        <ele>1514</ele>
        <time>2020-07-16T12:52:08.546Z</time>
      </trkpt>
      <trkpt lat="46.48215" lon="8.25072">
        <ele>1515</ele>
        <time>2020-07-16T12:52:09.546Z</time>
      </trkpt>
      <trkpt lat="46.48214" lon="8.25071">
        <ele>1515</ele>
        <time>2020-07-16T12:52:10.546Z</time>
      </trkpt>
      <trkpt lat="46.48213" lon="8.25071">
        <ele>1515</ele>
        <time>2020-07-16T12:52:11.546Z</time>
      </trkpt>
      <trkpt lat="46.48213" lon="8.2507">
        <ele>1515</ele>
        <time>2020-07-16T12:52:12.546Z</time>
      </trkpt>
      <trkpt lat="46.48212" lon="8.2507">
        <ele>1516</ele>
        <time>2020-07-16T12:52:13.545Z</time>
      </trkpt>
      <trkpt lat="46.48211" lon="8.25069">
        <ele>1516</ele>
        <time>2020-07-16T12:52:14.545Z</time>
      </trkpt>
      <trkpt lat="46.4821" lon="8.25069">
        <ele>1516</ele>
        <time>2020-07-16T12:52:15.546Z</time>
      </trkpt>
      <trkpt lat="46.4821" lon="8.25068">
        <ele>1516</ele>
        <time>2020-07-16T12:52:16.546Z</time>
      </trkpt>
      <trkpt lat="46.48209" lon="8.25067">
        <ele>1517</ele>
        <time>2020-07-16T12:52:17.546Z</time>
      </trkpt>
      <trkpt lat="46.48209" lon="8.25067">
        <ele>1517</ele>
        <time>2020-07-16T12:52:18.546Z</time>
      </trkpt>
      <trkpt lat="46.48208" lon="8.25066">
        <ele>1518</ele>
        <time>2020-07-16T12:52:19.545Z</time>
      </trkpt>
      <trkpt lat="46.48208" lon="8.25065">
        <ele>1518</ele>
        <time>2020-07-16T12:52:20.546Z</time>
      </trkpt>
      <trkpt lat="46.48207" lon="8.25064">
        <ele>1518</ele>
        <time>2020-07-16T12:52:21.545Z</time>
      </trkpt>
      <trkpt lat="46.48207" lon="8.25063">
        <ele>1518</ele>
        <time>2020-07-16T12:52:22.546Z</time>
      </trkpt>
      <trkpt lat="46.48206" lon="8.25063">
        <ele>1518</ele>
        <time>2020-07-16T12:52:23.546Z</time>
      </trkpt>
      <trkpt lat="46.48205" lon="8.25062">
        <ele>1519</ele>
        <time>2020-07-16T12:52:24.545Z</time>
      </trkpt>
      <trkpt lat="46.48205" lon="8.25061">
        <ele>1519</ele>
        <time>2020-07-16T12:52:25.546Z</time>
      </trkpt>
      <trkpt lat="46.48204" lon="8.2506">
        <ele>1519</ele>
        <time>2020-07-16T12:52:26.545Z</time>
      </trkpt>
      <trkpt lat="46.48203" lon="8.2506">
        <ele>1520</ele>
        <time>2020-07-16T12:52:27.546Z</time>
      </trkpt>
      <trkpt lat="46.48204" lon="8.25058">
        <ele>1521</ele>
        <time>2020-07-16T12:52:28.546Z</time>
      </trkpt>
      <trkpt lat="46.48204" lon="8.25058">
        <ele>1522</ele>
        <time>2020-07-16T12:52:29.546Z</time>
      </trkpt>
      <trkpt lat="46.48204" lon="8.25057">
        <ele>1522</ele>
        <time>2020-07-16T12:52:30.546Z</time>
      </trkpt>
      <trkpt lat="46.48204" lon="8.25057">
        <ele>1523</ele>
        <time>2020-07-16T12:52:31.546Z</time>
      </trkpt>
      <trkpt lat="46.48203" lon="8.25056">
        <ele>1524</ele>
        <time>2020-07-16T12:52:32.545Z</time>
      </trkpt>
      <trkpt lat="46.48202" lon="8.25055">
        <ele>1525</ele>
        <time>2020-07-16T12:52:33.546Z</time>
      </trkpt>
      <trkpt lat="46.48202" lon="8.25054">
        <ele>1525</ele>
        <time>2020-07-16T12:52:34.545Z</time>
      </trkpt>
      <trkpt lat="46.48201" lon="8.25053">
        <ele>1526</ele>
        <time>2020-07-16T12:52:35.545Z</time>
      </trkpt>
      <trkpt lat="46.482" lon="8.25052">
        <ele>1526</ele>
        <time>2020-07-16T12:52:36.546Z</time>
      </trkpt>
      <trkpt lat="46.48199" lon="8.25052">
        <ele>1526</ele>
        <time>2020-07-16T12:52:37.546Z</time>
      </trkpt>
      <trkpt lat="46.48199" lon="8.25052">
        <ele>1527</ele>
        <time>2020-07-16T12:52:38.546Z</time>
      </trkpt>
      <trkpt lat="46.48198" lon="8.25051">
        <ele>1527</ele>
        <time>2020-07-16T12:52:39.545Z</time>
      </trkpt>
      <trkpt lat="46.48198" lon="8.2505">
        <ele>1527</ele>
        <time>2020-07-16T12:52:40.545Z</time>
      </trkpt>
      <trkpt lat="46.48197" lon="8.25049">
        <ele>1527</ele>
        <time>2020-07-16T12:52:41.546Z</time>
      </trkpt>
      <trkpt lat="46.48197" lon="8.25048">
        <ele>1527</ele>
        <time>2020-07-16T12:52:42.546Z</time>
      </trkpt>
      <trkpt lat="46.48197" lon="8.25048">
        <ele>1526</ele>
        <time>2020-07-16T12:52:43.545Z</time>
      </trkpt>
      <trkpt lat="46.48197" lon="8.25047">
        <ele>1525</ele>
        <time>2020-07-16T12:52:44.545Z</time>
      </trkpt>
      <trkpt lat="46.48197" lon="8.25045">
        <ele>1525</ele>
        <time>2020-07-16T12:52:45.546Z</time>
      </trkpt>
      <trkpt lat="46.48196" lon="8.25044">
        <ele>1524</ele>
        <time>2020-07-16T12:52:46.546Z</time>
      </trkpt>
      <trkpt lat="46.48195" lon="8.25043">
        <ele>1523</ele>
        <time>2020-07-16T12:52:47.546Z</time>
      </trkpt>
      <trkpt lat="46.48195" lon="8.25042">
        <ele>1522</ele>
        <time>2020-07-16T12:52:48.546Z</time>
      </trkpt>
      <trkpt lat="46.48194" lon="8.25041">
        <ele>1521</ele>
        <time>2020-07-16T12:52:49.546Z</time>
      </trkpt>
      <trkpt lat="46.48194" lon="8.2504">
        <ele>1521</ele>
        <time>2020-07-16T12:52:50.546Z</time>
      </trkpt>
      <trkpt lat="46.48194" lon="8.25039">
        <ele>1520</ele>
        <time>2020-07-16T12:52:51.545Z</time>
      </trkpt>
      <trkpt lat="46.48194" lon="8.25038">
        <ele>1519</ele>
        <time>2020-07-16T12:52:52.546Z</time>
      </trkpt>
      <trkpt lat="46.48194" lon="8.25037">
        <ele>1518</ele>
        <time>2020-07-16T12:52:53.545Z</time>
      </trkpt>
      <trkpt lat="46.48194" lon="8.25036">
        <ele>1517</ele>
        <time>2020-07-16T12:52:54.545Z</time>
      </trkpt>
      <trkpt lat="46.48194" lon="8.25035">
        <ele>1517</ele>
        <time>2020-07-16T12:52:55.546Z</time>
      </trkpt>
      <trkpt lat="46.48193" lon="8.25034">
        <ele>1517</ele>
        <time>2020-07-16T12:52:56.546Z</time>
      </trkpt>
      <trkpt lat="46.48193" lon="8.25034">
        <ele>1517</ele>
        <time>2020-07-16T12:52:57.545Z</time>
      </trkpt>
      <trkpt lat="46.48193" lon="8.25034">
        <ele>1517</ele>
        <time>2020-07-16T12:52:58.546Z</time>
      </trkpt>
      <trkpt lat="46.48193" lon="8.25033">
        <ele>1516</ele>
        <time>2020-07-16T12:52:59.545Z</time>
      </trkpt>
      <trkpt lat="46.48193" lon="8.25033">
        <ele>1516</ele>
        <time>2020-07-16T12:53:00.546Z</time>
      </trkpt>
      <trkpt lat="46.48193" lon="8.25032">
        <ele>1516</ele>
        <time>2020-07-16T12:53:01.546Z</time>
      </trkpt>
      <trkpt lat="46.48193" lon="8.25032">
        <ele>1516</ele>
        <time>2020-07-16T12:53:02.546Z</time>
      </trkpt>
      <trkpt lat="46.48194" lon="8.25032">
        <ele>1516</ele>
        <time>2020-07-16T12:53:03.545Z</time>
      </trkpt>
      <trkpt lat="46.48194" lon="8.25032">
        <ele>1516</ele>
        <time>2020-07-16T12:53:04.546Z</time>
      </trkpt>
      <trkpt lat="46.48194" lon="8.25033">
        <ele>1516</ele>
        <time>2020-07-16T12:53:05.546Z</time>
      </trkpt>
      <trkpt lat="46.48194" lon="8.25033">
        <ele>1515</ele>
        <time>2020-07-16T12:53:06.546Z</time>
      </trkpt>
      <trkpt lat="46.48192" lon="8.25033">
        <ele>1519</ele>
        <time>2020-07-16T12:53:07.546Z</time>
      </trkpt>
      <trkpt lat="46.48192" lon="8.25033">
        <ele>1520</ele>
        <time>2020-07-16T12:53:08.546Z</time>
      </trkpt>
      <trkpt lat="46.48192" lon="8.25035">
        <ele>1521</ele>
        <time>2020-07-16T12:53:09.545Z</time>
      </trkpt>
      <trkpt lat="46.48192" lon="8.25035">
        <ele>1521</ele>
        <time>2020-07-16T12:53:10.546Z</time>
      </trkpt>
      <trkpt lat="46.48191" lon="8.25035">
        <ele>1522</ele>
        <time>2020-07-16T12:53:11.545Z</time>
      </trkpt>
      <trkpt lat="46.4819" lon="8.25035">
        <ele>1522</ele>
        <time>2020-07-16T12:53:12.545Z</time>
      </trkpt>
      <trkpt lat="46.4819" lon="8.25036">
        <ele>1522</ele>
        <time>2020-07-16T12:53:13.545Z</time>
      </trkpt>
      <trkpt lat="46.4819" lon="8.25035">
        <ele>1522</ele>
        <time>2020-07-16T12:53:14.546Z</time>
      </trkpt>
      <trkpt lat="46.48188" lon="8.25033">
        <ele>1522</ele>
        <time>2020-07-16T12:53:15.547Z</time>
      </trkpt>
      <trkpt lat="46.48188" lon="8.25032">
        <ele>1522</ele>
        <time>2020-07-16T12:53:16.547Z</time>
      </trkpt>
      <trkpt lat="46.48188" lon="8.25031">
        <ele>1522</ele>
        <time>2020-07-16T12:53:17.547Z</time>
      </trkpt>
      <trkpt lat="46.48189" lon="8.25034">
        <ele>1517</ele>
        <time>2020-07-16T12:53:18.548Z</time>
      </trkpt>
      <trkpt lat="46.4819" lon="8.25034">
        <ele>1516</ele>
        <time>2020-07-16T12:53:19.548Z</time>
      </trkpt>
      <trkpt lat="46.4819" lon="8.25033">
        <ele>1515</ele>
        <time>2020-07-16T12:53:20.547Z</time>
      </trkpt>
      <trkpt lat="46.4819" lon="8.25033">
        <ele>1515</ele>
        <time>2020-07-16T12:53:21.547Z</time>
      </trkpt>
      <trkpt lat="46.48195" lon="8.25031">
        <ele>1508</ele>
        <time>2020-07-16T12:53:22.548Z</time>
      </trkpt>
      <trkpt lat="46.48195" lon="8.25031">
        <ele>1507</ele>
        <time>2020-07-16T12:53:23.547Z</time>
      </trkpt>
      <trkpt lat="46.48197" lon="8.2503">
        <ele>1500</ele>
        <time>2020-07-16T12:53:24.547Z</time>
      </trkpt>
      <trkpt lat="46.48198" lon="8.2503">
        <ele>1499</ele>
        <time>2020-07-16T12:53:25.548Z</time>
      </trkpt>
      <trkpt lat="46.48198" lon="8.2503">
        <ele>1497</ele>
        <time>2020-07-16T12:53:26.548Z</time>
      </trkpt>
      <trkpt lat="46.48199" lon="8.25031">
        <ele>1495</ele>
        <time>2020-07-16T12:53:27.548Z</time>
      </trkpt>
      <trkpt lat="46.48199" lon="8.25031">
        <ele>1493</ele>
        <time>2020-07-16T12:53:28.548Z</time>
      </trkpt>
      <trkpt lat="46.482" lon="8.25031">
        <ele>1491</ele>
        <time>2020-07-16T12:53:29.548Z</time>
      </trkpt>
      <trkpt lat="46.48201" lon="8.25031">
        <ele>1489</ele>
        <time>2020-07-16T12:53:30.547Z</time>
      </trkpt>
      <trkpt lat="46.48202" lon="8.2503">
        <ele>1488</ele>
        <time>2020-07-16T12:53:31.548Z</time>
      </trkpt>
      <trkpt lat="46.48202" lon="8.2503">
        <ele>1487</ele>
        <time>2020-07-16T12:53:32.548Z</time>
      </trkpt>
      <trkpt lat="46.48202" lon="8.2503">
        <ele>1486</ele>
        <time>2020-07-16T12:53:33.547Z</time>
      </trkpt>
      <trkpt lat="46.48202" lon="8.25029">
        <ele>1486</ele>
        <time>2020-07-16T12:53:34.548Z</time>
      </trkpt>
      <trkpt lat="46.48202" lon="8.25029">
        <ele>1486</ele>
        <time>2020-07-16T12:53:35.548Z</time>
      </trkpt>
      <trkpt lat="46.48201" lon="8.25028">
        <ele>1487</ele>
        <time>2020-07-16T12:53:36.548Z</time>
      </trkpt>
      <trkpt lat="46.48201" lon="8.25027">
        <ele>1488</ele>
        <time>2020-07-16T12:53:37.548Z</time>
      </trkpt>
      <trkpt lat="46.482" lon="8.25027">
        <ele>1489</ele>
        <time>2020-07-16T12:53:38.547Z</time>
      </trkpt>
      <trkpt lat="46.482" lon="8.25027">
        <ele>1490</ele>
        <time>2020-07-16T12:53:39.548Z</time>
      </trkpt>
      <trkpt lat="46.482" lon="8.25027">
        <ele>1490</ele>
        <time>2020-07-16T12:53:40.548Z</time>
      </trkpt>
      <trkpt lat="46.482" lon="8.25027">
        <ele>1491</ele>
        <time>2020-07-16T12:53:41.547Z</time>
      </trkpt>
      <trkpt lat="46.482" lon="8.25027">
        <ele>1491</ele>
        <time>2020-07-16T12:53:42.547Z</time>
      </trkpt>
      <trkpt lat="46.48199" lon="8.25027">
        <ele>1491</ele>
        <time>2020-07-16T12:53:43.548Z</time>
      </trkpt>
      <trkpt lat="46.48199" lon="8.25027">
        <ele>1492</ele>
        <time>2020-07-16T12:53:44.547Z</time>
      </trkpt>
      <trkpt lat="46.48199" lon="8.25028">
        <ele>1492</ele>
        <time>2020-07-16T12:53:45.547Z</time>
      </trkpt>
      <trkpt lat="46.48199" lon="8.25028">
        <ele>1492</ele>
        <time>2020-07-16T12:53:46.548Z</time>
      </trkpt>
      <trkpt lat="46.48198" lon="8.25028">
        <ele>1493</ele>
        <time>2020-07-16T12:53:47.548Z</time>
      </trkpt>
      <trkpt lat="46.48198" lon="8.25028">
        <ele>1494</ele>
        <time>2020-07-16T12:53:48.548Z</time>
      </trkpt>
      <trkpt lat="46.48198" lon="8.25028">
        <ele>1495</ele>
        <time>2020-07-16T12:53:49.548Z</time>
      </trkpt>
      <trkpt lat="46.48198" lon="8.25029">
        <ele>1495</ele>
        <time>2020-07-16T12:53:50.547Z</time>
      </trkpt>
      <trkpt lat="46.48198" lon="8.25029">
        <ele>1496</ele>
        <time>2020-07-16T12:53:51.548Z</time>
      </trkpt>
      <trkpt lat="46.48197" lon="8.25029">
        <ele>1497</ele>
        <time>2020-07-16T12:53:52.547Z</time>
      </trkpt>
      <trkpt lat="46.48197" lon="8.25029">
        <ele>1498</ele>
        <time>2020-07-16T12:53:53.548Z</time>
      </trkpt>
      <trkpt lat="46.48197" lon="8.25029">
        <ele>1499</ele>
        <time>2020-07-16T12:53:54.548Z</time>
      </trkpt>
      <trkpt lat="46.48196" lon="8.2503">
        <ele>1501</ele>
        <time>2020-07-16T12:53:55.547Z</time>
      </trkpt>
      <trkpt lat="46.48196" lon="8.2503">
        <ele>1502</ele>
        <time>2020-07-16T12:53:56.548Z</time>
      </trkpt>
      <trkpt lat="46.48196" lon="8.2503">
        <ele>1504</ele>
        <time>2020-07-16T12:53:57.548Z</time>
      </trkpt>
      <trkpt lat="46.48195" lon="8.25029">
        <ele>1506</ele>
        <time>2020-07-16T12:53:58.547Z</time>
      </trkpt>
      <trkpt lat="46.48195" lon="8.25029">
        <ele>1507</ele>
        <time>2020-07-16T12:53:59.547Z</time>
      </trkpt>
      <trkpt lat="46.48194" lon="8.25028">
        <ele>1509</ele>
        <time>2020-07-16T12:54:00.548Z</time>
      </trkpt>
      <trkpt lat="46.48193" lon="8.25029">
        <ele>1510</ele>
        <time>2020-07-16T12:54:01.548Z</time>
      </trkpt>
      <trkpt lat="46.48192" lon="8.25029">
        <ele>1511</ele>
        <time>2020-07-16T12:54:02.548Z</time>
      </trkpt>
      <trkpt lat="46.48192" lon="8.25029">
        <ele>1512</ele>
        <time>2020-07-16T12:54:03.548Z</time>
      </trkpt>
      <trkpt lat="46.48192" lon="8.25028">
        <ele>1513</ele>
        <time>2020-07-16T12:54:04.548Z</time>
      </trkpt>
      <trkpt lat="46.48192" lon="8.25028">
        <ele>1514</ele>
        <time>2020-07-16T12:54:05.548Z</time>
      </trkpt>
      <trkpt lat="46.48191" lon="8.25028">
        <ele>1515</ele>
        <time>2020-07-16T12:54:06.547Z</time>
      </trkpt>
      <trkpt lat="46.48191" lon="8.25028">
        <ele>1516</ele>
        <time>2020-07-16T12:54:07.548Z</time>
      </trkpt>
      <trkpt lat="46.48191" lon="8.25028">
        <ele>1516</ele>
        <time>2020-07-16T12:54:08.548Z</time>
      </trkpt>
      <trkpt lat="46.48191" lon="8.25027">
        <ele>1516</ele>
        <time>2020-07-16T12:54:09.548Z</time>
      </trkpt>
      <trkpt lat="46.48191" lon="8.25027">
        <ele>1516</ele>
        <time>2020-07-16T12:54:10.547Z</time>
      </trkpt>
      <trkpt lat="46.48191" lon="8.25027">
        <ele>1516</ele>
        <time>2020-07-16T12:54:11.548Z</time>
      </trkpt>
      <trkpt lat="46.48191" lon="8.25027">
        <ele>1517</ele>
        <time>2020-07-16T12:54:12.547Z</time>
      </trkpt>
      <trkpt lat="46.48191" lon="8.25027">
        <ele>1517</ele>
        <time>2020-07-16T12:54:13.548Z</time>
      </trkpt>
      <trkpt lat="46.48191" lon="8.25027">
        <ele>1516</ele>
        <time>2020-07-16T12:54:14.548Z</time>
      </trkpt>
      <trkpt lat="46.48191" lon="8.25027">
        <ele>1516</ele>
        <time>2020-07-16T12:54:15.548Z</time>
      </trkpt>
      <trkpt lat="46.48191" lon="8.25028">
        <ele>1515</ele>
        <time>2020-07-16T12:54:16.547Z</time>
      </trkpt>
      <trkpt lat="46.48192" lon="8.25028">
        <ele>1514</ele>
        <time>2020-07-16T12:54:17.548Z</time>
      </trkpt>
      <trkpt lat="46.48191" lon="8.25028">
        <ele>1514</ele>
        <time>2020-07-16T12:54:18.548Z</time>
      </trkpt>
      <trkpt lat="46.48191" lon="8.25029">
        <ele>1513</ele>
        <time>2020-07-16T12:54:19.548Z</time>
      </trkpt>
      <trkpt lat="46.48191" lon="8.25029">
        <ele>1513</ele>
        <time>2020-07-16T12:54:20.548Z</time>
      </trkpt>
      <trkpt lat="46.48191" lon="8.25028">
        <ele>1512</ele>
        <time>2020-07-16T12:54:21.547Z</time>
      </trkpt>
      <trkpt lat="46.48191" lon="8.25029">
        <ele>1511</ele>
        <time>2020-07-16T12:54:22.548Z</time>
      </trkpt>
      <trkpt lat="46.48191" lon="8.25029">
        <ele>1511</ele>
        <time>2020-07-16T12:54:23.547Z</time>
      </trkpt>
      <trkpt lat="46.48191" lon="8.25029">
        <ele>1510</ele>
        <time>2020-07-16T12:54:24.548Z</time>
      </trkpt>
      <trkpt lat="46.48191" lon="8.25029">
        <ele>1510</ele>
        <time>2020-07-16T12:54:25.548Z</time>
      </trkpt>
      <trkpt lat="46.48191" lon="8.2503">
        <ele>1509</ele>
        <time>2020-07-16T12:54:26.548Z</time>
      </trkpt>
      <trkpt lat="46.48192" lon="8.2503">
        <ele>1508</ele>
        <time>2020-07-16T12:54:27.547Z</time>
      </trkpt>
      <trkpt lat="46.48192" lon="8.2503">
        <ele>1507</ele>
        <time>2020-07-16T12:54:28.548Z</time>
      </trkpt>
      <trkpt lat="46.48192" lon="8.2503">
        <ele>1506</ele>
        <time>2020-07-16T12:54:29.548Z</time>
      </trkpt>
      <trkpt lat="46.48192" lon="8.2503">
        <ele>1505</ele>
        <time>2020-07-16T12:54:30.548Z</time>
      </trkpt>
      <trkpt lat="46.48192" lon="8.2503">
        <ele>1505</ele>
        <time>2020-07-16T12:54:31.548Z</time>
      </trkpt>
      <trkpt lat="46.48192" lon="8.2503">
        <ele>1504</ele>
        <time>2020-07-16T12:54:32.548Z</time>
      </trkpt>
      <trkpt lat="46.48192" lon="8.2503">
        <ele>1504</ele>
        <time>2020-07-16T12:54:33.547Z</time>
      </trkpt>
      <trkpt lat="46.48192" lon="8.2503">
        <ele>1503</ele>
        <time>2020-07-16T12:54:34.547Z</time>
      </trkpt>
      <trkpt lat="46.48192" lon="8.2503">
        <ele>1503</ele>
        <time>2020-07-16T12:54:35.547Z</time>
      </trkpt>
      <trkpt lat="46.48192" lon="8.2503">
        <ele>1503</ele>
        <time>2020-07-16T12:54:36.547Z</time>
      </trkpt>
      <trkpt lat="46.48192" lon="8.2503">
        <ele>1502</ele>
        <time>2020-07-16T12:54:37.547Z</time>
      </trkpt>
      <trkpt lat="46.48192" lon="8.2503">
        <ele>1502</ele>
        <time>2020-07-16T12:54:38.547Z</time>
      </trkpt>
      <trkpt lat="46.48192" lon="8.2503">
        <ele>1502</ele>
        <time>2020-07-16T12:54:39.548Z</time>
      </trkpt>
      <trkpt lat="46.48192" lon="8.2503">
        <ele>1501</ele>
        <time>2020-07-16T12:54:40.547Z</time>
      </trkpt>
      <trkpt lat="46.48192" lon="8.25031">
        <ele>1501</ele>
        <time>2020-07-16T12:54:41.548Z</time>
      </trkpt>
      <trkpt lat="46.48192" lon="8.25031">
        <ele>1501</ele>
        <time>2020-07-16T12:54:42.548Z</time>
      </trkpt>
      <trkpt lat="46.48192" lon="8.25032">
        <ele>1500</ele>
        <time>2020-07-16T12:54:43.548Z</time>
      </trkpt>
      <trkpt lat="46.48192" lon="8.25031">
        <ele>1500</ele>
        <time>2020-07-16T12:54:44.548Z</time>
      </trkpt>
      <trkpt lat="46.48192" lon="8.25031">
        <ele>1499</ele>
        <time>2020-07-16T12:54:45.548Z</time>
      </trkpt>
      <trkpt lat="46.48192" lon="8.25031">
        <ele>1499</ele>
        <time>2020-07-16T12:54:46.548Z</time>
      </trkpt>
      <trkpt lat="46.48193" lon="8.25031">
        <ele>1508</ele>
        <time>2020-07-16T12:54:47.548Z</time>
      </trkpt>
      <trkpt lat="46.48192" lon="8.25031">
        <ele>1507</ele>
        <time>2020-07-16T12:54:48.547Z</time>
      </trkpt>
      <trkpt lat="46.48192" lon="8.25031">
        <ele>1504</ele>
        <time>2020-07-16T12:54:49.548Z</time>
      </trkpt>
      <trkpt lat="46.4819" lon="8.25033">
        <ele>1510</ele>
        <time>2020-07-16T12:54:50.548Z</time>
      </trkpt>
      <trkpt lat="46.4819" lon="8.25034">
        <ele>1510</ele>
        <time>2020-07-16T12:54:51.548Z</time>
      </trkpt>
      <trkpt lat="46.4819" lon="8.25034">
        <ele>1510</ele>
        <time>2020-07-16T12:54:52.547Z</time>
      </trkpt>
      <trkpt lat="46.48191" lon="8.25034">
        <ele>1511</ele>
        <time>2020-07-16T12:54:53.547Z</time>
      </trkpt>
      <trkpt lat="46.48193" lon="8.25034">
        <ele>1512</ele>
        <time>2020-07-16T12:54:54.548Z</time>
      </trkpt>
      <trkpt lat="46.48193" lon="8.25034">
        <ele>1513</ele>
        <time>2020-07-16T12:54:55.548Z</time>
      </trkpt>
      <trkpt lat="46.48193" lon="8.25034">
        <ele>1513</ele>
        <time>2020-07-16T12:54:56.548Z</time>
      </trkpt>
      <trkpt lat="46.48193" lon="8.25034">
        <ele>1512</ele>
        <time>2020-07-16T12:54:57.548Z</time>
      </trkpt>
      <trkpt lat="46.48194" lon="8.25035">
        <ele>1512</ele>
        <time>2020-07-16T12:54:58.550Z</time>
      </trkpt>
      <trkpt lat="46.48195" lon="8.25034">
        <ele>1511</ele>
        <time>2020-07-16T12:54:59.550Z</time>
      </trkpt>
      <trkpt lat="46.48196" lon="8.25034">
        <ele>1511</ele>
        <time>2020-07-16T12:55:00.549Z</time>
      </trkpt>
      <trkpt lat="46.48197" lon="8.25034">
        <ele>1511</ele>
        <time>2020-07-16T12:55:01.550Z</time>
      </trkpt>
      <trkpt lat="46.48198" lon="8.25035">
        <ele>1511</ele>
        <time>2020-07-16T12:55:02.550Z</time>
      </trkpt>
      <trkpt lat="46.48199" lon="8.25036">
        <ele>1511</ele>
        <time>2020-07-16T12:55:03.550Z</time>
      </trkpt>
      <trkpt lat="46.482" lon="8.25036">
        <ele>1511</ele>
        <time>2020-07-16T12:55:04.549Z</time>
      </trkpt>
      <trkpt lat="46.48201" lon="8.25037">
        <ele>1511</ele>
        <time>2020-07-16T12:55:05.549Z</time>
      </trkpt>
      <trkpt lat="46.48202" lon="8.25037">
        <ele>1511</ele>
        <time>2020-07-16T12:55:06.549Z</time>
      </trkpt>
      <trkpt lat="46.48202" lon="8.25038">
        <ele>1511</ele>
        <time>2020-07-16T12:55:07.550Z</time>
      </trkpt>
      <trkpt lat="46.48203" lon="8.25039">
        <ele>1511</ele>
        <time>2020-07-16T12:55:08.549Z</time>
      </trkpt>
      <trkpt lat="46.48203" lon="8.25039">
        <ele>1511</ele>
        <time>2020-07-16T12:55:09.550Z</time>
      </trkpt>
      <trkpt lat="46.48204" lon="8.2504">
        <ele>1511</ele>
        <time>2020-07-16T12:55:10.550Z</time>
      </trkpt>
      <trkpt lat="46.48204" lon="8.25042">
        <ele>1511</ele>
        <time>2020-07-16T12:55:11.550Z</time>
      </trkpt>
      <trkpt lat="46.48205" lon="8.25043">
        <ele>1511</ele>
        <time>2020-07-16T12:55:12.550Z</time>
      </trkpt>
      <trkpt lat="46.48205" lon="8.25045">
        <ele>1511</ele>
        <time>2020-07-16T12:55:13.550Z</time>
      </trkpt>
      <trkpt lat="46.48206" lon="8.25046">
        <ele>1511</ele>
        <time>2020-07-16T12:55:14.549Z</time>
      </trkpt>
      <trkpt lat="46.48206" lon="8.25047">
        <ele>1511</ele>
        <time>2020-07-16T12:55:15.550Z</time>
      </trkpt>
      <trkpt lat="46.48207" lon="8.25048">
        <ele>1511</ele>
        <time>2020-07-16T12:55:16.550Z</time>
      </trkpt>
      <trkpt lat="46.48208" lon="8.25049">
        <ele>1510</ele>
        <time>2020-07-16T12:55:17.550Z</time>
      </trkpt>
      <trkpt lat="46.48208" lon="8.25049">
        <ele>1510</ele>
        <time>2020-07-16T12:55:18.550Z</time>
      </trkpt>
      <trkpt lat="46.48208" lon="8.25049">
        <ele>1510</ele>
        <time>2020-07-16T12:55:19.550Z</time>
      </trkpt>
      <trkpt lat="46.48208" lon="8.2505">
        <ele>1510</ele>
        <time>2020-07-16T12:55:20.549Z</time>
      </trkpt>
      <trkpt lat="46.48209" lon="8.25052">
        <ele>1510</ele>
        <time>2020-07-16T12:55:21.549Z</time>
      </trkpt>
      <trkpt lat="46.48209" lon="8.25053">
        <ele>1510</ele>
        <time>2020-07-16T12:55:22.550Z</time>
      </trkpt>
      <trkpt lat="46.4821" lon="8.25054">
        <ele>1511</ele>
        <time>2020-07-16T12:55:23.550Z</time>
      </trkpt>
      <trkpt lat="46.48211" lon="8.25054">
        <ele>1511</ele>
        <time>2020-07-16T12:55:24.549Z</time>
      </trkpt>
      <trkpt lat="46.48212" lon="8.25055">
        <ele>1511</ele>
        <time>2020-07-16T12:55:25.550Z</time>
      </trkpt>
      <trkpt lat="46.48213" lon="8.25054">
        <ele>1511</ele>
        <time>2020-07-16T12:55:26.550Z</time>
      </trkpt>
      <trkpt lat="46.48213" lon="8.25055">
        <ele>1510</ele>
        <time>2020-07-16T12:55:27.550Z</time>
      </trkpt>
      <trkpt lat="46.48214" lon="8.25054">
        <ele>1510</ele>
        <time>2020-07-16T12:55:28.549Z</time>
      </trkpt>
      <trkpt lat="46.48215" lon="8.25055">
        <ele>1510</ele>
        <time>2020-07-16T12:55:29.550Z</time>
      </trkpt>
      <trkpt lat="46.48216" lon="8.25056">
        <ele>1510</ele>
        <time>2020-07-16T12:55:30.550Z</time>
      </trkpt>
      <trkpt lat="46.48217" lon="8.25056">
        <ele>1510</ele>
        <time>2020-07-16T12:55:31.550Z</time>
      </trkpt>
      <trkpt lat="46.48217" lon="8.25055">
        <ele>1510</ele>
        <time>2020-07-16T12:55:32.549Z</time>
      </trkpt>
      <trkpt lat="46.48218" lon="8.25056">
        <ele>1510</ele>
        <time>2020-07-16T12:55:33.550Z</time>
      </trkpt>
      <trkpt lat="46.48219" lon="8.25056">
        <ele>1511</ele>
        <time>2020-07-16T12:55:34.550Z</time>
      </trkpt>
      <trkpt lat="46.4822" lon="8.25056">
        <ele>1511</ele>
        <time>2020-07-16T12:55:35.550Z</time>
      </trkpt>
      <trkpt lat="46.48221" lon="8.25056">
        <ele>1512</ele>
        <time>2020-07-16T12:55:36.549Z</time>
      </trkpt>
      <trkpt lat="46.48221" lon="8.25056">
        <ele>1513</ele>
        <time>2020-07-16T12:55:37.550Z</time>
      </trkpt>
      <trkpt lat="46.48222" lon="8.25055">
        <ele>1514</ele>
        <time>2020-07-16T12:55:38.550Z</time>
      </trkpt>
      <trkpt lat="46.48223" lon="8.25056">
        <ele>1514</ele>
        <time>2020-07-16T12:55:39.550Z</time>
      </trkpt>
      <trkpt lat="46.48224" lon="8.25055">
        <ele>1515</ele>
        <time>2020-07-16T12:55:40.550Z</time>
      </trkpt>
      <trkpt lat="46.48225" lon="8.25055">
        <ele>1515</ele>
        <time>2020-07-16T12:55:41.549Z</time>
      </trkpt>
      <trkpt lat="46.48226" lon="8.25055">
        <ele>1516</ele>
        <time>2020-07-16T12:55:42.550Z</time>
      </trkpt>
      <trkpt lat="46.48226" lon="8.25055">
        <ele>1517</ele>
        <time>2020-07-16T12:55:43.550Z</time>
      </trkpt>
      <trkpt lat="46.48227" lon="8.25055">
        <ele>1517</ele>
        <time>2020-07-16T12:55:44.549Z</time>
      </trkpt>
      <trkpt lat="46.48229" lon="8.25055">
        <ele>1518</ele>
        <time>2020-07-16T12:55:45.550Z</time>
      </trkpt>
      <trkpt lat="46.4823" lon="8.25055">
        <ele>1519</ele>
        <time>2020-07-16T12:55:46.549Z</time>
      </trkpt>
      <trkpt lat="46.4823" lon="8.25055">
        <ele>1520</ele>
        <time>2020-07-16T12:55:47.550Z</time>
      </trkpt>
      <trkpt lat="46.48231" lon="8.25055">
        <ele>1520</ele>
        <time>2020-07-16T12:55:48.550Z</time>
      </trkpt>
      <trkpt lat="46.48232" lon="8.25055">
        <ele>1521</ele>
        <time>2020-07-16T12:55:49.549Z</time>
      </trkpt>
      <trkpt lat="46.48233" lon="8.25056">
        <ele>1521</ele>
        <time>2020-07-16T12:55:50.549Z</time>
      </trkpt>
      <trkpt lat="46.48233" lon="8.25056">
        <ele>1521</ele>
        <time>2020-07-16T12:55:51.550Z</time>
      </trkpt>
      <trkpt lat="46.48234" lon="8.25057">
        <ele>1522</ele>
        <time>2020-07-16T12:55:52.550Z</time>
      </trkpt>
      <trkpt lat="46.48235" lon="8.25057">
        <ele>1522</ele>
        <time>2020-07-16T12:55:53.550Z</time>
      </trkpt>
      <trkpt lat="46.48236" lon="8.25057">
        <ele>1522</ele>
        <time>2020-07-16T12:55:54.550Z</time>
      </trkpt>
      <trkpt lat="46.48237" lon="8.25057">
        <ele>1523</ele>
        <time>2020-07-16T12:55:55.549Z</time>
      </trkpt>
      <trkpt lat="46.48237" lon="8.25058">
        <ele>1523</ele>
        <time>2020-07-16T12:55:56.550Z</time>
      </trkpt>
      <trkpt lat="46.48238" lon="8.25059">
        <ele>1523</ele>
        <time>2020-07-16T12:55:57.550Z</time>
      </trkpt>
      <trkpt lat="46.48239" lon="8.25059">
        <ele>1524</ele>
        <time>2020-07-16T12:55:58.550Z</time>
      </trkpt>
      <trkpt lat="46.48239" lon="8.2506">
        <ele>1524</ele>
        <time>2020-07-16T12:55:59.550Z</time>
      </trkpt>
      <trkpt lat="46.4824" lon="8.2506">
        <ele>1524</ele>
        <time>2020-07-16T12:56:00.550Z</time>
      </trkpt>
      <trkpt lat="46.48241" lon="8.2506">
        <ele>1524</ele>
        <time>2020-07-16T12:56:01.550Z</time>
      </trkpt>
      <trkpt lat="46.48241" lon="8.25061">
        <ele>1524</ele>
        <time>2020-07-16T12:56:02.550Z</time>
      </trkpt>
      <trkpt lat="46.48242" lon="8.25061">
        <ele>1524</ele>
        <time>2020-07-16T12:56:03.549Z</time>
      </trkpt>
      <trkpt lat="46.48242" lon="8.25061">
        <ele>1524</ele>
        <time>2020-07-16T12:56:04.550Z</time>
      </trkpt>
      <trkpt lat="46.48243" lon="8.25062">
        <ele>1524</ele>
        <time>2020-07-16T12:56:05.550Z</time>
      </trkpt>
      <trkpt lat="46.48243" lon="8.25062">
        <ele>1524</ele>
        <time>2020-07-16T12:56:06.550Z</time>
      </trkpt>
      <trkpt lat="46.48243" lon="8.25062">
        <ele>1523</ele>
        <time>2020-07-16T12:56:07.549Z</time>
      </trkpt>
      <trkpt lat="46.48244" lon="8.25062">
        <ele>1522</ele>
        <time>2020-07-16T12:56:08.550Z</time>
      </trkpt>
      <trkpt lat="46.48244" lon="8.25062">
        <ele>1522</ele>
        <time>2020-07-16T12:56:09.550Z</time>
      </trkpt>
      <trkpt lat="46.48245" lon="8.25063">
        <ele>1523</ele>
        <time>2020-07-16T12:56:10.550Z</time>
      </trkpt>
      <trkpt lat="46.48246" lon="8.25063">
        <ele>1523</ele>
        <time>2020-07-16T12:56:11.550Z</time>
      </trkpt>
      <trkpt lat="46.48246" lon="8.25064">
        <ele>1523</ele>
        <time>2020-07-16T12:56:12.550Z</time>
      </trkpt>
      <trkpt lat="46.48247" lon="8.25065">
        <ele>1523</ele>
        <time>2020-07-16T12:56:13.550Z</time>
      </trkpt>
      <trkpt lat="46.48247" lon="8.25065">
        <ele>1523</ele>
        <time>2020-07-16T12:56:14.550Z</time>
      </trkpt>
      <trkpt lat="46.48248" lon="8.25066">
        <ele>1522</ele>
        <time>2020-07-16T12:56:15.550Z</time>
      </trkpt>
      <trkpt lat="46.48248" lon="8.25066">
        <ele>1522</ele>
        <time>2020-07-16T12:56:16.550Z</time>
      </trkpt>
      <trkpt lat="46.48249" lon="8.25067">
        <ele>1522</ele>
        <time>2020-07-16T12:56:17.549Z</time>
      </trkpt>
      <trkpt lat="46.4825" lon="8.25068">
        <ele>1522</ele>
        <time>2020-07-16T12:56:18.550Z</time>
      </trkpt>
      <trkpt lat="46.48251" lon="8.25068">
        <ele>1522</ele>
        <time>2020-07-16T12:56:19.550Z</time>
      </trkpt>
      <trkpt lat="46.48251" lon="8.25069">
        <ele>1522</ele>
        <time>2020-07-16T12:56:20.550Z</time>
      </trkpt>
      <trkpt lat="46.48252" lon="8.25069">
        <ele>1522</ele>
        <time>2020-07-16T12:56:21.550Z</time>
      </trkpt>
      <trkpt lat="46.48252" lon="8.2507">
        <ele>1523</ele>
        <time>2020-07-16T12:56:22.549Z</time>
      </trkpt>
      <trkpt lat="46.48252" lon="8.25071">
        <ele>1523</ele>
        <time>2020-07-16T12:56:23.550Z</time>
      </trkpt>
      <trkpt lat="46.48253" lon="8.25072">
        <ele>1524</ele>
        <time>2020-07-16T12:56:24.550Z</time>
      </trkpt>
      <trkpt lat="46.48253" lon="8.25072">
        <ele>1525</ele>
        <time>2020-07-16T12:56:25.550Z</time>
      </trkpt>
      <trkpt lat="46.48254" lon="8.25073">
        <ele>1525</ele>
        <time>2020-07-16T12:56:26.549Z</time>
      </trkpt>
      <trkpt lat="46.48254" lon="8.25073">
        <ele>1525</ele>
        <time>2020-07-16T12:56:27.550Z</time>
      </trkpt>
      <trkpt lat="46.48255" lon="8.25072">
        <ele>1526</ele>
        <time>2020-07-16T12:56:28.550Z</time>
      </trkpt>
      <trkpt lat="46.48255" lon="8.25072">
        <ele>1527</ele>
        <time>2020-07-16T12:56:29.550Z</time>
      </trkpt>
      <trkpt lat="46.48255" lon="8.25072">
        <ele>1528</ele>
        <time>2020-07-16T12:56:30.550Z</time>
      </trkpt>
      <trkpt lat="46.48255" lon="8.25072">
        <ele>1529</ele>
        <time>2020-07-16T12:56:31.549Z</time>
      </trkpt>
      <trkpt lat="46.48256" lon="8.25072">
        <ele>1532</ele>
        <time>2020-07-16T12:56:32.550Z</time>
      </trkpt>
      <trkpt lat="46.48257" lon="8.25072">
        <ele>1532</ele>
        <time>2020-07-16T12:56:33.549Z</time>
      </trkpt>
      <trkpt lat="46.48258" lon="8.2507">
        <ele>1530</ele>
        <time>2020-07-16T12:56:34.552Z</time>
      </trkpt>
      <trkpt lat="46.48257" lon="8.25069">
        <ele>1530</ele>
        <time>2020-07-16T12:56:35.552Z</time>
      </trkpt>
      <trkpt lat="46.48257" lon="8.25067">
        <ele>1530</ele>
        <time>2020-07-16T12:56:36.551Z</time>
      </trkpt>
      <trkpt lat="46.48256" lon="8.25066">
        <ele>1529</ele>
        <time>2020-07-16T12:56:37.552Z</time>
      </trkpt>
      <trkpt lat="46.48256" lon="8.25065">
        <ele>1528</ele>
        <time>2020-07-16T12:56:38.552Z</time>
      </trkpt>
      <trkpt lat="46.48255" lon="8.25064">
        <ele>1527</ele>
        <time>2020-07-16T12:56:39.551Z</time>
      </trkpt>
      <trkpt lat="46.48255" lon="8.25064">
        <ele>1527</ele>
        <time>2020-07-16T12:56:40.552Z</time>
      </trkpt>
      <trkpt lat="46.48254" lon="8.25063">
        <ele>1526</ele>
        <time>2020-07-16T12:56:41.552Z</time>
      </trkpt>
      <trkpt lat="46.48254" lon="8.25061">
        <ele>1526</ele>
        <time>2020-07-16T12:56:42.552Z</time>
      </trkpt>
      <trkpt lat="46.48253" lon="8.2506">
        <ele>1526</ele>
        <time>2020-07-16T12:56:43.551Z</time>
      </trkpt>
      <trkpt lat="46.48253" lon="8.25059">
        <ele>1526</ele>
        <time>2020-07-16T12:56:44.552Z</time>
      </trkpt>
      <trkpt lat="46.48252" lon="8.25057">
        <ele>1527</ele>
        <time>2020-07-16T12:56:45.551Z</time>
      </trkpt>
      <trkpt lat="46.48252" lon="8.25055">
        <ele>1527</ele>
        <time>2020-07-16T12:56:46.551Z</time>
      </trkpt>
      <trkpt lat="46.48252" lon="8.25053">
        <ele>1527</ele>
        <time>2020-07-16T12:56:47.552Z</time>
      </trkpt>
      <trkpt lat="46.48252" lon="8.25052">
        <ele>1527</ele>
        <time>2020-07-16T12:56:48.551Z</time>
      </trkpt>
      <trkpt lat="46.48251" lon="8.2505">
        <ele>1527</ele>
        <time>2020-07-16T12:56:49.551Z</time>
      </trkpt>
      <trkpt lat="46.48251" lon="8.25049">
        <ele>1527</ele>
        <time>2020-07-16T12:56:50.551Z</time>
      </trkpt>
      <trkpt lat="46.4825" lon="8.25049">
        <ele>1527</ele>
        <time>2020-07-16T12:56:51.552Z</time>
      </trkpt>
      <trkpt lat="46.4825" lon="8.25049">
        <ele>1527</ele>
        <time>2020-07-16T12:56:52.551Z</time>
      </trkpt>
      <trkpt lat="46.4825" lon="8.25049">
        <ele>1527</ele>
        <time>2020-07-16T12:56:53.552Z</time>
      </trkpt>
      <trkpt lat="46.4825" lon="8.25046">
        <ele>1524</ele>
        <time>2020-07-16T12:56:54.551Z</time>
      </trkpt>
      <trkpt lat="46.4825" lon="8.25046">
        <ele>1524</ele>
        <time>2020-07-16T12:56:55.552Z</time>
      </trkpt>
      <trkpt lat="46.4825" lon="8.25045">
        <ele>1524</ele>
        <time>2020-07-16T12:56:56.551Z</time>
      </trkpt>
      <trkpt lat="46.48249" lon="8.25044">
        <ele>1524</ele>
        <time>2020-07-16T12:56:57.552Z</time>
      </trkpt>
      <trkpt lat="46.48249" lon="8.25042">
        <ele>1524</ele>
        <time>2020-07-16T12:56:58.552Z</time>
      </trkpt>
      <trkpt lat="46.48248" lon="8.25041">
        <ele>1524</ele>
        <time>2020-07-16T12:56:59.551Z</time>
      </trkpt>
      <trkpt lat="46.48248" lon="8.25039">
        <ele>1525</ele>
        <time>2020-07-16T12:57:00.551Z</time>
      </trkpt>
      <trkpt lat="46.48248" lon="8.25038">
        <ele>1525</ele>
        <time>2020-07-16T12:57:01.551Z</time>
      </trkpt>
      <trkpt lat="46.48247" lon="8.25037">
        <ele>1526</ele>
        <time>2020-07-16T12:57:02.552Z</time>
      </trkpt>
      <trkpt lat="46.48247" lon="8.25036">
        <ele>1526</ele>
        <time>2020-07-16T12:57:03.551Z</time>
      </trkpt>
      <trkpt lat="46.48247" lon="8.25035">
        <ele>1526</ele>
        <time>2020-07-16T12:57:04.552Z</time>
      </trkpt>
      <trkpt lat="46.48247" lon="8.25035">
        <ele>1527</ele>
        <time>2020-07-16T12:57:05.552Z</time>
      </trkpt>
      <trkpt lat="46.48247" lon="8.25033">
        <ele>1526</ele>
        <time>2020-07-16T12:57:06.551Z</time>
      </trkpt>
      <trkpt lat="46.48247" lon="8.25032">
        <ele>1526</ele>
        <time>2020-07-16T12:57:07.552Z</time>
      </trkpt>
      <trkpt lat="46.48247" lon="8.25032">
        <ele>1525</ele>
        <time>2020-07-16T12:57:08.552Z</time>
      </trkpt>
      <trkpt lat="46.48246" lon="8.25032">
        <ele>1525</ele>
        <time>2020-07-16T12:57:09.552Z</time>
      </trkpt>
      <trkpt lat="46.48242" lon="8.25033">
        <ele>1524</ele>
        <time>2020-07-16T12:57:10.551Z</time>
      </trkpt>
      <trkpt lat="46.48242" lon="8.25032">
        <ele>1524</ele>
        <time>2020-07-16T12:57:11.552Z</time>
      </trkpt>
      <trkpt lat="46.48242" lon="8.2503">
        <ele>1525</ele>
        <time>2020-07-16T12:57:12.552Z</time>
      </trkpt>
      <trkpt lat="46.48241" lon="8.2503">
        <ele>1525</ele>
        <time>2020-07-16T12:57:13.552Z</time>
      </trkpt>
      <trkpt lat="46.48241" lon="8.25029">
        <ele>1525</ele>
        <time>2020-07-16T12:57:14.551Z</time>
      </trkpt>
      <trkpt lat="46.48241" lon="8.25028">
        <ele>1526</ele>
        <time>2020-07-16T12:57:15.552Z</time>
      </trkpt>
      <trkpt lat="46.48241" lon="8.25028">
        <ele>1526</ele>
        <time>2020-07-16T12:57:16.552Z</time>
      </trkpt>
      <trkpt lat="46.4824" lon="8.25027">
        <ele>1527</ele>
        <time>2020-07-16T12:57:17.552Z</time>
      </trkpt>
      <trkpt lat="46.4824" lon="8.25027">
        <ele>1527</ele>
        <time>2020-07-16T12:57:18.552Z</time>
      </trkpt>
      <trkpt lat="46.4824" lon="8.25026">
        <ele>1528</ele>
        <time>2020-07-16T12:57:19.551Z</time>
      </trkpt>
      <trkpt lat="46.4824" lon="8.25026">
        <ele>1529</ele>
        <time>2020-07-16T12:57:20.552Z</time>
      </trkpt>
      <trkpt lat="46.4824" lon="8.25025">
        <ele>1529</ele>
        <time>2020-07-16T12:57:21.551Z</time>
      </trkpt>
      <trkpt lat="46.4824" lon="8.25024">
        <ele>1530</ele>
        <time>2020-07-16T12:57:22.552Z</time>
      </trkpt>
      <trkpt lat="46.48239" lon="8.25023">
        <ele>1530</ele>
        <time>2020-07-16T12:57:23.552Z</time>
      </trkpt>
      <trkpt lat="46.48239" lon="8.25022">
        <ele>1531</ele>
        <time>2020-07-16T12:57:24.552Z</time>
      </trkpt>
      <trkpt lat="46.48239" lon="8.25019">
        <ele>1532</ele>
        <time>2020-07-16T12:57:25.552Z</time>
      </trkpt>
      <trkpt lat="46.48238" lon="8.25018">
        <ele>1532</ele>
        <time>2020-07-16T12:57:26.552Z</time>
      </trkpt>
      <trkpt lat="46.48238" lon="8.25017">
        <ele>1533</ele>
        <time>2020-07-16T12:57:27.552Z</time>
      </trkpt>
      <trkpt lat="46.48239" lon="8.25016">
        <ele>1534</ele>
        <time>2020-07-16T12:57:28.551Z</time>
      </trkpt>
      <trkpt lat="46.48238" lon="8.25015">
        <ele>1534</ele>
        <time>2020-07-16T12:57:29.551Z</time>
      </trkpt>
      <trkpt lat="46.48237" lon="8.25014">
        <ele>1535</ele>
        <time>2020-07-16T12:57:30.552Z</time>
      </trkpt>
      <trkpt lat="46.48237" lon="8.25013">
        <ele>1535</ele>
        <time>2020-07-16T12:57:31.552Z</time>
      </trkpt>
      <trkpt lat="46.48237" lon="8.25011">
        <ele>1535</ele>
        <time>2020-07-16T12:57:32.552Z</time>
      </trkpt>
      <trkpt lat="46.48237" lon="8.2501">
        <ele>1535</ele>
        <time>2020-07-16T12:57:33.552Z</time>
      </trkpt>
      <trkpt lat="46.48237" lon="8.25009">
        <ele>1535</ele>
        <time>2020-07-16T12:57:34.552Z</time>
      </trkpt>
      <trkpt lat="46.48236" lon="8.25009">
        <ele>1535</ele>
        <time>2020-07-16T12:57:35.552Z</time>
      </trkpt>
      <trkpt lat="46.48236" lon="8.25008">
        <ele>1535</ele>
        <time>2020-07-16T12:57:36.552Z</time>
      </trkpt>
      <trkpt lat="46.48236" lon="8.25007">
        <ele>1535</ele>
        <time>2020-07-16T12:57:37.552Z</time>
      </trkpt>
      <trkpt lat="46.48235" lon="8.25006">
        <ele>1535</ele>
        <time>2020-07-16T12:57:38.552Z</time>
      </trkpt>
      <trkpt lat="46.48235" lon="8.25005">
        <ele>1535</ele>
        <time>2020-07-16T12:57:39.552Z</time>
      </trkpt>
      <trkpt lat="46.48234" lon="8.25005">
        <ele>1536</ele>
        <time>2020-07-16T12:57:40.552Z</time>
      </trkpt>
      <trkpt lat="46.48233" lon="8.25004">
        <ele>1536</ele>
        <time>2020-07-16T12:57:41.552Z</time>
      </trkpt>
      <trkpt lat="46.48233" lon="8.25004">
        <ele>1536</ele>
        <time>2020-07-16T12:57:42.552Z</time>
      </trkpt>
      <trkpt lat="46.48233" lon="8.25003">
        <ele>1536</ele>
        <time>2020-07-16T12:57:43.552Z</time>
      </trkpt>
      <trkpt lat="46.48233" lon="8.25001">
        <ele>1536</ele>
        <time>2020-07-16T12:57:44.552Z</time>
      </trkpt>
      <trkpt lat="46.48233" lon="8.25001">
        <ele>1537</ele>
        <time>2020-07-16T12:57:45.552Z</time>
      </trkpt>
      <trkpt lat="46.48233" lon="8.25">
        <ele>1538</ele>
        <time>2020-07-16T12:57:46.552Z</time>
      </trkpt>
      <trkpt lat="46.48233" lon="8.24999">
        <ele>1538</ele>
        <time>2020-07-16T12:57:47.551Z</time>
      </trkpt>
      <trkpt lat="46.48232" lon="8.24998">
        <ele>1539</ele>
        <time>2020-07-16T12:57:48.552Z</time>
      </trkpt>
      <trkpt lat="46.48232" lon="8.24997">
        <ele>1539</ele>
        <time>2020-07-16T12:57:49.552Z</time>
      </trkpt>
      <trkpt lat="46.48232" lon="8.24997">
        <ele>1539</ele>
        <time>2020-07-16T12:57:50.552Z</time>
      </trkpt>
      <trkpt lat="46.48231" lon="8.24996">
        <ele>1539</ele>
        <time>2020-07-16T12:57:51.551Z</time>
      </trkpt>
      <trkpt lat="46.4823" lon="8.24995">
        <ele>1539</ele>
        <time>2020-07-16T12:57:52.551Z</time>
      </trkpt>
      <trkpt lat="46.4823" lon="8.24994">
        <ele>1538</ele>
        <time>2020-07-16T12:57:53.552Z</time>
      </trkpt>
      <trkpt lat="46.48229" lon="8.24993">
        <ele>1538</ele>
        <time>2020-07-16T12:57:54.551Z</time>
      </trkpt>
      <trkpt lat="46.48229" lon="8.24992">
        <ele>1538</ele>
        <time>2020-07-16T12:57:55.551Z</time>
      </trkpt>
      <trkpt lat="46.48229" lon="8.24992">
        <ele>1538</ele>
        <time>2020-07-16T12:57:56.552Z</time>
      </trkpt>
      <trkpt lat="46.48229" lon="8.24991">
        <ele>1537</ele>
        <time>2020-07-16T12:57:57.551Z</time>
      </trkpt>
      <trkpt lat="46.48229" lon="8.2499">
        <ele>1537</ele>
        <time>2020-07-16T12:57:58.552Z</time>
      </trkpt>
      <trkpt lat="46.48228" lon="8.24989">
        <ele>1536</ele>
        <time>2020-07-16T12:57:59.551Z</time>
      </trkpt>
      <trkpt lat="46.48228" lon="8.24988">
        <ele>1536</ele>
        <time>2020-07-16T12:58:00.552Z</time>
      </trkpt>
      <trkpt lat="46.48227" lon="8.24987">
        <ele>1537</ele>
        <time>2020-07-16T12:58:01.552Z</time>
      </trkpt>
      <trkpt lat="46.48226" lon="8.24986">
        <ele>1537</ele>
        <time>2020-07-16T12:58:02.552Z</time>
      </trkpt>
      <trkpt lat="46.48226" lon="8.24985">
        <ele>1538</ele>
        <time>2020-07-16T12:58:03.552Z</time>
      </trkpt>
      <trkpt lat="46.48225" lon="8.24985">
        <ele>1538</ele>
        <time>2020-07-16T12:58:04.551Z</time>
      </trkpt>
      <trkpt lat="46.48224" lon="8.24984">
        <ele>1539</ele>
        <time>2020-07-16T12:58:05.551Z</time>
      </trkpt>
      <trkpt lat="46.48224" lon="8.24984">
        <ele>1540</ele>
        <time>2020-07-16T12:58:06.552Z</time>
      </trkpt>
      <trkpt lat="46.48222" lon="8.24983">
        <ele>1541</ele>
        <time>2020-07-16T12:58:07.552Z</time>
      </trkpt>
      <trkpt lat="46.48221" lon="8.24982">
        <ele>1542</ele>
        <time>2020-07-16T12:58:08.551Z</time>
      </trkpt>
      <trkpt lat="46.4822" lon="8.24982">
        <ele>1543</ele>
        <time>2020-07-16T12:58:09.552Z</time>
      </trkpt>
      <trkpt lat="46.48218" lon="8.24981">
        <ele>1544</ele>
        <time>2020-07-16T12:58:10.552Z</time>
      </trkpt>
      <trkpt lat="46.48218" lon="8.2498">
        <ele>1544</ele>
        <time>2020-07-16T12:58:11.551Z</time>
      </trkpt>
      <trkpt lat="46.48217" lon="8.24979">
        <ele>1545</ele>
        <time>2020-07-16T12:58:12.551Z</time>
      </trkpt>
      <trkpt lat="46.48216" lon="8.24978">
        <ele>1545</ele>
        <time>2020-07-16T12:58:13.552Z</time>
      </trkpt>
      <trkpt lat="46.48215" lon="8.24977">
        <ele>1545</ele>
        <time>2020-07-16T12:58:14.552Z</time>
      </trkpt>
      <trkpt lat="46.48215" lon="8.24976">
        <ele>1546</ele>
        <time>2020-07-16T12:58:15.551Z</time>
      </trkpt>
      <trkpt lat="46.48214" lon="8.24975">
        <ele>1546</ele>
        <time>2020-07-16T12:58:16.552Z</time>
      </trkpt>
      <trkpt lat="46.48213" lon="8.24974">
        <ele>1547</ele>
        <time>2020-07-16T12:58:17.551Z</time>
      </trkpt>
      <trkpt lat="46.48213" lon="8.24973">
        <ele>1547</ele>
        <time>2020-07-16T12:58:18.552Z</time>
      </trkpt>
      <trkpt lat="46.48212" lon="8.24973">
        <ele>1548</ele>
        <time>2020-07-16T12:58:19.552Z</time>
      </trkpt>
      <trkpt lat="46.48211" lon="8.24972">
        <ele>1549</ele>
        <time>2020-07-16T12:58:20.551Z</time>
      </trkpt>
      <trkpt lat="46.4821" lon="8.24971">
        <ele>1549</ele>
        <time>2020-07-16T12:58:21.552Z</time>
      </trkpt>
      <trkpt lat="46.4821" lon="8.24971">
        <ele>1549</ele>
        <time>2020-07-16T12:58:22.552Z</time>
      </trkpt>
      <trkpt lat="46.48209" lon="8.2497">
        <ele>1550</ele>
        <time>2020-07-16T12:58:23.552Z</time>
      </trkpt>
      <trkpt lat="46.48208" lon="8.2497">
        <ele>1550</ele>
        <time>2020-07-16T12:58:24.552Z</time>
      </trkpt>
      <trkpt lat="46.48208" lon="8.24969">
        <ele>1551</ele>
        <time>2020-07-16T12:58:25.552Z</time>
      </trkpt>
      <trkpt lat="46.48207" lon="8.24969">
        <ele>1551</ele>
        <time>2020-07-16T12:58:26.552Z</time>
      </trkpt>
      <trkpt lat="46.48206" lon="8.24968">
        <ele>1551</ele>
        <time>2020-07-16T12:58:27.552Z</time>
      </trkpt>
      <trkpt lat="46.48205" lon="8.24968">
        <ele>1551</ele>
        <time>2020-07-16T12:58:28.552Z</time>
      </trkpt>
      <trkpt lat="46.48204" lon="8.24967">
        <ele>1551</ele>
        <time>2020-07-16T12:58:29.552Z</time>
      </trkpt>
      <trkpt lat="46.48203" lon="8.24967">
        <ele>1551</ele>
        <time>2020-07-16T12:58:30.552Z</time>
      </trkpt>
      <trkpt lat="46.48203" lon="8.24967">
        <ele>1550</ele>
        <time>2020-07-16T12:58:31.552Z</time>
      </trkpt>
      <trkpt lat="46.48201" lon="8.24966">
        <ele>1550</ele>
        <time>2020-07-16T12:58:32.551Z</time>
      </trkpt>
      <trkpt lat="46.482" lon="8.24965">
        <ele>1550</ele>
        <time>2020-07-16T12:58:33.552Z</time>
      </trkpt>
      <trkpt lat="46.48199" lon="8.24964">
        <ele>1550</ele>
        <time>2020-07-16T12:58:34.551Z</time>
      </trkpt>
      <trkpt lat="46.48198" lon="8.24963">
        <ele>1550</ele>
        <time>2020-07-16T12:58:35.551Z</time>
      </trkpt>
      <trkpt lat="46.48198" lon="8.24962">
        <ele>1550</ele>
        <time>2020-07-16T12:58:36.552Z</time>
      </trkpt>
      <trkpt lat="46.48197" lon="8.24962">
        <ele>1550</ele>
        <time>2020-07-16T12:58:37.552Z</time>
      </trkpt>
      <trkpt lat="46.48196" lon="8.24961">
        <ele>1550</ele>
        <time>2020-07-16T12:58:38.551Z</time>
      </trkpt>
      <trkpt lat="46.48196" lon="8.24961">
        <ele>1549</ele>
        <time>2020-07-16T12:58:39.552Z</time>
      </trkpt>
      <trkpt lat="46.48196" lon="8.24961">
        <ele>1549</ele>
        <time>2020-07-16T12:58:40.552Z</time>
      </trkpt>
      <trkpt lat="46.48195" lon="8.24961">
        <ele>1549</ele>
        <time>2020-07-16T12:58:41.552Z</time>
      </trkpt>
      <trkpt lat="46.48195" lon="8.2496">
        <ele>1548</ele>
        <time>2020-07-16T12:58:42.552Z</time>
      </trkpt>
      <trkpt lat="46.48194" lon="8.2496">
        <ele>1548</ele>
        <time>2020-07-16T12:58:43.552Z</time>
      </trkpt>
      <trkpt lat="46.48193" lon="8.24959">
        <ele>1547</ele>
        <time>2020-07-16T12:58:44.552Z</time>
      </trkpt>
      <trkpt lat="46.48192" lon="8.24958">
        <ele>1547</ele>
        <time>2020-07-16T12:58:45.552Z</time>
      </trkpt>
      <trkpt lat="46.48192" lon="8.24956">
        <ele>1547</ele>
        <time>2020-07-16T12:58:46.552Z</time>
      </trkpt>
      <trkpt lat="46.4819" lon="8.24955">
        <ele>1547</ele>
        <time>2020-07-16T12:58:47.552Z</time>
      </trkpt>
      <trkpt lat="46.4819" lon="8.24954">
        <ele>1547</ele>
        <time>2020-07-16T12:58:48.552Z</time>
      </trkpt>
      <trkpt lat="46.48189" lon="8.24953">
        <ele>1547</ele>
        <time>2020-07-16T12:58:49.552Z</time>
      </trkpt>
      <trkpt lat="46.48189" lon="8.24952">
        <ele>1547</ele>
        <time>2020-07-16T12:58:50.552Z</time>
      </trkpt>
      <trkpt lat="46.48189" lon="8.24951">
        <ele>1546</ele>
        <time>2020-07-16T12:58:51.552Z</time>
      </trkpt>
      <trkpt lat="46.48188" lon="8.24951">
        <ele>1546</ele>
        <time>2020-07-16T12:58:52.552Z</time>
      </trkpt>
      <trkpt lat="46.48187" lon="8.2495">
        <ele>1545</ele>
        <time>2020-07-16T12:58:53.552Z</time>
      </trkpt>
      <trkpt lat="46.48187" lon="8.2495">
        <ele>1545</ele>
        <time>2020-07-16T12:58:54.552Z</time>
      </trkpt>
      <trkpt lat="46.48186" lon="8.24949">
        <ele>1544</ele>
        <time>2020-07-16T12:58:55.552Z</time>
      </trkpt>
      <trkpt lat="46.48185" lon="8.24949">
        <ele>1543</ele>
        <time>2020-07-16T12:58:56.552Z</time>
      </trkpt>
      <trkpt lat="46.48184" lon="8.24948">
        <ele>1543</ele>
        <time>2020-07-16T12:58:57.552Z</time>
      </trkpt>
      <trkpt lat="46.48183" lon="8.24948">
        <ele>1543</ele>
        <time>2020-07-16T12:58:58.552Z</time>
      </trkpt>
      <trkpt lat="46.48182" lon="8.24947">
        <ele>1543</ele>
        <time>2020-07-16T12:58:59.551Z</time>
      </trkpt>
      <trkpt lat="46.48181" lon="8.24947">
        <ele>1544</ele>
        <time>2020-07-16T12:59:00.552Z</time>
      </trkpt>
      <trkpt lat="46.48181" lon="8.24946">
        <ele>1544</ele>
        <time>2020-07-16T12:59:01.552Z</time>
      </trkpt>
      <trkpt lat="46.4818" lon="8.24945">
        <ele>1544</ele>
        <time>2020-07-16T12:59:02.551Z</time>
      </trkpt>
      <trkpt lat="46.4818" lon="8.24945">
        <ele>1545</ele>
        <time>2020-07-16T12:59:03.551Z</time>
      </trkpt>
      <trkpt lat="46.48179" lon="8.24944">
        <ele>1545</ele>
        <time>2020-07-16T12:59:04.551Z</time>
      </trkpt>
      <trkpt lat="46.4818" lon="8.24943">
        <ele>1546</ele>
        <time>2020-07-16T12:59:05.551Z</time>
      </trkpt>
      <trkpt lat="46.4818" lon="8.24942">
        <ele>1546</ele>
        <time>2020-07-16T12:59:06.552Z</time>
      </trkpt>
      <trkpt lat="46.4818" lon="8.24941">
        <ele>1546</ele>
        <time>2020-07-16T12:59:07.552Z</time>
      </trkpt>
      <trkpt lat="46.4818" lon="8.2494">
        <ele>1547</ele>
        <time>2020-07-16T12:59:08.552Z</time>
      </trkpt>
      <trkpt lat="46.48179" lon="8.24938">
        <ele>1547</ele>
        <time>2020-07-16T12:59:09.552Z</time>
      </trkpt>
      <trkpt lat="46.48178" lon="8.24937">
        <ele>1549</ele>
        <time>2020-07-16T12:59:10.552Z</time>
      </trkpt>
      <trkpt lat="46.48178" lon="8.24936">
        <ele>1550</ele>
        <time>2020-07-16T12:59:11.552Z</time>
      </trkpt>
      <trkpt lat="46.48178" lon="8.24935">
        <ele>1551</ele>
        <time>2020-07-16T12:59:12.552Z</time>
      </trkpt>
      <trkpt lat="46.48178" lon="8.24934">
        <ele>1552</ele>
        <time>2020-07-16T12:59:13.551Z</time>
      </trkpt>
      <trkpt lat="46.48178" lon="8.24934">
        <ele>1553</ele>
        <time>2020-07-16T12:59:14.552Z</time>
      </trkpt>
      <trkpt lat="46.48178" lon="8.24933">
        <ele>1554</ele>
        <time>2020-07-16T12:59:15.551Z</time>
      </trkpt>
      <trkpt lat="46.48179" lon="8.24932">
        <ele>1554</ele>
        <time>2020-07-16T12:59:16.552Z</time>
      </trkpt>
      <trkpt lat="46.48179" lon="8.24931">
        <ele>1554</ele>
        <time>2020-07-16T12:59:17.551Z</time>
      </trkpt>
      <trkpt lat="46.48179" lon="8.24929">
        <ele>1555</ele>
        <time>2020-07-16T12:59:18.552Z</time>
      </trkpt>
      <trkpt lat="46.48178" lon="8.24928">
        <ele>1555</ele>
        <time>2020-07-16T12:59:19.552Z</time>
      </trkpt>
      <trkpt lat="46.48178" lon="8.24927">
        <ele>1554</ele>
        <time>2020-07-16T12:59:20.552Z</time>
      </trkpt>
      <trkpt lat="46.48178" lon="8.24926">
        <ele>1554</ele>
        <time>2020-07-16T12:59:21.552Z</time>
      </trkpt>
      <trkpt lat="46.48177" lon="8.24925">
        <ele>1554</ele>
        <time>2020-07-16T12:59:22.551Z</time>
      </trkpt>
      <trkpt lat="46.48177" lon="8.24924">
        <ele>1554</ele>
        <time>2020-07-16T12:59:23.551Z</time>
      </trkpt>
      <trkpt lat="46.48177" lon="8.24923">
        <ele>1554</ele>
        <time>2020-07-16T12:59:24.551Z</time>
      </trkpt>
      <trkpt lat="46.48177" lon="8.24922">
        <ele>1554</ele>
        <time>2020-07-16T12:59:25.552Z</time>
      </trkpt>
      <trkpt lat="46.48177" lon="8.24921">
        <ele>1554</ele>
        <time>2020-07-16T12:59:26.552Z</time>
      </trkpt>
      <trkpt lat="46.48177" lon="8.2492">
        <ele>1553</ele>
        <time>2020-07-16T12:59:27.552Z</time>
      </trkpt>
      <trkpt lat="46.48178" lon="8.24919">
        <ele>1553</ele>
        <time>2020-07-16T12:59:28.552Z</time>
      </trkpt>
      <trkpt lat="46.48178" lon="8.24918">
        <ele>1553</ele>
        <time>2020-07-16T12:59:29.551Z</time>
      </trkpt>
      <trkpt lat="46.48178" lon="8.24917">
        <ele>1552</ele>
        <time>2020-07-16T12:59:30.552Z</time>
      </trkpt>
      <trkpt lat="46.48178" lon="8.24916">
        <ele>1552</ele>
        <time>2020-07-16T12:59:31.551Z</time>
      </trkpt>
      <trkpt lat="46.48179" lon="8.24915">
        <ele>1551</ele>
        <time>2020-07-16T12:59:32.552Z</time>
      </trkpt>
      <trkpt lat="46.48179" lon="8.24914">
        <ele>1551</ele>
        <time>2020-07-16T12:59:33.551Z</time>
      </trkpt>
      <trkpt lat="46.4818" lon="8.24913">
        <ele>1551</ele>
        <time>2020-07-16T12:59:34.551Z</time>
      </trkpt>
      <trkpt lat="46.4818" lon="8.24911">
        <ele>1552</ele>
        <time>2020-07-16T12:59:35.552Z</time>
      </trkpt>
      <trkpt lat="46.4818" lon="8.24909">
        <ele>1552</ele>
        <time>2020-07-16T12:59:36.552Z</time>
      </trkpt>
      <trkpt lat="46.4818" lon="8.24908">
        <ele>1552</ele>
        <time>2020-07-16T12:59:37.552Z</time>
      </trkpt>
      <trkpt lat="46.4818" lon="8.24906">
        <ele>1552</ele>
        <time>2020-07-16T12:59:38.552Z</time>
      </trkpt>
      <trkpt lat="46.4818" lon="8.24906">
        <ele>1552</ele>
        <time>2020-07-16T12:59:39.551Z</time>
      </trkpt>
      <trkpt lat="46.4818" lon="8.24905">
        <ele>1552</ele>
        <time>2020-07-16T12:59:40.552Z</time>
      </trkpt>
      <trkpt lat="46.48181" lon="8.24905">
        <ele>1552</ele>
        <time>2020-07-16T12:59:41.552Z</time>
      </trkpt>
      <trkpt lat="46.48182" lon="8.24904">
        <ele>1552</ele>
        <time>2020-07-16T12:59:42.552Z</time>
      </trkpt>
      <trkpt lat="46.48182" lon="8.24903">
        <ele>1553</ele>
        <time>2020-07-16T12:59:43.551Z</time>
      </trkpt>
      <trkpt lat="46.48182" lon="8.24903">
        <ele>1553</ele>
        <time>2020-07-16T12:59:44.552Z</time>
      </trkpt>
      <trkpt lat="46.48183" lon="8.24905">
        <ele>1555</ele>
        <time>2020-07-16T12:59:45.551Z</time>
      </trkpt>
      <trkpt lat="46.48184" lon="8.24905">
        <ele>1555</ele>
        <time>2020-07-16T12:59:46.552Z</time>
      </trkpt>
      <trkpt lat="46.48184" lon="8.24905">
        <ele>1556</ele>
        <time>2020-07-16T12:59:47.551Z</time>
      </trkpt>
      <trkpt lat="46.48185" lon="8.24903">
        <ele>1556</ele>
        <time>2020-07-16T12:59:48.551Z</time>
      </trkpt>
      <trkpt lat="46.48185" lon="8.24902">
        <ele>1556</ele>
        <time>2020-07-16T12:59:49.552Z</time>
      </trkpt>
      <trkpt lat="46.48186" lon="8.249">
        <ele>1556</ele>
        <time>2020-07-16T12:59:50.552Z</time>
      </trkpt>
      <trkpt lat="46.48186" lon="8.24899">
        <ele>1556</ele>
        <time>2020-07-16T12:59:51.551Z</time>
      </trkpt>
      <trkpt lat="46.48186" lon="8.24898">
        <ele>1556</ele>
        <time>2020-07-16T12:59:52.552Z</time>
      </trkpt>
      <trkpt lat="46.48186" lon="8.24897">
        <ele>1556</ele>
        <time>2020-07-16T12:59:53.552Z</time>
      </trkpt>
      <trkpt lat="46.48186" lon="8.24896">
        <ele>1555</ele>
        <time>2020-07-16T12:59:54.552Z</time>
      </trkpt>
      <trkpt lat="46.48186" lon="8.24895">
        <ele>1555</ele>
        <time>2020-07-16T12:59:55.551Z</time>
      </trkpt>
      <trkpt lat="46.48186" lon="8.24894">
        <ele>1555</ele>
        <time>2020-07-16T12:59:56.552Z</time>
      </trkpt>
      <trkpt lat="46.48186" lon="8.24894">
        <ele>1555</ele>
        <time>2020-07-16T12:59:57.552Z</time>
      </trkpt>
      <trkpt lat="46.48185" lon="8.24893">
        <ele>1555</ele>
        <time>2020-07-16T12:59:58.552Z</time>
      </trkpt>
      <trkpt lat="46.48185" lon="8.24892">
        <ele>1555</ele>
        <time>2020-07-16T12:59:59.551Z</time>
      </trkpt>
      <trkpt lat="46.48185" lon="8.2489">
        <ele>1555</ele>
        <time>2020-07-16T13:00:00.551Z</time>
      </trkpt>
      <trkpt lat="46.48185" lon="8.24888">
        <ele>1555</ele>
        <time>2020-07-16T13:00:01.552Z</time>
      </trkpt>
      <trkpt lat="46.48186" lon="8.24885">
        <ele>1555</ele>
        <time>2020-07-16T13:00:02.551Z</time>
      </trkpt>
      <trkpt lat="46.48186" lon="8.24884">
        <ele>1554</ele>
        <time>2020-07-16T13:00:03.552Z</time>
      </trkpt>
      <trkpt lat="46.48186" lon="8.24883">
        <ele>1554</ele>
        <time>2020-07-16T13:00:04.551Z</time>
      </trkpt>
      <trkpt lat="46.48186" lon="8.24882">
        <ele>1554</ele>
        <time>2020-07-16T13:00:05.551Z</time>
      </trkpt>
      <trkpt lat="46.48186" lon="8.2488">
        <ele>1554</ele>
        <time>2020-07-16T13:00:06.551Z</time>
      </trkpt>
      <trkpt lat="46.48186" lon="8.24879">
        <ele>1554</ele>
        <time>2020-07-16T13:00:07.552Z</time>
      </trkpt>
      <trkpt lat="46.48185" lon="8.24877">
        <ele>1555</ele>
        <time>2020-07-16T13:00:08.552Z</time>
      </trkpt>
      <trkpt lat="46.48185" lon="8.24877">
        <ele>1555</ele>
        <time>2020-07-16T13:00:09.552Z</time>
      </trkpt>
      <trkpt lat="46.48185" lon="8.24875">
        <ele>1555</ele>
        <time>2020-07-16T13:00:10.552Z</time>
      </trkpt>
      <trkpt lat="46.48184" lon="8.24874">
        <ele>1556</ele>
        <time>2020-07-16T13:00:11.552Z</time>
      </trkpt>
      <trkpt lat="46.48184" lon="8.24873">
        <ele>1557</ele>
        <time>2020-07-16T13:00:12.551Z</time>
      </trkpt>
      <trkpt lat="46.48184" lon="8.24872">
        <ele>1558</ele>
        <time>2020-07-16T13:00:13.551Z</time>
      </trkpt>
      <trkpt lat="46.48185" lon="8.2487">
        <ele>1558</ele>
        <time>2020-07-16T13:00:14.552Z</time>
      </trkpt>
      <trkpt lat="46.48186" lon="8.24869">
        <ele>1559</ele>
        <time>2020-07-16T13:00:15.552Z</time>
      </trkpt>
      <trkpt lat="46.48186" lon="8.24869">
        <ele>1560</ele>
        <time>2020-07-16T13:00:16.552Z</time>
      </trkpt>
      <trkpt lat="46.48187" lon="8.24867">
        <ele>1560</ele>
        <time>2020-07-16T13:00:17.552Z</time>
      </trkpt>
      <trkpt lat="46.48187" lon="8.24865">
        <ele>1561</ele>
        <time>2020-07-16T13:00:18.552Z</time>
      </trkpt>
      <trkpt lat="46.48187" lon="8.24864">
        <ele>1561</ele>
        <time>2020-07-16T13:00:19.552Z</time>
      </trkpt>
      <trkpt lat="46.48187" lon="8.24862">
        <ele>1561</ele>
        <time>2020-07-16T13:00:20.552Z</time>
      </trkpt>
      <trkpt lat="46.48188" lon="8.24861">
        <ele>1561</ele>
        <time>2020-07-16T13:00:21.552Z</time>
      </trkpt>
      <trkpt lat="46.48188" lon="8.24859">
        <ele>1561</ele>
        <time>2020-07-16T13:00:22.552Z</time>
      </trkpt>
      <trkpt lat="46.48188" lon="8.24857">
        <ele>1562</ele>
        <time>2020-07-16T13:00:23.551Z</time>
      </trkpt>
      <trkpt lat="46.48188" lon="8.24856">
        <ele>1562</ele>
        <time>2020-07-16T13:00:24.552Z</time>
      </trkpt>
      <trkpt lat="46.48188" lon="8.24854">
        <ele>1562</ele>
        <time>2020-07-16T13:00:25.552Z</time>
      </trkpt>
      <trkpt lat="46.48188" lon="8.24852">
        <ele>1562</ele>
        <time>2020-07-16T13:00:26.551Z</time>
      </trkpt>
      <trkpt lat="46.48189" lon="8.24849">
        <ele>1562</ele>
        <time>2020-07-16T13:00:27.551Z</time>
      </trkpt>
      <trkpt lat="46.48189" lon="8.24848">
        <ele>1562</ele>
        <time>2020-07-16T13:00:28.551Z</time>
      </trkpt>
      <trkpt lat="46.48189" lon="8.24846">
        <ele>1562</ele>
        <time>2020-07-16T13:00:29.552Z</time>
      </trkpt>
      <trkpt lat="46.48189" lon="8.24844">
        <ele>1563</ele>
        <time>2020-07-16T13:00:30.552Z</time>
      </trkpt>
      <trkpt lat="46.4819" lon="8.24843">
        <ele>1563</ele>
        <time>2020-07-16T13:00:31.552Z</time>
      </trkpt>
      <trkpt lat="46.4819" lon="8.24842">
        <ele>1563</ele>
        <time>2020-07-16T13:00:32.552Z</time>
      </trkpt>
      <trkpt lat="46.4819" lon="8.24841">
        <ele>1563</ele>
        <time>2020-07-16T13:00:33.551Z</time>
      </trkpt>
      <trkpt lat="46.4819" lon="8.24839">
        <ele>1563</ele>
        <time>2020-07-16T13:00:34.551Z</time>
      </trkpt>
      <trkpt lat="46.4819" lon="8.24838">
        <ele>1563</ele>
        <time>2020-07-16T13:00:35.552Z</time>
      </trkpt>
      <trkpt lat="46.4819" lon="8.24836">
        <ele>1563</ele>
        <time>2020-07-16T13:00:36.552Z</time>
      </trkpt>
      <trkpt lat="46.48191" lon="8.24835">
        <ele>1563</ele>
        <time>2020-07-16T13:00:37.552Z</time>
      </trkpt>
      <trkpt lat="46.48191" lon="8.24834">
        <ele>1563</ele>
        <time>2020-07-16T13:00:38.552Z</time>
      </trkpt>
      <trkpt lat="46.48192" lon="8.24832">
        <ele>1563</ele>
        <time>2020-07-16T13:00:39.551Z</time>
      </trkpt>
      <trkpt lat="46.48193" lon="8.2483">
        <ele>1563</ele>
        <time>2020-07-16T13:00:40.552Z</time>
      </trkpt>
      <trkpt lat="46.48194" lon="8.24829">
        <ele>1563</ele>
        <time>2020-07-16T13:00:41.552Z</time>
      </trkpt>
      <trkpt lat="46.48195" lon="8.24828">
        <ele>1563</ele>
        <time>2020-07-16T13:00:42.551Z</time>
      </trkpt>
      <trkpt lat="46.48195" lon="8.24827">
        <ele>1563</ele>
        <time>2020-07-16T13:00:43.551Z</time>
      </trkpt>
      <trkpt lat="46.48194" lon="8.24825">
        <ele>1562</ele>
        <time>2020-07-16T13:00:44.551Z</time>
      </trkpt>
      <trkpt lat="46.48194" lon="8.24824">
        <ele>1562</ele>
        <time>2020-07-16T13:00:45.552Z</time>
      </trkpt>
      <trkpt lat="46.48194" lon="8.24823">
        <ele>1562</ele>
        <time>2020-07-16T13:00:46.552Z</time>
      </trkpt>
      <trkpt lat="46.48194" lon="8.24821">
        <ele>1562</ele>
        <time>2020-07-16T13:00:47.552Z</time>
      </trkpt>
      <trkpt lat="46.48194" lon="8.24821">
        <ele>1562</ele>
        <time>2020-07-16T13:00:48.552Z</time>
      </trkpt>
      <trkpt lat="46.48195" lon="8.2482">
        <ele>1561</ele>
        <time>2020-07-16T13:00:49.552Z</time>
      </trkpt>
      <trkpt lat="46.48195" lon="8.24819">
        <ele>1561</ele>
        <time>2020-07-16T13:00:50.552Z</time>
      </trkpt>
      <trkpt lat="46.48195" lon="8.24819">
        <ele>1561</ele>
        <time>2020-07-16T13:00:51.551Z</time>
      </trkpt>
      <trkpt lat="46.48195" lon="8.24818">
        <ele>1561</ele>
        <time>2020-07-16T13:00:52.551Z</time>
      </trkpt>
      <trkpt lat="46.48196" lon="8.24817">
        <ele>1561</ele>
        <time>2020-07-16T13:00:53.552Z</time>
      </trkpt>
      <trkpt lat="46.48195" lon="8.24815">
        <ele>1561</ele>
        <time>2020-07-16T13:00:54.552Z</time>
      </trkpt>
      <trkpt lat="46.48196" lon="8.24814">
        <ele>1562</ele>
        <time>2020-07-16T13:00:55.552Z</time>
      </trkpt>
      <trkpt lat="46.48196" lon="8.24813">
        <ele>1562</ele>
        <time>2020-07-16T13:00:56.552Z</time>
      </trkpt>
      <trkpt lat="46.48195" lon="8.24811">
        <ele>1563</ele>
        <time>2020-07-16T13:00:57.551Z</time>
      </trkpt>
      <trkpt lat="46.48194" lon="8.24809">
        <ele>1563</ele>
        <time>2020-07-16T13:00:58.552Z</time>
      </trkpt>
      <trkpt lat="46.48193" lon="8.24808">
        <ele>1564</ele>
        <time>2020-07-16T13:00:59.552Z</time>
      </trkpt>
      <trkpt lat="46.48194" lon="8.24807">
        <ele>1565</ele>
        <time>2020-07-16T13:01:00.552Z</time>
      </trkpt>
      <trkpt lat="46.48193" lon="8.24807">
        <ele>1565</ele>
        <time>2020-07-16T13:01:01.552Z</time>
      </trkpt>
      <trkpt lat="46.48193" lon="8.24806">
        <ele>1566</ele>
        <time>2020-07-16T13:01:02.551Z</time>
      </trkpt>
      <trkpt lat="46.48194" lon="8.24807">
        <ele>1567</ele>
        <time>2020-07-16T13:01:03.552Z</time>
      </trkpt>
      <trkpt lat="46.48194" lon="8.24807">
        <ele>1567</ele>
        <time>2020-07-16T13:01:04.552Z</time>
      </trkpt>
      <trkpt lat="46.48194" lon="8.24806">
        <ele>1568</ele>
        <time>2020-07-16T13:01:05.552Z</time>
      </trkpt>
      <trkpt lat="46.48197" lon="8.24807">
        <ele>1571</ele>
        <time>2020-07-16T13:01:06.553Z</time>
      </trkpt>
      <trkpt lat="46.48197" lon="8.24807">
        <ele>1571</ele>
        <time>2020-07-16T13:01:07.553Z</time>
      </trkpt>
      <trkpt lat="46.48197" lon="8.24805">
        <ele>1571</ele>
        <time>2020-07-16T13:01:08.552Z</time>
      </trkpt>
      <trkpt lat="46.48197" lon="8.24805">
        <ele>1571</ele>
        <time>2020-07-16T13:01:09.553Z</time>
      </trkpt>
      <trkpt lat="46.48189" lon="8.24807">
        <ele>1569</ele>
        <time>2020-07-16T13:01:10.552Z</time>
      </trkpt>
      <trkpt lat="46.48188" lon="8.24807">
        <ele>1569</ele>
        <time>2020-07-16T13:01:11.552Z</time>
      </trkpt>
      <trkpt lat="46.48188" lon="8.24808">
        <ele>1569</ele>
        <time>2020-07-16T13:01:12.552Z</time>
      </trkpt>
      <trkpt lat="46.48188" lon="8.24809">
        <ele>1569</ele>
        <time>2020-07-16T13:01:13.552Z</time>
      </trkpt>
      <trkpt lat="46.48187" lon="8.24809">
        <ele>1569</ele>
        <time>2020-07-16T13:01:14.553Z</time>
      </trkpt>
      <trkpt lat="46.48184" lon="8.24808">
        <ele>1569</ele>
        <time>2020-07-16T13:01:15.553Z</time>
      </trkpt>
      <trkpt lat="46.48183" lon="8.24807">
        <ele>1569</ele>
        <time>2020-07-16T13:01:16.552Z</time>
      </trkpt>
      <trkpt lat="46.48181" lon="8.24807">
        <ele>1569</ele>
        <time>2020-07-16T13:01:17.553Z</time>
      </trkpt>
      <trkpt lat="46.4818" lon="8.24806">
        <ele>1568</ele>
        <time>2020-07-16T13:01:18.553Z</time>
      </trkpt>
      <trkpt lat="46.4818" lon="8.24806">
        <ele>1568</ele>
        <time>2020-07-16T13:01:19.553Z</time>
      </trkpt>
      <trkpt lat="46.4818" lon="8.24805">
        <ele>1568</ele>
        <time>2020-07-16T13:01:20.553Z</time>
      </trkpt>
      <trkpt lat="46.48179" lon="8.24805">
        <ele>1567</ele>
        <time>2020-07-16T13:01:21.552Z</time>
      </trkpt>
      <trkpt lat="46.48179" lon="8.24806">
        <ele>1567</ele>
        <time>2020-07-16T13:01:22.553Z</time>
      </trkpt>
      <trkpt lat="46.48179" lon="8.24805">
        <ele>1566</ele>
        <time>2020-07-16T13:01:23.552Z</time>
      </trkpt>
      <trkpt lat="46.48178" lon="8.24804">
        <ele>1566</ele>
        <time>2020-07-16T13:01:24.553Z</time>
      </trkpt>
      <trkpt lat="46.48178" lon="8.24804">
        <ele>1566</ele>
        <time>2020-07-16T13:01:25.553Z</time>
      </trkpt>
      <trkpt lat="46.48177" lon="8.24804">
        <ele>1566</ele>
        <time>2020-07-16T13:01:26.553Z</time>
      </trkpt>
      <trkpt lat="46.48176" lon="8.24803">
        <ele>1566</ele>
        <time>2020-07-16T13:01:27.553Z</time>
      </trkpt>
      <trkpt lat="46.48176" lon="8.24803">
        <ele>1566</ele>
        <time>2020-07-16T13:01:28.553Z</time>
      </trkpt>
      <trkpt lat="46.48175" lon="8.24803">
        <ele>1567</ele>
        <time>2020-07-16T13:01:29.552Z</time>
      </trkpt>
      <trkpt lat="46.48176" lon="8.24802">
        <ele>1567</ele>
        <time>2020-07-16T13:01:30.552Z</time>
      </trkpt>
      <trkpt lat="46.48176" lon="8.24802">
        <ele>1567</ele>
        <time>2020-07-16T13:01:31.553Z</time>
      </trkpt>
      <trkpt lat="46.48177" lon="8.24802">
        <ele>1567</ele>
        <time>2020-07-16T13:01:32.552Z</time>
      </trkpt>
      <trkpt lat="46.48177" lon="8.24802">
        <ele>1568</ele>
        <time>2020-07-16T13:01:33.552Z</time>
      </trkpt>
      <trkpt lat="46.48177" lon="8.24802">
        <ele>1568</ele>
        <time>2020-07-16T13:01:34.553Z</time>
      </trkpt>
      <trkpt lat="46.48176" lon="8.24803">
        <ele>1568</ele>
        <time>2020-07-16T13:01:35.553Z</time>
      </trkpt>
      <trkpt lat="46.48175" lon="8.24803">
        <ele>1568</ele>
        <time>2020-07-16T13:01:36.553Z</time>
      </trkpt>
      <trkpt lat="46.48175" lon="8.24803">
        <ele>1569</ele>
        <time>2020-07-16T13:01:37.553Z</time>
      </trkpt>
      <trkpt lat="46.48174" lon="8.24802">
        <ele>1569</ele>
        <time>2020-07-16T13:01:38.553Z</time>
      </trkpt>
      <trkpt lat="46.48173" lon="8.24801">
        <ele>1569</ele>
        <time>2020-07-16T13:01:39.553Z</time>
      </trkpt>
      <trkpt lat="46.48173" lon="8.248">
        <ele>1569</ele>
        <time>2020-07-16T13:01:40.553Z</time>
      </trkpt>
      <trkpt lat="46.48172" lon="8.24799">
        <ele>1569</ele>
        <time>2020-07-16T13:01:41.553Z</time>
      </trkpt>
      <trkpt lat="46.48171" lon="8.24798">
        <ele>1569</ele>
        <time>2020-07-16T13:01:42.553Z</time>
      </trkpt>
      <trkpt lat="46.48171" lon="8.24798">
        <ele>1569</ele>
        <time>2020-07-16T13:01:43.553Z</time>
      </trkpt>
      <trkpt lat="46.4817" lon="8.24797">
        <ele>1568</ele>
        <time>2020-07-16T13:01:44.553Z</time>
      </trkpt>
      <trkpt lat="46.48171" lon="8.24797">
        <ele>1568</ele>
        <time>2020-07-16T13:01:45.553Z</time>
      </trkpt>
      <trkpt lat="46.48171" lon="8.24796">
        <ele>1568</ele>
        <time>2020-07-16T13:01:46.553Z</time>
      </trkpt>
      <trkpt lat="46.48172" lon="8.24796">
        <ele>1568</ele>
        <time>2020-07-16T13:01:47.552Z</time>
      </trkpt>
      <trkpt lat="46.48173" lon="8.24795">
        <ele>1568</ele>
        <time>2020-07-16T13:01:48.553Z</time>
      </trkpt>
      <trkpt lat="46.48174" lon="8.24795">
        <ele>1568</ele>
        <time>2020-07-16T13:01:49.553Z</time>
      </trkpt>
      <trkpt lat="46.48174" lon="8.24794">
        <ele>1568</ele>
        <time>2020-07-16T13:01:50.552Z</time>
      </trkpt>
      <trkpt lat="46.48174" lon="8.24794">
        <ele>1568</ele>
        <time>2020-07-16T13:01:51.553Z</time>
      </trkpt>
      <trkpt lat="46.48174" lon="8.24793">
        <ele>1568</ele>
        <time>2020-07-16T13:01:52.553Z</time>
      </trkpt>
      <trkpt lat="46.48173" lon="8.24793">
        <ele>1568</ele>
        <time>2020-07-16T13:01:53.553Z</time>
      </trkpt>
      <trkpt lat="46.48172" lon="8.24792">
        <ele>1568</ele>
        <time>2020-07-16T13:01:54.553Z</time>
      </trkpt>
      <trkpt lat="46.48172" lon="8.24792">
        <ele>1568</ele>
        <time>2020-07-16T13:01:55.553Z</time>
      </trkpt>
      <trkpt lat="46.48171" lon="8.24791">
        <ele>1568</ele>
        <time>2020-07-16T13:01:56.553Z</time>
      </trkpt>
      <trkpt lat="46.48171" lon="8.24791">
        <ele>1568</ele>
        <time>2020-07-16T13:01:57.553Z</time>
      </trkpt>
      <trkpt lat="46.4817" lon="8.2479">
        <ele>1569</ele>
        <time>2020-07-16T13:01:58.552Z</time>
      </trkpt>
      <trkpt lat="46.4817" lon="8.2479">
        <ele>1568</ele>
        <time>2020-07-16T13:01:59.553Z</time>
      </trkpt>
      <trkpt lat="46.48169" lon="8.24789">
        <ele>1568</ele>
        <time>2020-07-16T13:02:00.553Z</time>
      </trkpt>
      <trkpt lat="46.48168" lon="8.24789">
        <ele>1568</ele>
        <time>2020-07-16T13:02:01.552Z</time>
      </trkpt>
      <trkpt lat="46.48168" lon="8.24789">
        <ele>1568</ele>
        <time>2020-07-16T13:02:02.552Z</time>
      </trkpt>
      <trkpt lat="46.48167" lon="8.24788">
        <ele>1568</ele>
        <time>2020-07-16T13:02:03.552Z</time>
      </trkpt>
      <trkpt lat="46.48167" lon="8.24788">
        <ele>1567</ele>
        <time>2020-07-16T13:02:04.553Z</time>
      </trkpt>
      <trkpt lat="46.48166" lon="8.24787">
        <ele>1567</ele>
        <time>2020-07-16T13:02:05.553Z</time>
      </trkpt>
      <trkpt lat="46.48165" lon="8.24787">
        <ele>1566</ele>
        <time>2020-07-16T13:02:06.553Z</time>
      </trkpt>
      <trkpt lat="46.48165" lon="8.24786">
        <ele>1566</ele>
        <time>2020-07-16T13:02:07.553Z</time>
      </trkpt>
      <trkpt lat="46.48164" lon="8.24785">
        <ele>1566</ele>
        <time>2020-07-16T13:02:08.553Z</time>
      </trkpt>
      <trkpt lat="46.48163" lon="8.24784">
        <ele>1566</ele>
        <time>2020-07-16T13:02:09.553Z</time>
      </trkpt>
      <trkpt lat="46.48163" lon="8.24784">
        <ele>1566</ele>
        <time>2020-07-16T13:02:10.552Z</time>
      </trkpt>
      <trkpt lat="46.48162" lon="8.24785">
        <ele>1566</ele>
        <time>2020-07-16T13:02:11.553Z</time>
      </trkpt>
      <trkpt lat="46.4816" lon="8.24786">
        <ele>1567</ele>
        <time>2020-07-16T13:02:12.553Z</time>
      </trkpt>
      <trkpt lat="46.4816" lon="8.24786">
        <ele>1568</ele>
        <time>2020-07-16T13:02:13.553Z</time>
      </trkpt>
      <trkpt lat="46.48159" lon="8.24786">
        <ele>1568</ele>
        <time>2020-07-16T13:02:14.552Z</time>
      </trkpt>
      <trkpt lat="46.48158" lon="8.24786">
        <ele>1568</ele>
        <time>2020-07-16T13:02:15.553Z</time>
      </trkpt>
      <trkpt lat="46.48158" lon="8.24785">
        <ele>1569</ele>
        <time>2020-07-16T13:02:16.553Z</time>
      </trkpt>
      <trkpt lat="46.48158" lon="8.24784">
        <ele>1568</ele>
        <time>2020-07-16T13:02:17.553Z</time>
      </trkpt>
      <trkpt lat="46.48158" lon="8.24783">
        <ele>1568</ele>
        <time>2020-07-16T13:02:18.553Z</time>
      </trkpt>
      <trkpt lat="46.48157" lon="8.24783">
        <ele>1568</ele>
        <time>2020-07-16T13:02:19.553Z</time>
      </trkpt>
      <trkpt lat="46.48156" lon="8.24784">
        <ele>1568</ele>
        <time>2020-07-16T13:02:20.553Z</time>
      </trkpt>
      <trkpt lat="46.48155" lon="8.24785">
        <ele>1568</ele>
        <time>2020-07-16T13:02:21.553Z</time>
      </trkpt>
      <trkpt lat="46.48154" lon="8.24785">
        <ele>1569</ele>
        <time>2020-07-16T13:02:22.552Z</time>
      </trkpt>
      <trkpt lat="46.48153" lon="8.24786">
        <ele>1570</ele>
        <time>2020-07-16T13:02:23.553Z</time>
      </trkpt>
      <trkpt lat="46.48153" lon="8.24785">
        <ele>1570</ele>
        <time>2020-07-16T13:02:24.553Z</time>
      </trkpt>
      <trkpt lat="46.48152" lon="8.24785">
        <ele>1570</ele>
        <time>2020-07-16T13:02:25.553Z</time>
      </trkpt>
      <trkpt lat="46.48152" lon="8.24785">
        <ele>1570</ele>
        <time>2020-07-16T13:02:26.552Z</time>
      </trkpt>
      <trkpt lat="46.48151" lon="8.24785">
        <ele>1570</ele>
        <time>2020-07-16T13:02:27.552Z</time>
      </trkpt>
      <trkpt lat="46.48151" lon="8.24785">
        <ele>1569</ele>
        <time>2020-07-16T13:02:28.553Z</time>
      </trkpt>
      <trkpt lat="46.4815" lon="8.24784">
        <ele>1569</ele>
        <time>2020-07-16T13:02:29.552Z</time>
      </trkpt>
      <trkpt lat="46.48149" lon="8.24784">
        <ele>1568</ele>
        <time>2020-07-16T13:02:30.552Z</time>
      </trkpt>
      <trkpt lat="46.48148" lon="8.24784">
        <ele>1568</ele>
        <time>2020-07-16T13:02:31.552Z</time>
      </trkpt>
      <trkpt lat="46.48148" lon="8.24783">
        <ele>1568</ele>
        <time>2020-07-16T13:02:32.553Z</time>
      </trkpt>
      <trkpt lat="46.48147" lon="8.24783">
        <ele>1567</ele>
        <time>2020-07-16T13:02:33.553Z</time>
      </trkpt>
      <trkpt lat="46.48147" lon="8.24782">
        <ele>1567</ele>
        <time>2020-07-16T13:02:34.553Z</time>
      </trkpt>
      <trkpt lat="46.48147" lon="8.24782">
        <ele>1568</ele>
        <time>2020-07-16T13:02:35.552Z</time>
      </trkpt>
      <trkpt lat="46.48146" lon="8.24781">
        <ele>1568</ele>
        <time>2020-07-16T13:02:36.553Z</time>
      </trkpt>
      <trkpt lat="46.48146" lon="8.24781">
        <ele>1569</ele>
        <time>2020-07-16T13:02:37.553Z</time>
      </trkpt>
      <trkpt lat="46.48146" lon="8.24781">
        <ele>1569</ele>
        <time>2020-07-16T13:02:38.552Z</time>
      </trkpt>
      <trkpt lat="46.48145" lon="8.24781">
        <ele>1570</ele>
        <time>2020-07-16T13:02:39.553Z</time>
      </trkpt>
      <trkpt lat="46.48145" lon="8.2478">
        <ele>1570</ele>
        <time>2020-07-16T13:02:40.553Z</time>
      </trkpt>
      <trkpt lat="46.48144" lon="8.2478">
        <ele>1570</ele>
        <time>2020-07-16T13:02:41.552Z</time>
      </trkpt>
      <trkpt lat="46.48144" lon="8.24779">
        <ele>1570</ele>
        <time>2020-07-16T13:02:42.552Z</time>
      </trkpt>
      <trkpt lat="46.48143" lon="8.24779">
        <ele>1571</ele>
        <time>2020-07-16T13:02:43.552Z</time>
      </trkpt>
      <trkpt lat="46.48143" lon="8.24778">
        <ele>1571</ele>
        <time>2020-07-16T13:02:44.553Z</time>
      </trkpt>
      <trkpt lat="46.48143" lon="8.24777">
        <ele>1571</ele>
        <time>2020-07-16T13:02:45.552Z</time>
      </trkpt>
      <trkpt lat="46.48142" lon="8.24776">
        <ele>1571</ele>
        <time>2020-07-16T13:02:46.552Z</time>
      </trkpt>
      <trkpt lat="46.48142" lon="8.24774">
        <ele>1570</ele>
        <time>2020-07-16T13:02:47.553Z</time>
      </trkpt>
      <trkpt lat="46.48141" lon="8.24773">
        <ele>1570</ele>
        <time>2020-07-16T13:02:48.552Z</time>
      </trkpt>
      <trkpt lat="46.48141" lon="8.24771">
        <ele>1570</ele>
        <time>2020-07-16T13:02:49.552Z</time>
      </trkpt>
      <trkpt lat="46.48141" lon="8.2477">
        <ele>1570</ele>
        <time>2020-07-16T13:02:50.553Z</time>
      </trkpt>
      <trkpt lat="46.4814" lon="8.24768">
        <ele>1570</ele>
        <time>2020-07-16T13:02:51.553Z</time>
      </trkpt>
      <trkpt lat="46.48138" lon="8.24766">
        <ele>1571</ele>
        <time>2020-07-16T13:02:52.553Z</time>
      </trkpt>
      <trkpt lat="46.48137" lon="8.24765">
        <ele>1571</ele>
        <time>2020-07-16T13:02:53.552Z</time>
      </trkpt>
      <trkpt lat="46.48136" lon="8.24764">
        <ele>1571</ele>
        <time>2020-07-16T13:02:54.553Z</time>
      </trkpt>
      <trkpt lat="46.48136" lon="8.24763">
        <ele>1571</ele>
        <time>2020-07-16T13:02:55.553Z</time>
      </trkpt>
      <trkpt lat="46.48135" lon="8.24763">
        <ele>1571</ele>
        <time>2020-07-16T13:02:56.553Z</time>
      </trkpt>
      <trkpt lat="46.48135" lon="8.24763">
        <ele>1571</ele>
        <time>2020-07-16T13:02:57.553Z</time>
      </trkpt>
      <trkpt lat="46.48135" lon="8.24763">
        <ele>1571</ele>
        <time>2020-07-16T13:02:58.553Z</time>
      </trkpt>
      <trkpt lat="46.48136" lon="8.24764">
        <ele>1571</ele>
        <time>2020-07-16T13:02:59.553Z</time>
      </trkpt>
      <trkpt lat="46.48135" lon="8.24764">
        <ele>1572</ele>
        <time>2020-07-16T13:03:00.553Z</time>
      </trkpt>
      <trkpt lat="46.48135" lon="8.24764">
        <ele>1572</ele>
        <time>2020-07-16T13:03:01.554Z</time>
      </trkpt>
      <trkpt lat="46.48134" lon="8.24764">
        <ele>1572</ele>
        <time>2020-07-16T13:03:02.553Z</time>
      </trkpt>
      <trkpt lat="46.48132" lon="8.24765">
        <ele>1572</ele>
        <time>2020-07-16T13:03:03.553Z</time>
      </trkpt>
      <trkpt lat="46.48131" lon="8.24766">
        <ele>1572</ele>
        <time>2020-07-16T13:03:04.553Z</time>
      </trkpt>
      <trkpt lat="46.48131" lon="8.24766">
        <ele>1572</ele>
        <time>2020-07-16T13:03:05.554Z</time>
      </trkpt>
      <trkpt lat="46.4813" lon="8.24767">
        <ele>1572</ele>
        <time>2020-07-16T13:03:06.554Z</time>
      </trkpt>
      <trkpt lat="46.48129" lon="8.24768">
        <ele>1571</ele>
        <time>2020-07-16T13:03:07.554Z</time>
      </trkpt>
      <trkpt lat="46.48129" lon="8.24768">
        <ele>1571</ele>
        <time>2020-07-16T13:03:08.553Z</time>
      </trkpt>
      <trkpt lat="46.48128" lon="8.24769">
        <ele>1571</ele>
        <time>2020-07-16T13:03:09.553Z</time>
      </trkpt>
      <trkpt lat="46.48128" lon="8.24769">
        <ele>1571</ele>
        <time>2020-07-16T13:03:10.553Z</time>
      </trkpt>
      <trkpt lat="46.48128" lon="8.24768">
        <ele>1571</ele>
        <time>2020-07-16T13:03:11.554Z</time>
      </trkpt>
      <trkpt lat="46.48127" lon="8.24768">
        <ele>1571</ele>
        <time>2020-07-16T13:03:12.554Z</time>
      </trkpt>
      <trkpt lat="46.48127" lon="8.24768">
        <ele>1571</ele>
        <time>2020-07-16T13:03:13.553Z</time>
      </trkpt>
      <trkpt lat="46.48127" lon="8.24769">
        <ele>1571</ele>
        <time>2020-07-16T13:03:14.554Z</time>
      </trkpt>
      <trkpt lat="46.48127" lon="8.24769">
        <ele>1571</ele>
        <time>2020-07-16T13:03:15.554Z</time>
      </trkpt>
      <trkpt lat="46.48126" lon="8.24769">
        <ele>1571</ele>
        <time>2020-07-16T13:03:16.554Z</time>
      </trkpt>
      <trkpt lat="46.48125" lon="8.24769">
        <ele>1570</ele>
        <time>2020-07-16T13:03:17.553Z</time>
      </trkpt>
      <trkpt lat="46.48124" lon="8.24769">
        <ele>1570</ele>
        <time>2020-07-16T13:03:18.554Z</time>
      </trkpt>
      <trkpt lat="46.48124" lon="8.2477">
        <ele>1570</ele>
        <time>2020-07-16T13:03:19.553Z</time>
      </trkpt>
      <trkpt lat="46.48124" lon="8.2477">
        <ele>1570</ele>
        <time>2020-07-16T13:03:20.553Z</time>
      </trkpt>
      <trkpt lat="46.48124" lon="8.2477">
        <ele>1571</ele>
        <time>2020-07-16T13:03:21.554Z</time>
      </trkpt>
      <trkpt lat="46.48123" lon="8.2477">
        <ele>1571</ele>
        <time>2020-07-16T13:03:22.553Z</time>
      </trkpt>
      <trkpt lat="46.48123" lon="8.2477">
        <ele>1571</ele>
        <time>2020-07-16T13:03:23.554Z</time>
      </trkpt>
      <trkpt lat="46.48123" lon="8.24771">
        <ele>1572</ele>
        <time>2020-07-16T13:03:24.554Z</time>
      </trkpt>
      <trkpt lat="46.48122" lon="8.24771">
        <ele>1572</ele>
        <time>2020-07-16T13:03:25.554Z</time>
      </trkpt>
      <trkpt lat="46.48122" lon="8.24771">
        <ele>1573</ele>
        <time>2020-07-16T13:03:26.554Z</time>
      </trkpt>
      <trkpt lat="46.48121" lon="8.24771">
        <ele>1573</ele>
        <time>2020-07-16T13:03:27.554Z</time>
      </trkpt>
      <trkpt lat="46.4812" lon="8.24772">
        <ele>1573</ele>
        <time>2020-07-16T13:03:28.553Z</time>
      </trkpt>
      <trkpt lat="46.4812" lon="8.24771">
        <ele>1573</ele>
        <time>2020-07-16T13:03:29.554Z</time>
      </trkpt>
      <trkpt lat="46.48119" lon="8.24771">
        <ele>1574</ele>
        <time>2020-07-16T13:03:30.553Z</time>
      </trkpt>
      <trkpt lat="46.48119" lon="8.2477">
        <ele>1573</ele>
        <time>2020-07-16T13:03:31.554Z</time>
      </trkpt>
      <trkpt lat="46.48118" lon="8.2477">
        <ele>1573</ele>
        <time>2020-07-16T13:03:32.554Z</time>
      </trkpt>
      <trkpt lat="46.48117" lon="8.2477">
        <ele>1574</ele>
        <time>2020-07-16T13:03:33.554Z</time>
      </trkpt>
      <trkpt lat="46.48117" lon="8.2477">
        <ele>1574</ele>
        <time>2020-07-16T13:03:34.553Z</time>
      </trkpt>
      <trkpt lat="46.48116" lon="8.2477">
        <ele>1574</ele>
        <time>2020-07-16T13:03:35.554Z</time>
      </trkpt>
      <trkpt lat="46.48115" lon="8.24769">
        <ele>1575</ele>
        <time>2020-07-16T13:03:36.553Z</time>
      </trkpt>
      <trkpt lat="46.48114" lon="8.24769">
        <ele>1575</ele>
        <time>2020-07-16T13:03:37.554Z</time>
      </trkpt>
      <trkpt lat="46.48114" lon="8.24769">
        <ele>1576</ele>
        <time>2020-07-16T13:03:38.554Z</time>
      </trkpt>
      <trkpt lat="46.48113" lon="8.24768">
        <ele>1576</ele>
        <time>2020-07-16T13:03:39.554Z</time>
      </trkpt>
      <trkpt lat="46.48113" lon="8.24768">
        <ele>1576</ele>
        <time>2020-07-16T13:03:40.553Z</time>
      </trkpt>
      <trkpt lat="46.48113" lon="8.24767">
        <ele>1575</ele>
        <time>2020-07-16T13:03:41.554Z</time>
      </trkpt>
      <trkpt lat="46.48112" lon="8.24766">
        <ele>1575</ele>
        <time>2020-07-16T13:03:42.554Z</time>
      </trkpt>
      <trkpt lat="46.48112" lon="8.24765">
        <ele>1575</ele>
        <time>2020-07-16T13:03:43.554Z</time>
      </trkpt>
      <trkpt lat="46.48112" lon="8.24764">
        <ele>1575</ele>
        <time>2020-07-16T13:03:44.554Z</time>
      </trkpt>
      <trkpt lat="46.48112" lon="8.24763">
        <ele>1575</ele>
        <time>2020-07-16T13:03:45.554Z</time>
      </trkpt>
      <trkpt lat="46.48111" lon="8.24761">
        <ele>1575</ele>
        <time>2020-07-16T13:03:46.553Z</time>
      </trkpt>
      <trkpt lat="46.48111" lon="8.2476">
        <ele>1576</ele>
        <time>2020-07-16T13:03:47.554Z</time>
      </trkpt>
      <trkpt lat="46.4811" lon="8.24759">
        <ele>1576</ele>
        <time>2020-07-16T13:03:48.554Z</time>
      </trkpt>
      <trkpt lat="46.48109" lon="8.24758">
        <ele>1576</ele>
        <time>2020-07-16T13:03:49.554Z</time>
      </trkpt>
      <trkpt lat="46.48109" lon="8.24757">
        <ele>1577</ele>
        <time>2020-07-16T13:03:50.553Z</time>
      </trkpt>
      <trkpt lat="46.48109" lon="8.24756">
        <ele>1577</ele>
        <time>2020-07-16T13:03:51.554Z</time>
      </trkpt>
      <trkpt lat="46.48109" lon="8.24755">
        <ele>1576</ele>
        <time>2020-07-16T13:03:52.553Z</time>
      </trkpt>
      <trkpt lat="46.48108" lon="8.24754">
        <ele>1576</ele>
        <time>2020-07-16T13:03:53.553Z</time>
      </trkpt>
      <trkpt lat="46.48107" lon="8.24753">
        <ele>1576</ele>
        <time>2020-07-16T13:03:54.554Z</time>
      </trkpt>
      <trkpt lat="46.48107" lon="8.24752">
        <ele>1576</ele>
        <time>2020-07-16T13:03:55.553Z</time>
      </trkpt>
      <trkpt lat="46.48106" lon="8.24751">
        <ele>1576</ele>
        <time>2020-07-16T13:03:56.553Z</time>
      </trkpt>
      <trkpt lat="46.48105" lon="8.24751">
        <ele>1576</ele>
        <time>2020-07-16T13:03:57.554Z</time>
      </trkpt>
      <trkpt lat="46.48104" lon="8.2475">
        <ele>1576</ele>
        <time>2020-07-16T13:03:58.553Z</time>
      </trkpt>
      <trkpt lat="46.48104" lon="8.24749">
        <ele>1576</ele>
        <time>2020-07-16T13:03:59.554Z</time>
      </trkpt>
      <trkpt lat="46.48103" lon="8.24748">
        <ele>1576</ele>
        <time>2020-07-16T13:04:00.554Z</time>
      </trkpt>
      <trkpt lat="46.48102" lon="8.24748">
        <ele>1576</ele>
        <time>2020-07-16T13:04:01.553Z</time>
      </trkpt>
      <trkpt lat="46.48101" lon="8.24748">
        <ele>1576</ele>
        <time>2020-07-16T13:04:02.554Z</time>
      </trkpt>
      <trkpt lat="46.481" lon="8.24748">
        <ele>1576</ele>
        <time>2020-07-16T13:04:03.553Z</time>
      </trkpt>
      <trkpt lat="46.48099" lon="8.24747">
        <ele>1576</ele>
        <time>2020-07-16T13:04:04.554Z</time>
      </trkpt>
      <trkpt lat="46.48098" lon="8.24747">
        <ele>1577</ele>
        <time>2020-07-16T13:04:05.553Z</time>
      </trkpt>
      <trkpt lat="46.48098" lon="8.24747">
        <ele>1577</ele>
        <time>2020-07-16T13:04:06.554Z</time>
      </trkpt>
      <trkpt lat="46.48097" lon="8.24746">
        <ele>1577</ele>
        <time>2020-07-16T13:04:07.554Z</time>
      </trkpt>
      <trkpt lat="46.48096" lon="8.24746">
        <ele>1577</ele>
        <time>2020-07-16T13:04:08.553Z</time>
      </trkpt>
      <trkpt lat="46.48095" lon="8.24746">
        <ele>1577</ele>
        <time>2020-07-16T13:04:09.554Z</time>
      </trkpt>
      <trkpt lat="46.48094" lon="8.24745">
        <ele>1577</ele>
        <time>2020-07-16T13:04:10.554Z</time>
      </trkpt>
      <trkpt lat="46.48094" lon="8.24745">
        <ele>1578</ele>
        <time>2020-07-16T13:04:11.553Z</time>
      </trkpt>
      <trkpt lat="46.48093" lon="8.24745">
        <ele>1578</ele>
        <time>2020-07-16T13:04:12.554Z</time>
      </trkpt>
      <trkpt lat="46.48092" lon="8.24745">
        <ele>1578</ele>
        <time>2020-07-16T13:04:13.554Z</time>
      </trkpt>
      <trkpt lat="46.48092" lon="8.24745">
        <ele>1579</ele>
        <time>2020-07-16T13:04:14.554Z</time>
      </trkpt>
      <trkpt lat="46.48092" lon="8.24744">
        <ele>1579</ele>
        <time>2020-07-16T13:04:15.554Z</time>
      </trkpt>
      <trkpt lat="46.48092" lon="8.24743">
        <ele>1579</ele>
        <time>2020-07-16T13:04:16.554Z</time>
      </trkpt>
      <trkpt lat="46.48092" lon="8.24743">
        <ele>1580</ele>
        <time>2020-07-16T13:04:17.554Z</time>
      </trkpt>
      <trkpt lat="46.48092" lon="8.24742">
        <ele>1580</ele>
        <time>2020-07-16T13:04:18.554Z</time>
      </trkpt>
      <trkpt lat="46.48092" lon="8.24741">
        <ele>1581</ele>
        <time>2020-07-16T13:04:19.553Z</time>
      </trkpt>
      <trkpt lat="46.48092" lon="8.2474">
        <ele>1581</ele>
        <time>2020-07-16T13:04:20.554Z</time>
      </trkpt>
      <trkpt lat="46.48092" lon="8.24739">
        <ele>1582</ele>
        <time>2020-07-16T13:04:21.553Z</time>
      </trkpt>
      <trkpt lat="46.48092" lon="8.24738">
        <ele>1583</ele>
        <time>2020-07-16T13:04:22.554Z</time>
      </trkpt>
      <trkpt lat="46.48092" lon="8.24737">
        <ele>1583</ele>
        <time>2020-07-16T13:04:23.554Z</time>
      </trkpt>
      <trkpt lat="46.48092" lon="8.24736">
        <ele>1583</ele>
        <time>2020-07-16T13:04:24.553Z</time>
      </trkpt>
      <trkpt lat="46.48092" lon="8.24736">
        <ele>1583</ele>
        <time>2020-07-16T13:04:25.553Z</time>
      </trkpt>
      <trkpt lat="46.48091" lon="8.24735">
        <ele>1583</ele>
        <time>2020-07-16T13:04:26.554Z</time>
      </trkpt>
      <trkpt lat="46.4809" lon="8.24734">
        <ele>1583</ele>
        <time>2020-07-16T13:04:27.554Z</time>
      </trkpt>
      <trkpt lat="46.4809" lon="8.24733">
        <ele>1582</ele>
        <time>2020-07-16T13:04:28.553Z</time>
      </trkpt>
      <trkpt lat="46.48089" lon="8.24732">
        <ele>1582</ele>
        <time>2020-07-16T13:04:29.553Z</time>
      </trkpt>
      <trkpt lat="46.48089" lon="8.24731">
        <ele>1582</ele>
        <time>2020-07-16T13:04:30.554Z</time>
      </trkpt>
      <trkpt lat="46.48089" lon="8.2473">
        <ele>1582</ele>
        <time>2020-07-16T13:04:31.554Z</time>
      </trkpt>
      <trkpt lat="46.48089" lon="8.24729">
        <ele>1581</ele>
        <time>2020-07-16T13:04:32.554Z</time>
      </trkpt>
      <trkpt lat="46.48088" lon="8.24728">
        <ele>1582</ele>
        <time>2020-07-16T13:04:33.554Z</time>
      </trkpt>
      <trkpt lat="46.48088" lon="8.24727">
        <ele>1582</ele>
        <time>2020-07-16T13:04:34.554Z</time>
      </trkpt>
      <trkpt lat="46.48088" lon="8.24726">
        <ele>1582</ele>
        <time>2020-07-16T13:04:35.554Z</time>
      </trkpt>
      <trkpt lat="46.48087" lon="8.24725">
        <ele>1582</ele>
        <time>2020-07-16T13:04:36.554Z</time>
      </trkpt>
      <trkpt lat="46.48087" lon="8.24723">
        <ele>1582</ele>
        <time>2020-07-16T13:04:37.553Z</time>
      </trkpt>
      <trkpt lat="46.48087" lon="8.24722">
        <ele>1582</ele>
        <time>2020-07-16T13:04:38.553Z</time>
      </trkpt>
      <trkpt lat="46.48086" lon="8.24721">
        <ele>1582</ele>
        <time>2020-07-16T13:04:39.554Z</time>
      </trkpt>
      <trkpt lat="46.48086" lon="8.2472">
        <ele>1581</ele>
        <time>2020-07-16T13:04:40.553Z</time>
      </trkpt>
      <trkpt lat="46.48086" lon="8.24719">
        <ele>1582</ele>
        <time>2020-07-16T13:04:41.554Z</time>
      </trkpt>
      <trkpt lat="46.48085" lon="8.24719">
        <ele>1582</ele>
        <time>2020-07-16T13:04:42.554Z</time>
      </trkpt>
      <trkpt lat="46.48085" lon="8.24719">
        <ele>1582</ele>
        <time>2020-07-16T13:04:43.553Z</time>
      </trkpt>
      <trkpt lat="46.48083" lon="8.24715">
        <ele>1581</ele>
        <time>2020-07-16T13:04:44.554Z</time>
      </trkpt>
      <trkpt lat="46.48083" lon="8.24714">
        <ele>1581</ele>
        <time>2020-07-16T13:04:45.554Z</time>
      </trkpt>
      <trkpt lat="46.48083" lon="8.24714">
        <ele>1581</ele>
        <time>2020-07-16T13:04:46.555Z</time>
      </trkpt>
      <trkpt lat="46.48083" lon="8.24714">
        <ele>1581</ele>
        <time>2020-07-16T13:04:47.554Z</time>
      </trkpt>
      <trkpt lat="46.48082" lon="8.24713">
        <ele>1581</ele>
        <time>2020-07-16T13:04:48.554Z</time>
      </trkpt>
      <trkpt lat="46.48081" lon="8.24712">
        <ele>1581</ele>
        <time>2020-07-16T13:04:49.555Z</time>
      </trkpt>
      <trkpt lat="46.4808" lon="8.24712">
        <ele>1581</ele>
        <time>2020-07-16T13:04:50.555Z</time>
      </trkpt>
      <trkpt lat="46.48079" lon="8.2471">
        <ele>1581</ele>
        <time>2020-07-16T13:04:51.554Z</time>
      </trkpt>
      <trkpt lat="46.48078" lon="8.2471">
        <ele>1581</ele>
        <time>2020-07-16T13:04:52.554Z</time>
      </trkpt>
      <trkpt lat="46.48077" lon="8.24709">
        <ele>1582</ele>
        <time>2020-07-16T13:04:53.554Z</time>
      </trkpt>
      <trkpt lat="46.48076" lon="8.24708">
        <ele>1583</ele>
        <time>2020-07-16T13:04:54.554Z</time>
      </trkpt>
      <trkpt lat="46.48075" lon="8.24707">
        <ele>1583</ele>
        <time>2020-07-16T13:04:55.554Z</time>
      </trkpt>
      <trkpt lat="46.48075" lon="8.24706">
        <ele>1583</ele>
        <time>2020-07-16T13:04:56.554Z</time>
      </trkpt>
      <trkpt lat="46.48075" lon="8.24707">
        <ele>1582</ele>
        <time>2020-07-16T13:04:57.554Z</time>
      </trkpt>
      <trkpt lat="46.48075" lon="8.24707">
        <ele>1582</ele>
        <time>2020-07-16T13:04:58.554Z</time>
      </trkpt>
      <trkpt lat="46.48076" lon="8.24707">
        <ele>1580</ele>
        <time>2020-07-16T13:04:59.557Z</time>
      </trkpt>
      <trkpt lat="46.48076" lon="8.24707">
        <ele>1579</ele>
        <time>2020-07-16T13:05:00.556Z</time>
      </trkpt>
      <trkpt lat="46.48076" lon="8.24708">
        <ele>1579</ele>
        <time>2020-07-16T13:05:01.556Z</time>
      </trkpt>
      <trkpt lat="46.48075" lon="8.24711">
        <ele>1582</ele>
        <time>2020-07-16T13:05:02.557Z</time>
      </trkpt>
      <trkpt lat="46.48075" lon="8.2471">
        <ele>1582</ele>
        <time>2020-07-16T13:05:03.556Z</time>
      </trkpt>
      <trkpt lat="46.48074" lon="8.24704">
        <ele>1582</ele>
        <time>2020-07-16T13:05:04.556Z</time>
      </trkpt>
      <trkpt lat="46.48074" lon="8.24704">
        <ele>1582</ele>
        <time>2020-07-16T13:05:05.557Z</time>
      </trkpt>
      <trkpt lat="46.48073" lon="8.24704">
        <ele>1582</ele>
        <time>2020-07-16T13:05:06.556Z</time>
      </trkpt>
      <trkpt lat="46.48072" lon="8.24704">
        <ele>1582</ele>
        <time>2020-07-16T13:05:07.556Z</time>
      </trkpt>
      <trkpt lat="46.48072" lon="8.24704">
        <ele>1583</ele>
        <time>2020-07-16T13:05:08.557Z</time>
      </trkpt>
      <trkpt lat="46.48072" lon="8.24704">
        <ele>1583</ele>
        <time>2020-07-16T13:05:09.557Z</time>
      </trkpt>
      <trkpt lat="46.48072" lon="8.24704">
        <ele>1583</ele>
        <time>2020-07-16T13:05:10.557Z</time>
      </trkpt>
      <trkpt lat="46.48072" lon="8.24704">
        <ele>1584</ele>
        <time>2020-07-16T13:05:11.556Z</time>
      </trkpt>
      <trkpt lat="46.48072" lon="8.24704">
        <ele>1585</ele>
        <time>2020-07-16T13:05:12.557Z</time>
      </trkpt>
      <trkpt lat="46.48072" lon="8.24704">
        <ele>1585</ele>
        <time>2020-07-16T13:05:13.556Z</time>
      </trkpt>
      <trkpt lat="46.48075" lon="8.24705">
        <ele>1576</ele>
        <time>2020-07-16T13:05:14.556Z</time>
      </trkpt>
      <trkpt lat="46.48076" lon="8.24705">
        <ele>1576</ele>
        <time>2020-07-16T13:05:15.556Z</time>
      </trkpt>
      <trkpt lat="46.48075" lon="8.24706">
        <ele>1575</ele>
        <time>2020-07-16T13:05:16.557Z</time>
      </trkpt>
      <trkpt lat="46.48076" lon="8.24708">
        <ele>1578</ele>
        <time>2020-07-16T13:05:17.557Z</time>
      </trkpt>
      <trkpt lat="46.48075" lon="8.24712">
        <ele>1577</ele>
        <time>2020-07-16T13:05:18.559Z</time>
      </trkpt>
      <trkpt lat="46.48075" lon="8.24712">
        <ele>1577</ele>
        <time>2020-07-16T13:05:19.559Z</time>
      </trkpt>
      <trkpt lat="46.48075" lon="8.24713">
        <ele>1576</ele>
        <time>2020-07-16T13:05:20.558Z</time>
      </trkpt>
      <trkpt lat="46.48075" lon="8.24713">
        <ele>1575</ele>
        <time>2020-07-16T13:05:21.558Z</time>
      </trkpt>
      <trkpt lat="46.48075" lon="8.24713">
        <ele>1575</ele>
        <time>2020-07-16T13:05:22.559Z</time>
      </trkpt>
      <trkpt lat="46.48073" lon="8.24712">
        <ele>1571</ele>
        <time>2020-07-16T13:05:23.559Z</time>
      </trkpt>
      <trkpt lat="46.48075" lon="8.24708">
        <ele>1561</ele>
        <time>2020-07-16T13:05:24.559Z</time>
      </trkpt>
      <trkpt lat="46.48077" lon="8.24706">
        <ele>1560</ele>
        <time>2020-07-16T13:05:25.558Z</time>
      </trkpt>
      <trkpt lat="46.48078" lon="8.24706">
        <ele>1560</ele>
        <time>2020-07-16T13:05:26.558Z</time>
      </trkpt>
      <trkpt lat="46.48079" lon="8.24705">
        <ele>1560</ele>
        <time>2020-07-16T13:05:27.558Z</time>
      </trkpt>
      <trkpt lat="46.4808" lon="8.24705">
        <ele>1560</ele>
        <time>2020-07-16T13:05:28.559Z</time>
      </trkpt>
      <trkpt lat="46.48081" lon="8.24703">
        <ele>1561</ele>
        <time>2020-07-16T13:05:29.558Z</time>
      </trkpt>
      <trkpt lat="46.48082" lon="8.24702">
        <ele>1562</ele>
        <time>2020-07-16T13:05:30.558Z</time>
      </trkpt>
      <trkpt lat="46.48083" lon="8.24701">
        <ele>1563</ele>
        <time>2020-07-16T13:05:31.558Z</time>
      </trkpt>
      <trkpt lat="46.48083" lon="8.247">
        <ele>1564</ele>
        <time>2020-07-16T13:05:32.559Z</time>
      </trkpt>
      <trkpt lat="46.48084" lon="8.24699">
        <ele>1565</ele>
        <time>2020-07-16T13:05:33.558Z</time>
      </trkpt>
      <trkpt lat="46.48084" lon="8.24697">
        <ele>1566</ele>
        <time>2020-07-16T13:05:34.558Z</time>
      </trkpt>
      <trkpt lat="46.48085" lon="8.24696">
        <ele>1567</ele>
        <time>2020-07-16T13:05:35.558Z</time>
      </trkpt>
      <trkpt lat="46.48086" lon="8.24694">
        <ele>1568</ele>
        <time>2020-07-16T13:05:36.558Z</time>
      </trkpt>
      <trkpt lat="46.48086" lon="8.24693">
        <ele>1569</ele>
        <time>2020-07-16T13:05:37.558Z</time>
      </trkpt>
      <trkpt lat="46.48086" lon="8.24692">
        <ele>1570</ele>
        <time>2020-07-16T13:05:38.558Z</time>
      </trkpt>
      <trkpt lat="46.48086" lon="8.2469">
        <ele>1571</ele>
        <time>2020-07-16T13:05:39.558Z</time>
      </trkpt>
      <trkpt lat="46.48087" lon="8.24689">
        <ele>1572</ele>
        <time>2020-07-16T13:05:40.558Z</time>
      </trkpt>
      <trkpt lat="46.48087" lon="8.24687">
        <ele>1572</ele>
        <time>2020-07-16T13:05:41.559Z</time>
      </trkpt>
      <trkpt lat="46.48087" lon="8.24686">
        <ele>1573</ele>
        <time>2020-07-16T13:05:42.559Z</time>
      </trkpt>
      <trkpt lat="46.48087" lon="8.24685">
        <ele>1573</ele>
        <time>2020-07-16T13:05:43.558Z</time>
      </trkpt>
      <trkpt lat="46.48086" lon="8.24684">
        <ele>1573</ele>
        <time>2020-07-16T13:05:44.558Z</time>
      </trkpt>
      <trkpt lat="46.48086" lon="8.24682">
        <ele>1574</ele>
        <time>2020-07-16T13:05:45.559Z</time>
      </trkpt>
      <trkpt lat="46.48086" lon="8.24681">
        <ele>1574</ele>
        <time>2020-07-16T13:05:46.559Z</time>
      </trkpt>
      <trkpt lat="46.48085" lon="8.2468">
        <ele>1575</ele>
        <time>2020-07-16T13:05:47.559Z</time>
      </trkpt>
      <trkpt lat="46.48085" lon="8.24678">
        <ele>1575</ele>
        <time>2020-07-16T13:05:48.559Z</time>
      </trkpt>
      <trkpt lat="46.48085" lon="8.24677">
        <ele>1576</ele>
        <time>2020-07-16T13:05:49.559Z</time>
      </trkpt>
      <trkpt lat="46.48085" lon="8.24676">
        <ele>1576</ele>
        <time>2020-07-16T13:05:50.559Z</time>
      </trkpt>
      <trkpt lat="46.48085" lon="8.24674">
        <ele>1576</ele>
        <time>2020-07-16T13:05:51.559Z</time>
      </trkpt>
      <trkpt lat="46.48085" lon="8.24673">
        <ele>1575</ele>
        <time>2020-07-16T13:05:52.559Z</time>
      </trkpt>
      <trkpt lat="46.48085" lon="8.24672">
        <ele>1575</ele>
        <time>2020-07-16T13:05:53.559Z</time>
      </trkpt>
      <trkpt lat="46.48084" lon="8.2467">
        <ele>1575</ele>
        <time>2020-07-16T13:05:54.558Z</time>
      </trkpt>
      <trkpt lat="46.48084" lon="8.24669">
        <ele>1575</ele>
        <time>2020-07-16T13:05:55.558Z</time>
      </trkpt>
      <trkpt lat="46.48084" lon="8.24668">
        <ele>1575</ele>
        <time>2020-07-16T13:05:56.558Z</time>
      </trkpt>
      <trkpt lat="46.48084" lon="8.24667">
        <ele>1574</ele>
        <time>2020-07-16T13:05:57.559Z</time>
      </trkpt>
      <trkpt lat="46.48084" lon="8.24665">
        <ele>1575</ele>
        <time>2020-07-16T13:05:58.558Z</time>
      </trkpt>
      <trkpt lat="46.48083" lon="8.24664">
        <ele>1575</ele>
        <time>2020-07-16T13:05:59.559Z</time>
      </trkpt>
      <trkpt lat="46.48083" lon="8.24663">
        <ele>1576</ele>
        <time>2020-07-16T13:06:00.559Z</time>
      </trkpt>
      <trkpt lat="46.48083" lon="8.24661">
        <ele>1576</ele>
        <time>2020-07-16T13:06:01.558Z</time>
      </trkpt>
      <trkpt lat="46.48082" lon="8.2466">
        <ele>1577</ele>
        <time>2020-07-16T13:06:02.558Z</time>
      </trkpt>
      <trkpt lat="46.48082" lon="8.24659">
        <ele>1578</ele>
        <time>2020-07-16T13:06:03.559Z</time>
      </trkpt>
      <trkpt lat="46.48082" lon="8.24657">
        <ele>1578</ele>
        <time>2020-07-16T13:06:04.559Z</time>
      </trkpt>
      <trkpt lat="46.48081" lon="8.24656">
        <ele>1579</ele>
        <time>2020-07-16T13:06:05.559Z</time>
      </trkpt>
      <trkpt lat="46.48081" lon="8.24655">
        <ele>1579</ele>
        <time>2020-07-16T13:06:06.558Z</time>
      </trkpt>
      <trkpt lat="46.4808" lon="8.24653">
        <ele>1579</ele>
        <time>2020-07-16T13:06:07.558Z</time>
      </trkpt>
      <trkpt lat="46.4808" lon="8.24652">
        <ele>1580</ele>
        <time>2020-07-16T13:06:08.559Z</time>
      </trkpt>
      <trkpt lat="46.4808" lon="8.24651">
        <ele>1580</ele>
        <time>2020-07-16T13:06:09.558Z</time>
      </trkpt>
      <trkpt lat="46.48079" lon="8.2465">
        <ele>1580</ele>
        <time>2020-07-16T13:06:10.559Z</time>
      </trkpt>
      <trkpt lat="46.48079" lon="8.24649">
        <ele>1580</ele>
        <time>2020-07-16T13:06:11.559Z</time>
      </trkpt>
      <trkpt lat="46.48078" lon="8.24648">
        <ele>1580</ele>
        <time>2020-07-16T13:06:12.559Z</time>
      </trkpt>
      <trkpt lat="46.48078" lon="8.24647">
        <ele>1580</ele>
        <time>2020-07-16T13:06:13.559Z</time>
      </trkpt>
      <trkpt lat="46.48077" lon="8.24646">
        <ele>1580</ele>
        <time>2020-07-16T13:06:14.559Z</time>
      </trkpt>
      <trkpt lat="46.48077" lon="8.24646">
        <ele>1581</ele>
        <time>2020-07-16T13:06:15.559Z</time>
      </trkpt>
      <trkpt lat="46.48077" lon="8.24645">
        <ele>1581</ele>
        <time>2020-07-16T13:06:16.558Z</time>
      </trkpt>
      <trkpt lat="46.48076" lon="8.24644">
        <ele>1581</ele>
        <time>2020-07-16T13:06:17.559Z</time>
      </trkpt>
      <trkpt lat="46.48076" lon="8.24643">
        <ele>1581</ele>
        <time>2020-07-16T13:06:18.559Z</time>
      </trkpt>
      <trkpt lat="46.48076" lon="8.24643">
        <ele>1582</ele>
        <time>2020-07-16T13:06:19.559Z</time>
      </trkpt>
      <trkpt lat="46.48075" lon="8.24643">
        <ele>1582</ele>
        <time>2020-07-16T13:06:20.559Z</time>
      </trkpt>
      <trkpt lat="46.48075" lon="8.24643">
        <ele>1583</ele>
        <time>2020-07-16T13:06:21.559Z</time>
      </trkpt>
      <trkpt lat="46.48075" lon="8.24641">
        <ele>1585</ele>
        <time>2020-07-16T13:06:22.558Z</time>
      </trkpt>
      <trkpt lat="46.48075" lon="8.2464">
        <ele>1585</ele>
        <time>2020-07-16T13:06:23.559Z</time>
      </trkpt>
      <trkpt lat="46.48075" lon="8.24639">
        <ele>1585</ele>
        <time>2020-07-16T13:06:24.558Z</time>
      </trkpt>
      <trkpt lat="46.48075" lon="8.24638">
        <ele>1585</ele>
        <time>2020-07-16T13:06:25.559Z</time>
      </trkpt>
      <trkpt lat="46.48075" lon="8.24637">
        <ele>1585</ele>
        <time>2020-07-16T13:06:26.559Z</time>
      </trkpt>
      <trkpt lat="46.48074" lon="8.24636">
        <ele>1585</ele>
        <time>2020-07-16T13:06:27.558Z</time>
      </trkpt>
      <trkpt lat="46.48074" lon="8.24634">
        <ele>1584</ele>
        <time>2020-07-16T13:06:28.558Z</time>
      </trkpt>
      <trkpt lat="46.48074" lon="8.24633">
        <ele>1583</ele>
        <time>2020-07-16T13:06:29.559Z</time>
      </trkpt>
      <trkpt lat="46.48073" lon="8.24632">
        <ele>1583</ele>
        <time>2020-07-16T13:06:30.558Z</time>
      </trkpt>
      <trkpt lat="46.48073" lon="8.24631">
        <ele>1583</ele>
        <time>2020-07-16T13:06:31.558Z</time>
      </trkpt>
      <trkpt lat="46.48073" lon="8.2463">
        <ele>1583</ele>
        <time>2020-07-16T13:06:32.558Z</time>
      </trkpt>
      <trkpt lat="46.48073" lon="8.24629">
        <ele>1583</ele>
        <time>2020-07-16T13:06:33.558Z</time>
      </trkpt>
      <trkpt lat="46.48073" lon="8.24628">
        <ele>1583</ele>
        <time>2020-07-16T13:06:34.558Z</time>
      </trkpt>
      <trkpt lat="46.48073" lon="8.24627">
        <ele>1584</ele>
        <time>2020-07-16T13:06:35.558Z</time>
      </trkpt>
      <trkpt lat="46.48072" lon="8.24626">
        <ele>1584</ele>
        <time>2020-07-16T13:06:36.558Z</time>
      </trkpt>
      <trkpt lat="46.48072" lon="8.24625">
        <ele>1585</ele>
        <time>2020-07-16T13:06:37.559Z</time>
      </trkpt>
      <trkpt lat="46.48072" lon="8.24624">
        <ele>1585</ele>
        <time>2020-07-16T13:06:38.559Z</time>
      </trkpt>
      <trkpt lat="46.48072" lon="8.24623">
        <ele>1586</ele>
        <time>2020-07-16T13:06:39.559Z</time>
      </trkpt>
      <trkpt lat="46.48072" lon="8.24622">
        <ele>1586</ele>
        <time>2020-07-16T13:06:40.559Z</time>
      </trkpt>
      <trkpt lat="46.48072" lon="8.24621">
        <ele>1587</ele>
        <time>2020-07-16T13:06:41.558Z</time>
      </trkpt>
      <trkpt lat="46.48072" lon="8.2462">
        <ele>1587</ele>
        <time>2020-07-16T13:06:42.559Z</time>
      </trkpt>
      <trkpt lat="46.48071" lon="8.24618">
        <ele>1587</ele>
        <time>2020-07-16T13:06:43.559Z</time>
      </trkpt>
      <trkpt lat="46.4807" lon="8.24617">
        <ele>1587</ele>
        <time>2020-07-16T13:06:44.558Z</time>
      </trkpt>
      <trkpt lat="46.48069" lon="8.24616">
        <ele>1587</ele>
        <time>2020-07-16T13:06:45.559Z</time>
      </trkpt>
      <trkpt lat="46.48069" lon="8.24614">
        <ele>1586</ele>
        <time>2020-07-16T13:06:46.559Z</time>
      </trkpt>
      <trkpt lat="46.48068" lon="8.24613">
        <ele>1586</ele>
        <time>2020-07-16T13:06:47.559Z</time>
      </trkpt>
      <trkpt lat="46.48067" lon="8.24611">
        <ele>1586</ele>
        <time>2020-07-16T13:06:48.558Z</time>
      </trkpt>
      <trkpt lat="46.48067" lon="8.2461">
        <ele>1586</ele>
        <time>2020-07-16T13:06:49.559Z</time>
      </trkpt>
      <trkpt lat="46.48066" lon="8.24608">
        <ele>1586</ele>
        <time>2020-07-16T13:06:50.558Z</time>
      </trkpt>
      <trkpt lat="46.48066" lon="8.24606">
        <ele>1585</ele>
        <time>2020-07-16T13:06:51.559Z</time>
      </trkpt>
      <trkpt lat="46.48065" lon="8.24605">
        <ele>1586</ele>
        <time>2020-07-16T13:06:52.559Z</time>
      </trkpt>
      <trkpt lat="46.48065" lon="8.24604">
        <ele>1586</ele>
        <time>2020-07-16T13:06:53.559Z</time>
      </trkpt>
      <trkpt lat="46.48064" lon="8.24604">
        <ele>1586</ele>
        <time>2020-07-16T13:06:54.558Z</time>
      </trkpt>
      <trkpt lat="46.48063" lon="8.24603">
        <ele>1587</ele>
        <time>2020-07-16T13:06:55.558Z</time>
      </trkpt>
      <trkpt lat="46.48063" lon="8.24602">
        <ele>1587</ele>
        <time>2020-07-16T13:06:56.559Z</time>
      </trkpt>
      <trkpt lat="46.48062" lon="8.24601">
        <ele>1587</ele>
        <time>2020-07-16T13:06:57.558Z</time>
      </trkpt>
      <trkpt lat="46.48061" lon="8.24601">
        <ele>1588</ele>
        <time>2020-07-16T13:06:58.558Z</time>
      </trkpt>
      <trkpt lat="46.48061" lon="8.246">
        <ele>1588</ele>
        <time>2020-07-16T13:06:59.558Z</time>
      </trkpt>
      <trkpt lat="46.4806" lon="8.24599">
        <ele>1588</ele>
        <time>2020-07-16T13:07:00.559Z</time>
      </trkpt>
      <trkpt lat="46.4806" lon="8.24598">
        <ele>1589</ele>
        <time>2020-07-16T13:07:01.558Z</time>
      </trkpt>
      <trkpt lat="46.48059" lon="8.24597">
        <ele>1588</ele>
        <time>2020-07-16T13:07:02.558Z</time>
      </trkpt>
      <trkpt lat="46.48058" lon="8.24596">
        <ele>1588</ele>
        <time>2020-07-16T13:07:03.558Z</time>
      </trkpt>
      <trkpt lat="46.48058" lon="8.24595">
        <ele>1587</ele>
        <time>2020-07-16T13:07:04.559Z</time>
      </trkpt>
      <trkpt lat="46.48057" lon="8.24594">
        <ele>1587</ele>
        <time>2020-07-16T13:07:05.559Z</time>
      </trkpt>
      <trkpt lat="46.48056" lon="8.24593">
        <ele>1587</ele>
        <time>2020-07-16T13:07:06.559Z</time>
      </trkpt>
      <trkpt lat="46.48056" lon="8.24591">
        <ele>1587</ele>
        <time>2020-07-16T13:07:07.558Z</time>
      </trkpt>
      <trkpt lat="46.48055" lon="8.2459">
        <ele>1587</ele>
        <time>2020-07-16T13:07:08.558Z</time>
      </trkpt>
      <trkpt lat="46.48054" lon="8.24589">
        <ele>1587</ele>
        <time>2020-07-16T13:07:09.558Z</time>
      </trkpt>
      <trkpt lat="46.48054" lon="8.24587">
        <ele>1587</ele>
        <time>2020-07-16T13:07:10.559Z</time>
      </trkpt>
      <trkpt lat="46.48053" lon="8.24586">
        <ele>1587</ele>
        <time>2020-07-16T13:07:11.558Z</time>
      </trkpt>
      <trkpt lat="46.48052" lon="8.24585">
        <ele>1587</ele>
        <time>2020-07-16T13:07:12.559Z</time>
      </trkpt>
      <trkpt lat="46.48052" lon="8.24584">
        <ele>1588</ele>
        <time>2020-07-16T13:07:13.558Z</time>
      </trkpt>
      <trkpt lat="46.48051" lon="8.24584">
        <ele>1588</ele>
        <time>2020-07-16T13:07:14.558Z</time>
      </trkpt>
      <trkpt lat="46.4805" lon="8.24583">
        <ele>1589</ele>
        <time>2020-07-16T13:07:15.559Z</time>
      </trkpt>
      <trkpt lat="46.48049" lon="8.24582">
        <ele>1589</ele>
        <time>2020-07-16T13:07:16.559Z</time>
      </trkpt>
      <trkpt lat="46.48049" lon="8.24581">
        <ele>1588</ele>
        <time>2020-07-16T13:07:17.558Z</time>
      </trkpt>
      <trkpt lat="46.48048" lon="8.2458">
        <ele>1588</ele>
        <time>2020-07-16T13:07:18.558Z</time>
      </trkpt>
      <trkpt lat="46.48047" lon="8.24579">
        <ele>1588</ele>
        <time>2020-07-16T13:07:19.558Z</time>
      </trkpt>
      <trkpt lat="46.48047" lon="8.24578">
        <ele>1588</ele>
        <time>2020-07-16T13:07:20.559Z</time>
      </trkpt>
      <trkpt lat="46.48046" lon="8.24578">
        <ele>1588</ele>
        <time>2020-07-16T13:07:21.559Z</time>
      </trkpt>
      <trkpt lat="46.48045" lon="8.24577">
        <ele>1587</ele>
        <time>2020-07-16T13:07:22.558Z</time>
      </trkpt>
      <trkpt lat="46.48043" lon="8.24576">
        <ele>1587</ele>
        <time>2020-07-16T13:07:23.559Z</time>
      </trkpt>
      <trkpt lat="46.48042" lon="8.24575">
        <ele>1587</ele>
        <time>2020-07-16T13:07:24.558Z</time>
      </trkpt>
      <trkpt lat="46.48041" lon="8.24575">
        <ele>1586</ele>
        <time>2020-07-16T13:07:25.559Z</time>
      </trkpt>
      <trkpt lat="46.4804" lon="8.24574">
        <ele>1586</ele>
        <time>2020-07-16T13:07:26.558Z</time>
      </trkpt>
      <trkpt lat="46.48039" lon="8.24573">
        <ele>1586</ele>
        <time>2020-07-16T13:07:27.559Z</time>
      </trkpt>
      <trkpt lat="46.48038" lon="8.24572">
        <ele>1586</ele>
        <time>2020-07-16T13:07:28.558Z</time>
      </trkpt>
      <trkpt lat="46.48038" lon="8.24571">
        <ele>1586</ele>
        <time>2020-07-16T13:07:29.558Z</time>
      </trkpt>
      <trkpt lat="46.48037" lon="8.24571">
        <ele>1587</ele>
        <time>2020-07-16T13:07:30.558Z</time>
      </trkpt>
      <trkpt lat="46.48036" lon="8.2457">
        <ele>1587</ele>
        <time>2020-07-16T13:07:31.559Z</time>
      </trkpt>
      <trkpt lat="46.48035" lon="8.24569">
        <ele>1587</ele>
        <time>2020-07-16T13:07:32.558Z</time>
      </trkpt>
      <trkpt lat="46.48034" lon="8.24569">
        <ele>1588</ele>
        <time>2020-07-16T13:07:33.558Z</time>
      </trkpt>
      <trkpt lat="46.48034" lon="8.24568">
        <ele>1588</ele>
        <time>2020-07-16T13:07:34.559Z</time>
      </trkpt>
      <trkpt lat="46.48033" lon="8.24567">
        <ele>1588</ele>
        <time>2020-07-16T13:07:35.559Z</time>
      </trkpt>
      <trkpt lat="46.48032" lon="8.24566">
        <ele>1587</ele>
        <time>2020-07-16T13:07:36.558Z</time>
      </trkpt>
      <trkpt lat="46.48032" lon="8.24565">
        <ele>1587</ele>
        <time>2020-07-16T13:07:37.559Z</time>
      </trkpt>
      <trkpt lat="46.48031" lon="8.24563">
        <ele>1587</ele>
        <time>2020-07-16T13:07:38.558Z</time>
      </trkpt>
      <trkpt lat="46.4803" lon="8.24562">
        <ele>1586</ele>
        <time>2020-07-16T13:07:39.558Z</time>
      </trkpt>
      <trkpt lat="46.48029" lon="8.24561">
        <ele>1586</ele>
        <time>2020-07-16T13:07:40.559Z</time>
      </trkpt>
      <trkpt lat="46.48028" lon="8.24561">
        <ele>1587</ele>
        <time>2020-07-16T13:07:41.559Z</time>
      </trkpt>
      <trkpt lat="46.48027" lon="8.2456">
        <ele>1587</ele>
        <time>2020-07-16T13:07:42.559Z</time>
      </trkpt>
      <trkpt lat="46.48027" lon="8.24559">
        <ele>1588</ele>
        <time>2020-07-16T13:07:43.559Z</time>
      </trkpt>
      <trkpt lat="46.48026" lon="8.24558">
        <ele>1588</ele>
        <time>2020-07-16T13:07:44.558Z</time>
      </trkpt>
      <trkpt lat="46.48025" lon="8.24557">
        <ele>1589</ele>
        <time>2020-07-16T13:07:45.559Z</time>
      </trkpt>
      <trkpt lat="46.48025" lon="8.24556">
        <ele>1589</ele>
        <time>2020-07-16T13:07:46.558Z</time>
      </trkpt>
      <trkpt lat="46.48024" lon="8.24555">
        <ele>1589</ele>
        <time>2020-07-16T13:07:47.559Z</time>
      </trkpt>
      <trkpt lat="46.48024" lon="8.24553">
        <ele>1589</ele>
        <time>2020-07-16T13:07:48.558Z</time>
      </trkpt>
      <trkpt lat="46.48023" lon="8.24552">
        <ele>1589</ele>
        <time>2020-07-16T13:07:49.558Z</time>
      </trkpt>
      <trkpt lat="46.48023" lon="8.24551">
        <ele>1588</ele>
        <time>2020-07-16T13:07:50.558Z</time>
      </trkpt>
      <trkpt lat="46.48022" lon="8.2455">
        <ele>1587</ele>
        <time>2020-07-16T13:07:51.558Z</time>
      </trkpt>
      <trkpt lat="46.48022" lon="8.24548">
        <ele>1587</ele>
        <time>2020-07-16T13:07:52.559Z</time>
      </trkpt>
      <trkpt lat="46.48021" lon="8.24547">
        <ele>1586</ele>
        <time>2020-07-16T13:07:53.558Z</time>
      </trkpt>
      <trkpt lat="46.4802" lon="8.24546">
        <ele>1586</ele>
        <time>2020-07-16T13:07:54.558Z</time>
      </trkpt>
      <trkpt lat="46.4802" lon="8.24545">
        <ele>1586</ele>
        <time>2020-07-16T13:07:55.559Z</time>
      </trkpt>
      <trkpt lat="46.48019" lon="8.24544">
        <ele>1586</ele>
        <time>2020-07-16T13:07:56.559Z</time>
      </trkpt>
      <trkpt lat="46.48019" lon="8.24542">
        <ele>1587</ele>
        <time>2020-07-16T13:07:57.558Z</time>
      </trkpt>
      <trkpt lat="46.48018" lon="8.24541">
        <ele>1587</ele>
        <time>2020-07-16T13:07:58.558Z</time>
      </trkpt>
      <trkpt lat="46.48018" lon="8.2454">
        <ele>1587</ele>
        <time>2020-07-16T13:07:59.558Z</time>
      </trkpt>
      <trkpt lat="46.48017" lon="8.24539">
        <ele>1587</ele>
        <time>2020-07-16T13:08:00.559Z</time>
      </trkpt>
      <trkpt lat="46.48017" lon="8.24537">
        <ele>1587</ele>
        <time>2020-07-16T13:08:01.558Z</time>
      </trkpt>
      <trkpt lat="46.48016" lon="8.24536">
        <ele>1588</ele>
        <time>2020-07-16T13:08:02.559Z</time>
      </trkpt>
      <trkpt lat="46.48016" lon="8.24535">
        <ele>1588</ele>
        <time>2020-07-16T13:08:03.558Z</time>
      </trkpt>
      <trkpt lat="46.48016" lon="8.24534">
        <ele>1588</ele>
        <time>2020-07-16T13:08:04.558Z</time>
      </trkpt>
      <trkpt lat="46.48015" lon="8.24533">
        <ele>1588</ele>
        <time>2020-07-16T13:08:05.559Z</time>
      </trkpt>
      <trkpt lat="46.48015" lon="8.24531">
        <ele>1589</ele>
        <time>2020-07-16T13:08:06.558Z</time>
      </trkpt>
      <trkpt lat="46.48015" lon="8.2453">
        <ele>1589</ele>
        <time>2020-07-16T13:08:07.558Z</time>
      </trkpt>
      <trkpt lat="46.48014" lon="8.24528">
        <ele>1589</ele>
        <time>2020-07-16T13:08:08.558Z</time>
      </trkpt>
      <trkpt lat="46.48014" lon="8.24527">
        <ele>1589</ele>
        <time>2020-07-16T13:08:09.558Z</time>
      </trkpt>
      <trkpt lat="46.48013" lon="8.24525">
        <ele>1588</ele>
        <time>2020-07-16T13:08:10.559Z</time>
      </trkpt>
      <trkpt lat="46.48013" lon="8.24524">
        <ele>1588</ele>
        <time>2020-07-16T13:08:11.559Z</time>
      </trkpt>
      <trkpt lat="46.48013" lon="8.24523">
        <ele>1588</ele>
        <time>2020-07-16T13:08:12.558Z</time>
      </trkpt>
      <trkpt lat="46.48012" lon="8.24522">
        <ele>1588</ele>
        <time>2020-07-16T13:08:13.558Z</time>
      </trkpt>
      <trkpt lat="46.48012" lon="8.2452">
        <ele>1588</ele>
        <time>2020-07-16T13:08:14.558Z</time>
      </trkpt>
      <trkpt lat="46.48012" lon="8.24519">
        <ele>1588</ele>
        <time>2020-07-16T13:08:15.558Z</time>
      </trkpt>
      <trkpt lat="46.48011" lon="8.24517">
        <ele>1589</ele>
        <time>2020-07-16T13:08:16.558Z</time>
      </trkpt>
      <trkpt lat="46.48011" lon="8.24516">
        <ele>1589</ele>
        <time>2020-07-16T13:08:17.559Z</time>
      </trkpt>
      <trkpt lat="46.4801" lon="8.24515">
        <ele>1589</ele>
        <time>2020-07-16T13:08:18.558Z</time>
      </trkpt>
      <trkpt lat="46.4801" lon="8.24514">
        <ele>1590</ele>
        <time>2020-07-16T13:08:19.558Z</time>
      </trkpt>
      <trkpt lat="46.48009" lon="8.24513">
        <ele>1590</ele>
        <time>2020-07-16T13:08:20.558Z</time>
      </trkpt>
      <trkpt lat="46.48009" lon="8.24512">
        <ele>1590</ele>
        <time>2020-07-16T13:08:21.558Z</time>
      </trkpt>
      <trkpt lat="46.48009" lon="8.2451">
        <ele>1590</ele>
        <time>2020-07-16T13:08:22.559Z</time>
      </trkpt>
      <trkpt lat="46.48008" lon="8.24509">
        <ele>1590</ele>
        <time>2020-07-16T13:08:23.558Z</time>
      </trkpt>
      <trkpt lat="46.48008" lon="8.24507">
        <ele>1589</ele>
        <time>2020-07-16T13:08:24.558Z</time>
      </trkpt>
      <trkpt lat="46.48007" lon="8.24506">
        <ele>1589</ele>
        <time>2020-07-16T13:08:25.558Z</time>
      </trkpt>
      <trkpt lat="46.48007" lon="8.24504">
        <ele>1589</ele>
        <time>2020-07-16T13:08:26.558Z</time>
      </trkpt>
      <trkpt lat="46.48006" lon="8.24503">
        <ele>1589</ele>
        <time>2020-07-16T13:08:27.559Z</time>
      </trkpt>
      <trkpt lat="46.48006" lon="8.24502">
        <ele>1588</ele>
        <time>2020-07-16T13:08:28.559Z</time>
      </trkpt>
      <trkpt lat="46.48005" lon="8.24501">
        <ele>1588</ele>
        <time>2020-07-16T13:08:29.559Z</time>
      </trkpt>
      <trkpt lat="46.48005" lon="8.24499">
        <ele>1588</ele>
        <time>2020-07-16T13:08:30.558Z</time>
      </trkpt>
      <trkpt lat="46.48004" lon="8.24498">
        <ele>1588</ele>
        <time>2020-07-16T13:08:31.559Z</time>
      </trkpt>
      <trkpt lat="46.48004" lon="8.24497">
        <ele>1589</ele>
        <time>2020-07-16T13:08:32.559Z</time>
      </trkpt>
      <trkpt lat="46.48003" lon="8.24496">
        <ele>1589</ele>
        <time>2020-07-16T13:08:33.559Z</time>
      </trkpt>
      <trkpt lat="46.48002" lon="8.24495">
        <ele>1590</ele>
        <time>2020-07-16T13:08:34.559Z</time>
      </trkpt>
      <trkpt lat="46.48001" lon="8.24494">
        <ele>1591</ele>
        <time>2020-07-16T13:08:35.559Z</time>
      </trkpt>
      <trkpt lat="46.48001" lon="8.24493">
        <ele>1591</ele>
        <time>2020-07-16T13:08:36.559Z</time>
      </trkpt>
      <trkpt lat="46.48" lon="8.24492">
        <ele>1592</ele>
        <time>2020-07-16T13:08:37.559Z</time>
      </trkpt>
      <trkpt lat="46.47999" lon="8.24491">
        <ele>1592</ele>
        <time>2020-07-16T13:08:38.559Z</time>
      </trkpt>
      <trkpt lat="46.47999" lon="8.24489">
        <ele>1592</ele>
        <time>2020-07-16T13:08:39.559Z</time>
      </trkpt>
      <trkpt lat="46.47998" lon="8.24488">
        <ele>1592</ele>
        <time>2020-07-16T13:08:40.559Z</time>
      </trkpt>
      <trkpt lat="46.47997" lon="8.24487">
        <ele>1593</ele>
        <time>2020-07-16T13:08:41.559Z</time>
      </trkpt>
      <trkpt lat="46.47996" lon="8.24486">
        <ele>1593</ele>
        <time>2020-07-16T13:08:42.559Z</time>
      </trkpt>
      <trkpt lat="46.47995" lon="8.24485">
        <ele>1593</ele>
        <time>2020-07-16T13:08:43.559Z</time>
      </trkpt>
      <trkpt lat="46.47995" lon="8.24484">
        <ele>1593</ele>
        <time>2020-07-16T13:08:44.558Z</time>
      </trkpt>
      <trkpt lat="46.47994" lon="8.24483">
        <ele>1593</ele>
        <time>2020-07-16T13:08:45.558Z</time>
      </trkpt>
      <trkpt lat="46.47994" lon="8.24482">
        <ele>1592</ele>
        <time>2020-07-16T13:08:46.559Z</time>
      </trkpt>
      <trkpt lat="46.47993" lon="8.24481">
        <ele>1592</ele>
        <time>2020-07-16T13:08:47.559Z</time>
      </trkpt>
      <trkpt lat="46.47993" lon="8.2448">
        <ele>1591</ele>
        <time>2020-07-16T13:08:48.558Z</time>
      </trkpt>
      <trkpt lat="46.47992" lon="8.24479">
        <ele>1592</ele>
        <time>2020-07-16T13:08:49.558Z</time>
      </trkpt>
      <trkpt lat="46.47991" lon="8.24478">
        <ele>1592</ele>
        <time>2020-07-16T13:08:50.559Z</time>
      </trkpt>
      <trkpt lat="46.47991" lon="8.24477">
        <ele>1592</ele>
        <time>2020-07-16T13:08:51.559Z</time>
      </trkpt>
      <trkpt lat="46.4799" lon="8.24477">
        <ele>1592</ele>
        <time>2020-07-16T13:08:52.559Z</time>
      </trkpt>
      <trkpt lat="46.4799" lon="8.24476">
        <ele>1592</ele>
        <time>2020-07-16T13:08:53.559Z</time>
      </trkpt>
      <trkpt lat="46.47989" lon="8.24475">
        <ele>1592</ele>
        <time>2020-07-16T13:08:54.559Z</time>
      </trkpt>
      <trkpt lat="46.47988" lon="8.24474">
        <ele>1592</ele>
        <time>2020-07-16T13:08:55.559Z</time>
      </trkpt>
      <trkpt lat="46.47988" lon="8.24472">
        <ele>1592</ele>
        <time>2020-07-16T13:08:56.559Z</time>
      </trkpt>
      <trkpt lat="46.47987" lon="8.2447">
        <ele>1592</ele>
        <time>2020-07-16T13:08:57.558Z</time>
      </trkpt>
      <trkpt lat="46.47986" lon="8.24469">
        <ele>1592</ele>
        <time>2020-07-16T13:08:58.559Z</time>
      </trkpt>
      <trkpt lat="46.47986" lon="8.24468">
        <ele>1592</ele>
        <time>2020-07-16T13:08:59.559Z</time>
      </trkpt>
      <trkpt lat="46.47985" lon="8.24467">
        <ele>1592</ele>
        <time>2020-07-16T13:09:00.559Z</time>
      </trkpt>
      <trkpt lat="46.47984" lon="8.24466">
        <ele>1592</ele>
        <time>2020-07-16T13:09:01.558Z</time>
      </trkpt>
      <trkpt lat="46.47984" lon="8.24465">
        <ele>1592</ele>
        <time>2020-07-16T13:09:02.559Z</time>
      </trkpt>
      <trkpt lat="46.47983" lon="8.24464">
        <ele>1593</ele>
        <time>2020-07-16T13:09:03.558Z</time>
      </trkpt>
      <trkpt lat="46.47982" lon="8.24463">
        <ele>1593</ele>
        <time>2020-07-16T13:09:04.558Z</time>
      </trkpt>
      <trkpt lat="46.47981" lon="8.24462">
        <ele>1593</ele>
        <time>2020-07-16T13:09:05.559Z</time>
      </trkpt>
      <trkpt lat="46.47981" lon="8.24462">
        <ele>1593</ele>
        <time>2020-07-16T13:09:06.558Z</time>
      </trkpt>
      <trkpt lat="46.4798" lon="8.24461">
        <ele>1593</ele>
        <time>2020-07-16T13:09:07.558Z</time>
      </trkpt>
      <trkpt lat="46.47979" lon="8.2446">
        <ele>1593</ele>
        <time>2020-07-16T13:09:08.559Z</time>
      </trkpt>
      <trkpt lat="46.47978" lon="8.24458">
        <ele>1594</ele>
        <time>2020-07-16T13:09:09.559Z</time>
      </trkpt>
      <trkpt lat="46.47977" lon="8.24457">
        <ele>1593</ele>
        <time>2020-07-16T13:09:10.558Z</time>
      </trkpt>
      <trkpt lat="46.47977" lon="8.24456">
        <ele>1593</ele>
        <time>2020-07-16T13:09:11.559Z</time>
      </trkpt>
      <trkpt lat="46.47976" lon="8.24456">
        <ele>1593</ele>
        <time>2020-07-16T13:09:12.559Z</time>
      </trkpt>
      <trkpt lat="46.47976" lon="8.24455">
        <ele>1593</ele>
        <time>2020-07-16T13:09:13.559Z</time>
      </trkpt>
      <trkpt lat="46.47975" lon="8.24454">
        <ele>1592</ele>
        <time>2020-07-16T13:09:14.559Z</time>
      </trkpt>
      <trkpt lat="46.47974" lon="8.24453">
        <ele>1592</ele>
        <time>2020-07-16T13:09:15.559Z</time>
      </trkpt>
      <trkpt lat="46.47973" lon="8.24452">
        <ele>1592</ele>
        <time>2020-07-16T13:09:16.559Z</time>
      </trkpt>
      <trkpt lat="46.47972" lon="8.24452">
        <ele>1592</ele>
        <time>2020-07-16T13:09:17.559Z</time>
      </trkpt>
      <trkpt lat="46.47971" lon="8.2445">
        <ele>1593</ele>
        <time>2020-07-16T13:09:18.558Z</time>
      </trkpt>
      <trkpt lat="46.4797" lon="8.24449">
        <ele>1593</ele>
        <time>2020-07-16T13:09:19.559Z</time>
      </trkpt>
      <trkpt lat="46.47969" lon="8.24449">
        <ele>1593</ele>
        <time>2020-07-16T13:09:20.559Z</time>
      </trkpt>
      <trkpt lat="46.47968" lon="8.24448">
        <ele>1594</ele>
        <time>2020-07-16T13:09:21.558Z</time>
      </trkpt>
      <trkpt lat="46.47967" lon="8.24447">
        <ele>1594</ele>
        <time>2020-07-16T13:09:22.559Z</time>
      </trkpt>
      <trkpt lat="46.47966" lon="8.24447">
        <ele>1595</ele>
        <time>2020-07-16T13:09:23.558Z</time>
      </trkpt>
      <trkpt lat="46.47965" lon="8.24446">
        <ele>1595</ele>
        <time>2020-07-16T13:09:24.559Z</time>
      </trkpt>
      <trkpt lat="46.47965" lon="8.24445">
        <ele>1595</ele>
        <time>2020-07-16T13:09:25.559Z</time>
      </trkpt>
      <trkpt lat="46.47964" lon="8.24444">
        <ele>1595</ele>
        <time>2020-07-16T13:09:26.559Z</time>
      </trkpt>
      <trkpt lat="46.47963" lon="8.24443">
        <ele>1595</ele>
        <time>2020-07-16T13:09:27.559Z</time>
      </trkpt>
      <trkpt lat="46.47963" lon="8.24441">
        <ele>1595</ele>
        <time>2020-07-16T13:09:28.559Z</time>
      </trkpt>
      <trkpt lat="46.47962" lon="8.2444">
        <ele>1596</ele>
        <time>2020-07-16T13:09:29.559Z</time>
      </trkpt>
      <trkpt lat="46.47961" lon="8.24439">
        <ele>1596</ele>
        <time>2020-07-16T13:09:30.558Z</time>
      </trkpt>
      <trkpt lat="46.47961" lon="8.24438">
        <ele>1597</ele>
        <time>2020-07-16T13:09:31.559Z</time>
      </trkpt>
      <trkpt lat="46.4796" lon="8.24437">
        <ele>1597</ele>
        <time>2020-07-16T13:09:32.559Z</time>
      </trkpt>
      <trkpt lat="46.4796" lon="8.24437">
        <ele>1598</ele>
        <time>2020-07-16T13:09:33.559Z</time>
      </trkpt>
      <trkpt lat="46.47959" lon="8.24436">
        <ele>1598</ele>
        <time>2020-07-16T13:09:34.558Z</time>
      </trkpt>
      <trkpt lat="46.47959" lon="8.24435">
        <ele>1598</ele>
        <time>2020-07-16T13:09:35.558Z</time>
      </trkpt>
      <trkpt lat="46.47958" lon="8.24434">
        <ele>1598</ele>
        <time>2020-07-16T13:09:36.559Z</time>
      </trkpt>
      <trkpt lat="46.47958" lon="8.24433">
        <ele>1598</ele>
        <time>2020-07-16T13:09:37.559Z</time>
      </trkpt>
      <trkpt lat="46.47957" lon="8.24432">
        <ele>1598</ele>
        <time>2020-07-16T13:09:38.558Z</time>
      </trkpt>
      <trkpt lat="46.47957" lon="8.24431">
        <ele>1598</ele>
        <time>2020-07-16T13:09:39.558Z</time>
      </trkpt>
      <trkpt lat="46.47957" lon="8.24429">
        <ele>1598</ele>
        <time>2020-07-16T13:09:40.559Z</time>
      </trkpt>
      <trkpt lat="46.47957" lon="8.24428">
        <ele>1598</ele>
        <time>2020-07-16T13:09:41.559Z</time>
      </trkpt>
      <trkpt lat="46.47956" lon="8.24427">
        <ele>1598</ele>
        <time>2020-07-16T13:09:42.559Z</time>
      </trkpt>
      <trkpt lat="46.47956" lon="8.24425">
        <ele>1598</ele>
        <time>2020-07-16T13:09:43.558Z</time>
      </trkpt>
      <trkpt lat="46.47956" lon="8.24424">
        <ele>1597</ele>
        <time>2020-07-16T13:09:44.558Z</time>
      </trkpt>
      <trkpt lat="46.47956" lon="8.24423">
        <ele>1596</ele>
        <time>2020-07-16T13:09:45.559Z</time>
      </trkpt>
      <trkpt lat="46.47956" lon="8.24421">
        <ele>1596</ele>
        <time>2020-07-16T13:09:46.558Z</time>
      </trkpt>
      <trkpt lat="46.47956" lon="8.2442">
        <ele>1595</ele>
        <time>2020-07-16T13:09:47.559Z</time>
      </trkpt>
      <trkpt lat="46.47955" lon="8.24419">
        <ele>1595</ele>
        <time>2020-07-16T13:09:48.559Z</time>
      </trkpt>
      <trkpt lat="46.47955" lon="8.24418">
        <ele>1595</ele>
        <time>2020-07-16T13:09:49.558Z</time>
      </trkpt>
      <trkpt lat="46.47955" lon="8.24417">
        <ele>1594</ele>
        <time>2020-07-16T13:09:50.559Z</time>
      </trkpt>
      <trkpt lat="46.47955" lon="8.24417">
        <ele>1594</ele>
        <time>2020-07-16T13:09:51.558Z</time>
      </trkpt>
      <trkpt lat="46.47954" lon="8.24416">
        <ele>1594</ele>
        <time>2020-07-16T13:09:52.559Z</time>
      </trkpt>
      <trkpt lat="46.47954" lon="8.24416">
        <ele>1594</ele>
        <time>2020-07-16T13:09:53.559Z</time>
      </trkpt>
      <trkpt lat="46.47953" lon="8.24418">
        <ele>1599</ele>
        <time>2020-07-16T13:09:54.558Z</time>
      </trkpt>
      <trkpt lat="46.47954" lon="8.24417">
        <ele>1600</ele>
        <time>2020-07-16T13:09:55.558Z</time>
      </trkpt>
      <trkpt lat="46.47954" lon="8.24416">
        <ele>1600</ele>
        <time>2020-07-16T13:09:56.558Z</time>
      </trkpt>
      <trkpt lat="46.47955" lon="8.24415">
        <ele>1600</ele>
        <time>2020-07-16T13:09:57.559Z</time>
      </trkpt>
      <trkpt lat="46.47956" lon="8.24414">
        <ele>1600</ele>
        <time>2020-07-16T13:09:58.558Z</time>
      </trkpt>
      <trkpt lat="46.47956" lon="8.24412">
        <ele>1600</ele>
        <time>2020-07-16T13:09:59.559Z</time>
      </trkpt>
      <trkpt lat="46.47956" lon="8.24411">
        <ele>1600</ele>
        <time>2020-07-16T13:10:00.558Z</time>
      </trkpt>
      <trkpt lat="46.47957" lon="8.2441">
        <ele>1599</ele>
        <time>2020-07-16T13:10:01.559Z</time>
      </trkpt>
      <trkpt lat="46.47957" lon="8.24409">
        <ele>1599</ele>
        <time>2020-07-16T13:10:02.558Z</time>
      </trkpt>
      <trkpt lat="46.47958" lon="8.24407">
        <ele>1599</ele>
        <time>2020-07-16T13:10:03.559Z</time>
      </trkpt>
      <trkpt lat="46.47958" lon="8.24406">
        <ele>1599</ele>
        <time>2020-07-16T13:10:04.559Z</time>
      </trkpt>
      <trkpt lat="46.47959" lon="8.24405">
        <ele>1599</ele>
        <time>2020-07-16T13:10:05.558Z</time>
      </trkpt>
      <trkpt lat="46.4796" lon="8.24404">
        <ele>1599</ele>
        <time>2020-07-16T13:10:06.559Z</time>
      </trkpt>
      <trkpt lat="46.4796" lon="8.24403">
        <ele>1599</ele>
        <time>2020-07-16T13:10:07.558Z</time>
      </trkpt>
      <trkpt lat="46.47961" lon="8.24401">
        <ele>1599</ele>
        <time>2020-07-16T13:10:08.559Z</time>
      </trkpt>
      <trkpt lat="46.47962" lon="8.244">
        <ele>1599</ele>
        <time>2020-07-16T13:10:09.558Z</time>
      </trkpt>
      <trkpt lat="46.47962" lon="8.24398">
        <ele>1599</ele>
        <time>2020-07-16T13:10:10.559Z</time>
      </trkpt>
      <trkpt lat="46.47962" lon="8.24397">
        <ele>1598</ele>
        <time>2020-07-16T13:10:11.558Z</time>
      </trkpt>
      <trkpt lat="46.47962" lon="8.24395">
        <ele>1598</ele>
        <time>2020-07-16T13:10:12.558Z</time>
      </trkpt>
      <trkpt lat="46.47962" lon="8.24393">
        <ele>1598</ele>
        <time>2020-07-16T13:10:13.559Z</time>
      </trkpt>
      <trkpt lat="46.47962" lon="8.24391">
        <ele>1598</ele>
        <time>2020-07-16T13:10:14.559Z</time>
      </trkpt>
      <trkpt lat="46.47962" lon="8.2439">
        <ele>1598</ele>
        <time>2020-07-16T13:10:15.559Z</time>
      </trkpt>
      <trkpt lat="46.47962" lon="8.24388">
        <ele>1599</ele>
        <time>2020-07-16T13:10:16.559Z</time>
      </trkpt>
      <trkpt lat="46.47962" lon="8.24386">
        <ele>1599</ele>
        <time>2020-07-16T13:10:17.558Z</time>
      </trkpt>
      <trkpt lat="46.47962" lon="8.24384">
        <ele>1599</ele>
        <time>2020-07-16T13:10:18.559Z</time>
      </trkpt>
      <trkpt lat="46.47962" lon="8.24383">
        <ele>1599</ele>
        <time>2020-07-16T13:10:19.558Z</time>
      </trkpt>
      <trkpt lat="46.47962" lon="8.24382">
        <ele>1600</ele>
        <time>2020-07-16T13:10:20.559Z</time>
      </trkpt>
      <trkpt lat="46.47962" lon="8.2438">
        <ele>1600</ele>
        <time>2020-07-16T13:10:21.558Z</time>
      </trkpt>
      <trkpt lat="46.47962" lon="8.24379">
        <ele>1600</ele>
        <time>2020-07-16T13:10:22.559Z</time>
      </trkpt>
      <trkpt lat="46.47963" lon="8.24378">
        <ele>1600</ele>
        <time>2020-07-16T13:10:23.559Z</time>
      </trkpt>
      <trkpt lat="46.47963" lon="8.24378">
        <ele>1600</ele>
        <time>2020-07-16T13:10:24.558Z</time>
      </trkpt>
      <trkpt lat="46.47963" lon="8.24378">
        <ele>1600</ele>
        <time>2020-07-16T13:10:25.559Z</time>
      </trkpt>
      <trkpt lat="46.47964" lon="8.24377">
        <ele>1601</ele>
        <time>2020-07-16T13:10:26.559Z</time>
      </trkpt>
      <trkpt lat="46.47963" lon="8.24376">
        <ele>1606</ele>
        <time>2020-07-16T13:10:27.559Z</time>
      </trkpt>
      <trkpt lat="46.47963" lon="8.24375">
        <ele>1607</ele>
        <time>2020-07-16T13:10:28.559Z</time>
      </trkpt>
      <trkpt lat="46.47963" lon="8.24374">
        <ele>1607</ele>
        <time>2020-07-16T13:10:29.560Z</time>
      </trkpt>
      <trkpt lat="46.4796" lon="8.24375">
        <ele>1608</ele>
        <time>2020-07-16T13:10:30.560Z</time>
      </trkpt>
      <trkpt lat="46.4796" lon="8.24376">
        <ele>1607</ele>
        <time>2020-07-16T13:10:31.560Z</time>
      </trkpt>
      <trkpt lat="46.4796" lon="8.24376">
        <ele>1607</ele>
        <time>2020-07-16T13:10:32.560Z</time>
      </trkpt>
      <trkpt lat="46.47961" lon="8.24375">
        <ele>1606</ele>
        <time>2020-07-16T13:10:33.560Z</time>
      </trkpt>
      <trkpt lat="46.47961" lon="8.24374">
        <ele>1605</ele>
        <time>2020-07-16T13:10:34.560Z</time>
      </trkpt>
      <trkpt lat="46.47961" lon="8.24373">
        <ele>1604</ele>
        <time>2020-07-16T13:10:35.560Z</time>
      </trkpt>
      <trkpt lat="46.47961" lon="8.24372">
        <ele>1603</ele>
        <time>2020-07-16T13:10:36.560Z</time>
      </trkpt>
      <trkpt lat="46.4796" lon="8.24371">
        <ele>1602</ele>
        <time>2020-07-16T13:10:37.560Z</time>
      </trkpt>
      <trkpt lat="46.4796" lon="8.2437">
        <ele>1602</ele>
        <time>2020-07-16T13:10:38.559Z</time>
      </trkpt>
      <trkpt lat="46.4796" lon="8.24369">
        <ele>1601</ele>
        <time>2020-07-16T13:10:39.560Z</time>
      </trkpt>
      <trkpt lat="46.47961" lon="8.24368">
        <ele>1601</ele>
        <time>2020-07-16T13:10:40.560Z</time>
      </trkpt>
      <trkpt lat="46.47961" lon="8.24367">
        <ele>1601</ele>
        <time>2020-07-16T13:10:41.560Z</time>
      </trkpt>
      <trkpt lat="46.4796" lon="8.24366">
        <ele>1601</ele>
        <time>2020-07-16T13:10:42.559Z</time>
      </trkpt>
      <trkpt lat="46.4796" lon="8.24364">
        <ele>1600</ele>
        <time>2020-07-16T13:10:43.559Z</time>
      </trkpt>
      <trkpt lat="46.4796" lon="8.24363">
        <ele>1601</ele>
        <time>2020-07-16T13:10:44.560Z</time>
      </trkpt>
      <trkpt lat="46.47959" lon="8.24361">
        <ele>1602</ele>
        <time>2020-07-16T13:10:45.559Z</time>
      </trkpt>
      <trkpt lat="46.47958" lon="8.24359">
        <ele>1602</ele>
        <time>2020-07-16T13:10:46.560Z</time>
      </trkpt>
      <trkpt lat="46.47958" lon="8.24357">
        <ele>1603</ele>
        <time>2020-07-16T13:10:47.559Z</time>
      </trkpt>
      <trkpt lat="46.47956" lon="8.24356">
        <ele>1603</ele>
        <time>2020-07-16T13:10:48.559Z</time>
      </trkpt>
      <trkpt lat="46.47956" lon="8.24355">
        <ele>1603</ele>
        <time>2020-07-16T13:10:49.559Z</time>
      </trkpt>
      <trkpt lat="46.47956" lon="8.24355">
        <ele>1603</ele>
        <time>2020-07-16T13:10:50.560Z</time>
      </trkpt>
      <trkpt lat="46.47956" lon="8.24354">
        <ele>1603</ele>
        <time>2020-07-16T13:10:51.560Z</time>
      </trkpt>
      <trkpt lat="46.47955" lon="8.24352">
        <ele>1603</ele>
        <time>2020-07-16T13:10:52.560Z</time>
      </trkpt>
      <trkpt lat="46.47955" lon="8.24351">
        <ele>1603</ele>
        <time>2020-07-16T13:10:53.559Z</time>
      </trkpt>
      <trkpt lat="46.47954" lon="8.2435">
        <ele>1603</ele>
        <time>2020-07-16T13:10:54.559Z</time>
      </trkpt>
      <trkpt lat="46.47954" lon="8.24349">
        <ele>1603</ele>
        <time>2020-07-16T13:10:55.560Z</time>
      </trkpt>
      <trkpt lat="46.47954" lon="8.24348">
        <ele>1603</ele>
        <time>2020-07-16T13:10:56.560Z</time>
      </trkpt>
      <trkpt lat="46.47953" lon="8.24347">
        <ele>1603</ele>
        <time>2020-07-16T13:10:57.560Z</time>
      </trkpt>
      <trkpt lat="46.47953" lon="8.24345">
        <ele>1603</ele>
        <time>2020-07-16T13:10:58.560Z</time>
      </trkpt>
      <trkpt lat="46.47952" lon="8.24343">
        <ele>1603</ele>
        <time>2020-07-16T13:10:59.560Z</time>
      </trkpt>
      <trkpt lat="46.47952" lon="8.24342">
        <ele>1603</ele>
        <time>2020-07-16T13:11:00.560Z</time>
      </trkpt>
      <trkpt lat="46.47952" lon="8.24341">
        <ele>1604</ele>
        <time>2020-07-16T13:11:01.560Z</time>
      </trkpt>
      <trkpt lat="46.47951" lon="8.24341">
        <ele>1604</ele>
        <time>2020-07-16T13:11:02.560Z</time>
      </trkpt>
      <trkpt lat="46.4795" lon="8.24339">
        <ele>1604</ele>
        <time>2020-07-16T13:11:03.560Z</time>
      </trkpt>
      <trkpt lat="46.4795" lon="8.24338">
        <ele>1605</ele>
        <time>2020-07-16T13:11:04.559Z</time>
      </trkpt>
      <trkpt lat="46.47949" lon="8.24337">
        <ele>1605</ele>
        <time>2020-07-16T13:11:05.559Z</time>
      </trkpt>
      <trkpt lat="46.47949" lon="8.24336">
        <ele>1605</ele>
        <time>2020-07-16T13:11:06.560Z</time>
      </trkpt>
      <trkpt lat="46.47948" lon="8.24335">
        <ele>1605</ele>
        <time>2020-07-16T13:11:07.560Z</time>
      </trkpt>
      <trkpt lat="46.47948" lon="8.24334">
        <ele>1605</ele>
        <time>2020-07-16T13:11:08.559Z</time>
      </trkpt>
      <trkpt lat="46.47948" lon="8.24333">
        <ele>1605</ele>
        <time>2020-07-16T13:11:09.560Z</time>
      </trkpt>
      <trkpt lat="46.47948" lon="8.24332">
        <ele>1605</ele>
        <time>2020-07-16T13:11:10.560Z</time>
      </trkpt>
      <trkpt lat="46.47947" lon="8.24332">
        <ele>1606</ele>
        <time>2020-07-16T13:11:11.559Z</time>
      </trkpt>
      <trkpt lat="46.47947" lon="8.24331">
        <ele>1606</ele>
        <time>2020-07-16T13:11:12.560Z</time>
      </trkpt>
      <trkpt lat="46.47946" lon="8.2433">
        <ele>1606</ele>
        <time>2020-07-16T13:11:13.560Z</time>
      </trkpt>
      <trkpt lat="46.47946" lon="8.24329">
        <ele>1606</ele>
        <time>2020-07-16T13:11:14.560Z</time>
      </trkpt>
      <trkpt lat="46.47945" lon="8.24328">
        <ele>1606</ele>
        <time>2020-07-16T13:11:15.559Z</time>
      </trkpt>
      <trkpt lat="46.47945" lon="8.24327">
        <ele>1606</ele>
        <time>2020-07-16T13:11:16.560Z</time>
      </trkpt>
      <trkpt lat="46.47945" lon="8.24327">
        <ele>1607</ele>
        <time>2020-07-16T13:11:17.560Z</time>
      </trkpt>
      <trkpt lat="46.47945" lon="8.24326">
        <ele>1607</ele>
        <time>2020-07-16T13:11:18.560Z</time>
      </trkpt>
      <trkpt lat="46.47945" lon="8.24325">
        <ele>1607</ele>
        <time>2020-07-16T13:11:19.560Z</time>
      </trkpt>
      <trkpt lat="46.47945" lon="8.24325">
        <ele>1606</ele>
        <time>2020-07-16T13:11:20.560Z</time>
      </trkpt>
      <trkpt lat="46.47944" lon="8.24324">
        <ele>1606</ele>
        <time>2020-07-16T13:11:21.559Z</time>
      </trkpt>
      <trkpt lat="46.47944" lon="8.24324">
        <ele>1606</ele>
        <time>2020-07-16T13:11:22.559Z</time>
      </trkpt>
      <trkpt lat="46.47943" lon="8.24323">
        <ele>1606</ele>
        <time>2020-07-16T13:11:23.560Z</time>
      </trkpt>
      <trkpt lat="46.47942" lon="8.24323">
        <ele>1607</ele>
        <time>2020-07-16T13:11:24.560Z</time>
      </trkpt>
      <trkpt lat="46.47942" lon="8.24322">
        <ele>1607</ele>
        <time>2020-07-16T13:11:25.560Z</time>
      </trkpt>
      <trkpt lat="46.47942" lon="8.24321">
        <ele>1608</ele>
        <time>2020-07-16T13:11:26.560Z</time>
      </trkpt>
      <trkpt lat="46.47942" lon="8.2432">
        <ele>1608</ele>
        <time>2020-07-16T13:11:27.559Z</time>
      </trkpt>
      <trkpt lat="46.47942" lon="8.24318">
        <ele>1608</ele>
        <time>2020-07-16T13:11:28.560Z</time>
      </trkpt>
      <trkpt lat="46.47942" lon="8.24317">
        <ele>1608</ele>
        <time>2020-07-16T13:11:29.560Z</time>
      </trkpt>
      <trkpt lat="46.47941" lon="8.24316">
        <ele>1608</ele>
        <time>2020-07-16T13:11:30.559Z</time>
      </trkpt>
      <trkpt lat="46.4794" lon="8.24315">
        <ele>1607</ele>
        <time>2020-07-16T13:11:31.560Z</time>
      </trkpt>
      <trkpt lat="46.4794" lon="8.24314">
        <ele>1607</ele>
        <time>2020-07-16T13:11:32.559Z</time>
      </trkpt>
      <trkpt lat="46.47939" lon="8.24313">
        <ele>1607</ele>
        <time>2020-07-16T13:11:33.559Z</time>
      </trkpt>
      <trkpt lat="46.47939" lon="8.24313">
        <ele>1607</ele>
        <time>2020-07-16T13:11:34.559Z</time>
      </trkpt>
      <trkpt lat="46.47938" lon="8.24313">
        <ele>1607</ele>
        <time>2020-07-16T13:11:35.560Z</time>
      </trkpt>
      <trkpt lat="46.47937" lon="8.2431">
        <ele>1604</ele>
        <time>2020-07-16T13:11:36.561Z</time>
      </trkpt>
      <trkpt lat="46.47937" lon="8.24309">
        <ele>1603</ele>
        <time>2020-07-16T13:11:37.560Z</time>
      </trkpt>
      <trkpt lat="46.47936" lon="8.24308">
        <ele>1602</ele>
        <time>2020-07-16T13:11:38.561Z</time>
      </trkpt>
      <trkpt lat="46.47936" lon="8.24306">
        <ele>1600</ele>
        <time>2020-07-16T13:11:39.560Z</time>
      </trkpt>
      <trkpt lat="46.47936" lon="8.24306">
        <ele>1600</ele>
        <time>2020-07-16T13:11:40.561Z</time>
      </trkpt>
      <trkpt lat="46.47936" lon="8.24306">
        <ele>1599</ele>
        <time>2020-07-16T13:11:41.561Z</time>
      </trkpt>
      <trkpt lat="46.47937" lon="8.24306">
        <ele>1599</ele>
        <time>2020-07-16T13:11:42.560Z</time>
      </trkpt>
      <trkpt lat="46.47937" lon="8.24305">
        <ele>1599</ele>
        <time>2020-07-16T13:11:43.561Z</time>
      </trkpt>
      <trkpt lat="46.47938" lon="8.24304">
        <ele>1599</ele>
        <time>2020-07-16T13:11:44.560Z</time>
      </trkpt>
      <trkpt lat="46.47939" lon="8.24303">
        <ele>1599</ele>
        <time>2020-07-16T13:11:45.560Z</time>
      </trkpt>
      <trkpt lat="46.47938" lon="8.24302">
        <ele>1599</ele>
        <time>2020-07-16T13:11:46.560Z</time>
      </trkpt>
      <trkpt lat="46.47937" lon="8.24302">
        <ele>1599</ele>
        <time>2020-07-16T13:11:47.560Z</time>
      </trkpt>
      <trkpt lat="46.47936" lon="8.24302">
        <ele>1599</ele>
        <time>2020-07-16T13:11:48.560Z</time>
      </trkpt>
      <trkpt lat="46.47936" lon="8.24301">
        <ele>1600</ele>
        <time>2020-07-16T13:11:49.560Z</time>
      </trkpt>
      <trkpt lat="46.47935" lon="8.243">
        <ele>1601</ele>
        <time>2020-07-16T13:11:50.560Z</time>
      </trkpt>
      <trkpt lat="46.47935" lon="8.24299">
        <ele>1601</ele>
        <time>2020-07-16T13:11:51.561Z</time>
      </trkpt>
      <trkpt lat="46.47935" lon="8.24298">
        <ele>1602</ele>
        <time>2020-07-16T13:11:52.560Z</time>
      </trkpt>
      <trkpt lat="46.47935" lon="8.24297">
        <ele>1602</ele>
        <time>2020-07-16T13:11:53.561Z</time>
      </trkpt>
      <trkpt lat="46.47934" lon="8.24295">
        <ele>1603</ele>
        <time>2020-07-16T13:11:54.561Z</time>
      </trkpt>
      <trkpt lat="46.47933" lon="8.24295">
        <ele>1603</ele>
        <time>2020-07-16T13:11:55.561Z</time>
      </trkpt>
      <trkpt lat="46.47932" lon="8.24294">
        <ele>1603</ele>
        <time>2020-07-16T13:11:56.560Z</time>
      </trkpt>
      <trkpt lat="46.47932" lon="8.24293">
        <ele>1604</ele>
        <time>2020-07-16T13:11:57.561Z</time>
      </trkpt>
      <trkpt lat="46.47931" lon="8.24292">
        <ele>1604</ele>
        <time>2020-07-16T13:11:58.560Z</time>
      </trkpt>
      <trkpt lat="46.47931" lon="8.24291">
        <ele>1605</ele>
        <time>2020-07-16T13:11:59.560Z</time>
      </trkpt>
      <trkpt lat="46.4793" lon="8.24291">
        <ele>1605</ele>
        <time>2020-07-16T13:12:00.560Z</time>
      </trkpt>
      <trkpt lat="46.47929" lon="8.2429">
        <ele>1605</ele>
        <time>2020-07-16T13:12:01.561Z</time>
      </trkpt>
      <trkpt lat="46.47929" lon="8.24289">
        <ele>1605</ele>
        <time>2020-07-16T13:12:02.560Z</time>
      </trkpt>
      <trkpt lat="46.47928" lon="8.24288">
        <ele>1606</ele>
        <time>2020-07-16T13:12:03.560Z</time>
      </trkpt>
      <trkpt lat="46.47928" lon="8.24286">
        <ele>1606</ele>
        <time>2020-07-16T13:12:04.560Z</time>
      </trkpt>
      <trkpt lat="46.47928" lon="8.24285">
        <ele>1606</ele>
        <time>2020-07-16T13:12:05.560Z</time>
      </trkpt>
      <trkpt lat="46.47927" lon="8.24284">
        <ele>1607</ele>
        <time>2020-07-16T13:12:06.561Z</time>
      </trkpt>
      <trkpt lat="46.47927" lon="8.24284">
        <ele>1607</ele>
        <time>2020-07-16T13:12:07.561Z</time>
      </trkpt>
      <trkpt lat="46.47926" lon="8.24283">
        <ele>1607</ele>
        <time>2020-07-16T13:12:08.560Z</time>
      </trkpt>
      <trkpt lat="46.47925" lon="8.24282">
        <ele>1607</ele>
        <time>2020-07-16T13:12:09.560Z</time>
      </trkpt>
      <trkpt lat="46.47925" lon="8.24281">
        <ele>1607</ele>
        <time>2020-07-16T13:12:10.560Z</time>
      </trkpt>
      <trkpt lat="46.47924" lon="8.2428">
        <ele>1607</ele>
        <time>2020-07-16T13:12:11.561Z</time>
      </trkpt>
      <trkpt lat="46.47923" lon="8.24279">
        <ele>1607</ele>
        <time>2020-07-16T13:12:12.560Z</time>
      </trkpt>
      <trkpt lat="46.47923" lon="8.24278">
        <ele>1607</ele>
        <time>2020-07-16T13:12:13.560Z</time>
      </trkpt>
      <trkpt lat="46.47923" lon="8.24276">
        <ele>1607</ele>
        <time>2020-07-16T13:12:14.560Z</time>
      </trkpt>
      <trkpt lat="46.47922" lon="8.24275">
        <ele>1607</ele>
        <time>2020-07-16T13:12:15.560Z</time>
      </trkpt>
      <trkpt lat="46.47921" lon="8.24274">
        <ele>1607</ele>
        <time>2020-07-16T13:12:16.561Z</time>
      </trkpt>
      <trkpt lat="46.47921" lon="8.24272">
        <ele>1607</ele>
        <time>2020-07-16T13:12:17.560Z</time>
      </trkpt>
      <trkpt lat="46.4792" lon="8.24271">
        <ele>1607</ele>
        <time>2020-07-16T13:12:18.560Z</time>
      </trkpt>
      <trkpt lat="46.4792" lon="8.2427">
        <ele>1607</ele>
        <time>2020-07-16T13:12:19.561Z</time>
      </trkpt>
      <trkpt lat="46.4792" lon="8.24269">
        <ele>1608</ele>
        <time>2020-07-16T13:12:20.560Z</time>
      </trkpt>
      <trkpt lat="46.47919" lon="8.24267">
        <ele>1608</ele>
        <time>2020-07-16T13:12:21.561Z</time>
      </trkpt>
      <trkpt lat="46.47919" lon="8.24266">
        <ele>1608</ele>
        <time>2020-07-16T13:12:22.561Z</time>
      </trkpt>
      <trkpt lat="46.4792" lon="8.24265">
        <ele>1608</ele>
        <time>2020-07-16T13:12:23.561Z</time>
      </trkpt>
      <trkpt lat="46.4792" lon="8.24264">
        <ele>1608</ele>
        <time>2020-07-16T13:12:24.561Z</time>
      </trkpt>
      <trkpt lat="46.4792" lon="8.24262">
        <ele>1608</ele>
        <time>2020-07-16T13:12:25.561Z</time>
      </trkpt>
      <trkpt lat="46.47921" lon="8.24261">
        <ele>1608</ele>
        <time>2020-07-16T13:12:26.561Z</time>
      </trkpt>
      <trkpt lat="46.47921" lon="8.24259">
        <ele>1608</ele>
        <time>2020-07-16T13:12:27.561Z</time>
      </trkpt>
      <trkpt lat="46.47921" lon="8.24258">
        <ele>1608</ele>
        <time>2020-07-16T13:12:28.560Z</time>
      </trkpt>
      <trkpt lat="46.47921" lon="8.24257">
        <ele>1608</ele>
        <time>2020-07-16T13:12:29.561Z</time>
      </trkpt>
      <trkpt lat="46.47921" lon="8.24256">
        <ele>1608</ele>
        <time>2020-07-16T13:12:30.560Z</time>
      </trkpt>
      <trkpt lat="46.47921" lon="8.24254">
        <ele>1609</ele>
        <time>2020-07-16T13:12:31.561Z</time>
      </trkpt>
      <trkpt lat="46.47921" lon="8.24253">
        <ele>1609</ele>
        <time>2020-07-16T13:12:32.561Z</time>
      </trkpt>
      <trkpt lat="46.47922" lon="8.24251">
        <ele>1609</ele>
        <time>2020-07-16T13:12:33.560Z</time>
      </trkpt>
      <trkpt lat="46.47923" lon="8.2425">
        <ele>1609</ele>
        <time>2020-07-16T13:12:34.561Z</time>
      </trkpt>
      <trkpt lat="46.47923" lon="8.24248">
        <ele>1609</ele>
        <time>2020-07-16T13:12:35.560Z</time>
      </trkpt>
      <trkpt lat="46.47923" lon="8.24247">
        <ele>1609</ele>
        <time>2020-07-16T13:12:36.560Z</time>
      </trkpt>
      <trkpt lat="46.47923" lon="8.24245">
        <ele>1609</ele>
        <time>2020-07-16T13:12:37.560Z</time>
      </trkpt>
      <trkpt lat="46.47924" lon="8.24244">
        <ele>1608</ele>
        <time>2020-07-16T13:12:38.560Z</time>
      </trkpt>
      <trkpt lat="46.47925" lon="8.24243">
        <ele>1608</ele>
        <time>2020-07-16T13:12:39.560Z</time>
      </trkpt>
      <trkpt lat="46.47925" lon="8.24241">
        <ele>1608</ele>
        <time>2020-07-16T13:12:40.560Z</time>
      </trkpt>
      <trkpt lat="46.47925" lon="8.2424">
        <ele>1608</ele>
        <time>2020-07-16T13:12:41.560Z</time>
      </trkpt>
      <trkpt lat="46.47925" lon="8.24239">
        <ele>1608</ele>
        <time>2020-07-16T13:12:42.561Z</time>
      </trkpt>
      <trkpt lat="46.47926" lon="8.24238">
        <ele>1607</ele>
        <time>2020-07-16T13:12:43.561Z</time>
      </trkpt>
      <trkpt lat="46.47926" lon="8.24236">
        <ele>1606</ele>
        <time>2020-07-16T13:12:44.560Z</time>
      </trkpt>
      <trkpt lat="46.47926" lon="8.24235">
        <ele>1606</ele>
        <time>2020-07-16T13:12:45.560Z</time>
      </trkpt>
      <trkpt lat="46.47927" lon="8.24234">
        <ele>1606</ele>
        <time>2020-07-16T13:12:46.560Z</time>
      </trkpt>
      <trkpt lat="46.47927" lon="8.24233">
        <ele>1605</ele>
        <time>2020-07-16T13:12:47.560Z</time>
      </trkpt>
      <trkpt lat="46.47928" lon="8.24232">
        <ele>1605</ele>
        <time>2020-07-16T13:12:48.561Z</time>
      </trkpt>
      <trkpt lat="46.47928" lon="8.24231">
        <ele>1605</ele>
        <time>2020-07-16T13:12:49.561Z</time>
      </trkpt>
      <trkpt lat="46.47929" lon="8.2423">
        <ele>1605</ele>
        <time>2020-07-16T13:12:50.560Z</time>
      </trkpt>
      <trkpt lat="46.47929" lon="8.24229">
        <ele>1605</ele>
        <time>2020-07-16T13:12:51.561Z</time>
      </trkpt>
      <trkpt lat="46.47929" lon="8.24228">
        <ele>1605</ele>
        <time>2020-07-16T13:12:52.560Z</time>
      </trkpt>
      <trkpt lat="46.47929" lon="8.24227">
        <ele>1605</ele>
        <time>2020-07-16T13:12:53.560Z</time>
      </trkpt>
      <trkpt lat="46.4793" lon="8.24225">
        <ele>1605</ele>
        <time>2020-07-16T13:12:54.560Z</time>
      </trkpt>
      <trkpt lat="46.4793" lon="8.24224">
        <ele>1604</ele>
        <time>2020-07-16T13:12:55.560Z</time>
      </trkpt>
      <trkpt lat="46.4793" lon="8.24223">
        <ele>1604</ele>
        <time>2020-07-16T13:12:56.561Z</time>
      </trkpt>
      <trkpt lat="46.4793" lon="8.24222">
        <ele>1603</ele>
        <time>2020-07-16T13:12:57.560Z</time>
      </trkpt>
      <trkpt lat="46.4793" lon="8.2422">
        <ele>1603</ele>
        <time>2020-07-16T13:12:58.560Z</time>
      </trkpt>
      <trkpt lat="46.47932" lon="8.24219">
        <ele>1603</ele>
        <time>2020-07-16T13:12:59.560Z</time>
      </trkpt>
      <trkpt lat="46.47933" lon="8.24219">
        <ele>1602</ele>
        <time>2020-07-16T13:13:00.561Z</time>
      </trkpt>
      <trkpt lat="46.47934" lon="8.24218">
        <ele>1602</ele>
        <time>2020-07-16T13:13:01.560Z</time>
      </trkpt>
      <trkpt lat="46.47935" lon="8.24217">
        <ele>1602</ele>
        <time>2020-07-16T13:13:02.560Z</time>
      </trkpt>
      <trkpt lat="46.47936" lon="8.24216">
        <ele>1601</ele>
        <time>2020-07-16T13:13:03.561Z</time>
      </trkpt>
      <trkpt lat="46.47937" lon="8.24214">
        <ele>1601</ele>
        <time>2020-07-16T13:13:04.561Z</time>
      </trkpt>
      <trkpt lat="46.47937" lon="8.24213">
        <ele>1602</ele>
        <time>2020-07-16T13:13:05.560Z</time>
      </trkpt>
      <trkpt lat="46.47938" lon="8.24212">
        <ele>1602</ele>
        <time>2020-07-16T13:13:06.560Z</time>
      </trkpt>
      <trkpt lat="46.47938" lon="8.24211">
        <ele>1602</ele>
        <time>2020-07-16T13:13:07.560Z</time>
      </trkpt>
      <trkpt lat="46.47938" lon="8.24209">
        <ele>1602</ele>
        <time>2020-07-16T13:13:08.560Z</time>
      </trkpt>
      <trkpt lat="46.47938" lon="8.24208">
        <ele>1602</ele>
        <time>2020-07-16T13:13:09.560Z</time>
      </trkpt>
      <trkpt lat="46.47939" lon="8.24207">
        <ele>1602</ele>
        <time>2020-07-16T13:13:10.561Z</time>
      </trkpt>
      <trkpt lat="46.47939" lon="8.24206">
        <ele>1603</ele>
        <time>2020-07-16T13:13:11.560Z</time>
      </trkpt>
      <trkpt lat="46.47939" lon="8.24205">
        <ele>1603</ele>
        <time>2020-07-16T13:13:12.561Z</time>
      </trkpt>
      <trkpt lat="46.47938" lon="8.24203">
        <ele>1604</ele>
        <time>2020-07-16T13:13:13.560Z</time>
      </trkpt>
      <trkpt lat="46.47939" lon="8.24202">
        <ele>1605</ele>
        <time>2020-07-16T13:13:14.561Z</time>
      </trkpt>
      <trkpt lat="46.47939" lon="8.24201">
        <ele>1606</ele>
        <time>2020-07-16T13:13:15.560Z</time>
      </trkpt>
      <trkpt lat="46.47939" lon="8.24199">
        <ele>1606</ele>
        <time>2020-07-16T13:13:16.560Z</time>
      </trkpt>
      <trkpt lat="46.4794" lon="8.24197">
        <ele>1607</ele>
        <time>2020-07-16T13:13:17.560Z</time>
      </trkpt>
      <trkpt lat="46.4794" lon="8.24197">
        <ele>1607</ele>
        <time>2020-07-16T13:13:18.560Z</time>
      </trkpt>
      <trkpt lat="46.47941" lon="8.24196">
        <ele>1608</ele>
        <time>2020-07-16T13:13:19.561Z</time>
      </trkpt>
      <trkpt lat="46.47941" lon="8.24195">
        <ele>1608</ele>
        <time>2020-07-16T13:13:20.561Z</time>
      </trkpt>
      <trkpt lat="46.47942" lon="8.24194">
        <ele>1609</ele>
        <time>2020-07-16T13:13:21.561Z</time>
      </trkpt>
      <trkpt lat="46.47943" lon="8.24193">
        <ele>1609</ele>
        <time>2020-07-16T13:13:22.561Z</time>
      </trkpt>
      <trkpt lat="46.47944" lon="8.24192">
        <ele>1610</ele>
        <time>2020-07-16T13:13:23.560Z</time>
      </trkpt>
      <trkpt lat="46.47945" lon="8.24192">
        <ele>1610</ele>
        <time>2020-07-16T13:13:24.561Z</time>
      </trkpt>
      <trkpt lat="46.47945" lon="8.24191">
        <ele>1610</ele>
        <time>2020-07-16T13:13:25.560Z</time>
      </trkpt>
      <trkpt lat="46.47945" lon="8.2419">
        <ele>1611</ele>
        <time>2020-07-16T13:13:26.561Z</time>
      </trkpt>
      <trkpt lat="46.47946" lon="8.24189">
        <ele>1612</ele>
        <time>2020-07-16T13:13:27.560Z</time>
      </trkpt>
      <trkpt lat="46.47947" lon="8.24188">
        <ele>1612</ele>
        <time>2020-07-16T13:13:28.560Z</time>
      </trkpt>
      <trkpt lat="46.47947" lon="8.24187">
        <ele>1613</ele>
        <time>2020-07-16T13:13:29.560Z</time>
      </trkpt>
      <trkpt lat="46.47948" lon="8.24186">
        <ele>1614</ele>
        <time>2020-07-16T13:13:30.561Z</time>
      </trkpt>
      <trkpt lat="46.47948" lon="8.24185">
        <ele>1615</ele>
        <time>2020-07-16T13:13:31.560Z</time>
      </trkpt>
      <trkpt lat="46.47949" lon="8.24184">
        <ele>1615</ele>
        <time>2020-07-16T13:13:32.560Z</time>
      </trkpt>
      <trkpt lat="46.47949" lon="8.24183">
        <ele>1616</ele>
        <time>2020-07-16T13:13:33.561Z</time>
      </trkpt>
      <trkpt lat="46.4795" lon="8.24183">
        <ele>1616</ele>
        <time>2020-07-16T13:13:34.561Z</time>
      </trkpt>
      <trkpt lat="46.47951" lon="8.24182">
        <ele>1617</ele>
        <time>2020-07-16T13:13:35.561Z</time>
      </trkpt>
      <trkpt lat="46.47952" lon="8.2418">
        <ele>1617</ele>
        <time>2020-07-16T13:13:36.561Z</time>
      </trkpt>
      <trkpt lat="46.47953" lon="8.24179">
        <ele>1618</ele>
        <time>2020-07-16T13:13:37.560Z</time>
      </trkpt>
      <trkpt lat="46.47953" lon="8.24178">
        <ele>1618</ele>
        <time>2020-07-16T13:13:38.560Z</time>
      </trkpt>
      <trkpt lat="46.47953" lon="8.24177">
        <ele>1619</ele>
        <time>2020-07-16T13:13:39.560Z</time>
      </trkpt>
      <trkpt lat="46.47954" lon="8.24175">
        <ele>1619</ele>
        <time>2020-07-16T13:13:40.560Z</time>
      </trkpt>
      <trkpt lat="46.47954" lon="8.24174">
        <ele>1619</ele>
        <time>2020-07-16T13:13:41.560Z</time>
      </trkpt>
      <trkpt lat="46.47954" lon="8.24172">
        <ele>1620</ele>
        <time>2020-07-16T13:13:42.560Z</time>
      </trkpt>
      <trkpt lat="46.47954" lon="8.24171">
        <ele>1620</ele>
        <time>2020-07-16T13:13:43.560Z</time>
      </trkpt>
      <trkpt lat="46.47954" lon="8.2417">
        <ele>1621</ele>
        <time>2020-07-16T13:13:44.561Z</time>
      </trkpt>
      <trkpt lat="46.47955" lon="8.24169">
        <ele>1622</ele>
        <time>2020-07-16T13:13:45.561Z</time>
      </trkpt>
      <trkpt lat="46.47955" lon="8.24168">
        <ele>1623</ele>
        <time>2020-07-16T13:13:46.560Z</time>
      </trkpt>
      <trkpt lat="46.47955" lon="8.24167">
        <ele>1624</ele>
        <time>2020-07-16T13:13:47.561Z</time>
      </trkpt>
      <trkpt lat="46.47954" lon="8.24166">
        <ele>1625</ele>
        <time>2020-07-16T13:13:48.561Z</time>
      </trkpt>
      <trkpt lat="46.47954" lon="8.24164">
        <ele>1625</ele>
        <time>2020-07-16T13:13:49.560Z</time>
      </trkpt>
      <trkpt lat="46.47955" lon="8.24162">
        <ele>1626</ele>
        <time>2020-07-16T13:13:50.560Z</time>
      </trkpt>
      <trkpt lat="46.47956" lon="8.24161">
        <ele>1626</ele>
        <time>2020-07-16T13:13:51.560Z</time>
      </trkpt>
      <trkpt lat="46.47957" lon="8.24159">
        <ele>1626</ele>
        <time>2020-07-16T13:13:52.560Z</time>
      </trkpt>
      <trkpt lat="46.47957" lon="8.24157">
        <ele>1627</ele>
        <time>2020-07-16T13:13:53.560Z</time>
      </trkpt>
      <trkpt lat="46.47957" lon="8.24155">
        <ele>1628</ele>
        <time>2020-07-16T13:13:54.560Z</time>
      </trkpt>
      <trkpt lat="46.47956" lon="8.24153">
        <ele>1628</ele>
        <time>2020-07-16T13:13:55.560Z</time>
      </trkpt>
      <trkpt lat="46.47956" lon="8.24153">
        <ele>1629</ele>
        <time>2020-07-16T13:13:56.561Z</time>
      </trkpt>
      <trkpt lat="46.47956" lon="8.24152">
        <ele>1629</ele>
        <time>2020-07-16T13:13:57.561Z</time>
      </trkpt>
      <trkpt lat="46.47956" lon="8.24151">
        <ele>1630</ele>
        <time>2020-07-16T13:13:58.560Z</time>
      </trkpt>
      <trkpt lat="46.47957" lon="8.24151">
        <ele>1630</ele>
        <time>2020-07-16T13:13:59.560Z</time>
      </trkpt>
      <trkpt lat="46.47958" lon="8.24149">
        <ele>1630</ele>
        <time>2020-07-16T13:14:00.561Z</time>
      </trkpt>
      <trkpt lat="46.47958" lon="8.24148">
        <ele>1630</ele>
        <time>2020-07-16T13:14:01.560Z</time>
      </trkpt>
      <trkpt lat="46.47958" lon="8.24147">
        <ele>1630</ele>
        <time>2020-07-16T13:14:02.561Z</time>
      </trkpt>
      <trkpt lat="46.47958" lon="8.24146">
        <ele>1630</ele>
        <time>2020-07-16T13:14:03.561Z</time>
      </trkpt>
      <trkpt lat="46.47959" lon="8.24145">
        <ele>1630</ele>
        <time>2020-07-16T13:14:04.560Z</time>
      </trkpt>
      <trkpt lat="46.4796" lon="8.24144">
        <ele>1630</ele>
        <time>2020-07-16T13:14:05.560Z</time>
      </trkpt>
      <trkpt lat="46.4796" lon="8.24143">
        <ele>1630</ele>
        <time>2020-07-16T13:14:06.560Z</time>
      </trkpt>
      <trkpt lat="46.47961" lon="8.24141">
        <ele>1630</ele>
        <time>2020-07-16T13:14:07.561Z</time>
      </trkpt>
      <trkpt lat="46.47961" lon="8.2414">
        <ele>1630</ele>
        <time>2020-07-16T13:14:08.561Z</time>
      </trkpt>
      <trkpt lat="46.47962" lon="8.24139">
        <ele>1630</ele>
        <time>2020-07-16T13:14:09.560Z</time>
      </trkpt>
      <trkpt lat="46.47962" lon="8.24138">
        <ele>1629</ele>
        <time>2020-07-16T13:14:10.561Z</time>
      </trkpt>
      <trkpt lat="46.47962" lon="8.24136">
        <ele>1629</ele>
        <time>2020-07-16T13:14:11.560Z</time>
      </trkpt>
      <trkpt lat="46.47962" lon="8.24134">
        <ele>1629</ele>
        <time>2020-07-16T13:14:12.560Z</time>
      </trkpt>
      <trkpt lat="46.47962" lon="8.24133">
        <ele>1628</ele>
        <time>2020-07-16T13:14:13.561Z</time>
      </trkpt>
      <trkpt lat="46.47962" lon="8.24132">
        <ele>1628</ele>
        <time>2020-07-16T13:14:14.560Z</time>
      </trkpt>
      <trkpt lat="46.47961" lon="8.24131">
        <ele>1628</ele>
        <time>2020-07-16T13:14:15.560Z</time>
      </trkpt>
      <trkpt lat="46.47961" lon="8.24129">
        <ele>1628</ele>
        <time>2020-07-16T13:14:16.560Z</time>
      </trkpt>
      <trkpt lat="46.47961" lon="8.24128">
        <ele>1628</ele>
        <time>2020-07-16T13:14:17.561Z</time>
      </trkpt>
      <trkpt lat="46.47961" lon="8.24127">
        <ele>1628</ele>
        <time>2020-07-16T13:14:18.560Z</time>
      </trkpt>
      <trkpt lat="46.4796" lon="8.24126">
        <ele>1627</ele>
        <time>2020-07-16T13:14:19.560Z</time>
      </trkpt>
      <trkpt lat="46.4796" lon="8.24125">
        <ele>1626</ele>
        <time>2020-07-16T13:14:20.560Z</time>
      </trkpt>
      <trkpt lat="46.47959" lon="8.24124">
        <ele>1626</ele>
        <time>2020-07-16T13:14:21.560Z</time>
      </trkpt>
      <trkpt lat="46.47959" lon="8.24123">
        <ele>1625</ele>
        <time>2020-07-16T13:14:22.560Z</time>
      </trkpt>
      <trkpt lat="46.47958" lon="8.24122">
        <ele>1625</ele>
        <time>2020-07-16T13:14:23.560Z</time>
      </trkpt>
      <trkpt lat="46.47957" lon="8.24121">
        <ele>1626</ele>
        <time>2020-07-16T13:14:24.560Z</time>
      </trkpt>
      <trkpt lat="46.47956" lon="8.24119">
        <ele>1626</ele>
        <time>2020-07-16T13:14:25.560Z</time>
      </trkpt>
      <trkpt lat="46.47955" lon="8.24118">
        <ele>1626</ele>
        <time>2020-07-16T13:14:26.560Z</time>
      </trkpt>
      <trkpt lat="46.47953" lon="8.24117">
        <ele>1626</ele>
        <time>2020-07-16T13:14:27.560Z</time>
      </trkpt>
      <trkpt lat="46.47952" lon="8.24115">
        <ele>1626</ele>
        <time>2020-07-16T13:14:28.561Z</time>
      </trkpt>
      <trkpt lat="46.47951" lon="8.24115">
        <ele>1627</ele>
        <time>2020-07-16T13:14:29.560Z</time>
      </trkpt>
      <trkpt lat="46.47949" lon="8.24114">
        <ele>1627</ele>
        <time>2020-07-16T13:14:30.560Z</time>
      </trkpt>
      <trkpt lat="46.47948" lon="8.24113">
        <ele>1628</ele>
        <time>2020-07-16T13:14:31.560Z</time>
      </trkpt>
      <trkpt lat="46.47946" lon="8.24112">
        <ele>1628</ele>
        <time>2020-07-16T13:14:32.561Z</time>
      </trkpt>
      <trkpt lat="46.47945" lon="8.24111">
        <ele>1629</ele>
        <time>2020-07-16T13:14:33.560Z</time>
      </trkpt>
      <trkpt lat="46.47945" lon="8.2411">
        <ele>1629</ele>
        <time>2020-07-16T13:14:34.560Z</time>
      </trkpt>
      <trkpt lat="46.47944" lon="8.24109">
        <ele>1629</ele>
        <time>2020-07-16T13:14:35.560Z</time>
      </trkpt>
      <trkpt lat="46.47944" lon="8.24109">
        <ele>1629</ele>
        <time>2020-07-16T13:14:36.561Z</time>
      </trkpt>
      <trkpt lat="46.47943" lon="8.24108">
        <ele>1629</ele>
        <time>2020-07-16T13:14:37.560Z</time>
      </trkpt>
      <trkpt lat="46.47943" lon="8.24108">
        <ele>1629</ele>
        <time>2020-07-16T13:14:38.560Z</time>
      </trkpt>
      <trkpt lat="46.47942" lon="8.24108">
        <ele>1629</ele>
        <time>2020-07-16T13:14:39.561Z</time>
      </trkpt>
      <trkpt lat="46.47941" lon="8.24108">
        <ele>1629</ele>
        <time>2020-07-16T13:14:40.560Z</time>
      </trkpt>
      <trkpt lat="46.4794" lon="8.24107">
        <ele>1629</ele>
        <time>2020-07-16T13:14:41.560Z</time>
      </trkpt>
      <trkpt lat="46.47939" lon="8.24106">
        <ele>1629</ele>
        <time>2020-07-16T13:14:42.561Z</time>
      </trkpt>
      <trkpt lat="46.47939" lon="8.24106">
        <ele>1629</ele>
        <time>2020-07-16T13:14:43.560Z</time>
      </trkpt>
      <trkpt lat="46.47938" lon="8.24105">
        <ele>1629</ele>
        <time>2020-07-16T13:14:44.560Z</time>
      </trkpt>
      <trkpt lat="46.47937" lon="8.24105">
        <ele>1629</ele>
        <time>2020-07-16T13:14:45.561Z</time>
      </trkpt>
      <trkpt lat="46.47936" lon="8.24105">
        <ele>1629</ele>
        <time>2020-07-16T13:14:46.560Z</time>
      </trkpt>
      <trkpt lat="46.47935" lon="8.24105">
        <ele>1629</ele>
        <time>2020-07-16T13:14:47.561Z</time>
      </trkpt>
      <trkpt lat="46.47934" lon="8.24104">
        <ele>1629</ele>
        <time>2020-07-16T13:14:48.560Z</time>
      </trkpt>
      <trkpt lat="46.47934" lon="8.24103">
        <ele>1629</ele>
        <time>2020-07-16T13:14:49.560Z</time>
      </trkpt>
      <trkpt lat="46.47933" lon="8.24102">
        <ele>1629</ele>
        <time>2020-07-16T13:14:50.561Z</time>
      </trkpt>
      <trkpt lat="46.47932" lon="8.24101">
        <ele>1628</ele>
        <time>2020-07-16T13:14:51.560Z</time>
      </trkpt>
      <trkpt lat="46.47931" lon="8.241">
        <ele>1628</ele>
        <time>2020-07-16T13:14:52.560Z</time>
      </trkpt>
      <trkpt lat="46.47931" lon="8.24099">
        <ele>1628</ele>
        <time>2020-07-16T13:14:53.560Z</time>
      </trkpt>
      <trkpt lat="46.4793" lon="8.24098">
        <ele>1628</ele>
        <time>2020-07-16T13:14:54.561Z</time>
      </trkpt>
      <trkpt lat="46.47929" lon="8.24097">
        <ele>1628</ele>
        <time>2020-07-16T13:14:55.560Z</time>
      </trkpt>
      <trkpt lat="46.47928" lon="8.24096">
        <ele>1628</ele>
        <time>2020-07-16T13:14:56.561Z</time>
      </trkpt>
      <trkpt lat="46.47927" lon="8.24095">
        <ele>1629</ele>
        <time>2020-07-16T13:14:57.560Z</time>
      </trkpt>
      <trkpt lat="46.47926" lon="8.24094">
        <ele>1629</ele>
        <time>2020-07-16T13:14:58.560Z</time>
      </trkpt>
      <trkpt lat="46.47925" lon="8.24093">
        <ele>1629</ele>
        <time>2020-07-16T13:14:59.560Z</time>
      </trkpt>
      <trkpt lat="46.47924" lon="8.24092">
        <ele>1629</ele>
        <time>2020-07-16T13:15:00.561Z</time>
      </trkpt>
      <trkpt lat="46.47924" lon="8.24092">
        <ele>1629</ele>
        <time>2020-07-16T13:15:01.561Z</time>
      </trkpt>
      <trkpt lat="46.47923" lon="8.24091">
        <ele>1628</ele>
        <time>2020-07-16T13:15:02.560Z</time>
      </trkpt>
      <trkpt lat="46.47922" lon="8.2409">
        <ele>1628</ele>
        <time>2020-07-16T13:15:03.561Z</time>
      </trkpt>
      <trkpt lat="46.47921" lon="8.2409">
        <ele>1628</ele>
        <time>2020-07-16T13:15:04.560Z</time>
      </trkpt>
      <trkpt lat="46.4792" lon="8.24089">
        <ele>1628</ele>
        <time>2020-07-16T13:15:05.561Z</time>
      </trkpt>
      <trkpt lat="46.4792" lon="8.24088">
        <ele>1627</ele>
        <time>2020-07-16T13:15:06.560Z</time>
      </trkpt>
      <trkpt lat="46.4792" lon="8.24086">
        <ele>1626</ele>
        <time>2020-07-16T13:15:07.560Z</time>
      </trkpt>
      <trkpt lat="46.47919" lon="8.24085">
        <ele>1626</ele>
        <time>2020-07-16T13:15:08.560Z</time>
      </trkpt>
      <trkpt lat="46.47919" lon="8.24084">
        <ele>1626</ele>
        <time>2020-07-16T13:15:09.560Z</time>
      </trkpt>
      <trkpt lat="46.47918" lon="8.24082">
        <ele>1625</ele>
        <time>2020-07-16T13:15:10.560Z</time>
      </trkpt>
      <trkpt lat="46.47918" lon="8.24081">
        <ele>1624</ele>
        <time>2020-07-16T13:15:11.560Z</time>
      </trkpt>
      <trkpt lat="46.47917" lon="8.24081">
        <ele>1624</ele>
        <time>2020-07-16T13:15:12.561Z</time>
      </trkpt>
      <trkpt lat="46.47917" lon="8.2408">
        <ele>1623</ele>
        <time>2020-07-16T13:15:13.560Z</time>
      </trkpt>
      <trkpt lat="46.47917" lon="8.24078">
        <ele>1622</ele>
        <time>2020-07-16T13:15:14.561Z</time>
      </trkpt>
      <trkpt lat="46.47917" lon="8.24077">
        <ele>1622</ele>
        <time>2020-07-16T13:15:15.560Z</time>
      </trkpt>
      <trkpt lat="46.47917" lon="8.24076">
        <ele>1622</ele>
        <time>2020-07-16T13:15:16.561Z</time>
      </trkpt>
      <trkpt lat="46.47917" lon="8.24075">
        <ele>1622</ele>
        <time>2020-07-16T13:15:17.560Z</time>
      </trkpt>
      <trkpt lat="46.47917" lon="8.24074">
        <ele>1622</ele>
        <time>2020-07-16T13:15:18.560Z</time>
      </trkpt>
      <trkpt lat="46.47916" lon="8.24074">
        <ele>1622</ele>
        <time>2020-07-16T13:15:19.560Z</time>
      </trkpt>
      <trkpt lat="46.47916" lon="8.24073">
        <ele>1622</ele>
        <time>2020-07-16T13:15:20.561Z</time>
      </trkpt>
      <trkpt lat="46.47915" lon="8.24072">
        <ele>1623</ele>
        <time>2020-07-16T13:15:21.560Z</time>
      </trkpt>
      <trkpt lat="46.47915" lon="8.24071">
        <ele>1623</ele>
        <time>2020-07-16T13:15:22.560Z</time>
      </trkpt>
      <trkpt lat="46.47915" lon="8.24069">
        <ele>1623</ele>
        <time>2020-07-16T13:15:23.560Z</time>
      </trkpt>
      <trkpt lat="46.47915" lon="8.24068">
        <ele>1623</ele>
        <time>2020-07-16T13:15:24.560Z</time>
      </trkpt>
      <trkpt lat="46.47915" lon="8.24066">
        <ele>1624</ele>
        <time>2020-07-16T13:15:25.560Z</time>
      </trkpt>
      <trkpt lat="46.47914" lon="8.24065">
        <ele>1624</ele>
        <time>2020-07-16T13:15:26.560Z</time>
      </trkpt>
      <trkpt lat="46.47913" lon="8.24064">
        <ele>1624</ele>
        <time>2020-07-16T13:15:27.560Z</time>
      </trkpt>
      <trkpt lat="46.47913" lon="8.24063">
        <ele>1624</ele>
        <time>2020-07-16T13:15:28.561Z</time>
      </trkpt>
      <trkpt lat="46.47913" lon="8.24063">
        <ele>1624</ele>
        <time>2020-07-16T13:15:29.560Z</time>
      </trkpt>
      <trkpt lat="46.47912" lon="8.24062">
        <ele>1624</ele>
        <time>2020-07-16T13:15:30.560Z</time>
      </trkpt>
      <trkpt lat="46.47912" lon="8.24061">
        <ele>1624</ele>
        <time>2020-07-16T13:15:31.560Z</time>
      </trkpt>
      <trkpt lat="46.47912" lon="8.2406">
        <ele>1623</ele>
        <time>2020-07-16T13:15:32.561Z</time>
      </trkpt>
      <trkpt lat="46.47912" lon="8.24058">
        <ele>1623</ele>
        <time>2020-07-16T13:15:33.560Z</time>
      </trkpt>
      <trkpt lat="46.47912" lon="8.24057">
        <ele>1623</ele>
        <time>2020-07-16T13:15:34.560Z</time>
      </trkpt>
      <trkpt lat="46.47912" lon="8.24057">
        <ele>1622</ele>
        <time>2020-07-16T13:15:35.560Z</time>
      </trkpt>
      <trkpt lat="46.47912" lon="8.24056">
        <ele>1622</ele>
        <time>2020-07-16T13:15:36.560Z</time>
      </trkpt>
      <trkpt lat="46.47912" lon="8.24055">
        <ele>1622</ele>
        <time>2020-07-16T13:15:37.561Z</time>
      </trkpt>
      <trkpt lat="46.47912" lon="8.24054">
        <ele>1622</ele>
        <time>2020-07-16T13:15:38.561Z</time>
      </trkpt>
      <trkpt lat="46.47913" lon="8.24053">
        <ele>1622</ele>
        <time>2020-07-16T13:15:39.560Z</time>
      </trkpt>
      <trkpt lat="46.47913" lon="8.24053">
        <ele>1622</ele>
        <time>2020-07-16T13:15:40.560Z</time>
      </trkpt>
      <trkpt lat="46.47913" lon="8.24052">
        <ele>1622</ele>
        <time>2020-07-16T13:15:41.560Z</time>
      </trkpt>
      <trkpt lat="46.47913" lon="8.24052">
        <ele>1622</ele>
        <time>2020-07-16T13:15:42.561Z</time>
      </trkpt>
      <trkpt lat="46.47914" lon="8.24051">
        <ele>1621</ele>
        <time>2020-07-16T13:15:43.560Z</time>
      </trkpt>
      <trkpt lat="46.47915" lon="8.24051">
        <ele>1621</ele>
        <time>2020-07-16T13:15:44.561Z</time>
      </trkpt>
      <trkpt lat="46.47915" lon="8.24051">
        <ele>1621</ele>
        <time>2020-07-16T13:15:45.561Z</time>
      </trkpt>
      <trkpt lat="46.47915" lon="8.24051">
        <ele>1621</ele>
        <time>2020-07-16T13:15:46.560Z</time>
      </trkpt>
      <trkpt lat="46.47916" lon="8.2405">
        <ele>1622</ele>
        <time>2020-07-16T13:15:47.560Z</time>
      </trkpt>
      <trkpt lat="46.47917" lon="8.2405">
        <ele>1623</ele>
        <time>2020-07-16T13:15:48.561Z</time>
      </trkpt>
      <trkpt lat="46.47918" lon="8.24049">
        <ele>1623</ele>
        <time>2020-07-16T13:15:49.560Z</time>
      </trkpt>
      <trkpt lat="46.47918" lon="8.24048">
        <ele>1624</ele>
        <time>2020-07-16T13:15:50.560Z</time>
      </trkpt>
      <trkpt lat="46.47919" lon="8.24047">
        <ele>1624</ele>
        <time>2020-07-16T13:15:51.561Z</time>
      </trkpt>
      <trkpt lat="46.47919" lon="8.24045">
        <ele>1625</ele>
        <time>2020-07-16T13:15:52.560Z</time>
      </trkpt>
      <trkpt lat="46.47919" lon="8.24044">
        <ele>1625</ele>
        <time>2020-07-16T13:15:53.561Z</time>
      </trkpt>
      <trkpt lat="46.47919" lon="8.24043">
        <ele>1626</ele>
        <time>2020-07-16T13:15:54.561Z</time>
      </trkpt>
      <trkpt lat="46.4792" lon="8.24043">
        <ele>1625</ele>
        <time>2020-07-16T13:15:55.560Z</time>
      </trkpt>
      <trkpt lat="46.4792" lon="8.24042">
        <ele>1625</ele>
        <time>2020-07-16T13:15:56.561Z</time>
      </trkpt>
      <trkpt lat="46.4792" lon="8.24042">
        <ele>1625</ele>
        <time>2020-07-16T13:15:57.560Z</time>
      </trkpt>
      <trkpt lat="46.4792" lon="8.24042">
        <ele>1624</ele>
        <time>2020-07-16T13:15:58.560Z</time>
      </trkpt>
      <trkpt lat="46.47915" lon="8.24041">
        <ele>1626</ele>
        <time>2020-07-16T13:15:59.561Z</time>
      </trkpt>
      <trkpt lat="46.47915" lon="8.24041">
        <ele>1626</ele>
        <time>2020-07-16T13:16:00.560Z</time>
      </trkpt>
      <trkpt lat="46.47915" lon="8.24041">
        <ele>1626</ele>
        <time>2020-07-16T13:16:01.560Z</time>
      </trkpt>
      <trkpt lat="46.47914" lon="8.2404">
        <ele>1628</ele>
        <time>2020-07-16T13:16:02.562Z</time>
      </trkpt>
      <trkpt lat="46.47914" lon="8.2404">
        <ele>1628</ele>
        <time>2020-07-16T13:16:03.563Z</time>
      </trkpt>
      <trkpt lat="46.47914" lon="8.24039">
        <ele>1629</ele>
        <time>2020-07-16T13:16:04.562Z</time>
      </trkpt>
      <trkpt lat="46.47914" lon="8.24038">
        <ele>1629</ele>
        <time>2020-07-16T13:16:05.563Z</time>
      </trkpt>
      <trkpt lat="46.47913" lon="8.24037">
        <ele>1629</ele>
        <time>2020-07-16T13:16:06.563Z</time>
      </trkpt>
      <trkpt lat="46.47913" lon="8.24036">
        <ele>1631</ele>
        <time>2020-07-16T13:16:07.563Z</time>
      </trkpt>
      <trkpt lat="46.47913" lon="8.24036">
        <ele>1632</ele>
        <time>2020-07-16T13:16:08.564Z</time>
      </trkpt>
      <trkpt lat="46.47913" lon="8.24036">
        <ele>1633</ele>
        <time>2020-07-16T13:16:09.564Z</time>
      </trkpt>
      <trkpt lat="46.47913" lon="8.24036">
        <ele>1633</ele>
        <time>2020-07-16T13:16:10.564Z</time>
      </trkpt>
      <trkpt lat="46.47912" lon="8.24036">
        <ele>1633</ele>
        <time>2020-07-16T13:16:11.564Z</time>
      </trkpt>
      <trkpt lat="46.47912" lon="8.24036">
        <ele>1634</ele>
        <time>2020-07-16T13:16:12.563Z</time>
      </trkpt>
      <trkpt lat="46.47913" lon="8.24035">
        <ele>1633</ele>
        <time>2020-07-16T13:16:13.563Z</time>
      </trkpt>
      <trkpt lat="46.47913" lon="8.24035">
        <ele>1632</ele>
        <time>2020-07-16T13:16:14.563Z</time>
      </trkpt>
      <trkpt lat="46.47913" lon="8.24035">
        <ele>1626</ele>
        <time>2020-07-16T13:16:15.564Z</time>
      </trkpt>
      <trkpt lat="46.47913" lon="8.24035">
        <ele>1627</ele>
        <time>2020-07-16T13:16:16.564Z</time>
      </trkpt>
      <trkpt lat="46.47913" lon="8.24035">
        <ele>1627</ele>
        <time>2020-07-16T13:16:17.563Z</time>
      </trkpt>
      <trkpt lat="46.47913" lon="8.24036">
        <ele>1627</ele>
        <time>2020-07-16T13:16:18.564Z</time>
      </trkpt>
      <trkpt lat="46.47913" lon="8.24035">
        <ele>1627</ele>
        <time>2020-07-16T13:16:19.563Z</time>
      </trkpt>
      <trkpt lat="46.47913" lon="8.24036">
        <ele>1627</ele>
        <time>2020-07-16T13:16:20.563Z</time>
      </trkpt>
      <trkpt lat="46.47914" lon="8.2404">
        <ele>1627</ele>
        <time>2020-07-16T13:16:21.564Z</time>
      </trkpt>
      <trkpt lat="46.47913" lon="8.24039">
        <ele>1627</ele>
        <time>2020-07-16T13:16:22.564Z</time>
      </trkpt>
      <trkpt lat="46.47913" lon="8.24038">
        <ele>1628</ele>
        <time>2020-07-16T13:16:23.563Z</time>
      </trkpt>
      <trkpt lat="46.47912" lon="8.24038">
        <ele>1629</ele>
        <time>2020-07-16T13:16:24.564Z</time>
      </trkpt>
      <trkpt lat="46.47912" lon="8.24038">
        <ele>1629</ele>
        <time>2020-07-16T13:16:25.563Z</time>
      </trkpt>
      <trkpt lat="46.47911" lon="8.24039">
        <ele>1630</ele>
        <time>2020-07-16T13:16:26.563Z</time>
      </trkpt>
      <trkpt lat="46.47911" lon="8.24039">
        <ele>1631</ele>
        <time>2020-07-16T13:16:27.564Z</time>
      </trkpt>
      <trkpt lat="46.47911" lon="8.24039">
        <ele>1632</ele>
        <time>2020-07-16T13:16:28.564Z</time>
      </trkpt>
      <trkpt lat="46.47911" lon="8.2404">
        <ele>1635</ele>
        <time>2020-07-16T13:16:29.565Z</time>
      </trkpt>
      <trkpt lat="46.47911" lon="8.2404">
        <ele>1636</ele>
        <time>2020-07-16T13:16:30.565Z</time>
      </trkpt>
      <trkpt lat="46.47911" lon="8.2404">
        <ele>1636</ele>
        <time>2020-07-16T13:16:31.564Z</time>
      </trkpt>
      <trkpt lat="46.47914" lon="8.24039">
        <ele>1641</ele>
        <time>2020-07-16T13:16:32.566Z</time>
      </trkpt>
      <trkpt lat="46.47915" lon="8.2404">
        <ele>1640</ele>
        <time>2020-07-16T13:16:33.566Z</time>
      </trkpt>
      <trkpt lat="46.47915" lon="8.24039">
        <ele>1640</ele>
        <time>2020-07-16T13:16:34.566Z</time>
      </trkpt>
      <trkpt lat="46.47915" lon="8.24039">
        <ele>1639</ele>
        <time>2020-07-16T13:16:35.565Z</time>
      </trkpt>
      <trkpt lat="46.47914" lon="8.24038">
        <ele>1638</ele>
        <time>2020-07-16T13:16:36.565Z</time>
      </trkpt>
      <trkpt lat="46.47914" lon="8.24038">
        <ele>1637</ele>
        <time>2020-07-16T13:16:37.565Z</time>
      </trkpt>
      <trkpt lat="46.47913" lon="8.24038">
        <ele>1636</ele>
        <time>2020-07-16T13:16:38.566Z</time>
      </trkpt>
      <trkpt lat="46.47913" lon="8.24037">
        <ele>1635</ele>
        <time>2020-07-16T13:16:39.565Z</time>
      </trkpt>
      <trkpt lat="46.47913" lon="8.24037">
        <ele>1633</ele>
        <time>2020-07-16T13:16:40.566Z</time>
      </trkpt>
      <trkpt lat="46.47913" lon="8.24036">
        <ele>1632</ele>
        <time>2020-07-16T13:16:41.566Z</time>
      </trkpt>
      <trkpt lat="46.47913" lon="8.24036">
        <ele>1630</ele>
        <time>2020-07-16T13:16:42.566Z</time>
      </trkpt>
      <trkpt lat="46.47914" lon="8.24036">
        <ele>1628</ele>
        <time>2020-07-16T13:16:43.566Z</time>
      </trkpt>
      <trkpt lat="46.47913" lon="8.24035">
        <ele>1627</ele>
        <time>2020-07-16T13:16:44.566Z</time>
      </trkpt>
      <trkpt lat="46.47913" lon="8.24039">
        <ele>1625</ele>
        <time>2020-07-16T13:16:45.566Z</time>
      </trkpt>
      <trkpt lat="46.47913" lon="8.24039">
        <ele>1625</ele>
        <time>2020-07-16T13:16:46.567Z</time>
      </trkpt>
      <trkpt lat="46.47913" lon="8.24038">
        <ele>1625</ele>
        <time>2020-07-16T13:16:47.567Z</time>
      </trkpt>
      <trkpt lat="46.47913" lon="8.24039">
        <ele>1625</ele>
        <time>2020-07-16T13:16:48.567Z</time>
      </trkpt>
      <trkpt lat="46.47913" lon="8.2404">
        <ele>1625</ele>
        <time>2020-07-16T13:16:49.566Z</time>
      </trkpt>
      <trkpt lat="46.47913" lon="8.24041">
        <ele>1625</ele>
        <time>2020-07-16T13:16:50.567Z</time>
      </trkpt>
      <trkpt lat="46.47913" lon="8.24043">
        <ele>1625</ele>
        <time>2020-07-16T13:16:51.567Z</time>
      </trkpt>
      <trkpt lat="46.47912" lon="8.24044">
        <ele>1625</ele>
        <time>2020-07-16T13:16:52.566Z</time>
      </trkpt>
      <trkpt lat="46.47911" lon="8.24045">
        <ele>1625</ele>
        <time>2020-07-16T13:16:53.566Z</time>
      </trkpt>
      <trkpt lat="46.47911" lon="8.24046">
        <ele>1625</ele>
        <time>2020-07-16T13:16:54.567Z</time>
      </trkpt>
      <trkpt lat="46.4791" lon="8.24046">
        <ele>1625</ele>
        <time>2020-07-16T13:16:55.567Z</time>
      </trkpt>
      <trkpt lat="46.47909" lon="8.24047">
        <ele>1624</ele>
        <time>2020-07-16T13:16:56.567Z</time>
      </trkpt>
      <trkpt lat="46.47909" lon="8.24049">
        <ele>1624</ele>
        <time>2020-07-16T13:16:57.567Z</time>
      </trkpt>
      <trkpt lat="46.47908" lon="8.2405">
        <ele>1624</ele>
        <time>2020-07-16T13:16:58.566Z</time>
      </trkpt>
      <trkpt lat="46.47908" lon="8.24052">
        <ele>1624</ele>
        <time>2020-07-16T13:16:59.567Z</time>
      </trkpt>
      <trkpt lat="46.47907" lon="8.24053">
        <ele>1625</ele>
        <time>2020-07-16T13:17:00.566Z</time>
      </trkpt>
      <trkpt lat="46.47907" lon="8.24055">
        <ele>1625</ele>
        <time>2020-07-16T13:17:01.567Z</time>
      </trkpt>
      <trkpt lat="46.47907" lon="8.24057">
        <ele>1626</ele>
        <time>2020-07-16T13:17:02.566Z</time>
      </trkpt>
      <trkpt lat="46.47906" lon="8.24058">
        <ele>1626</ele>
        <time>2020-07-16T13:17:03.567Z</time>
      </trkpt>
      <trkpt lat="46.47906" lon="8.2406">
        <ele>1626</ele>
        <time>2020-07-16T13:17:04.566Z</time>
      </trkpt>
      <trkpt lat="46.47906" lon="8.24062">
        <ele>1626</ele>
        <time>2020-07-16T13:17:05.566Z</time>
      </trkpt>
      <trkpt lat="46.47906" lon="8.24063">
        <ele>1626</ele>
        <time>2020-07-16T13:17:06.566Z</time>
      </trkpt>
      <trkpt lat="46.47906" lon="8.24065">
        <ele>1626</ele>
        <time>2020-07-16T13:17:07.566Z</time>
      </trkpt>
      <trkpt lat="46.47907" lon="8.24066">
        <ele>1626</ele>
        <time>2020-07-16T13:17:08.566Z</time>
      </trkpt>
      <trkpt lat="46.47907" lon="8.24067">
        <ele>1626</ele>
        <time>2020-07-16T13:17:09.566Z</time>
      </trkpt>
      <trkpt lat="46.47908" lon="8.24068">
        <ele>1626</ele>
        <time>2020-07-16T13:17:10.566Z</time>
      </trkpt>
      <trkpt lat="46.47908" lon="8.24069">
        <ele>1627</ele>
        <time>2020-07-16T13:17:11.567Z</time>
      </trkpt>
      <trkpt lat="46.47909" lon="8.2407">
        <ele>1627</ele>
        <time>2020-07-16T13:17:12.567Z</time>
      </trkpt>
      <trkpt lat="46.47909" lon="8.24072">
        <ele>1627</ele>
        <time>2020-07-16T13:17:13.566Z</time>
      </trkpt>
      <trkpt lat="46.47909" lon="8.24074">
        <ele>1627</ele>
        <time>2020-07-16T13:17:14.567Z</time>
      </trkpt>
      <trkpt lat="46.4791" lon="8.24075">
        <ele>1627</ele>
        <time>2020-07-16T13:17:15.566Z</time>
      </trkpt>
      <trkpt lat="46.4791" lon="8.24077">
        <ele>1627</ele>
        <time>2020-07-16T13:17:16.567Z</time>
      </trkpt>
      <trkpt lat="46.47911" lon="8.24078">
        <ele>1628</ele>
        <time>2020-07-16T13:17:17.567Z</time>
      </trkpt>
      <trkpt lat="46.47912" lon="8.24079">
        <ele>1628</ele>
        <time>2020-07-16T13:17:18.566Z</time>
      </trkpt>
      <trkpt lat="46.47912" lon="8.2408">
        <ele>1628</ele>
        <time>2020-07-16T13:17:19.566Z</time>
      </trkpt>
      <trkpt lat="46.47913" lon="8.24081">
        <ele>1627</ele>
        <time>2020-07-16T13:17:20.566Z</time>
      </trkpt>
      <trkpt lat="46.47914" lon="8.24082">
        <ele>1627</ele>
        <time>2020-07-16T13:17:21.566Z</time>
      </trkpt>
      <trkpt lat="46.47915" lon="8.24083">
        <ele>1627</ele>
        <time>2020-07-16T13:17:22.566Z</time>
      </trkpt>
      <trkpt lat="46.47916" lon="8.24085">
        <ele>1627</ele>
        <time>2020-07-16T13:17:23.566Z</time>
      </trkpt>
      <trkpt lat="46.47916" lon="8.24086">
        <ele>1627</ele>
        <time>2020-07-16T13:17:24.566Z</time>
      </trkpt>
      <trkpt lat="46.47917" lon="8.24087">
        <ele>1627</ele>
        <time>2020-07-16T13:17:25.566Z</time>
      </trkpt>
      <trkpt lat="46.47917" lon="8.24088">
        <ele>1628</ele>
        <time>2020-07-16T13:17:26.566Z</time>
      </trkpt>
      <trkpt lat="46.47918" lon="8.24089">
        <ele>1628</ele>
        <time>2020-07-16T13:17:27.566Z</time>
      </trkpt>
      <trkpt lat="46.47919" lon="8.24091">
        <ele>1629</ele>
        <time>2020-07-16T13:17:28.566Z</time>
      </trkpt>
      <trkpt lat="46.4792" lon="8.24092">
        <ele>1629</ele>
        <time>2020-07-16T13:17:29.567Z</time>
      </trkpt>
      <trkpt lat="46.47921" lon="8.24093">
        <ele>1630</ele>
        <time>2020-07-16T13:17:30.566Z</time>
      </trkpt>
      <trkpt lat="46.47922" lon="8.24095">
        <ele>1630</ele>
        <time>2020-07-16T13:17:31.566Z</time>
      </trkpt>
      <trkpt lat="46.47922" lon="8.24097">
        <ele>1630</ele>
        <time>2020-07-16T13:17:32.566Z</time>
      </trkpt>
      <trkpt lat="46.47923" lon="8.24098">
        <ele>1631</ele>
        <time>2020-07-16T13:17:33.566Z</time>
      </trkpt>
      <trkpt lat="46.47924" lon="8.24099">
        <ele>1631</ele>
        <time>2020-07-16T13:17:34.567Z</time>
      </trkpt>
      <trkpt lat="46.47925" lon="8.241">
        <ele>1632</ele>
        <time>2020-07-16T13:17:35.566Z</time>
      </trkpt>
      <trkpt lat="46.47926" lon="8.241">
        <ele>1632</ele>
        <time>2020-07-16T13:17:36.567Z</time>
      </trkpt>
      <trkpt lat="46.47927" lon="8.241">
        <ele>1632</ele>
        <time>2020-07-16T13:17:37.567Z</time>
      </trkpt>
      <trkpt lat="46.47927" lon="8.24101">
        <ele>1632</ele>
        <time>2020-07-16T13:17:38.566Z</time>
      </trkpt>
      <trkpt lat="46.47928" lon="8.24101">
        <ele>1632</ele>
        <time>2020-07-16T13:17:39.566Z</time>
      </trkpt>
      <trkpt lat="46.47928" lon="8.24103">
        <ele>1632</ele>
        <time>2020-07-16T13:17:40.567Z</time>
      </trkpt>
      <trkpt lat="46.47928" lon="8.24104">
        <ele>1631</ele>
        <time>2020-07-16T13:17:41.567Z</time>
      </trkpt>
      <trkpt lat="46.47929" lon="8.24106">
        <ele>1631</ele>
        <time>2020-07-16T13:17:42.566Z</time>
      </trkpt>
      <trkpt lat="46.47929" lon="8.24107">
        <ele>1630</ele>
        <time>2020-07-16T13:17:43.567Z</time>
      </trkpt>
      <trkpt lat="46.4793" lon="8.24108">
        <ele>1630</ele>
        <time>2020-07-16T13:17:44.567Z</time>
      </trkpt>
      <trkpt lat="46.47931" lon="8.24109">
        <ele>1630</ele>
        <time>2020-07-16T13:17:45.566Z</time>
      </trkpt>
      <trkpt lat="46.47931" lon="8.24109">
        <ele>1629</ele>
        <time>2020-07-16T13:17:46.566Z</time>
      </trkpt>
      <trkpt lat="46.47932" lon="8.2411">
        <ele>1628</ele>
        <time>2020-07-16T13:17:47.567Z</time>
      </trkpt>
      <trkpt lat="46.47932" lon="8.24109">
        <ele>1628</ele>
        <time>2020-07-16T13:17:48.567Z</time>
      </trkpt>
      <trkpt lat="46.47934" lon="8.2411">
        <ele>1627</ele>
        <time>2020-07-16T13:17:49.566Z</time>
      </trkpt>
      <trkpt lat="46.47934" lon="8.24111">
        <ele>1627</ele>
        <time>2020-07-16T13:17:50.567Z</time>
      </trkpt>
      <trkpt lat="46.47935" lon="8.24112">
        <ele>1626</ele>
        <time>2020-07-16T13:17:51.566Z</time>
      </trkpt>
      <trkpt lat="46.47935" lon="8.24113">
        <ele>1626</ele>
        <time>2020-07-16T13:17:52.566Z</time>
      </trkpt>
      <trkpt lat="46.47936" lon="8.24114">
        <ele>1626</ele>
        <time>2020-07-16T13:17:53.567Z</time>
      </trkpt>
      <trkpt lat="46.47936" lon="8.24115">
        <ele>1625</ele>
        <time>2020-07-16T13:17:54.567Z</time>
      </trkpt>
      <trkpt lat="46.47937" lon="8.24116">
        <ele>1625</ele>
        <time>2020-07-16T13:17:55.566Z</time>
      </trkpt>
      <trkpt lat="46.47937" lon="8.24116">
        <ele>1625</ele>
        <time>2020-07-16T13:17:56.567Z</time>
      </trkpt>
      <trkpt lat="46.47938" lon="8.24117">
        <ele>1624</ele>
        <time>2020-07-16T13:17:57.567Z</time>
      </trkpt>
      <trkpt lat="46.47938" lon="8.24118">
        <ele>1624</ele>
        <time>2020-07-16T13:17:58.567Z</time>
      </trkpt>
      <trkpt lat="46.47939" lon="8.24118">
        <ele>1623</ele>
        <time>2020-07-16T13:17:59.567Z</time>
      </trkpt>
      <trkpt lat="46.47939" lon="8.24119">
        <ele>1623</ele>
        <time>2020-07-16T13:18:00.566Z</time>
      </trkpt>
      <trkpt lat="46.4794" lon="8.2412">
        <ele>1623</ele>
        <time>2020-07-16T13:18:01.567Z</time>
      </trkpt>
      <trkpt lat="46.4794" lon="8.2412">
        <ele>1623</ele>
        <time>2020-07-16T13:18:02.567Z</time>
      </trkpt>
      <trkpt lat="46.47941" lon="8.2412">
        <ele>1622</ele>
        <time>2020-07-16T13:18:03.567Z</time>
      </trkpt>
      <trkpt lat="46.47942" lon="8.24121">
        <ele>1623</ele>
        <time>2020-07-16T13:18:04.567Z</time>
      </trkpt>
      <trkpt lat="46.47942" lon="8.24121">
        <ele>1623</ele>
        <time>2020-07-16T13:18:05.567Z</time>
      </trkpt>
      <trkpt lat="46.47942" lon="8.24121">
        <ele>1623</ele>
        <time>2020-07-16T13:18:06.567Z</time>
      </trkpt>
      <trkpt lat="46.47943" lon="8.24123">
        <ele>1626</ele>
        <time>2020-07-16T13:18:07.567Z</time>
      </trkpt>
      <trkpt lat="46.47943" lon="8.24123">
        <ele>1626</ele>
        <time>2020-07-16T13:18:08.567Z</time>
      </trkpt>
      <trkpt lat="46.47944" lon="8.24124">
        <ele>1626</ele>
        <time>2020-07-16T13:18:09.566Z</time>
      </trkpt>
      <trkpt lat="46.47945" lon="8.24124">
        <ele>1626</ele>
        <time>2020-07-16T13:18:10.566Z</time>
      </trkpt>
      <trkpt lat="46.47945" lon="8.24125">
        <ele>1626</ele>
        <time>2020-07-16T13:18:11.567Z</time>
      </trkpt>
      <trkpt lat="46.47945" lon="8.24125">
        <ele>1626</ele>
        <time>2020-07-16T13:18:12.567Z</time>
      </trkpt>
      <trkpt lat="46.47945" lon="8.24126">
        <ele>1626</ele>
        <time>2020-07-16T13:18:13.567Z</time>
      </trkpt>
      <trkpt lat="46.47945" lon="8.24127">
        <ele>1626</ele>
        <time>2020-07-16T13:18:14.567Z</time>
      </trkpt>
      <trkpt lat="46.47945" lon="8.24127">
        <ele>1626</ele>
        <time>2020-07-16T13:18:15.566Z</time>
      </trkpt>
      <trkpt lat="46.47945" lon="8.24128">
        <ele>1626</ele>
        <time>2020-07-16T13:18:16.566Z</time>
      </trkpt>
      <trkpt lat="46.47946" lon="8.24129">
        <ele>1626</ele>
        <time>2020-07-16T13:18:17.566Z</time>
      </trkpt>
      <trkpt lat="46.47946" lon="8.2413">
        <ele>1626</ele>
        <time>2020-07-16T13:18:18.567Z</time>
      </trkpt>
      <trkpt lat="46.47947" lon="8.2413">
        <ele>1626</ele>
        <time>2020-07-16T13:18:19.567Z</time>
      </trkpt>
      <trkpt lat="46.47947" lon="8.24132">
        <ele>1626</ele>
        <time>2020-07-16T13:18:20.566Z</time>
      </trkpt>
      <trkpt lat="46.47948" lon="8.24132">
        <ele>1626</ele>
        <time>2020-07-16T13:18:21.566Z</time>
      </trkpt>
      <trkpt lat="46.47949" lon="8.24133">
        <ele>1626</ele>
        <time>2020-07-16T13:18:22.566Z</time>
      </trkpt>
      <trkpt lat="46.47949" lon="8.24134">
        <ele>1626</ele>
        <time>2020-07-16T13:18:23.566Z</time>
      </trkpt>
      <trkpt lat="46.47949" lon="8.24135">
        <ele>1626</ele>
        <time>2020-07-16T13:18:24.566Z</time>
      </trkpt>
      <trkpt lat="46.47949" lon="8.24137">
        <ele>1625</ele>
        <time>2020-07-16T13:18:25.566Z</time>
      </trkpt>
      <trkpt lat="46.47949" lon="8.24138">
        <ele>1625</ele>
        <time>2020-07-16T13:18:26.567Z</time>
      </trkpt>
      <trkpt lat="46.47949" lon="8.24139">
        <ele>1625</ele>
        <time>2020-07-16T13:18:27.566Z</time>
      </trkpt>
      <trkpt lat="46.47949" lon="8.2414">
        <ele>1625</ele>
        <time>2020-07-16T13:18:28.566Z</time>
      </trkpt>
      <trkpt lat="46.4795" lon="8.24141">
        <ele>1624</ele>
        <time>2020-07-16T13:18:29.566Z</time>
      </trkpt>
      <trkpt lat="46.4795" lon="8.24142">
        <ele>1624</ele>
        <time>2020-07-16T13:18:30.566Z</time>
      </trkpt>
      <trkpt lat="46.4795" lon="8.24143">
        <ele>1623</ele>
        <time>2020-07-16T13:18:31.566Z</time>
      </trkpt>
      <trkpt lat="46.4795" lon="8.24144">
        <ele>1623</ele>
        <time>2020-07-16T13:18:32.566Z</time>
      </trkpt>
      <trkpt lat="46.47949" lon="8.24145">
        <ele>1623</ele>
        <time>2020-07-16T13:18:33.566Z</time>
      </trkpt>
      <trkpt lat="46.47949" lon="8.24146">
        <ele>1624</ele>
        <time>2020-07-16T13:18:34.566Z</time>
      </trkpt>
      <trkpt lat="46.47948" lon="8.24148">
        <ele>1624</ele>
        <time>2020-07-16T13:18:35.567Z</time>
      </trkpt>
      <trkpt lat="46.47949" lon="8.24149">
        <ele>1625</ele>
        <time>2020-07-16T13:18:36.566Z</time>
      </trkpt>
      <trkpt lat="46.47949" lon="8.24149">
        <ele>1625</ele>
        <time>2020-07-16T13:18:37.566Z</time>
      </trkpt>
      <trkpt lat="46.47949" lon="8.24149">
        <ele>1626</ele>
        <time>2020-07-16T13:18:38.566Z</time>
      </trkpt>
      <trkpt lat="46.4795" lon="8.2415">
        <ele>1626</ele>
        <time>2020-07-16T13:18:39.566Z</time>
      </trkpt>
      <trkpt lat="46.4795" lon="8.24151">
        <ele>1625</ele>
        <time>2020-07-16T13:18:40.566Z</time>
      </trkpt>
      <trkpt lat="46.47949" lon="8.24152">
        <ele>1625</ele>
        <time>2020-07-16T13:18:41.566Z</time>
      </trkpt>
      <trkpt lat="46.47948" lon="8.24153">
        <ele>1624</ele>
        <time>2020-07-16T13:18:42.566Z</time>
      </trkpt>
      <trkpt lat="46.47947" lon="8.24153">
        <ele>1623</ele>
        <time>2020-07-16T13:18:43.567Z</time>
      </trkpt>
      <trkpt lat="46.47946" lon="8.24154">
        <ele>1623</ele>
        <time>2020-07-16T13:18:44.566Z</time>
      </trkpt>
      <trkpt lat="46.47946" lon="8.24154">
        <ele>1623</ele>
        <time>2020-07-16T13:18:45.566Z</time>
      </trkpt>
      <trkpt lat="46.47946" lon="8.24155">
        <ele>1624</ele>
        <time>2020-07-16T13:18:46.566Z</time>
      </trkpt>
      <trkpt lat="46.47946" lon="8.24155">
        <ele>1624</ele>
        <time>2020-07-16T13:18:47.567Z</time>
      </trkpt>
      <trkpt lat="46.47946" lon="8.24157">
        <ele>1624</ele>
        <time>2020-07-16T13:18:48.566Z</time>
      </trkpt>
      <trkpt lat="46.47945" lon="8.24158">
        <ele>1624</ele>
        <time>2020-07-16T13:18:49.566Z</time>
      </trkpt>
      <trkpt lat="46.47945" lon="8.24159">
        <ele>1624</ele>
        <time>2020-07-16T13:18:50.566Z</time>
      </trkpt>
      <trkpt lat="46.47944" lon="8.24161">
        <ele>1624</ele>
        <time>2020-07-16T13:18:51.566Z</time>
      </trkpt>
      <trkpt lat="46.47944" lon="8.24162">
        <ele>1624</ele>
        <time>2020-07-16T13:18:52.566Z</time>
      </trkpt>
      <trkpt lat="46.47944" lon="8.24163">
        <ele>1624</ele>
        <time>2020-07-16T13:18:53.566Z</time>
      </trkpt>
      <trkpt lat="46.47943" lon="8.24164">
        <ele>1624</ele>
        <time>2020-07-16T13:18:54.566Z</time>
      </trkpt>
      <trkpt lat="46.47943" lon="8.24164">
        <ele>1625</ele>
        <time>2020-07-16T13:18:55.566Z</time>
      </trkpt>
      <trkpt lat="46.47942" lon="8.24165">
        <ele>1625</ele>
        <time>2020-07-16T13:18:56.566Z</time>
      </trkpt>
      <trkpt lat="46.47941" lon="8.24165">
        <ele>1626</ele>
        <time>2020-07-16T13:18:57.566Z</time>
      </trkpt>
      <trkpt lat="46.47941" lon="8.24166">
        <ele>1626</ele>
        <time>2020-07-16T13:18:58.567Z</time>
      </trkpt>
      <trkpt lat="46.47941" lon="8.24168">
        <ele>1626</ele>
        <time>2020-07-16T13:18:59.566Z</time>
      </trkpt>
      <trkpt lat="46.4794" lon="8.24169">
        <ele>1626</ele>
        <time>2020-07-16T13:19:00.567Z</time>
      </trkpt>
      <trkpt lat="46.4794" lon="8.2417">
        <ele>1626</ele>
        <time>2020-07-16T13:19:01.567Z</time>
      </trkpt>
      <trkpt lat="46.4794" lon="8.24172">
        <ele>1625</ele>
        <time>2020-07-16T13:19:02.567Z</time>
      </trkpt>
      <trkpt lat="46.4794" lon="8.24172">
        <ele>1625</ele>
        <time>2020-07-16T13:19:03.567Z</time>
      </trkpt>
      <trkpt lat="46.4794" lon="8.24173">
        <ele>1625</ele>
        <time>2020-07-16T13:19:04.567Z</time>
      </trkpt>
      <trkpt lat="46.47939" lon="8.24175">
        <ele>1625</ele>
        <time>2020-07-16T13:19:05.567Z</time>
      </trkpt>
      <trkpt lat="46.47938" lon="8.24176">
        <ele>1625</ele>
        <time>2020-07-16T13:19:06.567Z</time>
      </trkpt>
      <trkpt lat="46.47937" lon="8.24178">
        <ele>1625</ele>
        <time>2020-07-16T13:19:07.567Z</time>
      </trkpt>
      <trkpt lat="46.47937" lon="8.2418">
        <ele>1625</ele>
        <time>2020-07-16T13:19:08.567Z</time>
      </trkpt>
      <trkpt lat="46.47936" lon="8.24181">
        <ele>1626</ele>
        <time>2020-07-16T13:19:09.567Z</time>
      </trkpt>
      <trkpt lat="46.47936" lon="8.24183">
        <ele>1625</ele>
        <time>2020-07-16T13:19:10.566Z</time>
      </trkpt>
      <trkpt lat="46.47936" lon="8.24184">
        <ele>1624</ele>
        <time>2020-07-16T13:19:11.567Z</time>
      </trkpt>
      <trkpt lat="46.47937" lon="8.24185">
        <ele>1623</ele>
        <time>2020-07-16T13:19:12.567Z</time>
      </trkpt>
      <trkpt lat="46.47937" lon="8.24186">
        <ele>1622</ele>
        <time>2020-07-16T13:19:13.567Z</time>
      </trkpt>
      <trkpt lat="46.47936" lon="8.24188">
        <ele>1622</ele>
        <time>2020-07-16T13:19:14.567Z</time>
      </trkpt>
      <trkpt lat="46.47936" lon="8.2419">
        <ele>1621</ele>
        <time>2020-07-16T13:19:15.567Z</time>
      </trkpt>
      <trkpt lat="46.47936" lon="8.24191">
        <ele>1621</ele>
        <time>2020-07-16T13:19:16.567Z</time>
      </trkpt>
      <trkpt lat="46.47935" lon="8.24192">
        <ele>1621</ele>
        <time>2020-07-16T13:19:17.567Z</time>
      </trkpt>
      <trkpt lat="46.47934" lon="8.24193">
        <ele>1622</ele>
        <time>2020-07-16T13:19:18.567Z</time>
      </trkpt>
      <trkpt lat="46.47932" lon="8.24194">
        <ele>1622</ele>
        <time>2020-07-16T13:19:19.567Z</time>
      </trkpt>
      <trkpt lat="46.47931" lon="8.24195">
        <ele>1623</ele>
        <time>2020-07-16T13:19:20.567Z</time>
      </trkpt>
      <trkpt lat="46.47931" lon="8.24195">
        <ele>1623</ele>
        <time>2020-07-16T13:19:21.566Z</time>
      </trkpt>
      <trkpt lat="46.47931" lon="8.24195">
        <ele>1623</ele>
        <time>2020-07-16T13:19:22.567Z</time>
      </trkpt>
      <trkpt lat="46.4793" lon="8.24196">
        <ele>1622</ele>
        <time>2020-07-16T13:19:23.566Z</time>
      </trkpt>
      <trkpt lat="46.4793" lon="8.24198">
        <ele>1622</ele>
        <time>2020-07-16T13:19:24.566Z</time>
      </trkpt>
      <trkpt lat="46.4793" lon="8.24199">
        <ele>1621</ele>
        <time>2020-07-16T13:19:25.567Z</time>
      </trkpt>
      <trkpt lat="46.4793" lon="8.24199">
        <ele>1620</ele>
        <time>2020-07-16T13:19:26.567Z</time>
      </trkpt>
      <trkpt lat="46.4793" lon="8.24199">
        <ele>1620</ele>
        <time>2020-07-16T13:19:27.567Z</time>
      </trkpt>
      <trkpt lat="46.4793" lon="8.24199">
        <ele>1619</ele>
        <time>2020-07-16T13:19:28.567Z</time>
      </trkpt>
      <trkpt lat="46.47931" lon="8.24198">
        <ele>1619</ele>
        <time>2020-07-16T13:19:29.568Z</time>
      </trkpt>
      <trkpt lat="46.47931" lon="8.24199">
        <ele>1618</ele>
        <time>2020-07-16T13:19:30.568Z</time>
      </trkpt>
      <trkpt lat="46.47931" lon="8.242">
        <ele>1618</ele>
        <time>2020-07-16T13:19:31.568Z</time>
      </trkpt>
      <trkpt lat="46.47931" lon="8.24201">
        <ele>1618</ele>
        <time>2020-07-16T13:19:32.567Z</time>
      </trkpt>
      <trkpt lat="46.47931" lon="8.24206">
        <ele>1620</ele>
        <time>2020-07-16T13:19:33.568Z</time>
      </trkpt>
      <trkpt lat="46.47931" lon="8.24206">
        <ele>1620</ele>
        <time>2020-07-16T13:19:34.568Z</time>
      </trkpt>
      <trkpt lat="46.4793" lon="8.24207">
        <ele>1620</ele>
        <time>2020-07-16T13:19:35.567Z</time>
      </trkpt>
      <trkpt lat="46.4793" lon="8.24208">
        <ele>1621</ele>
        <time>2020-07-16T13:19:36.568Z</time>
      </trkpt>
      <trkpt lat="46.4793" lon="8.2421">
        <ele>1621</ele>
        <time>2020-07-16T13:19:37.568Z</time>
      </trkpt>
      <trkpt lat="46.4793" lon="8.24211">
        <ele>1621</ele>
        <time>2020-07-16T13:19:38.568Z</time>
      </trkpt>
      <trkpt lat="46.47931" lon="8.24213">
        <ele>1620</ele>
        <time>2020-07-16T13:19:39.568Z</time>
      </trkpt>
      <trkpt lat="46.4793" lon="8.24214">
        <ele>1619</ele>
        <time>2020-07-16T13:19:40.568Z</time>
      </trkpt>
      <trkpt lat="46.4793" lon="8.24214">
        <ele>1619</ele>
        <time>2020-07-16T13:19:41.568Z</time>
      </trkpt>
      <trkpt lat="46.4793" lon="8.24215">
        <ele>1618</ele>
        <time>2020-07-16T13:19:42.567Z</time>
      </trkpt>
      <trkpt lat="46.4793" lon="8.24216">
        <ele>1618</ele>
        <time>2020-07-16T13:19:43.568Z</time>
      </trkpt>
      <trkpt lat="46.4793" lon="8.24216">
        <ele>1618</ele>
        <time>2020-07-16T13:19:44.568Z</time>
      </trkpt>
      <trkpt lat="46.4793" lon="8.24217">
        <ele>1618</ele>
        <time>2020-07-16T13:19:45.568Z</time>
      </trkpt>
      <trkpt lat="46.47929" lon="8.24217">
        <ele>1617</ele>
        <time>2020-07-16T13:19:46.568Z</time>
      </trkpt>
      <trkpt lat="46.4793" lon="8.24218">
        <ele>1617</ele>
        <time>2020-07-16T13:19:47.568Z</time>
      </trkpt>
      <trkpt lat="46.4793" lon="8.24219">
        <ele>1617</ele>
        <time>2020-07-16T13:19:48.568Z</time>
      </trkpt>
      <trkpt lat="46.47929" lon="8.2422">
        <ele>1617</ele>
        <time>2020-07-16T13:19:49.568Z</time>
      </trkpt>
      <trkpt lat="46.47929" lon="8.24221">
        <ele>1617</ele>
        <time>2020-07-16T13:19:50.568Z</time>
      </trkpt>
      <trkpt lat="46.47929" lon="8.24222">
        <ele>1617</ele>
        <time>2020-07-16T13:19:51.568Z</time>
      </trkpt>
      <trkpt lat="46.47928" lon="8.24223">
        <ele>1618</ele>
        <time>2020-07-16T13:19:52.567Z</time>
      </trkpt>
      <trkpt lat="46.47928" lon="8.24224">
        <ele>1619</ele>
        <time>2020-07-16T13:19:53.568Z</time>
      </trkpt>
      <trkpt lat="46.47928" lon="8.24226">
        <ele>1619</ele>
        <time>2020-07-16T13:19:54.567Z</time>
      </trkpt>
      <trkpt lat="46.47927" lon="8.24228">
        <ele>1620</ele>
        <time>2020-07-16T13:19:55.568Z</time>
      </trkpt>
      <trkpt lat="46.47927" lon="8.24229">
        <ele>1621</ele>
        <time>2020-07-16T13:19:56.567Z</time>
      </trkpt>
      <trkpt lat="46.47926" lon="8.2423">
        <ele>1621</ele>
        <time>2020-07-16T13:19:57.567Z</time>
      </trkpt>
      <trkpt lat="46.47926" lon="8.24231">
        <ele>1621</ele>
        <time>2020-07-16T13:19:58.568Z</time>
      </trkpt>
      <trkpt lat="46.47926" lon="8.24232">
        <ele>1621</ele>
        <time>2020-07-16T13:19:59.568Z</time>
      </trkpt>
      <trkpt lat="46.47926" lon="8.24233">
        <ele>1621</ele>
        <time>2020-07-16T13:20:00.568Z</time>
      </trkpt>
      <trkpt lat="46.47925" lon="8.24234">
        <ele>1621</ele>
        <time>2020-07-16T13:20:01.567Z</time>
      </trkpt>
      <trkpt lat="46.47925" lon="8.24236">
        <ele>1621</ele>
        <time>2020-07-16T13:20:02.567Z</time>
      </trkpt>
      <trkpt lat="46.47924" lon="8.24238">
        <ele>1621</ele>
        <time>2020-07-16T13:20:03.568Z</time>
      </trkpt>
      <trkpt lat="46.47924" lon="8.24239">
        <ele>1621</ele>
        <time>2020-07-16T13:20:04.567Z</time>
      </trkpt>
      <trkpt lat="46.47923" lon="8.2424">
        <ele>1620</ele>
        <time>2020-07-16T13:20:05.568Z</time>
      </trkpt>
      <trkpt lat="46.47922" lon="8.24242">
        <ele>1620</ele>
        <time>2020-07-16T13:20:06.568Z</time>
      </trkpt>
      <trkpt lat="46.47921" lon="8.24244">
        <ele>1620</ele>
        <time>2020-07-16T13:20:07.568Z</time>
      </trkpt>
      <trkpt lat="46.47921" lon="8.24245">
        <ele>1620</ele>
        <time>2020-07-16T13:20:08.567Z</time>
      </trkpt>
      <trkpt lat="46.4792" lon="8.24247">
        <ele>1619</ele>
        <time>2020-07-16T13:20:09.568Z</time>
      </trkpt>
      <trkpt lat="46.4792" lon="8.24248">
        <ele>1619</ele>
        <time>2020-07-16T13:20:10.568Z</time>
      </trkpt>
      <trkpt lat="46.4792" lon="8.24249">
        <ele>1618</ele>
        <time>2020-07-16T13:20:11.568Z</time>
      </trkpt>
      <trkpt lat="46.47919" lon="8.24251">
        <ele>1617</ele>
        <time>2020-07-16T13:20:12.568Z</time>
      </trkpt>
      <trkpt lat="46.47919" lon="8.24252">
        <ele>1616</ele>
        <time>2020-07-16T13:20:13.568Z</time>
      </trkpt>
      <trkpt lat="46.47919" lon="8.24254">
        <ele>1616</ele>
        <time>2020-07-16T13:20:14.567Z</time>
      </trkpt>
      <trkpt lat="46.47919" lon="8.24255">
        <ele>1616</ele>
        <time>2020-07-16T13:20:15.567Z</time>
      </trkpt>
      <trkpt lat="46.47918" lon="8.24257">
        <ele>1615</ele>
        <time>2020-07-16T13:20:16.568Z</time>
      </trkpt>
      <trkpt lat="46.47918" lon="8.24259">
        <ele>1616</ele>
        <time>2020-07-16T13:20:17.568Z</time>
      </trkpt>
      <trkpt lat="46.47918" lon="8.24261">
        <ele>1616</ele>
        <time>2020-07-16T13:20:18.568Z</time>
      </trkpt>
      <trkpt lat="46.47917" lon="8.24263">
        <ele>1616</ele>
        <time>2020-07-16T13:20:19.568Z</time>
      </trkpt>
      <trkpt lat="46.47917" lon="8.24265">
        <ele>1616</ele>
        <time>2020-07-16T13:20:20.568Z</time>
      </trkpt>
      <trkpt lat="46.47918" lon="8.24266">
        <ele>1617</ele>
        <time>2020-07-16T13:20:21.567Z</time>
      </trkpt>
      <trkpt lat="46.47918" lon="8.24267">
        <ele>1617</ele>
        <time>2020-07-16T13:20:22.567Z</time>
      </trkpt>
      <trkpt lat="46.47919" lon="8.24269">
        <ele>1617</ele>
        <time>2020-07-16T13:20:23.568Z</time>
      </trkpt>
      <trkpt lat="46.47919" lon="8.2427">
        <ele>1617</ele>
        <time>2020-07-16T13:20:24.568Z</time>
      </trkpt>
      <trkpt lat="46.47919" lon="8.24271">
        <ele>1618</ele>
        <time>2020-07-16T13:20:25.568Z</time>
      </trkpt>
      <trkpt lat="46.4792" lon="8.24273">
        <ele>1618</ele>
        <time>2020-07-16T13:20:26.568Z</time>
      </trkpt>
      <trkpt lat="46.47921" lon="8.24276">
        <ele>1619</ele>
        <time>2020-07-16T13:20:27.568Z</time>
      </trkpt>
      <trkpt lat="46.47921" lon="8.24279">
        <ele>1620</ele>
        <time>2020-07-16T13:20:28.568Z</time>
      </trkpt>
      <trkpt lat="46.47922" lon="8.24282">
        <ele>1621</ele>
        <time>2020-07-16T13:20:29.567Z</time>
      </trkpt>
      <trkpt lat="46.47922" lon="8.24284">
        <ele>1621</ele>
        <time>2020-07-16T13:20:30.568Z</time>
      </trkpt>
      <trkpt lat="46.47923" lon="8.24286">
        <ele>1622</ele>
        <time>2020-07-16T13:20:31.568Z</time>
      </trkpt>
      <trkpt lat="46.47924" lon="8.24287">
        <ele>1621</ele>
        <time>2020-07-16T13:20:32.568Z</time>
      </trkpt>
      <trkpt lat="46.47925" lon="8.24288">
        <ele>1621</ele>
        <time>2020-07-16T13:20:33.568Z</time>
      </trkpt>
      <trkpt lat="46.47926" lon="8.24289">
        <ele>1621</ele>
        <time>2020-07-16T13:20:34.568Z</time>
      </trkpt>
      <trkpt lat="46.47927" lon="8.24291">
        <ele>1621</ele>
        <time>2020-07-16T13:20:35.568Z</time>
      </trkpt>
      <trkpt lat="46.47928" lon="8.24292">
        <ele>1620</ele>
        <time>2020-07-16T13:20:36.568Z</time>
      </trkpt>
      <trkpt lat="46.47929" lon="8.24293">
        <ele>1620</ele>
        <time>2020-07-16T13:20:37.567Z</time>
      </trkpt>
      <trkpt lat="46.47929" lon="8.24294">
        <ele>1620</ele>
        <time>2020-07-16T13:20:38.568Z</time>
      </trkpt>
      <trkpt lat="46.4793" lon="8.24295">
        <ele>1620</ele>
        <time>2020-07-16T13:20:39.568Z</time>
      </trkpt>
      <trkpt lat="46.4793" lon="8.24295">
        <ele>1619</ele>
        <time>2020-07-16T13:20:40.567Z</time>
      </trkpt>
      <trkpt lat="46.47931" lon="8.24296">
        <ele>1619</ele>
        <time>2020-07-16T13:20:41.567Z</time>
      </trkpt>
      <trkpt lat="46.47932" lon="8.24297">
        <ele>1618</ele>
        <time>2020-07-16T13:20:42.567Z</time>
      </trkpt>
      <trkpt lat="46.47932" lon="8.24298">
        <ele>1618</ele>
        <time>2020-07-16T13:20:43.568Z</time>
      </trkpt>
      <trkpt lat="46.47933" lon="8.24299">
        <ele>1617</ele>
        <time>2020-07-16T13:20:44.567Z</time>
      </trkpt>
      <trkpt lat="46.47933" lon="8.243">
        <ele>1616</ele>
        <time>2020-07-16T13:20:45.567Z</time>
      </trkpt>
      <trkpt lat="46.47934" lon="8.24301">
        <ele>1615</ele>
        <time>2020-07-16T13:20:46.568Z</time>
      </trkpt>
      <trkpt lat="46.47935" lon="8.24302">
        <ele>1615</ele>
        <time>2020-07-16T13:20:47.567Z</time>
      </trkpt>
      <trkpt lat="46.47936" lon="8.24303">
        <ele>1615</ele>
        <time>2020-07-16T13:20:48.567Z</time>
      </trkpt>
      <trkpt lat="46.47936" lon="8.24304">
        <ele>1615</ele>
        <time>2020-07-16T13:20:49.568Z</time>
      </trkpt>
      <trkpt lat="46.47937" lon="8.24306">
        <ele>1615</ele>
        <time>2020-07-16T13:20:50.568Z</time>
      </trkpt>
      <trkpt lat="46.47937" lon="8.24307">
        <ele>1616</ele>
        <time>2020-07-16T13:20:51.568Z</time>
      </trkpt>
      <trkpt lat="46.47938" lon="8.24309">
        <ele>1616</ele>
        <time>2020-07-16T13:20:52.568Z</time>
      </trkpt>
      <trkpt lat="46.47937" lon="8.2431">
        <ele>1615</ele>
        <time>2020-07-16T13:20:53.567Z</time>
      </trkpt>
      <trkpt lat="46.47937" lon="8.24312">
        <ele>1615</ele>
        <time>2020-07-16T13:20:54.567Z</time>
      </trkpt>
      <trkpt lat="46.47937" lon="8.24313">
        <ele>1614</ele>
        <time>2020-07-16T13:20:55.567Z</time>
      </trkpt>
      <trkpt lat="46.47938" lon="8.24314">
        <ele>1613</ele>
        <time>2020-07-16T13:20:56.567Z</time>
      </trkpt>
      <trkpt lat="46.47938" lon="8.24316">
        <ele>1613</ele>
        <time>2020-07-16T13:20:57.568Z</time>
      </trkpt>
      <trkpt lat="46.47938" lon="8.24317">
        <ele>1612</ele>
        <time>2020-07-16T13:20:58.568Z</time>
      </trkpt>
      <trkpt lat="46.47938" lon="8.24318">
        <ele>1612</ele>
        <time>2020-07-16T13:20:59.568Z</time>
      </trkpt>
      <trkpt lat="46.47938" lon="8.2432">
        <ele>1612</ele>
        <time>2020-07-16T13:21:00.567Z</time>
      </trkpt>
      <trkpt lat="46.47939" lon="8.2432">
        <ele>1611</ele>
        <time>2020-07-16T13:21:01.567Z</time>
      </trkpt>
      <trkpt lat="46.47939" lon="8.24321">
        <ele>1611</ele>
        <time>2020-07-16T13:21:02.567Z</time>
      </trkpt>
      <trkpt lat="46.47939" lon="8.24321">
        <ele>1611</ele>
        <time>2020-07-16T13:21:03.568Z</time>
      </trkpt>
      <trkpt lat="46.4794" lon="8.24322">
        <ele>1611</ele>
        <time>2020-07-16T13:21:04.568Z</time>
      </trkpt>
      <trkpt lat="46.4794" lon="8.24324">
        <ele>1611</ele>
        <time>2020-07-16T13:21:05.568Z</time>
      </trkpt>
      <trkpt lat="46.4794" lon="8.24325">
        <ele>1611</ele>
        <time>2020-07-16T13:21:06.567Z</time>
      </trkpt>
      <trkpt lat="46.4794" lon="8.24326">
        <ele>1612</ele>
        <time>2020-07-16T13:21:07.568Z</time>
      </trkpt>
      <trkpt lat="46.47941" lon="8.24327">
        <ele>1612</ele>
        <time>2020-07-16T13:21:08.568Z</time>
      </trkpt>
      <trkpt lat="46.47941" lon="8.24329">
        <ele>1613</ele>
        <time>2020-07-16T13:21:09.567Z</time>
      </trkpt>
      <trkpt lat="46.47942" lon="8.2433">
        <ele>1613</ele>
        <time>2020-07-16T13:21:10.568Z</time>
      </trkpt>
      <trkpt lat="46.47943" lon="8.24332">
        <ele>1613</ele>
        <time>2020-07-16T13:21:11.567Z</time>
      </trkpt>
      <trkpt lat="46.47943" lon="8.24333">
        <ele>1613</ele>
        <time>2020-07-16T13:21:12.567Z</time>
      </trkpt>
      <trkpt lat="46.47944" lon="8.24334">
        <ele>1613</ele>
        <time>2020-07-16T13:21:13.567Z</time>
      </trkpt>
      <trkpt lat="46.47944" lon="8.24336">
        <ele>1614</ele>
        <time>2020-07-16T13:21:14.567Z</time>
      </trkpt>
      <trkpt lat="46.47945" lon="8.24337">
        <ele>1614</ele>
        <time>2020-07-16T13:21:15.567Z</time>
      </trkpt>
      <trkpt lat="46.47945" lon="8.24339">
        <ele>1614</ele>
        <time>2020-07-16T13:21:16.567Z</time>
      </trkpt>
      <trkpt lat="46.47946" lon="8.2434">
        <ele>1614</ele>
        <time>2020-07-16T13:21:17.567Z</time>
      </trkpt>
      <trkpt lat="46.47946" lon="8.24342">
        <ele>1615</ele>
        <time>2020-07-16T13:21:18.567Z</time>
      </trkpt>
      <trkpt lat="46.47947" lon="8.24343">
        <ele>1615</ele>
        <time>2020-07-16T13:21:19.568Z</time>
      </trkpt>
      <trkpt lat="46.47947" lon="8.24345">
        <ele>1616</ele>
        <time>2020-07-16T13:21:20.568Z</time>
      </trkpt>
      <trkpt lat="46.47947" lon="8.24347">
        <ele>1616</ele>
        <time>2020-07-16T13:21:21.568Z</time>
      </trkpt>
      <trkpt lat="46.47948" lon="8.24348">
        <ele>1616</ele>
        <time>2020-07-16T13:21:22.567Z</time>
      </trkpt>
      <trkpt lat="46.47948" lon="8.24349">
        <ele>1615</ele>
        <time>2020-07-16T13:21:23.567Z</time>
      </trkpt>
      <trkpt lat="46.47949" lon="8.2435">
        <ele>1615</ele>
        <time>2020-07-16T13:21:24.568Z</time>
      </trkpt>
      <trkpt lat="46.47949" lon="8.2435">
        <ele>1615</ele>
        <time>2020-07-16T13:21:25.567Z</time>
      </trkpt>
      <trkpt lat="46.4795" lon="8.24351">
        <ele>1614</ele>
        <time>2020-07-16T13:21:26.568Z</time>
      </trkpt>
      <trkpt lat="46.47951" lon="8.24352">
        <ele>1614</ele>
        <time>2020-07-16T13:21:27.568Z</time>
      </trkpt>
      <trkpt lat="46.47951" lon="8.24352">
        <ele>1613</ele>
        <time>2020-07-16T13:21:28.568Z</time>
      </trkpt>
      <trkpt lat="46.47952" lon="8.24353">
        <ele>1612</ele>
        <time>2020-07-16T13:21:29.568Z</time>
      </trkpt>
      <trkpt lat="46.47952" lon="8.24354">
        <ele>1612</ele>
        <time>2020-07-16T13:21:30.568Z</time>
      </trkpt>
      <trkpt lat="46.47953" lon="8.24355">
        <ele>1611</ele>
        <time>2020-07-16T13:21:31.568Z</time>
      </trkpt>
      <trkpt lat="46.47953" lon="8.24356">
        <ele>1611</ele>
        <time>2020-07-16T13:21:32.568Z</time>
      </trkpt>
      <trkpt lat="46.47953" lon="8.24357">
        <ele>1611</ele>
        <time>2020-07-16T13:21:33.568Z</time>
      </trkpt>
      <trkpt lat="46.47953" lon="8.24357">
        <ele>1611</ele>
        <time>2020-07-16T13:21:34.568Z</time>
      </trkpt>
      <trkpt lat="46.47954" lon="8.24358">
        <ele>1612</ele>
        <time>2020-07-16T13:21:35.568Z</time>
      </trkpt>
      <trkpt lat="46.47954" lon="8.2436">
        <ele>1611</ele>
        <time>2020-07-16T13:21:36.567Z</time>
      </trkpt>
      <trkpt lat="46.47955" lon="8.24361">
        <ele>1611</ele>
        <time>2020-07-16T13:21:37.567Z</time>
      </trkpt>
      <trkpt lat="46.47955" lon="8.24362">
        <ele>1611</ele>
        <time>2020-07-16T13:21:38.568Z</time>
      </trkpt>
      <trkpt lat="46.47955" lon="8.24364">
        <ele>1610</ele>
        <time>2020-07-16T13:21:39.568Z</time>
      </trkpt>
      <trkpt lat="46.47956" lon="8.24365">
        <ele>1610</ele>
        <time>2020-07-16T13:21:40.568Z</time>
      </trkpt>
      <trkpt lat="46.47956" lon="8.24365">
        <ele>1609</ele>
        <time>2020-07-16T13:21:41.567Z</time>
      </trkpt>
      <trkpt lat="46.47957" lon="8.24367">
        <ele>1609</ele>
        <time>2020-07-16T13:21:42.568Z</time>
      </trkpt>
      <trkpt lat="46.47957" lon="8.24368">
        <ele>1608</ele>
        <time>2020-07-16T13:21:43.568Z</time>
      </trkpt>
      <trkpt lat="46.47958" lon="8.24369">
        <ele>1608</ele>
        <time>2020-07-16T13:21:44.568Z</time>
      </trkpt>
      <trkpt lat="46.47958" lon="8.2437">
        <ele>1607</ele>
        <time>2020-07-16T13:21:45.568Z</time>
      </trkpt>
      <trkpt lat="46.47959" lon="8.24372">
        <ele>1607</ele>
        <time>2020-07-16T13:21:46.568Z</time>
      </trkpt>
      <trkpt lat="46.47959" lon="8.24374">
        <ele>1607</ele>
        <time>2020-07-16T13:21:47.568Z</time>
      </trkpt>
      <trkpt lat="46.47959" lon="8.24375">
        <ele>1606</ele>
        <time>2020-07-16T13:21:48.568Z</time>
      </trkpt>
      <trkpt lat="46.4796" lon="8.24377">
        <ele>1606</ele>
        <time>2020-07-16T13:21:49.568Z</time>
      </trkpt>
      <trkpt lat="46.4796" lon="8.24378">
        <ele>1606</ele>
        <time>2020-07-16T13:21:50.567Z</time>
      </trkpt>
      <trkpt lat="46.4796" lon="8.24379">
        <ele>1606</ele>
        <time>2020-07-16T13:21:51.568Z</time>
      </trkpt>
      <trkpt lat="46.47961" lon="8.24379">
        <ele>1606</ele>
        <time>2020-07-16T13:21:52.568Z</time>
      </trkpt>
      <trkpt lat="46.47961" lon="8.24381">
        <ele>1606</ele>
        <time>2020-07-16T13:21:53.568Z</time>
      </trkpt>
      <trkpt lat="46.47962" lon="8.24382">
        <ele>1606</ele>
        <time>2020-07-16T13:21:54.568Z</time>
      </trkpt>
      <trkpt lat="46.47962" lon="8.24384">
        <ele>1606</ele>
        <time>2020-07-16T13:21:55.567Z</time>
      </trkpt>
      <trkpt lat="46.47962" lon="8.24385">
        <ele>1606</ele>
        <time>2020-07-16T13:21:56.567Z</time>
      </trkpt>
      <trkpt lat="46.47962" lon="8.24387">
        <ele>1606</ele>
        <time>2020-07-16T13:21:57.568Z</time>
      </trkpt>
      <trkpt lat="46.47962" lon="8.24388">
        <ele>1606</ele>
        <time>2020-07-16T13:21:58.568Z</time>
      </trkpt>
      <trkpt lat="46.47962" lon="8.2439">
        <ele>1606</ele>
        <time>2020-07-16T13:21:59.568Z</time>
      </trkpt>
      <trkpt lat="46.47962" lon="8.24391">
        <ele>1606</ele>
        <time>2020-07-16T13:22:00.568Z</time>
      </trkpt>
      <trkpt lat="46.47961" lon="8.24392">
        <ele>1606</ele>
        <time>2020-07-16T13:22:01.568Z</time>
      </trkpt>
      <trkpt lat="46.47962" lon="8.24394">
        <ele>1607</ele>
        <time>2020-07-16T13:22:02.568Z</time>
      </trkpt>
      <trkpt lat="46.47962" lon="8.24395">
        <ele>1607</ele>
        <time>2020-07-16T13:22:03.568Z</time>
      </trkpt>
      <trkpt lat="46.47962" lon="8.24397">
        <ele>1607</ele>
        <time>2020-07-16T13:22:04.568Z</time>
      </trkpt>
      <trkpt lat="46.47961" lon="8.24399">
        <ele>1607</ele>
        <time>2020-07-16T13:22:05.567Z</time>
      </trkpt>
      <trkpt lat="46.47961" lon="8.244">
        <ele>1607</ele>
        <time>2020-07-16T13:22:06.567Z</time>
      </trkpt>
      <trkpt lat="46.47961" lon="8.24401">
        <ele>1607</ele>
        <time>2020-07-16T13:22:07.567Z</time>
      </trkpt>
      <trkpt lat="46.4796" lon="8.24403">
        <ele>1606</ele>
        <time>2020-07-16T13:22:08.568Z</time>
      </trkpt>
      <trkpt lat="46.4796" lon="8.24405">
        <ele>1606</ele>
        <time>2020-07-16T13:22:09.567Z</time>
      </trkpt>
      <trkpt lat="46.4796" lon="8.24407">
        <ele>1606</ele>
        <time>2020-07-16T13:22:10.567Z</time>
      </trkpt>
      <trkpt lat="46.47959" lon="8.24408">
        <ele>1606</ele>
        <time>2020-07-16T13:22:11.567Z</time>
      </trkpt>
      <trkpt lat="46.47958" lon="8.24409">
        <ele>1606</ele>
        <time>2020-07-16T13:22:12.568Z</time>
      </trkpt>
      <trkpt lat="46.47958" lon="8.2441">
        <ele>1605</ele>
        <time>2020-07-16T13:22:13.568Z</time>
      </trkpt>
      <trkpt lat="46.47957" lon="8.24411">
        <ele>1605</ele>
        <time>2020-07-16T13:22:14.568Z</time>
      </trkpt>
      <trkpt lat="46.47957" lon="8.24413">
        <ele>1605</ele>
        <time>2020-07-16T13:22:15.568Z</time>
      </trkpt>
      <trkpt lat="46.47956" lon="8.24414">
        <ele>1605</ele>
        <time>2020-07-16T13:22:16.568Z</time>
      </trkpt>
      <trkpt lat="46.47955" lon="8.24416">
        <ele>1605</ele>
        <time>2020-07-16T13:22:17.567Z</time>
      </trkpt>
      <trkpt lat="46.47955" lon="8.24417">
        <ele>1605</ele>
        <time>2020-07-16T13:22:18.568Z</time>
      </trkpt>
      <trkpt lat="46.47954" lon="8.24418">
        <ele>1605</ele>
        <time>2020-07-16T13:22:19.568Z</time>
      </trkpt>
      <trkpt lat="46.47954" lon="8.2442">
        <ele>1604</ele>
        <time>2020-07-16T13:22:20.568Z</time>
      </trkpt>
      <trkpt lat="46.47954" lon="8.24421">
        <ele>1604</ele>
        <time>2020-07-16T13:22:21.568Z</time>
      </trkpt>
      <trkpt lat="46.47954" lon="8.24422">
        <ele>1604</ele>
        <time>2020-07-16T13:22:22.568Z</time>
      </trkpt>
      <trkpt lat="46.47954" lon="8.24423">
        <ele>1604</ele>
        <time>2020-07-16T13:22:23.567Z</time>
      </trkpt>
      <trkpt lat="46.47954" lon="8.24424">
        <ele>1604</ele>
        <time>2020-07-16T13:22:24.568Z</time>
      </trkpt>
      <trkpt lat="46.47954" lon="8.24425">
        <ele>1604</ele>
        <time>2020-07-16T13:22:25.568Z</time>
      </trkpt>
      <trkpt lat="46.47953" lon="8.24426">
        <ele>1604</ele>
        <time>2020-07-16T13:22:26.568Z</time>
      </trkpt>
      <trkpt lat="46.47953" lon="8.24427">
        <ele>1604</ele>
        <time>2020-07-16T13:22:27.568Z</time>
      </trkpt>
      <trkpt lat="46.47953" lon="8.24428">
        <ele>1603</ele>
        <time>2020-07-16T13:22:28.568Z</time>
      </trkpt>
      <trkpt lat="46.47953" lon="8.24429">
        <ele>1603</ele>
        <time>2020-07-16T13:22:29.568Z</time>
      </trkpt>
      <trkpt lat="46.47953" lon="8.24431">
        <ele>1603</ele>
        <time>2020-07-16T13:22:30.568Z</time>
      </trkpt>
      <trkpt lat="46.47953" lon="8.24432">
        <ele>1602</ele>
        <time>2020-07-16T13:22:31.567Z</time>
      </trkpt>
      <trkpt lat="46.47954" lon="8.24434">
        <ele>1602</ele>
        <time>2020-07-16T13:22:32.568Z</time>
      </trkpt>
      <trkpt lat="46.47954" lon="8.24435">
        <ele>1602</ele>
        <time>2020-07-16T13:22:33.568Z</time>
      </trkpt>
      <trkpt lat="46.47954" lon="8.24437">
        <ele>1602</ele>
        <time>2020-07-16T13:22:34.568Z</time>
      </trkpt>
      <trkpt lat="46.47955" lon="8.24438">
        <ele>1602</ele>
        <time>2020-07-16T13:22:35.568Z</time>
      </trkpt>
      <trkpt lat="46.47955" lon="8.2444">
        <ele>1602</ele>
        <time>2020-07-16T13:22:36.568Z</time>
      </trkpt>
      <trkpt lat="46.47956" lon="8.24441">
        <ele>1602</ele>
        <time>2020-07-16T13:22:37.568Z</time>
      </trkpt>
      <trkpt lat="46.47956" lon="8.24443">
        <ele>1602</ele>
        <time>2020-07-16T13:22:38.567Z</time>
      </trkpt>
      <trkpt lat="46.47957" lon="8.24444">
        <ele>1602</ele>
        <time>2020-07-16T13:22:39.568Z</time>
      </trkpt>
      <trkpt lat="46.47957" lon="8.24446">
        <ele>1602</ele>
        <time>2020-07-16T13:22:40.568Z</time>
      </trkpt>
      <trkpt lat="46.47958" lon="8.24447">
        <ele>1602</ele>
        <time>2020-07-16T13:22:41.568Z</time>
      </trkpt>
      <trkpt lat="46.47959" lon="8.24448">
        <ele>1603</ele>
        <time>2020-07-16T13:22:42.568Z</time>
      </trkpt>
      <trkpt lat="46.4796" lon="8.24449">
        <ele>1603</ele>
        <time>2020-07-16T13:22:43.567Z</time>
      </trkpt>
      <trkpt lat="46.4796" lon="8.2445">
        <ele>1603</ele>
        <time>2020-07-16T13:22:44.568Z</time>
      </trkpt>
      <trkpt lat="46.47961" lon="8.24451">
        <ele>1603</ele>
        <time>2020-07-16T13:22:45.567Z</time>
      </trkpt>
      <trkpt lat="46.47962" lon="8.24452">
        <ele>1603</ele>
        <time>2020-07-16T13:22:46.567Z</time>
      </trkpt>
      <trkpt lat="46.47963" lon="8.24453">
        <ele>1603</ele>
        <time>2020-07-16T13:22:47.568Z</time>
      </trkpt>
      <trkpt lat="46.47964" lon="8.24454">
        <ele>1604</ele>
        <time>2020-07-16T13:22:48.568Z</time>
      </trkpt>
      <trkpt lat="46.47965" lon="8.24455">
        <ele>1604</ele>
        <time>2020-07-16T13:22:49.568Z</time>
      </trkpt>
      <trkpt lat="46.47966" lon="8.24456">
        <ele>1604</ele>
        <time>2020-07-16T13:22:50.568Z</time>
      </trkpt>
      <trkpt lat="46.47967" lon="8.24457">
        <ele>1604</ele>
        <time>2020-07-16T13:22:51.568Z</time>
      </trkpt>
      <trkpt lat="46.47967" lon="8.24457">
        <ele>1603</ele>
        <time>2020-07-16T13:22:52.567Z</time>
      </trkpt>
      <trkpt lat="46.47968" lon="8.24458">
        <ele>1602</ele>
        <time>2020-07-16T13:22:53.568Z</time>
      </trkpt>
      <trkpt lat="46.47969" lon="8.24459">
        <ele>1602</ele>
        <time>2020-07-16T13:22:54.568Z</time>
      </trkpt>
      <trkpt lat="46.4797" lon="8.2446">
        <ele>1601</ele>
        <time>2020-07-16T13:22:55.568Z</time>
      </trkpt>
      <trkpt lat="46.47971" lon="8.2446">
        <ele>1601</ele>
        <time>2020-07-16T13:22:56.568Z</time>
      </trkpt>
      <trkpt lat="46.47972" lon="8.24461">
        <ele>1600</ele>
        <time>2020-07-16T13:22:57.568Z</time>
      </trkpt>
      <trkpt lat="46.47973" lon="8.24461">
        <ele>1600</ele>
        <time>2020-07-16T13:22:58.568Z</time>
      </trkpt>
      <trkpt lat="46.47973" lon="8.24462">
        <ele>1601</ele>
        <time>2020-07-16T13:22:59.568Z</time>
      </trkpt>
      <trkpt lat="46.47974" lon="8.24463">
        <ele>1601</ele>
        <time>2020-07-16T13:23:00.568Z</time>
      </trkpt>
      <trkpt lat="46.47975" lon="8.24463">
        <ele>1601</ele>
        <time>2020-07-16T13:23:01.567Z</time>
      </trkpt>
      <trkpt lat="46.47976" lon="8.24464">
        <ele>1600</ele>
        <time>2020-07-16T13:23:02.568Z</time>
      </trkpt>
      <trkpt lat="46.47977" lon="8.24465">
        <ele>1600</ele>
        <time>2020-07-16T13:23:03.568Z</time>
      </trkpt>
      <trkpt lat="46.47978" lon="8.24466">
        <ele>1600</ele>
        <time>2020-07-16T13:23:04.568Z</time>
      </trkpt>
      <trkpt lat="46.47979" lon="8.24467">
        <ele>1600</ele>
        <time>2020-07-16T13:23:05.568Z</time>
      </trkpt>
      <trkpt lat="46.47979" lon="8.24468">
        <ele>1600</ele>
        <time>2020-07-16T13:23:06.567Z</time>
      </trkpt>
      <trkpt lat="46.4798" lon="8.24469">
        <ele>1600</ele>
        <time>2020-07-16T13:23:07.568Z</time>
      </trkpt>
      <trkpt lat="46.47981" lon="8.2447">
        <ele>1600</ele>
        <time>2020-07-16T13:23:08.567Z</time>
      </trkpt>
      <trkpt lat="46.47981" lon="8.24471">
        <ele>1600</ele>
        <time>2020-07-16T13:23:09.568Z</time>
      </trkpt>
      <trkpt lat="46.47982" lon="8.24472">
        <ele>1600</ele>
        <time>2020-07-16T13:23:10.568Z</time>
      </trkpt>
      <trkpt lat="46.47983" lon="8.24473">
        <ele>1600</ele>
        <time>2020-07-16T13:23:11.567Z</time>
      </trkpt>
      <trkpt lat="46.47984" lon="8.24474">
        <ele>1600</ele>
        <time>2020-07-16T13:23:12.567Z</time>
      </trkpt>
      <trkpt lat="46.47985" lon="8.24475">
        <ele>1601</ele>
        <time>2020-07-16T13:23:13.567Z</time>
      </trkpt>
      <trkpt lat="46.47985" lon="8.24476">
        <ele>1601</ele>
        <time>2020-07-16T13:23:14.567Z</time>
      </trkpt>
      <trkpt lat="46.47986" lon="8.24477">
        <ele>1601</ele>
        <time>2020-07-16T13:23:15.567Z</time>
      </trkpt>
      <trkpt lat="46.47986" lon="8.24478">
        <ele>1601</ele>
        <time>2020-07-16T13:23:16.568Z</time>
      </trkpt>
      <trkpt lat="46.47987" lon="8.2448">
        <ele>1600</ele>
        <time>2020-07-16T13:23:17.568Z</time>
      </trkpt>
      <trkpt lat="46.47987" lon="8.24481">
        <ele>1600</ele>
        <time>2020-07-16T13:23:18.568Z</time>
      </trkpt>
      <trkpt lat="46.47988" lon="8.24482">
        <ele>1600</ele>
        <time>2020-07-16T13:23:19.568Z</time>
      </trkpt>
      <trkpt lat="46.47988" lon="8.24484">
        <ele>1600</ele>
        <time>2020-07-16T13:23:20.567Z</time>
      </trkpt>
      <trkpt lat="46.47988" lon="8.24485">
        <ele>1600</ele>
        <time>2020-07-16T13:23:21.568Z</time>
      </trkpt>
      <trkpt lat="46.47989" lon="8.24486">
        <ele>1600</ele>
        <time>2020-07-16T13:23:22.567Z</time>
      </trkpt>
      <trkpt lat="46.47989" lon="8.24488">
        <ele>1599</ele>
        <time>2020-07-16T13:23:23.568Z</time>
      </trkpt>
      <trkpt lat="46.4799" lon="8.24489">
        <ele>1599</ele>
        <time>2020-07-16T13:23:24.568Z</time>
      </trkpt>
      <trkpt lat="46.47991" lon="8.2449">
        <ele>1598</ele>
        <time>2020-07-16T13:23:25.568Z</time>
      </trkpt>
      <trkpt lat="46.47992" lon="8.24491">
        <ele>1598</ele>
        <time>2020-07-16T13:23:26.568Z</time>
      </trkpt>
      <trkpt lat="46.47992" lon="8.24492">
        <ele>1598</ele>
        <time>2020-07-16T13:23:27.568Z</time>
      </trkpt>
      <trkpt lat="46.47993" lon="8.24493">
        <ele>1598</ele>
        <time>2020-07-16T13:23:28.567Z</time>
      </trkpt>
      <trkpt lat="46.47993" lon="8.24494">
        <ele>1598</ele>
        <time>2020-07-16T13:23:29.568Z</time>
      </trkpt>
      <trkpt lat="46.47994" lon="8.24495">
        <ele>1598</ele>
        <time>2020-07-16T13:23:30.568Z</time>
      </trkpt>
      <trkpt lat="46.47994" lon="8.24496">
        <ele>1598</ele>
        <time>2020-07-16T13:23:31.568Z</time>
      </trkpt>
      <trkpt lat="46.47995" lon="8.24497">
        <ele>1599</ele>
        <time>2020-07-16T13:23:32.568Z</time>
      </trkpt>
      <trkpt lat="46.47996" lon="8.24499">
        <ele>1598</ele>
        <time>2020-07-16T13:23:33.568Z</time>
      </trkpt>
      <trkpt lat="46.47996" lon="8.24499">
        <ele>1598</ele>
        <time>2020-07-16T13:23:34.568Z</time>
      </trkpt>
      <trkpt lat="46.47997" lon="8.245">
        <ele>1598</ele>
        <time>2020-07-16T13:23:35.567Z</time>
      </trkpt>
      <trkpt lat="46.47998" lon="8.24502">
        <ele>1598</ele>
        <time>2020-07-16T13:23:36.567Z</time>
      </trkpt>
      <trkpt lat="46.47999" lon="8.24503">
        <ele>1598</ele>
        <time>2020-07-16T13:23:37.568Z</time>
      </trkpt>
      <trkpt lat="46.47999" lon="8.24504">
        <ele>1599</ele>
        <time>2020-07-16T13:23:38.568Z</time>
      </trkpt>
      <trkpt lat="46.48" lon="8.24506">
        <ele>1599</ele>
        <time>2020-07-16T13:23:39.568Z</time>
      </trkpt>
      <trkpt lat="46.48" lon="8.24507">
        <ele>1599</ele>
        <time>2020-07-16T13:23:40.568Z</time>
      </trkpt>
      <trkpt lat="46.48001" lon="8.24508">
        <ele>1599</ele>
        <time>2020-07-16T13:23:41.567Z</time>
      </trkpt>
      <trkpt lat="46.48001" lon="8.24509">
        <ele>1599</ele>
        <time>2020-07-16T13:23:42.567Z</time>
      </trkpt>
      <trkpt lat="46.48002" lon="8.2451">
        <ele>1599</ele>
        <time>2020-07-16T13:23:43.568Z</time>
      </trkpt>
      <trkpt lat="46.48002" lon="8.24511">
        <ele>1599</ele>
        <time>2020-07-16T13:23:44.568Z</time>
      </trkpt>
      <trkpt lat="46.48002" lon="8.24513">
        <ele>1599</ele>
        <time>2020-07-16T13:23:45.568Z</time>
      </trkpt>
      <trkpt lat="46.48003" lon="8.24514">
        <ele>1598</ele>
        <time>2020-07-16T13:23:46.568Z</time>
      </trkpt>
      <trkpt lat="46.48003" lon="8.24516">
        <ele>1598</ele>
        <time>2020-07-16T13:23:47.568Z</time>
      </trkpt>
      <trkpt lat="46.48004" lon="8.24517">
        <ele>1598</ele>
        <time>2020-07-16T13:23:48.567Z</time>
      </trkpt>
      <trkpt lat="46.48004" lon="8.24518">
        <ele>1598</ele>
        <time>2020-07-16T13:23:49.568Z</time>
      </trkpt>
      <trkpt lat="46.48005" lon="8.24519">
        <ele>1597</ele>
        <time>2020-07-16T13:23:50.568Z</time>
      </trkpt>
      <trkpt lat="46.48005" lon="8.2452">
        <ele>1597</ele>
        <time>2020-07-16T13:23:51.567Z</time>
      </trkpt>
      <trkpt lat="46.48006" lon="8.24521">
        <ele>1597</ele>
        <time>2020-07-16T13:23:52.567Z</time>
      </trkpt>
      <trkpt lat="46.48007" lon="8.24522">
        <ele>1597</ele>
        <time>2020-07-16T13:23:53.568Z</time>
      </trkpt>
      <trkpt lat="46.48007" lon="8.24524">
        <ele>1598</ele>
        <time>2020-07-16T13:23:54.568Z</time>
      </trkpt>
      <trkpt lat="46.48008" lon="8.24525">
        <ele>1597</ele>
        <time>2020-07-16T13:23:55.567Z</time>
      </trkpt>
      <trkpt lat="46.48008" lon="8.24527">
        <ele>1597</ele>
        <time>2020-07-16T13:23:56.568Z</time>
      </trkpt>
      <trkpt lat="46.48009" lon="8.24528">
        <ele>1598</ele>
        <time>2020-07-16T13:23:57.567Z</time>
      </trkpt>
      <trkpt lat="46.48009" lon="8.24529">
        <ele>1598</ele>
        <time>2020-07-16T13:23:58.568Z</time>
      </trkpt>
      <trkpt lat="46.4801" lon="8.2453">
        <ele>1598</ele>
        <time>2020-07-16T13:23:59.568Z</time>
      </trkpt>
      <trkpt lat="46.4801" lon="8.24532">
        <ele>1598</ele>
        <time>2020-07-16T13:24:00.567Z</time>
      </trkpt>
      <trkpt lat="46.4801" lon="8.24533">
        <ele>1598</ele>
        <time>2020-07-16T13:24:01.568Z</time>
      </trkpt>
      <trkpt lat="46.48011" lon="8.24534">
        <ele>1598</ele>
        <time>2020-07-16T13:24:02.568Z</time>
      </trkpt>
      <trkpt lat="46.48011" lon="8.24536">
        <ele>1597</ele>
        <time>2020-07-16T13:24:03.567Z</time>
      </trkpt>
      <trkpt lat="46.48012" lon="8.24537">
        <ele>1597</ele>
        <time>2020-07-16T13:24:04.568Z</time>
      </trkpt>
      <trkpt lat="46.48012" lon="8.24539">
        <ele>1597</ele>
        <time>2020-07-16T13:24:05.568Z</time>
      </trkpt>
      <trkpt lat="46.48013" lon="8.2454">
        <ele>1597</ele>
        <time>2020-07-16T13:24:06.568Z</time>
      </trkpt>
      <trkpt lat="46.48013" lon="8.24541">
        <ele>1597</ele>
        <time>2020-07-16T13:24:07.568Z</time>
      </trkpt>
      <trkpt lat="46.48013" lon="8.24543">
        <ele>1597</ele>
        <time>2020-07-16T13:24:08.567Z</time>
      </trkpt>
      <trkpt lat="46.48014" lon="8.24545">
        <ele>1597</ele>
        <time>2020-07-16T13:24:09.568Z</time>
      </trkpt>
      <trkpt lat="46.48015" lon="8.24546">
        <ele>1597</ele>
        <time>2020-07-16T13:24:10.568Z</time>
      </trkpt>
      <trkpt lat="46.48015" lon="8.24547">
        <ele>1597</ele>
        <time>2020-07-16T13:24:11.567Z</time>
      </trkpt>
      <trkpt lat="46.48016" lon="8.24548">
        <ele>1597</ele>
        <time>2020-07-16T13:24:12.568Z</time>
      </trkpt>
      <trkpt lat="46.48016" lon="8.2455">
        <ele>1598</ele>
        <time>2020-07-16T13:24:13.568Z</time>
      </trkpt>
      <trkpt lat="46.48017" lon="8.24551">
        <ele>1598</ele>
        <time>2020-07-16T13:24:14.567Z</time>
      </trkpt>
      <trkpt lat="46.48018" lon="8.24553">
        <ele>1598</ele>
        <time>2020-07-16T13:24:15.568Z</time>
      </trkpt>
      <trkpt lat="46.48018" lon="8.24554">
        <ele>1598</ele>
        <time>2020-07-16T13:24:16.568Z</time>
      </trkpt>
      <trkpt lat="46.48019" lon="8.24555">
        <ele>1598</ele>
        <time>2020-07-16T13:24:17.568Z</time>
      </trkpt>
      <trkpt lat="46.48019" lon="8.24556">
        <ele>1598</ele>
        <time>2020-07-16T13:24:18.568Z</time>
      </trkpt>
      <trkpt lat="46.4802" lon="8.24557">
        <ele>1599</ele>
        <time>2020-07-16T13:24:19.567Z</time>
      </trkpt>
      <trkpt lat="46.48021" lon="8.24559">
        <ele>1599</ele>
        <time>2020-07-16T13:24:20.568Z</time>
      </trkpt>
      <trkpt lat="46.48022" lon="8.2456">
        <ele>1599</ele>
        <time>2020-07-16T13:24:21.568Z</time>
      </trkpt>
      <trkpt lat="46.48023" lon="8.24561">
        <ele>1600</ele>
        <time>2020-07-16T13:24:22.568Z</time>
      </trkpt>
      <trkpt lat="46.48024" lon="8.24562">
        <ele>1600</ele>
        <time>2020-07-16T13:24:23.568Z</time>
      </trkpt>
      <trkpt lat="46.48024" lon="8.24563">
        <ele>1599</ele>
        <time>2020-07-16T13:24:24.568Z</time>
      </trkpt>
      <trkpt lat="46.48025" lon="8.24564">
        <ele>1599</ele>
        <time>2020-07-16T13:24:25.568Z</time>
      </trkpt>
      <trkpt lat="46.48026" lon="8.24565">
        <ele>1599</ele>
        <time>2020-07-16T13:24:26.568Z</time>
      </trkpt>
      <trkpt lat="46.48026" lon="8.24565">
        <ele>1598</ele>
        <time>2020-07-16T13:24:27.567Z</time>
      </trkpt>
      <trkpt lat="46.48027" lon="8.24566">
        <ele>1597</ele>
        <time>2020-07-16T13:24:28.568Z</time>
      </trkpt>
      <trkpt lat="46.48028" lon="8.24567">
        <ele>1596</ele>
        <time>2020-07-16T13:24:29.568Z</time>
      </trkpt>
      <trkpt lat="46.48028" lon="8.24568">
        <ele>1596</ele>
        <time>2020-07-16T13:24:30.568Z</time>
      </trkpt>
      <trkpt lat="46.48029" lon="8.24569">
        <ele>1596</ele>
        <time>2020-07-16T13:24:31.568Z</time>
      </trkpt>
      <trkpt lat="46.4803" lon="8.2457">
        <ele>1596</ele>
        <time>2020-07-16T13:24:32.568Z</time>
      </trkpt>
      <trkpt lat="46.48031" lon="8.24571">
        <ele>1595</ele>
        <time>2020-07-16T13:24:33.568Z</time>
      </trkpt>
      <trkpt lat="46.48032" lon="8.24571">
        <ele>1595</ele>
        <time>2020-07-16T13:24:34.568Z</time>
      </trkpt>
      <trkpt lat="46.48032" lon="8.24572">
        <ele>1595</ele>
        <time>2020-07-16T13:24:35.567Z</time>
      </trkpt>
      <trkpt lat="46.48033" lon="8.24573">
        <ele>1594</ele>
        <time>2020-07-16T13:24:36.568Z</time>
      </trkpt>
      <trkpt lat="46.48034" lon="8.24574">
        <ele>1594</ele>
        <time>2020-07-16T13:24:37.568Z</time>
      </trkpt>
      <trkpt lat="46.48035" lon="8.24575">
        <ele>1594</ele>
        <time>2020-07-16T13:24:38.568Z</time>
      </trkpt>
      <trkpt lat="46.48036" lon="8.24576">
        <ele>1594</ele>
        <time>2020-07-16T13:24:39.568Z</time>
      </trkpt>
      <trkpt lat="46.48037" lon="8.24577">
        <ele>1594</ele>
        <time>2020-07-16T13:24:40.568Z</time>
      </trkpt>
      <trkpt lat="46.48038" lon="8.24579">
        <ele>1595</ele>
        <time>2020-07-16T13:24:41.567Z</time>
      </trkpt>
      <trkpt lat="46.48039" lon="8.2458">
        <ele>1595</ele>
        <time>2020-07-16T13:24:42.568Z</time>
      </trkpt>
      <trkpt lat="46.48039" lon="8.2458">
        <ele>1595</ele>
        <time>2020-07-16T13:24:43.567Z</time>
      </trkpt>
      <trkpt lat="46.4804" lon="8.24581">
        <ele>1594</ele>
        <time>2020-07-16T13:24:44.568Z</time>
      </trkpt>
      <trkpt lat="46.48041" lon="8.24582">
        <ele>1594</ele>
        <time>2020-07-16T13:24:45.567Z</time>
      </trkpt>
      <trkpt lat="46.48041" lon="8.24583">
        <ele>1594</ele>
        <time>2020-07-16T13:24:46.568Z</time>
      </trkpt>
      <trkpt lat="46.48042" lon="8.24584">
        <ele>1594</ele>
        <time>2020-07-16T13:24:47.567Z</time>
      </trkpt>
      <trkpt lat="46.48043" lon="8.24585">
        <ele>1594</ele>
        <time>2020-07-16T13:24:48.568Z</time>
      </trkpt>
      <trkpt lat="46.48044" lon="8.24586">
        <ele>1594</ele>
        <time>2020-07-16T13:24:49.567Z</time>
      </trkpt>
      <trkpt lat="46.48045" lon="8.24587">
        <ele>1595</ele>
        <time>2020-07-16T13:24:50.567Z</time>
      </trkpt>
      <trkpt lat="46.48045" lon="8.24588">
        <ele>1595</ele>
        <time>2020-07-16T13:24:51.568Z</time>
      </trkpt>
      <trkpt lat="46.48046" lon="8.2459">
        <ele>1595</ele>
        <time>2020-07-16T13:24:52.568Z</time>
      </trkpt>
      <trkpt lat="46.48047" lon="8.2459">
        <ele>1596</ele>
        <time>2020-07-16T13:24:53.568Z</time>
      </trkpt>
      <trkpt lat="46.48048" lon="8.24591">
        <ele>1596</ele>
        <time>2020-07-16T13:24:54.567Z</time>
      </trkpt>
      <trkpt lat="46.48049" lon="8.24591">
        <ele>1596</ele>
        <time>2020-07-16T13:24:55.568Z</time>
      </trkpt>
      <trkpt lat="46.48049" lon="8.24592">
        <ele>1596</ele>
        <time>2020-07-16T13:24:56.567Z</time>
      </trkpt>
      <trkpt lat="46.4805" lon="8.24593">
        <ele>1596</ele>
        <time>2020-07-16T13:24:57.568Z</time>
      </trkpt>
      <trkpt lat="46.48051" lon="8.24594">
        <ele>1595</ele>
        <time>2020-07-16T13:24:58.568Z</time>
      </trkpt>
      <trkpt lat="46.48051" lon="8.24595">
        <ele>1595</ele>
        <time>2020-07-16T13:24:59.567Z</time>
      </trkpt>
      <trkpt lat="46.48052" lon="8.24595">
        <ele>1594</ele>
        <time>2020-07-16T13:25:00.567Z</time>
      </trkpt>
      <trkpt lat="46.48052" lon="8.24596">
        <ele>1594</ele>
        <time>2020-07-16T13:25:01.568Z</time>
      </trkpt>
      <trkpt lat="46.48053" lon="8.24597">
        <ele>1593</ele>
        <time>2020-07-16T13:25:02.568Z</time>
      </trkpt>
      <trkpt lat="46.48054" lon="8.24598">
        <ele>1593</ele>
        <time>2020-07-16T13:25:03.568Z</time>
      </trkpt>
      <trkpt lat="46.48055" lon="8.24599">
        <ele>1593</ele>
        <time>2020-07-16T13:25:04.568Z</time>
      </trkpt>
      <trkpt lat="46.48056" lon="8.246">
        <ele>1593</ele>
        <time>2020-07-16T13:25:05.567Z</time>
      </trkpt>
      <trkpt lat="46.48056" lon="8.24601">
        <ele>1593</ele>
        <time>2020-07-16T13:25:06.568Z</time>
      </trkpt>
      <trkpt lat="46.48057" lon="8.24602">
        <ele>1593</ele>
        <time>2020-07-16T13:25:07.567Z</time>
      </trkpt>
      <trkpt lat="46.48058" lon="8.24603">
        <ele>1593</ele>
        <time>2020-07-16T13:25:08.568Z</time>
      </trkpt>
      <trkpt lat="46.48058" lon="8.24604">
        <ele>1594</ele>
        <time>2020-07-16T13:25:09.567Z</time>
      </trkpt>
      <trkpt lat="46.48059" lon="8.24605">
        <ele>1594</ele>
        <time>2020-07-16T13:25:10.568Z</time>
      </trkpt>
      <trkpt lat="46.4806" lon="8.24606">
        <ele>1594</ele>
        <time>2020-07-16T13:25:11.568Z</time>
      </trkpt>
      <trkpt lat="46.48061" lon="8.24607">
        <ele>1594</ele>
        <time>2020-07-16T13:25:12.567Z</time>
      </trkpt>
      <trkpt lat="46.48061" lon="8.24608">
        <ele>1594</ele>
        <time>2020-07-16T13:25:13.567Z</time>
      </trkpt>
      <trkpt lat="46.48062" lon="8.2461">
        <ele>1594</ele>
        <time>2020-07-16T13:25:14.567Z</time>
      </trkpt>
      <trkpt lat="46.48062" lon="8.2461">
        <ele>1594</ele>
        <time>2020-07-16T13:25:15.568Z</time>
      </trkpt>
      <trkpt lat="46.48063" lon="8.24611">
        <ele>1594</ele>
        <time>2020-07-16T13:25:16.567Z</time>
      </trkpt>
      <trkpt lat="46.48064" lon="8.24613">
        <ele>1594</ele>
        <time>2020-07-16T13:25:17.568Z</time>
      </trkpt>
      <trkpt lat="46.48064" lon="8.24614">
        <ele>1593</ele>
        <time>2020-07-16T13:25:18.568Z</time>
      </trkpt>
      <trkpt lat="46.48065" lon="8.24615">
        <ele>1593</ele>
        <time>2020-07-16T13:25:19.568Z</time>
      </trkpt>
      <trkpt lat="46.48065" lon="8.24617">
        <ele>1593</ele>
        <time>2020-07-16T13:25:20.568Z</time>
      </trkpt>
      <trkpt lat="46.48066" lon="8.24619">
        <ele>1593</ele>
        <time>2020-07-16T13:25:21.568Z</time>
      </trkpt>
      <trkpt lat="46.48066" lon="8.2462">
        <ele>1593</ele>
        <time>2020-07-16T13:25:22.568Z</time>
      </trkpt>
      <trkpt lat="46.48066" lon="8.24621">
        <ele>1593</ele>
        <time>2020-07-16T13:25:23.568Z</time>
      </trkpt>
      <trkpt lat="46.48067" lon="8.24623">
        <ele>1593</ele>
        <time>2020-07-16T13:25:24.568Z</time>
      </trkpt>
      <trkpt lat="46.48067" lon="8.24624">
        <ele>1592</ele>
        <time>2020-07-16T13:25:25.568Z</time>
      </trkpt>
      <trkpt lat="46.48067" lon="8.24626">
        <ele>1592</ele>
        <time>2020-07-16T13:25:26.568Z</time>
      </trkpt>
      <trkpt lat="46.48068" lon="8.24628">
        <ele>1592</ele>
        <time>2020-07-16T13:25:27.568Z</time>
      </trkpt>
      <trkpt lat="46.48068" lon="8.24629">
        <ele>1592</ele>
        <time>2020-07-16T13:25:28.568Z</time>
      </trkpt>
      <trkpt lat="46.48069" lon="8.2463">
        <ele>1592</ele>
        <time>2020-07-16T13:25:29.568Z</time>
      </trkpt>
      <trkpt lat="46.48069" lon="8.24632">
        <ele>1592</ele>
        <time>2020-07-16T13:25:30.568Z</time>
      </trkpt>
      <trkpt lat="46.4807" lon="8.24634">
        <ele>1591</ele>
        <time>2020-07-16T13:25:31.568Z</time>
      </trkpt>
      <trkpt lat="46.4807" lon="8.24636">
        <ele>1591</ele>
        <time>2020-07-16T13:25:32.568Z</time>
      </trkpt>
      <trkpt lat="46.4807" lon="8.24637">
        <ele>1591</ele>
        <time>2020-07-16T13:25:33.568Z</time>
      </trkpt>
      <trkpt lat="46.48071" lon="8.24638">
        <ele>1590</ele>
        <time>2020-07-16T13:25:34.568Z</time>
      </trkpt>
      <trkpt lat="46.48071" lon="8.24639">
        <ele>1590</ele>
        <time>2020-07-16T13:25:35.568Z</time>
      </trkpt>
      <trkpt lat="46.48071" lon="8.24641">
        <ele>1590</ele>
        <time>2020-07-16T13:25:36.568Z</time>
      </trkpt>
      <trkpt lat="46.48072" lon="8.24642">
        <ele>1590</ele>
        <time>2020-07-16T13:25:37.568Z</time>
      </trkpt>
      <trkpt lat="46.48072" lon="8.24644">
        <ele>1590</ele>
        <time>2020-07-16T13:25:38.567Z</time>
      </trkpt>
      <trkpt lat="46.48072" lon="8.24645">
        <ele>1590</ele>
        <time>2020-07-16T13:25:39.567Z</time>
      </trkpt>
      <trkpt lat="46.48073" lon="8.24646">
        <ele>1590</ele>
        <time>2020-07-16T13:25:40.568Z</time>
      </trkpt>
      <trkpt lat="46.48073" lon="8.24647">
        <ele>1589</ele>
        <time>2020-07-16T13:25:41.568Z</time>
      </trkpt>
      <trkpt lat="46.48074" lon="8.24649">
        <ele>1589</ele>
        <time>2020-07-16T13:25:42.567Z</time>
      </trkpt>
      <trkpt lat="46.48074" lon="8.2465">
        <ele>1589</ele>
        <time>2020-07-16T13:25:43.567Z</time>
      </trkpt>
      <trkpt lat="46.48074" lon="8.24652">
        <ele>1589</ele>
        <time>2020-07-16T13:25:44.568Z</time>
      </trkpt>
      <trkpt lat="46.48075" lon="8.24653">
        <ele>1588</ele>
        <time>2020-07-16T13:25:45.568Z</time>
      </trkpt>
      <trkpt lat="46.48075" lon="8.24654">
        <ele>1588</ele>
        <time>2020-07-16T13:25:46.568Z</time>
      </trkpt>
      <trkpt lat="46.48076" lon="8.24656">
        <ele>1587</ele>
        <time>2020-07-16T13:25:47.568Z</time>
      </trkpt>
      <trkpt lat="46.48076" lon="8.24657">
        <ele>1586</ele>
        <time>2020-07-16T13:25:48.567Z</time>
      </trkpt>
      <trkpt lat="46.48077" lon="8.24658">
        <ele>1586</ele>
        <time>2020-07-16T13:25:49.568Z</time>
      </trkpt>
      <trkpt lat="46.48077" lon="8.24659">
        <ele>1586</ele>
        <time>2020-07-16T13:25:50.567Z</time>
      </trkpt>
      <trkpt lat="46.48077" lon="8.24661">
        <ele>1586</ele>
        <time>2020-07-16T13:25:51.567Z</time>
      </trkpt>
      <trkpt lat="46.48078" lon="8.24662">
        <ele>1586</ele>
        <time>2020-07-16T13:25:52.568Z</time>
      </trkpt>
      <trkpt lat="46.48078" lon="8.24664">
        <ele>1586</ele>
        <time>2020-07-16T13:25:53.568Z</time>
      </trkpt>
      <trkpt lat="46.48079" lon="8.24665">
        <ele>1586</ele>
        <time>2020-07-16T13:25:54.568Z</time>
      </trkpt>
      <trkpt lat="46.48079" lon="8.24666">
        <ele>1586</ele>
        <time>2020-07-16T13:25:55.567Z</time>
      </trkpt>
      <trkpt lat="46.4808" lon="8.24667">
        <ele>1586</ele>
        <time>2020-07-16T13:25:56.568Z</time>
      </trkpt>
      <trkpt lat="46.4808" lon="8.24669">
        <ele>1586</ele>
        <time>2020-07-16T13:25:57.568Z</time>
      </trkpt>
      <trkpt lat="46.4808" lon="8.2467">
        <ele>1586</ele>
        <time>2020-07-16T13:25:58.567Z</time>
      </trkpt>
      <trkpt lat="46.4808" lon="8.24671">
        <ele>1586</ele>
        <time>2020-07-16T13:25:59.567Z</time>
      </trkpt>
      <trkpt lat="46.48081" lon="8.24673">
        <ele>1586</ele>
        <time>2020-07-16T13:26:00.567Z</time>
      </trkpt>
      <trkpt lat="46.48081" lon="8.24674">
        <ele>1586</ele>
        <time>2020-07-16T13:26:01.568Z</time>
      </trkpt>
      <trkpt lat="46.48081" lon="8.24675">
        <ele>1585</ele>
        <time>2020-07-16T13:26:02.568Z</time>
      </trkpt>
      <trkpt lat="46.48081" lon="8.24677">
        <ele>1585</ele>
        <time>2020-07-16T13:26:03.568Z</time>
      </trkpt>
      <trkpt lat="46.48082" lon="8.24678">
        <ele>1584</ele>
        <time>2020-07-16T13:26:04.568Z</time>
      </trkpt>
      <trkpt lat="46.48082" lon="8.24679">
        <ele>1584</ele>
        <time>2020-07-16T13:26:05.568Z</time>
      </trkpt>
      <trkpt lat="46.48082" lon="8.2468">
        <ele>1584</ele>
        <time>2020-07-16T13:26:06.567Z</time>
      </trkpt>
      <trkpt lat="46.48082" lon="8.24682">
        <ele>1584</ele>
        <time>2020-07-16T13:26:07.568Z</time>
      </trkpt>
      <trkpt lat="46.48083" lon="8.24683">
        <ele>1584</ele>
        <time>2020-07-16T13:26:08.567Z</time>
      </trkpt>
      <trkpt lat="46.48083" lon="8.24685">
        <ele>1584</ele>
        <time>2020-07-16T13:26:09.568Z</time>
      </trkpt>
      <trkpt lat="46.48083" lon="8.24687">
        <ele>1585</ele>
        <time>2020-07-16T13:26:10.567Z</time>
      </trkpt>
      <trkpt lat="46.48083" lon="8.24688">
        <ele>1585</ele>
        <time>2020-07-16T13:26:11.567Z</time>
      </trkpt>
      <trkpt lat="46.48083" lon="8.2469">
        <ele>1585</ele>
        <time>2020-07-16T13:26:12.568Z</time>
      </trkpt>
      <trkpt lat="46.48083" lon="8.24691">
        <ele>1586</ele>
        <time>2020-07-16T13:26:13.567Z</time>
      </trkpt>
      <trkpt lat="46.48083" lon="8.24693">
        <ele>1586</ele>
        <time>2020-07-16T13:26:14.568Z</time>
      </trkpt>
      <trkpt lat="46.48083" lon="8.24694">
        <ele>1586</ele>
        <time>2020-07-16T13:26:15.568Z</time>
      </trkpt>
      <trkpt lat="46.48083" lon="8.24696">
        <ele>1585</ele>
        <time>2020-07-16T13:26:16.567Z</time>
      </trkpt>
      <trkpt lat="46.48083" lon="8.24697">
        <ele>1584</ele>
        <time>2020-07-16T13:26:17.567Z</time>
      </trkpt>
      <trkpt lat="46.48083" lon="8.24698">
        <ele>1584</ele>
        <time>2020-07-16T13:26:18.567Z</time>
      </trkpt>
      <trkpt lat="46.48083" lon="8.247">
        <ele>1584</ele>
        <time>2020-07-16T13:26:19.568Z</time>
      </trkpt>
      <trkpt lat="46.48083" lon="8.24702">
        <ele>1584</ele>
        <time>2020-07-16T13:26:20.568Z</time>
      </trkpt>
      <trkpt lat="46.48082" lon="8.24703">
        <ele>1584</ele>
        <time>2020-07-16T13:26:21.568Z</time>
      </trkpt>
      <trkpt lat="46.48082" lon="8.24704">
        <ele>1583</ele>
        <time>2020-07-16T13:26:22.567Z</time>
      </trkpt>
      <trkpt lat="46.48082" lon="8.24706">
        <ele>1583</ele>
        <time>2020-07-16T13:26:23.567Z</time>
      </trkpt>
      <trkpt lat="46.48082" lon="8.24707">
        <ele>1584</ele>
        <time>2020-07-16T13:26:24.567Z</time>
      </trkpt>
      <trkpt lat="46.48082" lon="8.24708">
        <ele>1584</ele>
        <time>2020-07-16T13:26:25.568Z</time>
      </trkpt>
      <trkpt lat="46.48081" lon="8.2471">
        <ele>1584</ele>
        <time>2020-07-16T13:26:26.567Z</time>
      </trkpt>
      <trkpt lat="46.48081" lon="8.2471">
        <ele>1584</ele>
        <time>2020-07-16T13:26:27.567Z</time>
      </trkpt>
      <trkpt lat="46.4808" lon="8.24711">
        <ele>1584</ele>
        <time>2020-07-16T13:26:28.567Z</time>
      </trkpt>
      <trkpt lat="46.48079" lon="8.24711">
        <ele>1584</ele>
        <time>2020-07-16T13:26:29.567Z</time>
      </trkpt>
      <trkpt lat="46.48078" lon="8.24711">
        <ele>1584</ele>
        <time>2020-07-16T13:26:30.568Z</time>
      </trkpt>
      <trkpt lat="46.48077" lon="8.24711">
        <ele>1584</ele>
        <time>2020-07-16T13:26:31.568Z</time>
      </trkpt>
      <trkpt lat="46.48076" lon="8.24711">
        <ele>1584</ele>
        <time>2020-07-16T13:26:32.567Z</time>
      </trkpt>
      <trkpt lat="46.48075" lon="8.24711">
        <ele>1584</ele>
        <time>2020-07-16T13:26:33.568Z</time>
      </trkpt>
      <trkpt lat="46.48075" lon="8.24711">
        <ele>1585</ele>
        <time>2020-07-16T13:26:34.567Z</time>
      </trkpt>
      <trkpt lat="46.48074" lon="8.2471">
        <ele>1585</ele>
        <time>2020-07-16T13:26:35.568Z</time>
      </trkpt>
      <trkpt lat="46.48074" lon="8.2471">
        <ele>1586</ele>
        <time>2020-07-16T13:26:36.568Z</time>
      </trkpt>
      <trkpt lat="46.48073" lon="8.24709">
        <ele>1587</ele>
        <time>2020-07-16T13:26:37.567Z</time>
      </trkpt>
      <trkpt lat="46.48073" lon="8.24707">
        <ele>1587</ele>
        <time>2020-07-16T13:26:38.567Z</time>
      </trkpt>
      <trkpt lat="46.48073" lon="8.24706">
        <ele>1586</ele>
        <time>2020-07-16T13:26:39.567Z</time>
      </trkpt>
      <trkpt lat="46.48073" lon="8.24705">
        <ele>1586</ele>
        <time>2020-07-16T13:26:40.568Z</time>
      </trkpt>
      <trkpt lat="46.48073" lon="8.24703">
        <ele>1585</ele>
        <time>2020-07-16T13:26:41.568Z</time>
      </trkpt>
      <trkpt lat="46.48073" lon="8.24702">
        <ele>1584</ele>
        <time>2020-07-16T13:26:42.568Z</time>
      </trkpt>
      <trkpt lat="46.48073" lon="8.247">
        <ele>1584</ele>
        <time>2020-07-16T13:26:43.567Z</time>
      </trkpt>
      <trkpt lat="46.48072" lon="8.24698">
        <ele>1583</ele>
        <time>2020-07-16T13:26:44.568Z</time>
      </trkpt>
      <trkpt lat="46.48071" lon="8.24695">
        <ele>1583</ele>
        <time>2020-07-16T13:26:45.568Z</time>
      </trkpt>
      <trkpt lat="46.48071" lon="8.24694">
        <ele>1582</ele>
        <time>2020-07-16T13:26:46.567Z</time>
      </trkpt>
      <trkpt lat="46.48071" lon="8.24693">
        <ele>1582</ele>
        <time>2020-07-16T13:26:47.568Z</time>
      </trkpt>
      <trkpt lat="46.48071" lon="8.24691">
        <ele>1582</ele>
        <time>2020-07-16T13:26:48.567Z</time>
      </trkpt>
      <trkpt lat="46.4807" lon="8.24689">
        <ele>1581</ele>
        <time>2020-07-16T13:26:49.567Z</time>
      </trkpt>
      <trkpt lat="46.4807" lon="8.24688">
        <ele>1581</ele>
        <time>2020-07-16T13:26:50.567Z</time>
      </trkpt>
      <trkpt lat="46.4807" lon="8.24686">
        <ele>1581</ele>
        <time>2020-07-16T13:26:51.567Z</time>
      </trkpt>
      <trkpt lat="46.48069" lon="8.24685">
        <ele>1580</ele>
        <time>2020-07-16T13:26:52.568Z</time>
      </trkpt>
      <trkpt lat="46.48068" lon="8.24684">
        <ele>1580</ele>
        <time>2020-07-16T13:26:53.568Z</time>
      </trkpt>
      <trkpt lat="46.48068" lon="8.24683">
        <ele>1579</ele>
        <time>2020-07-16T13:26:54.567Z</time>
      </trkpt>
      <trkpt lat="46.48067" lon="8.24682">
        <ele>1579</ele>
        <time>2020-07-16T13:26:55.567Z</time>
      </trkpt>
      <trkpt lat="46.48067" lon="8.24681">
        <ele>1579</ele>
        <time>2020-07-16T13:26:56.567Z</time>
      </trkpt>
      <trkpt lat="46.48066" lon="8.24679">
        <ele>1580</ele>
        <time>2020-07-16T13:26:57.567Z</time>
      </trkpt>
      <trkpt lat="46.48065" lon="8.24678">
        <ele>1580</ele>
        <time>2020-07-16T13:26:58.567Z</time>
      </trkpt>
      <trkpt lat="46.48065" lon="8.24677">
        <ele>1579</ele>
        <time>2020-07-16T13:26:59.568Z</time>
      </trkpt>
      <trkpt lat="46.48064" lon="8.24676">
        <ele>1579</ele>
        <time>2020-07-16T13:27:00.568Z</time>
      </trkpt>
      <trkpt lat="46.48063" lon="8.24675">
        <ele>1578</ele>
        <time>2020-07-16T13:27:01.567Z</time>
      </trkpt>
      <trkpt lat="46.48063" lon="8.24675">
        <ele>1578</ele>
        <time>2020-07-16T13:27:02.568Z</time>
      </trkpt>
      <trkpt lat="46.48062" lon="8.24674">
        <ele>1578</ele>
        <time>2020-07-16T13:27:03.568Z</time>
      </trkpt>
      <trkpt lat="46.48061" lon="8.24673">
        <ele>1578</ele>
        <time>2020-07-16T13:27:04.568Z</time>
      </trkpt>
      <trkpt lat="46.48061" lon="8.24673">
        <ele>1578</ele>
        <time>2020-07-16T13:27:05.567Z</time>
      </trkpt>
      <trkpt lat="46.4806" lon="8.24673">
        <ele>1577</ele>
        <time>2020-07-16T13:27:06.568Z</time>
      </trkpt>
      <trkpt lat="46.48059" lon="8.24672">
        <ele>1578</ele>
        <time>2020-07-16T13:27:07.568Z</time>
      </trkpt>
      <trkpt lat="46.48058" lon="8.24672">
        <ele>1578</ele>
        <time>2020-07-16T13:27:08.568Z</time>
      </trkpt>
      <trkpt lat="46.48057" lon="8.24671">
        <ele>1579</ele>
        <time>2020-07-16T13:27:09.567Z</time>
      </trkpt>
      <trkpt lat="46.48056" lon="8.24671">
        <ele>1579</ele>
        <time>2020-07-16T13:27:10.567Z</time>
      </trkpt>
      <trkpt lat="46.48055" lon="8.2467">
        <ele>1579</ele>
        <time>2020-07-16T13:27:11.568Z</time>
      </trkpt>
      <trkpt lat="46.48054" lon="8.24669">
        <ele>1579</ele>
        <time>2020-07-16T13:27:12.567Z</time>
      </trkpt>
      <trkpt lat="46.48053" lon="8.24668">
        <ele>1579</ele>
        <time>2020-07-16T13:27:13.567Z</time>
      </trkpt>
      <trkpt lat="46.48052" lon="8.24668">
        <ele>1579</ele>
        <time>2020-07-16T13:27:14.567Z</time>
      </trkpt>
      <trkpt lat="46.48051" lon="8.24667">
        <ele>1580</ele>
        <time>2020-07-16T13:27:15.568Z</time>
      </trkpt>
      <trkpt lat="46.48049" lon="8.24666">
        <ele>1580</ele>
        <time>2020-07-16T13:27:16.568Z</time>
      </trkpt>
      <trkpt lat="46.48048" lon="8.24666">
        <ele>1581</ele>
        <time>2020-07-16T13:27:17.568Z</time>
      </trkpt>
      <trkpt lat="46.48047" lon="8.24665">
        <ele>1581</ele>
        <time>2020-07-16T13:27:18.568Z</time>
      </trkpt>
      <trkpt lat="46.48046" lon="8.24665">
        <ele>1581</ele>
        <time>2020-07-16T13:27:19.567Z</time>
      </trkpt>
      <trkpt lat="46.48045" lon="8.24665">
        <ele>1582</ele>
        <time>2020-07-16T13:27:20.568Z</time>
      </trkpt>
      <trkpt lat="46.48044" lon="8.24664">
        <ele>1582</ele>
        <time>2020-07-16T13:27:21.567Z</time>
      </trkpt>
      <trkpt lat="46.48043" lon="8.24663">
        <ele>1582</ele>
        <time>2020-07-16T13:27:22.568Z</time>
      </trkpt>
      <trkpt lat="46.48042" lon="8.24662">
        <ele>1582</ele>
        <time>2020-07-16T13:27:23.568Z</time>
      </trkpt>
      <trkpt lat="46.48041" lon="8.24661">
        <ele>1583</ele>
        <time>2020-07-16T13:27:24.568Z</time>
      </trkpt>
      <trkpt lat="46.4804" lon="8.24661">
        <ele>1583</ele>
        <time>2020-07-16T13:27:25.568Z</time>
      </trkpt>
      <trkpt lat="46.48039" lon="8.2466">
        <ele>1583</ele>
        <time>2020-07-16T13:27:26.568Z</time>
      </trkpt>
      <trkpt lat="46.48038" lon="8.2466">
        <ele>1583</ele>
        <time>2020-07-16T13:27:27.568Z</time>
      </trkpt>
      <trkpt lat="46.48037" lon="8.24659">
        <ele>1583</ele>
        <time>2020-07-16T13:27:28.567Z</time>
      </trkpt>
      <trkpt lat="46.48036" lon="8.24659">
        <ele>1583</ele>
        <time>2020-07-16T13:27:29.568Z</time>
      </trkpt>
      <trkpt lat="46.48035" lon="8.24658">
        <ele>1583</ele>
        <time>2020-07-16T13:27:30.567Z</time>
      </trkpt>
      <trkpt lat="46.48034" lon="8.24657">
        <ele>1582</ele>
        <time>2020-07-16T13:27:31.568Z</time>
      </trkpt>
      <trkpt lat="46.48034" lon="8.24657">
        <ele>1582</ele>
        <time>2020-07-16T13:27:32.567Z</time>
      </trkpt>
      <trkpt lat="46.48033" lon="8.24656">
        <ele>1581</ele>
        <time>2020-07-16T13:27:33.567Z</time>
      </trkpt>
      <trkpt lat="46.48032" lon="8.24655">
        <ele>1581</ele>
        <time>2020-07-16T13:27:34.567Z</time>
      </trkpt>
      <trkpt lat="46.48031" lon="8.24654">
        <ele>1580</ele>
        <time>2020-07-16T13:27:35.568Z</time>
      </trkpt>
      <trkpt lat="46.48031" lon="8.24654">
        <ele>1580</ele>
        <time>2020-07-16T13:27:36.568Z</time>
      </trkpt>
      <trkpt lat="46.4803" lon="8.24653">
        <ele>1579</ele>
        <time>2020-07-16T13:27:37.568Z</time>
      </trkpt>
      <trkpt lat="46.48029" lon="8.24652">
        <ele>1579</ele>
        <time>2020-07-16T13:27:38.568Z</time>
      </trkpt>
      <trkpt lat="46.48028" lon="8.2465">
        <ele>1578</ele>
        <time>2020-07-16T13:27:39.567Z</time>
      </trkpt>
      <trkpt lat="46.48027" lon="8.24649">
        <ele>1578</ele>
        <time>2020-07-16T13:27:40.568Z</time>
      </trkpt>
      <trkpt lat="46.48026" lon="8.24649">
        <ele>1578</ele>
        <time>2020-07-16T13:27:41.567Z</time>
      </trkpt>
      <trkpt lat="46.48025" lon="8.24648">
        <ele>1578</ele>
        <time>2020-07-16T13:27:42.567Z</time>
      </trkpt>
      <trkpt lat="46.48025" lon="8.24648">
        <ele>1578</ele>
        <time>2020-07-16T13:27:43.568Z</time>
      </trkpt>
      <trkpt lat="46.48024" lon="8.24647">
        <ele>1578</ele>
        <time>2020-07-16T13:27:44.568Z</time>
      </trkpt>
      <trkpt lat="46.48023" lon="8.24646">
        <ele>1578</ele>
        <time>2020-07-16T13:27:45.568Z</time>
      </trkpt>
      <trkpt lat="46.48022" lon="8.24645">
        <ele>1577</ele>
        <time>2020-07-16T13:27:46.568Z</time>
      </trkpt>
      <trkpt lat="46.48022" lon="8.24643">
        <ele>1577</ele>
        <time>2020-07-16T13:27:47.568Z</time>
      </trkpt>
      <trkpt lat="46.48021" lon="8.24642">
        <ele>1577</ele>
        <time>2020-07-16T13:27:48.568Z</time>
      </trkpt>
      <trkpt lat="46.4802" lon="8.24641">
        <ele>1577</ele>
        <time>2020-07-16T13:27:49.568Z</time>
      </trkpt>
      <trkpt lat="46.48019" lon="8.2464">
        <ele>1577</ele>
        <time>2020-07-16T13:27:50.568Z</time>
      </trkpt>
      <trkpt lat="46.48018" lon="8.24639">
        <ele>1578</ele>
        <time>2020-07-16T13:27:51.568Z</time>
      </trkpt>
      <trkpt lat="46.48017" lon="8.24639">
        <ele>1578</ele>
        <time>2020-07-16T13:27:52.568Z</time>
      </trkpt>
      <trkpt lat="46.48016" lon="8.24638">
        <ele>1578</ele>
        <time>2020-07-16T13:27:53.568Z</time>
      </trkpt>
      <trkpt lat="46.48016" lon="8.24638">
        <ele>1578</ele>
        <time>2020-07-16T13:27:54.567Z</time>
      </trkpt>
      <trkpt lat="46.48015" lon="8.24637">
        <ele>1577</ele>
        <time>2020-07-16T13:27:55.568Z</time>
      </trkpt>
      <trkpt lat="46.48014" lon="8.24637">
        <ele>1577</ele>
        <time>2020-07-16T13:27:56.568Z</time>
      </trkpt>
      <trkpt lat="46.48012" lon="8.24636">
        <ele>1577</ele>
        <time>2020-07-16T13:27:57.567Z</time>
      </trkpt>
      <trkpt lat="46.48011" lon="8.24635">
        <ele>1577</ele>
        <time>2020-07-16T13:27:58.568Z</time>
      </trkpt>
      <trkpt lat="46.4801" lon="8.24634">
        <ele>1577</ele>
        <time>2020-07-16T13:27:59.567Z</time>
      </trkpt>
      <trkpt lat="46.48009" lon="8.24634">
        <ele>1577</ele>
        <time>2020-07-16T13:28:00.568Z</time>
      </trkpt>
      <trkpt lat="46.48009" lon="8.24633">
        <ele>1578</ele>
        <time>2020-07-16T13:28:01.568Z</time>
      </trkpt>
      <trkpt lat="46.48009" lon="8.24633">
        <ele>1578</ele>
        <time>2020-07-16T13:28:02.567Z</time>
      </trkpt>
      <trkpt lat="46.4801" lon="8.24633">
        <ele>1578</ele>
        <time>2020-07-16T13:28:03.568Z</time>
      </trkpt>
      <trkpt lat="46.48009" lon="8.24633">
        <ele>1578</ele>
        <time>2020-07-16T13:28:04.567Z</time>
      </trkpt>
      <trkpt lat="46.48008" lon="8.24632">
        <ele>1578</ele>
        <time>2020-07-16T13:28:05.568Z</time>
      </trkpt>
      <trkpt lat="46.48007" lon="8.24632">
        <ele>1578</ele>
        <time>2020-07-16T13:28:06.567Z</time>
      </trkpt>
      <trkpt lat="46.48005" lon="8.24631">
        <ele>1578</ele>
        <time>2020-07-16T13:28:07.568Z</time>
      </trkpt>
      <trkpt lat="46.48004" lon="8.24631">
        <ele>1578</ele>
        <time>2020-07-16T13:28:08.568Z</time>
      </trkpt>
      <trkpt lat="46.48002" lon="8.24631">
        <ele>1578</ele>
        <time>2020-07-16T13:28:09.568Z</time>
      </trkpt>
      <trkpt lat="46.48001" lon="8.24631">
        <ele>1578</ele>
        <time>2020-07-16T13:28:10.567Z</time>
      </trkpt>
      <trkpt lat="46.48" lon="8.24631">
        <ele>1579</ele>
        <time>2020-07-16T13:28:11.568Z</time>
      </trkpt>
      <trkpt lat="46.47999" lon="8.24631">
        <ele>1578</ele>
        <time>2020-07-16T13:28:12.567Z</time>
      </trkpt>
      <trkpt lat="46.47997" lon="8.24631">
        <ele>1578</ele>
        <time>2020-07-16T13:28:13.567Z</time>
      </trkpt>
      <trkpt lat="46.47996" lon="8.24631">
        <ele>1578</ele>
        <time>2020-07-16T13:28:14.568Z</time>
      </trkpt>
      <trkpt lat="46.47995" lon="8.24631">
        <ele>1578</ele>
        <time>2020-07-16T13:28:15.568Z</time>
      </trkpt>
      <trkpt lat="46.47994" lon="8.24631">
        <ele>1577</ele>
        <time>2020-07-16T13:28:16.568Z</time>
      </trkpt>
      <trkpt lat="46.47993" lon="8.24631">
        <ele>1576</ele>
        <time>2020-07-16T13:28:17.568Z</time>
      </trkpt>
      <trkpt lat="46.47992" lon="8.24631">
        <ele>1576</ele>
        <time>2020-07-16T13:28:18.568Z</time>
      </trkpt>
      <trkpt lat="46.4799" lon="8.2463">
        <ele>1575</ele>
        <time>2020-07-16T13:28:19.568Z</time>
      </trkpt>
      <trkpt lat="46.47989" lon="8.2463">
        <ele>1575</ele>
        <time>2020-07-16T13:28:20.568Z</time>
      </trkpt>
      <trkpt lat="46.47988" lon="8.24629">
        <ele>1574</ele>
        <time>2020-07-16T13:28:21.568Z</time>
      </trkpt>
      <trkpt lat="46.47987" lon="8.24629">
        <ele>1575</ele>
        <time>2020-07-16T13:28:22.568Z</time>
      </trkpt>
      <trkpt lat="46.47986" lon="8.24628">
        <ele>1575</ele>
        <time>2020-07-16T13:28:23.567Z</time>
      </trkpt>
      <trkpt lat="46.47985" lon="8.24628">
        <ele>1574</ele>
        <time>2020-07-16T13:28:24.568Z</time>
      </trkpt>
      <trkpt lat="46.47984" lon="8.24628">
        <ele>1574</ele>
        <time>2020-07-16T13:28:25.568Z</time>
      </trkpt>
      <trkpt lat="46.47983" lon="8.24628">
        <ele>1573</ele>
        <time>2020-07-16T13:28:26.567Z</time>
      </trkpt>
      <trkpt lat="46.47982" lon="8.24628">
        <ele>1573</ele>
        <time>2020-07-16T13:28:27.567Z</time>
      </trkpt>
      <trkpt lat="46.47981" lon="8.24628">
        <ele>1573</ele>
        <time>2020-07-16T13:28:28.568Z</time>
      </trkpt>
      <trkpt lat="46.4798" lon="8.24627">
        <ele>1573</ele>
        <time>2020-07-16T13:28:29.568Z</time>
      </trkpt>
      <trkpt lat="46.47978" lon="8.24627">
        <ele>1573</ele>
        <time>2020-07-16T13:28:30.567Z</time>
      </trkpt>
      <trkpt lat="46.47977" lon="8.24626">
        <ele>1573</ele>
        <time>2020-07-16T13:28:31.568Z</time>
      </trkpt>
      <trkpt lat="46.47976" lon="8.24626">
        <ele>1574</ele>
        <time>2020-07-16T13:28:32.568Z</time>
      </trkpt>
      <trkpt lat="46.47975" lon="8.24625">
        <ele>1573</ele>
        <time>2020-07-16T13:28:33.567Z</time>
      </trkpt>
      <trkpt lat="46.47973" lon="8.24625">
        <ele>1573</ele>
        <time>2020-07-16T13:28:34.567Z</time>
      </trkpt>
      <trkpt lat="46.47972" lon="8.24625">
        <ele>1573</ele>
        <time>2020-07-16T13:28:35.568Z</time>
      </trkpt>
      <trkpt lat="46.47972" lon="8.24625">
        <ele>1573</ele>
        <time>2020-07-16T13:28:36.568Z</time>
      </trkpt>
      <trkpt lat="46.47971" lon="8.24625">
        <ele>1573</ele>
        <time>2020-07-16T13:28:37.568Z</time>
      </trkpt>
      <trkpt lat="46.4797" lon="8.24625">
        <ele>1573</ele>
        <time>2020-07-16T13:28:38.568Z</time>
      </trkpt>
      <trkpt lat="46.47968" lon="8.24624">
        <ele>1573</ele>
        <time>2020-07-16T13:28:39.567Z</time>
      </trkpt>
      <trkpt lat="46.47967" lon="8.24623">
        <ele>1572</ele>
        <time>2020-07-16T13:28:40.568Z</time>
      </trkpt>
      <trkpt lat="46.47967" lon="8.24622">
        <ele>1572</ele>
        <time>2020-07-16T13:28:41.568Z</time>
      </trkpt>
      <trkpt lat="46.47966" lon="8.24622">
        <ele>1571</ele>
        <time>2020-07-16T13:28:42.568Z</time>
      </trkpt>
      <trkpt lat="46.47965" lon="8.24621">
        <ele>1571</ele>
        <time>2020-07-16T13:28:43.568Z</time>
      </trkpt>
      <trkpt lat="46.47964" lon="8.24622">
        <ele>1572</ele>
        <time>2020-07-16T13:28:44.567Z</time>
      </trkpt>
      <trkpt lat="46.47964" lon="8.24622">
        <ele>1571</ele>
        <time>2020-07-16T13:28:45.568Z</time>
      </trkpt>
      <trkpt lat="46.47963" lon="8.24622">
        <ele>1572</ele>
        <time>2020-07-16T13:28:46.568Z</time>
      </trkpt>
      <trkpt lat="46.47963" lon="8.2462">
        <ele>1571</ele>
        <time>2020-07-16T13:28:47.567Z</time>
      </trkpt>
      <trkpt lat="46.47962" lon="8.24619">
        <ele>1571</ele>
        <time>2020-07-16T13:28:48.568Z</time>
      </trkpt>
      <trkpt lat="46.47961" lon="8.24618">
        <ele>1571</ele>
        <time>2020-07-16T13:28:49.567Z</time>
      </trkpt>
      <trkpt lat="46.47961" lon="8.24618">
        <ele>1571</ele>
        <time>2020-07-16T13:28:50.568Z</time>
      </trkpt>
      <trkpt lat="46.4796" lon="8.24617">
        <ele>1571</ele>
        <time>2020-07-16T13:28:51.567Z</time>
      </trkpt>
      <trkpt lat="46.47959" lon="8.24616">
        <ele>1571</ele>
        <time>2020-07-16T13:28:52.568Z</time>
      </trkpt>
      <trkpt lat="46.47958" lon="8.24616">
        <ele>1572</ele>
        <time>2020-07-16T13:28:53.567Z</time>
      </trkpt>
      <trkpt lat="46.47958" lon="8.24615">
        <ele>1572</ele>
        <time>2020-07-16T13:28:54.567Z</time>
      </trkpt>
      <trkpt lat="46.47957" lon="8.24614">
        <ele>1572</ele>
        <time>2020-07-16T13:28:55.568Z</time>
      </trkpt>
      <trkpt lat="46.47956" lon="8.24613">
        <ele>1572</ele>
        <time>2020-07-16T13:28:56.568Z</time>
      </trkpt>
      <trkpt lat="46.47956" lon="8.24612">
        <ele>1572</ele>
        <time>2020-07-16T13:28:57.567Z</time>
      </trkpt>
      <trkpt lat="46.47955" lon="8.24611">
        <ele>1571</ele>
        <time>2020-07-16T13:28:58.568Z</time>
      </trkpt>
      <trkpt lat="46.47954" lon="8.24611">
        <ele>1571</ele>
        <time>2020-07-16T13:28:59.568Z</time>
      </trkpt>
      <trkpt lat="46.47953" lon="8.2461">
        <ele>1571</ele>
        <time>2020-07-16T13:29:00.567Z</time>
      </trkpt>
      <trkpt lat="46.47952" lon="8.24609">
        <ele>1571</ele>
        <time>2020-07-16T13:29:01.568Z</time>
      </trkpt>
      <trkpt lat="46.47951" lon="8.24608">
        <ele>1571</ele>
        <time>2020-07-16T13:29:02.568Z</time>
      </trkpt>
      <trkpt lat="46.4795" lon="8.24607">
        <ele>1571</ele>
        <time>2020-07-16T13:29:03.568Z</time>
      </trkpt>
      <trkpt lat="46.4795" lon="8.24606">
        <ele>1571</ele>
        <time>2020-07-16T13:29:04.568Z</time>
      </trkpt>
      <trkpt lat="46.47949" lon="8.24604">
        <ele>1572</ele>
        <time>2020-07-16T13:29:05.568Z</time>
      </trkpt>
      <trkpt lat="46.47947" lon="8.24603">
        <ele>1572</ele>
        <time>2020-07-16T13:29:06.568Z</time>
      </trkpt>
      <trkpt lat="46.47947" lon="8.24602">
        <ele>1572</ele>
        <time>2020-07-16T13:29:07.568Z</time>
      </trkpt>
      <trkpt lat="46.47946" lon="8.24601">
        <ele>1571</ele>
        <time>2020-07-16T13:29:08.568Z</time>
      </trkpt>
      <trkpt lat="46.47945" lon="8.246">
        <ele>1571</ele>
        <time>2020-07-16T13:29:09.567Z</time>
      </trkpt>
      <trkpt lat="46.47945" lon="8.24598">
        <ele>1571</ele>
        <time>2020-07-16T13:29:10.567Z</time>
      </trkpt>
      <trkpt lat="46.47944" lon="8.24597">
        <ele>1570</ele>
        <time>2020-07-16T13:29:11.568Z</time>
      </trkpt>
      <trkpt lat="46.47943" lon="8.24596">
        <ele>1570</ele>
        <time>2020-07-16T13:29:12.567Z</time>
      </trkpt>
      <trkpt lat="46.47943" lon="8.24595">
        <ele>1570</ele>
        <time>2020-07-16T13:29:13.568Z</time>
      </trkpt>
      <trkpt lat="46.47942" lon="8.24594">
        <ele>1571</ele>
        <time>2020-07-16T13:29:14.567Z</time>
      </trkpt>
      <trkpt lat="46.47942" lon="8.24593">
        <ele>1570</ele>
        <time>2020-07-16T13:29:15.568Z</time>
      </trkpt>
      <trkpt lat="46.47941" lon="8.24591">
        <ele>1570</ele>
        <time>2020-07-16T13:29:16.567Z</time>
      </trkpt>
      <trkpt lat="46.4794" lon="8.2459">
        <ele>1570</ele>
        <time>2020-07-16T13:29:17.568Z</time>
      </trkpt>
      <trkpt lat="46.47939" lon="8.24589">
        <ele>1569</ele>
        <time>2020-07-16T13:29:18.567Z</time>
      </trkpt>
      <trkpt lat="46.47938" lon="8.24588">
        <ele>1569</ele>
        <time>2020-07-16T13:29:19.568Z</time>
      </trkpt>
      <trkpt lat="46.47937" lon="8.24587">
        <ele>1569</ele>
        <time>2020-07-16T13:29:20.567Z</time>
      </trkpt>
      <trkpt lat="46.47937" lon="8.24586">
        <ele>1569</ele>
        <time>2020-07-16T13:29:21.568Z</time>
      </trkpt>
      <trkpt lat="46.47936" lon="8.24585">
        <ele>1570</ele>
        <time>2020-07-16T13:29:22.568Z</time>
      </trkpt>
      <trkpt lat="46.47935" lon="8.24584">
        <ele>1570</ele>
        <time>2020-07-16T13:29:23.568Z</time>
      </trkpt>
      <trkpt lat="46.47934" lon="8.24583">
        <ele>1570</ele>
        <time>2020-07-16T13:29:24.568Z</time>
      </trkpt>
      <trkpt lat="46.47934" lon="8.24582">
        <ele>1569</ele>
        <time>2020-07-16T13:29:25.568Z</time>
      </trkpt>
      <trkpt lat="46.47933" lon="8.2458">
        <ele>1569</ele>
        <time>2020-07-16T13:29:26.567Z</time>
      </trkpt>
      <trkpt lat="46.47932" lon="8.24579">
        <ele>1570</ele>
        <time>2020-07-16T13:29:27.567Z</time>
      </trkpt>
      <trkpt lat="46.47931" lon="8.24578">
        <ele>1570</ele>
        <time>2020-07-16T13:29:28.567Z</time>
      </trkpt>
      <trkpt lat="46.4793" lon="8.24578">
        <ele>1570</ele>
        <time>2020-07-16T13:29:29.567Z</time>
      </trkpt>
      <trkpt lat="46.47929" lon="8.24576">
        <ele>1570</ele>
        <time>2020-07-16T13:29:30.567Z</time>
      </trkpt>
      <trkpt lat="46.47928" lon="8.24576">
        <ele>1569</ele>
        <time>2020-07-16T13:29:31.567Z</time>
      </trkpt>
      <trkpt lat="46.47927" lon="8.24575">
        <ele>1569</ele>
        <time>2020-07-16T13:29:32.567Z</time>
      </trkpt>
      <trkpt lat="46.47926" lon="8.24574">
        <ele>1569</ele>
        <time>2020-07-16T13:29:33.567Z</time>
      </trkpt>
      <trkpt lat="46.47925" lon="8.24573">
        <ele>1569</ele>
        <time>2020-07-16T13:29:34.568Z</time>
      </trkpt>
      <trkpt lat="46.47924" lon="8.24573">
        <ele>1569</ele>
        <time>2020-07-16T13:29:35.567Z</time>
      </trkpt>
      <trkpt lat="46.47923" lon="8.24572">
        <ele>1569</ele>
        <time>2020-07-16T13:29:36.568Z</time>
      </trkpt>
      <trkpt lat="46.47923" lon="8.24572">
        <ele>1569</ele>
        <time>2020-07-16T13:29:37.568Z</time>
      </trkpt>
      <trkpt lat="46.47922" lon="8.24571">
        <ele>1569</ele>
        <time>2020-07-16T13:29:38.568Z</time>
      </trkpt>
      <trkpt lat="46.4792" lon="8.2457">
        <ele>1569</ele>
        <time>2020-07-16T13:29:39.568Z</time>
      </trkpt>
      <trkpt lat="46.4792" lon="8.2457">
        <ele>1569</ele>
        <time>2020-07-16T13:29:40.568Z</time>
      </trkpt>
      <trkpt lat="46.47918" lon="8.24569">
        <ele>1569</ele>
        <time>2020-07-16T13:29:41.567Z</time>
      </trkpt>
      <trkpt lat="46.47917" lon="8.24569">
        <ele>1569</ele>
        <time>2020-07-16T13:29:42.567Z</time>
      </trkpt>
      <trkpt lat="46.47916" lon="8.24568">
        <ele>1568</ele>
        <time>2020-07-16T13:29:43.568Z</time>
      </trkpt>
      <trkpt lat="46.47915" lon="8.24568">
        <ele>1568</ele>
        <time>2020-07-16T13:29:44.568Z</time>
      </trkpt>
      <trkpt lat="46.47914" lon="8.24567">
        <ele>1568</ele>
        <time>2020-07-16T13:29:45.567Z</time>
      </trkpt>
      <trkpt lat="46.47913" lon="8.24567">
        <ele>1568</ele>
        <time>2020-07-16T13:29:46.568Z</time>
      </trkpt>
      <trkpt lat="46.47912" lon="8.24566">
        <ele>1568</ele>
        <time>2020-07-16T13:29:47.567Z</time>
      </trkpt>
      <trkpt lat="46.47911" lon="8.24565">
        <ele>1568</ele>
        <time>2020-07-16T13:29:48.567Z</time>
      </trkpt>
      <trkpt lat="46.4791" lon="8.24565">
        <ele>1568</ele>
        <time>2020-07-16T13:29:49.568Z</time>
      </trkpt>
      <trkpt lat="46.47909" lon="8.24564">
        <ele>1568</ele>
        <time>2020-07-16T13:29:50.568Z</time>
      </trkpt>
      <trkpt lat="46.47907" lon="8.24563">
        <ele>1569</ele>
        <time>2020-07-16T13:29:51.568Z</time>
      </trkpt>
      <trkpt lat="46.47906" lon="8.24562">
        <ele>1569</ele>
        <time>2020-07-16T13:29:52.568Z</time>
      </trkpt>
      <trkpt lat="46.47906" lon="8.24562">
        <ele>1569</ele>
        <time>2020-07-16T13:29:53.568Z</time>
      </trkpt>
      <trkpt lat="46.47905" lon="8.24561">
        <ele>1570</ele>
        <time>2020-07-16T13:29:54.567Z</time>
      </trkpt>
      <trkpt lat="46.47904" lon="8.2456">
        <ele>1570</ele>
        <time>2020-07-16T13:29:55.568Z</time>
      </trkpt>
      <trkpt lat="46.47903" lon="8.24559">
        <ele>1569</ele>
        <time>2020-07-16T13:29:56.567Z</time>
      </trkpt>
      <trkpt lat="46.47903" lon="8.24559">
        <ele>1568</ele>
        <time>2020-07-16T13:29:57.568Z</time>
      </trkpt>
      <trkpt lat="46.47901" lon="8.24557">
        <ele>1568</ele>
        <time>2020-07-16T13:29:58.568Z</time>
      </trkpt>
      <trkpt lat="46.479" lon="8.24556">
        <ele>1568</ele>
        <time>2020-07-16T13:29:59.568Z</time>
      </trkpt>
      <trkpt lat="46.47899" lon="8.24555">
        <ele>1568</ele>
        <time>2020-07-16T13:30:00.568Z</time>
      </trkpt>
      <trkpt lat="46.47899" lon="8.24554">
        <ele>1567</ele>
        <time>2020-07-16T13:30:01.568Z</time>
      </trkpt>
      <trkpt lat="46.47898" lon="8.24553">
        <ele>1567</ele>
        <time>2020-07-16T13:30:02.567Z</time>
      </trkpt>
      <trkpt lat="46.47897" lon="8.24552">
        <ele>1567</ele>
        <time>2020-07-16T13:30:03.568Z</time>
      </trkpt>
      <trkpt lat="46.47896" lon="8.24551">
        <ele>1566</ele>
        <time>2020-07-16T13:30:04.568Z</time>
      </trkpt>
      <trkpt lat="46.47895" lon="8.2455">
        <ele>1566</ele>
        <time>2020-07-16T13:30:05.567Z</time>
      </trkpt>
      <trkpt lat="46.47894" lon="8.2455">
        <ele>1566</ele>
        <time>2020-07-16T13:30:06.568Z</time>
      </trkpt>
      <trkpt lat="46.47894" lon="8.24549">
        <ele>1566</ele>
        <time>2020-07-16T13:30:07.568Z</time>
      </trkpt>
      <trkpt lat="46.47892" lon="8.24547">
        <ele>1566</ele>
        <time>2020-07-16T13:30:08.567Z</time>
      </trkpt>
      <trkpt lat="46.47891" lon="8.24546">
        <ele>1566</ele>
        <time>2020-07-16T13:30:09.568Z</time>
      </trkpt>
      <trkpt lat="46.47891" lon="8.24545">
        <ele>1565</ele>
        <time>2020-07-16T13:30:10.567Z</time>
      </trkpt>
      <trkpt lat="46.4789" lon="8.24544">
        <ele>1565</ele>
        <time>2020-07-16T13:30:11.568Z</time>
      </trkpt>
      <trkpt lat="46.47889" lon="8.24543">
        <ele>1564</ele>
        <time>2020-07-16T13:30:12.568Z</time>
      </trkpt>
      <trkpt lat="46.47888" lon="8.24541">
        <ele>1564</ele>
        <time>2020-07-16T13:30:13.567Z</time>
      </trkpt>
      <trkpt lat="46.47887" lon="8.2454">
        <ele>1565</ele>
        <time>2020-07-16T13:30:14.568Z</time>
      </trkpt>
      <trkpt lat="46.47886" lon="8.24539">
        <ele>1565</ele>
        <time>2020-07-16T13:30:15.567Z</time>
      </trkpt>
      <trkpt lat="46.47885" lon="8.24538">
        <ele>1565</ele>
        <time>2020-07-16T13:30:16.568Z</time>
      </trkpt>
      <trkpt lat="46.47884" lon="8.24537">
        <ele>1565</ele>
        <time>2020-07-16T13:30:17.567Z</time>
      </trkpt>
      <trkpt lat="46.47883" lon="8.24535">
        <ele>1565</ele>
        <time>2020-07-16T13:30:18.567Z</time>
      </trkpt>
      <trkpt lat="46.47882" lon="8.24534">
        <ele>1565</ele>
        <time>2020-07-16T13:30:19.568Z</time>
      </trkpt>
      <trkpt lat="46.47881" lon="8.24533">
        <ele>1565</ele>
        <time>2020-07-16T13:30:20.567Z</time>
      </trkpt>
      <trkpt lat="46.4788" lon="8.24532">
        <ele>1564</ele>
        <time>2020-07-16T13:30:21.567Z</time>
      </trkpt>
      <trkpt lat="46.47879" lon="8.24531">
        <ele>1564</ele>
        <time>2020-07-16T13:30:22.568Z</time>
      </trkpt>
      <trkpt lat="46.47878" lon="8.2453">
        <ele>1564</ele>
        <time>2020-07-16T13:30:23.568Z</time>
      </trkpt>
      <trkpt lat="46.47878" lon="8.24529">
        <ele>1564</ele>
        <time>2020-07-16T13:30:24.568Z</time>
      </trkpt>
      <trkpt lat="46.47877" lon="8.24528">
        <ele>1564</ele>
        <time>2020-07-16T13:30:25.567Z</time>
      </trkpt>
      <trkpt lat="46.47876" lon="8.24527">
        <ele>1565</ele>
        <time>2020-07-16T13:30:26.567Z</time>
      </trkpt>
      <trkpt lat="46.47875" lon="8.24526">
        <ele>1565</ele>
        <time>2020-07-16T13:30:27.567Z</time>
      </trkpt>
      <trkpt lat="46.47875" lon="8.24525">
        <ele>1565</ele>
        <time>2020-07-16T13:30:28.567Z</time>
      </trkpt>
      <trkpt lat="46.47874" lon="8.24524">
        <ele>1565</ele>
        <time>2020-07-16T13:30:29.568Z</time>
      </trkpt>
      <trkpt lat="46.47873" lon="8.24523">
        <ele>1565</ele>
        <time>2020-07-16T13:30:30.568Z</time>
      </trkpt>
      <trkpt lat="46.47872" lon="8.24523">
        <ele>1565</ele>
        <time>2020-07-16T13:30:31.567Z</time>
      </trkpt>
      <trkpt lat="46.47872" lon="8.24522">
        <ele>1564</ele>
        <time>2020-07-16T13:30:32.567Z</time>
      </trkpt>
      <trkpt lat="46.47872" lon="8.24521">
        <ele>1564</ele>
        <time>2020-07-16T13:30:33.568Z</time>
      </trkpt>
      <trkpt lat="46.47871" lon="8.2452">
        <ele>1564</ele>
        <time>2020-07-16T13:30:34.568Z</time>
      </trkpt>
      <trkpt lat="46.47871" lon="8.24519">
        <ele>1564</ele>
        <time>2020-07-16T13:30:35.568Z</time>
      </trkpt>
      <trkpt lat="46.4787" lon="8.24518">
        <ele>1564</ele>
        <time>2020-07-16T13:30:36.567Z</time>
      </trkpt>
      <trkpt lat="46.47869" lon="8.24517">
        <ele>1564</ele>
        <time>2020-07-16T13:30:37.568Z</time>
      </trkpt>
      <trkpt lat="46.47868" lon="8.24516">
        <ele>1564</ele>
        <time>2020-07-16T13:30:38.567Z</time>
      </trkpt>
      <trkpt lat="46.47867" lon="8.24515">
        <ele>1564</ele>
        <time>2020-07-16T13:30:39.568Z</time>
      </trkpt>
      <trkpt lat="46.47866" lon="8.24514">
        <ele>1564</ele>
        <time>2020-07-16T13:30:40.568Z</time>
      </trkpt>
      <trkpt lat="46.47864" lon="8.24513">
        <ele>1565</ele>
        <time>2020-07-16T13:30:41.567Z</time>
      </trkpt>
      <trkpt lat="46.47863" lon="8.24512">
        <ele>1565</ele>
        <time>2020-07-16T13:30:42.568Z</time>
      </trkpt>
      <trkpt lat="46.47863" lon="8.24511">
        <ele>1566</ele>
        <time>2020-07-16T13:30:43.567Z</time>
      </trkpt>
      <trkpt lat="46.47862" lon="8.2451">
        <ele>1566</ele>
        <time>2020-07-16T13:30:44.568Z</time>
      </trkpt>
      <trkpt lat="46.47861" lon="8.24509">
        <ele>1565</ele>
        <time>2020-07-16T13:30:45.568Z</time>
      </trkpt>
      <trkpt lat="46.47861" lon="8.24508">
        <ele>1565</ele>
        <time>2020-07-16T13:30:46.568Z</time>
      </trkpt>
      <trkpt lat="46.4786" lon="8.24507">
        <ele>1564</ele>
        <time>2020-07-16T13:30:47.567Z</time>
      </trkpt>
      <trkpt lat="46.47859" lon="8.24505">
        <ele>1564</ele>
        <time>2020-07-16T13:30:48.568Z</time>
      </trkpt>
      <trkpt lat="46.47859" lon="8.24504">
        <ele>1564</ele>
        <time>2020-07-16T13:30:49.568Z</time>
      </trkpt>
      <trkpt lat="46.47858" lon="8.24503">
        <ele>1564</ele>
        <time>2020-07-16T13:30:50.568Z</time>
      </trkpt>
      <trkpt lat="46.47857" lon="8.24502">
        <ele>1563</ele>
        <time>2020-07-16T13:30:51.568Z</time>
      </trkpt>
      <trkpt lat="46.47856" lon="8.245">
        <ele>1564</ele>
        <time>2020-07-16T13:30:52.568Z</time>
      </trkpt>
      <trkpt lat="46.47855" lon="8.24498">
        <ele>1563</ele>
        <time>2020-07-16T13:30:53.568Z</time>
      </trkpt>
      <trkpt lat="46.47854" lon="8.24496">
        <ele>1563</ele>
        <time>2020-07-16T13:30:54.568Z</time>
      </trkpt>
      <trkpt lat="46.47854" lon="8.24495">
        <ele>1563</ele>
        <time>2020-07-16T13:30:55.567Z</time>
      </trkpt>
      <trkpt lat="46.47853" lon="8.24493">
        <ele>1563</ele>
        <time>2020-07-16T13:30:56.568Z</time>
      </trkpt>
      <trkpt lat="46.47853" lon="8.24492">
        <ele>1562</ele>
        <time>2020-07-16T13:30:57.567Z</time>
      </trkpt>
      <trkpt lat="46.47852" lon="8.24491">
        <ele>1562</ele>
        <time>2020-07-16T13:30:58.567Z</time>
      </trkpt>
      <trkpt lat="46.47852" lon="8.2449">
        <ele>1562</ele>
        <time>2020-07-16T13:30:59.568Z</time>
      </trkpt>
      <trkpt lat="46.47851" lon="8.24488">
        <ele>1562</ele>
        <time>2020-07-16T13:31:00.568Z</time>
      </trkpt>
      <trkpt lat="46.4785" lon="8.24487">
        <ele>1562</ele>
        <time>2020-07-16T13:31:01.567Z</time>
      </trkpt>
      <trkpt lat="46.4785" lon="8.24486">
        <ele>1562</ele>
        <time>2020-07-16T13:31:02.568Z</time>
      </trkpt>
      <trkpt lat="46.47849" lon="8.24485">
        <ele>1562</ele>
        <time>2020-07-16T13:31:03.567Z</time>
      </trkpt>
      <trkpt lat="46.47848" lon="8.24484">
        <ele>1562</ele>
        <time>2020-07-16T13:31:04.568Z</time>
      </trkpt>
      <trkpt lat="46.47848" lon="8.24483">
        <ele>1562</ele>
        <time>2020-07-16T13:31:05.568Z</time>
      </trkpt>
      <trkpt lat="46.47848" lon="8.24481">
        <ele>1561</ele>
        <time>2020-07-16T13:31:06.567Z</time>
      </trkpt>
      <trkpt lat="46.47847" lon="8.2448">
        <ele>1561</ele>
        <time>2020-07-16T13:31:07.568Z</time>
      </trkpt>
      <trkpt lat="46.47847" lon="8.24479">
        <ele>1561</ele>
        <time>2020-07-16T13:31:08.568Z</time>
      </trkpt>
      <trkpt lat="46.47847" lon="8.24477">
        <ele>1561</ele>
        <time>2020-07-16T13:31:09.568Z</time>
      </trkpt>
      <trkpt lat="46.47848" lon="8.24476">
        <ele>1561</ele>
        <time>2020-07-16T13:31:10.567Z</time>
      </trkpt>
      <trkpt lat="46.47848" lon="8.24474">
        <ele>1561</ele>
        <time>2020-07-16T13:31:11.567Z</time>
      </trkpt>
      <trkpt lat="46.47848" lon="8.24473">
        <ele>1561</ele>
        <time>2020-07-16T13:31:12.567Z</time>
      </trkpt>
      <trkpt lat="46.47848" lon="8.24473">
        <ele>1561</ele>
        <time>2020-07-16T13:31:13.567Z</time>
      </trkpt>
      <trkpt lat="46.47848" lon="8.24472">
        <ele>1561</ele>
        <time>2020-07-16T13:31:14.568Z</time>
      </trkpt>
      <trkpt lat="46.47848" lon="8.24472">
        <ele>1565</ele>
        <time>2020-07-16T13:31:15.567Z</time>
      </trkpt>
      <trkpt lat="46.47848" lon="8.24471">
        <ele>1565</ele>
        <time>2020-07-16T13:31:16.567Z</time>
      </trkpt>
      <trkpt lat="46.47848" lon="8.2447">
        <ele>1565</ele>
        <time>2020-07-16T13:31:17.567Z</time>
      </trkpt>
      <trkpt lat="46.47849" lon="8.24468">
        <ele>1564</ele>
        <time>2020-07-16T13:31:18.568Z</time>
      </trkpt>
      <trkpt lat="46.47849" lon="8.24467">
        <ele>1564</ele>
        <time>2020-07-16T13:31:19.567Z</time>
      </trkpt>
      <trkpt lat="46.47849" lon="8.24465">
        <ele>1564</ele>
        <time>2020-07-16T13:31:20.567Z</time>
      </trkpt>
      <trkpt lat="46.47849" lon="8.24464">
        <ele>1564</ele>
        <time>2020-07-16T13:31:21.568Z</time>
      </trkpt>
      <trkpt lat="46.47849" lon="8.24462">
        <ele>1564</ele>
        <time>2020-07-16T13:31:22.568Z</time>
      </trkpt>
      <trkpt lat="46.4785" lon="8.24461">
        <ele>1564</ele>
        <time>2020-07-16T13:31:23.567Z</time>
      </trkpt>
      <trkpt lat="46.4785" lon="8.24459">
        <ele>1564</ele>
        <time>2020-07-16T13:31:24.567Z</time>
      </trkpt>
      <trkpt lat="46.4785" lon="8.24458">
        <ele>1564</ele>
        <time>2020-07-16T13:31:25.568Z</time>
      </trkpt>
      <trkpt lat="46.4785" lon="8.24457">
        <ele>1564</ele>
        <time>2020-07-16T13:31:26.568Z</time>
      </trkpt>
      <trkpt lat="46.47851" lon="8.24455">
        <ele>1564</ele>
        <time>2020-07-16T13:31:27.568Z</time>
      </trkpt>
      <trkpt lat="46.47851" lon="8.24454">
        <ele>1563</ele>
        <time>2020-07-16T13:31:28.568Z</time>
      </trkpt>
      <trkpt lat="46.47851" lon="8.24452">
        <ele>1563</ele>
        <time>2020-07-16T13:31:29.568Z</time>
      </trkpt>
      <trkpt lat="46.47852" lon="8.24451">
        <ele>1562</ele>
        <time>2020-07-16T13:31:30.567Z</time>
      </trkpt>
      <trkpt lat="46.47852" lon="8.24449">
        <ele>1562</ele>
        <time>2020-07-16T13:31:31.567Z</time>
      </trkpt>
      <trkpt lat="46.47852" lon="8.24448">
        <ele>1561</ele>
        <time>2020-07-16T13:31:32.568Z</time>
      </trkpt>
      <trkpt lat="46.47852" lon="8.24446">
        <ele>1561</ele>
        <time>2020-07-16T13:31:33.568Z</time>
      </trkpt>
      <trkpt lat="46.47852" lon="8.24445">
        <ele>1561</ele>
        <time>2020-07-16T13:31:34.567Z</time>
      </trkpt>
      <trkpt lat="46.47853" lon="8.24444">
        <ele>1561</ele>
        <time>2020-07-16T13:31:35.568Z</time>
      </trkpt>
      <trkpt lat="46.47853" lon="8.24442">
        <ele>1561</ele>
        <time>2020-07-16T13:31:36.568Z</time>
      </trkpt>
      <trkpt lat="46.47854" lon="8.2444">
        <ele>1561</ele>
        <time>2020-07-16T13:31:37.568Z</time>
      </trkpt>
      <trkpt lat="46.47854" lon="8.24439">
        <ele>1560</ele>
        <time>2020-07-16T13:31:38.568Z</time>
      </trkpt>
      <trkpt lat="46.47854" lon="8.24438">
        <ele>1559</ele>
        <time>2020-07-16T13:31:39.568Z</time>
      </trkpt>
      <trkpt lat="46.47855" lon="8.24436">
        <ele>1559</ele>
        <time>2020-07-16T13:31:40.568Z</time>
      </trkpt>
      <trkpt lat="46.47855" lon="8.24435">
        <ele>1558</ele>
        <time>2020-07-16T13:31:41.568Z</time>
      </trkpt>
      <trkpt lat="46.47856" lon="8.24433">
        <ele>1557</ele>
        <time>2020-07-16T13:31:42.568Z</time>
      </trkpt>
      <trkpt lat="46.47856" lon="8.24432">
        <ele>1557</ele>
        <time>2020-07-16T13:31:43.568Z</time>
      </trkpt>
      <trkpt lat="46.47856" lon="8.24431">
        <ele>1556</ele>
        <time>2020-07-16T13:31:44.567Z</time>
      </trkpt>
      <trkpt lat="46.47856" lon="8.24429">
        <ele>1556</ele>
        <time>2020-07-16T13:31:45.568Z</time>
      </trkpt>
      <trkpt lat="46.47857" lon="8.24428">
        <ele>1556</ele>
        <time>2020-07-16T13:31:46.568Z</time>
      </trkpt>
      <trkpt lat="46.47857" lon="8.24426">
        <ele>1556</ele>
        <time>2020-07-16T13:31:47.568Z</time>
      </trkpt>
      <trkpt lat="46.47857" lon="8.24425">
        <ele>1556</ele>
        <time>2020-07-16T13:31:48.568Z</time>
      </trkpt>
      <trkpt lat="46.47857" lon="8.24424">
        <ele>1556</ele>
        <time>2020-07-16T13:31:49.568Z</time>
      </trkpt>
      <trkpt lat="46.47857" lon="8.24422">
        <ele>1556</ele>
        <time>2020-07-16T13:31:50.567Z</time>
      </trkpt>
      <trkpt lat="46.47858" lon="8.24421">
        <ele>1556</ele>
        <time>2020-07-16T13:31:51.568Z</time>
      </trkpt>
      <trkpt lat="46.47858" lon="8.24419">
        <ele>1555</ele>
        <time>2020-07-16T13:31:52.568Z</time>
      </trkpt>
      <trkpt lat="46.47859" lon="8.24418">
        <ele>1555</ele>
        <time>2020-07-16T13:31:53.568Z</time>
      </trkpt>
      <trkpt lat="46.47859" lon="8.24416">
        <ele>1555</ele>
        <time>2020-07-16T13:31:54.568Z</time>
      </trkpt>
      <trkpt lat="46.4786" lon="8.24415">
        <ele>1555</ele>
        <time>2020-07-16T13:31:55.568Z</time>
      </trkpt>
      <trkpt lat="46.47861" lon="8.24414">
        <ele>1555</ele>
        <time>2020-07-16T13:31:56.567Z</time>
      </trkpt>
      <trkpt lat="46.47862" lon="8.24413">
        <ele>1556</ele>
        <time>2020-07-16T13:31:57.568Z</time>
      </trkpt>
      <trkpt lat="46.47863" lon="8.24411">
        <ele>1556</ele>
        <time>2020-07-16T13:31:58.568Z</time>
      </trkpt>
      <trkpt lat="46.47864" lon="8.2441">
        <ele>1556</ele>
        <time>2020-07-16T13:31:59.568Z</time>
      </trkpt>
      <trkpt lat="46.47865" lon="8.24409">
        <ele>1557</ele>
        <time>2020-07-16T13:32:00.568Z</time>
      </trkpt>
      <trkpt lat="46.47865" lon="8.24408">
        <ele>1557</ele>
        <time>2020-07-16T13:32:01.568Z</time>
      </trkpt>
      <trkpt lat="46.47866" lon="8.24407">
        <ele>1557</ele>
        <time>2020-07-16T13:32:02.567Z</time>
      </trkpt>
      <trkpt lat="46.47867" lon="8.24406">
        <ele>1557</ele>
        <time>2020-07-16T13:32:03.568Z</time>
      </trkpt>
      <trkpt lat="46.47867" lon="8.24404">
        <ele>1558</ele>
        <time>2020-07-16T13:32:04.568Z</time>
      </trkpt>
      <trkpt lat="46.47868" lon="8.24403">
        <ele>1558</ele>
        <time>2020-07-16T13:32:05.568Z</time>
      </trkpt>
      <trkpt lat="46.47869" lon="8.24402">
        <ele>1558</ele>
        <time>2020-07-16T13:32:06.567Z</time>
      </trkpt>
      <trkpt lat="46.47869" lon="8.244">
        <ele>1558</ele>
        <time>2020-07-16T13:32:07.568Z</time>
      </trkpt>
      <trkpt lat="46.4787" lon="8.24399">
        <ele>1558</ele>
        <time>2020-07-16T13:32:08.567Z</time>
      </trkpt>
      <trkpt lat="46.4787" lon="8.24398">
        <ele>1558</ele>
        <time>2020-07-16T13:32:09.567Z</time>
      </trkpt>
      <trkpt lat="46.47871" lon="8.24397">
        <ele>1558</ele>
        <time>2020-07-16T13:32:10.568Z</time>
      </trkpt>
      <trkpt lat="46.47872" lon="8.24396">
        <ele>1558</ele>
        <time>2020-07-16T13:32:11.568Z</time>
      </trkpt>
      <trkpt lat="46.47873" lon="8.24395">
        <ele>1559</ele>
        <time>2020-07-16T13:32:12.568Z</time>
      </trkpt>
      <trkpt lat="46.47873" lon="8.24394">
        <ele>1559</ele>
        <time>2020-07-16T13:32:13.568Z</time>
      </trkpt>
      <trkpt lat="46.47874" lon="8.24393">
        <ele>1560</ele>
        <time>2020-07-16T13:32:14.568Z</time>
      </trkpt>
      <trkpt lat="46.47875" lon="8.24392">
        <ele>1560</ele>
        <time>2020-07-16T13:32:15.568Z</time>
      </trkpt>
      <trkpt lat="46.47876" lon="8.24391">
        <ele>1560</ele>
        <time>2020-07-16T13:32:16.568Z</time>
      </trkpt>
      <trkpt lat="46.47876" lon="8.2439">
        <ele>1560</ele>
        <time>2020-07-16T13:32:17.567Z</time>
      </trkpt>
      <trkpt lat="46.47877" lon="8.2439">
        <ele>1561</ele>
        <time>2020-07-16T13:32:18.568Z</time>
      </trkpt>
      <trkpt lat="46.47878" lon="8.24389">
        <ele>1561</ele>
        <time>2020-07-16T13:32:19.568Z</time>
      </trkpt>
      <trkpt lat="46.47878" lon="8.24388">
        <ele>1561</ele>
        <time>2020-07-16T13:32:20.568Z</time>
      </trkpt>
      <trkpt lat="46.47879" lon="8.24387">
        <ele>1561</ele>
        <time>2020-07-16T13:32:21.568Z</time>
      </trkpt>
      <trkpt lat="46.47879" lon="8.24385">
        <ele>1561</ele>
        <time>2020-07-16T13:32:22.568Z</time>
      </trkpt>
      <trkpt lat="46.47879" lon="8.24384">
        <ele>1561</ele>
        <time>2020-07-16T13:32:23.567Z</time>
      </trkpt>
      <trkpt lat="46.4788" lon="8.24382">
        <ele>1560</ele>
        <time>2020-07-16T13:32:24.567Z</time>
      </trkpt>
      <trkpt lat="46.47881" lon="8.2438">
        <ele>1560</ele>
        <time>2020-07-16T13:32:25.567Z</time>
      </trkpt>
      <trkpt lat="46.47882" lon="8.24379">
        <ele>1559</ele>
        <time>2020-07-16T13:32:26.567Z</time>
      </trkpt>
      <trkpt lat="46.47882" lon="8.24377">
        <ele>1559</ele>
        <time>2020-07-16T13:32:27.567Z</time>
      </trkpt>
      <trkpt lat="46.47883" lon="8.24376">
        <ele>1559</ele>
        <time>2020-07-16T13:32:28.567Z</time>
      </trkpt>
      <trkpt lat="46.47883" lon="8.24374">
        <ele>1559</ele>
        <time>2020-07-16T13:32:29.567Z</time>
      </trkpt>
      <trkpt lat="46.47883" lon="8.24373">
        <ele>1559</ele>
        <time>2020-07-16T13:32:30.567Z</time>
      </trkpt>
      <trkpt lat="46.47883" lon="8.24372">
        <ele>1559</ele>
        <time>2020-07-16T13:32:31.567Z</time>
      </trkpt>
      <trkpt lat="46.47884" lon="8.2437">
        <ele>1558</ele>
        <time>2020-07-16T13:32:32.568Z</time>
      </trkpt>
      <trkpt lat="46.47884" lon="8.24368">
        <ele>1557</ele>
        <time>2020-07-16T13:32:33.567Z</time>
      </trkpt>
      <trkpt lat="46.47884" lon="8.24366">
        <ele>1556</ele>
        <time>2020-07-16T13:32:34.567Z</time>
      </trkpt>
      <trkpt lat="46.47884" lon="8.24365">
        <ele>1556</ele>
        <time>2020-07-16T13:32:35.568Z</time>
      </trkpt>
      <trkpt lat="46.47884" lon="8.24363">
        <ele>1555</ele>
        <time>2020-07-16T13:32:36.567Z</time>
      </trkpt>
      <trkpt lat="46.47884" lon="8.24361">
        <ele>1555</ele>
        <time>2020-07-16T13:32:37.568Z</time>
      </trkpt>
      <trkpt lat="46.47884" lon="8.24359">
        <ele>1554</ele>
        <time>2020-07-16T13:32:38.568Z</time>
      </trkpt>
      <trkpt lat="46.47884" lon="8.24358">
        <ele>1554</ele>
        <time>2020-07-16T13:32:39.567Z</time>
      </trkpt>
      <trkpt lat="46.47884" lon="8.24356">
        <ele>1554</ele>
        <time>2020-07-16T13:32:40.568Z</time>
      </trkpt>
      <trkpt lat="46.47883" lon="8.24355">
        <ele>1553</ele>
        <time>2020-07-16T13:32:41.568Z</time>
      </trkpt>
      <trkpt lat="46.47883" lon="8.24353">
        <ele>1553</ele>
        <time>2020-07-16T13:32:42.567Z</time>
      </trkpt>
      <trkpt lat="46.47882" lon="8.24351">
        <ele>1553</ele>
        <time>2020-07-16T13:32:43.568Z</time>
      </trkpt>
      <trkpt lat="46.47882" lon="8.2435">
        <ele>1553</ele>
        <time>2020-07-16T13:32:44.567Z</time>
      </trkpt>
      <trkpt lat="46.47882" lon="8.24348">
        <ele>1553</ele>
        <time>2020-07-16T13:32:45.567Z</time>
      </trkpt>
      <trkpt lat="46.47882" lon="8.24347">
        <ele>1552</ele>
        <time>2020-07-16T13:32:46.567Z</time>
      </trkpt>
      <trkpt lat="46.47882" lon="8.24345">
        <ele>1552</ele>
        <time>2020-07-16T13:32:47.567Z</time>
      </trkpt>
      <trkpt lat="46.47881" lon="8.24344">
        <ele>1552</ele>
        <time>2020-07-16T13:32:48.568Z</time>
      </trkpt>
      <trkpt lat="46.47881" lon="8.24343">
        <ele>1552</ele>
        <time>2020-07-16T13:32:49.568Z</time>
      </trkpt>
      <trkpt lat="46.4788" lon="8.24341">
        <ele>1553</ele>
        <time>2020-07-16T13:32:50.567Z</time>
      </trkpt>
      <trkpt lat="46.47879" lon="8.24339">
        <ele>1553</ele>
        <time>2020-07-16T13:32:51.567Z</time>
      </trkpt>
      <trkpt lat="46.47879" lon="8.24338">
        <ele>1554</ele>
        <time>2020-07-16T13:32:52.568Z</time>
      </trkpt>
      <trkpt lat="46.47878" lon="8.24336">
        <ele>1554</ele>
        <time>2020-07-16T13:32:53.568Z</time>
      </trkpt>
      <trkpt lat="46.47877" lon="8.24334">
        <ele>1554</ele>
        <time>2020-07-16T13:32:54.567Z</time>
      </trkpt>
      <trkpt lat="46.47877" lon="8.24332">
        <ele>1554</ele>
        <time>2020-07-16T13:32:55.568Z</time>
      </trkpt>
      <trkpt lat="46.47876" lon="8.24331">
        <ele>1553</ele>
        <time>2020-07-16T13:32:56.568Z</time>
      </trkpt>
      <trkpt lat="46.47876" lon="8.24328">
        <ele>1553</ele>
        <time>2020-07-16T13:32:57.568Z</time>
      </trkpt>
      <trkpt lat="46.47875" lon="8.24327">
        <ele>1553</ele>
        <time>2020-07-16T13:32:58.567Z</time>
      </trkpt>
      <trkpt lat="46.47876" lon="8.24326">
        <ele>1553</ele>
        <time>2020-07-16T13:32:59.568Z</time>
      </trkpt>
      <trkpt lat="46.47875" lon="8.24325">
        <ele>1554</ele>
        <time>2020-07-16T13:33:00.568Z</time>
      </trkpt>
      <trkpt lat="46.47874" lon="8.24323">
        <ele>1554</ele>
        <time>2020-07-16T13:33:01.568Z</time>
      </trkpt>
      <trkpt lat="46.47874" lon="8.24322">
        <ele>1554</ele>
        <time>2020-07-16T13:33:02.567Z</time>
      </trkpt>
      <trkpt lat="46.47873" lon="8.24321">
        <ele>1554</ele>
        <time>2020-07-16T13:33:03.567Z</time>
      </trkpt>
      <trkpt lat="46.47873" lon="8.2432">
        <ele>1554</ele>
        <time>2020-07-16T13:33:04.567Z</time>
      </trkpt>
      <trkpt lat="46.47872" lon="8.24319">
        <ele>1555</ele>
        <time>2020-07-16T13:33:05.568Z</time>
      </trkpt>
      <trkpt lat="46.47871" lon="8.24317">
        <ele>1555</ele>
        <time>2020-07-16T13:33:06.567Z</time>
      </trkpt>
      <trkpt lat="46.47871" lon="8.24316">
        <ele>1554</ele>
        <time>2020-07-16T13:33:07.568Z</time>
      </trkpt>
      <trkpt lat="46.4787" lon="8.24315">
        <ele>1554</ele>
        <time>2020-07-16T13:33:08.567Z</time>
      </trkpt>
      <trkpt lat="46.47869" lon="8.24314">
        <ele>1554</ele>
        <time>2020-07-16T13:33:09.568Z</time>
      </trkpt>
      <trkpt lat="46.47869" lon="8.24312">
        <ele>1553</ele>
        <time>2020-07-16T13:33:10.568Z</time>
      </trkpt>
      <trkpt lat="46.47868" lon="8.2431">
        <ele>1553</ele>
        <time>2020-07-16T13:33:11.567Z</time>
      </trkpt>
      <trkpt lat="46.47868" lon="8.24308">
        <ele>1553</ele>
        <time>2020-07-16T13:33:12.568Z</time>
      </trkpt>
      <trkpt lat="46.47867" lon="8.24307">
        <ele>1553</ele>
        <time>2020-07-16T13:33:13.567Z</time>
      </trkpt>
      <trkpt lat="46.47867" lon="8.24306">
        <ele>1553</ele>
        <time>2020-07-16T13:33:14.567Z</time>
      </trkpt>
      <trkpt lat="46.47866" lon="8.24306">
        <ele>1553</ele>
        <time>2020-07-16T13:33:15.568Z</time>
      </trkpt>
      <trkpt lat="46.47865" lon="8.24305">
        <ele>1554</ele>
        <time>2020-07-16T13:33:16.567Z</time>
      </trkpt>
      <trkpt lat="46.47864" lon="8.24304">
        <ele>1554</ele>
        <time>2020-07-16T13:33:17.567Z</time>
      </trkpt>
      <trkpt lat="46.47864" lon="8.24302">
        <ele>1554</ele>
        <time>2020-07-16T13:33:18.567Z</time>
      </trkpt>
      <trkpt lat="46.47864" lon="8.24301">
        <ele>1554</ele>
        <time>2020-07-16T13:33:19.568Z</time>
      </trkpt>
      <trkpt lat="46.47864" lon="8.243">
        <ele>1554</ele>
        <time>2020-07-16T13:33:20.567Z</time>
      </trkpt>
      <trkpt lat="46.47863" lon="8.24299">
        <ele>1554</ele>
        <time>2020-07-16T13:33:21.568Z</time>
      </trkpt>
      <trkpt lat="46.47863" lon="8.24297">
        <ele>1554</ele>
        <time>2020-07-16T13:33:22.568Z</time>
      </trkpt>
      <trkpt lat="46.47862" lon="8.24296">
        <ele>1554</ele>
        <time>2020-07-16T13:33:23.568Z</time>
      </trkpt>
      <trkpt lat="46.47861" lon="8.24295">
        <ele>1554</ele>
        <time>2020-07-16T13:33:24.568Z</time>
      </trkpt>
      <trkpt lat="46.47861" lon="8.24294">
        <ele>1554</ele>
        <time>2020-07-16T13:33:25.568Z</time>
      </trkpt>
      <trkpt lat="46.4786" lon="8.24293">
        <ele>1554</ele>
        <time>2020-07-16T13:33:26.568Z</time>
      </trkpt>
      <trkpt lat="46.4786" lon="8.24291">
        <ele>1554</ele>
        <time>2020-07-16T13:33:27.568Z</time>
      </trkpt>
      <trkpt lat="46.47859" lon="8.24289">
        <ele>1554</ele>
        <time>2020-07-16T13:33:28.568Z</time>
      </trkpt>
      <trkpt lat="46.47859" lon="8.24287">
        <ele>1555</ele>
        <time>2020-07-16T13:33:29.568Z</time>
      </trkpt>
      <trkpt lat="46.47858" lon="8.24286">
        <ele>1555</ele>
        <time>2020-07-16T13:33:30.568Z</time>
      </trkpt>
      <trkpt lat="46.47858" lon="8.24285">
        <ele>1555</ele>
        <time>2020-07-16T13:33:31.568Z</time>
      </trkpt>
      <trkpt lat="46.47858" lon="8.24283">
        <ele>1555</ele>
        <time>2020-07-16T13:33:32.568Z</time>
      </trkpt>
      <trkpt lat="46.47857" lon="8.24282">
        <ele>1554</ele>
        <time>2020-07-16T13:33:33.567Z</time>
      </trkpt>
      <trkpt lat="46.47857" lon="8.2428">
        <ele>1554</ele>
        <time>2020-07-16T13:33:34.568Z</time>
      </trkpt>
      <trkpt lat="46.47856" lon="8.24279">
        <ele>1555</ele>
        <time>2020-07-16T13:33:35.568Z</time>
      </trkpt>
      <trkpt lat="46.47856" lon="8.24277">
        <ele>1554</ele>
        <time>2020-07-16T13:33:36.567Z</time>
      </trkpt>
      <trkpt lat="46.47856" lon="8.24276">
        <ele>1554</ele>
        <time>2020-07-16T13:33:37.568Z</time>
      </trkpt>
      <trkpt lat="46.47856" lon="8.24275">
        <ele>1553</ele>
        <time>2020-07-16T13:33:38.568Z</time>
      </trkpt>
      <trkpt lat="46.47855" lon="8.24274">
        <ele>1553</ele>
        <time>2020-07-16T13:33:39.567Z</time>
      </trkpt>
      <trkpt lat="46.47855" lon="8.24272">
        <ele>1553</ele>
        <time>2020-07-16T13:33:40.567Z</time>
      </trkpt>
      <trkpt lat="46.47855" lon="8.24271">
        <ele>1553</ele>
        <time>2020-07-16T13:33:41.567Z</time>
      </trkpt>
      <trkpt lat="46.47855" lon="8.2427">
        <ele>1552</ele>
        <time>2020-07-16T13:33:42.568Z</time>
      </trkpt>
      <trkpt lat="46.47855" lon="8.24268">
        <ele>1552</ele>
        <time>2020-07-16T13:33:43.568Z</time>
      </trkpt>
      <trkpt lat="46.47855" lon="8.24266">
        <ele>1552</ele>
        <time>2020-07-16T13:33:44.568Z</time>
      </trkpt>
      <trkpt lat="46.47855" lon="8.24265">
        <ele>1551</ele>
        <time>2020-07-16T13:33:45.568Z</time>
      </trkpt>
      <trkpt lat="46.47855" lon="8.24264">
        <ele>1551</ele>
        <time>2020-07-16T13:33:46.567Z</time>
      </trkpt>
      <trkpt lat="46.47856" lon="8.24262">
        <ele>1550</ele>
        <time>2020-07-16T13:33:47.567Z</time>
      </trkpt>
      <trkpt lat="46.47856" lon="8.2426">
        <ele>1550</ele>
        <time>2020-07-16T13:33:48.568Z</time>
      </trkpt>
      <trkpt lat="46.47856" lon="8.24259">
        <ele>1549</ele>
        <time>2020-07-16T13:33:49.567Z</time>
      </trkpt>
      <trkpt lat="46.47856" lon="8.24258">
        <ele>1549</ele>
        <time>2020-07-16T13:33:50.567Z</time>
      </trkpt>
      <trkpt lat="46.47856" lon="8.24257">
        <ele>1550</ele>
        <time>2020-07-16T13:33:51.567Z</time>
      </trkpt>
      <trkpt lat="46.47856" lon="8.24255">
        <ele>1550</ele>
        <time>2020-07-16T13:33:52.568Z</time>
      </trkpt>
      <trkpt lat="46.47856" lon="8.24253">
        <ele>1550</ele>
        <time>2020-07-16T13:33:53.568Z</time>
      </trkpt>
      <trkpt lat="46.47857" lon="8.24252">
        <ele>1549</ele>
        <time>2020-07-16T13:33:54.567Z</time>
      </trkpt>
      <trkpt lat="46.47857" lon="8.24251">
        <ele>1549</ele>
        <time>2020-07-16T13:33:55.567Z</time>
      </trkpt>
      <trkpt lat="46.47857" lon="8.24249">
        <ele>1549</ele>
        <time>2020-07-16T13:33:56.568Z</time>
      </trkpt>
      <trkpt lat="46.47857" lon="8.24247">
        <ele>1549</ele>
        <time>2020-07-16T13:33:57.568Z</time>
      </trkpt>
      <trkpt lat="46.47858" lon="8.24246">
        <ele>1549</ele>
        <time>2020-07-16T13:33:58.568Z</time>
      </trkpt>
      <trkpt lat="46.47858" lon="8.24244">
        <ele>1550</ele>
        <time>2020-07-16T13:33:59.567Z</time>
      </trkpt>
      <trkpt lat="46.47858" lon="8.24243">
        <ele>1550</ele>
        <time>2020-07-16T13:34:00.567Z</time>
      </trkpt>
      <trkpt lat="46.47858" lon="8.24241">
        <ele>1550</ele>
        <time>2020-07-16T13:34:01.568Z</time>
      </trkpt>
      <trkpt lat="46.47858" lon="8.24239">
        <ele>1549</ele>
        <time>2020-07-16T13:34:02.567Z</time>
      </trkpt>
      <trkpt lat="46.47858" lon="8.24238">
        <ele>1549</ele>
        <time>2020-07-16T13:34:03.567Z</time>
      </trkpt>
      <trkpt lat="46.47859" lon="8.24236">
        <ele>1549</ele>
        <time>2020-07-16T13:34:04.567Z</time>
      </trkpt>
      <trkpt lat="46.47858" lon="8.24235">
        <ele>1550</ele>
        <time>2020-07-16T13:34:05.567Z</time>
      </trkpt>
      <trkpt lat="46.47858" lon="8.24233">
        <ele>1550</ele>
        <time>2020-07-16T13:34:06.568Z</time>
      </trkpt>
      <trkpt lat="46.47858" lon="8.24231">
        <ele>1550</ele>
        <time>2020-07-16T13:34:07.568Z</time>
      </trkpt>
      <trkpt lat="46.47858" lon="8.24229">
        <ele>1550</ele>
        <time>2020-07-16T13:34:08.568Z</time>
      </trkpt>
      <trkpt lat="46.47858" lon="8.24228">
        <ele>1550</ele>
        <time>2020-07-16T13:34:09.568Z</time>
      </trkpt>
      <trkpt lat="46.47858" lon="8.24226">
        <ele>1549</ele>
        <time>2020-07-16T13:34:10.567Z</time>
      </trkpt>
      <trkpt lat="46.47858" lon="8.24225">
        <ele>1549</ele>
        <time>2020-07-16T13:34:11.567Z</time>
      </trkpt>
      <trkpt lat="46.47858" lon="8.24223">
        <ele>1548</ele>
        <time>2020-07-16T13:34:12.568Z</time>
      </trkpt>
      <trkpt lat="46.47858" lon="8.24221">
        <ele>1548</ele>
        <time>2020-07-16T13:34:13.568Z</time>
      </trkpt>
      <trkpt lat="46.47858" lon="8.2422">
        <ele>1548</ele>
        <time>2020-07-16T13:34:14.568Z</time>
      </trkpt>
      <trkpt lat="46.47858" lon="8.24218">
        <ele>1548</ele>
        <time>2020-07-16T13:34:15.567Z</time>
      </trkpt>
      <trkpt lat="46.47859" lon="8.24217">
        <ele>1548</ele>
        <time>2020-07-16T13:34:16.567Z</time>
      </trkpt>
      <trkpt lat="46.47859" lon="8.24215">
        <ele>1549</ele>
        <time>2020-07-16T13:34:17.567Z</time>
      </trkpt>
      <trkpt lat="46.47859" lon="8.24213">
        <ele>1549</ele>
        <time>2020-07-16T13:34:18.568Z</time>
      </trkpt>
      <trkpt lat="46.47858" lon="8.24212">
        <ele>1548</ele>
        <time>2020-07-16T13:34:19.568Z</time>
      </trkpt>
      <trkpt lat="46.47858" lon="8.2421">
        <ele>1548</ele>
        <time>2020-07-16T13:34:20.567Z</time>
      </trkpt>
      <trkpt lat="46.47858" lon="8.24208">
        <ele>1548</ele>
        <time>2020-07-16T13:34:21.567Z</time>
      </trkpt>
      <trkpt lat="46.47857" lon="8.24207">
        <ele>1548</ele>
        <time>2020-07-16T13:34:22.568Z</time>
      </trkpt>
      <trkpt lat="46.47858" lon="8.24205">
        <ele>1547</ele>
        <time>2020-07-16T13:34:23.567Z</time>
      </trkpt>
      <trkpt lat="46.47858" lon="8.24203">
        <ele>1547</ele>
        <time>2020-07-16T13:34:24.568Z</time>
      </trkpt>
      <trkpt lat="46.47858" lon="8.24202">
        <ele>1546</ele>
        <time>2020-07-16T13:34:25.567Z</time>
      </trkpt>
      <trkpt lat="46.47858" lon="8.242">
        <ele>1546</ele>
        <time>2020-07-16T13:34:26.567Z</time>
      </trkpt>
      <trkpt lat="46.47858" lon="8.24198">
        <ele>1545</ele>
        <time>2020-07-16T13:34:27.567Z</time>
      </trkpt>
      <trkpt lat="46.47859" lon="8.24197">
        <ele>1544</ele>
        <time>2020-07-16T13:34:28.567Z</time>
      </trkpt>
      <trkpt lat="46.4786" lon="8.24195">
        <ele>1544</ele>
        <time>2020-07-16T13:34:29.568Z</time>
      </trkpt>
      <trkpt lat="46.47859" lon="8.24193">
        <ele>1544</ele>
        <time>2020-07-16T13:34:30.567Z</time>
      </trkpt>
      <trkpt lat="46.47859" lon="8.24192">
        <ele>1544</ele>
        <time>2020-07-16T13:34:31.567Z</time>
      </trkpt>
      <trkpt lat="46.47859" lon="8.24192">
        <ele>1544</ele>
        <time>2020-07-16T13:34:32.567Z</time>
      </trkpt>
      <trkpt lat="46.47859" lon="8.24189">
        <ele>1544</ele>
        <time>2020-07-16T13:34:33.568Z</time>
      </trkpt>
      <trkpt lat="46.47858" lon="8.24187">
        <ele>1543</ele>
        <time>2020-07-16T13:34:34.568Z</time>
      </trkpt>
      <trkpt lat="46.47858" lon="8.24185">
        <ele>1543</ele>
        <time>2020-07-16T13:34:35.567Z</time>
      </trkpt>
      <trkpt lat="46.47857" lon="8.24184">
        <ele>1543</ele>
        <time>2020-07-16T13:34:36.567Z</time>
      </trkpt>
      <trkpt lat="46.47856" lon="8.24183">
        <ele>1544</ele>
        <time>2020-07-16T13:34:37.567Z</time>
      </trkpt>
      <trkpt lat="46.47856" lon="8.24181">
        <ele>1544</ele>
        <time>2020-07-16T13:34:38.567Z</time>
      </trkpt>
      <trkpt lat="46.47855" lon="8.24179">
        <ele>1545</ele>
        <time>2020-07-16T13:34:39.567Z</time>
      </trkpt>
      <trkpt lat="46.47854" lon="8.24178">
        <ele>1545</ele>
        <time>2020-07-16T13:34:40.567Z</time>
      </trkpt>
      <trkpt lat="46.47854" lon="8.24177">
        <ele>1545</ele>
        <time>2020-07-16T13:34:41.567Z</time>
      </trkpt>
      <trkpt lat="46.47853" lon="8.24176">
        <ele>1545</ele>
        <time>2020-07-16T13:34:42.568Z</time>
      </trkpt>
      <trkpt lat="46.47852" lon="8.24175">
        <ele>1546</ele>
        <time>2020-07-16T13:34:43.568Z</time>
      </trkpt>
      <trkpt lat="46.47851" lon="8.24173">
        <ele>1546</ele>
        <time>2020-07-16T13:34:44.567Z</time>
      </trkpt>
      <trkpt lat="46.4785" lon="8.24172">
        <ele>1546</ele>
        <time>2020-07-16T13:34:45.567Z</time>
      </trkpt>
      <trkpt lat="46.47849" lon="8.24171">
        <ele>1546</ele>
        <time>2020-07-16T13:34:46.567Z</time>
      </trkpt>
      <trkpt lat="46.47848" lon="8.2417">
        <ele>1546</ele>
        <time>2020-07-16T13:34:47.567Z</time>
      </trkpt>
      <trkpt lat="46.47847" lon="8.24169">
        <ele>1545</ele>
        <time>2020-07-16T13:34:48.567Z</time>
      </trkpt>
      <trkpt lat="46.47847" lon="8.24168">
        <ele>1545</ele>
        <time>2020-07-16T13:34:49.567Z</time>
      </trkpt>
      <trkpt lat="46.47846" lon="8.24168">
        <ele>1545</ele>
        <time>2020-07-16T13:34:50.567Z</time>
      </trkpt>
      <trkpt lat="46.47845" lon="8.24167">
        <ele>1545</ele>
        <time>2020-07-16T13:34:51.567Z</time>
      </trkpt>
      <trkpt lat="46.47845" lon="8.24166">
        <ele>1544</ele>
        <time>2020-07-16T13:34:52.568Z</time>
      </trkpt>
      <trkpt lat="46.47843" lon="8.24165">
        <ele>1544</ele>
        <time>2020-07-16T13:34:53.568Z</time>
      </trkpt>
      <trkpt lat="46.47842" lon="8.24164">
        <ele>1544</ele>
        <time>2020-07-16T13:34:54.567Z</time>
      </trkpt>
      <trkpt lat="46.47841" lon="8.24163">
        <ele>1544</ele>
        <time>2020-07-16T13:34:55.567Z</time>
      </trkpt>
      <trkpt lat="46.47841" lon="8.24162">
        <ele>1544</ele>
        <time>2020-07-16T13:34:56.567Z</time>
      </trkpt>
      <trkpt lat="46.4784" lon="8.24161">
        <ele>1544</ele>
        <time>2020-07-16T13:34:57.568Z</time>
      </trkpt>
      <trkpt lat="46.47839" lon="8.24161">
        <ele>1544</ele>
        <time>2020-07-16T13:34:58.568Z</time>
      </trkpt>
      <trkpt lat="46.47838" lon="8.2416">
        <ele>1545</ele>
        <time>2020-07-16T13:34:59.567Z</time>
      </trkpt>
      <trkpt lat="46.47838" lon="8.2416">
        <ele>1545</ele>
        <time>2020-07-16T13:35:00.567Z</time>
      </trkpt>
      <trkpt lat="46.47837" lon="8.24159">
        <ele>1545</ele>
        <time>2020-07-16T13:35:01.567Z</time>
      </trkpt>
      <trkpt lat="46.47836" lon="8.24159">
        <ele>1546</ele>
        <time>2020-07-16T13:35:02.567Z</time>
      </trkpt>
      <trkpt lat="46.47834" lon="8.24158">
        <ele>1547</ele>
        <time>2020-07-16T13:35:03.567Z</time>
      </trkpt>
      <trkpt lat="46.47833" lon="8.24158">
        <ele>1547</ele>
        <time>2020-07-16T13:35:04.567Z</time>
      </trkpt>
      <trkpt lat="46.47832" lon="8.24157">
        <ele>1547</ele>
        <time>2020-07-16T13:35:05.567Z</time>
      </trkpt>
      <trkpt lat="46.47831" lon="8.24157">
        <ele>1547</ele>
        <time>2020-07-16T13:35:06.567Z</time>
      </trkpt>
      <trkpt lat="46.4783" lon="8.24156">
        <ele>1547</ele>
        <time>2020-07-16T13:35:07.567Z</time>
      </trkpt>
      <trkpt lat="46.47829" lon="8.24155">
        <ele>1547</ele>
        <time>2020-07-16T13:35:08.567Z</time>
      </trkpt>
      <trkpt lat="46.47828" lon="8.24154">
        <ele>1548</ele>
        <time>2020-07-16T13:35:09.567Z</time>
      </trkpt>
      <trkpt lat="46.47826" lon="8.24154">
        <ele>1548</ele>
        <time>2020-07-16T13:35:10.567Z</time>
      </trkpt>
      <trkpt lat="46.47824" lon="8.24154">
        <ele>1548</ele>
        <time>2020-07-16T13:35:11.568Z</time>
      </trkpt>
      <trkpt lat="46.47823" lon="8.24154">
        <ele>1547</ele>
        <time>2020-07-16T13:35:12.568Z</time>
      </trkpt>
      <trkpt lat="46.47822" lon="8.24153">
        <ele>1547</ele>
        <time>2020-07-16T13:35:13.568Z</time>
      </trkpt>
      <trkpt lat="46.4782" lon="8.24153">
        <ele>1546</ele>
        <time>2020-07-16T13:35:14.568Z</time>
      </trkpt>
      <trkpt lat="46.47819" lon="8.24152">
        <ele>1546</ele>
        <time>2020-07-16T13:35:15.568Z</time>
      </trkpt>
      <trkpt lat="46.47817" lon="8.24152">
        <ele>1545</ele>
        <time>2020-07-16T13:35:16.568Z</time>
      </trkpt>
      <trkpt lat="46.47816" lon="8.24152">
        <ele>1545</ele>
        <time>2020-07-16T13:35:17.567Z</time>
      </trkpt>
      <trkpt lat="46.47815" lon="8.24152">
        <ele>1545</ele>
        <time>2020-07-16T13:35:18.567Z</time>
      </trkpt>
      <trkpt lat="46.47814" lon="8.24152">
        <ele>1545</ele>
        <time>2020-07-16T13:35:19.568Z</time>
      </trkpt>
      <trkpt lat="46.47813" lon="8.24152">
        <ele>1545</ele>
        <time>2020-07-16T13:35:20.568Z</time>
      </trkpt>
      <trkpt lat="46.47812" lon="8.24153">
        <ele>1545</ele>
        <time>2020-07-16T13:35:21.567Z</time>
      </trkpt>
      <trkpt lat="46.4781" lon="8.24153">
        <ele>1545</ele>
        <time>2020-07-16T13:35:22.567Z</time>
      </trkpt>
      <trkpt lat="46.4781" lon="8.24153">
        <ele>1545</ele>
        <time>2020-07-16T13:35:23.567Z</time>
      </trkpt>
      <trkpt lat="46.47808" lon="8.24154">
        <ele>1545</ele>
        <time>2020-07-16T13:35:24.568Z</time>
      </trkpt>
      <trkpt lat="46.47808" lon="8.24153">
        <ele>1545</ele>
        <time>2020-07-16T13:35:25.568Z</time>
      </trkpt>
      <trkpt lat="46.47806" lon="8.24153">
        <ele>1545</ele>
        <time>2020-07-16T13:35:26.568Z</time>
      </trkpt>
      <trkpt lat="46.47805" lon="8.24153">
        <ele>1545</ele>
        <time>2020-07-16T13:35:27.568Z</time>
      </trkpt>
      <trkpt lat="46.47804" lon="8.24153">
        <ele>1545</ele>
        <time>2020-07-16T13:35:28.567Z</time>
      </trkpt>
      <trkpt lat="46.47803" lon="8.24153">
        <ele>1544</ele>
        <time>2020-07-16T13:35:29.568Z</time>
      </trkpt>
      <trkpt lat="46.47802" lon="8.24152">
        <ele>1543</ele>
        <time>2020-07-16T13:35:30.568Z</time>
      </trkpt>
      <trkpt lat="46.47801" lon="8.24152">
        <ele>1542</ele>
        <time>2020-07-16T13:35:31.567Z</time>
      </trkpt>
      <trkpt lat="46.478" lon="8.24152">
        <ele>1542</ele>
        <time>2020-07-16T13:35:32.568Z</time>
      </trkpt>
      <trkpt lat="46.47799" lon="8.24151">
        <ele>1541</ele>
        <time>2020-07-16T13:35:33.568Z</time>
      </trkpt>
      <trkpt lat="46.47798" lon="8.2415">
        <ele>1540</ele>
        <time>2020-07-16T13:35:34.567Z</time>
      </trkpt>
      <trkpt lat="46.47798" lon="8.24149">
        <ele>1540</ele>
        <time>2020-07-16T13:35:35.568Z</time>
      </trkpt>
      <trkpt lat="46.47798" lon="8.24147">
        <ele>1539</ele>
        <time>2020-07-16T13:35:36.568Z</time>
      </trkpt>
      <trkpt lat="46.47797" lon="8.24146">
        <ele>1538</ele>
        <time>2020-07-16T13:35:37.568Z</time>
      </trkpt>
      <trkpt lat="46.47797" lon="8.24145">
        <ele>1537</ele>
        <time>2020-07-16T13:35:38.568Z</time>
      </trkpt>
      <trkpt lat="46.47797" lon="8.24143">
        <ele>1537</ele>
        <time>2020-07-16T13:35:39.568Z</time>
      </trkpt>
      <trkpt lat="46.47796" lon="8.24143">
        <ele>1537</ele>
        <time>2020-07-16T13:35:40.567Z</time>
      </trkpt>
      <trkpt lat="46.47796" lon="8.24142">
        <ele>1537</ele>
        <time>2020-07-16T13:35:41.568Z</time>
      </trkpt>
      <trkpt lat="46.47796" lon="8.2414">
        <ele>1537</ele>
        <time>2020-07-16T13:35:42.568Z</time>
      </trkpt>
      <trkpt lat="46.47796" lon="8.24139">
        <ele>1537</ele>
        <time>2020-07-16T13:35:43.568Z</time>
      </trkpt>
      <trkpt lat="46.47796" lon="8.24137">
        <ele>1537</ele>
        <time>2020-07-16T13:35:44.568Z</time>
      </trkpt>
      <trkpt lat="46.47797" lon="8.24136">
        <ele>1537</ele>
        <time>2020-07-16T13:35:45.567Z</time>
      </trkpt>
      <trkpt lat="46.47797" lon="8.24135">
        <ele>1538</ele>
        <time>2020-07-16T13:35:46.568Z</time>
      </trkpt>
      <trkpt lat="46.47797" lon="8.24134">
        <ele>1538</ele>
        <time>2020-07-16T13:35:47.567Z</time>
      </trkpt>
      <trkpt lat="46.47797" lon="8.24132">
        <ele>1539</ele>
        <time>2020-07-16T13:35:48.568Z</time>
      </trkpt>
      <trkpt lat="46.47797" lon="8.24131">
        <ele>1539</ele>
        <time>2020-07-16T13:35:49.568Z</time>
      </trkpt>
      <trkpt lat="46.47798" lon="8.24129">
        <ele>1539</ele>
        <time>2020-07-16T13:35:50.568Z</time>
      </trkpt>
      <trkpt lat="46.47798" lon="8.24128">
        <ele>1538</ele>
        <time>2020-07-16T13:35:51.567Z</time>
      </trkpt>
      <trkpt lat="46.47798" lon="8.24127">
        <ele>1538</ele>
        <time>2020-07-16T13:35:52.567Z</time>
      </trkpt>
      <trkpt lat="46.47799" lon="8.24125">
        <ele>1538</ele>
        <time>2020-07-16T13:35:53.568Z</time>
      </trkpt>
      <trkpt lat="46.47799" lon="8.24123">
        <ele>1538</ele>
        <time>2020-07-16T13:35:54.567Z</time>
      </trkpt>
      <trkpt lat="46.47799" lon="8.24122">
        <ele>1538</ele>
        <time>2020-07-16T13:35:55.568Z</time>
      </trkpt>
      <trkpt lat="46.47799" lon="8.24121">
        <ele>1538</ele>
        <time>2020-07-16T13:35:56.568Z</time>
      </trkpt>
      <trkpt lat="46.478" lon="8.24119">
        <ele>1539</ele>
        <time>2020-07-16T13:35:57.568Z</time>
      </trkpt>
      <trkpt lat="46.478" lon="8.24118">
        <ele>1539</ele>
        <time>2020-07-16T13:35:58.567Z</time>
      </trkpt>
      <trkpt lat="46.478" lon="8.24116">
        <ele>1538</ele>
        <time>2020-07-16T13:35:59.567Z</time>
      </trkpt>
      <trkpt lat="46.47801" lon="8.24114">
        <ele>1538</ele>
        <time>2020-07-16T13:36:00.568Z</time>
      </trkpt>
      <trkpt lat="46.47801" lon="8.24112">
        <ele>1538</ele>
        <time>2020-07-16T13:36:01.568Z</time>
      </trkpt>
      <trkpt lat="46.47802" lon="8.24111">
        <ele>1538</ele>
        <time>2020-07-16T13:36:02.568Z</time>
      </trkpt>
      <trkpt lat="46.47802" lon="8.24109">
        <ele>1538</ele>
        <time>2020-07-16T13:36:03.567Z</time>
      </trkpt>
      <trkpt lat="46.47802" lon="8.24108">
        <ele>1538</ele>
        <time>2020-07-16T13:36:04.568Z</time>
      </trkpt>
      <trkpt lat="46.47802" lon="8.24107">
        <ele>1538</ele>
        <time>2020-07-16T13:36:05.568Z</time>
      </trkpt>
      <trkpt lat="46.47803" lon="8.24105">
        <ele>1538</ele>
        <time>2020-07-16T13:36:06.567Z</time>
      </trkpt>
      <trkpt lat="46.47803" lon="8.24104">
        <ele>1538</ele>
        <time>2020-07-16T13:36:07.567Z</time>
      </trkpt>
      <trkpt lat="46.47803" lon="8.24103">
        <ele>1538</ele>
        <time>2020-07-16T13:36:08.567Z</time>
      </trkpt>
      <trkpt lat="46.47803" lon="8.24102">
        <ele>1538</ele>
        <time>2020-07-16T13:36:09.568Z</time>
      </trkpt>
      <trkpt lat="46.47803" lon="8.241">
        <ele>1539</ele>
        <time>2020-07-16T13:36:10.568Z</time>
      </trkpt>
      <trkpt lat="46.47803" lon="8.24099">
        <ele>1539</ele>
        <time>2020-07-16T13:36:11.568Z</time>
      </trkpt>
      <trkpt lat="46.47802" lon="8.24097">
        <ele>1539</ele>
        <time>2020-07-16T13:36:12.567Z</time>
      </trkpt>
      <trkpt lat="46.47802" lon="8.24095">
        <ele>1538</ele>
        <time>2020-07-16T13:36:13.567Z</time>
      </trkpt>
      <trkpt lat="46.47802" lon="8.24093">
        <ele>1538</ele>
        <time>2020-07-16T13:36:14.567Z</time>
      </trkpt>
      <trkpt lat="46.47802" lon="8.24091">
        <ele>1537</ele>
        <time>2020-07-16T13:36:15.567Z</time>
      </trkpt>
      <trkpt lat="46.47801" lon="8.2409">
        <ele>1537</ele>
        <time>2020-07-16T13:36:16.567Z</time>
      </trkpt>
      <trkpt lat="46.47801" lon="8.24089">
        <ele>1537</ele>
        <time>2020-07-16T13:36:17.568Z</time>
      </trkpt>
      <trkpt lat="46.47801" lon="8.24086">
        <ele>1537</ele>
        <time>2020-07-16T13:36:18.568Z</time>
      </trkpt>
      <trkpt lat="46.478" lon="8.24085">
        <ele>1537</ele>
        <time>2020-07-16T13:36:19.567Z</time>
      </trkpt>
      <trkpt lat="46.478" lon="8.24083">
        <ele>1536</ele>
        <time>2020-07-16T13:36:20.567Z</time>
      </trkpt>
      <trkpt lat="46.47799" lon="8.24081">
        <ele>1536</ele>
        <time>2020-07-16T13:36:21.568Z</time>
      </trkpt>
      <trkpt lat="46.47799" lon="8.2408">
        <ele>1535</ele>
        <time>2020-07-16T13:36:22.568Z</time>
      </trkpt>
      <trkpt lat="46.47798" lon="8.24078">
        <ele>1535</ele>
        <time>2020-07-16T13:36:23.568Z</time>
      </trkpt>
      <trkpt lat="46.47798" lon="8.24076">
        <ele>1534</ele>
        <time>2020-07-16T13:36:24.568Z</time>
      </trkpt>
      <trkpt lat="46.47798" lon="8.24075">
        <ele>1534</ele>
        <time>2020-07-16T13:36:25.568Z</time>
      </trkpt>
      <trkpt lat="46.47798" lon="8.24073">
        <ele>1533</ele>
        <time>2020-07-16T13:36:26.567Z</time>
      </trkpt>
      <trkpt lat="46.47797" lon="8.24072">
        <ele>1533</ele>
        <time>2020-07-16T13:36:27.568Z</time>
      </trkpt>
      <trkpt lat="46.47797" lon="8.24071">
        <ele>1532</ele>
        <time>2020-07-16T13:36:28.568Z</time>
      </trkpt>
      <trkpt lat="46.47797" lon="8.2407">
        <ele>1532</ele>
        <time>2020-07-16T13:36:29.567Z</time>
      </trkpt>
      <trkpt lat="46.47796" lon="8.24068">
        <ele>1532</ele>
        <time>2020-07-16T13:36:30.568Z</time>
      </trkpt>
      <trkpt lat="46.47796" lon="8.24067">
        <ele>1532</ele>
        <time>2020-07-16T13:36:31.568Z</time>
      </trkpt>
      <trkpt lat="46.47795" lon="8.24067">
        <ele>1531</ele>
        <time>2020-07-16T13:36:32.568Z</time>
      </trkpt>
      <trkpt lat="46.47795" lon="8.24066">
        <ele>1531</ele>
        <time>2020-07-16T13:36:33.567Z</time>
      </trkpt>
      <trkpt lat="46.47795" lon="8.24065">
        <ele>1531</ele>
        <time>2020-07-16T13:36:34.568Z</time>
      </trkpt>
      <trkpt lat="46.47795" lon="8.24064">
        <ele>1531</ele>
        <time>2020-07-16T13:36:35.568Z</time>
      </trkpt>
      <trkpt lat="46.47796" lon="8.24063">
        <ele>1531</ele>
        <time>2020-07-16T13:36:36.567Z</time>
      </trkpt>
      <trkpt lat="46.47796" lon="8.24061">
        <ele>1531</ele>
        <time>2020-07-16T13:36:37.567Z</time>
      </trkpt>
      <trkpt lat="46.47796" lon="8.2406">
        <ele>1530</ele>
        <time>2020-07-16T13:36:38.568Z</time>
      </trkpt>
      <trkpt lat="46.47797" lon="8.24058">
        <ele>1530</ele>
        <time>2020-07-16T13:36:39.567Z</time>
      </trkpt>
      <trkpt lat="46.47797" lon="8.24057">
        <ele>1530</ele>
        <time>2020-07-16T13:36:40.567Z</time>
      </trkpt>
      <trkpt lat="46.47797" lon="8.24055">
        <ele>1530</ele>
        <time>2020-07-16T13:36:41.568Z</time>
      </trkpt>
      <trkpt lat="46.47797" lon="8.24054">
        <ele>1530</ele>
        <time>2020-07-16T13:36:42.568Z</time>
      </trkpt>
      <trkpt lat="46.47797" lon="8.24052">
        <ele>1530</ele>
        <time>2020-07-16T13:36:43.568Z</time>
      </trkpt>
      <trkpt lat="46.47797" lon="8.2405">
        <ele>1530</ele>
        <time>2020-07-16T13:36:44.567Z</time>
      </trkpt>
      <trkpt lat="46.47797" lon="8.24049">
        <ele>1530</ele>
        <time>2020-07-16T13:36:45.568Z</time>
      </trkpt>
      <trkpt lat="46.47798" lon="8.24047">
        <ele>1531</ele>
        <time>2020-07-16T13:36:46.567Z</time>
      </trkpt>
      <trkpt lat="46.47799" lon="8.24046">
        <ele>1531</ele>
        <time>2020-07-16T13:36:47.568Z</time>
      </trkpt>
      <trkpt lat="46.47799" lon="8.24044">
        <ele>1532</ele>
        <time>2020-07-16T13:36:48.567Z</time>
      </trkpt>
      <trkpt lat="46.47801" lon="8.24043">
        <ele>1532</ele>
        <time>2020-07-16T13:36:49.568Z</time>
      </trkpt>
      <trkpt lat="46.47801" lon="8.24041">
        <ele>1532</ele>
        <time>2020-07-16T13:36:50.567Z</time>
      </trkpt>
      <trkpt lat="46.47802" lon="8.2404">
        <ele>1532</ele>
        <time>2020-07-16T13:36:51.568Z</time>
      </trkpt>
      <trkpt lat="46.47802" lon="8.24038">
        <ele>1532</ele>
        <time>2020-07-16T13:36:52.568Z</time>
      </trkpt>
      <trkpt lat="46.47803" lon="8.24037">
        <ele>1532</ele>
        <time>2020-07-16T13:36:53.567Z</time>
      </trkpt>
      <trkpt lat="46.47804" lon="8.24036">
        <ele>1532</ele>
        <time>2020-07-16T13:36:54.568Z</time>
      </trkpt>
      <trkpt lat="46.47803" lon="8.24034">
        <ele>1531</ele>
        <time>2020-07-16T13:36:55.568Z</time>
      </trkpt>
      <trkpt lat="46.47804" lon="8.24033">
        <ele>1531</ele>
        <time>2020-07-16T13:36:56.568Z</time>
      </trkpt>
      <trkpt lat="46.47805" lon="8.24031">
        <ele>1531</ele>
        <time>2020-07-16T13:36:57.567Z</time>
      </trkpt>
      <trkpt lat="46.47805" lon="8.24029">
        <ele>1531</ele>
        <time>2020-07-16T13:36:58.568Z</time>
      </trkpt>
      <trkpt lat="46.47805" lon="8.24027">
        <ele>1531</ele>
        <time>2020-07-16T13:36:59.568Z</time>
      </trkpt>
      <trkpt lat="46.47805" lon="8.24025">
        <ele>1532</ele>
        <time>2020-07-16T13:37:00.567Z</time>
      </trkpt>
      <trkpt lat="46.47805" lon="8.24023">
        <ele>1531</ele>
        <time>2020-07-16T13:37:01.568Z</time>
      </trkpt>
      <trkpt lat="46.47805" lon="8.24021">
        <ele>1531</ele>
        <time>2020-07-16T13:37:02.567Z</time>
      </trkpt>
      <trkpt lat="46.47805" lon="8.2402">
        <ele>1530</ele>
        <time>2020-07-16T13:37:03.567Z</time>
      </trkpt>
      <trkpt lat="46.47805" lon="8.24018">
        <ele>1529</ele>
        <time>2020-07-16T13:37:04.568Z</time>
      </trkpt>
      <trkpt lat="46.47805" lon="8.24018">
        <ele>1528</ele>
        <time>2020-07-16T13:37:05.568Z</time>
      </trkpt>
      <trkpt lat="46.47805" lon="8.24016">
        <ele>1527</ele>
        <time>2020-07-16T13:37:06.567Z</time>
      </trkpt>
      <trkpt lat="46.47805" lon="8.24015">
        <ele>1526</ele>
        <time>2020-07-16T13:37:07.567Z</time>
      </trkpt>
      <trkpt lat="46.47804" lon="8.24013">
        <ele>1526</ele>
        <time>2020-07-16T13:37:08.568Z</time>
      </trkpt>
      <trkpt lat="46.47804" lon="8.24012">
        <ele>1525</ele>
        <time>2020-07-16T13:37:09.568Z</time>
      </trkpt>
      <trkpt lat="46.47804" lon="8.24011">
        <ele>1525</ele>
        <time>2020-07-16T13:37:10.568Z</time>
      </trkpt>
      <trkpt lat="46.47803" lon="8.24009">
        <ele>1525</ele>
        <time>2020-07-16T13:37:11.567Z</time>
      </trkpt>
      <trkpt lat="46.47803" lon="8.24008">
        <ele>1525</ele>
        <time>2020-07-16T13:37:12.568Z</time>
      </trkpt>
      <trkpt lat="46.47802" lon="8.24007">
        <ele>1525</ele>
        <time>2020-07-16T13:37:13.568Z</time>
      </trkpt>
      <trkpt lat="46.47802" lon="8.24005">
        <ele>1525</ele>
        <time>2020-07-16T13:37:14.568Z</time>
      </trkpt>
      <trkpt lat="46.47802" lon="8.24004">
        <ele>1525</ele>
        <time>2020-07-16T13:37:15.567Z</time>
      </trkpt>
      <trkpt lat="46.47801" lon="8.24003">
        <ele>1525</ele>
        <time>2020-07-16T13:37:16.568Z</time>
      </trkpt>
      <trkpt lat="46.47801" lon="8.24002">
        <ele>1525</ele>
        <time>2020-07-16T13:37:17.567Z</time>
      </trkpt>
      <trkpt lat="46.47801" lon="8.24">
        <ele>1525</ele>
        <time>2020-07-16T13:37:18.567Z</time>
      </trkpt>
      <trkpt lat="46.47801" lon="8.23999">
        <ele>1524</ele>
        <time>2020-07-16T13:37:19.568Z</time>
      </trkpt>
      <trkpt lat="46.478" lon="8.23997">
        <ele>1523</ele>
        <time>2020-07-16T13:37:20.567Z</time>
      </trkpt>
      <trkpt lat="46.47799" lon="8.23996">
        <ele>1523</ele>
        <time>2020-07-16T13:37:21.568Z</time>
      </trkpt>
      <trkpt lat="46.47799" lon="8.23994">
        <ele>1523</ele>
        <time>2020-07-16T13:37:22.568Z</time>
      </trkpt>
      <trkpt lat="46.47798" lon="8.23993">
        <ele>1523</ele>
        <time>2020-07-16T13:37:23.568Z</time>
      </trkpt>
      <trkpt lat="46.47797" lon="8.23992">
        <ele>1523</ele>
        <time>2020-07-16T13:37:24.568Z</time>
      </trkpt>
      <trkpt lat="46.47797" lon="8.23992">
        <ele>1523</ele>
        <time>2020-07-16T13:37:25.568Z</time>
      </trkpt>
      <trkpt lat="46.47796" lon="8.23992">
        <ele>1523</ele>
        <time>2020-07-16T13:37:26.567Z</time>
      </trkpt>
      <trkpt lat="46.47795" lon="8.23993">
        <ele>1524</ele>
        <time>2020-07-16T13:37:27.568Z</time>
      </trkpt>
      <trkpt lat="46.47795" lon="8.23994">
        <ele>1524</ele>
        <time>2020-07-16T13:37:28.567Z</time>
      </trkpt>
      <trkpt lat="46.47794" lon="8.23994">
        <ele>1525</ele>
        <time>2020-07-16T13:37:29.568Z</time>
      </trkpt>
      <trkpt lat="46.47794" lon="8.23995">
        <ele>1526</ele>
        <time>2020-07-16T13:37:30.568Z</time>
      </trkpt>
      <trkpt lat="46.47794" lon="8.23996">
        <ele>1526</ele>
        <time>2020-07-16T13:37:31.568Z</time>
      </trkpt>
      <trkpt lat="46.47795" lon="8.23997">
        <ele>1527</ele>
        <time>2020-07-16T13:37:32.567Z</time>
      </trkpt>
      <trkpt lat="46.47795" lon="8.23997">
        <ele>1528</ele>
        <time>2020-07-16T13:37:33.568Z</time>
      </trkpt>
      <trkpt lat="46.47795" lon="8.23997">
        <ele>1528</ele>
        <time>2020-07-16T13:37:34.568Z</time>
      </trkpt>
      <trkpt lat="46.47795" lon="8.23997">
        <ele>1529</ele>
        <time>2020-07-16T13:37:35.568Z</time>
      </trkpt>
      <trkpt lat="46.47794" lon="8.23998">
        <ele>1532</ele>
        <time>2020-07-16T13:37:36.569Z</time>
      </trkpt>
      <trkpt lat="46.47794" lon="8.23998">
        <ele>1532</ele>
        <time>2020-07-16T13:37:37.569Z</time>
      </trkpt>
      <trkpt lat="46.47793" lon="8.23998">
        <ele>1533</ele>
        <time>2020-07-16T13:37:38.568Z</time>
      </trkpt>
      <trkpt lat="46.47793" lon="8.23998">
        <ele>1534</ele>
        <time>2020-07-16T13:37:39.569Z</time>
      </trkpt>
      <trkpt lat="46.47793" lon="8.23998">
        <ele>1534</ele>
        <time>2020-07-16T13:37:40.568Z</time>
      </trkpt>
      <trkpt lat="46.47792" lon="8.23995">
        <ele>1531</ele>
        <time>2020-07-16T13:37:41.569Z</time>
      </trkpt>
      <trkpt lat="46.47791" lon="8.23995">
        <ele>1530</ele>
        <time>2020-07-16T13:37:42.568Z</time>
      </trkpt>
      <trkpt lat="46.4779" lon="8.23995">
        <ele>1530</ele>
        <time>2020-07-16T13:37:43.569Z</time>
      </trkpt>
      <trkpt lat="46.4779" lon="8.23995">
        <ele>1529</ele>
        <time>2020-07-16T13:37:44.568Z</time>
      </trkpt>
      <trkpt lat="46.4779" lon="8.23996">
        <ele>1528</ele>
        <time>2020-07-16T13:37:45.568Z</time>
      </trkpt>
      <trkpt lat="46.47789" lon="8.23996">
        <ele>1528</ele>
        <time>2020-07-16T13:37:46.569Z</time>
      </trkpt>
      <trkpt lat="46.47789" lon="8.23997">
        <ele>1528</ele>
        <time>2020-07-16T13:37:47.569Z</time>
      </trkpt>
      <trkpt lat="46.47789" lon="8.23997">
        <ele>1528</ele>
        <time>2020-07-16T13:37:48.569Z</time>
      </trkpt>
      <trkpt lat="46.47789" lon="8.23998">
        <ele>1525</ele>
        <time>2020-07-16T13:37:49.569Z</time>
      </trkpt>
      <trkpt lat="46.4779" lon="8.23997">
        <ele>1525</ele>
        <time>2020-07-16T13:37:50.569Z</time>
      </trkpt>
      <trkpt lat="46.4779" lon="8.23997">
        <ele>1525</ele>
        <time>2020-07-16T13:37:51.569Z</time>
      </trkpt>
      <trkpt lat="46.47789" lon="8.23996">
        <ele>1525</ele>
        <time>2020-07-16T13:37:52.570Z</time>
      </trkpt>
      <trkpt lat="46.47789" lon="8.23995">
        <ele>1525</ele>
        <time>2020-07-16T13:37:53.569Z</time>
      </trkpt>
      <trkpt lat="46.47789" lon="8.23994">
        <ele>1525</ele>
        <time>2020-07-16T13:37:54.569Z</time>
      </trkpt>
      <trkpt lat="46.47789" lon="8.23992">
        <ele>1525</ele>
        <time>2020-07-16T13:37:55.569Z</time>
      </trkpt>
      <trkpt lat="46.47788" lon="8.23991">
        <ele>1525</ele>
        <time>2020-07-16T13:37:56.569Z</time>
      </trkpt>
      <trkpt lat="46.47787" lon="8.23989">
        <ele>1525</ele>
        <time>2020-07-16T13:37:57.570Z</time>
      </trkpt>
      <trkpt lat="46.47786" lon="8.23988">
        <ele>1524</ele>
        <time>2020-07-16T13:37:58.569Z</time>
      </trkpt>
      <trkpt lat="46.47786" lon="8.23988">
        <ele>1524</ele>
        <time>2020-07-16T13:37:59.569Z</time>
      </trkpt>
      <trkpt lat="46.47785" lon="8.23988">
        <ele>1524</ele>
        <time>2020-07-16T13:38:00.570Z</time>
      </trkpt>
      <trkpt lat="46.47785" lon="8.23987">
        <ele>1524</ele>
        <time>2020-07-16T13:38:01.570Z</time>
      </trkpt>
      <trkpt lat="46.47785" lon="8.23987">
        <ele>1524</ele>
        <time>2020-07-16T13:38:02.570Z</time>
      </trkpt>
      <trkpt lat="46.47785" lon="8.23987">
        <ele>1524</ele>
        <time>2020-07-16T13:38:03.569Z</time>
      </trkpt>
      <trkpt lat="46.47787" lon="8.23987">
        <ele>1528</ele>
        <time>2020-07-16T13:38:04.571Z</time>
      </trkpt>
      <trkpt lat="46.47787" lon="8.23987">
        <ele>1528</ele>
        <time>2020-07-16T13:38:05.572Z</time>
      </trkpt>
      <trkpt lat="46.47787" lon="8.23987">
        <ele>1535</ele>
        <time>2020-07-16T13:38:06.572Z</time>
      </trkpt>
      <trkpt lat="46.47787" lon="8.23987">
        <ele>1535</ele>
        <time>2020-07-16T13:38:07.571Z</time>
      </trkpt>
      <trkpt lat="46.47787" lon="8.23987">
        <ele>1535</ele>
        <time>2020-07-16T13:38:08.571Z</time>
      </trkpt>
      <trkpt lat="46.47786" lon="8.23987">
        <ele>1535</ele>
        <time>2020-07-16T13:38:09.571Z</time>
      </trkpt>
      <trkpt lat="46.47786" lon="8.23986">
        <ele>1534</ele>
        <time>2020-07-16T13:38:10.571Z</time>
      </trkpt>
      <trkpt lat="46.47786" lon="8.23986">
        <ele>1533</ele>
        <time>2020-07-16T13:38:11.572Z</time>
      </trkpt>
      <trkpt lat="46.47787" lon="8.23986">
        <ele>1527</ele>
        <time>2020-07-16T13:38:12.573Z</time>
      </trkpt>
      <trkpt lat="46.47787" lon="8.23987">
        <ele>1526</ele>
        <time>2020-07-16T13:38:13.574Z</time>
      </trkpt>
      <trkpt lat="46.47787" lon="8.23987">
        <ele>1526</ele>
        <time>2020-07-16T13:38:14.573Z</time>
      </trkpt>
      <trkpt lat="46.47786" lon="8.23987">
        <ele>1526</ele>
        <time>2020-07-16T13:38:15.573Z</time>
      </trkpt>
      <trkpt lat="46.47786" lon="8.23987">
        <ele>1527</ele>
        <time>2020-07-16T13:38:16.574Z</time>
      </trkpt>
      <trkpt lat="46.47786" lon="8.23986">
        <ele>1527</ele>
        <time>2020-07-16T13:38:17.574Z</time>
      </trkpt>
      <trkpt lat="46.47786" lon="8.23985">
        <ele>1527</ele>
        <time>2020-07-16T13:38:18.574Z</time>
      </trkpt>
      <trkpt lat="46.47787" lon="8.23987">
        <ele>1535</ele>
        <time>2020-07-16T13:38:19.574Z</time>
      </trkpt>
      <trkpt lat="46.47788" lon="8.23986">
        <ele>1535</ele>
        <time>2020-07-16T13:38:20.574Z</time>
      </trkpt>
      <trkpt lat="46.47788" lon="8.23987">
        <ele>1536</ele>
        <time>2020-07-16T13:38:21.573Z</time>
      </trkpt>
      <trkpt lat="46.4779" lon="8.23987">
        <ele>1538</ele>
        <time>2020-07-16T13:38:22.574Z</time>
      </trkpt>
      <trkpt lat="46.4779" lon="8.23986">
        <ele>1536</ele>
        <time>2020-07-16T13:38:23.576Z</time>
      </trkpt>
      <trkpt lat="46.47789" lon="8.23985">
        <ele>1535</ele>
        <time>2020-07-16T13:38:24.575Z</time>
      </trkpt>
      <trkpt lat="46.47787" lon="8.23984">
        <ele>1530</ele>
        <time>2020-07-16T13:38:25.575Z</time>
      </trkpt>
      <trkpt lat="46.47787" lon="8.23983">
        <ele>1530</ele>
        <time>2020-07-16T13:38:26.575Z</time>
      </trkpt>
      <trkpt lat="46.47787" lon="8.23983">
        <ele>1529</ele>
        <time>2020-07-16T13:38:27.575Z</time>
      </trkpt>
      <trkpt lat="46.47789" lon="8.23979">
        <ele>1528</ele>
        <time>2020-07-16T13:38:28.576Z</time>
      </trkpt>
      <trkpt lat="46.47789" lon="8.23979">
        <ele>1527</ele>
        <time>2020-07-16T13:38:29.575Z</time>
      </trkpt>
      <trkpt lat="46.47787" lon="8.2398">
        <ele>1533</ele>
        <time>2020-07-16T13:38:30.576Z</time>
      </trkpt>
      <trkpt lat="46.47786" lon="8.23979">
        <ele>1533</ele>
        <time>2020-07-16T13:38:31.575Z</time>
      </trkpt>
      <trkpt lat="46.47786" lon="8.23979">
        <ele>1533</ele>
        <time>2020-07-16T13:38:32.575Z</time>
      </trkpt>
      <trkpt lat="46.47785" lon="8.23979">
        <ele>1533</ele>
        <time>2020-07-16T13:38:33.575Z</time>
      </trkpt>
      <trkpt lat="46.47781" lon="8.2398">
        <ele>1532</ele>
        <time>2020-07-16T13:38:34.576Z</time>
      </trkpt>
      <trkpt lat="46.47781" lon="8.2398">
        <ele>1531</ele>
        <time>2020-07-16T13:38:35.576Z</time>
      </trkpt>
      <trkpt lat="46.47781" lon="8.23979">
        <ele>1531</ele>
        <time>2020-07-16T13:38:36.575Z</time>
      </trkpt>
      <trkpt lat="46.47778" lon="8.23981">
        <ele>1535</ele>
        <time>2020-07-16T13:38:37.576Z</time>
      </trkpt>
      <trkpt lat="46.47778" lon="8.23982">
        <ele>1536</ele>
        <time>2020-07-16T13:38:38.577Z</time>
      </trkpt>
      <trkpt lat="46.47778" lon="8.23982">
        <ele>1536</ele>
        <time>2020-07-16T13:38:39.576Z</time>
      </trkpt>
      <trkpt lat="46.47778" lon="8.23982">
        <ele>1538</ele>
        <time>2020-07-16T13:38:40.577Z</time>
      </trkpt>
      <trkpt lat="46.47776" lon="8.23981">
        <ele>1538</ele>
        <time>2020-07-16T13:38:41.576Z</time>
      </trkpt>
      <trkpt lat="46.47775" lon="8.23981">
        <ele>1538</ele>
        <time>2020-07-16T13:38:42.576Z</time>
      </trkpt>
      <trkpt lat="46.47774" lon="8.2398">
        <ele>1538</ele>
        <time>2020-07-16T13:38:43.577Z</time>
      </trkpt>
      <trkpt lat="46.47773" lon="8.2398">
        <ele>1537</ele>
        <time>2020-07-16T13:38:44.576Z</time>
      </trkpt>
      <trkpt lat="46.47772" lon="8.23979">
        <ele>1537</ele>
        <time>2020-07-16T13:38:45.577Z</time>
      </trkpt>
      <trkpt lat="46.47771" lon="8.23978">
        <ele>1536</ele>
        <time>2020-07-16T13:38:46.577Z</time>
      </trkpt>
      <trkpt lat="46.47771" lon="8.23978">
        <ele>1536</ele>
        <time>2020-07-16T13:38:47.576Z</time>
      </trkpt>
      <trkpt lat="46.47769" lon="8.23977">
        <ele>1535</ele>
        <time>2020-07-16T13:38:48.577Z</time>
      </trkpt>
      <trkpt lat="46.47768" lon="8.23976">
        <ele>1535</ele>
        <time>2020-07-16T13:38:49.576Z</time>
      </trkpt>
      <trkpt lat="46.47767" lon="8.23975">
        <ele>1535</ele>
        <time>2020-07-16T13:38:50.577Z</time>
      </trkpt>
      <trkpt lat="46.47766" lon="8.23974">
        <ele>1535</ele>
        <time>2020-07-16T13:38:51.576Z</time>
      </trkpt>
      <trkpt lat="46.47765" lon="8.23973">
        <ele>1534</ele>
        <time>2020-07-16T13:38:52.576Z</time>
      </trkpt>
      <trkpt lat="46.47764" lon="8.23972">
        <ele>1534</ele>
        <time>2020-07-16T13:38:53.576Z</time>
      </trkpt>
      <trkpt lat="46.47763" lon="8.23971">
        <ele>1534</ele>
        <time>2020-07-16T13:38:54.576Z</time>
      </trkpt>
      <trkpt lat="46.47762" lon="8.23971">
        <ele>1533</ele>
        <time>2020-07-16T13:38:55.576Z</time>
      </trkpt>
      <trkpt lat="46.47761" lon="8.23971">
        <ele>1533</ele>
        <time>2020-07-16T13:38:56.576Z</time>
      </trkpt>
      <trkpt lat="46.4776" lon="8.23971">
        <ele>1533</ele>
        <time>2020-07-16T13:38:57.576Z</time>
      </trkpt>
      <trkpt lat="46.4776" lon="8.23971">
        <ele>1533</ele>
        <time>2020-07-16T13:38:58.576Z</time>
      </trkpt>
      <trkpt lat="46.47758" lon="8.2397">
        <ele>1533</ele>
        <time>2020-07-16T13:38:59.576Z</time>
      </trkpt>
      <trkpt lat="46.47757" lon="8.23969">
        <ele>1533</ele>
        <time>2020-07-16T13:39:00.576Z</time>
      </trkpt>
      <trkpt lat="46.47756" lon="8.23969">
        <ele>1533</ele>
        <time>2020-07-16T13:39:01.576Z</time>
      </trkpt>
      <trkpt lat="46.47755" lon="8.23968">
        <ele>1533</ele>
        <time>2020-07-16T13:39:02.576Z</time>
      </trkpt>
      <trkpt lat="46.47754" lon="8.23968">
        <ele>1533</ele>
        <time>2020-07-16T13:39:03.576Z</time>
      </trkpt>
      <trkpt lat="46.47753" lon="8.23968">
        <ele>1532</ele>
        <time>2020-07-16T13:39:04.576Z</time>
      </trkpt>
      <trkpt lat="46.47752" lon="8.23967">
        <ele>1532</ele>
        <time>2020-07-16T13:39:05.576Z</time>
      </trkpt>
      <trkpt lat="46.47751" lon="8.23967">
        <ele>1532</ele>
        <time>2020-07-16T13:39:06.576Z</time>
      </trkpt>
      <trkpt lat="46.4775" lon="8.23966">
        <ele>1532</ele>
        <time>2020-07-16T13:39:07.577Z</time>
      </trkpt>
      <trkpt lat="46.47749" lon="8.23966">
        <ele>1532</ele>
        <time>2020-07-16T13:39:08.576Z</time>
      </trkpt>
      <trkpt lat="46.47748" lon="8.23966">
        <ele>1532</ele>
        <time>2020-07-16T13:39:09.576Z</time>
      </trkpt>
      <trkpt lat="46.47747" lon="8.23966">
        <ele>1532</ele>
        <time>2020-07-16T13:39:10.576Z</time>
      </trkpt>
      <trkpt lat="46.47746" lon="8.23965">
        <ele>1531</ele>
        <time>2020-07-16T13:39:11.576Z</time>
      </trkpt>
      <trkpt lat="46.47745" lon="8.23965">
        <ele>1531</ele>
        <time>2020-07-16T13:39:12.577Z</time>
      </trkpt>
      <trkpt lat="46.47744" lon="8.23964">
        <ele>1531</ele>
        <time>2020-07-16T13:39:13.576Z</time>
      </trkpt>
      <trkpt lat="46.47743" lon="8.23964">
        <ele>1531</ele>
        <time>2020-07-16T13:39:14.577Z</time>
      </trkpt>
      <trkpt lat="46.47742" lon="8.23963">
        <ele>1532</ele>
        <time>2020-07-16T13:39:15.577Z</time>
      </trkpt>
      <trkpt lat="46.47741" lon="8.23963">
        <ele>1532</ele>
        <time>2020-07-16T13:39:16.576Z</time>
      </trkpt>
      <trkpt lat="46.4774" lon="8.23963">
        <ele>1532</ele>
        <time>2020-07-16T13:39:17.577Z</time>
      </trkpt>
      <trkpt lat="46.47739" lon="8.23962">
        <ele>1532</ele>
        <time>2020-07-16T13:39:18.577Z</time>
      </trkpt>
      <trkpt lat="46.47738" lon="8.23962">
        <ele>1532</ele>
        <time>2020-07-16T13:39:19.577Z</time>
      </trkpt>
      <trkpt lat="46.47738" lon="8.23962">
        <ele>1532</ele>
        <time>2020-07-16T13:39:20.577Z</time>
      </trkpt>
      <trkpt lat="46.47737" lon="8.23962">
        <ele>1532</ele>
        <time>2020-07-16T13:39:21.576Z</time>
      </trkpt>
      <trkpt lat="46.47736" lon="8.23962">
        <ele>1532</ele>
        <time>2020-07-16T13:39:22.577Z</time>
      </trkpt>
      <trkpt lat="46.47735" lon="8.23962">
        <ele>1532</ele>
        <time>2020-07-16T13:39:23.576Z</time>
      </trkpt>
      <trkpt lat="46.47734" lon="8.23962">
        <ele>1532</ele>
        <time>2020-07-16T13:39:24.577Z</time>
      </trkpt>
      <trkpt lat="46.47733" lon="8.23963">
        <ele>1532</ele>
        <time>2020-07-16T13:39:25.576Z</time>
      </trkpt>
      <trkpt lat="46.47731" lon="8.23963">
        <ele>1532</ele>
        <time>2020-07-16T13:39:26.576Z</time>
      </trkpt>
      <trkpt lat="46.4773" lon="8.23964">
        <ele>1532</ele>
        <time>2020-07-16T13:39:27.577Z</time>
      </trkpt>
      <trkpt lat="46.4773" lon="8.23965">
        <ele>1532</ele>
        <time>2020-07-16T13:39:28.576Z</time>
      </trkpt>
      <trkpt lat="46.47729" lon="8.23965">
        <ele>1532</ele>
        <time>2020-07-16T13:39:29.577Z</time>
      </trkpt>
      <trkpt lat="46.47728" lon="8.23965">
        <ele>1532</ele>
        <time>2020-07-16T13:39:30.577Z</time>
      </trkpt>
      <trkpt lat="46.47727" lon="8.23965">
        <ele>1533</ele>
        <time>2020-07-16T13:39:31.577Z</time>
      </trkpt>
      <trkpt lat="46.47726" lon="8.23965">
        <ele>1533</ele>
        <time>2020-07-16T13:39:32.577Z</time>
      </trkpt>
      <trkpt lat="46.47725" lon="8.23965">
        <ele>1533</ele>
        <time>2020-07-16T13:39:33.577Z</time>
      </trkpt>
      <trkpt lat="46.47724" lon="8.23964">
        <ele>1533</ele>
        <time>2020-07-16T13:39:34.576Z</time>
      </trkpt>
      <trkpt lat="46.47723" lon="8.23964">
        <ele>1533</ele>
        <time>2020-07-16T13:39:35.577Z</time>
      </trkpt>
      <trkpt lat="46.47722" lon="8.23963">
        <ele>1533</ele>
        <time>2020-07-16T13:39:36.576Z</time>
      </trkpt>
      <trkpt lat="46.4772" lon="8.23963">
        <ele>1533</ele>
        <time>2020-07-16T13:39:37.577Z</time>
      </trkpt>
      <trkpt lat="46.47719" lon="8.23964">
        <ele>1533</ele>
        <time>2020-07-16T13:39:38.577Z</time>
      </trkpt>
      <trkpt lat="46.47719" lon="8.23965">
        <ele>1532</ele>
        <time>2020-07-16T13:39:39.577Z</time>
      </trkpt>
      <trkpt lat="46.47719" lon="8.23966">
        <ele>1531</ele>
        <time>2020-07-16T13:39:40.576Z</time>
      </trkpt>
      <trkpt lat="46.47718" lon="8.23967">
        <ele>1531</ele>
        <time>2020-07-16T13:39:41.577Z</time>
      </trkpt>
      <trkpt lat="46.47718" lon="8.23967">
        <ele>1531</ele>
        <time>2020-07-16T13:39:42.576Z</time>
      </trkpt>
      <trkpt lat="46.47717" lon="8.23967">
        <ele>1535</ele>
        <time>2020-07-16T13:39:43.577Z</time>
      </trkpt>
      <trkpt lat="46.47717" lon="8.23967">
        <ele>1536</ele>
        <time>2020-07-16T13:39:44.577Z</time>
      </trkpt>
      <trkpt lat="46.47716" lon="8.23967">
        <ele>1536</ele>
        <time>2020-07-16T13:39:45.576Z</time>
      </trkpt>
      <trkpt lat="46.47719" lon="8.23967">
        <ele>1535</ele>
        <time>2020-07-16T13:39:46.578Z</time>
      </trkpt>
      <trkpt lat="46.4772" lon="8.23968">
        <ele>1535</ele>
        <time>2020-07-16T13:39:47.578Z</time>
      </trkpt>
      <trkpt lat="46.4772" lon="8.23968">
        <ele>1535</ele>
        <time>2020-07-16T13:39:48.577Z</time>
      </trkpt>
      <trkpt lat="46.4772" lon="8.23968">
        <ele>1534</ele>
        <time>2020-07-16T13:39:49.578Z</time>
      </trkpt>
      <trkpt lat="46.4772" lon="8.23968">
        <ele>1534</ele>
        <time>2020-07-16T13:39:50.578Z</time>
      </trkpt>
      <trkpt lat="46.47719" lon="8.23968">
        <ele>1533</ele>
        <time>2020-07-16T13:39:51.578Z</time>
      </trkpt>
      <trkpt lat="46.47719" lon="8.23968">
        <ele>1534</ele>
        <time>2020-07-16T13:39:52.577Z</time>
      </trkpt>
      <trkpt lat="46.47718" lon="8.23968">
        <ele>1534</ele>
        <time>2020-07-16T13:39:53.578Z</time>
      </trkpt>
      <trkpt lat="46.47718" lon="8.23968">
        <ele>1534</ele>
        <time>2020-07-16T13:39:54.578Z</time>
      </trkpt>
      <trkpt lat="46.47717" lon="8.23968">
        <ele>1533</ele>
        <time>2020-07-16T13:39:55.577Z</time>
      </trkpt>
      <trkpt lat="46.47716" lon="8.23967">
        <ele>1533</ele>
        <time>2020-07-16T13:39:56.578Z</time>
      </trkpt>
      <trkpt lat="46.47715" lon="8.23968">
        <ele>1533</ele>
        <time>2020-07-16T13:39:57.578Z</time>
      </trkpt>
      <trkpt lat="46.47714" lon="8.23968">
        <ele>1532</ele>
        <time>2020-07-16T13:39:58.578Z</time>
      </trkpt>
      <trkpt lat="46.47713" lon="8.23969">
        <ele>1532</ele>
        <time>2020-07-16T13:39:59.578Z</time>
      </trkpt>
      <trkpt lat="46.47712" lon="8.23969">
        <ele>1532</ele>
        <time>2020-07-16T13:40:00.577Z</time>
      </trkpt>
      <trkpt lat="46.47711" lon="8.2397">
        <ele>1532</ele>
        <time>2020-07-16T13:40:01.578Z</time>
      </trkpt>
      <trkpt lat="46.4771" lon="8.23971">
        <ele>1531</ele>
        <time>2020-07-16T13:40:02.578Z</time>
      </trkpt>
      <trkpt lat="46.47709" lon="8.23973">
        <ele>1531</ele>
        <time>2020-07-16T13:40:03.578Z</time>
      </trkpt>
      <trkpt lat="46.47708" lon="8.23974">
        <ele>1530</ele>
        <time>2020-07-16T13:40:04.578Z</time>
      </trkpt>
      <trkpt lat="46.47707" lon="8.23975">
        <ele>1530</ele>
        <time>2020-07-16T13:40:05.578Z</time>
      </trkpt>
      <trkpt lat="46.47706" lon="8.23977">
        <ele>1530</ele>
        <time>2020-07-16T13:40:06.577Z</time>
      </trkpt>
      <trkpt lat="46.47705" lon="8.23978">
        <ele>1530</ele>
        <time>2020-07-16T13:40:07.577Z</time>
      </trkpt>
      <trkpt lat="46.47704" lon="8.23979">
        <ele>1530</ele>
        <time>2020-07-16T13:40:08.578Z</time>
      </trkpt>
      <trkpt lat="46.47703" lon="8.2398">
        <ele>1530</ele>
        <time>2020-07-16T13:40:09.578Z</time>
      </trkpt>
      <trkpt lat="46.47702" lon="8.23981">
        <ele>1531</ele>
        <time>2020-07-16T13:40:10.578Z</time>
      </trkpt>
      <trkpt lat="46.47701" lon="8.23982">
        <ele>1531</ele>
        <time>2020-07-16T13:40:11.578Z</time>
      </trkpt>
      <trkpt lat="46.477" lon="8.23983">
        <ele>1532</ele>
        <time>2020-07-16T13:40:12.578Z</time>
      </trkpt>
      <trkpt lat="46.47699" lon="8.23984">
        <ele>1532</ele>
        <time>2020-07-16T13:40:13.578Z</time>
      </trkpt>
      <trkpt lat="46.47699" lon="8.23985">
        <ele>1532</ele>
        <time>2020-07-16T13:40:14.578Z</time>
      </trkpt>
      <trkpt lat="46.47698" lon="8.23986">
        <ele>1532</ele>
        <time>2020-07-16T13:40:15.578Z</time>
      </trkpt>
      <trkpt lat="46.47697" lon="8.23988">
        <ele>1533</ele>
        <time>2020-07-16T13:40:16.577Z</time>
      </trkpt>
      <trkpt lat="46.47696" lon="8.23989">
        <ele>1533</ele>
        <time>2020-07-16T13:40:17.577Z</time>
      </trkpt>
      <trkpt lat="46.47695" lon="8.2399">
        <ele>1533</ele>
        <time>2020-07-16T13:40:18.578Z</time>
      </trkpt>
      <trkpt lat="46.47694" lon="8.23991">
        <ele>1533</ele>
        <time>2020-07-16T13:40:19.578Z</time>
      </trkpt>
      <trkpt lat="46.47694" lon="8.23992">
        <ele>1532</ele>
        <time>2020-07-16T13:40:20.578Z</time>
      </trkpt>
      <trkpt lat="46.47693" lon="8.23993">
        <ele>1532</ele>
        <time>2020-07-16T13:40:21.577Z</time>
      </trkpt>
      <trkpt lat="46.47692" lon="8.23994">
        <ele>1532</ele>
        <time>2020-07-16T13:40:22.577Z</time>
      </trkpt>
      <trkpt lat="46.47691" lon="8.23995">
        <ele>1532</ele>
        <time>2020-07-16T13:40:23.577Z</time>
      </trkpt>
      <trkpt lat="46.4769" lon="8.23995">
        <ele>1531</ele>
        <time>2020-07-16T13:40:24.577Z</time>
      </trkpt>
      <trkpt lat="46.47689" lon="8.23996">
        <ele>1531</ele>
        <time>2020-07-16T13:40:25.577Z</time>
      </trkpt>
      <trkpt lat="46.47687" lon="8.23996">
        <ele>1531</ele>
        <time>2020-07-16T13:40:26.577Z</time>
      </trkpt>
      <trkpt lat="46.47686" lon="8.23996">
        <ele>1531</ele>
        <time>2020-07-16T13:40:27.577Z</time>
      </trkpt>
      <trkpt lat="46.47685" lon="8.23997">
        <ele>1531</ele>
        <time>2020-07-16T13:40:28.577Z</time>
      </trkpt>
      <trkpt lat="46.47684" lon="8.23997">
        <ele>1531</ele>
        <time>2020-07-16T13:40:29.578Z</time>
      </trkpt>
      <trkpt lat="46.47683" lon="8.23996">
        <ele>1530</ele>
        <time>2020-07-16T13:40:30.578Z</time>
      </trkpt>
      <trkpt lat="46.47682" lon="8.23996">
        <ele>1530</ele>
        <time>2020-07-16T13:40:31.578Z</time>
      </trkpt>
      <trkpt lat="46.47682" lon="8.23996">
        <ele>1529</ele>
        <time>2020-07-16T13:40:32.578Z</time>
      </trkpt>
      <trkpt lat="46.47681" lon="8.23995">
        <ele>1528</ele>
        <time>2020-07-16T13:40:33.577Z</time>
      </trkpt>
      <trkpt lat="46.4768" lon="8.23994">
        <ele>1528</ele>
        <time>2020-07-16T13:40:34.578Z</time>
      </trkpt>
      <trkpt lat="46.47678" lon="8.23993">
        <ele>1527</ele>
        <time>2020-07-16T13:40:35.578Z</time>
      </trkpt>
      <trkpt lat="46.47677" lon="8.23992">
        <ele>1527</ele>
        <time>2020-07-16T13:40:36.578Z</time>
      </trkpt>
      <trkpt lat="46.47676" lon="8.23992">
        <ele>1527</ele>
        <time>2020-07-16T13:40:37.578Z</time>
      </trkpt>
      <trkpt lat="46.47675" lon="8.23992">
        <ele>1527</ele>
        <time>2020-07-16T13:40:38.578Z</time>
      </trkpt>
      <trkpt lat="46.47675" lon="8.23992">
        <ele>1527</ele>
        <time>2020-07-16T13:40:39.578Z</time>
      </trkpt>
      <trkpt lat="46.47674" lon="8.23992">
        <ele>1526</ele>
        <time>2020-07-16T13:40:40.578Z</time>
      </trkpt>
      <trkpt lat="46.47673" lon="8.23992">
        <ele>1527</ele>
        <time>2020-07-16T13:40:41.577Z</time>
      </trkpt>
      <trkpt lat="46.47672" lon="8.23992">
        <ele>1527</ele>
        <time>2020-07-16T13:40:42.577Z</time>
      </trkpt>
      <trkpt lat="46.4767" lon="8.23993">
        <ele>1528</ele>
        <time>2020-07-16T13:40:43.578Z</time>
      </trkpt>
      <trkpt lat="46.47669" lon="8.23993">
        <ele>1528</ele>
        <time>2020-07-16T13:40:44.578Z</time>
      </trkpt>
      <trkpt lat="46.47667" lon="8.23994">
        <ele>1529</ele>
        <time>2020-07-16T13:40:45.578Z</time>
      </trkpt>
      <trkpt lat="46.47666" lon="8.23995">
        <ele>1529</ele>
        <time>2020-07-16T13:40:46.577Z</time>
      </trkpt>
      <trkpt lat="46.47664" lon="8.23997">
        <ele>1529</ele>
        <time>2020-07-16T13:40:47.577Z</time>
      </trkpt>
      <trkpt lat="46.47663" lon="8.23998">
        <ele>1530</ele>
        <time>2020-07-16T13:40:48.577Z</time>
      </trkpt>
      <trkpt lat="46.47662" lon="8.23999">
        <ele>1530</ele>
        <time>2020-07-16T13:40:49.577Z</time>
      </trkpt>
      <trkpt lat="46.47661" lon="8.24001">
        <ele>1530</ele>
        <time>2020-07-16T13:40:50.578Z</time>
      </trkpt>
      <trkpt lat="46.47659" lon="8.24003">
        <ele>1530</ele>
        <time>2020-07-16T13:40:51.578Z</time>
      </trkpt>
      <trkpt lat="46.47658" lon="8.24004">
        <ele>1530</ele>
        <time>2020-07-16T13:40:52.578Z</time>
      </trkpt>
      <trkpt lat="46.47657" lon="8.24006">
        <ele>1530</ele>
        <time>2020-07-16T13:40:53.577Z</time>
      </trkpt>
      <trkpt lat="46.47656" lon="8.24006">
        <ele>1531</ele>
        <time>2020-07-16T13:40:54.578Z</time>
      </trkpt>
      <trkpt lat="46.47655" lon="8.24007">
        <ele>1531</ele>
        <time>2020-07-16T13:40:55.578Z</time>
      </trkpt>
      <trkpt lat="46.47654" lon="8.24007">
        <ele>1531</ele>
        <time>2020-07-16T13:40:56.578Z</time>
      </trkpt>
      <trkpt lat="46.47653" lon="8.24008">
        <ele>1531</ele>
        <time>2020-07-16T13:40:57.578Z</time>
      </trkpt>
      <trkpt lat="46.47653" lon="8.24009">
        <ele>1530</ele>
        <time>2020-07-16T13:40:58.578Z</time>
      </trkpt>
      <trkpt lat="46.47651" lon="8.2401">
        <ele>1531</ele>
        <time>2020-07-16T13:40:59.577Z</time>
      </trkpt>
      <trkpt lat="46.4765" lon="8.2401">
        <ele>1531</ele>
        <time>2020-07-16T13:41:00.578Z</time>
      </trkpt>
      <trkpt lat="46.47649" lon="8.2401">
        <ele>1530</ele>
        <time>2020-07-16T13:41:01.578Z</time>
      </trkpt>
      <trkpt lat="46.47648" lon="8.2401">
        <ele>1530</ele>
        <time>2020-07-16T13:41:02.577Z</time>
      </trkpt>
      <trkpt lat="46.47647" lon="8.2401">
        <ele>1530</ele>
        <time>2020-07-16T13:41:03.577Z</time>
      </trkpt>
      <trkpt lat="46.47646" lon="8.2401">
        <ele>1530</ele>
        <time>2020-07-16T13:41:04.578Z</time>
      </trkpt>
      <trkpt lat="46.47645" lon="8.2401">
        <ele>1530</ele>
        <time>2020-07-16T13:41:05.578Z</time>
      </trkpt>
      <trkpt lat="46.47644" lon="8.24011">
        <ele>1530</ele>
        <time>2020-07-16T13:41:06.577Z</time>
      </trkpt>
      <trkpt lat="46.47643" lon="8.24011">
        <ele>1530</ele>
        <time>2020-07-16T13:41:07.577Z</time>
      </trkpt>
      <trkpt lat="46.47642" lon="8.24011">
        <ele>1530</ele>
        <time>2020-07-16T13:41:08.578Z</time>
      </trkpt>
      <trkpt lat="46.4764" lon="8.24011">
        <ele>1529</ele>
        <time>2020-07-16T13:41:09.578Z</time>
      </trkpt>
      <trkpt lat="46.47639" lon="8.24011">
        <ele>1529</ele>
        <time>2020-07-16T13:41:10.577Z</time>
      </trkpt>
      <trkpt lat="46.47638" lon="8.24011">
        <ele>1529</ele>
        <time>2020-07-16T13:41:11.578Z</time>
      </trkpt>
      <trkpt lat="46.47638" lon="8.24012">
        <ele>1530</ele>
        <time>2020-07-16T13:41:12.578Z</time>
      </trkpt>
      <trkpt lat="46.47637" lon="8.24012">
        <ele>1531</ele>
        <time>2020-07-16T13:41:13.578Z</time>
      </trkpt>
      <trkpt lat="46.47636" lon="8.24012">
        <ele>1531</ele>
        <time>2020-07-16T13:41:14.578Z</time>
      </trkpt>
      <trkpt lat="46.47635" lon="8.24013">
        <ele>1531</ele>
        <time>2020-07-16T13:41:15.578Z</time>
      </trkpt>
      <trkpt lat="46.47634" lon="8.24014">
        <ele>1531</ele>
        <time>2020-07-16T13:41:16.578Z</time>
      </trkpt>
      <trkpt lat="46.47633" lon="8.24014">
        <ele>1531</ele>
        <time>2020-07-16T13:41:17.578Z</time>
      </trkpt>
      <trkpt lat="46.47632" lon="8.24014">
        <ele>1530</ele>
        <time>2020-07-16T13:41:18.578Z</time>
      </trkpt>
      <trkpt lat="46.47631" lon="8.24014">
        <ele>1530</ele>
        <time>2020-07-16T13:41:19.578Z</time>
      </trkpt>
      <trkpt lat="46.4763" lon="8.24015">
        <ele>1529</ele>
        <time>2020-07-16T13:41:20.578Z</time>
      </trkpt>
      <trkpt lat="46.47629" lon="8.24015">
        <ele>1529</ele>
        <time>2020-07-16T13:41:21.578Z</time>
      </trkpt>
      <trkpt lat="46.47628" lon="8.24015">
        <ele>1529</ele>
        <time>2020-07-16T13:41:22.578Z</time>
      </trkpt>
      <trkpt lat="46.47627" lon="8.24015">
        <ele>1529</ele>
        <time>2020-07-16T13:41:23.578Z</time>
      </trkpt>
      <trkpt lat="46.47627" lon="8.24015">
        <ele>1528</ele>
        <time>2020-07-16T13:41:24.578Z</time>
      </trkpt>
      <trkpt lat="46.47625" lon="8.24015">
        <ele>1529</ele>
        <time>2020-07-16T13:41:25.578Z</time>
      </trkpt>
      <trkpt lat="46.47624" lon="8.24015">
        <ele>1529</ele>
        <time>2020-07-16T13:41:26.578Z</time>
      </trkpt>
      <trkpt lat="46.47623" lon="8.24016">
        <ele>1529</ele>
        <time>2020-07-16T13:41:27.578Z</time>
      </trkpt>
      <trkpt lat="46.47622" lon="8.24016">
        <ele>1529</ele>
        <time>2020-07-16T13:41:28.578Z</time>
      </trkpt>
      <trkpt lat="46.47621" lon="8.24016">
        <ele>1529</ele>
        <time>2020-07-16T13:41:29.578Z</time>
      </trkpt>
      <trkpt lat="46.47619" lon="8.24016">
        <ele>1529</ele>
        <time>2020-07-16T13:41:30.578Z</time>
      </trkpt>
      <trkpt lat="46.47618" lon="8.24017">
        <ele>1529</ele>
        <time>2020-07-16T13:41:31.577Z</time>
      </trkpt>
      <trkpt lat="46.47617" lon="8.24017">
        <ele>1528</ele>
        <time>2020-07-16T13:41:32.578Z</time>
      </trkpt>
      <trkpt lat="46.47617" lon="8.24017">
        <ele>1528</ele>
        <time>2020-07-16T13:41:33.578Z</time>
      </trkpt>
      <trkpt lat="46.47617" lon="8.24017">
        <ele>1527</ele>
        <time>2020-07-16T13:41:34.577Z</time>
      </trkpt>
      <trkpt lat="46.47617" lon="8.24017">
        <ele>1527</ele>
        <time>2020-07-16T13:41:35.577Z</time>
      </trkpt>
      <trkpt lat="46.47618" lon="8.24015">
        <ele>1530</ele>
        <time>2020-07-16T13:41:36.578Z</time>
      </trkpt>
      <trkpt lat="46.47617" lon="8.24015">
        <ele>1530</ele>
        <time>2020-07-16T13:41:37.577Z</time>
      </trkpt>
      <trkpt lat="46.47616" lon="8.24016">
        <ele>1530</ele>
        <time>2020-07-16T13:41:38.577Z</time>
      </trkpt>
      <trkpt lat="46.47615" lon="8.24016">
        <ele>1530</ele>
        <time>2020-07-16T13:41:39.577Z</time>
      </trkpt>
      <trkpt lat="46.47613" lon="8.24016">
        <ele>1531</ele>
        <time>2020-07-16T13:41:40.578Z</time>
      </trkpt>
      <trkpt lat="46.47612" lon="8.24017">
        <ele>1531</ele>
        <time>2020-07-16T13:41:41.578Z</time>
      </trkpt>
      <trkpt lat="46.47611" lon="8.24017">
        <ele>1530</ele>
        <time>2020-07-16T13:41:42.578Z</time>
      </trkpt>
      <trkpt lat="46.47609" lon="8.24018">
        <ele>1530</ele>
        <time>2020-07-16T13:41:43.578Z</time>
      </trkpt>
      <trkpt lat="46.47608" lon="8.24019">
        <ele>1529</ele>
        <time>2020-07-16T13:41:44.578Z</time>
      </trkpt>
      <trkpt lat="46.47607" lon="8.2402">
        <ele>1529</ele>
        <time>2020-07-16T13:41:45.577Z</time>
      </trkpt>
      <trkpt lat="46.47606" lon="8.24021">
        <ele>1528</ele>
        <time>2020-07-16T13:41:46.578Z</time>
      </trkpt>
      <trkpt lat="46.47605" lon="8.24022">
        <ele>1528</ele>
        <time>2020-07-16T13:41:47.578Z</time>
      </trkpt>
      <trkpt lat="46.47604" lon="8.24023">
        <ele>1528</ele>
        <time>2020-07-16T13:41:48.578Z</time>
      </trkpt>
      <trkpt lat="46.47603" lon="8.24025">
        <ele>1528</ele>
        <time>2020-07-16T13:41:49.577Z</time>
      </trkpt>
      <trkpt lat="46.47603" lon="8.24026">
        <ele>1528</ele>
        <time>2020-07-16T13:41:50.578Z</time>
      </trkpt>
      <trkpt lat="46.47601" lon="8.24027">
        <ele>1528</ele>
        <time>2020-07-16T13:41:51.577Z</time>
      </trkpt>
      <trkpt lat="46.476" lon="8.24028">
        <ele>1529</ele>
        <time>2020-07-16T13:41:52.578Z</time>
      </trkpt>
      <trkpt lat="46.476" lon="8.2403">
        <ele>1529</ele>
        <time>2020-07-16T13:41:53.578Z</time>
      </trkpt>
      <trkpt lat="46.47599" lon="8.24031">
        <ele>1529</ele>
        <time>2020-07-16T13:41:54.578Z</time>
      </trkpt>
      <trkpt lat="46.47598" lon="8.24032">
        <ele>1528</ele>
        <time>2020-07-16T13:41:55.578Z</time>
      </trkpt>
      <trkpt lat="46.47597" lon="8.24033">
        <ele>1528</ele>
        <time>2020-07-16T13:41:56.577Z</time>
      </trkpt>
      <trkpt lat="46.47596" lon="8.24034">
        <ele>1528</ele>
        <time>2020-07-16T13:41:57.578Z</time>
      </trkpt>
      <trkpt lat="46.47595" lon="8.24035">
        <ele>1528</ele>
        <time>2020-07-16T13:41:58.577Z</time>
      </trkpt>
      <trkpt lat="46.47594" lon="8.24037">
        <ele>1527</ele>
        <time>2020-07-16T13:41:59.577Z</time>
      </trkpt>
      <trkpt lat="46.47593" lon="8.24037">
        <ele>1527</ele>
        <time>2020-07-16T13:42:00.577Z</time>
      </trkpt>
      <trkpt lat="46.47592" lon="8.24039">
        <ele>1526</ele>
        <time>2020-07-16T13:42:01.577Z</time>
      </trkpt>
      <trkpt lat="46.47591" lon="8.2404">
        <ele>1526</ele>
        <time>2020-07-16T13:42:02.577Z</time>
      </trkpt>
      <trkpt lat="46.4759" lon="8.24041">
        <ele>1526</ele>
        <time>2020-07-16T13:42:03.578Z</time>
      </trkpt>
      <trkpt lat="46.47589" lon="8.24041">
        <ele>1525</ele>
        <time>2020-07-16T13:42:04.578Z</time>
      </trkpt>
      <trkpt lat="46.47587" lon="8.24042">
        <ele>1524</ele>
        <time>2020-07-16T13:42:05.578Z</time>
      </trkpt>
      <trkpt lat="46.47586" lon="8.24043">
        <ele>1523</ele>
        <time>2020-07-16T13:42:06.578Z</time>
      </trkpt>
      <trkpt lat="46.47585" lon="8.24044">
        <ele>1522</ele>
        <time>2020-07-16T13:42:07.577Z</time>
      </trkpt>
      <trkpt lat="46.47584" lon="8.24045">
        <ele>1522</ele>
        <time>2020-07-16T13:42:08.578Z</time>
      </trkpt>
      <trkpt lat="46.47584" lon="8.24046">
        <ele>1521</ele>
        <time>2020-07-16T13:42:09.577Z</time>
      </trkpt>
      <trkpt lat="46.47583" lon="8.24047">
        <ele>1521</ele>
        <time>2020-07-16T13:42:10.578Z</time>
      </trkpt>
      <trkpt lat="46.47582" lon="8.24047">
        <ele>1520</ele>
        <time>2020-07-16T13:42:11.578Z</time>
      </trkpt>
      <trkpt lat="46.47581" lon="8.24048">
        <ele>1520</ele>
        <time>2020-07-16T13:42:12.578Z</time>
      </trkpt>
      <trkpt lat="46.4758" lon="8.24049">
        <ele>1520</ele>
        <time>2020-07-16T13:42:13.578Z</time>
      </trkpt>
      <trkpt lat="46.47579" lon="8.2405">
        <ele>1520</ele>
        <time>2020-07-16T13:42:14.578Z</time>
      </trkpt>
      <trkpt lat="46.47578" lon="8.24051">
        <ele>1520</ele>
        <time>2020-07-16T13:42:15.578Z</time>
      </trkpt>
      <trkpt lat="46.47577" lon="8.24052">
        <ele>1520</ele>
        <time>2020-07-16T13:42:16.578Z</time>
      </trkpt>
      <trkpt lat="46.47576" lon="8.24053">
        <ele>1519</ele>
        <time>2020-07-16T13:42:17.578Z</time>
      </trkpt>
      <trkpt lat="46.47575" lon="8.24053">
        <ele>1519</ele>
        <time>2020-07-16T13:42:18.578Z</time>
      </trkpt>
      <trkpt lat="46.47574" lon="8.24053">
        <ele>1519</ele>
        <time>2020-07-16T13:42:19.578Z</time>
      </trkpt>
      <trkpt lat="46.47572" lon="8.24054">
        <ele>1518</ele>
        <time>2020-07-16T13:42:20.578Z</time>
      </trkpt>
      <trkpt lat="46.47571" lon="8.24054">
        <ele>1518</ele>
        <time>2020-07-16T13:42:21.578Z</time>
      </trkpt>
      <trkpt lat="46.47569" lon="8.24054">
        <ele>1518</ele>
        <time>2020-07-16T13:42:22.578Z</time>
      </trkpt>
      <trkpt lat="46.47568" lon="8.24054">
        <ele>1517</ele>
        <time>2020-07-16T13:42:23.578Z</time>
      </trkpt>
      <trkpt lat="46.47567" lon="8.24054">
        <ele>1517</ele>
        <time>2020-07-16T13:42:24.577Z</time>
      </trkpt>
      <trkpt lat="46.47566" lon="8.24054">
        <ele>1517</ele>
        <time>2020-07-16T13:42:25.578Z</time>
      </trkpt>
      <trkpt lat="46.47565" lon="8.24054">
        <ele>1517</ele>
        <time>2020-07-16T13:42:26.578Z</time>
      </trkpt>
      <trkpt lat="46.47563" lon="8.24054">
        <ele>1516</ele>
        <time>2020-07-16T13:42:27.578Z</time>
      </trkpt>
      <trkpt lat="46.47562" lon="8.24053">
        <ele>1515</ele>
        <time>2020-07-16T13:42:28.578Z</time>
      </trkpt>
      <trkpt lat="46.47562" lon="8.24052">
        <ele>1514</ele>
        <time>2020-07-16T13:42:29.578Z</time>
      </trkpt>
      <trkpt lat="46.47561" lon="8.24051">
        <ele>1514</ele>
        <time>2020-07-16T13:42:30.577Z</time>
      </trkpt>
      <trkpt lat="46.4756" lon="8.2405">
        <ele>1513</ele>
        <time>2020-07-16T13:42:31.578Z</time>
      </trkpt>
      <trkpt lat="46.47559" lon="8.24049">
        <ele>1512</ele>
        <time>2020-07-16T13:42:32.578Z</time>
      </trkpt>
      <trkpt lat="46.47559" lon="8.24048">
        <ele>1512</ele>
        <time>2020-07-16T13:42:33.578Z</time>
      </trkpt>
      <trkpt lat="46.47558" lon="8.24048">
        <ele>1511</ele>
        <time>2020-07-16T13:42:34.578Z</time>
      </trkpt>
      <trkpt lat="46.47557" lon="8.24048">
        <ele>1511</ele>
        <time>2020-07-16T13:42:35.578Z</time>
      </trkpt>
      <trkpt lat="46.47557" lon="8.24048">
        <ele>1511</ele>
        <time>2020-07-16T13:42:36.578Z</time>
      </trkpt>
      <trkpt lat="46.47557" lon="8.24047">
        <ele>1510</ele>
        <time>2020-07-16T13:42:37.578Z</time>
      </trkpt>
      <trkpt lat="46.47557" lon="8.24047">
        <ele>1510</ele>
        <time>2020-07-16T13:42:38.578Z</time>
      </trkpt>
      <trkpt lat="46.47558" lon="8.24047">
        <ele>1509</ele>
        <time>2020-07-16T13:42:39.577Z</time>
      </trkpt>
      <trkpt lat="46.47558" lon="8.24046">
        <ele>1509</ele>
        <time>2020-07-16T13:42:40.577Z</time>
      </trkpt>
      <trkpt lat="46.47557" lon="8.24045">
        <ele>1509</ele>
        <time>2020-07-16T13:42:41.577Z</time>
      </trkpt>
      <trkpt lat="46.47557" lon="8.24044">
        <ele>1509</ele>
        <time>2020-07-16T13:42:42.577Z</time>
      </trkpt>
      <trkpt lat="46.47556" lon="8.24043">
        <ele>1508</ele>
        <time>2020-07-16T13:42:43.577Z</time>
      </trkpt>
      <trkpt lat="46.47555" lon="8.24042">
        <ele>1508</ele>
        <time>2020-07-16T13:42:44.577Z</time>
      </trkpt>
      <trkpt lat="46.47554" lon="8.24041">
        <ele>1507</ele>
        <time>2020-07-16T13:42:45.577Z</time>
      </trkpt>
      <trkpt lat="46.47553" lon="8.2404">
        <ele>1507</ele>
        <time>2020-07-16T13:42:46.577Z</time>
      </trkpt>
      <trkpt lat="46.47552" lon="8.24039">
        <ele>1507</ele>
        <time>2020-07-16T13:42:47.577Z</time>
      </trkpt>
      <trkpt lat="46.47551" lon="8.24037">
        <ele>1506</ele>
        <time>2020-07-16T13:42:48.577Z</time>
      </trkpt>
      <trkpt lat="46.4755" lon="8.24036">
        <ele>1506</ele>
        <time>2020-07-16T13:42:49.577Z</time>
      </trkpt>
      <trkpt lat="46.4755" lon="8.24035">
        <ele>1506</ele>
        <time>2020-07-16T13:42:50.577Z</time>
      </trkpt>
      <trkpt lat="46.47549" lon="8.24034">
        <ele>1506</ele>
        <time>2020-07-16T13:42:51.577Z</time>
      </trkpt>
      <trkpt lat="46.47548" lon="8.24033">
        <ele>1506</ele>
        <time>2020-07-16T13:42:52.577Z</time>
      </trkpt>
      <trkpt lat="46.47547" lon="8.24032">
        <ele>1506</ele>
        <time>2020-07-16T13:42:53.577Z</time>
      </trkpt>
      <trkpt lat="46.47546" lon="8.24031">
        <ele>1506</ele>
        <time>2020-07-16T13:42:54.577Z</time>
      </trkpt>
      <trkpt lat="46.47545" lon="8.24029">
        <ele>1506</ele>
        <time>2020-07-16T13:42:55.577Z</time>
      </trkpt>
      <trkpt lat="46.47544" lon="8.24028">
        <ele>1506</ele>
        <time>2020-07-16T13:42:56.577Z</time>
      </trkpt>
      <trkpt lat="46.47544" lon="8.24027">
        <ele>1506</ele>
        <time>2020-07-16T13:42:57.577Z</time>
      </trkpt>
      <trkpt lat="46.47543" lon="8.24026">
        <ele>1506</ele>
        <time>2020-07-16T13:42:58.577Z</time>
      </trkpt>
      <trkpt lat="46.47543" lon="8.24025">
        <ele>1506</ele>
        <time>2020-07-16T13:42:59.577Z</time>
      </trkpt>
      <trkpt lat="46.47542" lon="8.24024">
        <ele>1506</ele>
        <time>2020-07-16T13:43:00.577Z</time>
      </trkpt>
      <trkpt lat="46.47541" lon="8.24022">
        <ele>1506</ele>
        <time>2020-07-16T13:43:01.577Z</time>
      </trkpt>
      <trkpt lat="46.47541" lon="8.24021">
        <ele>1506</ele>
        <time>2020-07-16T13:43:02.577Z</time>
      </trkpt>
      <trkpt lat="46.4754" lon="8.2402">
        <ele>1506</ele>
        <time>2020-07-16T13:43:03.577Z</time>
      </trkpt>
      <trkpt lat="46.47539" lon="8.24019">
        <ele>1506</ele>
        <time>2020-07-16T13:43:04.577Z</time>
      </trkpt>
      <trkpt lat="46.47538" lon="8.24018">
        <ele>1507</ele>
        <time>2020-07-16T13:43:05.577Z</time>
      </trkpt>
      <trkpt lat="46.47538" lon="8.24016">
        <ele>1507</ele>
        <time>2020-07-16T13:43:06.577Z</time>
      </trkpt>
      <trkpt lat="46.47538" lon="8.24015">
        <ele>1507</ele>
        <time>2020-07-16T13:43:07.577Z</time>
      </trkpt>
      <trkpt lat="46.47537" lon="8.24014">
        <ele>1506</ele>
        <time>2020-07-16T13:43:08.577Z</time>
      </trkpt>
      <trkpt lat="46.47536" lon="8.24012">
        <ele>1507</ele>
        <time>2020-07-16T13:43:09.577Z</time>
      </trkpt>
      <trkpt lat="46.47536" lon="8.24011">
        <ele>1506</ele>
        <time>2020-07-16T13:43:10.577Z</time>
      </trkpt>
      <trkpt lat="46.47535" lon="8.2401">
        <ele>1506</ele>
        <time>2020-07-16T13:43:11.577Z</time>
      </trkpt>
      <trkpt lat="46.47534" lon="8.24009">
        <ele>1506</ele>
        <time>2020-07-16T13:43:12.577Z</time>
      </trkpt>
      <trkpt lat="46.47534" lon="8.24007">
        <ele>1506</ele>
        <time>2020-07-16T13:43:13.577Z</time>
      </trkpt>
      <trkpt lat="46.47533" lon="8.24008">
        <ele>1505</ele>
        <time>2020-07-16T13:43:14.577Z</time>
      </trkpt>
      <trkpt lat="46.47532" lon="8.24008">
        <ele>1505</ele>
        <time>2020-07-16T13:43:15.577Z</time>
      </trkpt>
      <trkpt lat="46.47532" lon="8.24008">
        <ele>1505</ele>
        <time>2020-07-16T13:43:16.577Z</time>
      </trkpt>
      <trkpt lat="46.47532" lon="8.24008">
        <ele>1505</ele>
        <time>2020-07-16T13:43:17.577Z</time>
      </trkpt>
      <trkpt lat="46.47533" lon="8.24008">
        <ele>1508</ele>
        <time>2020-07-16T13:43:18.578Z</time>
      </trkpt>
      <trkpt lat="46.47533" lon="8.24007">
        <ele>1508</ele>
        <time>2020-07-16T13:43:19.578Z</time>
      </trkpt>
      <trkpt lat="46.47532" lon="8.24007">
        <ele>1508</ele>
        <time>2020-07-16T13:43:20.577Z</time>
      </trkpt>
      <trkpt lat="46.47532" lon="8.24006">
        <ele>1507</ele>
        <time>2020-07-16T13:43:21.578Z</time>
      </trkpt>
      <trkpt lat="46.47532" lon="8.24004">
        <ele>1507</ele>
        <time>2020-07-16T13:43:22.578Z</time>
      </trkpt>
      <trkpt lat="46.47531" lon="8.24003">
        <ele>1507</ele>
        <time>2020-07-16T13:43:23.577Z</time>
      </trkpt>
      <trkpt lat="46.47531" lon="8.24002">
        <ele>1507</ele>
        <time>2020-07-16T13:43:24.578Z</time>
      </trkpt>
      <trkpt lat="46.4753" lon="8.24002">
        <ele>1506</ele>
        <time>2020-07-16T13:43:25.577Z</time>
      </trkpt>
      <trkpt lat="46.4753" lon="8.24">
        <ele>1506</ele>
        <time>2020-07-16T13:43:26.578Z</time>
      </trkpt>
      <trkpt lat="46.47529" lon="8.23999">
        <ele>1506</ele>
        <time>2020-07-16T13:43:27.577Z</time>
      </trkpt>
      <trkpt lat="46.47529" lon="8.23997">
        <ele>1505</ele>
        <time>2020-07-16T13:43:28.578Z</time>
      </trkpt>
      <trkpt lat="46.47528" lon="8.23995">
        <ele>1505</ele>
        <time>2020-07-16T13:43:29.578Z</time>
      </trkpt>
      <trkpt lat="46.47527" lon="8.23994">
        <ele>1505</ele>
        <time>2020-07-16T13:43:30.577Z</time>
      </trkpt>
      <trkpt lat="46.47527" lon="8.23993">
        <ele>1504</ele>
        <time>2020-07-16T13:43:31.578Z</time>
      </trkpt>
      <trkpt lat="46.47526" lon="8.23992">
        <ele>1504</ele>
        <time>2020-07-16T13:43:32.578Z</time>
      </trkpt>
      <trkpt lat="46.47526" lon="8.23991">
        <ele>1504</ele>
        <time>2020-07-16T13:43:33.577Z</time>
      </trkpt>
      <trkpt lat="46.47525" lon="8.2399">
        <ele>1504</ele>
        <time>2020-07-16T13:43:34.578Z</time>
      </trkpt>
      <trkpt lat="46.47525" lon="8.23988">
        <ele>1504</ele>
        <time>2020-07-16T13:43:35.577Z</time>
      </trkpt>
      <trkpt lat="46.47525" lon="8.23987">
        <ele>1504</ele>
        <time>2020-07-16T13:43:36.577Z</time>
      </trkpt>
      <trkpt lat="46.47525" lon="8.23986">
        <ele>1503</ele>
        <time>2020-07-16T13:43:37.577Z</time>
      </trkpt>
      <trkpt lat="46.47524" lon="8.23985">
        <ele>1503</ele>
        <time>2020-07-16T13:43:38.578Z</time>
      </trkpt>
      <trkpt lat="46.47524" lon="8.23983">
        <ele>1502</ele>
        <time>2020-07-16T13:43:39.577Z</time>
      </trkpt>
      <trkpt lat="46.47523" lon="8.23982">
        <ele>1502</ele>
        <time>2020-07-16T13:43:40.577Z</time>
      </trkpt>
      <trkpt lat="46.47523" lon="8.2398">
        <ele>1502</ele>
        <time>2020-07-16T13:43:41.578Z</time>
      </trkpt>
      <trkpt lat="46.47523" lon="8.23979">
        <ele>1502</ele>
        <time>2020-07-16T13:43:42.577Z</time>
      </trkpt>
      <trkpt lat="46.47522" lon="8.23978">
        <ele>1502</ele>
        <time>2020-07-16T13:43:43.578Z</time>
      </trkpt>
      <trkpt lat="46.47522" lon="8.23977">
        <ele>1502</ele>
        <time>2020-07-16T13:43:44.577Z</time>
      </trkpt>
      <trkpt lat="46.47521" lon="8.23975">
        <ele>1502</ele>
        <time>2020-07-16T13:43:45.578Z</time>
      </trkpt>
      <trkpt lat="46.47521" lon="8.23974">
        <ele>1502</ele>
        <time>2020-07-16T13:43:46.577Z</time>
      </trkpt>
      <trkpt lat="46.4752" lon="8.23973">
        <ele>1502</ele>
        <time>2020-07-16T13:43:47.578Z</time>
      </trkpt>
      <trkpt lat="46.47519" lon="8.23972">
        <ele>1502</ele>
        <time>2020-07-16T13:43:48.577Z</time>
      </trkpt>
      <trkpt lat="46.47519" lon="8.2397">
        <ele>1502</ele>
        <time>2020-07-16T13:43:49.578Z</time>
      </trkpt>
      <trkpt lat="46.47518" lon="8.23969">
        <ele>1502</ele>
        <time>2020-07-16T13:43:50.577Z</time>
      </trkpt>
      <trkpt lat="46.47519" lon="8.23967">
        <ele>1502</ele>
        <time>2020-07-16T13:43:51.578Z</time>
      </trkpt>
      <trkpt lat="46.4752" lon="8.23964">
        <ele>1502</ele>
        <time>2020-07-16T13:43:52.578Z</time>
      </trkpt>
      <trkpt lat="46.4752" lon="8.23963">
        <ele>1501</ele>
        <time>2020-07-16T13:43:53.578Z</time>
      </trkpt>
      <trkpt lat="46.47521" lon="8.23961">
        <ele>1501</ele>
        <time>2020-07-16T13:43:54.578Z</time>
      </trkpt>
      <trkpt lat="46.47521" lon="8.2396">
        <ele>1501</ele>
        <time>2020-07-16T13:43:55.577Z</time>
      </trkpt>
      <trkpt lat="46.47521" lon="8.23959">
        <ele>1501</ele>
        <time>2020-07-16T13:43:56.577Z</time>
      </trkpt>
      <trkpt lat="46.47521" lon="8.23958">
        <ele>1501</ele>
        <time>2020-07-16T13:43:57.578Z</time>
      </trkpt>
      <trkpt lat="46.47521" lon="8.23958">
        <ele>1501</ele>
        <time>2020-07-16T13:43:58.577Z</time>
      </trkpt>
      <trkpt lat="46.47522" lon="8.23956">
        <ele>1503</ele>
        <time>2020-07-16T13:43:59.578Z</time>
      </trkpt>
      <trkpt lat="46.47523" lon="8.23954">
        <ele>1502</ele>
        <time>2020-07-16T13:44:00.577Z</time>
      </trkpt>
      <trkpt lat="46.47523" lon="8.23954">
        <ele>1502</ele>
        <time>2020-07-16T13:44:01.577Z</time>
      </trkpt>
      <trkpt lat="46.47524" lon="8.23953">
        <ele>1502</ele>
        <time>2020-07-16T13:44:02.578Z</time>
      </trkpt>
      <trkpt lat="46.47525" lon="8.23952">
        <ele>1502</ele>
        <time>2020-07-16T13:44:03.577Z</time>
      </trkpt>
      <trkpt lat="46.47525" lon="8.23951">
        <ele>1502</ele>
        <time>2020-07-16T13:44:04.577Z</time>
      </trkpt>
      <trkpt lat="46.47525" lon="8.23951">
        <ele>1502</ele>
        <time>2020-07-16T13:44:05.578Z</time>
      </trkpt>
      <trkpt lat="46.47526" lon="8.2395">
        <ele>1502</ele>
        <time>2020-07-16T13:44:06.578Z</time>
      </trkpt>
      <trkpt lat="46.47527" lon="8.23949">
        <ele>1502</ele>
        <time>2020-07-16T13:44:07.577Z</time>
      </trkpt>
      <trkpt lat="46.47528" lon="8.23948">
        <ele>1502</ele>
        <time>2020-07-16T13:44:08.578Z</time>
      </trkpt>
      <trkpt lat="46.47529" lon="8.23947">
        <ele>1502</ele>
        <time>2020-07-16T13:44:09.577Z</time>
      </trkpt>
      <trkpt lat="46.4753" lon="8.23946">
        <ele>1501</ele>
        <time>2020-07-16T13:44:10.577Z</time>
      </trkpt>
      <trkpt lat="46.47531" lon="8.23946">
        <ele>1501</ele>
        <time>2020-07-16T13:44:11.578Z</time>
      </trkpt>
      <trkpt lat="46.47532" lon="8.23945">
        <ele>1501</ele>
        <time>2020-07-16T13:44:12.578Z</time>
      </trkpt>
      <trkpt lat="46.47533" lon="8.23944">
        <ele>1501</ele>
        <time>2020-07-16T13:44:13.577Z</time>
      </trkpt>
      <trkpt lat="46.47535" lon="8.23944">
        <ele>1501</ele>
        <time>2020-07-16T13:44:14.578Z</time>
      </trkpt>
      <trkpt lat="46.47536" lon="8.23943">
        <ele>1501</ele>
        <time>2020-07-16T13:44:15.578Z</time>
      </trkpt>
      <trkpt lat="46.47536" lon="8.23943">
        <ele>1501</ele>
        <time>2020-07-16T13:44:16.578Z</time>
      </trkpt>
      <trkpt lat="46.47537" lon="8.23942">
        <ele>1501</ele>
        <time>2020-07-16T13:44:17.578Z</time>
      </trkpt>
      <trkpt lat="46.47538" lon="8.23941">
        <ele>1500</ele>
        <time>2020-07-16T13:44:18.578Z</time>
      </trkpt>
      <trkpt lat="46.4754" lon="8.2394">
        <ele>1500</ele>
        <time>2020-07-16T13:44:19.577Z</time>
      </trkpt>
      <trkpt lat="46.4754" lon="8.23939">
        <ele>1500</ele>
        <time>2020-07-16T13:44:20.577Z</time>
      </trkpt>
      <trkpt lat="46.47541" lon="8.23937">
        <ele>1499</ele>
        <time>2020-07-16T13:44:21.577Z</time>
      </trkpt>
      <trkpt lat="46.47542" lon="8.23936">
        <ele>1499</ele>
        <time>2020-07-16T13:44:22.577Z</time>
      </trkpt>
      <trkpt lat="46.47542" lon="8.23935">
        <ele>1499</ele>
        <time>2020-07-16T13:44:23.578Z</time>
      </trkpt>
      <trkpt lat="46.47543" lon="8.23933">
        <ele>1499</ele>
        <time>2020-07-16T13:44:24.577Z</time>
      </trkpt>
      <trkpt lat="46.47543" lon="8.23932">
        <ele>1499</ele>
        <time>2020-07-16T13:44:25.577Z</time>
      </trkpt>
      <trkpt lat="46.47544" lon="8.2393">
        <ele>1500</ele>
        <time>2020-07-16T13:44:26.578Z</time>
      </trkpt>
      <trkpt lat="46.47544" lon="8.23928">
        <ele>1500</ele>
        <time>2020-07-16T13:44:27.578Z</time>
      </trkpt>
      <trkpt lat="46.47544" lon="8.23926">
        <ele>1500</ele>
        <time>2020-07-16T13:44:28.578Z</time>
      </trkpt>
      <trkpt lat="46.47544" lon="8.23925">
        <ele>1500</ele>
        <time>2020-07-16T13:44:29.578Z</time>
      </trkpt>
      <trkpt lat="46.47544" lon="8.23923">
        <ele>1500</ele>
        <time>2020-07-16T13:44:30.578Z</time>
      </trkpt>
      <trkpt lat="46.47544" lon="8.23921">
        <ele>1499</ele>
        <time>2020-07-16T13:44:31.578Z</time>
      </trkpt>
      <trkpt lat="46.47544" lon="8.23919">
        <ele>1499</ele>
        <time>2020-07-16T13:44:32.578Z</time>
      </trkpt>
      <trkpt lat="46.47543" lon="8.23917">
        <ele>1499</ele>
        <time>2020-07-16T13:44:33.577Z</time>
      </trkpt>
      <trkpt lat="46.47543" lon="8.23915">
        <ele>1498</ele>
        <time>2020-07-16T13:44:34.577Z</time>
      </trkpt>
      <trkpt lat="46.47542" lon="8.23914">
        <ele>1498</ele>
        <time>2020-07-16T13:44:35.578Z</time>
      </trkpt>
      <trkpt lat="46.47541" lon="8.23913">
        <ele>1498</ele>
        <time>2020-07-16T13:44:36.578Z</time>
      </trkpt>
      <trkpt lat="46.47541" lon="8.2391">
        <ele>1498</ele>
        <time>2020-07-16T13:44:37.578Z</time>
      </trkpt>
      <trkpt lat="46.47539" lon="8.23908">
        <ele>1498</ele>
        <time>2020-07-16T13:44:38.577Z</time>
      </trkpt>
      <trkpt lat="46.47538" lon="8.23907">
        <ele>1498</ele>
        <time>2020-07-16T13:44:39.578Z</time>
      </trkpt>
      <trkpt lat="46.47538" lon="8.23906">
        <ele>1499</ele>
        <time>2020-07-16T13:44:40.578Z</time>
      </trkpt>
      <trkpt lat="46.47537" lon="8.23904">
        <ele>1499</ele>
        <time>2020-07-16T13:44:41.577Z</time>
      </trkpt>
      <trkpt lat="46.47536" lon="8.23903">
        <ele>1498</ele>
        <time>2020-07-16T13:44:42.578Z</time>
      </trkpt>
      <trkpt lat="46.47535" lon="8.23902">
        <ele>1498</ele>
        <time>2020-07-16T13:44:43.578Z</time>
      </trkpt>
      <trkpt lat="46.47534" lon="8.23901">
        <ele>1498</ele>
        <time>2020-07-16T13:44:44.577Z</time>
      </trkpt>
      <trkpt lat="46.47533" lon="8.23901">
        <ele>1498</ele>
        <time>2020-07-16T13:44:45.578Z</time>
      </trkpt>
      <trkpt lat="46.47532" lon="8.239">
        <ele>1498</ele>
        <time>2020-07-16T13:44:46.578Z</time>
      </trkpt>
      <trkpt lat="46.47531" lon="8.23899">
        <ele>1498</ele>
        <time>2020-07-16T13:44:47.577Z</time>
      </trkpt>
      <trkpt lat="46.4753" lon="8.23898">
        <ele>1497</ele>
        <time>2020-07-16T13:44:48.578Z</time>
      </trkpt>
      <trkpt lat="46.47529" lon="8.23898">
        <ele>1498</ele>
        <time>2020-07-16T13:44:49.578Z</time>
      </trkpt>
      <trkpt lat="46.47528" lon="8.23897">
        <ele>1498</ele>
        <time>2020-07-16T13:44:50.578Z</time>
      </trkpt>
      <trkpt lat="46.47527" lon="8.23897">
        <ele>1498</ele>
        <time>2020-07-16T13:44:51.578Z</time>
      </trkpt>
      <trkpt lat="46.47526" lon="8.23897">
        <ele>1498</ele>
        <time>2020-07-16T13:44:52.577Z</time>
      </trkpt>
      <trkpt lat="46.47526" lon="8.23897">
        <ele>1498</ele>
        <time>2020-07-16T13:44:53.578Z</time>
      </trkpt>
      <trkpt lat="46.47525" lon="8.23897">
        <ele>1498</ele>
        <time>2020-07-16T13:44:54.578Z</time>
      </trkpt>
      <trkpt lat="46.47525" lon="8.23896">
        <ele>1498</ele>
        <time>2020-07-16T13:44:55.578Z</time>
      </trkpt>
      <trkpt lat="46.47528" lon="8.23892">
        <ele>1497</ele>
        <time>2020-07-16T13:44:56.579Z</time>
      </trkpt>
      <trkpt lat="46.47527" lon="8.23891">
        <ele>1497</ele>
        <time>2020-07-16T13:44:57.578Z</time>
      </trkpt>
      <trkpt lat="46.47526" lon="8.23889">
        <ele>1497</ele>
        <time>2020-07-16T13:44:58.579Z</time>
      </trkpt>
      <trkpt lat="46.47526" lon="8.23888">
        <ele>1497</ele>
        <time>2020-07-16T13:44:59.579Z</time>
      </trkpt>
      <trkpt lat="46.47525" lon="8.23887">
        <ele>1497</ele>
        <time>2020-07-16T13:45:00.579Z</time>
      </trkpt>
      <trkpt lat="46.47525" lon="8.23885">
        <ele>1497</ele>
        <time>2020-07-16T13:45:01.579Z</time>
      </trkpt>
      <trkpt lat="46.47523" lon="8.23884">
        <ele>1496</ele>
        <time>2020-07-16T13:45:02.578Z</time>
      </trkpt>
      <trkpt lat="46.47522" lon="8.23883">
        <ele>1496</ele>
        <time>2020-07-16T13:45:03.579Z</time>
      </trkpt>
      <trkpt lat="46.47521" lon="8.23882">
        <ele>1496</ele>
        <time>2020-07-16T13:45:04.578Z</time>
      </trkpt>
      <trkpt lat="46.47521" lon="8.23881">
        <ele>1495</ele>
        <time>2020-07-16T13:45:05.579Z</time>
      </trkpt>
      <trkpt lat="46.4752" lon="8.2388">
        <ele>1495</ele>
        <time>2020-07-16T13:45:06.579Z</time>
      </trkpt>
      <trkpt lat="46.47519" lon="8.23879">
        <ele>1494</ele>
        <time>2020-07-16T13:45:07.579Z</time>
      </trkpt>
      <trkpt lat="46.47518" lon="8.23878">
        <ele>1493</ele>
        <time>2020-07-16T13:45:08.578Z</time>
      </trkpt>
      <trkpt lat="46.47517" lon="8.23878">
        <ele>1493</ele>
        <time>2020-07-16T13:45:09.579Z</time>
      </trkpt>
      <trkpt lat="46.47516" lon="8.23877">
        <ele>1492</ele>
        <time>2020-07-16T13:45:10.579Z</time>
      </trkpt>
      <trkpt lat="46.47515" lon="8.23876">
        <ele>1491</ele>
        <time>2020-07-16T13:45:11.579Z</time>
      </trkpt>
      <trkpt lat="46.47514" lon="8.23875">
        <ele>1491</ele>
        <time>2020-07-16T13:45:12.579Z</time>
      </trkpt>
      <trkpt lat="46.47513" lon="8.23874">
        <ele>1490</ele>
        <time>2020-07-16T13:45:13.578Z</time>
      </trkpt>
      <trkpt lat="46.47513" lon="8.23874">
        <ele>1490</ele>
        <time>2020-07-16T13:45:14.578Z</time>
      </trkpt>
      <trkpt lat="46.47512" lon="8.23873">
        <ele>1490</ele>
        <time>2020-07-16T13:45:15.579Z</time>
      </trkpt>
      <trkpt lat="46.47511" lon="8.23872">
        <ele>1490</ele>
        <time>2020-07-16T13:45:16.579Z</time>
      </trkpt>
      <trkpt lat="46.4751" lon="8.23871">
        <ele>1491</ele>
        <time>2020-07-16T13:45:17.579Z</time>
      </trkpt>
      <trkpt lat="46.47509" lon="8.23871">
        <ele>1491</ele>
        <time>2020-07-16T13:45:18.579Z</time>
      </trkpt>
      <trkpt lat="46.47508" lon="8.2387">
        <ele>1491</ele>
        <time>2020-07-16T13:45:19.579Z</time>
      </trkpt>
      <trkpt lat="46.47507" lon="8.2387">
        <ele>1491</ele>
        <time>2020-07-16T13:45:20.579Z</time>
      </trkpt>
      <trkpt lat="46.47505" lon="8.23869">
        <ele>1491</ele>
        <time>2020-07-16T13:45:21.579Z</time>
      </trkpt>
      <trkpt lat="46.47504" lon="8.23869">
        <ele>1491</ele>
        <time>2020-07-16T13:45:22.578Z</time>
      </trkpt>
      <trkpt lat="46.47503" lon="8.23869">
        <ele>1491</ele>
        <time>2020-07-16T13:45:23.578Z</time>
      </trkpt>
      <trkpt lat="46.47501" lon="8.23868">
        <ele>1491</ele>
        <time>2020-07-16T13:45:24.579Z</time>
      </trkpt>
      <trkpt lat="46.475" lon="8.23867">
        <ele>1491</ele>
        <time>2020-07-16T13:45:25.579Z</time>
      </trkpt>
      <trkpt lat="46.47499" lon="8.23867">
        <ele>1491</ele>
        <time>2020-07-16T13:45:26.579Z</time>
      </trkpt>
      <trkpt lat="46.47498" lon="8.23866">
        <ele>1491</ele>
        <time>2020-07-16T13:45:27.578Z</time>
      </trkpt>
      <trkpt lat="46.47497" lon="8.23865">
        <ele>1491</ele>
        <time>2020-07-16T13:45:28.578Z</time>
      </trkpt>
      <trkpt lat="46.47495" lon="8.23864">
        <ele>1491</ele>
        <time>2020-07-16T13:45:29.579Z</time>
      </trkpt>
      <trkpt lat="46.47494" lon="8.23863">
        <ele>1492</ele>
        <time>2020-07-16T13:45:30.579Z</time>
      </trkpt>
      <trkpt lat="46.47493" lon="8.23862">
        <ele>1493</ele>
        <time>2020-07-16T13:45:31.579Z</time>
      </trkpt>
      <trkpt lat="46.47492" lon="8.2386">
        <ele>1493</ele>
        <time>2020-07-16T13:45:32.579Z</time>
      </trkpt>
      <trkpt lat="46.47491" lon="8.2386">
        <ele>1494</ele>
        <time>2020-07-16T13:45:33.579Z</time>
      </trkpt>
      <trkpt lat="46.4749" lon="8.23858">
        <ele>1495</ele>
        <time>2020-07-16T13:45:34.579Z</time>
      </trkpt>
      <trkpt lat="46.47489" lon="8.23857">
        <ele>1495</ele>
        <time>2020-07-16T13:45:35.578Z</time>
      </trkpt>
      <trkpt lat="46.47489" lon="8.23856">
        <ele>1496</ele>
        <time>2020-07-16T13:45:36.578Z</time>
      </trkpt>
      <trkpt lat="46.47488" lon="8.23855">
        <ele>1496</ele>
        <time>2020-07-16T13:45:37.578Z</time>
      </trkpt>
      <trkpt lat="46.47486" lon="8.23854">
        <ele>1497</ele>
        <time>2020-07-16T13:45:38.578Z</time>
      </trkpt>
      <trkpt lat="46.47485" lon="8.23853">
        <ele>1498</ele>
        <time>2020-07-16T13:45:39.578Z</time>
      </trkpt>
      <trkpt lat="46.47484" lon="8.23852">
        <ele>1498</ele>
        <time>2020-07-16T13:45:40.578Z</time>
      </trkpt>
      <trkpt lat="46.47483" lon="8.23851">
        <ele>1499</ele>
        <time>2020-07-16T13:45:41.578Z</time>
      </trkpt>
      <trkpt lat="46.47482" lon="8.2385">
        <ele>1499</ele>
        <time>2020-07-16T13:45:42.578Z</time>
      </trkpt>
      <trkpt lat="46.47481" lon="8.23849">
        <ele>1500</ele>
        <time>2020-07-16T13:45:43.578Z</time>
      </trkpt>
      <trkpt lat="46.4748" lon="8.23848">
        <ele>1500</ele>
        <time>2020-07-16T13:45:44.578Z</time>
      </trkpt>
      <trkpt lat="46.47479" lon="8.23847">
        <ele>1501</ele>
        <time>2020-07-16T13:45:45.579Z</time>
      </trkpt>
      <trkpt lat="46.47478" lon="8.23847">
        <ele>1501</ele>
        <time>2020-07-16T13:45:46.579Z</time>
      </trkpt>
      <trkpt lat="46.47477" lon="8.23847">
        <ele>1502</ele>
        <time>2020-07-16T13:45:47.578Z</time>
      </trkpt>
      <trkpt lat="46.47476" lon="8.23847">
        <ele>1502</ele>
        <time>2020-07-16T13:45:48.579Z</time>
      </trkpt>
      <trkpt lat="46.47475" lon="8.23846">
        <ele>1502</ele>
        <time>2020-07-16T13:45:49.579Z</time>
      </trkpt>
      <trkpt lat="46.47474" lon="8.23845">
        <ele>1503</ele>
        <time>2020-07-16T13:45:50.579Z</time>
      </trkpt>
      <trkpt lat="46.47474" lon="8.23843">
        <ele>1503</ele>
        <time>2020-07-16T13:45:51.578Z</time>
      </trkpt>
      <trkpt lat="46.47473" lon="8.23842">
        <ele>1503</ele>
        <time>2020-07-16T13:45:52.579Z</time>
      </trkpt>
      <trkpt lat="46.47472" lon="8.2384">
        <ele>1503</ele>
        <time>2020-07-16T13:45:53.578Z</time>
      </trkpt>
      <trkpt lat="46.4747" lon="8.23839">
        <ele>1504</ele>
        <time>2020-07-16T13:45:54.578Z</time>
      </trkpt>
      <trkpt lat="46.47469" lon="8.23838">
        <ele>1503</ele>
        <time>2020-07-16T13:45:55.578Z</time>
      </trkpt>
      <trkpt lat="46.47468" lon="8.23837">
        <ele>1504</ele>
        <time>2020-07-16T13:45:56.579Z</time>
      </trkpt>
      <trkpt lat="46.47467" lon="8.23836">
        <ele>1503</ele>
        <time>2020-07-16T13:45:57.578Z</time>
      </trkpt>
      <trkpt lat="46.47466" lon="8.23835">
        <ele>1504</ele>
        <time>2020-07-16T13:45:58.579Z</time>
      </trkpt>
      <trkpt lat="46.47465" lon="8.23833">
        <ele>1504</ele>
        <time>2020-07-16T13:45:59.578Z</time>
      </trkpt>
      <trkpt lat="46.47464" lon="8.23832">
        <ele>1504</ele>
        <time>2020-07-16T13:46:00.579Z</time>
      </trkpt>
      <trkpt lat="46.47463" lon="8.2383">
        <ele>1504</ele>
        <time>2020-07-16T13:46:01.579Z</time>
      </trkpt>
      <trkpt lat="46.47462" lon="8.23829">
        <ele>1503</ele>
        <time>2020-07-16T13:46:02.579Z</time>
      </trkpt>
      <trkpt lat="46.47461" lon="8.23827">
        <ele>1502</ele>
        <time>2020-07-16T13:46:03.579Z</time>
      </trkpt>
      <trkpt lat="46.4746" lon="8.23826">
        <ele>1502</ele>
        <time>2020-07-16T13:46:04.579Z</time>
      </trkpt>
      <trkpt lat="46.47459" lon="8.23825">
        <ele>1501</ele>
        <time>2020-07-16T13:46:05.579Z</time>
      </trkpt>
      <trkpt lat="46.47459" lon="8.23825">
        <ele>1501</ele>
        <time>2020-07-16T13:46:06.578Z</time>
      </trkpt>
      <trkpt lat="46.47458" lon="8.23825">
        <ele>1501</ele>
        <time>2020-07-16T13:46:07.579Z</time>
      </trkpt>
      <trkpt lat="46.47457" lon="8.23824">
        <ele>1500</ele>
        <time>2020-07-16T13:46:08.579Z</time>
      </trkpt>
      <trkpt lat="46.47456" lon="8.23823">
        <ele>1500</ele>
        <time>2020-07-16T13:46:09.578Z</time>
      </trkpt>
      <trkpt lat="46.47456" lon="8.23823">
        <ele>1500</ele>
        <time>2020-07-16T13:46:10.579Z</time>
      </trkpt>
      <trkpt lat="46.47455" lon="8.23822">
        <ele>1499</ele>
        <time>2020-07-16T13:46:11.579Z</time>
      </trkpt>
      <trkpt lat="46.47454" lon="8.23822">
        <ele>1499</ele>
        <time>2020-07-16T13:46:12.578Z</time>
      </trkpt>
      <trkpt lat="46.47453" lon="8.23821">
        <ele>1498</ele>
        <time>2020-07-16T13:46:13.578Z</time>
      </trkpt>
      <trkpt lat="46.47452" lon="8.2382">
        <ele>1498</ele>
        <time>2020-07-16T13:46:14.579Z</time>
      </trkpt>
      <trkpt lat="46.47451" lon="8.23819">
        <ele>1498</ele>
        <time>2020-07-16T13:46:15.579Z</time>
      </trkpt>
      <trkpt lat="46.47451" lon="8.23818">
        <ele>1497</ele>
        <time>2020-07-16T13:46:16.579Z</time>
      </trkpt>
      <trkpt lat="46.4745" lon="8.23817">
        <ele>1497</ele>
        <time>2020-07-16T13:46:17.579Z</time>
      </trkpt>
      <trkpt lat="46.47449" lon="8.23816">
        <ele>1496</ele>
        <time>2020-07-16T13:46:18.579Z</time>
      </trkpt>
      <trkpt lat="46.47449" lon="8.23814">
        <ele>1495</ele>
        <time>2020-07-16T13:46:19.578Z</time>
      </trkpt>
      <trkpt lat="46.47448" lon="8.23813">
        <ele>1495</ele>
        <time>2020-07-16T13:46:20.579Z</time>
      </trkpt>
      <trkpt lat="46.47447" lon="8.23812">
        <ele>1495</ele>
        <time>2020-07-16T13:46:21.578Z</time>
      </trkpt>
      <trkpt lat="46.47447" lon="8.23812">
        <ele>1494</ele>
        <time>2020-07-16T13:46:22.579Z</time>
      </trkpt>
      <trkpt lat="46.47445" lon="8.2381">
        <ele>1494</ele>
        <time>2020-07-16T13:46:23.579Z</time>
      </trkpt>
      <trkpt lat="46.47444" lon="8.23809">
        <ele>1494</ele>
        <time>2020-07-16T13:46:24.579Z</time>
      </trkpt>
      <trkpt lat="46.47443" lon="8.23809">
        <ele>1494</ele>
        <time>2020-07-16T13:46:25.579Z</time>
      </trkpt>
      <trkpt lat="46.47442" lon="8.23809">
        <ele>1494</ele>
        <time>2020-07-16T13:46:26.579Z</time>
      </trkpt>
      <trkpt lat="46.47441" lon="8.23808">
        <ele>1494</ele>
        <time>2020-07-16T13:46:27.578Z</time>
      </trkpt>
      <trkpt lat="46.4744" lon="8.23807">
        <ele>1494</ele>
        <time>2020-07-16T13:46:28.578Z</time>
      </trkpt>
      <trkpt lat="46.47439" lon="8.23806">
        <ele>1494</ele>
        <time>2020-07-16T13:46:29.579Z</time>
      </trkpt>
      <trkpt lat="46.47438" lon="8.23804">
        <ele>1494</ele>
        <time>2020-07-16T13:46:30.578Z</time>
      </trkpt>
      <trkpt lat="46.47437" lon="8.23803">
        <ele>1494</ele>
        <time>2020-07-16T13:46:31.578Z</time>
      </trkpt>
      <trkpt lat="46.47437" lon="8.23802">
        <ele>1493</ele>
        <time>2020-07-16T13:46:32.579Z</time>
      </trkpt>
      <trkpt lat="46.47436" lon="8.23801">
        <ele>1493</ele>
        <time>2020-07-16T13:46:33.578Z</time>
      </trkpt>
      <trkpt lat="46.47435" lon="8.238">
        <ele>1492</ele>
        <time>2020-07-16T13:46:34.578Z</time>
      </trkpt>
      <trkpt lat="46.47435" lon="8.23799">
        <ele>1492</ele>
        <time>2020-07-16T13:46:35.578Z</time>
      </trkpt>
      <trkpt lat="46.47434" lon="8.23798">
        <ele>1492</ele>
        <time>2020-07-16T13:46:36.579Z</time>
      </trkpt>
      <trkpt lat="46.47433" lon="8.23797">
        <ele>1492</ele>
        <time>2020-07-16T13:46:37.579Z</time>
      </trkpt>
      <trkpt lat="46.47432" lon="8.23796">
        <ele>1492</ele>
        <time>2020-07-16T13:46:38.578Z</time>
      </trkpt>
      <trkpt lat="46.47431" lon="8.23796">
        <ele>1492</ele>
        <time>2020-07-16T13:46:39.579Z</time>
      </trkpt>
      <trkpt lat="46.47431" lon="8.23795">
        <ele>1492</ele>
        <time>2020-07-16T13:46:40.578Z</time>
      </trkpt>
      <trkpt lat="46.4743" lon="8.23793">
        <ele>1493</ele>
        <time>2020-07-16T13:46:41.579Z</time>
      </trkpt>
      <trkpt lat="46.47429" lon="8.23792">
        <ele>1493</ele>
        <time>2020-07-16T13:46:42.579Z</time>
      </trkpt>
      <trkpt lat="46.47428" lon="8.2379">
        <ele>1492</ele>
        <time>2020-07-16T13:46:43.578Z</time>
      </trkpt>
      <trkpt lat="46.47427" lon="8.23788">
        <ele>1491</ele>
        <time>2020-07-16T13:46:44.579Z</time>
      </trkpt>
      <trkpt lat="46.47426" lon="8.23787">
        <ele>1491</ele>
        <time>2020-07-16T13:46:45.578Z</time>
      </trkpt>
      <trkpt lat="46.47425" lon="8.23787">
        <ele>1491</ele>
        <time>2020-07-16T13:46:46.578Z</time>
      </trkpt>
      <trkpt lat="46.47424" lon="8.23786">
        <ele>1490</ele>
        <time>2020-07-16T13:46:47.579Z</time>
      </trkpt>
      <trkpt lat="46.47423" lon="8.23785">
        <ele>1490</ele>
        <time>2020-07-16T13:46:48.579Z</time>
      </trkpt>
      <trkpt lat="46.47422" lon="8.23784">
        <ele>1490</ele>
        <time>2020-07-16T13:46:49.578Z</time>
      </trkpt>
      <trkpt lat="46.47421" lon="8.23783">
        <ele>1490</ele>
        <time>2020-07-16T13:46:50.579Z</time>
      </trkpt>
      <trkpt lat="46.4742" lon="8.23782">
        <ele>1490</ele>
        <time>2020-07-16T13:46:51.578Z</time>
      </trkpt>
      <trkpt lat="46.47419" lon="8.23781">
        <ele>1489</ele>
        <time>2020-07-16T13:46:52.579Z</time>
      </trkpt>
      <trkpt lat="46.47418" lon="8.2378">
        <ele>1489</ele>
        <time>2020-07-16T13:46:53.578Z</time>
      </trkpt>
      <trkpt lat="46.47417" lon="8.2378">
        <ele>1488</ele>
        <time>2020-07-16T13:46:54.579Z</time>
      </trkpt>
      <trkpt lat="46.47417" lon="8.23779">
        <ele>1488</ele>
        <time>2020-07-16T13:46:55.579Z</time>
      </trkpt>
      <trkpt lat="46.47416" lon="8.23778">
        <ele>1488</ele>
        <time>2020-07-16T13:46:56.578Z</time>
      </trkpt>
      <trkpt lat="46.47415" lon="8.23777">
        <ele>1488</ele>
        <time>2020-07-16T13:46:57.579Z</time>
      </trkpt>
      <trkpt lat="46.47414" lon="8.23776">
        <ele>1488</ele>
        <time>2020-07-16T13:46:58.579Z</time>
      </trkpt>
      <trkpt lat="46.47413" lon="8.23775">
        <ele>1488</ele>
        <time>2020-07-16T13:46:59.578Z</time>
      </trkpt>
      <trkpt lat="46.47412" lon="8.23775">
        <ele>1488</ele>
        <time>2020-07-16T13:47:00.578Z</time>
      </trkpt>
      <trkpt lat="46.47411" lon="8.23774">
        <ele>1488</ele>
        <time>2020-07-16T13:47:01.579Z</time>
      </trkpt>
      <trkpt lat="46.4741" lon="8.23773">
        <ele>1488</ele>
        <time>2020-07-16T13:47:02.578Z</time>
      </trkpt>
      <trkpt lat="46.47409" lon="8.23772">
        <ele>1487</ele>
        <time>2020-07-16T13:47:03.579Z</time>
      </trkpt>
      <trkpt lat="46.47408" lon="8.23772">
        <ele>1487</ele>
        <time>2020-07-16T13:47:04.579Z</time>
      </trkpt>
      <trkpt lat="46.47408" lon="8.23771">
        <ele>1487</ele>
        <time>2020-07-16T13:47:05.579Z</time>
      </trkpt>
      <trkpt lat="46.47407" lon="8.2377">
        <ele>1487</ele>
        <time>2020-07-16T13:47:06.578Z</time>
      </trkpt>
      <trkpt lat="46.47406" lon="8.23769">
        <ele>1487</ele>
        <time>2020-07-16T13:47:07.578Z</time>
      </trkpt>
      <trkpt lat="46.47405" lon="8.23769">
        <ele>1487</ele>
        <time>2020-07-16T13:47:08.578Z</time>
      </trkpt>
      <trkpt lat="46.47404" lon="8.23768">
        <ele>1488</ele>
        <time>2020-07-16T13:47:09.579Z</time>
      </trkpt>
      <trkpt lat="46.47403" lon="8.23767">
        <ele>1488</ele>
        <time>2020-07-16T13:47:10.578Z</time>
      </trkpt>
      <trkpt lat="46.47402" lon="8.23766">
        <ele>1487</ele>
        <time>2020-07-16T13:47:11.578Z</time>
      </trkpt>
      <trkpt lat="46.47401" lon="8.23765">
        <ele>1487</ele>
        <time>2020-07-16T13:47:12.579Z</time>
      </trkpt>
      <trkpt lat="46.47401" lon="8.23765">
        <ele>1487</ele>
        <time>2020-07-16T13:47:13.579Z</time>
      </trkpt>
      <trkpt lat="46.47399" lon="8.23763">
        <ele>1487</ele>
        <time>2020-07-16T13:47:14.578Z</time>
      </trkpt>
      <trkpt lat="46.47398" lon="8.23762">
        <ele>1486</ele>
        <time>2020-07-16T13:47:15.579Z</time>
      </trkpt>
      <trkpt lat="46.47397" lon="8.23761">
        <ele>1486</ele>
        <time>2020-07-16T13:47:16.579Z</time>
      </trkpt>
      <trkpt lat="46.47397" lon="8.2376">
        <ele>1486</ele>
        <time>2020-07-16T13:47:17.578Z</time>
      </trkpt>
      <trkpt lat="46.47396" lon="8.23759">
        <ele>1486</ele>
        <time>2020-07-16T13:47:18.579Z</time>
      </trkpt>
      <trkpt lat="46.47396" lon="8.23757">
        <ele>1485</ele>
        <time>2020-07-16T13:47:19.579Z</time>
      </trkpt>
      <trkpt lat="46.47395" lon="8.23756">
        <ele>1485</ele>
        <time>2020-07-16T13:47:20.579Z</time>
      </trkpt>
      <trkpt lat="46.47394" lon="8.23755">
        <ele>1485</ele>
        <time>2020-07-16T13:47:21.579Z</time>
      </trkpt>
      <trkpt lat="46.47394" lon="8.23754">
        <ele>1485</ele>
        <time>2020-07-16T13:47:22.579Z</time>
      </trkpt>
      <trkpt lat="46.47393" lon="8.23754">
        <ele>1485</ele>
        <time>2020-07-16T13:47:23.578Z</time>
      </trkpt>
      <trkpt lat="46.47391" lon="8.23753">
        <ele>1484</ele>
        <time>2020-07-16T13:47:24.578Z</time>
      </trkpt>
      <trkpt lat="46.4739" lon="8.23751">
        <ele>1483</ele>
        <time>2020-07-16T13:47:25.578Z</time>
      </trkpt>
      <trkpt lat="46.47389" lon="8.23751">
        <ele>1483</ele>
        <time>2020-07-16T13:47:26.579Z</time>
      </trkpt>
      <trkpt lat="46.47389" lon="8.23749">
        <ele>1482</ele>
        <time>2020-07-16T13:47:27.579Z</time>
      </trkpt>
      <trkpt lat="46.47388" lon="8.23748">
        <ele>1481</ele>
        <time>2020-07-16T13:47:28.578Z</time>
      </trkpt>
      <trkpt lat="46.47387" lon="8.23747">
        <ele>1481</ele>
        <time>2020-07-16T13:47:29.578Z</time>
      </trkpt>
      <trkpt lat="46.47386" lon="8.23746">
        <ele>1480</ele>
        <time>2020-07-16T13:47:30.578Z</time>
      </trkpt>
      <trkpt lat="46.47386" lon="8.23744">
        <ele>1480</ele>
        <time>2020-07-16T13:47:31.579Z</time>
      </trkpt>
      <trkpt lat="46.47385" lon="8.23743">
        <ele>1480</ele>
        <time>2020-07-16T13:47:32.579Z</time>
      </trkpt>
      <trkpt lat="46.47384" lon="8.23742">
        <ele>1479</ele>
        <time>2020-07-16T13:47:33.579Z</time>
      </trkpt>
      <trkpt lat="46.47384" lon="8.23741">
        <ele>1479</ele>
        <time>2020-07-16T13:47:34.578Z</time>
      </trkpt>
      <trkpt lat="46.47383" lon="8.2374">
        <ele>1478</ele>
        <time>2020-07-16T13:47:35.578Z</time>
      </trkpt>
      <trkpt lat="46.47382" lon="8.23738">
        <ele>1478</ele>
        <time>2020-07-16T13:47:36.579Z</time>
      </trkpt>
      <trkpt lat="46.47381" lon="8.23737">
        <ele>1478</ele>
        <time>2020-07-16T13:47:37.579Z</time>
      </trkpt>
      <trkpt lat="46.4738" lon="8.23736">
        <ele>1477</ele>
        <time>2020-07-16T13:47:38.579Z</time>
      </trkpt>
      <trkpt lat="46.47379" lon="8.23735">
        <ele>1477</ele>
        <time>2020-07-16T13:47:39.579Z</time>
      </trkpt>
      <trkpt lat="46.47379" lon="8.23734">
        <ele>1476</ele>
        <time>2020-07-16T13:47:40.578Z</time>
      </trkpt>
      <trkpt lat="46.47378" lon="8.23733">
        <ele>1476</ele>
        <time>2020-07-16T13:47:41.579Z</time>
      </trkpt>
      <trkpt lat="46.47377" lon="8.23732">
        <ele>1475</ele>
        <time>2020-07-16T13:47:42.578Z</time>
      </trkpt>
      <trkpt lat="46.47376" lon="8.23731">
        <ele>1475</ele>
        <time>2020-07-16T13:47:43.578Z</time>
      </trkpt>
      <trkpt lat="46.47376" lon="8.23729">
        <ele>1475</ele>
        <time>2020-07-16T13:47:44.579Z</time>
      </trkpt>
      <trkpt lat="46.47376" lon="8.23729">
        <ele>1475</ele>
        <time>2020-07-16T13:47:45.579Z</time>
      </trkpt>
      <trkpt lat="46.47377" lon="8.23729">
        <ele>1474</ele>
        <time>2020-07-16T13:47:46.579Z</time>
      </trkpt>
      <trkpt lat="46.47378" lon="8.23729">
        <ele>1474</ele>
        <time>2020-07-16T13:47:47.579Z</time>
      </trkpt>
      <trkpt lat="46.47378" lon="8.23728">
        <ele>1473</ele>
        <time>2020-07-16T13:47:48.578Z</time>
      </trkpt>
      <trkpt lat="46.47378" lon="8.23726">
        <ele>1473</ele>
        <time>2020-07-16T13:47:49.579Z</time>
      </trkpt>
      <trkpt lat="46.47379" lon="8.23724">
        <ele>1473</ele>
        <time>2020-07-16T13:47:50.580Z</time>
      </trkpt>
      <trkpt lat="46.47379" lon="8.23723">
        <ele>1473</ele>
        <time>2020-07-16T13:47:51.580Z</time>
      </trkpt>
      <trkpt lat="46.47379" lon="8.23721">
        <ele>1473</ele>
        <time>2020-07-16T13:47:52.579Z</time>
      </trkpt>
      <trkpt lat="46.47378" lon="8.2372">
        <ele>1473</ele>
        <time>2020-07-16T13:47:53.580Z</time>
      </trkpt>
      <trkpt lat="46.47377" lon="8.23719">
        <ele>1473</ele>
        <time>2020-07-16T13:47:54.580Z</time>
      </trkpt>
      <trkpt lat="46.47376" lon="8.23718">
        <ele>1474</ele>
        <time>2020-07-16T13:47:55.580Z</time>
      </trkpt>
      <trkpt lat="46.47376" lon="8.23717">
        <ele>1474</ele>
        <time>2020-07-16T13:47:56.579Z</time>
      </trkpt>
      <trkpt lat="46.47375" lon="8.23717">
        <ele>1474</ele>
        <time>2020-07-16T13:47:57.579Z</time>
      </trkpt>
      <trkpt lat="46.47373" lon="8.23716">
        <ele>1474</ele>
        <time>2020-07-16T13:47:58.580Z</time>
      </trkpt>
      <trkpt lat="46.47372" lon="8.23715">
        <ele>1474</ele>
        <time>2020-07-16T13:47:59.580Z</time>
      </trkpt>
      <trkpt lat="46.47371" lon="8.23714">
        <ele>1474</ele>
        <time>2020-07-16T13:48:00.580Z</time>
      </trkpt>
      <trkpt lat="46.4737" lon="8.23713">
        <ele>1475</ele>
        <time>2020-07-16T13:48:01.579Z</time>
      </trkpt>
      <trkpt lat="46.47369" lon="8.23712">
        <ele>1475</ele>
        <time>2020-07-16T13:48:02.580Z</time>
      </trkpt>
      <trkpt lat="46.47368" lon="8.2371">
        <ele>1476</ele>
        <time>2020-07-16T13:48:03.580Z</time>
      </trkpt>
      <trkpt lat="46.47367" lon="8.23709">
        <ele>1476</ele>
        <time>2020-07-16T13:48:04.580Z</time>
      </trkpt>
      <trkpt lat="46.47366" lon="8.23707">
        <ele>1477</ele>
        <time>2020-07-16T13:48:05.579Z</time>
      </trkpt>
      <trkpt lat="46.47365" lon="8.23706">
        <ele>1477</ele>
        <time>2020-07-16T13:48:06.580Z</time>
      </trkpt>
      <trkpt lat="46.47363" lon="8.23705">
        <ele>1476</ele>
        <time>2020-07-16T13:48:07.580Z</time>
      </trkpt>
      <trkpt lat="46.47362" lon="8.23703">
        <ele>1476</ele>
        <time>2020-07-16T13:48:08.580Z</time>
      </trkpt>
      <trkpt lat="46.47362" lon="8.23703">
        <ele>1476</ele>
        <time>2020-07-16T13:48:09.580Z</time>
      </trkpt>
      <trkpt lat="46.47361" lon="8.23702">
        <ele>1476</ele>
        <time>2020-07-16T13:48:10.580Z</time>
      </trkpt>
      <trkpt lat="46.4736" lon="8.23702">
        <ele>1476</ele>
        <time>2020-07-16T13:48:11.579Z</time>
      </trkpt>
      <trkpt lat="46.47359" lon="8.23701">
        <ele>1476</ele>
        <time>2020-07-16T13:48:12.580Z</time>
      </trkpt>
      <trkpt lat="46.47358" lon="8.23701">
        <ele>1476</ele>
        <time>2020-07-16T13:48:13.580Z</time>
      </trkpt>
      <trkpt lat="46.47357" lon="8.237">
        <ele>1476</ele>
        <time>2020-07-16T13:48:14.580Z</time>
      </trkpt>
      <trkpt lat="46.47356" lon="8.23699">
        <ele>1476</ele>
        <time>2020-07-16T13:48:15.580Z</time>
      </trkpt>
      <trkpt lat="46.47356" lon="8.23699">
        <ele>1477</ele>
        <time>2020-07-16T13:48:16.580Z</time>
      </trkpt>
      <trkpt lat="46.47355" lon="8.23698">
        <ele>1477</ele>
        <time>2020-07-16T13:48:17.579Z</time>
      </trkpt>
      <trkpt lat="46.47354" lon="8.23698">
        <ele>1478</ele>
        <time>2020-07-16T13:48:18.580Z</time>
      </trkpt>
      <trkpt lat="46.47354" lon="8.23697">
        <ele>1478</ele>
        <time>2020-07-16T13:48:19.580Z</time>
      </trkpt>
      <trkpt lat="46.47353" lon="8.23697">
        <ele>1478</ele>
        <time>2020-07-16T13:48:20.580Z</time>
      </trkpt>
      <trkpt lat="46.47353" lon="8.23696">
        <ele>1479</ele>
        <time>2020-07-16T13:48:21.579Z</time>
      </trkpt>
      <trkpt lat="46.47352" lon="8.23696">
        <ele>1480</ele>
        <time>2020-07-16T13:48:22.580Z</time>
      </trkpt>
      <trkpt lat="46.47351" lon="8.23695">
        <ele>1480</ele>
        <time>2020-07-16T13:48:23.581Z</time>
      </trkpt>
      <trkpt lat="46.4735" lon="8.23694">
        <ele>1480</ele>
        <time>2020-07-16T13:48:24.580Z</time>
      </trkpt>
      <trkpt lat="46.4735" lon="8.23694">
        <ele>1480</ele>
        <time>2020-07-16T13:48:25.580Z</time>
      </trkpt>
      <trkpt lat="46.47349" lon="8.23692">
        <ele>1480</ele>
        <time>2020-07-16T13:48:26.581Z</time>
      </trkpt>
      <trkpt lat="46.47348" lon="8.23692">
        <ele>1480</ele>
        <time>2020-07-16T13:48:27.581Z</time>
      </trkpt>
      <trkpt lat="46.47347" lon="8.2369">
        <ele>1479</ele>
        <time>2020-07-16T13:48:28.581Z</time>
      </trkpt>
      <trkpt lat="46.47346" lon="8.23689">
        <ele>1479</ele>
        <time>2020-07-16T13:48:29.581Z</time>
      </trkpt>
      <trkpt lat="46.47345" lon="8.23688">
        <ele>1479</ele>
        <time>2020-07-16T13:48:30.581Z</time>
      </trkpt>
      <trkpt lat="46.47344" lon="8.23688">
        <ele>1478</ele>
        <time>2020-07-16T13:48:31.580Z</time>
      </trkpt>
      <trkpt lat="46.47343" lon="8.23687">
        <ele>1478</ele>
        <time>2020-07-16T13:48:32.581Z</time>
      </trkpt>
      <trkpt lat="46.47342" lon="8.23686">
        <ele>1478</ele>
        <time>2020-07-16T13:48:33.581Z</time>
      </trkpt>
      <trkpt lat="46.47342" lon="8.23686">
        <ele>1478</ele>
        <time>2020-07-16T13:48:34.581Z</time>
      </trkpt>
      <trkpt lat="46.4734" lon="8.23683">
        <ele>1478</ele>
        <time>2020-07-16T13:48:35.581Z</time>
      </trkpt>
      <trkpt lat="46.47338" lon="8.23681">
        <ele>1478</ele>
        <time>2020-07-16T13:48:36.581Z</time>
      </trkpt>
      <trkpt lat="46.47336" lon="8.23679">
        <ele>1478</ele>
        <time>2020-07-16T13:48:37.580Z</time>
      </trkpt>
      <trkpt lat="46.47335" lon="8.23678">
        <ele>1477</ele>
        <time>2020-07-16T13:48:38.581Z</time>
      </trkpt>
      <trkpt lat="46.47334" lon="8.23677">
        <ele>1477</ele>
        <time>2020-07-16T13:48:39.581Z</time>
      </trkpt>
      <trkpt lat="46.47334" lon="8.23676">
        <ele>1478</ele>
        <time>2020-07-16T13:48:40.580Z</time>
      </trkpt>
      <trkpt lat="46.47333" lon="8.23676">
        <ele>1478</ele>
        <time>2020-07-16T13:48:41.580Z</time>
      </trkpt>
      <trkpt lat="46.47332" lon="8.23675">
        <ele>1478</ele>
        <time>2020-07-16T13:48:42.581Z</time>
      </trkpt>
      <trkpt lat="46.47331" lon="8.23674">
        <ele>1478</ele>
        <time>2020-07-16T13:48:43.581Z</time>
      </trkpt>
      <trkpt lat="46.4733" lon="8.23674">
        <ele>1478</ele>
        <time>2020-07-16T13:48:44.580Z</time>
      </trkpt>
      <trkpt lat="46.47329" lon="8.23673">
        <ele>1478</ele>
        <time>2020-07-16T13:48:45.581Z</time>
      </trkpt>
      <trkpt lat="46.47328" lon="8.23672">
        <ele>1478</ele>
        <time>2020-07-16T13:48:46.580Z</time>
      </trkpt>
      <trkpt lat="46.47327" lon="8.23672">
        <ele>1478</ele>
        <time>2020-07-16T13:48:47.581Z</time>
      </trkpt>
      <trkpt lat="46.47327" lon="8.23671">
        <ele>1478</ele>
        <time>2020-07-16T13:48:48.580Z</time>
      </trkpt>
      <trkpt lat="46.47326" lon="8.2367">
        <ele>1478</ele>
        <time>2020-07-16T13:48:49.580Z</time>
      </trkpt>
      <trkpt lat="46.47326" lon="8.23669">
        <ele>1478</ele>
        <time>2020-07-16T13:48:50.581Z</time>
      </trkpt>
      <trkpt lat="46.47325" lon="8.23668">
        <ele>1478</ele>
        <time>2020-07-16T13:48:51.581Z</time>
      </trkpt>
      <trkpt lat="46.47324" lon="8.23667">
        <ele>1477</ele>
        <time>2020-07-16T13:48:52.580Z</time>
      </trkpt>
      <trkpt lat="46.47324" lon="8.23666">
        <ele>1476</ele>
        <time>2020-07-16T13:48:53.581Z</time>
      </trkpt>
      <trkpt lat="46.47323" lon="8.23666">
        <ele>1475</ele>
        <time>2020-07-16T13:48:54.580Z</time>
      </trkpt>
      <trkpt lat="46.47322" lon="8.23665">
        <ele>1475</ele>
        <time>2020-07-16T13:48:55.581Z</time>
      </trkpt>
      <trkpt lat="46.47321" lon="8.23664">
        <ele>1475</ele>
        <time>2020-07-16T13:48:56.581Z</time>
      </trkpt>
      <trkpt lat="46.47321" lon="8.23664">
        <ele>1475</ele>
        <time>2020-07-16T13:48:57.580Z</time>
      </trkpt>
      <trkpt lat="46.4732" lon="8.23663">
        <ele>1474</ele>
        <time>2020-07-16T13:48:58.580Z</time>
      </trkpt>
      <trkpt lat="46.47319" lon="8.23662">
        <ele>1475</ele>
        <time>2020-07-16T13:48:59.581Z</time>
      </trkpt>
      <trkpt lat="46.47318" lon="8.23661">
        <ele>1475</ele>
        <time>2020-07-16T13:49:00.580Z</time>
      </trkpt>
      <trkpt lat="46.47317" lon="8.2366">
        <ele>1475</ele>
        <time>2020-07-16T13:49:01.581Z</time>
      </trkpt>
      <trkpt lat="46.47316" lon="8.2366">
        <ele>1476</ele>
        <time>2020-07-16T13:49:02.581Z</time>
      </trkpt>
      <trkpt lat="46.47316" lon="8.23659">
        <ele>1476</ele>
        <time>2020-07-16T13:49:03.581Z</time>
      </trkpt>
      <trkpt lat="46.47315" lon="8.23658">
        <ele>1477</ele>
        <time>2020-07-16T13:49:04.581Z</time>
      </trkpt>
      <trkpt lat="46.47314" lon="8.23657">
        <ele>1477</ele>
        <time>2020-07-16T13:49:05.580Z</time>
      </trkpt>
      <trkpt lat="46.47313" lon="8.23657">
        <ele>1477</ele>
        <time>2020-07-16T13:49:06.581Z</time>
      </trkpt>
      <trkpt lat="46.47312" lon="8.23656">
        <ele>1478</ele>
        <time>2020-07-16T13:49:07.580Z</time>
      </trkpt>
      <trkpt lat="46.47312" lon="8.23655">
        <ele>1477</ele>
        <time>2020-07-16T13:49:08.581Z</time>
      </trkpt>
      <trkpt lat="46.47312" lon="8.23654">
        <ele>1477</ele>
        <time>2020-07-16T13:49:09.580Z</time>
      </trkpt>
      <trkpt lat="46.47311" lon="8.23653">
        <ele>1476</ele>
        <time>2020-07-16T13:49:10.580Z</time>
      </trkpt>
      <trkpt lat="46.47311" lon="8.23652">
        <ele>1475</ele>
        <time>2020-07-16T13:49:11.581Z</time>
      </trkpt>
      <trkpt lat="46.4731" lon="8.23651">
        <ele>1475</ele>
        <time>2020-07-16T13:49:12.580Z</time>
      </trkpt>
      <trkpt lat="46.47309" lon="8.2365">
        <ele>1474</ele>
        <time>2020-07-16T13:49:13.581Z</time>
      </trkpt>
      <trkpt lat="46.47308" lon="8.23648">
        <ele>1474</ele>
        <time>2020-07-16T13:49:14.581Z</time>
      </trkpt>
      <trkpt lat="46.47307" lon="8.23647">
        <ele>1474</ele>
        <time>2020-07-16T13:49:15.581Z</time>
      </trkpt>
      <trkpt lat="46.47307" lon="8.23646">
        <ele>1474</ele>
        <time>2020-07-16T13:49:16.580Z</time>
      </trkpt>
      <trkpt lat="46.47306" lon="8.23645">
        <ele>1473</ele>
        <time>2020-07-16T13:49:17.580Z</time>
      </trkpt>
      <trkpt lat="46.47305" lon="8.23644">
        <ele>1473</ele>
        <time>2020-07-16T13:49:18.581Z</time>
      </trkpt>
      <trkpt lat="46.47305" lon="8.23643">
        <ele>1472</ele>
        <time>2020-07-16T13:49:19.581Z</time>
      </trkpt>
      <trkpt lat="46.47304" lon="8.23641">
        <ele>1471</ele>
        <time>2020-07-16T13:49:20.581Z</time>
      </trkpt>
      <trkpt lat="46.47303" lon="8.2364">
        <ele>1470</ele>
        <time>2020-07-16T13:49:21.581Z</time>
      </trkpt>
      <trkpt lat="46.47303" lon="8.23639">
        <ele>1469</ele>
        <time>2020-07-16T13:49:22.581Z</time>
      </trkpt>
      <trkpt lat="46.47302" lon="8.23637">
        <ele>1469</ele>
        <time>2020-07-16T13:49:23.581Z</time>
      </trkpt>
      <trkpt lat="46.47301" lon="8.23636">
        <ele>1468</ele>
        <time>2020-07-16T13:49:24.581Z</time>
      </trkpt>
      <trkpt lat="46.473" lon="8.23634">
        <ele>1468</ele>
        <time>2020-07-16T13:49:25.580Z</time>
      </trkpt>
      <trkpt lat="46.47299" lon="8.23632">
        <ele>1467</ele>
        <time>2020-07-16T13:49:26.580Z</time>
      </trkpt>
      <trkpt lat="46.47298" lon="8.23631">
        <ele>1467</ele>
        <time>2020-07-16T13:49:27.580Z</time>
      </trkpt>
      <trkpt lat="46.47298" lon="8.23629">
        <ele>1466</ele>
        <time>2020-07-16T13:49:28.581Z</time>
      </trkpt>
      <trkpt lat="46.47297" lon="8.23628">
        <ele>1466</ele>
        <time>2020-07-16T13:49:29.581Z</time>
      </trkpt>
      <trkpt lat="46.47296" lon="8.23627">
        <ele>1466</ele>
        <time>2020-07-16T13:49:30.581Z</time>
      </trkpt>
      <trkpt lat="46.47295" lon="8.23626">
        <ele>1466</ele>
        <time>2020-07-16T13:49:31.581Z</time>
      </trkpt>
      <trkpt lat="46.47295" lon="8.23625">
        <ele>1466</ele>
        <time>2020-07-16T13:49:32.581Z</time>
      </trkpt>
      <trkpt lat="46.47294" lon="8.23624">
        <ele>1466</ele>
        <time>2020-07-16T13:49:33.580Z</time>
      </trkpt>
      <trkpt lat="46.47293" lon="8.23623">
        <ele>1467</ele>
        <time>2020-07-16T13:49:34.581Z</time>
      </trkpt>
      <trkpt lat="46.47292" lon="8.23622">
        <ele>1467</ele>
        <time>2020-07-16T13:49:35.581Z</time>
      </trkpt>
      <trkpt lat="46.47292" lon="8.23621">
        <ele>1467</ele>
        <time>2020-07-16T13:49:36.581Z</time>
      </trkpt>
      <trkpt lat="46.47292" lon="8.2362">
        <ele>1467</ele>
        <time>2020-07-16T13:49:37.581Z</time>
      </trkpt>
      <trkpt lat="46.47291" lon="8.23619">
        <ele>1466</ele>
        <time>2020-07-16T13:49:38.581Z</time>
      </trkpt>
      <trkpt lat="46.4729" lon="8.23619">
        <ele>1466</ele>
        <time>2020-07-16T13:49:39.581Z</time>
      </trkpt>
      <trkpt lat="46.4729" lon="8.23619">
        <ele>1466</ele>
        <time>2020-07-16T13:49:40.581Z</time>
      </trkpt>
      <trkpt lat="46.47289" lon="8.23618">
        <ele>1466</ele>
        <time>2020-07-16T13:49:41.581Z</time>
      </trkpt>
      <trkpt lat="46.47287" lon="8.23616">
        <ele>1466</ele>
        <time>2020-07-16T13:49:42.582Z</time>
      </trkpt>
      <trkpt lat="46.47286" lon="8.23615">
        <ele>1466</ele>
        <time>2020-07-16T13:49:43.581Z</time>
      </trkpt>
      <trkpt lat="46.47285" lon="8.23614">
        <ele>1466</ele>
        <time>2020-07-16T13:49:44.582Z</time>
      </trkpt>
      <trkpt lat="46.47285" lon="8.23612">
        <ele>1466</ele>
        <time>2020-07-16T13:49:45.582Z</time>
      </trkpt>
      <trkpt lat="46.47284" lon="8.23611">
        <ele>1466</ele>
        <time>2020-07-16T13:49:46.582Z</time>
      </trkpt>
      <trkpt lat="46.47283" lon="8.2361">
        <ele>1466</ele>
        <time>2020-07-16T13:49:47.581Z</time>
      </trkpt>
      <trkpt lat="46.47283" lon="8.23609">
        <ele>1466</ele>
        <time>2020-07-16T13:49:48.582Z</time>
      </trkpt>
      <trkpt lat="46.47282" lon="8.23607">
        <ele>1467</ele>
        <time>2020-07-16T13:49:49.582Z</time>
      </trkpt>
      <trkpt lat="46.47281" lon="8.23606">
        <ele>1466</ele>
        <time>2020-07-16T13:49:50.581Z</time>
      </trkpt>
      <trkpt lat="46.4728" lon="8.23605">
        <ele>1466</ele>
        <time>2020-07-16T13:49:51.582Z</time>
      </trkpt>
      <trkpt lat="46.47279" lon="8.23604">
        <ele>1466</ele>
        <time>2020-07-16T13:49:52.581Z</time>
      </trkpt>
      <trkpt lat="46.47279" lon="8.23603">
        <ele>1466</ele>
        <time>2020-07-16T13:49:53.582Z</time>
      </trkpt>
      <trkpt lat="46.47278" lon="8.23601">
        <ele>1465</ele>
        <time>2020-07-16T13:49:54.582Z</time>
      </trkpt>
      <trkpt lat="46.47277" lon="8.236">
        <ele>1465</ele>
        <time>2020-07-16T13:49:55.582Z</time>
      </trkpt>
      <trkpt lat="46.47276" lon="8.23598">
        <ele>1465</ele>
        <time>2020-07-16T13:49:56.582Z</time>
      </trkpt>
      <trkpt lat="46.47276" lon="8.23597">
        <ele>1465</ele>
        <time>2020-07-16T13:49:57.581Z</time>
      </trkpt>
      <trkpt lat="46.47275" lon="8.23596">
        <ele>1465</ele>
        <time>2020-07-16T13:49:58.582Z</time>
      </trkpt>
      <trkpt lat="46.47274" lon="8.23595">
        <ele>1465</ele>
        <time>2020-07-16T13:49:59.582Z</time>
      </trkpt>
      <trkpt lat="46.47273" lon="8.23593">
        <ele>1465</ele>
        <time>2020-07-16T13:50:00.582Z</time>
      </trkpt>
      <trkpt lat="46.47273" lon="8.23592">
        <ele>1465</ele>
        <time>2020-07-16T13:50:01.582Z</time>
      </trkpt>
      <trkpt lat="46.47272" lon="8.2359">
        <ele>1465</ele>
        <time>2020-07-16T13:50:02.582Z</time>
      </trkpt>
      <trkpt lat="46.47272" lon="8.23589">
        <ele>1466</ele>
        <time>2020-07-16T13:50:03.581Z</time>
      </trkpt>
      <trkpt lat="46.47271" lon="8.23588">
        <ele>1466</ele>
        <time>2020-07-16T13:50:04.582Z</time>
      </trkpt>
      <trkpt lat="46.47271" lon="8.23586">
        <ele>1465</ele>
        <time>2020-07-16T13:50:05.582Z</time>
      </trkpt>
      <trkpt lat="46.4727" lon="8.23585">
        <ele>1466</ele>
        <time>2020-07-16T13:50:06.582Z</time>
      </trkpt>
      <trkpt lat="46.4727" lon="8.23584">
        <ele>1466</ele>
        <time>2020-07-16T13:50:07.582Z</time>
      </trkpt>
      <trkpt lat="46.4727" lon="8.23582">
        <ele>1466</ele>
        <time>2020-07-16T13:50:08.582Z</time>
      </trkpt>
      <trkpt lat="46.4727" lon="8.2358">
        <ele>1466</ele>
        <time>2020-07-16T13:50:09.582Z</time>
      </trkpt>
      <trkpt lat="46.47269" lon="8.23579">
        <ele>1466</ele>
        <time>2020-07-16T13:50:10.581Z</time>
      </trkpt>
      <trkpt lat="46.47268" lon="8.23577">
        <ele>1466</ele>
        <time>2020-07-16T13:50:11.582Z</time>
      </trkpt>
      <trkpt lat="46.47267" lon="8.23575">
        <ele>1466</ele>
        <time>2020-07-16T13:50:12.581Z</time>
      </trkpt>
      <trkpt lat="46.47267" lon="8.23573">
        <ele>1466</ele>
        <time>2020-07-16T13:50:13.582Z</time>
      </trkpt>
      <trkpt lat="46.47267" lon="8.2357">
        <ele>1465</ele>
        <time>2020-07-16T13:50:14.582Z</time>
      </trkpt>
      <trkpt lat="46.47266" lon="8.23569">
        <ele>1466</ele>
        <time>2020-07-16T13:50:15.582Z</time>
      </trkpt>
      <trkpt lat="46.47265" lon="8.23568">
        <ele>1466</ele>
        <time>2020-07-16T13:50:16.581Z</time>
      </trkpt>
      <trkpt lat="46.47265" lon="8.23566">
        <ele>1466</ele>
        <time>2020-07-16T13:50:17.581Z</time>
      </trkpt>
      <trkpt lat="46.47264" lon="8.23565">
        <ele>1466</ele>
        <time>2020-07-16T13:50:18.582Z</time>
      </trkpt>
      <trkpt lat="46.47263" lon="8.23563">
        <ele>1466</ele>
        <time>2020-07-16T13:50:19.581Z</time>
      </trkpt>
      <trkpt lat="46.47262" lon="8.23562">
        <ele>1465</ele>
        <time>2020-07-16T13:50:20.582Z</time>
      </trkpt>
      <trkpt lat="46.47262" lon="8.23561">
        <ele>1465</ele>
        <time>2020-07-16T13:50:21.582Z</time>
      </trkpt>
      <trkpt lat="46.47262" lon="8.23559">
        <ele>1465</ele>
        <time>2020-07-16T13:50:22.581Z</time>
      </trkpt>
      <trkpt lat="46.47261" lon="8.23559">
        <ele>1464</ele>
        <time>2020-07-16T13:50:23.581Z</time>
      </trkpt>
      <trkpt lat="46.47261" lon="8.23557">
        <ele>1465</ele>
        <time>2020-07-16T13:50:24.582Z</time>
      </trkpt>
      <trkpt lat="46.4726" lon="8.23556">
        <ele>1465</ele>
        <time>2020-07-16T13:50:25.582Z</time>
      </trkpt>
      <trkpt lat="46.4726" lon="8.23555">
        <ele>1465</ele>
        <time>2020-07-16T13:50:26.582Z</time>
      </trkpt>
      <trkpt lat="46.47259" lon="8.23554">
        <ele>1465</ele>
        <time>2020-07-16T13:50:27.581Z</time>
      </trkpt>
      <trkpt lat="46.47259" lon="8.23554">
        <ele>1465</ele>
        <time>2020-07-16T13:50:28.582Z</time>
      </trkpt>
      <trkpt lat="46.47258" lon="8.23553">
        <ele>1465</ele>
        <time>2020-07-16T13:50:29.582Z</time>
      </trkpt>
      <trkpt lat="46.47258" lon="8.23552">
        <ele>1465</ele>
        <time>2020-07-16T13:50:30.582Z</time>
      </trkpt>
      <trkpt lat="46.47257" lon="8.23551">
        <ele>1464</ele>
        <time>2020-07-16T13:50:31.581Z</time>
      </trkpt>
      <trkpt lat="46.47256" lon="8.23549">
        <ele>1464</ele>
        <time>2020-07-16T13:50:32.581Z</time>
      </trkpt>
      <trkpt lat="46.47255" lon="8.23548">
        <ele>1464</ele>
        <time>2020-07-16T13:50:33.581Z</time>
      </trkpt>
      <trkpt lat="46.47255" lon="8.23546">
        <ele>1463</ele>
        <time>2020-07-16T13:50:34.582Z</time>
      </trkpt>
      <trkpt lat="46.47254" lon="8.23545">
        <ele>1463</ele>
        <time>2020-07-16T13:50:35.582Z</time>
      </trkpt>
      <trkpt lat="46.47253" lon="8.23544">
        <ele>1463</ele>
        <time>2020-07-16T13:50:36.581Z</time>
      </trkpt>
      <trkpt lat="46.47252" lon="8.23544">
        <ele>1462</ele>
        <time>2020-07-16T13:50:37.582Z</time>
      </trkpt>
      <trkpt lat="46.4725" lon="8.23544">
        <ele>1462</ele>
        <time>2020-07-16T13:50:38.582Z</time>
      </trkpt>
      <trkpt lat="46.47249" lon="8.23544">
        <ele>1461</ele>
        <time>2020-07-16T13:50:39.582Z</time>
      </trkpt>
      <trkpt lat="46.47248" lon="8.23544">
        <ele>1461</ele>
        <time>2020-07-16T13:50:40.582Z</time>
      </trkpt>
      <trkpt lat="46.47246" lon="8.23544">
        <ele>1461</ele>
        <time>2020-07-16T13:50:41.581Z</time>
      </trkpt>
      <trkpt lat="46.47245" lon="8.23545">
        <ele>1461</ele>
        <time>2020-07-16T13:50:42.581Z</time>
      </trkpt>
      <trkpt lat="46.47244" lon="8.23546">
        <ele>1461</ele>
        <time>2020-07-16T13:50:43.582Z</time>
      </trkpt>
      <trkpt lat="46.47243" lon="8.23547">
        <ele>1461</ele>
        <time>2020-07-16T13:50:44.582Z</time>
      </trkpt>
      <trkpt lat="46.47243" lon="8.23549">
        <ele>1461</ele>
        <time>2020-07-16T13:50:45.582Z</time>
      </trkpt>
      <trkpt lat="46.47243" lon="8.2355">
        <ele>1461</ele>
        <time>2020-07-16T13:50:46.582Z</time>
      </trkpt>
      <trkpt lat="46.47243" lon="8.23552">
        <ele>1460</ele>
        <time>2020-07-16T13:50:47.582Z</time>
      </trkpt>
      <trkpt lat="46.47243" lon="8.23553">
        <ele>1460</ele>
        <time>2020-07-16T13:50:48.582Z</time>
      </trkpt>
      <trkpt lat="46.47244" lon="8.23555">
        <ele>1460</ele>
        <time>2020-07-16T13:50:49.582Z</time>
      </trkpt>
      <trkpt lat="46.47244" lon="8.23556">
        <ele>1460</ele>
        <time>2020-07-16T13:50:50.582Z</time>
      </trkpt>
      <trkpt lat="46.47245" lon="8.23557">
        <ele>1461</ele>
        <time>2020-07-16T13:50:51.581Z</time>
      </trkpt>
      <trkpt lat="46.47246" lon="8.23558">
        <ele>1461</ele>
        <time>2020-07-16T13:50:52.582Z</time>
      </trkpt>
      <trkpt lat="46.47246" lon="8.23559">
        <ele>1462</ele>
        <time>2020-07-16T13:50:53.581Z</time>
      </trkpt>
      <trkpt lat="46.47246" lon="8.23561">
        <ele>1462</ele>
        <time>2020-07-16T13:50:54.581Z</time>
      </trkpt>
      <trkpt lat="46.47246" lon="8.23563">
        <ele>1462</ele>
        <time>2020-07-16T13:50:55.581Z</time>
      </trkpt>
      <trkpt lat="46.47247" lon="8.23566">
        <ele>1462</ele>
        <time>2020-07-16T13:50:56.581Z</time>
      </trkpt>
      <trkpt lat="46.47247" lon="8.23569">
        <ele>1463</ele>
        <time>2020-07-16T13:50:57.582Z</time>
      </trkpt>
      <trkpt lat="46.47247" lon="8.2357">
        <ele>1463</ele>
        <time>2020-07-16T13:50:58.582Z</time>
      </trkpt>
      <trkpt lat="46.47248" lon="8.2357">
        <ele>1463</ele>
        <time>2020-07-16T13:50:59.582Z</time>
      </trkpt>
      <trkpt lat="46.47248" lon="8.23571">
        <ele>1464</ele>
        <time>2020-07-16T13:51:00.582Z</time>
      </trkpt>
      <trkpt lat="46.47249" lon="8.23571">
        <ele>1464</ele>
        <time>2020-07-16T13:51:01.582Z</time>
      </trkpt>
      <trkpt lat="46.4725" lon="8.23571">
        <ele>1465</ele>
        <time>2020-07-16T13:51:02.582Z</time>
      </trkpt>
      <trkpt lat="46.47251" lon="8.23572">
        <ele>1465</ele>
        <time>2020-07-16T13:51:03.582Z</time>
      </trkpt>
      <trkpt lat="46.47252" lon="8.23573">
        <ele>1464</ele>
        <time>2020-07-16T13:51:04.583Z</time>
      </trkpt>
      <trkpt lat="46.47252" lon="8.23574">
        <ele>1464</ele>
        <time>2020-07-16T13:51:05.582Z</time>
      </trkpt>
      <trkpt lat="46.47253" lon="8.23575">
        <ele>1464</ele>
        <time>2020-07-16T13:51:06.583Z</time>
      </trkpt>
      <trkpt lat="46.47253" lon="8.23577">
        <ele>1464</ele>
        <time>2020-07-16T13:51:07.583Z</time>
      </trkpt>
      <trkpt lat="46.47254" lon="8.23578">
        <ele>1463</ele>
        <time>2020-07-16T13:51:08.583Z</time>
      </trkpt>
      <trkpt lat="46.47255" lon="8.23579">
        <ele>1463</ele>
        <time>2020-07-16T13:51:09.583Z</time>
      </trkpt>
      <trkpt lat="46.47255" lon="8.2358">
        <ele>1463</ele>
        <time>2020-07-16T13:51:10.583Z</time>
      </trkpt>
      <trkpt lat="46.47256" lon="8.2358">
        <ele>1462</ele>
        <time>2020-07-16T13:51:11.582Z</time>
      </trkpt>
      <trkpt lat="46.47256" lon="8.23582">
        <ele>1462</ele>
        <time>2020-07-16T13:51:12.582Z</time>
      </trkpt>
      <trkpt lat="46.47257" lon="8.23583">
        <ele>1462</ele>
        <time>2020-07-16T13:51:13.583Z</time>
      </trkpt>
      <trkpt lat="46.47257" lon="8.23584">
        <ele>1461</ele>
        <time>2020-07-16T13:51:14.583Z</time>
      </trkpt>
      <trkpt lat="46.47258" lon="8.23586">
        <ele>1461</ele>
        <time>2020-07-16T13:51:15.582Z</time>
      </trkpt>
      <trkpt lat="46.47258" lon="8.23586">
        <ele>1460</ele>
        <time>2020-07-16T13:51:16.583Z</time>
      </trkpt>
      <trkpt lat="46.47258" lon="8.23588">
        <ele>1460</ele>
        <time>2020-07-16T13:51:17.583Z</time>
      </trkpt>
      <trkpt lat="46.47258" lon="8.23589">
        <ele>1460</ele>
        <time>2020-07-16T13:51:18.582Z</time>
      </trkpt>
      <trkpt lat="46.47259" lon="8.2359">
        <ele>1460</ele>
        <time>2020-07-16T13:51:19.583Z</time>
      </trkpt>
      <trkpt lat="46.47259" lon="8.23591">
        <ele>1460</ele>
        <time>2020-07-16T13:51:20.582Z</time>
      </trkpt>
      <trkpt lat="46.47259" lon="8.23592">
        <ele>1459</ele>
        <time>2020-07-16T13:51:21.582Z</time>
      </trkpt>
      <trkpt lat="46.4726" lon="8.23593">
        <ele>1459</ele>
        <time>2020-07-16T13:51:22.583Z</time>
      </trkpt>
      <trkpt lat="46.4726" lon="8.23594">
        <ele>1458</ele>
        <time>2020-07-16T13:51:23.583Z</time>
      </trkpt>
      <trkpt lat="46.4726" lon="8.23595">
        <ele>1458</ele>
        <time>2020-07-16T13:51:24.582Z</time>
      </trkpt>
      <trkpt lat="46.4726" lon="8.23596">
        <ele>1458</ele>
        <time>2020-07-16T13:51:25.583Z</time>
      </trkpt>
      <trkpt lat="46.47261" lon="8.23597">
        <ele>1457</ele>
        <time>2020-07-16T13:51:26.583Z</time>
      </trkpt>
      <trkpt lat="46.47261" lon="8.23599">
        <ele>1457</ele>
        <time>2020-07-16T13:51:27.583Z</time>
      </trkpt>
      <trkpt lat="46.47261" lon="8.236">
        <ele>1457</ele>
        <time>2020-07-16T13:51:28.583Z</time>
      </trkpt>
      <trkpt lat="46.47261" lon="8.23602">
        <ele>1457</ele>
        <time>2020-07-16T13:51:29.583Z</time>
      </trkpt>
      <trkpt lat="46.47261" lon="8.23603">
        <ele>1457</ele>
        <time>2020-07-16T13:51:30.583Z</time>
      </trkpt>
      <trkpt lat="46.47261" lon="8.23604">
        <ele>1458</ele>
        <time>2020-07-16T13:51:31.582Z</time>
      </trkpt>
      <trkpt lat="46.47261" lon="8.23606">
        <ele>1458</ele>
        <time>2020-07-16T13:51:32.582Z</time>
      </trkpt>
      <trkpt lat="46.47261" lon="8.23608">
        <ele>1458</ele>
        <time>2020-07-16T13:51:33.582Z</time>
      </trkpt>
      <trkpt lat="46.47262" lon="8.23609">
        <ele>1458</ele>
        <time>2020-07-16T13:51:34.583Z</time>
      </trkpt>
      <trkpt lat="46.47262" lon="8.2361">
        <ele>1458</ele>
        <time>2020-07-16T13:51:35.583Z</time>
      </trkpt>
      <trkpt lat="46.47261" lon="8.2361">
        <ele>1459</ele>
        <time>2020-07-16T13:51:36.583Z</time>
      </trkpt>
      <trkpt lat="46.4726" lon="8.2361">
        <ele>1459</ele>
        <time>2020-07-16T13:51:37.583Z</time>
      </trkpt>
      <trkpt lat="46.4726" lon="8.23609">
        <ele>1459</ele>
        <time>2020-07-16T13:51:38.583Z</time>
      </trkpt>
      <trkpt lat="46.47259" lon="8.23609">
        <ele>1460</ele>
        <time>2020-07-16T13:51:39.583Z</time>
      </trkpt>
      <trkpt lat="46.47257" lon="8.2361">
        <ele>1466</ele>
        <time>2020-07-16T13:51:40.584Z</time>
      </trkpt>
      <trkpt lat="46.47256" lon="8.2361">
        <ele>1468</ele>
        <time>2020-07-16T13:51:41.583Z</time>
      </trkpt>
      <trkpt lat="46.47252" lon="8.23608">
        <ele>1475</ele>
        <time>2020-07-16T13:51:42.583Z</time>
      </trkpt>
      <trkpt lat="46.47252" lon="8.23608">
        <ele>1475</ele>
        <time>2020-07-16T13:51:43.584Z</time>
      </trkpt>
      <trkpt lat="46.47252" lon="8.23608">
        <ele>1475</ele>
        <time>2020-07-16T13:51:44.584Z</time>
      </trkpt>
      <trkpt lat="46.47253" lon="8.23608">
        <ele>1475</ele>
        <time>2020-07-16T13:51:45.584Z</time>
      </trkpt>
      <trkpt lat="46.47253" lon="8.23608">
        <ele>1474</ele>
        <time>2020-07-16T13:51:46.583Z</time>
      </trkpt>
      <trkpt lat="46.47253" lon="8.23607">
        <ele>1473</ele>
        <time>2020-07-16T13:51:47.584Z</time>
      </trkpt>
      <trkpt lat="46.47254" lon="8.23609">
        <ele>1471</ele>
        <time>2020-07-16T13:51:48.583Z</time>
      </trkpt>
      <trkpt lat="46.47255" lon="8.2361">
        <ele>1469</ele>
        <time>2020-07-16T13:51:49.584Z</time>
      </trkpt>
      <trkpt lat="46.47255" lon="8.23611">
        <ele>1468</ele>
        <time>2020-07-16T13:51:50.583Z</time>
      </trkpt>
      <trkpt lat="46.47259" lon="8.23613">
        <ele>1462</ele>
        <time>2020-07-16T13:51:51.584Z</time>
      </trkpt>
      <trkpt lat="46.4726" lon="8.23614">
        <ele>1462</ele>
        <time>2020-07-16T13:51:52.584Z</time>
      </trkpt>
      <trkpt lat="46.47261" lon="8.23615">
        <ele>1462</ele>
        <time>2020-07-16T13:51:53.584Z</time>
      </trkpt>
      <trkpt lat="46.47262" lon="8.23617">
        <ele>1462</ele>
        <time>2020-07-16T13:51:54.584Z</time>
      </trkpt>
      <trkpt lat="46.47262" lon="8.23618">
        <ele>1462</ele>
        <time>2020-07-16T13:51:55.584Z</time>
      </trkpt>
      <trkpt lat="46.47263" lon="8.23619">
        <ele>1462</ele>
        <time>2020-07-16T13:51:56.584Z</time>
      </trkpt>
      <trkpt lat="46.47263" lon="8.2362">
        <ele>1461</ele>
        <time>2020-07-16T13:51:57.585Z</time>
      </trkpt>
      <trkpt lat="46.47264" lon="8.23622">
        <ele>1461</ele>
        <time>2020-07-16T13:51:58.584Z</time>
      </trkpt>
      <trkpt lat="46.47264" lon="8.23623">
        <ele>1461</ele>
        <time>2020-07-16T13:51:59.584Z</time>
      </trkpt>
      <trkpt lat="46.47265" lon="8.23624">
        <ele>1461</ele>
        <time>2020-07-16T13:52:00.584Z</time>
      </trkpt>
      <trkpt lat="46.47265" lon="8.23626">
        <ele>1462</ele>
        <time>2020-07-16T13:52:01.585Z</time>
      </trkpt>
      <trkpt lat="46.47266" lon="8.23627">
        <ele>1461</ele>
        <time>2020-07-16T13:52:02.584Z</time>
      </trkpt>
      <trkpt lat="46.47266" lon="8.23628">
        <ele>1461</ele>
        <time>2020-07-16T13:52:03.584Z</time>
      </trkpt>
      <trkpt lat="46.47267" lon="8.23629">
        <ele>1462</ele>
        <time>2020-07-16T13:52:04.585Z</time>
      </trkpt>
      <trkpt lat="46.47267" lon="8.2363">
        <ele>1462</ele>
        <time>2020-07-16T13:52:05.585Z</time>
      </trkpt>
      <trkpt lat="46.47268" lon="8.23632">
        <ele>1461</ele>
        <time>2020-07-16T13:52:06.584Z</time>
      </trkpt>
      <trkpt lat="46.47269" lon="8.23633">
        <ele>1461</ele>
        <time>2020-07-16T13:52:07.584Z</time>
      </trkpt>
      <trkpt lat="46.47269" lon="8.23634">
        <ele>1461</ele>
        <time>2020-07-16T13:52:08.584Z</time>
      </trkpt>
      <trkpt lat="46.4727" lon="8.23636">
        <ele>1461</ele>
        <time>2020-07-16T13:52:09.585Z</time>
      </trkpt>
      <trkpt lat="46.47271" lon="8.23637">
        <ele>1460</ele>
        <time>2020-07-16T13:52:10.585Z</time>
      </trkpt>
      <trkpt lat="46.47271" lon="8.23639">
        <ele>1460</ele>
        <time>2020-07-16T13:52:11.584Z</time>
      </trkpt>
      <trkpt lat="46.47272" lon="8.23641">
        <ele>1460</ele>
        <time>2020-07-16T13:52:12.584Z</time>
      </trkpt>
      <trkpt lat="46.47272" lon="8.23642">
        <ele>1459</ele>
        <time>2020-07-16T13:52:13.584Z</time>
      </trkpt>
      <trkpt lat="46.47273" lon="8.23643">
        <ele>1459</ele>
        <time>2020-07-16T13:52:14.584Z</time>
      </trkpt>
      <trkpt lat="46.47273" lon="8.23644">
        <ele>1460</ele>
        <time>2020-07-16T13:52:15.584Z</time>
      </trkpt>
      <trkpt lat="46.47274" lon="8.23646">
        <ele>1460</ele>
        <time>2020-07-16T13:52:16.584Z</time>
      </trkpt>
      <trkpt lat="46.47275" lon="8.23647">
        <ele>1460</ele>
        <time>2020-07-16T13:52:17.584Z</time>
      </trkpt>
      <trkpt lat="46.47275" lon="8.23649">
        <ele>1460</ele>
        <time>2020-07-16T13:52:18.584Z</time>
      </trkpt>
      <trkpt lat="46.47276" lon="8.23651">
        <ele>1460</ele>
        <time>2020-07-16T13:52:19.584Z</time>
      </trkpt>
      <trkpt lat="46.47276" lon="8.23653">
        <ele>1460</ele>
        <time>2020-07-16T13:52:20.584Z</time>
      </trkpt>
      <trkpt lat="46.47277" lon="8.23654">
        <ele>1460</ele>
        <time>2020-07-16T13:52:21.584Z</time>
      </trkpt>
      <trkpt lat="46.47278" lon="8.23656">
        <ele>1460</ele>
        <time>2020-07-16T13:52:22.585Z</time>
      </trkpt>
      <trkpt lat="46.47278" lon="8.23658">
        <ele>1460</ele>
        <time>2020-07-16T13:52:23.585Z</time>
      </trkpt>
      <trkpt lat="46.47279" lon="8.2366">
        <ele>1460</ele>
        <time>2020-07-16T13:52:24.585Z</time>
      </trkpt>
      <trkpt lat="46.4728" lon="8.23661">
        <ele>1461</ele>
        <time>2020-07-16T13:52:25.584Z</time>
      </trkpt>
      <trkpt lat="46.47281" lon="8.23663">
        <ele>1460</ele>
        <time>2020-07-16T13:52:26.584Z</time>
      </trkpt>
      <trkpt lat="46.47281" lon="8.23664">
        <ele>1460</ele>
        <time>2020-07-16T13:52:27.585Z</time>
      </trkpt>
      <trkpt lat="46.47281" lon="8.23666">
        <ele>1460</ele>
        <time>2020-07-16T13:52:28.584Z</time>
      </trkpt>
      <trkpt lat="46.47281" lon="8.23667">
        <ele>1460</ele>
        <time>2020-07-16T13:52:29.585Z</time>
      </trkpt>
      <trkpt lat="46.47282" lon="8.23669">
        <ele>1460</ele>
        <time>2020-07-16T13:52:30.584Z</time>
      </trkpt>
      <trkpt lat="46.47283" lon="8.2367">
        <ele>1460</ele>
        <time>2020-07-16T13:52:31.585Z</time>
      </trkpt>
      <trkpt lat="46.47284" lon="8.23671">
        <ele>1460</ele>
        <time>2020-07-16T13:52:32.584Z</time>
      </trkpt>
      <trkpt lat="46.47284" lon="8.23673">
        <ele>1460</ele>
        <time>2020-07-16T13:52:33.584Z</time>
      </trkpt>
      <trkpt lat="46.47285" lon="8.23674">
        <ele>1460</ele>
        <time>2020-07-16T13:52:34.584Z</time>
      </trkpt>
      <trkpt lat="46.47286" lon="8.23676">
        <ele>1460</ele>
        <time>2020-07-16T13:52:35.585Z</time>
      </trkpt>
      <trkpt lat="46.47287" lon="8.23678">
        <ele>1459</ele>
        <time>2020-07-16T13:52:36.585Z</time>
      </trkpt>
      <trkpt lat="46.47287" lon="8.23679">
        <ele>1459</ele>
        <time>2020-07-16T13:52:37.584Z</time>
      </trkpt>
      <trkpt lat="46.47288" lon="8.2368">
        <ele>1458</ele>
        <time>2020-07-16T13:52:38.584Z</time>
      </trkpt>
      <trkpt lat="46.47288" lon="8.23682">
        <ele>1457</ele>
        <time>2020-07-16T13:52:39.585Z</time>
      </trkpt>
      <trkpt lat="46.47289" lon="8.23684">
        <ele>1456</ele>
        <time>2020-07-16T13:52:40.585Z</time>
      </trkpt>
      <trkpt lat="46.47289" lon="8.23686">
        <ele>1456</ele>
        <time>2020-07-16T13:52:41.584Z</time>
      </trkpt>
      <trkpt lat="46.4729" lon="8.23687">
        <ele>1455</ele>
        <time>2020-07-16T13:52:42.584Z</time>
      </trkpt>
      <trkpt lat="46.4729" lon="8.23688">
        <ele>1455</ele>
        <time>2020-07-16T13:52:43.585Z</time>
      </trkpt>
      <trkpt lat="46.47291" lon="8.23689">
        <ele>1456</ele>
        <time>2020-07-16T13:52:44.585Z</time>
      </trkpt>
      <trkpt lat="46.47291" lon="8.23691">
        <ele>1457</ele>
        <time>2020-07-16T13:52:45.585Z</time>
      </trkpt>
      <trkpt lat="46.47292" lon="8.23692">
        <ele>1457</ele>
        <time>2020-07-16T13:52:46.584Z</time>
      </trkpt>
      <trkpt lat="46.47292" lon="8.23693">
        <ele>1458</ele>
        <time>2020-07-16T13:52:47.584Z</time>
      </trkpt>
      <trkpt lat="46.47292" lon="8.23695">
        <ele>1459</ele>
        <time>2020-07-16T13:52:48.584Z</time>
      </trkpt>
      <trkpt lat="46.47293" lon="8.23697">
        <ele>1459</ele>
        <time>2020-07-16T13:52:49.584Z</time>
      </trkpt>
      <trkpt lat="46.47294" lon="8.23698">
        <ele>1459</ele>
        <time>2020-07-16T13:52:50.584Z</time>
      </trkpt>
      <trkpt lat="46.47294" lon="8.237">
        <ele>1459</ele>
        <time>2020-07-16T13:52:51.585Z</time>
      </trkpt>
      <trkpt lat="46.47295" lon="8.23701">
        <ele>1460</ele>
        <time>2020-07-16T13:52:52.585Z</time>
      </trkpt>
      <trkpt lat="46.47296" lon="8.23704">
        <ele>1460</ele>
        <time>2020-07-16T13:52:53.584Z</time>
      </trkpt>
      <trkpt lat="46.47297" lon="8.23705">
        <ele>1460</ele>
        <time>2020-07-16T13:52:54.584Z</time>
      </trkpt>
      <trkpt lat="46.47297" lon="8.23707">
        <ele>1460</ele>
        <time>2020-07-16T13:52:55.584Z</time>
      </trkpt>
      <trkpt lat="46.47298" lon="8.23709">
        <ele>1460</ele>
        <time>2020-07-16T13:52:56.584Z</time>
      </trkpt>
      <trkpt lat="46.47298" lon="8.2371">
        <ele>1460</ele>
        <time>2020-07-16T13:52:57.584Z</time>
      </trkpt>
      <trkpt lat="46.47298" lon="8.23711">
        <ele>1461</ele>
        <time>2020-07-16T13:52:58.584Z</time>
      </trkpt>
      <trkpt lat="46.47299" lon="8.23713">
        <ele>1461</ele>
        <time>2020-07-16T13:52:59.584Z</time>
      </trkpt>
      <trkpt lat="46.47299" lon="8.23714">
        <ele>1461</ele>
        <time>2020-07-16T13:53:00.584Z</time>
      </trkpt>
      <trkpt lat="46.473" lon="8.23715">
        <ele>1462</ele>
        <time>2020-07-16T13:53:01.585Z</time>
      </trkpt>
      <trkpt lat="46.473" lon="8.23717">
        <ele>1462</ele>
        <time>2020-07-16T13:53:02.584Z</time>
      </trkpt>
      <trkpt lat="46.47301" lon="8.23718">
        <ele>1461</ele>
        <time>2020-07-16T13:53:03.584Z</time>
      </trkpt>
      <trkpt lat="46.47302" lon="8.2372">
        <ele>1461</ele>
        <time>2020-07-16T13:53:04.585Z</time>
      </trkpt>
      <trkpt lat="46.47303" lon="8.23721">
        <ele>1460</ele>
        <time>2020-07-16T13:53:05.584Z</time>
      </trkpt>
      <trkpt lat="46.47303" lon="8.23722">
        <ele>1460</ele>
        <time>2020-07-16T13:53:06.584Z</time>
      </trkpt>
      <trkpt lat="46.47304" lon="8.23723">
        <ele>1459</ele>
        <time>2020-07-16T13:53:07.584Z</time>
      </trkpt>
      <trkpt lat="46.47305" lon="8.23724">
        <ele>1459</ele>
        <time>2020-07-16T13:53:08.584Z</time>
      </trkpt>
      <trkpt lat="46.47305" lon="8.23725">
        <ele>1459</ele>
        <time>2020-07-16T13:53:09.585Z</time>
      </trkpt>
      <trkpt lat="46.47305" lon="8.23727">
        <ele>1459</ele>
        <time>2020-07-16T13:53:10.584Z</time>
      </trkpt>
      <trkpt lat="46.47306" lon="8.23728">
        <ele>1459</ele>
        <time>2020-07-16T13:53:11.584Z</time>
      </trkpt>
      <trkpt lat="46.47306" lon="8.2373">
        <ele>1459</ele>
        <time>2020-07-16T13:53:12.584Z</time>
      </trkpt>
      <trkpt lat="46.47306" lon="8.23732">
        <ele>1459</ele>
        <time>2020-07-16T13:53:13.584Z</time>
      </trkpt>
      <trkpt lat="46.47306" lon="8.23734">
        <ele>1459</ele>
        <time>2020-07-16T13:53:14.584Z</time>
      </trkpt>
      <trkpt lat="46.47307" lon="8.23736">
        <ele>1458</ele>
        <time>2020-07-16T13:53:15.584Z</time>
      </trkpt>
      <trkpt lat="46.47308" lon="8.23738">
        <ele>1458</ele>
        <time>2020-07-16T13:53:16.584Z</time>
      </trkpt>
      <trkpt lat="46.47309" lon="8.23739">
        <ele>1458</ele>
        <time>2020-07-16T13:53:17.585Z</time>
      </trkpt>
      <trkpt lat="46.4731" lon="8.23741">
        <ele>1458</ele>
        <time>2020-07-16T13:53:18.584Z</time>
      </trkpt>
      <trkpt lat="46.47311" lon="8.23742">
        <ele>1458</ele>
        <time>2020-07-16T13:53:19.584Z</time>
      </trkpt>
      <trkpt lat="46.47311" lon="8.23743">
        <ele>1457</ele>
        <time>2020-07-16T13:53:20.584Z</time>
      </trkpt>
      <trkpt lat="46.47312" lon="8.23744">
        <ele>1457</ele>
        <time>2020-07-16T13:53:21.585Z</time>
      </trkpt>
      <trkpt lat="46.47313" lon="8.23745">
        <ele>1456</ele>
        <time>2020-07-16T13:53:22.584Z</time>
      </trkpt>
      <trkpt lat="46.47314" lon="8.23745">
        <ele>1456</ele>
        <time>2020-07-16T13:53:23.585Z</time>
      </trkpt>
      <trkpt lat="46.47315" lon="8.23746">
        <ele>1455</ele>
        <time>2020-07-16T13:53:24.584Z</time>
      </trkpt>
      <trkpt lat="46.47316" lon="8.23747">
        <ele>1454</ele>
        <time>2020-07-16T13:53:25.584Z</time>
      </trkpt>
      <trkpt lat="46.47317" lon="8.23748">
        <ele>1454</ele>
        <time>2020-07-16T13:53:26.584Z</time>
      </trkpt>
      <trkpt lat="46.47318" lon="8.23749">
        <ele>1453</ele>
        <time>2020-07-16T13:53:27.585Z</time>
      </trkpt>
      <trkpt lat="46.47318" lon="8.23749">
        <ele>1452</ele>
        <time>2020-07-16T13:53:28.584Z</time>
      </trkpt>
      <trkpt lat="46.47319" lon="8.2375">
        <ele>1452</ele>
        <time>2020-07-16T13:53:29.584Z</time>
      </trkpt>
      <trkpt lat="46.4732" lon="8.23751">
        <ele>1451</ele>
        <time>2020-07-16T13:53:30.584Z</time>
      </trkpt>
      <trkpt lat="46.47321" lon="8.23752">
        <ele>1452</ele>
        <time>2020-07-16T13:53:31.584Z</time>
      </trkpt>
      <trkpt lat="46.47321" lon="8.23753">
        <ele>1452</ele>
        <time>2020-07-16T13:53:32.584Z</time>
      </trkpt>
      <trkpt lat="46.47322" lon="8.23754">
        <ele>1453</ele>
        <time>2020-07-16T13:53:33.584Z</time>
      </trkpt>
      <trkpt lat="46.47323" lon="8.23755">
        <ele>1454</ele>
        <time>2020-07-16T13:53:34.584Z</time>
      </trkpt>
      <trkpt lat="46.47324" lon="8.23757">
        <ele>1454</ele>
        <time>2020-07-16T13:53:35.584Z</time>
      </trkpt>
      <trkpt lat="46.47324" lon="8.23759">
        <ele>1455</ele>
        <time>2020-07-16T13:53:36.584Z</time>
      </trkpt>
      <trkpt lat="46.47325" lon="8.2376">
        <ele>1456</ele>
        <time>2020-07-16T13:53:37.585Z</time>
      </trkpt>
      <trkpt lat="46.47326" lon="8.23762">
        <ele>1456</ele>
        <time>2020-07-16T13:53:38.584Z</time>
      </trkpt>
      <trkpt lat="46.47327" lon="8.23763">
        <ele>1456</ele>
        <time>2020-07-16T13:53:39.585Z</time>
      </trkpt>
      <trkpt lat="46.47327" lon="8.23764">
        <ele>1457</ele>
        <time>2020-07-16T13:53:40.584Z</time>
      </trkpt>
      <trkpt lat="46.47328" lon="8.23765">
        <ele>1458</ele>
        <time>2020-07-16T13:53:41.584Z</time>
      </trkpt>
      <trkpt lat="46.47329" lon="8.23766">
        <ele>1459</ele>
        <time>2020-07-16T13:53:42.585Z</time>
      </trkpt>
      <trkpt lat="46.47329" lon="8.23767">
        <ele>1460</ele>
        <time>2020-07-16T13:53:43.584Z</time>
      </trkpt>
      <trkpt lat="46.4733" lon="8.23768">
        <ele>1460</ele>
        <time>2020-07-16T13:53:44.585Z</time>
      </trkpt>
      <trkpt lat="46.4733" lon="8.2377">
        <ele>1461</ele>
        <time>2020-07-16T13:53:45.584Z</time>
      </trkpt>
      <trkpt lat="46.47331" lon="8.23772">
        <ele>1462</ele>
        <time>2020-07-16T13:53:46.584Z</time>
      </trkpt>
      <trkpt lat="46.47331" lon="8.23773">
        <ele>1462</ele>
        <time>2020-07-16T13:53:47.584Z</time>
      </trkpt>
      <trkpt lat="46.47332" lon="8.23774">
        <ele>1461</ele>
        <time>2020-07-16T13:53:48.584Z</time>
      </trkpt>
      <trkpt lat="46.47333" lon="8.23775">
        <ele>1461</ele>
        <time>2020-07-16T13:53:49.584Z</time>
      </trkpt>
      <trkpt lat="46.47334" lon="8.23776">
        <ele>1460</ele>
        <time>2020-07-16T13:53:50.585Z</time>
      </trkpt>
      <trkpt lat="46.47335" lon="8.23777">
        <ele>1460</ele>
        <time>2020-07-16T13:53:51.584Z</time>
      </trkpt>
      <trkpt lat="46.47335" lon="8.23777">
        <ele>1459</ele>
        <time>2020-07-16T13:53:52.584Z</time>
      </trkpt>
      <trkpt lat="46.47336" lon="8.23778">
        <ele>1458</ele>
        <time>2020-07-16T13:53:53.585Z</time>
      </trkpt>
      <trkpt lat="46.47337" lon="8.23779">
        <ele>1458</ele>
        <time>2020-07-16T13:53:54.584Z</time>
      </trkpt>
      <trkpt lat="46.47337" lon="8.23781">
        <ele>1458</ele>
        <time>2020-07-16T13:53:55.584Z</time>
      </trkpt>
      <trkpt lat="46.47338" lon="8.23782">
        <ele>1457</ele>
        <time>2020-07-16T13:53:56.585Z</time>
      </trkpt>
      <trkpt lat="46.47338" lon="8.23783">
        <ele>1457</ele>
        <time>2020-07-16T13:53:57.585Z</time>
      </trkpt>
      <trkpt lat="46.47339" lon="8.23785">
        <ele>1457</ele>
        <time>2020-07-16T13:53:58.584Z</time>
      </trkpt>
      <trkpt lat="46.47339" lon="8.23787">
        <ele>1457</ele>
        <time>2020-07-16T13:53:59.585Z</time>
      </trkpt>
      <trkpt lat="46.4734" lon="8.23789">
        <ele>1457</ele>
        <time>2020-07-16T13:54:00.585Z</time>
      </trkpt>
      <trkpt lat="46.47341" lon="8.23791">
        <ele>1457</ele>
        <time>2020-07-16T13:54:01.584Z</time>
      </trkpt>
      <trkpt lat="46.47341" lon="8.23792">
        <ele>1457</ele>
        <time>2020-07-16T13:54:02.584Z</time>
      </trkpt>
      <trkpt lat="46.47342" lon="8.23794">
        <ele>1457</ele>
        <time>2020-07-16T13:54:03.584Z</time>
      </trkpt>
      <trkpt lat="46.47342" lon="8.23796">
        <ele>1457</ele>
        <time>2020-07-16T13:54:04.584Z</time>
      </trkpt>
      <trkpt lat="46.47343" lon="8.23798">
        <ele>1458</ele>
        <time>2020-07-16T13:54:05.584Z</time>
      </trkpt>
      <trkpt lat="46.47343" lon="8.23799">
        <ele>1458</ele>
        <time>2020-07-16T13:54:06.584Z</time>
      </trkpt>
      <trkpt lat="46.47343" lon="8.23801">
        <ele>1459</ele>
        <time>2020-07-16T13:54:07.585Z</time>
      </trkpt>
      <trkpt lat="46.47344" lon="8.23803">
        <ele>1459</ele>
        <time>2020-07-16T13:54:08.584Z</time>
      </trkpt>
      <trkpt lat="46.47344" lon="8.23804">
        <ele>1460</ele>
        <time>2020-07-16T13:54:09.584Z</time>
      </trkpt>
      <trkpt lat="46.47345" lon="8.23806">
        <ele>1460</ele>
        <time>2020-07-16T13:54:10.584Z</time>
      </trkpt>
      <trkpt lat="46.47345" lon="8.23808">
        <ele>1460</ele>
        <time>2020-07-16T13:54:11.584Z</time>
      </trkpt>
      <trkpt lat="46.47346" lon="8.2381">
        <ele>1460</ele>
        <time>2020-07-16T13:54:12.585Z</time>
      </trkpt>
      <trkpt lat="46.47347" lon="8.23811">
        <ele>1460</ele>
        <time>2020-07-16T13:54:13.584Z</time>
      </trkpt>
      <trkpt lat="46.47347" lon="8.23813">
        <ele>1460</ele>
        <time>2020-07-16T13:54:14.585Z</time>
      </trkpt>
      <trkpt lat="46.47348" lon="8.23813">
        <ele>1460</ele>
        <time>2020-07-16T13:54:15.585Z</time>
      </trkpt>
      <trkpt lat="46.47349" lon="8.23813">
        <ele>1459</ele>
        <time>2020-07-16T13:54:16.584Z</time>
      </trkpt>
      <trkpt lat="46.4735" lon="8.23814">
        <ele>1459</ele>
        <time>2020-07-16T13:54:17.585Z</time>
      </trkpt>
      <trkpt lat="46.47351" lon="8.23814">
        <ele>1458</ele>
        <time>2020-07-16T13:54:18.584Z</time>
      </trkpt>
      <trkpt lat="46.47352" lon="8.23815">
        <ele>1458</ele>
        <time>2020-07-16T13:54:19.584Z</time>
      </trkpt>
      <trkpt lat="46.47353" lon="8.23816">
        <ele>1457</ele>
        <time>2020-07-16T13:54:20.584Z</time>
      </trkpt>
      <trkpt lat="46.47354" lon="8.23818">
        <ele>1456</ele>
        <time>2020-07-16T13:54:21.584Z</time>
      </trkpt>
      <trkpt lat="46.47354" lon="8.2382">
        <ele>1456</ele>
        <time>2020-07-16T13:54:22.584Z</time>
      </trkpt>
      <trkpt lat="46.47355" lon="8.2382">
        <ele>1456</ele>
        <time>2020-07-16T13:54:23.585Z</time>
      </trkpt>
      <trkpt lat="46.47356" lon="8.23821">
        <ele>1456</ele>
        <time>2020-07-16T13:54:24.584Z</time>
      </trkpt>
      <trkpt lat="46.47358" lon="8.23821">
        <ele>1455</ele>
        <time>2020-07-16T13:54:25.585Z</time>
      </trkpt>
      <trkpt lat="46.47359" lon="8.23823">
        <ele>1455</ele>
        <time>2020-07-16T13:54:26.585Z</time>
      </trkpt>
      <trkpt lat="46.47359" lon="8.23824">
        <ele>1454</ele>
        <time>2020-07-16T13:54:27.585Z</time>
      </trkpt>
      <trkpt lat="46.4736" lon="8.23825">
        <ele>1454</ele>
        <time>2020-07-16T13:54:28.585Z</time>
      </trkpt>
      <trkpt lat="46.47361" lon="8.23826">
        <ele>1453</ele>
        <time>2020-07-16T13:54:29.584Z</time>
      </trkpt>
      <trkpt lat="46.47362" lon="8.23827">
        <ele>1453</ele>
        <time>2020-07-16T13:54:30.584Z</time>
      </trkpt>
      <trkpt lat="46.47362" lon="8.23829">
        <ele>1453</ele>
        <time>2020-07-16T13:54:31.584Z</time>
      </trkpt>
      <trkpt lat="46.47363" lon="8.2383">
        <ele>1453</ele>
        <time>2020-07-16T13:54:32.585Z</time>
      </trkpt>
      <trkpt lat="46.47364" lon="8.23832">
        <ele>1453</ele>
        <time>2020-07-16T13:54:33.584Z</time>
      </trkpt>
      <trkpt lat="46.47364" lon="8.23833">
        <ele>1454</ele>
        <time>2020-07-16T13:54:34.584Z</time>
      </trkpt>
      <trkpt lat="46.47364" lon="8.23835">
        <ele>1454</ele>
        <time>2020-07-16T13:54:35.584Z</time>
      </trkpt>
      <trkpt lat="46.47365" lon="8.23837">
        <ele>1454</ele>
        <time>2020-07-16T13:54:36.585Z</time>
      </trkpt>
      <trkpt lat="46.47365" lon="8.23838">
        <ele>1453</ele>
        <time>2020-07-16T13:54:37.585Z</time>
      </trkpt>
      <trkpt lat="46.47365" lon="8.2384">
        <ele>1453</ele>
        <time>2020-07-16T13:54:38.585Z</time>
      </trkpt>
      <trkpt lat="46.47366" lon="8.23841">
        <ele>1452</ele>
        <time>2020-07-16T13:54:39.584Z</time>
      </trkpt>
      <trkpt lat="46.47366" lon="8.23843">
        <ele>1452</ele>
        <time>2020-07-16T13:54:40.584Z</time>
      </trkpt>
      <trkpt lat="46.47366" lon="8.23844">
        <ele>1452</ele>
        <time>2020-07-16T13:54:41.585Z</time>
      </trkpt>
      <trkpt lat="46.47366" lon="8.23846">
        <ele>1451</ele>
        <time>2020-07-16T13:54:42.584Z</time>
      </trkpt>
      <trkpt lat="46.47366" lon="8.23847">
        <ele>1451</ele>
        <time>2020-07-16T13:54:43.584Z</time>
      </trkpt>
      <trkpt lat="46.47367" lon="8.23848">
        <ele>1450</ele>
        <time>2020-07-16T13:54:44.585Z</time>
      </trkpt>
      <trkpt lat="46.47366" lon="8.23849">
        <ele>1450</ele>
        <time>2020-07-16T13:54:45.585Z</time>
      </trkpt>
      <trkpt lat="46.47366" lon="8.23851">
        <ele>1449</ele>
        <time>2020-07-16T13:54:46.584Z</time>
      </trkpt>
      <trkpt lat="46.47365" lon="8.23852">
        <ele>1449</ele>
        <time>2020-07-16T13:54:47.585Z</time>
      </trkpt>
      <trkpt lat="46.47365" lon="8.23853">
        <ele>1449</ele>
        <time>2020-07-16T13:54:48.585Z</time>
      </trkpt>
      <trkpt lat="46.47364" lon="8.23854">
        <ele>1448</ele>
        <time>2020-07-16T13:54:49.584Z</time>
      </trkpt>
      <trkpt lat="46.47363" lon="8.23855">
        <ele>1448</ele>
        <time>2020-07-16T13:54:50.584Z</time>
      </trkpt>
      <trkpt lat="46.47362" lon="8.23856">
        <ele>1447</ele>
        <time>2020-07-16T13:54:51.585Z</time>
      </trkpt>
      <trkpt lat="46.47361" lon="8.23856">
        <ele>1447</ele>
        <time>2020-07-16T13:54:52.584Z</time>
      </trkpt>
      <trkpt lat="46.47361" lon="8.23858">
        <ele>1446</ele>
        <time>2020-07-16T13:54:53.585Z</time>
      </trkpt>
      <trkpt lat="46.4736" lon="8.23859">
        <ele>1446</ele>
        <time>2020-07-16T13:54:54.584Z</time>
      </trkpt>
      <trkpt lat="46.47359" lon="8.23859">
        <ele>1446</ele>
        <time>2020-07-16T13:54:55.584Z</time>
      </trkpt>
      <trkpt lat="46.47358" lon="8.2386">
        <ele>1446</ele>
        <time>2020-07-16T13:54:56.585Z</time>
      </trkpt>
      <trkpt lat="46.47357" lon="8.23862">
        <ele>1446</ele>
        <time>2020-07-16T13:54:57.585Z</time>
      </trkpt>
      <trkpt lat="46.47356" lon="8.23863">
        <ele>1446</ele>
        <time>2020-07-16T13:54:58.584Z</time>
      </trkpt>
      <trkpt lat="46.47355" lon="8.23864">
        <ele>1445</ele>
        <time>2020-07-16T13:54:59.584Z</time>
      </trkpt>
      <trkpt lat="46.47354" lon="8.23865">
        <ele>1445</ele>
        <time>2020-07-16T13:55:00.584Z</time>
      </trkpt>
      <trkpt lat="46.47354" lon="8.23866">
        <ele>1446</ele>
        <time>2020-07-16T13:55:01.584Z</time>
      </trkpt>
      <trkpt lat="46.47353" lon="8.23867">
        <ele>1446</ele>
        <time>2020-07-16T13:55:02.585Z</time>
      </trkpt>
      <trkpt lat="46.47352" lon="8.23867">
        <ele>1446</ele>
        <time>2020-07-16T13:55:03.584Z</time>
      </trkpt>
      <trkpt lat="46.47351" lon="8.23868">
        <ele>1446</ele>
        <time>2020-07-16T13:55:04.584Z</time>
      </trkpt>
      <trkpt lat="46.4735" lon="8.23869">
        <ele>1446</ele>
        <time>2020-07-16T13:55:05.585Z</time>
      </trkpt>
      <trkpt lat="46.47349" lon="8.23869">
        <ele>1447</ele>
        <time>2020-07-16T13:55:06.584Z</time>
      </trkpt>
      <trkpt lat="46.47348" lon="8.23869">
        <ele>1447</ele>
        <time>2020-07-16T13:55:07.585Z</time>
      </trkpt>
      <trkpt lat="46.47347" lon="8.23869">
        <ele>1447</ele>
        <time>2020-07-16T13:55:08.584Z</time>
      </trkpt>
      <trkpt lat="46.47346" lon="8.2387">
        <ele>1447</ele>
        <time>2020-07-16T13:55:09.585Z</time>
      </trkpt>
      <trkpt lat="46.47345" lon="8.2387">
        <ele>1447</ele>
        <time>2020-07-16T13:55:10.585Z</time>
      </trkpt>
      <trkpt lat="46.47344" lon="8.23871">
        <ele>1446</ele>
        <time>2020-07-16T13:55:11.585Z</time>
      </trkpt>
      <trkpt lat="46.47343" lon="8.23871">
        <ele>1445</ele>
        <time>2020-07-16T13:55:12.584Z</time>
      </trkpt>
      <trkpt lat="46.47341" lon="8.23872">
        <ele>1444</ele>
        <time>2020-07-16T13:55:13.585Z</time>
      </trkpt>
      <trkpt lat="46.47341" lon="8.23873">
        <ele>1444</ele>
        <time>2020-07-16T13:55:14.585Z</time>
      </trkpt>
      <trkpt lat="46.4734" lon="8.23874">
        <ele>1444</ele>
        <time>2020-07-16T13:55:15.584Z</time>
      </trkpt>
      <trkpt lat="46.47339" lon="8.23874">
        <ele>1443</ele>
        <time>2020-07-16T13:55:16.584Z</time>
      </trkpt>
      <trkpt lat="46.47337" lon="8.23875">
        <ele>1444</ele>
        <time>2020-07-16T13:55:17.584Z</time>
      </trkpt>
      <trkpt lat="46.47336" lon="8.23876">
        <ele>1444</ele>
        <time>2020-07-16T13:55:18.584Z</time>
      </trkpt>
      <trkpt lat="46.47335" lon="8.23876">
        <ele>1444</ele>
        <time>2020-07-16T13:55:19.584Z</time>
      </trkpt>
      <trkpt lat="46.47334" lon="8.23876">
        <ele>1444</ele>
        <time>2020-07-16T13:55:20.584Z</time>
      </trkpt>
      <trkpt lat="46.47333" lon="8.23876">
        <ele>1444</ele>
        <time>2020-07-16T13:55:21.584Z</time>
      </trkpt>
      <trkpt lat="46.47332" lon="8.23876">
        <ele>1444</ele>
        <time>2020-07-16T13:55:22.584Z</time>
      </trkpt>
      <trkpt lat="46.47331" lon="8.23876">
        <ele>1444</ele>
        <time>2020-07-16T13:55:23.584Z</time>
      </trkpt>
      <trkpt lat="46.47329" lon="8.23877">
        <ele>1444</ele>
        <time>2020-07-16T13:55:24.584Z</time>
      </trkpt>
      <trkpt lat="46.47328" lon="8.23877">
        <ele>1445</ele>
        <time>2020-07-16T13:55:25.584Z</time>
      </trkpt>
      <trkpt lat="46.47327" lon="8.23877">
        <ele>1445</ele>
        <time>2020-07-16T13:55:26.584Z</time>
      </trkpt>
      <trkpt lat="46.47326" lon="8.23877">
        <ele>1446</ele>
        <time>2020-07-16T13:55:27.584Z</time>
      </trkpt>
      <trkpt lat="46.47325" lon="8.23877">
        <ele>1447</ele>
        <time>2020-07-16T13:55:28.584Z</time>
      </trkpt>
      <trkpt lat="46.47325" lon="8.23877">
        <ele>1447</ele>
        <time>2020-07-16T13:55:29.584Z</time>
      </trkpt>
      <trkpt lat="46.47324" lon="8.23877">
        <ele>1447</ele>
        <time>2020-07-16T13:55:30.584Z</time>
      </trkpt>
      <trkpt lat="46.47322" lon="8.23876">
        <ele>1448</ele>
        <time>2020-07-16T13:55:31.584Z</time>
      </trkpt>
      <trkpt lat="46.47321" lon="8.23875">
        <ele>1448</ele>
        <time>2020-07-16T13:55:32.585Z</time>
      </trkpt>
      <trkpt lat="46.4732" lon="8.23874">
        <ele>1448</ele>
        <time>2020-07-16T13:55:33.585Z</time>
      </trkpt>
      <trkpt lat="46.47318" lon="8.23874">
        <ele>1448</ele>
        <time>2020-07-16T13:55:34.585Z</time>
      </trkpt>
      <trkpt lat="46.47317" lon="8.23873">
        <ele>1447</ele>
        <time>2020-07-16T13:55:35.584Z</time>
      </trkpt>
      <trkpt lat="46.47316" lon="8.23873">
        <ele>1447</ele>
        <time>2020-07-16T13:55:36.584Z</time>
      </trkpt>
      <trkpt lat="46.47316" lon="8.23872">
        <ele>1446</ele>
        <time>2020-07-16T13:55:37.584Z</time>
      </trkpt>
      <trkpt lat="46.47314" lon="8.23872">
        <ele>1446</ele>
        <time>2020-07-16T13:55:38.584Z</time>
      </trkpt>
      <trkpt lat="46.47313" lon="8.23873">
        <ele>1445</ele>
        <time>2020-07-16T13:55:39.584Z</time>
      </trkpt>
      <trkpt lat="46.47313" lon="8.23872">
        <ele>1445</ele>
        <time>2020-07-16T13:55:40.585Z</time>
      </trkpt>
      <trkpt lat="46.47312" lon="8.23872">
        <ele>1445</ele>
        <time>2020-07-16T13:55:41.585Z</time>
      </trkpt>
      <trkpt lat="46.47311" lon="8.23872">
        <ele>1445</ele>
        <time>2020-07-16T13:55:42.584Z</time>
      </trkpt>
      <trkpt lat="46.4731" lon="8.23872">
        <ele>1445</ele>
        <time>2020-07-16T13:55:43.584Z</time>
      </trkpt>
      <trkpt lat="46.47309" lon="8.23872">
        <ele>1445</ele>
        <time>2020-07-16T13:55:44.585Z</time>
      </trkpt>
      <trkpt lat="46.47308" lon="8.23872">
        <ele>1445</ele>
        <time>2020-07-16T13:55:45.585Z</time>
      </trkpt>
      <trkpt lat="46.47307" lon="8.23871">
        <ele>1445</ele>
        <time>2020-07-16T13:55:46.584Z</time>
      </trkpt>
      <trkpt lat="46.47306" lon="8.23872">
        <ele>1445</ele>
        <time>2020-07-16T13:55:47.584Z</time>
      </trkpt>
      <trkpt lat="46.47305" lon="8.23872">
        <ele>1444</ele>
        <time>2020-07-16T13:55:48.585Z</time>
      </trkpt>
      <trkpt lat="46.47305" lon="8.23873">
        <ele>1444</ele>
        <time>2020-07-16T13:55:49.584Z</time>
      </trkpt>
      <trkpt lat="46.47304" lon="8.23873">
        <ele>1443</ele>
        <time>2020-07-16T13:55:50.584Z</time>
      </trkpt>
      <trkpt lat="46.47303" lon="8.23873">
        <ele>1443</ele>
        <time>2020-07-16T13:55:51.584Z</time>
      </trkpt>
      <trkpt lat="46.47302" lon="8.23873">
        <ele>1443</ele>
        <time>2020-07-16T13:55:52.584Z</time>
      </trkpt>
      <trkpt lat="46.47301" lon="8.23873">
        <ele>1442</ele>
        <time>2020-07-16T13:55:53.584Z</time>
      </trkpt>
      <trkpt lat="46.47299" lon="8.23874">
        <ele>1442</ele>
        <time>2020-07-16T13:55:54.585Z</time>
      </trkpt>
      <trkpt lat="46.47298" lon="8.23875">
        <ele>1442</ele>
        <time>2020-07-16T13:55:55.584Z</time>
      </trkpt>
      <trkpt lat="46.47297" lon="8.23875">
        <ele>1442</ele>
        <time>2020-07-16T13:55:56.584Z</time>
      </trkpt>
      <trkpt lat="46.47296" lon="8.23875">
        <ele>1442</ele>
        <time>2020-07-16T13:55:57.584Z</time>
      </trkpt>
      <trkpt lat="46.47295" lon="8.23875">
        <ele>1442</ele>
        <time>2020-07-16T13:55:58.585Z</time>
      </trkpt>
      <trkpt lat="46.47294" lon="8.23875">
        <ele>1442</ele>
        <time>2020-07-16T13:55:59.585Z</time>
      </trkpt>
      <trkpt lat="46.47292" lon="8.23875">
        <ele>1442</ele>
        <time>2020-07-16T13:56:00.584Z</time>
      </trkpt>
      <trkpt lat="46.47292" lon="8.23876">
        <ele>1442</ele>
        <time>2020-07-16T13:56:01.584Z</time>
      </trkpt>
      <trkpt lat="46.47291" lon="8.23877">
        <ele>1441</ele>
        <time>2020-07-16T13:56:02.584Z</time>
      </trkpt>
      <trkpt lat="46.4729" lon="8.23879">
        <ele>1440</ele>
        <time>2020-07-16T13:56:03.585Z</time>
      </trkpt>
      <trkpt lat="46.47289" lon="8.23881">
        <ele>1440</ele>
        <time>2020-07-16T13:56:04.584Z</time>
      </trkpt>
      <trkpt lat="46.47288" lon="8.23883">
        <ele>1440</ele>
        <time>2020-07-16T13:56:05.584Z</time>
      </trkpt>
      <trkpt lat="46.47287" lon="8.23884">
        <ele>1440</ele>
        <time>2020-07-16T13:56:06.584Z</time>
      </trkpt>
      <trkpt lat="46.47286" lon="8.23885">
        <ele>1440</ele>
        <time>2020-07-16T13:56:07.584Z</time>
      </trkpt>
      <trkpt lat="46.47286" lon="8.23885">
        <ele>1440</ele>
        <time>2020-07-16T13:56:08.584Z</time>
      </trkpt>
      <trkpt lat="46.47285" lon="8.23886">
        <ele>1440</ele>
        <time>2020-07-16T13:56:09.585Z</time>
      </trkpt>
      <trkpt lat="46.47284" lon="8.23887">
        <ele>1440</ele>
        <time>2020-07-16T13:56:10.584Z</time>
      </trkpt>
      <trkpt lat="46.47284" lon="8.23888">
        <ele>1439</ele>
        <time>2020-07-16T13:56:11.584Z</time>
      </trkpt>
      <trkpt lat="46.47284" lon="8.2389">
        <ele>1439</ele>
        <time>2020-07-16T13:56:12.584Z</time>
      </trkpt>
      <trkpt lat="46.47284" lon="8.23892">
        <ele>1438</ele>
        <time>2020-07-16T13:56:13.584Z</time>
      </trkpt>
      <trkpt lat="46.47283" lon="8.23895">
        <ele>1438</ele>
        <time>2020-07-16T13:56:14.584Z</time>
      </trkpt>
      <trkpt lat="46.47283" lon="8.23898">
        <ele>1438</ele>
        <time>2020-07-16T13:56:15.584Z</time>
      </trkpt>
      <trkpt lat="46.47283" lon="8.239">
        <ele>1438</ele>
        <time>2020-07-16T13:56:16.584Z</time>
      </trkpt>
      <trkpt lat="46.47283" lon="8.23901">
        <ele>1438</ele>
        <time>2020-07-16T13:56:17.584Z</time>
      </trkpt>
      <trkpt lat="46.47283" lon="8.23902">
        <ele>1437</ele>
        <time>2020-07-16T13:56:18.584Z</time>
      </trkpt>
      <trkpt lat="46.47283" lon="8.23903">
        <ele>1437</ele>
        <time>2020-07-16T13:56:19.584Z</time>
      </trkpt>
      <trkpt lat="46.47282" lon="8.23904">
        <ele>1437</ele>
        <time>2020-07-16T13:56:20.584Z</time>
      </trkpt>
      <trkpt lat="46.47282" lon="8.23905">
        <ele>1437</ele>
        <time>2020-07-16T13:56:21.584Z</time>
      </trkpt>
      <trkpt lat="46.47282" lon="8.23907">
        <ele>1436</ele>
        <time>2020-07-16T13:56:22.584Z</time>
      </trkpt>
      <trkpt lat="46.47281" lon="8.23909">
        <ele>1436</ele>
        <time>2020-07-16T13:56:23.584Z</time>
      </trkpt>
      <trkpt lat="46.47281" lon="8.23911">
        <ele>1436</ele>
        <time>2020-07-16T13:56:24.584Z</time>
      </trkpt>
      <trkpt lat="46.47281" lon="8.23913">
        <ele>1436</ele>
        <time>2020-07-16T13:56:25.584Z</time>
      </trkpt>
      <trkpt lat="46.47281" lon="8.23915">
        <ele>1436</ele>
        <time>2020-07-16T13:56:26.584Z</time>
      </trkpt>
      <trkpt lat="46.47282" lon="8.23916">
        <ele>1436</ele>
        <time>2020-07-16T13:56:27.584Z</time>
      </trkpt>
      <trkpt lat="46.47282" lon="8.23918">
        <ele>1436</ele>
        <time>2020-07-16T13:56:28.584Z</time>
      </trkpt>
      <trkpt lat="46.47282" lon="8.23919">
        <ele>1436</ele>
        <time>2020-07-16T13:56:29.584Z</time>
      </trkpt>
      <trkpt lat="46.47282" lon="8.2392">
        <ele>1436</ele>
        <time>2020-07-16T13:56:30.584Z</time>
      </trkpt>
      <trkpt lat="46.47282" lon="8.23921">
        <ele>1436</ele>
        <time>2020-07-16T13:56:31.585Z</time>
      </trkpt>
      <trkpt lat="46.47283" lon="8.23922">
        <ele>1437</ele>
        <time>2020-07-16T13:56:32.584Z</time>
      </trkpt>
      <trkpt lat="46.47283" lon="8.23924">
        <ele>1437</ele>
        <time>2020-07-16T13:56:33.584Z</time>
      </trkpt>
      <trkpt lat="46.47284" lon="8.23925">
        <ele>1437</ele>
        <time>2020-07-16T13:56:34.584Z</time>
      </trkpt>
      <trkpt lat="46.47284" lon="8.23926">
        <ele>1436</ele>
        <time>2020-07-16T13:56:35.584Z</time>
      </trkpt>
      <trkpt lat="46.47285" lon="8.23927">
        <ele>1436</ele>
        <time>2020-07-16T13:56:36.585Z</time>
      </trkpt>
      <trkpt lat="46.47286" lon="8.23929">
        <ele>1435</ele>
        <time>2020-07-16T13:56:37.585Z</time>
      </trkpt>
      <trkpt lat="46.47287" lon="8.2393">
        <ele>1435</ele>
        <time>2020-07-16T13:56:38.584Z</time>
      </trkpt>
      <trkpt lat="46.47288" lon="8.2393">
        <ele>1435</ele>
        <time>2020-07-16T13:56:39.584Z</time>
      </trkpt>
      <trkpt lat="46.47288" lon="8.23931">
        <ele>1434</ele>
        <time>2020-07-16T13:56:40.585Z</time>
      </trkpt>
      <trkpt lat="46.47289" lon="8.23932">
        <ele>1434</ele>
        <time>2020-07-16T13:56:41.584Z</time>
      </trkpt>
      <trkpt lat="46.47291" lon="8.23934">
        <ele>1433</ele>
        <time>2020-07-16T13:56:42.584Z</time>
      </trkpt>
      <trkpt lat="46.47291" lon="8.23935">
        <ele>1433</ele>
        <time>2020-07-16T13:56:43.585Z</time>
      </trkpt>
      <trkpt lat="46.47292" lon="8.23936">
        <ele>1433</ele>
        <time>2020-07-16T13:56:44.585Z</time>
      </trkpt>
      <trkpt lat="46.47292" lon="8.23937">
        <ele>1434</ele>
        <time>2020-07-16T13:56:45.584Z</time>
      </trkpt>
      <trkpt lat="46.47293" lon="8.23937">
        <ele>1434</ele>
        <time>2020-07-16T13:56:46.584Z</time>
      </trkpt>
      <trkpt lat="46.47294" lon="8.23939">
        <ele>1434</ele>
        <time>2020-07-16T13:56:47.584Z</time>
      </trkpt>
      <trkpt lat="46.47295" lon="8.2394">
        <ele>1433</ele>
        <time>2020-07-16T13:56:48.585Z</time>
      </trkpt>
      <trkpt lat="46.47296" lon="8.23941">
        <ele>1433</ele>
        <time>2020-07-16T13:56:49.584Z</time>
      </trkpt>
      <trkpt lat="46.47297" lon="8.23941">
        <ele>1433</ele>
        <time>2020-07-16T13:56:50.584Z</time>
      </trkpt>
      <trkpt lat="46.47299" lon="8.23942">
        <ele>1433</ele>
        <time>2020-07-16T13:56:51.584Z</time>
      </trkpt>
      <trkpt lat="46.473" lon="8.23943">
        <ele>1433</ele>
        <time>2020-07-16T13:56:52.584Z</time>
      </trkpt>
      <trkpt lat="46.47301" lon="8.23944">
        <ele>1433</ele>
        <time>2020-07-16T13:56:53.584Z</time>
      </trkpt>
      <trkpt lat="46.47302" lon="8.23945">
        <ele>1432</ele>
        <time>2020-07-16T13:56:54.585Z</time>
      </trkpt>
      <trkpt lat="46.47303" lon="8.23946">
        <ele>1432</ele>
        <time>2020-07-16T13:56:55.584Z</time>
      </trkpt>
      <trkpt lat="46.47304" lon="8.23947">
        <ele>1432</ele>
        <time>2020-07-16T13:56:56.584Z</time>
      </trkpt>
      <trkpt lat="46.47305" lon="8.23948">
        <ele>1432</ele>
        <time>2020-07-16T13:56:57.584Z</time>
      </trkpt>
      <trkpt lat="46.47306" lon="8.23949">
        <ele>1432</ele>
        <time>2020-07-16T13:56:58.584Z</time>
      </trkpt>
      <trkpt lat="46.47307" lon="8.2395">
        <ele>1431</ele>
        <time>2020-07-16T13:56:59.584Z</time>
      </trkpt>
      <trkpt lat="46.47309" lon="8.23951">
        <ele>1431</ele>
        <time>2020-07-16T13:57:00.585Z</time>
      </trkpt>
      <trkpt lat="46.4731" lon="8.23953">
        <ele>1431</ele>
        <time>2020-07-16T13:57:01.584Z</time>
      </trkpt>
      <trkpt lat="46.47311" lon="8.23954">
        <ele>1431</ele>
        <time>2020-07-16T13:57:02.584Z</time>
      </trkpt>
      <trkpt lat="46.47312" lon="8.23955">
        <ele>1430</ele>
        <time>2020-07-16T13:57:03.584Z</time>
      </trkpt>
      <trkpt lat="46.47313" lon="8.23956">
        <ele>1430</ele>
        <time>2020-07-16T13:57:04.584Z</time>
      </trkpt>
      <trkpt lat="46.47315" lon="8.23957">
        <ele>1430</ele>
        <time>2020-07-16T13:57:05.585Z</time>
      </trkpt>
      <trkpt lat="46.47316" lon="8.23958">
        <ele>1429</ele>
        <time>2020-07-16T13:57:06.585Z</time>
      </trkpt>
      <trkpt lat="46.47317" lon="8.23959">
        <ele>1429</ele>
        <time>2020-07-16T13:57:07.584Z</time>
      </trkpt>
      <trkpt lat="46.47318" lon="8.2396">
        <ele>1428</ele>
        <time>2020-07-16T13:57:08.584Z</time>
      </trkpt>
      <trkpt lat="46.47319" lon="8.23962">
        <ele>1428</ele>
        <time>2020-07-16T13:57:09.584Z</time>
      </trkpt>
      <trkpt lat="46.4732" lon="8.23963">
        <ele>1427</ele>
        <time>2020-07-16T13:57:10.585Z</time>
      </trkpt>
      <trkpt lat="46.47321" lon="8.23964">
        <ele>1427</ele>
        <time>2020-07-16T13:57:11.585Z</time>
      </trkpt>
      <trkpt lat="46.47322" lon="8.23965">
        <ele>1426</ele>
        <time>2020-07-16T13:57:12.584Z</time>
      </trkpt>
      <trkpt lat="46.47323" lon="8.23966">
        <ele>1426</ele>
        <time>2020-07-16T13:57:13.584Z</time>
      </trkpt>
      <trkpt lat="46.47324" lon="8.23967">
        <ele>1426</ele>
        <time>2020-07-16T13:57:14.585Z</time>
      </trkpt>
      <trkpt lat="46.47325" lon="8.23968">
        <ele>1426</ele>
        <time>2020-07-16T13:57:15.584Z</time>
      </trkpt>
      <trkpt lat="46.47326" lon="8.23969">
        <ele>1426</ele>
        <time>2020-07-16T13:57:16.584Z</time>
      </trkpt>
      <trkpt lat="46.47327" lon="8.23969">
        <ele>1426</ele>
        <time>2020-07-16T13:57:17.584Z</time>
      </trkpt>
      <trkpt lat="46.47328" lon="8.2397">
        <ele>1426</ele>
        <time>2020-07-16T13:57:18.584Z</time>
      </trkpt>
      <trkpt lat="46.47328" lon="8.23972">
        <ele>1426</ele>
        <time>2020-07-16T13:57:19.584Z</time>
      </trkpt>
      <trkpt lat="46.47329" lon="8.23973">
        <ele>1426</ele>
        <time>2020-07-16T13:57:20.584Z</time>
      </trkpt>
      <trkpt lat="46.4733" lon="8.23974">
        <ele>1426</ele>
        <time>2020-07-16T13:57:21.584Z</time>
      </trkpt>
      <trkpt lat="46.47331" lon="8.23975">
        <ele>1425</ele>
        <time>2020-07-16T13:57:22.584Z</time>
      </trkpt>
      <trkpt lat="46.47332" lon="8.23976">
        <ele>1425</ele>
        <time>2020-07-16T13:57:23.585Z</time>
      </trkpt>
      <trkpt lat="46.47333" lon="8.23978">
        <ele>1424</ele>
        <time>2020-07-16T13:57:24.585Z</time>
      </trkpt>
      <trkpt lat="46.47334" lon="8.2398">
        <ele>1423</ele>
        <time>2020-07-16T13:57:25.584Z</time>
      </trkpt>
      <trkpt lat="46.47335" lon="8.23981">
        <ele>1424</ele>
        <time>2020-07-16T13:57:26.584Z</time>
      </trkpt>
      <trkpt lat="46.47335" lon="8.23982">
        <ele>1424</ele>
        <time>2020-07-16T13:57:27.584Z</time>
      </trkpt>
      <trkpt lat="46.47336" lon="8.23983">
        <ele>1424</ele>
        <time>2020-07-16T13:57:28.584Z</time>
      </trkpt>
      <trkpt lat="46.47337" lon="8.23984">
        <ele>1424</ele>
        <time>2020-07-16T13:57:29.584Z</time>
      </trkpt>
      <trkpt lat="46.47338" lon="8.23986">
        <ele>1424</ele>
        <time>2020-07-16T13:57:30.585Z</time>
      </trkpt>
      <trkpt lat="46.47338" lon="8.23987">
        <ele>1424</ele>
        <time>2020-07-16T13:57:31.584Z</time>
      </trkpt>
      <trkpt lat="46.47339" lon="8.23988">
        <ele>1424</ele>
        <time>2020-07-16T13:57:32.584Z</time>
      </trkpt>
      <trkpt lat="46.4734" lon="8.23989">
        <ele>1424</ele>
        <time>2020-07-16T13:57:33.584Z</time>
      </trkpt>
      <trkpt lat="46.47341" lon="8.23991">
        <ele>1425</ele>
        <time>2020-07-16T13:57:34.585Z</time>
      </trkpt>
      <trkpt lat="46.47342" lon="8.23991">
        <ele>1425</ele>
        <time>2020-07-16T13:57:35.584Z</time>
      </trkpt>
      <trkpt lat="46.47343" lon="8.23992">
        <ele>1424</ele>
        <time>2020-07-16T13:57:36.585Z</time>
      </trkpt>
      <trkpt lat="46.47344" lon="8.23993">
        <ele>1425</ele>
        <time>2020-07-16T13:57:37.584Z</time>
      </trkpt>
      <trkpt lat="46.47345" lon="8.23995">
        <ele>1425</ele>
        <time>2020-07-16T13:57:38.585Z</time>
      </trkpt>
      <trkpt lat="46.47345" lon="8.23997">
        <ele>1425</ele>
        <time>2020-07-16T13:57:39.585Z</time>
      </trkpt>
      <trkpt lat="46.47346" lon="8.23998">
        <ele>1425</ele>
        <time>2020-07-16T13:57:40.584Z</time>
      </trkpt>
      <trkpt lat="46.47347" lon="8.23999">
        <ele>1425</ele>
        <time>2020-07-16T13:57:41.584Z</time>
      </trkpt>
      <trkpt lat="46.47348" lon="8.24">
        <ele>1425</ele>
        <time>2020-07-16T13:57:42.584Z</time>
      </trkpt>
      <trkpt lat="46.47349" lon="8.24002">
        <ele>1425</ele>
        <time>2020-07-16T13:57:43.584Z</time>
      </trkpt>
      <trkpt lat="46.47349" lon="8.24003">
        <ele>1425</ele>
        <time>2020-07-16T13:57:44.584Z</time>
      </trkpt>
      <trkpt lat="46.4735" lon="8.24004">
        <ele>1425</ele>
        <time>2020-07-16T13:57:45.584Z</time>
      </trkpt>
      <trkpt lat="46.4735" lon="8.24005">
        <ele>1425</ele>
        <time>2020-07-16T13:57:46.584Z</time>
      </trkpt>
      <trkpt lat="46.47351" lon="8.24007">
        <ele>1425</ele>
        <time>2020-07-16T13:57:47.584Z</time>
      </trkpt>
      <trkpt lat="46.47352" lon="8.24008">
        <ele>1424</ele>
        <time>2020-07-16T13:57:48.584Z</time>
      </trkpt>
      <trkpt lat="46.47353" lon="8.2401">
        <ele>1424</ele>
        <time>2020-07-16T13:57:49.584Z</time>
      </trkpt>
      <trkpt lat="46.47353" lon="8.24011">
        <ele>1424</ele>
        <time>2020-07-16T13:57:50.584Z</time>
      </trkpt>
      <trkpt lat="46.47354" lon="8.24012">
        <ele>1424</ele>
        <time>2020-07-16T13:57:51.584Z</time>
      </trkpt>
      <trkpt lat="46.47355" lon="8.24014">
        <ele>1424</ele>
        <time>2020-07-16T13:57:52.584Z</time>
      </trkpt>
      <trkpt lat="46.47356" lon="8.24016">
        <ele>1424</ele>
        <time>2020-07-16T13:57:53.584Z</time>
      </trkpt>
      <trkpt lat="46.47356" lon="8.24017">
        <ele>1424</ele>
        <time>2020-07-16T13:57:54.585Z</time>
      </trkpt>
      <trkpt lat="46.47357" lon="8.24018">
        <ele>1424</ele>
        <time>2020-07-16T13:57:55.584Z</time>
      </trkpt>
      <trkpt lat="46.47358" lon="8.2402">
        <ele>1424</ele>
        <time>2020-07-16T13:57:56.584Z</time>
      </trkpt>
      <trkpt lat="46.47359" lon="8.24021">
        <ele>1423</ele>
        <time>2020-07-16T13:57:57.584Z</time>
      </trkpt>
      <trkpt lat="46.47359" lon="8.24023">
        <ele>1423</ele>
        <time>2020-07-16T13:57:58.584Z</time>
      </trkpt>
      <trkpt lat="46.4736" lon="8.24024">
        <ele>1423</ele>
        <time>2020-07-16T13:57:59.584Z</time>
      </trkpt>
      <trkpt lat="46.47361" lon="8.24026">
        <ele>1422</ele>
        <time>2020-07-16T13:58:00.585Z</time>
      </trkpt>
      <trkpt lat="46.47362" lon="8.24027">
        <ele>1422</ele>
        <time>2020-07-16T13:58:01.584Z</time>
      </trkpt>
      <trkpt lat="46.47363" lon="8.24028">
        <ele>1422</ele>
        <time>2020-07-16T13:58:02.584Z</time>
      </trkpt>
      <trkpt lat="46.47364" lon="8.24029">
        <ele>1421</ele>
        <time>2020-07-16T13:58:03.584Z</time>
      </trkpt>
      <trkpt lat="46.47364" lon="8.2403">
        <ele>1420</ele>
        <time>2020-07-16T13:58:04.585Z</time>
      </trkpt>
      <trkpt lat="46.47365" lon="8.24031">
        <ele>1419</ele>
        <time>2020-07-16T13:58:05.584Z</time>
      </trkpt>
      <trkpt lat="46.47366" lon="8.24032">
        <ele>1419</ele>
        <time>2020-07-16T13:58:06.584Z</time>
      </trkpt>
      <trkpt lat="46.47366" lon="8.24034">
        <ele>1419</ele>
        <time>2020-07-16T13:58:07.584Z</time>
      </trkpt>
      <trkpt lat="46.47367" lon="8.24036">
        <ele>1419</ele>
        <time>2020-07-16T13:58:08.585Z</time>
      </trkpt>
      <trkpt lat="46.47367" lon="8.24037">
        <ele>1419</ele>
        <time>2020-07-16T13:58:09.584Z</time>
      </trkpt>
      <trkpt lat="46.47368" lon="8.24039">
        <ele>1419</ele>
        <time>2020-07-16T13:58:10.584Z</time>
      </trkpt>
      <trkpt lat="46.47369" lon="8.2404">
        <ele>1419</ele>
        <time>2020-07-16T13:58:11.584Z</time>
      </trkpt>
      <trkpt lat="46.47369" lon="8.24042">
        <ele>1419</ele>
        <time>2020-07-16T13:58:12.584Z</time>
      </trkpt>
      <trkpt lat="46.4737" lon="8.24044">
        <ele>1419</ele>
        <time>2020-07-16T13:58:13.584Z</time>
      </trkpt>
      <trkpt lat="46.47371" lon="8.24045">
        <ele>1419</ele>
        <time>2020-07-16T13:58:14.584Z</time>
      </trkpt>
      <trkpt lat="46.47372" lon="8.24047">
        <ele>1419</ele>
        <time>2020-07-16T13:58:15.585Z</time>
      </trkpt>
      <trkpt lat="46.47372" lon="8.24049">
        <ele>1418</ele>
        <time>2020-07-16T13:58:16.585Z</time>
      </trkpt>
      <trkpt lat="46.47373" lon="8.2405">
        <ele>1418</ele>
        <time>2020-07-16T13:58:17.584Z</time>
      </trkpt>
      <trkpt lat="46.47374" lon="8.24051">
        <ele>1417</ele>
        <time>2020-07-16T13:58:18.584Z</time>
      </trkpt>
      <trkpt lat="46.47374" lon="8.24053">
        <ele>1417</ele>
        <time>2020-07-16T13:58:19.584Z</time>
      </trkpt>
      <trkpt lat="46.47375" lon="8.24054">
        <ele>1417</ele>
        <time>2020-07-16T13:58:20.585Z</time>
      </trkpt>
      <trkpt lat="46.47375" lon="8.24056">
        <ele>1417</ele>
        <time>2020-07-16T13:58:21.584Z</time>
      </trkpt>
      <trkpt lat="46.47376" lon="8.24057">
        <ele>1416</ele>
        <time>2020-07-16T13:58:22.584Z</time>
      </trkpt>
      <trkpt lat="46.47377" lon="8.24058">
        <ele>1416</ele>
        <time>2020-07-16T13:58:23.585Z</time>
      </trkpt>
      <trkpt lat="46.47378" lon="8.24059">
        <ele>1416</ele>
        <time>2020-07-16T13:58:24.584Z</time>
      </trkpt>
      <trkpt lat="46.47379" lon="8.24061">
        <ele>1415</ele>
        <time>2020-07-16T13:58:25.584Z</time>
      </trkpt>
      <trkpt lat="46.4738" lon="8.24062">
        <ele>1415</ele>
        <time>2020-07-16T13:58:26.584Z</time>
      </trkpt>
      <trkpt lat="46.4738" lon="8.24063">
        <ele>1414</ele>
        <time>2020-07-16T13:58:27.584Z</time>
      </trkpt>
      <trkpt lat="46.47381" lon="8.24064">
        <ele>1413</ele>
        <time>2020-07-16T13:58:28.585Z</time>
      </trkpt>
      <trkpt lat="46.47381" lon="8.24066">
        <ele>1413</ele>
        <time>2020-07-16T13:58:29.585Z</time>
      </trkpt>
      <trkpt lat="46.47382" lon="8.24067">
        <ele>1412</ele>
        <time>2020-07-16T13:58:30.584Z</time>
      </trkpt>
      <trkpt lat="46.47383" lon="8.24068">
        <ele>1412</ele>
        <time>2020-07-16T13:58:31.585Z</time>
      </trkpt>
      <trkpt lat="46.47384" lon="8.2407">
        <ele>1412</ele>
        <time>2020-07-16T13:58:32.584Z</time>
      </trkpt>
      <trkpt lat="46.47384" lon="8.24071">
        <ele>1413</ele>
        <time>2020-07-16T13:58:33.584Z</time>
      </trkpt>
      <trkpt lat="46.47385" lon="8.24072">
        <ele>1413</ele>
        <time>2020-07-16T13:58:34.584Z</time>
      </trkpt>
      <trkpt lat="46.47385" lon="8.24074">
        <ele>1413</ele>
        <time>2020-07-16T13:58:35.584Z</time>
      </trkpt>
      <trkpt lat="46.47385" lon="8.24076">
        <ele>1414</ele>
        <time>2020-07-16T13:58:36.584Z</time>
      </trkpt>
      <trkpt lat="46.47386" lon="8.24078">
        <ele>1414</ele>
        <time>2020-07-16T13:58:37.584Z</time>
      </trkpt>
      <trkpt lat="46.47386" lon="8.2408">
        <ele>1415</ele>
        <time>2020-07-16T13:58:38.584Z</time>
      </trkpt>
      <trkpt lat="46.47387" lon="8.24081">
        <ele>1415</ele>
        <time>2020-07-16T13:58:39.584Z</time>
      </trkpt>
      <trkpt lat="46.47387" lon="8.24082">
        <ele>1416</ele>
        <time>2020-07-16T13:58:40.584Z</time>
      </trkpt>
      <trkpt lat="46.47387" lon="8.24083">
        <ele>1417</ele>
        <time>2020-07-16T13:58:41.585Z</time>
      </trkpt>
      <trkpt lat="46.47388" lon="8.24085">
        <ele>1418</ele>
        <time>2020-07-16T13:58:42.584Z</time>
      </trkpt>
      <trkpt lat="46.47388" lon="8.24086">
        <ele>1418</ele>
        <time>2020-07-16T13:58:43.584Z</time>
      </trkpt>
      <trkpt lat="46.47389" lon="8.24087">
        <ele>1419</ele>
        <time>2020-07-16T13:58:44.584Z</time>
      </trkpt>
      <trkpt lat="46.47389" lon="8.24089">
        <ele>1419</ele>
        <time>2020-07-16T13:58:45.584Z</time>
      </trkpt>
      <trkpt lat="46.4739" lon="8.2409">
        <ele>1419</ele>
        <time>2020-07-16T13:58:46.584Z</time>
      </trkpt>
      <trkpt lat="46.4739" lon="8.24092">
        <ele>1419</ele>
        <time>2020-07-16T13:58:47.584Z</time>
      </trkpt>
      <trkpt lat="46.4739" lon="8.24094">
        <ele>1419</ele>
        <time>2020-07-16T13:58:48.584Z</time>
      </trkpt>
      <trkpt lat="46.4739" lon="8.24096">
        <ele>1419</ele>
        <time>2020-07-16T13:58:49.584Z</time>
      </trkpt>
      <trkpt lat="46.4739" lon="8.24098">
        <ele>1418</ele>
        <time>2020-07-16T13:58:50.584Z</time>
      </trkpt>
      <trkpt lat="46.47391" lon="8.241">
        <ele>1418</ele>
        <time>2020-07-16T13:58:51.584Z</time>
      </trkpt>
      <trkpt lat="46.47391" lon="8.24102">
        <ele>1418</ele>
        <time>2020-07-16T13:58:52.584Z</time>
      </trkpt>
      <trkpt lat="46.47391" lon="8.24104">
        <ele>1418</ele>
        <time>2020-07-16T13:58:53.584Z</time>
      </trkpt>
      <trkpt lat="46.47392" lon="8.24106">
        <ele>1417</ele>
        <time>2020-07-16T13:58:54.584Z</time>
      </trkpt>
      <trkpt lat="46.47392" lon="8.24108">
        <ele>1417</ele>
        <time>2020-07-16T13:58:55.584Z</time>
      </trkpt>
      <trkpt lat="46.47392" lon="8.2411">
        <ele>1416</ele>
        <time>2020-07-16T13:58:56.585Z</time>
      </trkpt>
      <trkpt lat="46.47393" lon="8.24111">
        <ele>1416</ele>
        <time>2020-07-16T13:58:57.585Z</time>
      </trkpt>
      <trkpt lat="46.47393" lon="8.24112">
        <ele>1415</ele>
        <time>2020-07-16T13:58:58.584Z</time>
      </trkpt>
      <trkpt lat="46.47393" lon="8.24114">
        <ele>1414</ele>
        <time>2020-07-16T13:58:59.584Z</time>
      </trkpt>
      <trkpt lat="46.47393" lon="8.24116">
        <ele>1413</ele>
        <time>2020-07-16T13:59:00.585Z</time>
      </trkpt>
      <trkpt lat="46.47394" lon="8.24118">
        <ele>1413</ele>
        <time>2020-07-16T13:59:01.584Z</time>
      </trkpt>
      <trkpt lat="46.47394" lon="8.24119">
        <ele>1413</ele>
        <time>2020-07-16T13:59:02.585Z</time>
      </trkpt>
      <trkpt lat="46.47394" lon="8.2412">
        <ele>1412</ele>
        <time>2020-07-16T13:59:03.584Z</time>
      </trkpt>
      <trkpt lat="46.47394" lon="8.24122">
        <ele>1412</ele>
        <time>2020-07-16T13:59:04.585Z</time>
      </trkpt>
      <trkpt lat="46.47395" lon="8.24123">
        <ele>1412</ele>
        <time>2020-07-16T13:59:05.585Z</time>
      </trkpt>
      <trkpt lat="46.47395" lon="8.24126">
        <ele>1412</ele>
        <time>2020-07-16T13:59:06.585Z</time>
      </trkpt>
      <trkpt lat="46.47395" lon="8.24127">
        <ele>1412</ele>
        <time>2020-07-16T13:59:07.584Z</time>
      </trkpt>
      <trkpt lat="46.47395" lon="8.2413">
        <ele>1412</ele>
        <time>2020-07-16T13:59:08.584Z</time>
      </trkpt>
      <trkpt lat="46.47396" lon="8.24131">
        <ele>1412</ele>
        <time>2020-07-16T13:59:09.584Z</time>
      </trkpt>
      <trkpt lat="46.47396" lon="8.24133">
        <ele>1412</ele>
        <time>2020-07-16T13:59:10.584Z</time>
      </trkpt>
      <trkpt lat="46.47395" lon="8.24135">
        <ele>1412</ele>
        <time>2020-07-16T13:59:11.584Z</time>
      </trkpt>
      <trkpt lat="46.47396" lon="8.24137">
        <ele>1411</ele>
        <time>2020-07-16T13:59:12.584Z</time>
      </trkpt>
      <trkpt lat="46.47395" lon="8.24139">
        <ele>1412</ele>
        <time>2020-07-16T13:59:13.584Z</time>
      </trkpt>
      <trkpt lat="46.47395" lon="8.24141">
        <ele>1412</ele>
        <time>2020-07-16T13:59:14.584Z</time>
      </trkpt>
      <trkpt lat="46.47396" lon="8.24143">
        <ele>1412</ele>
        <time>2020-07-16T13:59:15.585Z</time>
      </trkpt>
      <trkpt lat="46.47396" lon="8.24145">
        <ele>1413</ele>
        <time>2020-07-16T13:59:16.584Z</time>
      </trkpt>
      <trkpt lat="46.47396" lon="8.24147">
        <ele>1413</ele>
        <time>2020-07-16T13:59:17.585Z</time>
      </trkpt>
      <trkpt lat="46.47396" lon="8.24149">
        <ele>1413</ele>
        <time>2020-07-16T13:59:18.584Z</time>
      </trkpt>
      <trkpt lat="46.47396" lon="8.2415">
        <ele>1413</ele>
        <time>2020-07-16T13:59:19.584Z</time>
      </trkpt>
      <trkpt lat="46.47396" lon="8.24152">
        <ele>1414</ele>
        <time>2020-07-16T13:59:20.584Z</time>
      </trkpt>
      <trkpt lat="46.47396" lon="8.24154">
        <ele>1414</ele>
        <time>2020-07-16T13:59:21.585Z</time>
      </trkpt>
      <trkpt lat="46.47397" lon="8.24155">
        <ele>1414</ele>
        <time>2020-07-16T13:59:22.584Z</time>
      </trkpt>
      <trkpt lat="46.47397" lon="8.24156">
        <ele>1413</ele>
        <time>2020-07-16T13:59:23.584Z</time>
      </trkpt>
      <trkpt lat="46.47397" lon="8.24158">
        <ele>1413</ele>
        <time>2020-07-16T13:59:24.584Z</time>
      </trkpt>
      <trkpt lat="46.47397" lon="8.2416">
        <ele>1412</ele>
        <time>2020-07-16T13:59:25.584Z</time>
      </trkpt>
      <trkpt lat="46.47397" lon="8.24161">
        <ele>1412</ele>
        <time>2020-07-16T13:59:26.584Z</time>
      </trkpt>
      <trkpt lat="46.47397" lon="8.24162">
        <ele>1412</ele>
        <time>2020-07-16T13:59:27.585Z</time>
      </trkpt>
      <trkpt lat="46.47397" lon="8.24164">
        <ele>1412</ele>
        <time>2020-07-16T13:59:28.584Z</time>
      </trkpt>
      <trkpt lat="46.47397" lon="8.24165">
        <ele>1412</ele>
        <time>2020-07-16T13:59:29.585Z</time>
      </trkpt>
      <trkpt lat="46.47397" lon="8.24167">
        <ele>1411</ele>
        <time>2020-07-16T13:59:30.584Z</time>
      </trkpt>
      <trkpt lat="46.47397" lon="8.24168">
        <ele>1411</ele>
        <time>2020-07-16T13:59:31.584Z</time>
      </trkpt>
      <trkpt lat="46.47397" lon="8.24169">
        <ele>1411</ele>
        <time>2020-07-16T13:59:32.585Z</time>
      </trkpt>
      <trkpt lat="46.47397" lon="8.24171">
        <ele>1411</ele>
        <time>2020-07-16T13:59:33.584Z</time>
      </trkpt>
      <trkpt lat="46.47397" lon="8.24173">
        <ele>1411</ele>
        <time>2020-07-16T13:59:34.584Z</time>
      </trkpt>
      <trkpt lat="46.47396" lon="8.24175">
        <ele>1411</ele>
        <time>2020-07-16T13:59:35.584Z</time>
      </trkpt>
      <trkpt lat="46.47396" lon="8.24177">
        <ele>1412</ele>
        <time>2020-07-16T13:59:36.584Z</time>
      </trkpt>
      <trkpt lat="46.47396" lon="8.24178">
        <ele>1412</ele>
        <time>2020-07-16T13:59:37.584Z</time>
      </trkpt>
      <trkpt lat="46.47395" lon="8.2418">
        <ele>1413</ele>
        <time>2020-07-16T13:59:38.584Z</time>
      </trkpt>
      <trkpt lat="46.47394" lon="8.24181">
        <ele>1413</ele>
        <time>2020-07-16T13:59:39.585Z</time>
      </trkpt>
      <trkpt lat="46.47393" lon="8.24182">
        <ele>1414</ele>
        <time>2020-07-16T13:59:40.584Z</time>
      </trkpt>
      <trkpt lat="46.47393" lon="8.24184">
        <ele>1414</ele>
        <time>2020-07-16T13:59:41.584Z</time>
      </trkpt>
      <trkpt lat="46.47392" lon="8.24186">
        <ele>1414</ele>
        <time>2020-07-16T13:59:42.585Z</time>
      </trkpt>
      <trkpt lat="46.47392" lon="8.24188">
        <ele>1414</ele>
        <time>2020-07-16T13:59:43.584Z</time>
      </trkpt>
      <trkpt lat="46.47392" lon="8.24191">
        <ele>1414</ele>
        <time>2020-07-16T13:59:44.584Z</time>
      </trkpt>
      <trkpt lat="46.47392" lon="8.24193">
        <ele>1415</ele>
        <time>2020-07-16T13:59:45.584Z</time>
      </trkpt>
      <trkpt lat="46.47392" lon="8.24195">
        <ele>1415</ele>
        <time>2020-07-16T13:59:46.585Z</time>
      </trkpt>
      <trkpt lat="46.47391" lon="8.24197">
        <ele>1416</ele>
        <time>2020-07-16T13:59:47.584Z</time>
      </trkpt>
      <trkpt lat="46.47392" lon="8.24198">
        <ele>1415</ele>
        <time>2020-07-16T13:59:48.584Z</time>
      </trkpt>
      <trkpt lat="46.47392" lon="8.24199">
        <ele>1415</ele>
        <time>2020-07-16T13:59:49.584Z</time>
      </trkpt>
      <trkpt lat="46.47392" lon="8.242">
        <ele>1415</ele>
        <time>2020-07-16T13:59:50.584Z</time>
      </trkpt>
      <trkpt lat="46.47392" lon="8.24201">
        <ele>1415</ele>
        <time>2020-07-16T13:59:51.584Z</time>
      </trkpt>
      <trkpt lat="46.47392" lon="8.24202">
        <ele>1415</ele>
        <time>2020-07-16T13:59:52.584Z</time>
      </trkpt>
      <trkpt lat="46.47391" lon="8.24204">
        <ele>1415</ele>
        <time>2020-07-16T13:59:53.584Z</time>
      </trkpt>
      <trkpt lat="46.47391" lon="8.24206">
        <ele>1415</ele>
        <time>2020-07-16T13:59:54.585Z</time>
      </trkpt>
      <trkpt lat="46.47391" lon="8.24207">
        <ele>1415</ele>
        <time>2020-07-16T13:59:55.585Z</time>
      </trkpt>
      <trkpt lat="46.47391" lon="8.24209">
        <ele>1415</ele>
        <time>2020-07-16T13:59:56.584Z</time>
      </trkpt>
      <trkpt lat="46.47391" lon="8.24211">
        <ele>1416</ele>
        <time>2020-07-16T13:59:57.584Z</time>
      </trkpt>
      <trkpt lat="46.4739" lon="8.24212">
        <ele>1416</ele>
        <time>2020-07-16T13:59:58.584Z</time>
      </trkpt>
      <trkpt lat="46.4739" lon="8.24214">
        <ele>1416</ele>
        <time>2020-07-16T13:59:59.584Z</time>
      </trkpt>
      <trkpt lat="46.4739" lon="8.24216">
        <ele>1415</ele>
        <time>2020-07-16T14:00:00.584Z</time>
      </trkpt>
      <trkpt lat="46.4739" lon="8.24217">
        <ele>1415</ele>
        <time>2020-07-16T14:00:01.585Z</time>
      </trkpt>
      <trkpt lat="46.4739" lon="8.24219">
        <ele>1414</ele>
        <time>2020-07-16T14:00:02.585Z</time>
      </trkpt>
      <trkpt lat="46.4739" lon="8.2422">
        <ele>1414</ele>
        <time>2020-07-16T14:00:03.584Z</time>
      </trkpt>
      <trkpt lat="46.4739" lon="8.24221">
        <ele>1414</ele>
        <time>2020-07-16T14:00:04.584Z</time>
      </trkpt>
      <trkpt lat="46.47389" lon="8.24223">
        <ele>1414</ele>
        <time>2020-07-16T14:00:05.584Z</time>
      </trkpt>
      <trkpt lat="46.47389" lon="8.24224">
        <ele>1414</ele>
        <time>2020-07-16T14:00:06.584Z</time>
      </trkpt>
      <trkpt lat="46.47389" lon="8.24226">
        <ele>1413</ele>
        <time>2020-07-16T14:00:07.585Z</time>
      </trkpt>
      <trkpt lat="46.47389" lon="8.24227">
        <ele>1413</ele>
        <time>2020-07-16T14:00:08.584Z</time>
      </trkpt>
      <trkpt lat="46.47389" lon="8.24228">
        <ele>1413</ele>
        <time>2020-07-16T14:00:09.584Z</time>
      </trkpt>
      <trkpt lat="46.47389" lon="8.2423">
        <ele>1413</ele>
        <time>2020-07-16T14:00:10.585Z</time>
      </trkpt>
      <trkpt lat="46.47389" lon="8.24232">
        <ele>1413</ele>
        <time>2020-07-16T14:00:11.584Z</time>
      </trkpt>
      <trkpt lat="46.47389" lon="8.24233">
        <ele>1413</ele>
        <time>2020-07-16T14:00:12.584Z</time>
      </trkpt>
      <trkpt lat="46.47389" lon="8.24235">
        <ele>1413</ele>
        <time>2020-07-16T14:00:13.585Z</time>
      </trkpt>
      <trkpt lat="46.47389" lon="8.24236">
        <ele>1413</ele>
        <time>2020-07-16T14:00:14.584Z</time>
      </trkpt>
      <trkpt lat="46.47389" lon="8.24237">
        <ele>1413</ele>
        <time>2020-07-16T14:00:15.585Z</time>
      </trkpt>
      <trkpt lat="46.47389" lon="8.24238">
        <ele>1413</ele>
        <time>2020-07-16T14:00:16.584Z</time>
      </trkpt>
      <trkpt lat="46.47389" lon="8.24238">
        <ele>1412</ele>
        <time>2020-07-16T14:00:17.584Z</time>
      </trkpt>
      <trkpt lat="46.47389" lon="8.24238">
        <ele>1412</ele>
        <time>2020-07-16T14:00:18.584Z</time>
      </trkpt>
      <trkpt lat="46.4739" lon="8.24235">
        <ele>1408</ele>
        <time>2020-07-16T14:00:19.584Z</time>
      </trkpt>
      <trkpt lat="46.4739" lon="8.24234">
        <ele>1407</ele>
        <time>2020-07-16T14:00:20.584Z</time>
      </trkpt>
      <trkpt lat="46.4739" lon="8.24232">
        <ele>1406</ele>
        <time>2020-07-16T14:00:21.585Z</time>
      </trkpt>
      <trkpt lat="46.4739" lon="8.24231">
        <ele>1406</ele>
        <time>2020-07-16T14:00:22.584Z</time>
      </trkpt>
      <trkpt lat="46.4739" lon="8.2423">
        <ele>1405</ele>
        <time>2020-07-16T14:00:23.584Z</time>
      </trkpt>
      <trkpt lat="46.4739" lon="8.24229">
        <ele>1405</ele>
        <time>2020-07-16T14:00:24.585Z</time>
      </trkpt>
      <trkpt lat="46.47389" lon="8.24227">
        <ele>1405</ele>
        <time>2020-07-16T14:00:25.584Z</time>
      </trkpt>
      <trkpt lat="46.47389" lon="8.24225">
        <ele>1406</ele>
        <time>2020-07-16T14:00:26.584Z</time>
      </trkpt>
      <trkpt lat="46.47388" lon="8.24224">
        <ele>1405</ele>
        <time>2020-07-16T14:00:27.585Z</time>
      </trkpt>
      <trkpt lat="46.47388" lon="8.24221">
        <ele>1405</ele>
        <time>2020-07-16T14:00:28.584Z</time>
      </trkpt>
      <trkpt lat="46.47387" lon="8.24219">
        <ele>1405</ele>
        <time>2020-07-16T14:00:29.584Z</time>
      </trkpt>
      <trkpt lat="46.47386" lon="8.24219">
        <ele>1404</ele>
        <time>2020-07-16T14:00:30.585Z</time>
      </trkpt>
      <trkpt lat="46.47386" lon="8.24218">
        <ele>1404</ele>
        <time>2020-07-16T14:00:31.584Z</time>
      </trkpt>
      <trkpt lat="46.47385" lon="8.24218">
        <ele>1404</ele>
        <time>2020-07-16T14:00:32.585Z</time>
      </trkpt>
      <trkpt lat="46.47384" lon="8.24218">
        <ele>1404</ele>
        <time>2020-07-16T14:00:33.584Z</time>
      </trkpt>
      <trkpt lat="46.47383" lon="8.24217">
        <ele>1404</ele>
        <time>2020-07-16T14:00:34.585Z</time>
      </trkpt>
      <trkpt lat="46.47382" lon="8.24217">
        <ele>1404</ele>
        <time>2020-07-16T14:00:35.584Z</time>
      </trkpt>
      <trkpt lat="46.47381" lon="8.24216">
        <ele>1404</ele>
        <time>2020-07-16T14:00:36.585Z</time>
      </trkpt>
      <trkpt lat="46.4738" lon="8.24216">
        <ele>1404</ele>
        <time>2020-07-16T14:00:37.584Z</time>
      </trkpt>
      <trkpt lat="46.47378" lon="8.24216">
        <ele>1404</ele>
        <time>2020-07-16T14:00:38.584Z</time>
      </trkpt>
      <trkpt lat="46.47377" lon="8.24216">
        <ele>1404</ele>
        <time>2020-07-16T14:00:39.584Z</time>
      </trkpt>
      <trkpt lat="46.47376" lon="8.24217">
        <ele>1404</ele>
        <time>2020-07-16T14:00:40.585Z</time>
      </trkpt>
      <trkpt lat="46.47375" lon="8.24216">
        <ele>1405</ele>
        <time>2020-07-16T14:00:41.585Z</time>
      </trkpt>
      <trkpt lat="46.47374" lon="8.24216">
        <ele>1406</ele>
        <time>2020-07-16T14:00:42.585Z</time>
      </trkpt>
      <trkpt lat="46.47373" lon="8.24216">
        <ele>1406</ele>
        <time>2020-07-16T14:00:43.584Z</time>
      </trkpt>
      <trkpt lat="46.47373" lon="8.24216">
        <ele>1407</ele>
        <time>2020-07-16T14:00:44.585Z</time>
      </trkpt>
      <trkpt lat="46.47372" lon="8.24216">
        <ele>1407</ele>
        <time>2020-07-16T14:00:45.584Z</time>
      </trkpt>
      <trkpt lat="46.47371" lon="8.24216">
        <ele>1408</ele>
        <time>2020-07-16T14:00:46.585Z</time>
      </trkpt>
      <trkpt lat="46.4737" lon="8.24216">
        <ele>1408</ele>
        <time>2020-07-16T14:00:47.584Z</time>
      </trkpt>
      <trkpt lat="46.47369" lon="8.24215">
        <ele>1408</ele>
        <time>2020-07-16T14:00:48.585Z</time>
      </trkpt>
      <trkpt lat="46.47369" lon="8.24215">
        <ele>1408</ele>
        <time>2020-07-16T14:00:49.585Z</time>
      </trkpt>
      <trkpt lat="46.47368" lon="8.24214">
        <ele>1408</ele>
        <time>2020-07-16T14:00:50.584Z</time>
      </trkpt>
      <trkpt lat="46.47368" lon="8.24214">
        <ele>1407</ele>
        <time>2020-07-16T14:00:51.584Z</time>
      </trkpt>
      <trkpt lat="46.47367" lon="8.24213">
        <ele>1406</ele>
        <time>2020-07-16T14:00:52.585Z</time>
      </trkpt>
      <trkpt lat="46.47366" lon="8.24212">
        <ele>1405</ele>
        <time>2020-07-16T14:00:53.584Z</time>
      </trkpt>
      <trkpt lat="46.47366" lon="8.2421">
        <ele>1405</ele>
        <time>2020-07-16T14:00:54.585Z</time>
      </trkpt>
      <trkpt lat="46.47365" lon="8.24209">
        <ele>1404</ele>
        <time>2020-07-16T14:00:55.585Z</time>
      </trkpt>
      <trkpt lat="46.47364" lon="8.24209">
        <ele>1404</ele>
        <time>2020-07-16T14:00:56.585Z</time>
      </trkpt>
      <trkpt lat="46.47363" lon="8.24209">
        <ele>1404</ele>
        <time>2020-07-16T14:00:57.584Z</time>
      </trkpt>
      <trkpt lat="46.47362" lon="8.24209">
        <ele>1403</ele>
        <time>2020-07-16T14:00:58.584Z</time>
      </trkpt>
      <trkpt lat="46.47361" lon="8.24209">
        <ele>1403</ele>
        <time>2020-07-16T14:00:59.585Z</time>
      </trkpt>
      <trkpt lat="46.47361" lon="8.24209">
        <ele>1403</ele>
        <time>2020-07-16T14:01:00.585Z</time>
      </trkpt>
      <trkpt lat="46.4736" lon="8.24209">
        <ele>1403</ele>
        <time>2020-07-16T14:01:01.584Z</time>
      </trkpt>
      <trkpt lat="46.47359" lon="8.24207">
        <ele>1403</ele>
        <time>2020-07-16T14:01:02.585Z</time>
      </trkpt>
      <trkpt lat="46.47359" lon="8.24207">
        <ele>1402</ele>
        <time>2020-07-16T14:01:03.584Z</time>
      </trkpt>
      <trkpt lat="46.47358" lon="8.24207">
        <ele>1402</ele>
        <time>2020-07-16T14:01:04.584Z</time>
      </trkpt>
      <trkpt lat="46.47358" lon="8.24207">
        <ele>1401</ele>
        <time>2020-07-16T14:01:05.584Z</time>
      </trkpt>
      <trkpt lat="46.47357" lon="8.24206">
        <ele>1400</ele>
        <time>2020-07-16T14:01:06.585Z</time>
      </trkpt>
      <trkpt lat="46.47356" lon="8.24206">
        <ele>1400</ele>
        <time>2020-07-16T14:01:07.584Z</time>
      </trkpt>
      <trkpt lat="46.47355" lon="8.24206">
        <ele>1399</ele>
        <time>2020-07-16T14:01:08.585Z</time>
      </trkpt>
      <trkpt lat="46.47355" lon="8.24205">
        <ele>1398</ele>
        <time>2020-07-16T14:01:09.585Z</time>
      </trkpt>
      <trkpt lat="46.47354" lon="8.24205">
        <ele>1398</ele>
        <time>2020-07-16T14:01:10.585Z</time>
      </trkpt>
      <trkpt lat="46.47352" lon="8.24205">
        <ele>1398</ele>
        <time>2020-07-16T14:01:11.584Z</time>
      </trkpt>
      <trkpt lat="46.47351" lon="8.24204">
        <ele>1398</ele>
        <time>2020-07-16T14:01:12.584Z</time>
      </trkpt>
      <trkpt lat="46.4735" lon="8.24204">
        <ele>1398</ele>
        <time>2020-07-16T14:01:13.585Z</time>
      </trkpt>
      <trkpt lat="46.47349" lon="8.24203">
        <ele>1398</ele>
        <time>2020-07-16T14:01:14.584Z</time>
      </trkpt>
      <trkpt lat="46.47349" lon="8.24202">
        <ele>1398</ele>
        <time>2020-07-16T14:01:15.585Z</time>
      </trkpt>
      <trkpt lat="46.47348" lon="8.24202">
        <ele>1398</ele>
        <time>2020-07-16T14:01:16.584Z</time>
      </trkpt>
      <trkpt lat="46.47347" lon="8.24201">
        <ele>1398</ele>
        <time>2020-07-16T14:01:17.585Z</time>
      </trkpt>
      <trkpt lat="46.47347" lon="8.24201">
        <ele>1398</ele>
        <time>2020-07-16T14:01:18.585Z</time>
      </trkpt>
      <trkpt lat="46.47345" lon="8.242">
        <ele>1398</ele>
        <time>2020-07-16T14:01:19.584Z</time>
      </trkpt>
      <trkpt lat="46.47345" lon="8.24199">
        <ele>1398</ele>
        <time>2020-07-16T14:01:20.585Z</time>
      </trkpt>
      <trkpt lat="46.47344" lon="8.24198">
        <ele>1398</ele>
        <time>2020-07-16T14:01:21.584Z</time>
      </trkpt>
      <trkpt lat="46.47343" lon="8.24198">
        <ele>1398</ele>
        <time>2020-07-16T14:01:22.585Z</time>
      </trkpt>
      <trkpt lat="46.47342" lon="8.24197">
        <ele>1399</ele>
        <time>2020-07-16T14:01:23.585Z</time>
      </trkpt>
      <trkpt lat="46.47341" lon="8.24197">
        <ele>1399</ele>
        <time>2020-07-16T14:01:24.584Z</time>
      </trkpt>
      <trkpt lat="46.4734" lon="8.24196">
        <ele>1399</ele>
        <time>2020-07-16T14:01:25.585Z</time>
      </trkpt>
      <trkpt lat="46.47339" lon="8.24196">
        <ele>1399</ele>
        <time>2020-07-16T14:01:26.585Z</time>
      </trkpt>
      <trkpt lat="46.47338" lon="8.24195">
        <ele>1400</ele>
        <time>2020-07-16T14:01:27.584Z</time>
      </trkpt>
      <trkpt lat="46.47338" lon="8.24195">
        <ele>1400</ele>
        <time>2020-07-16T14:01:28.584Z</time>
      </trkpt>
      <trkpt lat="46.47336" lon="8.24194">
        <ele>1400</ele>
        <time>2020-07-16T14:01:29.585Z</time>
      </trkpt>
      <trkpt lat="46.47335" lon="8.24194">
        <ele>1400</ele>
        <time>2020-07-16T14:01:30.584Z</time>
      </trkpt>
      <trkpt lat="46.47334" lon="8.24194">
        <ele>1400</ele>
        <time>2020-07-16T14:01:31.584Z</time>
      </trkpt>
      <trkpt lat="46.47334" lon="8.24194">
        <ele>1400</ele>
        <time>2020-07-16T14:01:32.584Z</time>
      </trkpt>
      <trkpt lat="46.47333" lon="8.24194">
        <ele>1400</ele>
        <time>2020-07-16T14:01:33.585Z</time>
      </trkpt>
      <trkpt lat="46.47332" lon="8.24193">
        <ele>1399</ele>
        <time>2020-07-16T14:01:34.585Z</time>
      </trkpt>
      <trkpt lat="46.47332" lon="8.24193">
        <ele>1399</ele>
        <time>2020-07-16T14:01:35.584Z</time>
      </trkpt>
      <trkpt lat="46.47331" lon="8.24193">
        <ele>1399</ele>
        <time>2020-07-16T14:01:36.584Z</time>
      </trkpt>
      <trkpt lat="46.4733" lon="8.24193">
        <ele>1398</ele>
        <time>2020-07-16T14:01:37.584Z</time>
      </trkpt>
      <trkpt lat="46.47329" lon="8.24192">
        <ele>1398</ele>
        <time>2020-07-16T14:01:38.585Z</time>
      </trkpt>
      <trkpt lat="46.47328" lon="8.24192">
        <ele>1397</ele>
        <time>2020-07-16T14:01:39.584Z</time>
      </trkpt>
      <trkpt lat="46.47328" lon="8.24191">
        <ele>1397</ele>
        <time>2020-07-16T14:01:40.584Z</time>
      </trkpt>
      <trkpt lat="46.47327" lon="8.2419">
        <ele>1396</ele>
        <time>2020-07-16T14:01:41.584Z</time>
      </trkpt>
      <trkpt lat="46.47326" lon="8.24189">
        <ele>1395</ele>
        <time>2020-07-16T14:01:42.584Z</time>
      </trkpt>
      <trkpt lat="46.47326" lon="8.24188">
        <ele>1394</ele>
        <time>2020-07-16T14:01:43.585Z</time>
      </trkpt>
      <trkpt lat="46.47325" lon="8.24187">
        <ele>1394</ele>
        <time>2020-07-16T14:01:44.585Z</time>
      </trkpt>
      <trkpt lat="46.47324" lon="8.24187">
        <ele>1394</ele>
        <time>2020-07-16T14:01:45.584Z</time>
      </trkpt>
      <trkpt lat="46.47323" lon="8.24186">
        <ele>1394</ele>
        <time>2020-07-16T14:01:46.585Z</time>
      </trkpt>
      <trkpt lat="46.47323" lon="8.24186">
        <ele>1393</ele>
        <time>2020-07-16T14:01:47.585Z</time>
      </trkpt>
      <trkpt lat="46.47322" lon="8.24186">
        <ele>1393</ele>
        <time>2020-07-16T14:01:48.584Z</time>
      </trkpt>
      <trkpt lat="46.47321" lon="8.24186">
        <ele>1392</ele>
        <time>2020-07-16T14:01:49.584Z</time>
      </trkpt>
      <trkpt lat="46.47321" lon="8.24185">
        <ele>1392</ele>
        <time>2020-07-16T14:01:50.584Z</time>
      </trkpt>
      <trkpt lat="46.4732" lon="8.24185">
        <ele>1392</ele>
        <time>2020-07-16T14:01:51.584Z</time>
      </trkpt>
      <trkpt lat="46.4732" lon="8.24184">
        <ele>1391</ele>
        <time>2020-07-16T14:01:52.585Z</time>
      </trkpt>
      <trkpt lat="46.47319" lon="8.24184">
        <ele>1391</ele>
        <time>2020-07-16T14:01:53.584Z</time>
      </trkpt>
      <trkpt lat="46.47318" lon="8.24184">
        <ele>1391</ele>
        <time>2020-07-16T14:01:54.585Z</time>
      </trkpt>
      <trkpt lat="46.47317" lon="8.24184">
        <ele>1391</ele>
        <time>2020-07-16T14:01:55.585Z</time>
      </trkpt>
      <trkpt lat="46.47316" lon="8.24184">
        <ele>1391</ele>
        <time>2020-07-16T14:01:56.585Z</time>
      </trkpt>
      <trkpt lat="46.47315" lon="8.24184">
        <ele>1391</ele>
        <time>2020-07-16T14:01:57.584Z</time>
      </trkpt>
      <trkpt lat="46.47314" lon="8.24184">
        <ele>1391</ele>
        <time>2020-07-16T14:01:58.585Z</time>
      </trkpt>
      <trkpt lat="46.47313" lon="8.24184">
        <ele>1391</ele>
        <time>2020-07-16T14:01:59.585Z</time>
      </trkpt>
      <trkpt lat="46.47312" lon="8.24185">
        <ele>1392</ele>
        <time>2020-07-16T14:02:00.585Z</time>
      </trkpt>
      <trkpt lat="46.47311" lon="8.24185">
        <ele>1392</ele>
        <time>2020-07-16T14:02:01.584Z</time>
      </trkpt>
      <trkpt lat="46.4731" lon="8.24185">
        <ele>1392</ele>
        <time>2020-07-16T14:02:02.584Z</time>
      </trkpt>
      <trkpt lat="46.47309" lon="8.24184">
        <ele>1392</ele>
        <time>2020-07-16T14:02:03.584Z</time>
      </trkpt>
      <trkpt lat="46.47308" lon="8.24184">
        <ele>1392</ele>
        <time>2020-07-16T14:02:04.585Z</time>
      </trkpt>
      <trkpt lat="46.47308" lon="8.24183">
        <ele>1392</ele>
        <time>2020-07-16T14:02:05.585Z</time>
      </trkpt>
      <trkpt lat="46.47307" lon="8.24183">
        <ele>1392</ele>
        <time>2020-07-16T14:02:06.584Z</time>
      </trkpt>
      <trkpt lat="46.47305" lon="8.24182">
        <ele>1393</ele>
        <time>2020-07-16T14:02:07.584Z</time>
      </trkpt>
      <trkpt lat="46.47305" lon="8.24182">
        <ele>1393</ele>
        <time>2020-07-16T14:02:08.584Z</time>
      </trkpt>
      <trkpt lat="46.47304" lon="8.24182">
        <ele>1393</ele>
        <time>2020-07-16T14:02:09.584Z</time>
      </trkpt>
      <trkpt lat="46.47303" lon="8.24181">
        <ele>1393</ele>
        <time>2020-07-16T14:02:10.584Z</time>
      </trkpt>
      <trkpt lat="46.47303" lon="8.24181">
        <ele>1393</ele>
        <time>2020-07-16T14:02:11.584Z</time>
      </trkpt>
      <trkpt lat="46.47302" lon="8.24181">
        <ele>1393</ele>
        <time>2020-07-16T14:02:12.585Z</time>
      </trkpt>
      <trkpt lat="46.47301" lon="8.2418">
        <ele>1393</ele>
        <time>2020-07-16T14:02:13.584Z</time>
      </trkpt>
      <trkpt lat="46.473" lon="8.2418">
        <ele>1393</ele>
        <time>2020-07-16T14:02:14.585Z</time>
      </trkpt>
      <trkpt lat="46.473" lon="8.2418">
        <ele>1393</ele>
        <time>2020-07-16T14:02:15.584Z</time>
      </trkpt>
      <trkpt lat="46.47299" lon="8.24179">
        <ele>1393</ele>
        <time>2020-07-16T14:02:16.585Z</time>
      </trkpt>
      <trkpt lat="46.47299" lon="8.24179">
        <ele>1392</ele>
        <time>2020-07-16T14:02:17.584Z</time>
      </trkpt>
      <trkpt lat="46.47298" lon="8.24178">
        <ele>1392</ele>
        <time>2020-07-16T14:02:18.585Z</time>
      </trkpt>
      <trkpt lat="46.47298" lon="8.24177">
        <ele>1392</ele>
        <time>2020-07-16T14:02:19.585Z</time>
      </trkpt>
      <trkpt lat="46.47297" lon="8.24176">
        <ele>1392</ele>
        <time>2020-07-16T14:02:20.585Z</time>
      </trkpt>
      <trkpt lat="46.47296" lon="8.24175">
        <ele>1392</ele>
        <time>2020-07-16T14:02:21.584Z</time>
      </trkpt>
      <trkpt lat="46.47296" lon="8.24174">
        <ele>1392</ele>
        <time>2020-07-16T14:02:22.585Z</time>
      </trkpt>
      <trkpt lat="46.47295" lon="8.24172">
        <ele>1392</ele>
        <time>2020-07-16T14:02:23.584Z</time>
      </trkpt>
      <trkpt lat="46.47295" lon="8.2417">
        <ele>1392</ele>
        <time>2020-07-16T14:02:24.584Z</time>
      </trkpt>
      <trkpt lat="46.47295" lon="8.24168">
        <ele>1392</ele>
        <time>2020-07-16T14:02:25.585Z</time>
      </trkpt>
      <trkpt lat="46.47295" lon="8.24167">
        <ele>1392</ele>
        <time>2020-07-16T14:02:26.584Z</time>
      </trkpt>
      <trkpt lat="46.47295" lon="8.24165">
        <ele>1391</ele>
        <time>2020-07-16T14:02:27.585Z</time>
      </trkpt>
      <trkpt lat="46.47295" lon="8.24164">
        <ele>1391</ele>
        <time>2020-07-16T14:02:28.585Z</time>
      </trkpt>
      <trkpt lat="46.47294" lon="8.24163">
        <ele>1390</ele>
        <time>2020-07-16T14:02:29.585Z</time>
      </trkpt>
      <trkpt lat="46.47294" lon="8.24161">
        <ele>1389</ele>
        <time>2020-07-16T14:02:30.585Z</time>
      </trkpt>
      <trkpt lat="46.47293" lon="8.24159">
        <ele>1388</ele>
        <time>2020-07-16T14:02:31.584Z</time>
      </trkpt>
      <trkpt lat="46.47293" lon="8.24158">
        <ele>1387</ele>
        <time>2020-07-16T14:02:32.585Z</time>
      </trkpt>
      <trkpt lat="46.47291" lon="8.24157">
        <ele>1387</ele>
        <time>2020-07-16T14:02:33.584Z</time>
      </trkpt>
      <trkpt lat="46.4729" lon="8.24156">
        <ele>1387</ele>
        <time>2020-07-16T14:02:34.585Z</time>
      </trkpt>
      <trkpt lat="46.47289" lon="8.24156">
        <ele>1387</ele>
        <time>2020-07-16T14:02:35.585Z</time>
      </trkpt>
      <trkpt lat="46.47288" lon="8.24157">
        <ele>1387</ele>
        <time>2020-07-16T14:02:36.585Z</time>
      </trkpt>
      <trkpt lat="46.47287" lon="8.24157">
        <ele>1387</ele>
        <time>2020-07-16T14:02:37.584Z</time>
      </trkpt>
      <trkpt lat="46.47287" lon="8.24157">
        <ele>1387</ele>
        <time>2020-07-16T14:02:38.585Z</time>
      </trkpt>
      <trkpt lat="46.47286" lon="8.24157">
        <ele>1387</ele>
        <time>2020-07-16T14:02:39.585Z</time>
      </trkpt>
      <trkpt lat="46.47284" lon="8.24156">
        <ele>1387</ele>
        <time>2020-07-16T14:02:40.584Z</time>
      </trkpt>
      <trkpt lat="46.47284" lon="8.24155">
        <ele>1387</ele>
        <time>2020-07-16T14:02:41.584Z</time>
      </trkpt>
      <trkpt lat="46.47282" lon="8.24155">
        <ele>1388</ele>
        <time>2020-07-16T14:02:42.584Z</time>
      </trkpt>
      <trkpt lat="46.47281" lon="8.24156">
        <ele>1388</ele>
        <time>2020-07-16T14:02:43.584Z</time>
      </trkpt>
      <trkpt lat="46.47279" lon="8.24156">
        <ele>1389</ele>
        <time>2020-07-16T14:02:44.584Z</time>
      </trkpt>
      <trkpt lat="46.47278" lon="8.24157">
        <ele>1389</ele>
        <time>2020-07-16T14:02:45.585Z</time>
      </trkpt>
      <trkpt lat="46.47278" lon="8.24157">
        <ele>1389</ele>
        <time>2020-07-16T14:02:46.585Z</time>
      </trkpt>
      <trkpt lat="46.47277" lon="8.24157">
        <ele>1389</ele>
        <time>2020-07-16T14:02:47.584Z</time>
      </trkpt>
      <trkpt lat="46.47277" lon="8.24157">
        <ele>1388</ele>
        <time>2020-07-16T14:02:48.585Z</time>
      </trkpt>
      <trkpt lat="46.47276" lon="8.24157">
        <ele>1387</ele>
        <time>2020-07-16T14:02:49.585Z</time>
      </trkpt>
      <trkpt lat="46.47274" lon="8.24158">
        <ele>1387</ele>
        <time>2020-07-16T14:02:50.585Z</time>
      </trkpt>
      <trkpt lat="46.47274" lon="8.24157">
        <ele>1386</ele>
        <time>2020-07-16T14:02:51.585Z</time>
      </trkpt>
      <trkpt lat="46.47274" lon="8.24157">
        <ele>1385</ele>
        <time>2020-07-16T14:02:52.585Z</time>
      </trkpt>
      <trkpt lat="46.47273" lon="8.24157">
        <ele>1384</ele>
        <time>2020-07-16T14:02:53.585Z</time>
      </trkpt>
      <trkpt lat="46.47273" lon="8.24156">
        <ele>1383</ele>
        <time>2020-07-16T14:02:54.584Z</time>
      </trkpt>
      <trkpt lat="46.47272" lon="8.24155">
        <ele>1382</ele>
        <time>2020-07-16T14:02:55.585Z</time>
      </trkpt>
      <trkpt lat="46.47272" lon="8.24154">
        <ele>1381</ele>
        <time>2020-07-16T14:02:56.584Z</time>
      </trkpt>
      <trkpt lat="46.47272" lon="8.24154">
        <ele>1380</ele>
        <time>2020-07-16T14:02:57.585Z</time>
      </trkpt>
      <trkpt lat="46.47272" lon="8.24154">
        <ele>1379</ele>
        <time>2020-07-16T14:02:58.585Z</time>
      </trkpt>
      <trkpt lat="46.47271" lon="8.24154">
        <ele>1378</ele>
        <time>2020-07-16T14:02:59.584Z</time>
      </trkpt>
      <trkpt lat="46.47271" lon="8.24154">
        <ele>1377</ele>
        <time>2020-07-16T14:03:00.584Z</time>
      </trkpt>
      <trkpt lat="46.47271" lon="8.24153">
        <ele>1376</ele>
        <time>2020-07-16T14:03:01.585Z</time>
      </trkpt>
      <trkpt lat="46.47271" lon="8.24153">
        <ele>1376</ele>
        <time>2020-07-16T14:03:02.584Z</time>
      </trkpt>
      <trkpt lat="46.4727" lon="8.24153">
        <ele>1376</ele>
        <time>2020-07-16T14:03:03.584Z</time>
      </trkpt>
      <trkpt lat="46.47269" lon="8.24152">
        <ele>1376</ele>
        <time>2020-07-16T14:03:04.584Z</time>
      </trkpt>
      <trkpt lat="46.47267" lon="8.24152">
        <ele>1376</ele>
        <time>2020-07-16T14:03:05.585Z</time>
      </trkpt>
      <trkpt lat="46.47266" lon="8.24152">
        <ele>1376</ele>
        <time>2020-07-16T14:03:06.584Z</time>
      </trkpt>
      <trkpt lat="46.47265" lon="8.24152">
        <ele>1376</ele>
        <time>2020-07-16T14:03:07.584Z</time>
      </trkpt>
      <trkpt lat="46.47264" lon="8.24151">
        <ele>1376</ele>
        <time>2020-07-16T14:03:08.584Z</time>
      </trkpt>
      <trkpt lat="46.47264" lon="8.2415">
        <ele>1376</ele>
        <time>2020-07-16T14:03:09.584Z</time>
      </trkpt>
      <trkpt lat="46.47263" lon="8.2415">
        <ele>1376</ele>
        <time>2020-07-16T14:03:10.584Z</time>
      </trkpt>
      <trkpt lat="46.47262" lon="8.24149">
        <ele>1376</ele>
        <time>2020-07-16T14:03:11.585Z</time>
      </trkpt>
      <trkpt lat="46.47262" lon="8.24149">
        <ele>1376</ele>
        <time>2020-07-16T14:03:12.585Z</time>
      </trkpt>
      <trkpt lat="46.47261" lon="8.24149">
        <ele>1376</ele>
        <time>2020-07-16T14:03:13.584Z</time>
      </trkpt>
      <trkpt lat="46.4726" lon="8.24149">
        <ele>1377</ele>
        <time>2020-07-16T14:03:14.584Z</time>
      </trkpt>
      <trkpt lat="46.4726" lon="8.24148">
        <ele>1376</ele>
        <time>2020-07-16T14:03:15.585Z</time>
      </trkpt>
      <trkpt lat="46.4726" lon="8.24147">
        <ele>1376</ele>
        <time>2020-07-16T14:03:16.584Z</time>
      </trkpt>
      <trkpt lat="46.47259" lon="8.24146">
        <ele>1375</ele>
        <time>2020-07-16T14:03:17.584Z</time>
      </trkpt>
      <trkpt lat="46.47257" lon="8.24145">
        <ele>1375</ele>
        <time>2020-07-16T14:03:18.585Z</time>
      </trkpt>
      <trkpt lat="46.47257" lon="8.24145">
        <ele>1375</ele>
        <time>2020-07-16T14:03:19.585Z</time>
      </trkpt>
      <trkpt lat="46.47256" lon="8.24145">
        <ele>1375</ele>
        <time>2020-07-16T14:03:20.584Z</time>
      </trkpt>
      <trkpt lat="46.47256" lon="8.24144">
        <ele>1374</ele>
        <time>2020-07-16T14:03:21.585Z</time>
      </trkpt>
      <trkpt lat="46.47256" lon="8.24143">
        <ele>1374</ele>
        <time>2020-07-16T14:03:22.585Z</time>
      </trkpt>
      <trkpt lat="46.47255" lon="8.24143">
        <ele>1375</ele>
        <time>2020-07-16T14:03:23.584Z</time>
      </trkpt>
      <trkpt lat="46.47253" lon="8.24142">
        <ele>1375</ele>
        <time>2020-07-16T14:03:24.585Z</time>
      </trkpt>
      <trkpt lat="46.47252" lon="8.24141">
        <ele>1375</ele>
        <time>2020-07-16T14:03:25.585Z</time>
      </trkpt>
      <trkpt lat="46.47251" lon="8.24141">
        <ele>1375</ele>
        <time>2020-07-16T14:03:26.584Z</time>
      </trkpt>
      <trkpt lat="46.47251" lon="8.24141">
        <ele>1375</ele>
        <time>2020-07-16T14:03:27.585Z</time>
      </trkpt>
      <trkpt lat="46.4725" lon="8.2414">
        <ele>1374</ele>
        <time>2020-07-16T14:03:28.584Z</time>
      </trkpt>
      <trkpt lat="46.4725" lon="8.2414">
        <ele>1374</ele>
        <time>2020-07-16T14:03:29.584Z</time>
      </trkpt>
      <trkpt lat="46.47249" lon="8.24139">
        <ele>1374</ele>
        <time>2020-07-16T14:03:30.584Z</time>
      </trkpt>
      <trkpt lat="46.47249" lon="8.24138">
        <ele>1373</ele>
        <time>2020-07-16T14:03:31.585Z</time>
      </trkpt>
      <trkpt lat="46.47249" lon="8.24138">
        <ele>1373</ele>
        <time>2020-07-16T14:03:32.584Z</time>
      </trkpt>
      <trkpt lat="46.47248" lon="8.24138">
        <ele>1373</ele>
        <time>2020-07-16T14:03:33.584Z</time>
      </trkpt>
      <trkpt lat="46.47249" lon="8.24137">
        <ele>1372</ele>
        <time>2020-07-16T14:03:34.585Z</time>
      </trkpt>
      <trkpt lat="46.47249" lon="8.24137">
        <ele>1371</ele>
        <time>2020-07-16T14:03:35.585Z</time>
      </trkpt>
      <trkpt lat="46.47248" lon="8.24137">
        <ele>1370</ele>
        <time>2020-07-16T14:03:36.584Z</time>
      </trkpt>
      <trkpt lat="46.47248" lon="8.24137">
        <ele>1370</ele>
        <time>2020-07-16T14:03:37.584Z</time>
      </trkpt>
      <trkpt lat="46.47248" lon="8.24136">
        <ele>1369</ele>
        <time>2020-07-16T14:03:38.585Z</time>
      </trkpt>
      <trkpt lat="46.47247" lon="8.24136">
        <ele>1369</ele>
        <time>2020-07-16T14:03:39.584Z</time>
      </trkpt>
      <trkpt lat="46.47246" lon="8.24135">
        <ele>1368</ele>
        <time>2020-07-16T14:03:40.584Z</time>
      </trkpt>
      <trkpt lat="46.47246" lon="8.24134">
        <ele>1368</ele>
        <time>2020-07-16T14:03:41.584Z</time>
      </trkpt>
      <trkpt lat="46.47245" lon="8.24134">
        <ele>1368</ele>
        <time>2020-07-16T14:03:42.584Z</time>
      </trkpt>
      <trkpt lat="46.47244" lon="8.24134">
        <ele>1367</ele>
        <time>2020-07-16T14:03:43.584Z</time>
      </trkpt>
      <trkpt lat="46.47243" lon="8.24134">
        <ele>1368</ele>
        <time>2020-07-16T14:03:44.584Z</time>
      </trkpt>
      <trkpt lat="46.47242" lon="8.24133">
        <ele>1368</ele>
        <time>2020-07-16T14:03:45.584Z</time>
      </trkpt>
      <trkpt lat="46.47241" lon="8.24133">
        <ele>1368</ele>
        <time>2020-07-16T14:03:46.585Z</time>
      </trkpt>
      <trkpt lat="46.4724" lon="8.24132">
        <ele>1368</ele>
        <time>2020-07-16T14:03:47.584Z</time>
      </trkpt>
      <trkpt lat="46.4724" lon="8.24132">
        <ele>1368</ele>
        <time>2020-07-16T14:03:48.584Z</time>
      </trkpt>
      <trkpt lat="46.47239" lon="8.24131">
        <ele>1367</ele>
        <time>2020-07-16T14:03:49.584Z</time>
      </trkpt>
      <trkpt lat="46.47238" lon="8.24131">
        <ele>1367</ele>
        <time>2020-07-16T14:03:50.584Z</time>
      </trkpt>
      <trkpt lat="46.47237" lon="8.24131">
        <ele>1367</ele>
        <time>2020-07-16T14:03:51.584Z</time>
      </trkpt>
      <trkpt lat="46.47236" lon="8.2413">
        <ele>1367</ele>
        <time>2020-07-16T14:03:52.584Z</time>
      </trkpt>
      <trkpt lat="46.47236" lon="8.2413">
        <ele>1367</ele>
        <time>2020-07-16T14:03:53.585Z</time>
      </trkpt>
      <trkpt lat="46.47235" lon="8.2413">
        <ele>1367</ele>
        <time>2020-07-16T14:03:54.584Z</time>
      </trkpt>
      <trkpt lat="46.47234" lon="8.2413">
        <ele>1367</ele>
        <time>2020-07-16T14:03:55.584Z</time>
      </trkpt>
      <trkpt lat="46.47234" lon="8.2413">
        <ele>1368</ele>
        <time>2020-07-16T14:03:56.585Z</time>
      </trkpt>
      <trkpt lat="46.47234" lon="8.2413">
        <ele>1368</ele>
        <time>2020-07-16T14:03:57.585Z</time>
      </trkpt>
      <trkpt lat="46.47233" lon="8.2413">
        <ele>1368</ele>
        <time>2020-07-16T14:03:58.585Z</time>
      </trkpt>
      <trkpt lat="46.47233" lon="8.2413">
        <ele>1368</ele>
        <time>2020-07-16T14:03:59.585Z</time>
      </trkpt>
      <trkpt lat="46.47233" lon="8.2413">
        <ele>1367</ele>
        <time>2020-07-16T14:04:00.584Z</time>
      </trkpt>
      <trkpt lat="46.47232" lon="8.2413">
        <ele>1367</ele>
        <time>2020-07-16T14:04:01.584Z</time>
      </trkpt>
      <trkpt lat="46.47232" lon="8.24129">
        <ele>1367</ele>
        <time>2020-07-16T14:04:02.584Z</time>
      </trkpt>
      <trkpt lat="46.47231" lon="8.24129">
        <ele>1367</ele>
        <time>2020-07-16T14:04:03.584Z</time>
      </trkpt>
      <trkpt lat="46.47229" lon="8.24129">
        <ele>1367</ele>
        <time>2020-07-16T14:04:04.584Z</time>
      </trkpt>
      <trkpt lat="46.47229" lon="8.24129">
        <ele>1367</ele>
        <time>2020-07-16T14:04:05.584Z</time>
      </trkpt>
      <trkpt lat="46.47228" lon="8.24129">
        <ele>1368</ele>
        <time>2020-07-16T14:04:06.585Z</time>
      </trkpt>
      <trkpt lat="46.47227" lon="8.2413">
        <ele>1368</ele>
        <time>2020-07-16T14:04:07.584Z</time>
      </trkpt>
      <trkpt lat="46.47226" lon="8.2413">
        <ele>1368</ele>
        <time>2020-07-16T14:04:08.584Z</time>
      </trkpt>
      <trkpt lat="46.47225" lon="8.24131">
        <ele>1369</ele>
        <time>2020-07-16T14:04:09.585Z</time>
      </trkpt>
      <trkpt lat="46.47224" lon="8.24131">
        <ele>1369</ele>
        <time>2020-07-16T14:04:10.585Z</time>
      </trkpt>
      <trkpt lat="46.47224" lon="8.24132">
        <ele>1369</ele>
        <time>2020-07-16T14:04:11.584Z</time>
      </trkpt>
      <trkpt lat="46.47224" lon="8.24132">
        <ele>1369</ele>
        <time>2020-07-16T14:04:12.584Z</time>
      </trkpt>
      <trkpt lat="46.47224" lon="8.24133">
        <ele>1369</ele>
        <time>2020-07-16T14:04:13.584Z</time>
      </trkpt>
      <trkpt lat="46.47225" lon="8.24133">
        <ele>1370</ele>
        <time>2020-07-16T14:04:14.585Z</time>
      </trkpt>
      <trkpt lat="46.47225" lon="8.24133">
        <ele>1371</ele>
        <time>2020-07-16T14:04:15.585Z</time>
      </trkpt>
      <trkpt lat="46.47225" lon="8.24133">
        <ele>1371</ele>
        <time>2020-07-16T14:04:16.585Z</time>
      </trkpt>
      <trkpt lat="46.47225" lon="8.24132">
        <ele>1371</ele>
        <time>2020-07-16T14:04:17.586Z</time>
      </trkpt>
      <trkpt lat="46.47223" lon="8.24129">
        <ele>1371</ele>
        <time>2020-07-16T14:04:18.586Z</time>
      </trkpt>
      <trkpt lat="46.47223" lon="8.24128">
        <ele>1370</ele>
        <time>2020-07-16T14:04:19.587Z</time>
      </trkpt>
      <trkpt lat="46.47223" lon="8.24128">
        <ele>1370</ele>
        <time>2020-07-16T14:04:20.586Z</time>
      </trkpt>
      <trkpt lat="46.47222" lon="8.24127">
        <ele>1370</ele>
        <time>2020-07-16T14:04:21.586Z</time>
      </trkpt>
      <trkpt lat="46.47222" lon="8.24126">
        <ele>1370</ele>
        <time>2020-07-16T14:04:22.586Z</time>
      </trkpt>
      <trkpt lat="46.47222" lon="8.24126">
        <ele>1369</ele>
        <time>2020-07-16T14:04:23.586Z</time>
      </trkpt>
      <trkpt lat="46.47221" lon="8.24126">
        <ele>1369</ele>
        <time>2020-07-16T14:04:24.587Z</time>
      </trkpt>
      <trkpt lat="46.47221" lon="8.24126">
        <ele>1369</ele>
        <time>2020-07-16T14:04:25.586Z</time>
      </trkpt>
      <trkpt lat="46.47221" lon="8.24126">
        <ele>1369</ele>
        <time>2020-07-16T14:04:26.586Z</time>
      </trkpt>
      <trkpt lat="46.4722" lon="8.24126">
        <ele>1369</ele>
        <time>2020-07-16T14:04:27.586Z</time>
      </trkpt>
      <trkpt lat="46.47219" lon="8.24126">
        <ele>1368</ele>
        <time>2020-07-16T14:04:28.586Z</time>
      </trkpt>
      <trkpt lat="46.47218" lon="8.24126">
        <ele>1368</ele>
        <time>2020-07-16T14:04:29.586Z</time>
      </trkpt>
      <trkpt lat="46.47217" lon="8.24126">
        <ele>1368</ele>
        <time>2020-07-16T14:04:30.587Z</time>
      </trkpt>
      <trkpt lat="46.47216" lon="8.24126">
        <ele>1369</ele>
        <time>2020-07-16T14:04:31.586Z</time>
      </trkpt>
      <trkpt lat="46.47215" lon="8.24126">
        <ele>1368</ele>
        <time>2020-07-16T14:04:32.586Z</time>
      </trkpt>
      <trkpt lat="46.47214" lon="8.24126">
        <ele>1368</ele>
        <time>2020-07-16T14:04:33.586Z</time>
      </trkpt>
      <trkpt lat="46.47213" lon="8.24126">
        <ele>1367</ele>
        <time>2020-07-16T14:04:34.586Z</time>
      </trkpt>
      <trkpt lat="46.47212" lon="8.24127">
        <ele>1367</ele>
        <time>2020-07-16T14:04:35.586Z</time>
      </trkpt>
      <trkpt lat="46.47211" lon="8.24128">
        <ele>1367</ele>
        <time>2020-07-16T14:04:36.586Z</time>
      </trkpt>
      <trkpt lat="46.4721" lon="8.24128">
        <ele>1367</ele>
        <time>2020-07-16T14:04:37.587Z</time>
      </trkpt>
      <trkpt lat="46.4721" lon="8.24128">
        <ele>1368</ele>
        <time>2020-07-16T14:04:38.586Z</time>
      </trkpt>
      <trkpt lat="46.47209" lon="8.24129">
        <ele>1368</ele>
        <time>2020-07-16T14:04:39.586Z</time>
      </trkpt>
      <trkpt lat="46.47208" lon="8.24129">
        <ele>1368</ele>
        <time>2020-07-16T14:04:40.587Z</time>
      </trkpt>
      <trkpt lat="46.47207" lon="8.24129">
        <ele>1368</ele>
        <time>2020-07-16T14:04:41.586Z</time>
      </trkpt>
      <trkpt lat="46.47207" lon="8.24129">
        <ele>1368</ele>
        <time>2020-07-16T14:04:42.586Z</time>
      </trkpt>
      <trkpt lat="46.47206" lon="8.24129">
        <ele>1367</ele>
        <time>2020-07-16T14:04:43.587Z</time>
      </trkpt>
      <trkpt lat="46.47205" lon="8.24127">
        <ele>1367</ele>
        <time>2020-07-16T14:04:44.586Z</time>
      </trkpt>
      <trkpt lat="46.47204" lon="8.24126">
        <ele>1367</ele>
        <time>2020-07-16T14:04:45.586Z</time>
      </trkpt>
      <trkpt lat="46.47204" lon="8.24125">
        <ele>1367</ele>
        <time>2020-07-16T14:04:46.586Z</time>
      </trkpt>
      <trkpt lat="46.47203" lon="8.24124">
        <ele>1367</ele>
        <time>2020-07-16T14:04:47.586Z</time>
      </trkpt>
      <trkpt lat="46.47203" lon="8.24123">
        <ele>1367</ele>
        <time>2020-07-16T14:04:48.587Z</time>
      </trkpt>
      <trkpt lat="46.47203" lon="8.24122">
        <ele>1366</ele>
        <time>2020-07-16T14:04:49.586Z</time>
      </trkpt>
      <trkpt lat="46.47203" lon="8.24121">
        <ele>1366</ele>
        <time>2020-07-16T14:04:50.586Z</time>
      </trkpt>
      <trkpt lat="46.47202" lon="8.24119">
        <ele>1366</ele>
        <time>2020-07-16T14:04:51.586Z</time>
      </trkpt>
      <trkpt lat="46.47202" lon="8.24118">
        <ele>1365</ele>
        <time>2020-07-16T14:04:52.587Z</time>
      </trkpt>
      <trkpt lat="46.47201" lon="8.24118">
        <ele>1365</ele>
        <time>2020-07-16T14:04:53.586Z</time>
      </trkpt>
      <trkpt lat="46.472" lon="8.24116">
        <ele>1365</ele>
        <time>2020-07-16T14:04:54.586Z</time>
      </trkpt>
      <trkpt lat="46.47198" lon="8.24115">
        <ele>1364</ele>
        <time>2020-07-16T14:04:55.586Z</time>
      </trkpt>
      <trkpt lat="46.47197" lon="8.24115">
        <ele>1364</ele>
        <time>2020-07-16T14:04:56.587Z</time>
      </trkpt>
      <trkpt lat="46.47195" lon="8.24114">
        <ele>1364</ele>
        <time>2020-07-16T14:04:57.587Z</time>
      </trkpt>
      <trkpt lat="46.47195" lon="8.24114">
        <ele>1364</ele>
        <time>2020-07-16T14:04:58.586Z</time>
      </trkpt>
      <trkpt lat="46.47194" lon="8.24114">
        <ele>1364</ele>
        <time>2020-07-16T14:04:59.586Z</time>
      </trkpt>
      <trkpt lat="46.47193" lon="8.24113">
        <ele>1364</ele>
        <time>2020-07-16T14:05:00.586Z</time>
      </trkpt>
      <trkpt lat="46.47192" lon="8.24113">
        <ele>1363</ele>
        <time>2020-07-16T14:05:01.587Z</time>
      </trkpt>
      <trkpt lat="46.47192" lon="8.24112">
        <ele>1363</ele>
        <time>2020-07-16T14:05:02.587Z</time>
      </trkpt>
      <trkpt lat="46.47192" lon="8.24111">
        <ele>1363</ele>
        <time>2020-07-16T14:05:03.587Z</time>
      </trkpt>
      <trkpt lat="46.47191" lon="8.2411">
        <ele>1363</ele>
        <time>2020-07-16T14:05:04.587Z</time>
      </trkpt>
      <trkpt lat="46.4719" lon="8.2411">
        <ele>1363</ele>
        <time>2020-07-16T14:05:05.586Z</time>
      </trkpt>
      <trkpt lat="46.4719" lon="8.2411">
        <ele>1363</ele>
        <time>2020-07-16T14:05:06.586Z</time>
      </trkpt>
      <trkpt lat="46.47189" lon="8.24109">
        <ele>1362</ele>
        <time>2020-07-16T14:05:07.587Z</time>
      </trkpt>
      <trkpt lat="46.47188" lon="8.24109">
        <ele>1362</ele>
        <time>2020-07-16T14:05:08.586Z</time>
      </trkpt>
      <trkpt lat="46.47187" lon="8.24109">
        <ele>1361</ele>
        <time>2020-07-16T14:05:09.587Z</time>
      </trkpt>
      <trkpt lat="46.47185" lon="8.24109">
        <ele>1361</ele>
        <time>2020-07-16T14:05:10.587Z</time>
      </trkpt>
      <trkpt lat="46.47184" lon="8.24109">
        <ele>1361</ele>
        <time>2020-07-16T14:05:11.586Z</time>
      </trkpt>
      <trkpt lat="46.47183" lon="8.2411">
        <ele>1361</ele>
        <time>2020-07-16T14:05:12.587Z</time>
      </trkpt>
      <trkpt lat="46.47182" lon="8.2411">
        <ele>1361</ele>
        <time>2020-07-16T14:05:13.587Z</time>
      </trkpt>
      <trkpt lat="46.47181" lon="8.24111">
        <ele>1361</ele>
        <time>2020-07-16T14:05:14.586Z</time>
      </trkpt>
      <trkpt lat="46.4718" lon="8.24112">
        <ele>1361</ele>
        <time>2020-07-16T14:05:15.587Z</time>
      </trkpt>
      <trkpt lat="46.47179" lon="8.24112">
        <ele>1361</ele>
        <time>2020-07-16T14:05:16.586Z</time>
      </trkpt>
      <trkpt lat="46.47178" lon="8.24113">
        <ele>1362</ele>
        <time>2020-07-16T14:05:17.587Z</time>
      </trkpt>
      <trkpt lat="46.47176" lon="8.24114">
        <ele>1362</ele>
        <time>2020-07-16T14:05:18.587Z</time>
      </trkpt>
      <trkpt lat="46.47175" lon="8.24114">
        <ele>1362</ele>
        <time>2020-07-16T14:05:19.587Z</time>
      </trkpt>
      <trkpt lat="46.47174" lon="8.24115">
        <ele>1362</ele>
        <time>2020-07-16T14:05:20.587Z</time>
      </trkpt>
      <trkpt lat="46.47173" lon="8.24115">
        <ele>1362</ele>
        <time>2020-07-16T14:05:21.587Z</time>
      </trkpt>
      <trkpt lat="46.47172" lon="8.24115">
        <ele>1363</ele>
        <time>2020-07-16T14:05:22.587Z</time>
      </trkpt>
      <trkpt lat="46.47171" lon="8.24115">
        <ele>1363</ele>
        <time>2020-07-16T14:05:23.587Z</time>
      </trkpt>
      <trkpt lat="46.4717" lon="8.24114">
        <ele>1363</ele>
        <time>2020-07-16T14:05:24.587Z</time>
      </trkpt>
      <trkpt lat="46.47169" lon="8.24113">
        <ele>1363</ele>
        <time>2020-07-16T14:05:25.587Z</time>
      </trkpt>
      <trkpt lat="46.47168" lon="8.24111">
        <ele>1363</ele>
        <time>2020-07-16T14:05:26.587Z</time>
      </trkpt>
      <trkpt lat="46.47166" lon="8.24111">
        <ele>1363</ele>
        <time>2020-07-16T14:05:27.586Z</time>
      </trkpt>
      <trkpt lat="46.47165" lon="8.24111">
        <ele>1363</ele>
        <time>2020-07-16T14:05:28.587Z</time>
      </trkpt>
      <trkpt lat="46.47164" lon="8.24111">
        <ele>1362</ele>
        <time>2020-07-16T14:05:29.586Z</time>
      </trkpt>
      <trkpt lat="46.47163" lon="8.24112">
        <ele>1362</ele>
        <time>2020-07-16T14:05:30.587Z</time>
      </trkpt>
      <trkpt lat="46.47163" lon="8.24112">
        <ele>1362</ele>
        <time>2020-07-16T14:05:31.586Z</time>
      </trkpt>
      <trkpt lat="46.47162" lon="8.24112">
        <ele>1361</ele>
        <time>2020-07-16T14:05:32.587Z</time>
      </trkpt>
      <trkpt lat="46.47161" lon="8.24113">
        <ele>1360</ele>
        <time>2020-07-16T14:05:33.587Z</time>
      </trkpt>
      <trkpt lat="46.4716" lon="8.24113">
        <ele>1360</ele>
        <time>2020-07-16T14:05:34.587Z</time>
      </trkpt>
      <trkpt lat="46.47159" lon="8.24113">
        <ele>1359</ele>
        <time>2020-07-16T14:05:35.586Z</time>
      </trkpt>
      <trkpt lat="46.47158" lon="8.24113">
        <ele>1359</ele>
        <time>2020-07-16T14:05:36.587Z</time>
      </trkpt>
      <trkpt lat="46.47156" lon="8.24114">
        <ele>1359</ele>
        <time>2020-07-16T14:05:37.586Z</time>
      </trkpt>
      <trkpt lat="46.47155" lon="8.24114">
        <ele>1358</ele>
        <time>2020-07-16T14:05:38.587Z</time>
      </trkpt>
      <trkpt lat="46.47153" lon="8.24114">
        <ele>1358</ele>
        <time>2020-07-16T14:05:39.587Z</time>
      </trkpt>
      <trkpt lat="46.47153" lon="8.24114">
        <ele>1357</ele>
        <time>2020-07-16T14:05:40.587Z</time>
      </trkpt>
      <trkpt lat="46.47152" lon="8.24114">
        <ele>1357</ele>
        <time>2020-07-16T14:05:41.587Z</time>
      </trkpt>
      <trkpt lat="46.47151" lon="8.24114">
        <ele>1356</ele>
        <time>2020-07-16T14:05:42.587Z</time>
      </trkpt>
      <trkpt lat="46.4715" lon="8.24114">
        <ele>1356</ele>
        <time>2020-07-16T14:05:43.587Z</time>
      </trkpt>
      <trkpt lat="46.47149" lon="8.24114">
        <ele>1356</ele>
        <time>2020-07-16T14:05:44.587Z</time>
      </trkpt>
      <trkpt lat="46.47148" lon="8.24114">
        <ele>1356</ele>
        <time>2020-07-16T14:05:45.586Z</time>
      </trkpt>
      <trkpt lat="46.47147" lon="8.24114">
        <ele>1356</ele>
        <time>2020-07-16T14:05:46.587Z</time>
      </trkpt>
      <trkpt lat="46.47146" lon="8.24114">
        <ele>1356</ele>
        <time>2020-07-16T14:05:47.587Z</time>
      </trkpt>
      <trkpt lat="46.47144" lon="8.24115">
        <ele>1356</ele>
        <time>2020-07-16T14:05:48.586Z</time>
      </trkpt>
      <trkpt lat="46.47143" lon="8.24116">
        <ele>1356</ele>
        <time>2020-07-16T14:05:49.586Z</time>
      </trkpt>
      <trkpt lat="46.47142" lon="8.24116">
        <ele>1357</ele>
        <time>2020-07-16T14:05:50.587Z</time>
      </trkpt>
      <trkpt lat="46.47141" lon="8.24116">
        <ele>1357</ele>
        <time>2020-07-16T14:05:51.586Z</time>
      </trkpt>
      <trkpt lat="46.47141" lon="8.24115">
        <ele>1358</ele>
        <time>2020-07-16T14:05:52.586Z</time>
      </trkpt>
      <trkpt lat="46.4714" lon="8.24115">
        <ele>1358</ele>
        <time>2020-07-16T14:05:53.587Z</time>
      </trkpt>
      <trkpt lat="46.47138" lon="8.24116">
        <ele>1359</ele>
        <time>2020-07-16T14:05:54.586Z</time>
      </trkpt>
      <trkpt lat="46.47136" lon="8.24117">
        <ele>1359</ele>
        <time>2020-07-16T14:05:55.586Z</time>
      </trkpt>
      <trkpt lat="46.47135" lon="8.24116">
        <ele>1360</ele>
        <time>2020-07-16T14:05:56.587Z</time>
      </trkpt>
      <trkpt lat="46.47133" lon="8.24115">
        <ele>1360</ele>
        <time>2020-07-16T14:05:57.586Z</time>
      </trkpt>
      <trkpt lat="46.47132" lon="8.24114">
        <ele>1360</ele>
        <time>2020-07-16T14:05:58.587Z</time>
      </trkpt>
      <trkpt lat="46.47131" lon="8.24114">
        <ele>1360</ele>
        <time>2020-07-16T14:05:59.587Z</time>
      </trkpt>
      <trkpt lat="46.4713" lon="8.24113">
        <ele>1360</ele>
        <time>2020-07-16T14:06:00.586Z</time>
      </trkpt>
      <trkpt lat="46.47129" lon="8.24113">
        <ele>1360</ele>
        <time>2020-07-16T14:06:01.587Z</time>
      </trkpt>
      <trkpt lat="46.47129" lon="8.24112">
        <ele>1360</ele>
        <time>2020-07-16T14:06:02.587Z</time>
      </trkpt>
      <trkpt lat="46.47128" lon="8.24111">
        <ele>1360</ele>
        <time>2020-07-16T14:06:03.586Z</time>
      </trkpt>
      <trkpt lat="46.47127" lon="8.2411">
        <ele>1359</ele>
        <time>2020-07-16T14:06:04.586Z</time>
      </trkpt>
      <trkpt lat="46.47127" lon="8.24109">
        <ele>1359</ele>
        <time>2020-07-16T14:06:05.586Z</time>
      </trkpt>
      <trkpt lat="46.47127" lon="8.24108">
        <ele>1358</ele>
        <time>2020-07-16T14:06:06.587Z</time>
      </trkpt>
      <trkpt lat="46.47126" lon="8.24108">
        <ele>1358</ele>
        <time>2020-07-16T14:06:07.587Z</time>
      </trkpt>
      <trkpt lat="46.47126" lon="8.24108">
        <ele>1358</ele>
        <time>2020-07-16T14:06:08.587Z</time>
      </trkpt>
      <trkpt lat="46.47126" lon="8.24107">
        <ele>1358</ele>
        <time>2020-07-16T14:06:09.586Z</time>
      </trkpt>
      <trkpt lat="46.47127" lon="8.241">
        <ele>1355</ele>
        <time>2020-07-16T14:06:10.588Z</time>
      </trkpt>
      <trkpt lat="46.47127" lon="8.24098">
        <ele>1354</ele>
        <time>2020-07-16T14:06:11.588Z</time>
      </trkpt>
      <trkpt lat="46.47127" lon="8.24097">
        <ele>1354</ele>
        <time>2020-07-16T14:06:12.587Z</time>
      </trkpt>
      <trkpt lat="46.47126" lon="8.24097">
        <ele>1354</ele>
        <time>2020-07-16T14:06:13.588Z</time>
      </trkpt>
      <trkpt lat="46.47126" lon="8.24096">
        <ele>1353</ele>
        <time>2020-07-16T14:06:14.588Z</time>
      </trkpt>
      <trkpt lat="46.47125" lon="8.24095">
        <ele>1353</ele>
        <time>2020-07-16T14:06:15.588Z</time>
      </trkpt>
      <trkpt lat="46.47124" lon="8.24095">
        <ele>1353</ele>
        <time>2020-07-16T14:06:16.588Z</time>
      </trkpt>
      <trkpt lat="46.47123" lon="8.24094">
        <ele>1353</ele>
        <time>2020-07-16T14:06:17.588Z</time>
      </trkpt>
      <trkpt lat="46.47122" lon="8.24094">
        <ele>1353</ele>
        <time>2020-07-16T14:06:18.587Z</time>
      </trkpt>
      <trkpt lat="46.47121" lon="8.24093">
        <ele>1353</ele>
        <time>2020-07-16T14:06:19.587Z</time>
      </trkpt>
      <trkpt lat="46.47121" lon="8.24092">
        <ele>1353</ele>
        <time>2020-07-16T14:06:20.588Z</time>
      </trkpt>
      <trkpt lat="46.4712" lon="8.24091">
        <ele>1352</ele>
        <time>2020-07-16T14:06:21.587Z</time>
      </trkpt>
      <trkpt lat="46.47119" lon="8.2409">
        <ele>1352</ele>
        <time>2020-07-16T14:06:22.587Z</time>
      </trkpt>
      <trkpt lat="46.47119" lon="8.24089">
        <ele>1352</ele>
        <time>2020-07-16T14:06:23.587Z</time>
      </trkpt>
      <trkpt lat="46.47118" lon="8.24087">
        <ele>1351</ele>
        <time>2020-07-16T14:06:24.587Z</time>
      </trkpt>
      <trkpt lat="46.47118" lon="8.24086">
        <ele>1351</ele>
        <time>2020-07-16T14:06:25.587Z</time>
      </trkpt>
      <trkpt lat="46.47117" lon="8.24085">
        <ele>1351</ele>
        <time>2020-07-16T14:06:26.588Z</time>
      </trkpt>
      <trkpt lat="46.47117" lon="8.24083">
        <ele>1351</ele>
        <time>2020-07-16T14:06:27.587Z</time>
      </trkpt>
      <trkpt lat="46.47117" lon="8.24083">
        <ele>1351</ele>
        <time>2020-07-16T14:06:28.587Z</time>
      </trkpt>
      <trkpt lat="46.47117" lon="8.24082">
        <ele>1352</ele>
        <time>2020-07-16T14:06:29.587Z</time>
      </trkpt>
      <trkpt lat="46.47116" lon="8.24081">
        <ele>1352</ele>
        <time>2020-07-16T14:06:30.587Z</time>
      </trkpt>
      <trkpt lat="46.47116" lon="8.2408">
        <ele>1351</ele>
        <time>2020-07-16T14:06:31.587Z</time>
      </trkpt>
      <trkpt lat="46.47116" lon="8.24079">
        <ele>1351</ele>
        <time>2020-07-16T14:06:32.587Z</time>
      </trkpt>
      <trkpt lat="46.47116" lon="8.24079">
        <ele>1351</ele>
        <time>2020-07-16T14:06:33.587Z</time>
      </trkpt>
      <trkpt lat="46.47117" lon="8.24076">
        <ele>1348</ele>
        <time>2020-07-16T14:06:34.588Z</time>
      </trkpt>
      <trkpt lat="46.47117" lon="8.24074">
        <ele>1347</ele>
        <time>2020-07-16T14:06:35.587Z</time>
      </trkpt>
      <trkpt lat="46.47117" lon="8.24073">
        <ele>1347</ele>
        <time>2020-07-16T14:06:36.587Z</time>
      </trkpt>
      <trkpt lat="46.47116" lon="8.24071">
        <ele>1347</ele>
        <time>2020-07-16T14:06:37.587Z</time>
      </trkpt>
      <trkpt lat="46.47115" lon="8.2407">
        <ele>1347</ele>
        <time>2020-07-16T14:06:38.587Z</time>
      </trkpt>
      <trkpt lat="46.47114" lon="8.24069">
        <ele>1346</ele>
        <time>2020-07-16T14:06:39.587Z</time>
      </trkpt>
      <trkpt lat="46.47114" lon="8.24067">
        <ele>1346</ele>
        <time>2020-07-16T14:06:40.587Z</time>
      </trkpt>
      <trkpt lat="46.47114" lon="8.24066">
        <ele>1346</ele>
        <time>2020-07-16T14:06:41.587Z</time>
      </trkpt>
      <trkpt lat="46.47114" lon="8.24064">
        <ele>1346</ele>
        <time>2020-07-16T14:06:42.587Z</time>
      </trkpt>
      <trkpt lat="46.47114" lon="8.24063">
        <ele>1346</ele>
        <time>2020-07-16T14:06:43.587Z</time>
      </trkpt>
      <trkpt lat="46.47114" lon="8.24061">
        <ele>1345</ele>
        <time>2020-07-16T14:06:44.587Z</time>
      </trkpt>
      <trkpt lat="46.47113" lon="8.24059">
        <ele>1345</ele>
        <time>2020-07-16T14:06:45.587Z</time>
      </trkpt>
      <trkpt lat="46.47112" lon="8.24059">
        <ele>1344</ele>
        <time>2020-07-16T14:06:46.587Z</time>
      </trkpt>
      <trkpt lat="46.47111" lon="8.24058">
        <ele>1344</ele>
        <time>2020-07-16T14:06:47.587Z</time>
      </trkpt>
      <trkpt lat="46.47109" lon="8.24058">
        <ele>1344</ele>
        <time>2020-07-16T14:06:48.587Z</time>
      </trkpt>
      <trkpt lat="46.47108" lon="8.24058">
        <ele>1344</ele>
        <time>2020-07-16T14:06:49.587Z</time>
      </trkpt>
      <trkpt lat="46.47107" lon="8.24057">
        <ele>1344</ele>
        <time>2020-07-16T14:06:50.588Z</time>
      </trkpt>
      <trkpt lat="46.47106" lon="8.24057">
        <ele>1345</ele>
        <time>2020-07-16T14:06:51.587Z</time>
      </trkpt>
      <trkpt lat="46.47105" lon="8.24057">
        <ele>1345</ele>
        <time>2020-07-16T14:06:52.587Z</time>
      </trkpt>
      <trkpt lat="46.47104" lon="8.24057">
        <ele>1346</ele>
        <time>2020-07-16T14:06:53.587Z</time>
      </trkpt>
      <trkpt lat="46.47104" lon="8.24056">
        <ele>1347</ele>
        <time>2020-07-16T14:06:54.587Z</time>
      </trkpt>
      <trkpt lat="46.47104" lon="8.24054">
        <ele>1347</ele>
        <time>2020-07-16T14:06:55.587Z</time>
      </trkpt>
      <trkpt lat="46.47104" lon="8.24053">
        <ele>1347</ele>
        <time>2020-07-16T14:06:56.587Z</time>
      </trkpt>
      <trkpt lat="46.47103" lon="8.24053">
        <ele>1348</ele>
        <time>2020-07-16T14:06:57.587Z</time>
      </trkpt>
      <trkpt lat="46.47101" lon="8.24053">
        <ele>1348</ele>
        <time>2020-07-16T14:06:58.587Z</time>
      </trkpt>
      <trkpt lat="46.471" lon="8.24052">
        <ele>1348</ele>
        <time>2020-07-16T14:06:59.587Z</time>
      </trkpt>
      <trkpt lat="46.47098" lon="8.24053">
        <ele>1349</ele>
        <time>2020-07-16T14:07:00.587Z</time>
      </trkpt>
      <trkpt lat="46.47097" lon="8.24052">
        <ele>1350</ele>
        <time>2020-07-16T14:07:01.587Z</time>
      </trkpt>
      <trkpt lat="46.47096" lon="8.24052">
        <ele>1350</ele>
        <time>2020-07-16T14:07:02.587Z</time>
      </trkpt>
      <trkpt lat="46.47095" lon="8.24051">
        <ele>1350</ele>
        <time>2020-07-16T14:07:03.588Z</time>
      </trkpt>
      <trkpt lat="46.47094" lon="8.24051">
        <ele>1350</ele>
        <time>2020-07-16T14:07:04.587Z</time>
      </trkpt>
      <trkpt lat="46.47094" lon="8.2405">
        <ele>1350</ele>
        <time>2020-07-16T14:07:05.588Z</time>
      </trkpt>
      <trkpt lat="46.47094" lon="8.2405">
        <ele>1350</ele>
        <time>2020-07-16T14:07:06.587Z</time>
      </trkpt>
      <trkpt lat="46.47093" lon="8.24049">
        <ele>1350</ele>
        <time>2020-07-16T14:07:07.587Z</time>
      </trkpt>
      <trkpt lat="46.47093" lon="8.24049">
        <ele>1350</ele>
        <time>2020-07-16T14:07:08.587Z</time>
      </trkpt>
      <trkpt lat="46.47092" lon="8.24049">
        <ele>1350</ele>
        <time>2020-07-16T14:07:09.588Z</time>
      </trkpt>
      <trkpt lat="46.47092" lon="8.24048">
        <ele>1350</ele>
        <time>2020-07-16T14:07:10.587Z</time>
      </trkpt>
      <trkpt lat="46.47091" lon="8.24048">
        <ele>1350</ele>
        <time>2020-07-16T14:07:11.587Z</time>
      </trkpt>
      <trkpt lat="46.4709" lon="8.24048">
        <ele>1351</ele>
        <time>2020-07-16T14:07:12.587Z</time>
      </trkpt>
      <trkpt lat="46.47089" lon="8.24048">
        <ele>1351</ele>
        <time>2020-07-16T14:07:13.587Z</time>
      </trkpt>
      <trkpt lat="46.47089" lon="8.24047">
        <ele>1351</ele>
        <time>2020-07-16T14:07:14.587Z</time>
      </trkpt>
      <trkpt lat="46.47089" lon="8.24047">
        <ele>1351</ele>
        <time>2020-07-16T14:07:15.587Z</time>
      </trkpt>
      <trkpt lat="46.47089" lon="8.24047">
        <ele>1351</ele>
        <time>2020-07-16T14:07:16.587Z</time>
      </trkpt>
      <trkpt lat="46.4709" lon="8.24046">
        <ele>1351</ele>
        <time>2020-07-16T14:07:17.587Z</time>
      </trkpt>
      <trkpt lat="46.4709" lon="8.24045">
        <ele>1351</ele>
        <time>2020-07-16T14:07:18.587Z</time>
      </trkpt>
      <trkpt lat="46.4709" lon="8.24044">
        <ele>1351</ele>
        <time>2020-07-16T14:07:19.588Z</time>
      </trkpt>
      <trkpt lat="46.47091" lon="8.24044">
        <ele>1351</ele>
        <time>2020-07-16T14:07:20.587Z</time>
      </trkpt>
      <trkpt lat="46.47091" lon="8.24043">
        <ele>1351</ele>
        <time>2020-07-16T14:07:21.587Z</time>
      </trkpt>
      <trkpt lat="46.47091" lon="8.24043">
        <ele>1351</ele>
        <time>2020-07-16T14:07:22.587Z</time>
      </trkpt>
      <trkpt lat="46.47088" lon="8.24042">
        <ele>1350</ele>
        <time>2020-07-16T14:07:23.589Z</time>
      </trkpt>
      <trkpt lat="46.47088" lon="8.24042">
        <ele>1350</ele>
        <time>2020-07-16T14:07:24.589Z</time>
      </trkpt>
      <trkpt lat="46.47088" lon="8.24042">
        <ele>1350</ele>
        <time>2020-07-16T14:07:25.588Z</time>
      </trkpt>
      <trkpt lat="46.47084" lon="8.24042">
        <ele>1355</ele>
        <time>2020-07-16T14:07:26.590Z</time>
      </trkpt>
      <trkpt lat="46.47083" lon="8.24042">
        <ele>1355</ele>
        <time>2020-07-16T14:07:27.589Z</time>
      </trkpt>
      <trkpt lat="46.47082" lon="8.24045">
        <ele>1358</ele>
        <time>2020-07-16T14:07:28.590Z</time>
      </trkpt>
      <trkpt lat="46.47081" lon="8.24045">
        <ele>1358</ele>
        <time>2020-07-16T14:07:29.591Z</time>
      </trkpt>
      <trkpt lat="46.4708" lon="8.24045">
        <ele>1359</ele>
        <time>2020-07-16T14:07:30.590Z</time>
      </trkpt>
      <trkpt lat="46.4708" lon="8.24044">
        <ele>1359</ele>
        <time>2020-07-16T14:07:31.591Z</time>
      </trkpt>
      <trkpt lat="46.47079" lon="8.24043">
        <ele>1359</ele>
        <time>2020-07-16T14:07:32.591Z</time>
      </trkpt>
      <trkpt lat="46.47079" lon="8.24043">
        <ele>1358</ele>
        <time>2020-07-16T14:07:33.591Z</time>
      </trkpt>
      <trkpt lat="46.47079" lon="8.24043">
        <ele>1358</ele>
        <time>2020-07-16T14:07:34.591Z</time>
      </trkpt>
      <trkpt lat="46.47078" lon="8.24045">
        <ele>1357</ele>
        <time>2020-07-16T14:07:35.591Z</time>
      </trkpt>
      <trkpt lat="46.47076" lon="8.24045">
        <ele>1357</ele>
        <time>2020-07-16T14:07:36.591Z</time>
      </trkpt>
      <trkpt lat="46.47075" lon="8.24044">
        <ele>1356</ele>
        <time>2020-07-16T14:07:37.592Z</time>
      </trkpt>
      <trkpt lat="46.47075" lon="8.24043">
        <ele>1355</ele>
        <time>2020-07-16T14:07:38.592Z</time>
      </trkpt>
      <trkpt lat="46.47074" lon="8.24043">
        <ele>1355</ele>
        <time>2020-07-16T14:07:39.591Z</time>
      </trkpt>
      <trkpt lat="46.47073" lon="8.24043">
        <ele>1354</ele>
        <time>2020-07-16T14:07:40.591Z</time>
      </trkpt>
      <trkpt lat="46.47072" lon="8.24042">
        <ele>1354</ele>
        <time>2020-07-16T14:07:41.592Z</time>
      </trkpt>
      <trkpt lat="46.47072" lon="8.2404">
        <ele>1353</ele>
        <time>2020-07-16T14:07:42.591Z</time>
      </trkpt>
      <trkpt lat="46.47071" lon="8.24039">
        <ele>1353</ele>
        <time>2020-07-16T14:07:43.591Z</time>
      </trkpt>
      <trkpt lat="46.47071" lon="8.24039">
        <ele>1352</ele>
        <time>2020-07-16T14:07:44.591Z</time>
      </trkpt>
      <trkpt lat="46.4707" lon="8.24038">
        <ele>1352</ele>
        <time>2020-07-16T14:07:45.591Z</time>
      </trkpt>
      <trkpt lat="46.4707" lon="8.24038">
        <ele>1351</ele>
        <time>2020-07-16T14:07:46.591Z</time>
      </trkpt>
      <trkpt lat="46.47072" lon="8.24038">
        <ele>1351</ele>
        <time>2020-07-16T14:07:47.592Z</time>
      </trkpt>
      <trkpt lat="46.47074" lon="8.2404">
        <ele>1350</ele>
        <time>2020-07-16T14:07:48.592Z</time>
      </trkpt>
      <trkpt lat="46.47075" lon="8.24039">
        <ele>1349</ele>
        <time>2020-07-16T14:07:49.592Z</time>
      </trkpt>
      <trkpt lat="46.47075" lon="8.24039">
        <ele>1349</ele>
        <time>2020-07-16T14:07:50.592Z</time>
      </trkpt>
      <trkpt lat="46.47076" lon="8.24039">
        <ele>1348</ele>
        <time>2020-07-16T14:07:51.592Z</time>
      </trkpt>
      <trkpt lat="46.47076" lon="8.24038">
        <ele>1347</ele>
        <time>2020-07-16T14:07:52.591Z</time>
      </trkpt>
      <trkpt lat="46.47076" lon="8.24037">
        <ele>1347</ele>
        <time>2020-07-16T14:07:53.592Z</time>
      </trkpt>
      <trkpt lat="46.47076" lon="8.24037">
        <ele>1347</ele>
        <time>2020-07-16T14:07:54.592Z</time>
      </trkpt>
      <trkpt lat="46.47076" lon="8.24037">
        <ele>1346</ele>
        <time>2020-07-16T14:07:55.592Z</time>
      </trkpt>
      <trkpt lat="46.47073" lon="8.24034">
        <ele>1347</ele>
        <time>2020-07-16T14:07:56.591Z</time>
      </trkpt>
      <trkpt lat="46.47073" lon="8.24033">
        <ele>1347</ele>
        <time>2020-07-16T14:07:57.594Z</time>
      </trkpt>
      <trkpt lat="46.47072" lon="8.24032">
        <ele>1347</ele>
        <time>2020-07-16T14:07:58.594Z</time>
      </trkpt>
      <trkpt lat="46.47071" lon="8.24032">
        <ele>1347</ele>
        <time>2020-07-16T14:07:59.593Z</time>
      </trkpt>
      <trkpt lat="46.4707" lon="8.24032">
        <ele>1347</ele>
        <time>2020-07-16T14:08:00.593Z</time>
      </trkpt>
      <trkpt lat="46.47069" lon="8.24032">
        <ele>1346</ele>
        <time>2020-07-16T14:08:01.593Z</time>
      </trkpt>
      <trkpt lat="46.47068" lon="8.24032">
        <ele>1346</ele>
        <time>2020-07-16T14:08:02.594Z</time>
      </trkpt>
      <trkpt lat="46.47067" lon="8.24031">
        <ele>1346</ele>
        <time>2020-07-16T14:08:03.593Z</time>
      </trkpt>
      <trkpt lat="46.47066" lon="8.24031">
        <ele>1346</ele>
        <time>2020-07-16T14:08:04.594Z</time>
      </trkpt>
      <trkpt lat="46.47066" lon="8.24031">
        <ele>1346</ele>
        <time>2020-07-16T14:08:05.594Z</time>
      </trkpt>
      <trkpt lat="46.47065" lon="8.2403">
        <ele>1346</ele>
        <time>2020-07-16T14:08:06.593Z</time>
      </trkpt>
      <trkpt lat="46.47064" lon="8.2403">
        <ele>1346</ele>
        <time>2020-07-16T14:08:07.594Z</time>
      </trkpt>
      <trkpt lat="46.47063" lon="8.24029">
        <ele>1345</ele>
        <time>2020-07-16T14:08:08.594Z</time>
      </trkpt>
      <trkpt lat="46.47063" lon="8.24029">
        <ele>1345</ele>
        <time>2020-07-16T14:08:09.594Z</time>
      </trkpt>
      <trkpt lat="46.47062" lon="8.24029">
        <ele>1345</ele>
        <time>2020-07-16T14:08:10.594Z</time>
      </trkpt>
      <trkpt lat="46.47061" lon="8.24028">
        <ele>1345</ele>
        <time>2020-07-16T14:08:11.594Z</time>
      </trkpt>
      <trkpt lat="46.4706" lon="8.24028">
        <ele>1345</ele>
        <time>2020-07-16T14:08:12.593Z</time>
      </trkpt>
      <trkpt lat="46.47059" lon="8.24028">
        <ele>1345</ele>
        <time>2020-07-16T14:08:13.594Z</time>
      </trkpt>
      <trkpt lat="46.47058" lon="8.24028">
        <ele>1345</ele>
        <time>2020-07-16T14:08:14.594Z</time>
      </trkpt>
      <trkpt lat="46.47057" lon="8.24027">
        <ele>1345</ele>
        <time>2020-07-16T14:08:15.593Z</time>
      </trkpt>
      <trkpt lat="46.47056" lon="8.24027">
        <ele>1344</ele>
        <time>2020-07-16T14:08:16.593Z</time>
      </trkpt>
      <trkpt lat="46.47055" lon="8.24026">
        <ele>1344</ele>
        <time>2020-07-16T14:08:17.594Z</time>
      </trkpt>
      <trkpt lat="46.47054" lon="8.24026">
        <ele>1344</ele>
        <time>2020-07-16T14:08:18.593Z</time>
      </trkpt>
      <trkpt lat="46.47053" lon="8.24026">
        <ele>1344</ele>
        <time>2020-07-16T14:08:19.594Z</time>
      </trkpt>
      <trkpt lat="46.47052" lon="8.24026">
        <ele>1344</ele>
        <time>2020-07-16T14:08:20.593Z</time>
      </trkpt>
      <trkpt lat="46.47051" lon="8.24026">
        <ele>1345</ele>
        <time>2020-07-16T14:08:21.594Z</time>
      </trkpt>
      <trkpt lat="46.4705" lon="8.24026">
        <ele>1345</ele>
        <time>2020-07-16T14:08:22.593Z</time>
      </trkpt>
      <trkpt lat="46.47049" lon="8.24026">
        <ele>1345</ele>
        <time>2020-07-16T14:08:23.593Z</time>
      </trkpt>
      <trkpt lat="46.47047" lon="8.24026">
        <ele>1345</ele>
        <time>2020-07-16T14:08:24.593Z</time>
      </trkpt>
      <trkpt lat="46.47046" lon="8.24026">
        <ele>1346</ele>
        <time>2020-07-16T14:08:25.593Z</time>
      </trkpt>
      <trkpt lat="46.47045" lon="8.24026">
        <ele>1346</ele>
        <time>2020-07-16T14:08:26.594Z</time>
      </trkpt>
      <trkpt lat="46.47044" lon="8.24027">
        <ele>1346</ele>
        <time>2020-07-16T14:08:27.593Z</time>
      </trkpt>
      <trkpt lat="46.47044" lon="8.24029">
        <ele>1346</ele>
        <time>2020-07-16T14:08:28.594Z</time>
      </trkpt>
      <trkpt lat="46.47043" lon="8.2403">
        <ele>1346</ele>
        <time>2020-07-16T14:08:29.593Z</time>
      </trkpt>
      <trkpt lat="46.47042" lon="8.2403">
        <ele>1346</ele>
        <time>2020-07-16T14:08:30.593Z</time>
      </trkpt>
      <trkpt lat="46.47041" lon="8.24031">
        <ele>1346</ele>
        <time>2020-07-16T14:08:31.593Z</time>
      </trkpt>
      <trkpt lat="46.4704" lon="8.24031">
        <ele>1346</ele>
        <time>2020-07-16T14:08:32.593Z</time>
      </trkpt>
      <trkpt lat="46.47038" lon="8.24031">
        <ele>1346</ele>
        <time>2020-07-16T14:08:33.594Z</time>
      </trkpt>
      <trkpt lat="46.47037" lon="8.24032">
        <ele>1346</ele>
        <time>2020-07-16T14:08:34.593Z</time>
      </trkpt>
      <trkpt lat="46.47036" lon="8.24033">
        <ele>1346</ele>
        <time>2020-07-16T14:08:35.593Z</time>
      </trkpt>
      <trkpt lat="46.47035" lon="8.24033">
        <ele>1346</ele>
        <time>2020-07-16T14:08:36.593Z</time>
      </trkpt>
      <trkpt lat="46.47034" lon="8.24034">
        <ele>1346</ele>
        <time>2020-07-16T14:08:37.593Z</time>
      </trkpt>
      <trkpt lat="46.47033" lon="8.24035">
        <ele>1346</ele>
        <time>2020-07-16T14:08:38.593Z</time>
      </trkpt>
      <trkpt lat="46.47033" lon="8.24036">
        <ele>1346</ele>
        <time>2020-07-16T14:08:39.593Z</time>
      </trkpt>
      <trkpt lat="46.47033" lon="8.24037">
        <ele>1346</ele>
        <time>2020-07-16T14:08:40.593Z</time>
      </trkpt>
      <trkpt lat="46.47032" lon="8.24038">
        <ele>1345</ele>
        <time>2020-07-16T14:08:41.594Z</time>
      </trkpt>
      <trkpt lat="46.47031" lon="8.24038">
        <ele>1345</ele>
        <time>2020-07-16T14:08:42.593Z</time>
      </trkpt>
      <trkpt lat="46.4703" lon="8.24039">
        <ele>1345</ele>
        <time>2020-07-16T14:08:43.594Z</time>
      </trkpt>
      <trkpt lat="46.47029" lon="8.2404">
        <ele>1345</ele>
        <time>2020-07-16T14:08:44.594Z</time>
      </trkpt>
      <trkpt lat="46.47028" lon="8.24041">
        <ele>1345</ele>
        <time>2020-07-16T14:08:45.594Z</time>
      </trkpt>
      <trkpt lat="46.47027" lon="8.24042">
        <ele>1345</ele>
        <time>2020-07-16T14:08:46.594Z</time>
      </trkpt>
      <trkpt lat="46.47026" lon="8.24043">
        <ele>1345</ele>
        <time>2020-07-16T14:08:47.594Z</time>
      </trkpt>
      <trkpt lat="46.47025" lon="8.24044">
        <ele>1345</ele>
        <time>2020-07-16T14:08:48.594Z</time>
      </trkpt>
      <trkpt lat="46.47024" lon="8.24045">
        <ele>1345</ele>
        <time>2020-07-16T14:08:49.594Z</time>
      </trkpt>
      <trkpt lat="46.47023" lon="8.24046">
        <ele>1346</ele>
        <time>2020-07-16T14:08:50.594Z</time>
      </trkpt>
      <trkpt lat="46.47022" lon="8.24047">
        <ele>1346</ele>
        <time>2020-07-16T14:08:51.594Z</time>
      </trkpt>
      <trkpt lat="46.47021" lon="8.24048">
        <ele>1345</ele>
        <time>2020-07-16T14:08:52.594Z</time>
      </trkpt>
      <trkpt lat="46.4702" lon="8.2405">
        <ele>1344</ele>
        <time>2020-07-16T14:08:53.594Z</time>
      </trkpt>
      <trkpt lat="46.4702" lon="8.24052">
        <ele>1343</ele>
        <time>2020-07-16T14:08:54.593Z</time>
      </trkpt>
      <trkpt lat="46.47019" lon="8.24052">
        <ele>1342</ele>
        <time>2020-07-16T14:08:55.594Z</time>
      </trkpt>
      <trkpt lat="46.47019" lon="8.24053">
        <ele>1341</ele>
        <time>2020-07-16T14:08:56.594Z</time>
      </trkpt>
      <trkpt lat="46.47019" lon="8.24053">
        <ele>1341</ele>
        <time>2020-07-16T14:08:57.594Z</time>
      </trkpt>
      <trkpt lat="46.47018" lon="8.24055">
        <ele>1341</ele>
        <time>2020-07-16T14:08:58.594Z</time>
      </trkpt>
      <trkpt lat="46.47018" lon="8.24056">
        <ele>1340</ele>
        <time>2020-07-16T14:08:59.594Z</time>
      </trkpt>
      <trkpt lat="46.47017" lon="8.24057">
        <ele>1340</ele>
        <time>2020-07-16T14:09:00.593Z</time>
      </trkpt>
      <trkpt lat="46.47015" lon="8.24058">
        <ele>1339</ele>
        <time>2020-07-16T14:09:01.594Z</time>
      </trkpt>
      <trkpt lat="46.47014" lon="8.24058">
        <ele>1339</ele>
        <time>2020-07-16T14:09:02.593Z</time>
      </trkpt>
      <trkpt lat="46.47013" lon="8.24059">
        <ele>1339</ele>
        <time>2020-07-16T14:09:03.594Z</time>
      </trkpt>
      <trkpt lat="46.47012" lon="8.24059">
        <ele>1339</ele>
        <time>2020-07-16T14:09:04.594Z</time>
      </trkpt>
      <trkpt lat="46.47012" lon="8.2406">
        <ele>1339</ele>
        <time>2020-07-16T14:09:05.594Z</time>
      </trkpt>
      <trkpt lat="46.47011" lon="8.24062">
        <ele>1340</ele>
        <time>2020-07-16T14:09:06.594Z</time>
      </trkpt>
      <trkpt lat="46.4701" lon="8.24063">
        <ele>1340</ele>
        <time>2020-07-16T14:09:07.594Z</time>
      </trkpt>
      <trkpt lat="46.47009" lon="8.24064">
        <ele>1340</ele>
        <time>2020-07-16T14:09:08.593Z</time>
      </trkpt>
      <trkpt lat="46.47009" lon="8.24064">
        <ele>1340</ele>
        <time>2020-07-16T14:09:09.594Z</time>
      </trkpt>
      <trkpt lat="46.47008" lon="8.24065">
        <ele>1340</ele>
        <time>2020-07-16T14:09:10.594Z</time>
      </trkpt>
      <trkpt lat="46.47007" lon="8.24065">
        <ele>1340</ele>
        <time>2020-07-16T14:09:11.594Z</time>
      </trkpt>
      <trkpt lat="46.47007" lon="8.24067">
        <ele>1340</ele>
        <time>2020-07-16T14:09:12.594Z</time>
      </trkpt>
      <trkpt lat="46.47006" lon="8.24067">
        <ele>1340</ele>
        <time>2020-07-16T14:09:13.594Z</time>
      </trkpt>
      <trkpt lat="46.47006" lon="8.24068">
        <ele>1340</ele>
        <time>2020-07-16T14:09:14.594Z</time>
      </trkpt>
      <trkpt lat="46.47005" lon="8.24069">
        <ele>1340</ele>
        <time>2020-07-16T14:09:15.594Z</time>
      </trkpt>
      <trkpt lat="46.47004" lon="8.2407">
        <ele>1340</ele>
        <time>2020-07-16T14:09:16.593Z</time>
      </trkpt>
      <trkpt lat="46.47003" lon="8.24071">
        <ele>1340</ele>
        <time>2020-07-16T14:09:17.593Z</time>
      </trkpt>
      <trkpt lat="46.47002" lon="8.24072">
        <ele>1340</ele>
        <time>2020-07-16T14:09:18.594Z</time>
      </trkpt>
      <trkpt lat="46.47002" lon="8.24073">
        <ele>1340</ele>
        <time>2020-07-16T14:09:19.593Z</time>
      </trkpt>
      <trkpt lat="46.47001" lon="8.24074">
        <ele>1340</ele>
        <time>2020-07-16T14:09:20.593Z</time>
      </trkpt>
      <trkpt lat="46.47" lon="8.24076">
        <ele>1340</ele>
        <time>2020-07-16T14:09:21.593Z</time>
      </trkpt>
      <trkpt lat="46.46999" lon="8.24078">
        <ele>1340</ele>
        <time>2020-07-16T14:09:22.594Z</time>
      </trkpt>
      <trkpt lat="46.46998" lon="8.24079">
        <ele>1340</ele>
        <time>2020-07-16T14:09:23.594Z</time>
      </trkpt>
      <trkpt lat="46.46997" lon="8.2408">
        <ele>1340</ele>
        <time>2020-07-16T14:09:24.594Z</time>
      </trkpt>
      <trkpt lat="46.46997" lon="8.2408">
        <ele>1340</ele>
        <time>2020-07-16T14:09:25.593Z</time>
      </trkpt>
      <trkpt lat="46.46996" lon="8.24081">
        <ele>1340</ele>
        <time>2020-07-16T14:09:26.593Z</time>
      </trkpt>
      <trkpt lat="46.46995" lon="8.24082">
        <ele>1339</ele>
        <time>2020-07-16T14:09:27.594Z</time>
      </trkpt>
      <trkpt lat="46.46995" lon="8.24083">
        <ele>1338</ele>
        <time>2020-07-16T14:09:28.593Z</time>
      </trkpt>
      <trkpt lat="46.46994" lon="8.24084">
        <ele>1338</ele>
        <time>2020-07-16T14:09:29.594Z</time>
      </trkpt>
      <trkpt lat="46.46994" lon="8.24086">
        <ele>1337</ele>
        <time>2020-07-16T14:09:30.594Z</time>
      </trkpt>
      <trkpt lat="46.46993" lon="8.24087">
        <ele>1337</ele>
        <time>2020-07-16T14:09:31.594Z</time>
      </trkpt>
      <trkpt lat="46.46993" lon="8.24089">
        <ele>1337</ele>
        <time>2020-07-16T14:09:32.593Z</time>
      </trkpt>
      <trkpt lat="46.46992" lon="8.2409">
        <ele>1336</ele>
        <time>2020-07-16T14:09:33.593Z</time>
      </trkpt>
      <trkpt lat="46.46991" lon="8.24092">
        <ele>1336</ele>
        <time>2020-07-16T14:09:34.594Z</time>
      </trkpt>
      <trkpt lat="46.4699" lon="8.24093">
        <ele>1336</ele>
        <time>2020-07-16T14:09:35.594Z</time>
      </trkpt>
      <trkpt lat="46.4699" lon="8.24094">
        <ele>1335</ele>
        <time>2020-07-16T14:09:36.593Z</time>
      </trkpt>
      <trkpt lat="46.46989" lon="8.24095">
        <ele>1335</ele>
        <time>2020-07-16T14:09:37.593Z</time>
      </trkpt>
      <trkpt lat="46.46988" lon="8.24096">
        <ele>1335</ele>
        <time>2020-07-16T14:09:38.594Z</time>
      </trkpt>
      <trkpt lat="46.46987" lon="8.24098">
        <ele>1335</ele>
        <time>2020-07-16T14:09:39.594Z</time>
      </trkpt>
      <trkpt lat="46.46987" lon="8.24099">
        <ele>1335</ele>
        <time>2020-07-16T14:09:40.593Z</time>
      </trkpt>
      <trkpt lat="46.46986" lon="8.241">
        <ele>1335</ele>
        <time>2020-07-16T14:09:41.594Z</time>
      </trkpt>
      <trkpt lat="46.46985" lon="8.24102">
        <ele>1335</ele>
        <time>2020-07-16T14:09:42.594Z</time>
      </trkpt>
      <trkpt lat="46.46984" lon="8.24103">
        <ele>1335</ele>
        <time>2020-07-16T14:09:43.594Z</time>
      </trkpt>
      <trkpt lat="46.46983" lon="8.24105">
        <ele>1334</ele>
        <time>2020-07-16T14:09:44.594Z</time>
      </trkpt>
      <trkpt lat="46.46982" lon="8.24106">
        <ele>1334</ele>
        <time>2020-07-16T14:09:45.594Z</time>
      </trkpt>
      <trkpt lat="46.46982" lon="8.24107">
        <ele>1334</ele>
        <time>2020-07-16T14:09:46.594Z</time>
      </trkpt>
      <trkpt lat="46.46981" lon="8.24107">
        <ele>1334</ele>
        <time>2020-07-16T14:09:47.594Z</time>
      </trkpt>
      <trkpt lat="46.46981" lon="8.24108">
        <ele>1334</ele>
        <time>2020-07-16T14:09:48.594Z</time>
      </trkpt>
      <trkpt lat="46.4698" lon="8.24109">
        <ele>1334</ele>
        <time>2020-07-16T14:09:49.594Z</time>
      </trkpt>
      <trkpt lat="46.46979" lon="8.2411">
        <ele>1334</ele>
        <time>2020-07-16T14:09:50.594Z</time>
      </trkpt>
      <trkpt lat="46.46978" lon="8.24111">
        <ele>1334</ele>
        <time>2020-07-16T14:09:51.594Z</time>
      </trkpt>
      <trkpt lat="46.46978" lon="8.24112">
        <ele>1334</ele>
        <time>2020-07-16T14:09:52.594Z</time>
      </trkpt>
      <trkpt lat="46.46977" lon="8.24113">
        <ele>1334</ele>
        <time>2020-07-16T14:09:53.594Z</time>
      </trkpt>
      <trkpt lat="46.46976" lon="8.24115">
        <ele>1334</ele>
        <time>2020-07-16T14:09:54.593Z</time>
      </trkpt>
      <trkpt lat="46.46976" lon="8.24116">
        <ele>1334</ele>
        <time>2020-07-16T14:09:55.593Z</time>
      </trkpt>
      <trkpt lat="46.46975" lon="8.24118">
        <ele>1334</ele>
        <time>2020-07-16T14:09:56.593Z</time>
      </trkpt>
      <trkpt lat="46.46974" lon="8.24119">
        <ele>1334</ele>
        <time>2020-07-16T14:09:57.593Z</time>
      </trkpt>
      <trkpt lat="46.46973" lon="8.24121">
        <ele>1333</ele>
        <time>2020-07-16T14:09:58.593Z</time>
      </trkpt>
      <trkpt lat="46.46972" lon="8.24122">
        <ele>1333</ele>
        <time>2020-07-16T14:09:59.593Z</time>
      </trkpt>
      <trkpt lat="46.46971" lon="8.24123">
        <ele>1334</ele>
        <time>2020-07-16T14:10:00.593Z</time>
      </trkpt>
      <trkpt lat="46.46971" lon="8.24125">
        <ele>1334</ele>
        <time>2020-07-16T14:10:01.593Z</time>
      </trkpt>
      <trkpt lat="46.4697" lon="8.24126">
        <ele>1334</ele>
        <time>2020-07-16T14:10:02.594Z</time>
      </trkpt>
      <trkpt lat="46.46969" lon="8.24128">
        <ele>1334</ele>
        <time>2020-07-16T14:10:03.594Z</time>
      </trkpt>
      <trkpt lat="46.46969" lon="8.2413">
        <ele>1334</ele>
        <time>2020-07-16T14:10:04.594Z</time>
      </trkpt>
      <trkpt lat="46.46968" lon="8.24131">
        <ele>1334</ele>
        <time>2020-07-16T14:10:05.594Z</time>
      </trkpt>
      <trkpt lat="46.46967" lon="8.24134">
        <ele>1334</ele>
        <time>2020-07-16T14:10:06.593Z</time>
      </trkpt>
      <trkpt lat="46.46966" lon="8.24135">
        <ele>1335</ele>
        <time>2020-07-16T14:10:07.594Z</time>
      </trkpt>
      <trkpt lat="46.46966" lon="8.24135">
        <ele>1334</ele>
        <time>2020-07-16T14:10:08.593Z</time>
      </trkpt>
      <trkpt lat="46.46965" lon="8.24137">
        <ele>1334</ele>
        <time>2020-07-16T14:10:09.594Z</time>
      </trkpt>
      <trkpt lat="46.46965" lon="8.24139">
        <ele>1334</ele>
        <time>2020-07-16T14:10:10.594Z</time>
      </trkpt>
      <trkpt lat="46.46964" lon="8.24141">
        <ele>1334</ele>
        <time>2020-07-16T14:10:11.593Z</time>
      </trkpt>
      <trkpt lat="46.46963" lon="8.24142">
        <ele>1334</ele>
        <time>2020-07-16T14:10:12.594Z</time>
      </trkpt>
      <trkpt lat="46.46963" lon="8.24144">
        <ele>1334</ele>
        <time>2020-07-16T14:10:13.593Z</time>
      </trkpt>
      <trkpt lat="46.46962" lon="8.24146">
        <ele>1334</ele>
        <time>2020-07-16T14:10:14.593Z</time>
      </trkpt>
      <trkpt lat="46.46962" lon="8.24147">
        <ele>1334</ele>
        <time>2020-07-16T14:10:15.594Z</time>
      </trkpt>
      <trkpt lat="46.46961" lon="8.24148">
        <ele>1334</ele>
        <time>2020-07-16T14:10:16.594Z</time>
      </trkpt>
      <trkpt lat="46.4696" lon="8.24149">
        <ele>1334</ele>
        <time>2020-07-16T14:10:17.593Z</time>
      </trkpt>
      <trkpt lat="46.4696" lon="8.24151">
        <ele>1334</ele>
        <time>2020-07-16T14:10:18.594Z</time>
      </trkpt>
      <trkpt lat="46.4696" lon="8.24152">
        <ele>1334</ele>
        <time>2020-07-16T14:10:19.594Z</time>
      </trkpt>
      <trkpt lat="46.46959" lon="8.24153">
        <ele>1334</ele>
        <time>2020-07-16T14:10:20.593Z</time>
      </trkpt>
      <trkpt lat="46.46959" lon="8.24155">
        <ele>1334</ele>
        <time>2020-07-16T14:10:21.593Z</time>
      </trkpt>
      <trkpt lat="46.46958" lon="8.24156">
        <ele>1334</ele>
        <time>2020-07-16T14:10:22.594Z</time>
      </trkpt>
      <trkpt lat="46.46958" lon="8.24157">
        <ele>1334</ele>
        <time>2020-07-16T14:10:23.593Z</time>
      </trkpt>
      <trkpt lat="46.46957" lon="8.24158">
        <ele>1334</ele>
        <time>2020-07-16T14:10:24.594Z</time>
      </trkpt>
      <trkpt lat="46.46957" lon="8.24159">
        <ele>1334</ele>
        <time>2020-07-16T14:10:25.594Z</time>
      </trkpt>
      <trkpt lat="46.46956" lon="8.2416">
        <ele>1334</ele>
        <time>2020-07-16T14:10:26.594Z</time>
      </trkpt>
      <trkpt lat="46.46955" lon="8.24162">
        <ele>1334</ele>
        <time>2020-07-16T14:10:27.593Z</time>
      </trkpt>
      <trkpt lat="46.46955" lon="8.24163">
        <ele>1334</ele>
        <time>2020-07-16T14:10:28.594Z</time>
      </trkpt>
      <trkpt lat="46.46955" lon="8.24165">
        <ele>1334</ele>
        <time>2020-07-16T14:10:29.593Z</time>
      </trkpt>
      <trkpt lat="46.46955" lon="8.24167">
        <ele>1335</ele>
        <time>2020-07-16T14:10:30.594Z</time>
      </trkpt>
      <trkpt lat="46.46954" lon="8.24168">
        <ele>1335</ele>
        <time>2020-07-16T14:10:31.594Z</time>
      </trkpt>
      <trkpt lat="46.46953" lon="8.2417">
        <ele>1335</ele>
        <time>2020-07-16T14:10:32.594Z</time>
      </trkpt>
      <trkpt lat="46.46952" lon="8.24171">
        <ele>1336</ele>
        <time>2020-07-16T14:10:33.594Z</time>
      </trkpt>
      <trkpt lat="46.46952" lon="8.24171">
        <ele>1336</ele>
        <time>2020-07-16T14:10:34.593Z</time>
      </trkpt>
      <trkpt lat="46.46951" lon="8.24172">
        <ele>1336</ele>
        <time>2020-07-16T14:10:35.594Z</time>
      </trkpt>
      <trkpt lat="46.4695" lon="8.24172">
        <ele>1336</ele>
        <time>2020-07-16T14:10:36.594Z</time>
      </trkpt>
      <trkpt lat="46.46949" lon="8.24173">
        <ele>1336</ele>
        <time>2020-07-16T14:10:37.594Z</time>
      </trkpt>
      <trkpt lat="46.46948" lon="8.24175">
        <ele>1336</ele>
        <time>2020-07-16T14:10:38.594Z</time>
      </trkpt>
      <trkpt lat="46.46948" lon="8.24176">
        <ele>1335</ele>
        <time>2020-07-16T14:10:39.594Z</time>
      </trkpt>
      <trkpt lat="46.46947" lon="8.24177">
        <ele>1335</ele>
        <time>2020-07-16T14:10:40.594Z</time>
      </trkpt>
      <trkpt lat="46.46946" lon="8.24178">
        <ele>1335</ele>
        <time>2020-07-16T14:10:41.594Z</time>
      </trkpt>
      <trkpt lat="46.46945" lon="8.24179">
        <ele>1335</ele>
        <time>2020-07-16T14:10:42.593Z</time>
      </trkpt>
      <trkpt lat="46.46945" lon="8.24179">
        <ele>1335</ele>
        <time>2020-07-16T14:10:43.594Z</time>
      </trkpt>
      <trkpt lat="46.46944" lon="8.24179">
        <ele>1335</ele>
        <time>2020-07-16T14:10:44.594Z</time>
      </trkpt>
      <trkpt lat="46.46944" lon="8.2418">
        <ele>1334</ele>
        <time>2020-07-16T14:10:45.594Z</time>
      </trkpt>
      <trkpt lat="46.46943" lon="8.2418">
        <ele>1334</ele>
        <time>2020-07-16T14:10:46.594Z</time>
      </trkpt>
      <trkpt lat="46.46943" lon="8.24181">
        <ele>1333</ele>
        <time>2020-07-16T14:10:47.594Z</time>
      </trkpt>
      <trkpt lat="46.46943" lon="8.24182">
        <ele>1332</ele>
        <time>2020-07-16T14:10:48.594Z</time>
      </trkpt>
      <trkpt lat="46.46943" lon="8.24183">
        <ele>1332</ele>
        <time>2020-07-16T14:10:49.594Z</time>
      </trkpt>
      <trkpt lat="46.46942" lon="8.24184">
        <ele>1329</ele>
        <time>2020-07-16T14:10:50.594Z</time>
      </trkpt>
      <trkpt lat="46.46942" lon="8.24184">
        <ele>1329</ele>
        <time>2020-07-16T14:10:51.594Z</time>
      </trkpt>
      <trkpt lat="46.46941" lon="8.24185">
        <ele>1329</ele>
        <time>2020-07-16T14:10:52.594Z</time>
      </trkpt>
      <trkpt lat="46.46941" lon="8.24185">
        <ele>1329</ele>
        <time>2020-07-16T14:10:53.594Z</time>
      </trkpt>
      <trkpt lat="46.46941" lon="8.24186">
        <ele>1329</ele>
        <time>2020-07-16T14:10:54.594Z</time>
      </trkpt>
      <trkpt lat="46.4694" lon="8.24187">
        <ele>1328</ele>
        <time>2020-07-16T14:10:55.593Z</time>
      </trkpt>
      <trkpt lat="46.46939" lon="8.24188">
        <ele>1328</ele>
        <time>2020-07-16T14:10:56.594Z</time>
      </trkpt>
      <trkpt lat="46.46939" lon="8.24189">
        <ele>1328</ele>
        <time>2020-07-16T14:10:57.594Z</time>
      </trkpt>
      <trkpt lat="46.46938" lon="8.2419">
        <ele>1327</ele>
        <time>2020-07-16T14:10:58.593Z</time>
      </trkpt>
      <trkpt lat="46.46938" lon="8.24191">
        <ele>1327</ele>
        <time>2020-07-16T14:10:59.594Z</time>
      </trkpt>
      <trkpt lat="46.46938" lon="8.24193">
        <ele>1327</ele>
        <time>2020-07-16T14:11:00.593Z</time>
      </trkpt>
      <trkpt lat="46.46938" lon="8.24194">
        <ele>1327</ele>
        <time>2020-07-16T14:11:01.594Z</time>
      </trkpt>
      <trkpt lat="46.46939" lon="8.24196">
        <ele>1327</ele>
        <time>2020-07-16T14:11:02.594Z</time>
      </trkpt>
      <trkpt lat="46.46939" lon="8.24198">
        <ele>1327</ele>
        <time>2020-07-16T14:11:03.594Z</time>
      </trkpt>
      <trkpt lat="46.4694" lon="8.24199">
        <ele>1326</ele>
        <time>2020-07-16T14:11:04.594Z</time>
      </trkpt>
      <trkpt lat="46.4694" lon="8.242">
        <ele>1326</ele>
        <time>2020-07-16T14:11:05.594Z</time>
      </trkpt>
      <trkpt lat="46.46941" lon="8.24201">
        <ele>1326</ele>
        <time>2020-07-16T14:11:06.594Z</time>
      </trkpt>
      <trkpt lat="46.46942" lon="8.24203">
        <ele>1325</ele>
        <time>2020-07-16T14:11:07.593Z</time>
      </trkpt>
      <trkpt lat="46.46942" lon="8.24204">
        <ele>1325</ele>
        <time>2020-07-16T14:11:08.593Z</time>
      </trkpt>
      <trkpt lat="46.46943" lon="8.24205">
        <ele>1325</ele>
        <time>2020-07-16T14:11:09.594Z</time>
      </trkpt>
      <trkpt lat="46.46943" lon="8.24206">
        <ele>1326</ele>
        <time>2020-07-16T14:11:10.593Z</time>
      </trkpt>
      <trkpt lat="46.46943" lon="8.24208">
        <ele>1326</ele>
        <time>2020-07-16T14:11:11.594Z</time>
      </trkpt>
      <trkpt lat="46.46944" lon="8.2421">
        <ele>1327</ele>
        <time>2020-07-16T14:11:12.594Z</time>
      </trkpt>
      <trkpt lat="46.46944" lon="8.24211">
        <ele>1327</ele>
        <time>2020-07-16T14:11:13.594Z</time>
      </trkpt>
      <trkpt lat="46.46944" lon="8.24213">
        <ele>1327</ele>
        <time>2020-07-16T14:11:14.594Z</time>
      </trkpt>
      <trkpt lat="46.46943" lon="8.24215">
        <ele>1327</ele>
        <time>2020-07-16T14:11:15.594Z</time>
      </trkpt>
      <trkpt lat="46.46943" lon="8.24216">
        <ele>1328</ele>
        <time>2020-07-16T14:11:16.593Z</time>
      </trkpt>
      <trkpt lat="46.46942" lon="8.24218">
        <ele>1328</ele>
        <time>2020-07-16T14:11:17.593Z</time>
      </trkpt>
      <trkpt lat="46.46942" lon="8.24219">
        <ele>1328</ele>
        <time>2020-07-16T14:11:18.593Z</time>
      </trkpt>
      <trkpt lat="46.46941" lon="8.24221">
        <ele>1328</ele>
        <time>2020-07-16T14:11:19.594Z</time>
      </trkpt>
      <trkpt lat="46.4694" lon="8.24222">
        <ele>1328</ele>
        <time>2020-07-16T14:11:20.594Z</time>
      </trkpt>
      <trkpt lat="46.4694" lon="8.24223">
        <ele>1328</ele>
        <time>2020-07-16T14:11:21.594Z</time>
      </trkpt>
      <trkpt lat="46.46939" lon="8.24224">
        <ele>1328</ele>
        <time>2020-07-16T14:11:22.594Z</time>
      </trkpt>
      <trkpt lat="46.46938" lon="8.24225">
        <ele>1328</ele>
        <time>2020-07-16T14:11:23.594Z</time>
      </trkpt>
      <trkpt lat="46.46938" lon="8.24227">
        <ele>1328</ele>
        <time>2020-07-16T14:11:24.593Z</time>
      </trkpt>
      <trkpt lat="46.46938" lon="8.24228">
        <ele>1328</ele>
        <time>2020-07-16T14:11:25.593Z</time>
      </trkpt>
      <trkpt lat="46.46937" lon="8.2423">
        <ele>1328</ele>
        <time>2020-07-16T14:11:26.594Z</time>
      </trkpt>
      <trkpt lat="46.46937" lon="8.24231">
        <ele>1328</ele>
        <time>2020-07-16T14:11:27.593Z</time>
      </trkpt>
      <trkpt lat="46.46936" lon="8.24232">
        <ele>1328</ele>
        <time>2020-07-16T14:11:28.594Z</time>
      </trkpt>
      <trkpt lat="46.46936" lon="8.24234">
        <ele>1327</ele>
        <time>2020-07-16T14:11:29.593Z</time>
      </trkpt>
      <trkpt lat="46.46935" lon="8.24235">
        <ele>1327</ele>
        <time>2020-07-16T14:11:30.594Z</time>
      </trkpt>
      <trkpt lat="46.46935" lon="8.24237">
        <ele>1326</ele>
        <time>2020-07-16T14:11:31.593Z</time>
      </trkpt>
      <trkpt lat="46.46935" lon="8.24237">
        <ele>1326</ele>
        <time>2020-07-16T14:11:32.594Z</time>
      </trkpt>
      <trkpt lat="46.46936" lon="8.24237">
        <ele>1326</ele>
        <time>2020-07-16T14:11:33.594Z</time>
      </trkpt>
      <trkpt lat="46.46937" lon="8.24238">
        <ele>1326</ele>
        <time>2020-07-16T14:11:34.593Z</time>
      </trkpt>
      <trkpt lat="46.46938" lon="8.24239">
        <ele>1325</ele>
        <time>2020-07-16T14:11:35.594Z</time>
      </trkpt>
      <trkpt lat="46.46938" lon="8.2424">
        <ele>1325</ele>
        <time>2020-07-16T14:11:36.594Z</time>
      </trkpt>
      <trkpt lat="46.46939" lon="8.24241">
        <ele>1325</ele>
        <time>2020-07-16T14:11:37.594Z</time>
      </trkpt>
      <trkpt lat="46.4694" lon="8.24243">
        <ele>1325</ele>
        <time>2020-07-16T14:11:38.593Z</time>
      </trkpt>
      <trkpt lat="46.4694" lon="8.24245">
        <ele>1324</ele>
        <time>2020-07-16T14:11:39.594Z</time>
      </trkpt>
      <trkpt lat="46.4694" lon="8.24248">
        <ele>1324</ele>
        <time>2020-07-16T14:11:40.594Z</time>
      </trkpt>
      <trkpt lat="46.46939" lon="8.2425">
        <ele>1324</ele>
        <time>2020-07-16T14:11:41.593Z</time>
      </trkpt>
      <trkpt lat="46.46939" lon="8.24253">
        <ele>1324</ele>
        <time>2020-07-16T14:11:42.594Z</time>
      </trkpt>
      <trkpt lat="46.46938" lon="8.24256">
        <ele>1324</ele>
        <time>2020-07-16T14:11:43.594Z</time>
      </trkpt>
      <trkpt lat="46.46937" lon="8.24258">
        <ele>1324</ele>
        <time>2020-07-16T14:11:44.594Z</time>
      </trkpt>
      <trkpt lat="46.46937" lon="8.24259">
        <ele>1323</ele>
        <time>2020-07-16T14:11:45.594Z</time>
      </trkpt>
      <trkpt lat="46.46937" lon="8.2426">
        <ele>1323</ele>
        <time>2020-07-16T14:11:46.593Z</time>
      </trkpt>
      <trkpt lat="46.46937" lon="8.24262">
        <ele>1323</ele>
        <time>2020-07-16T14:11:47.594Z</time>
      </trkpt>
      <trkpt lat="46.46937" lon="8.24263">
        <ele>1323</ele>
        <time>2020-07-16T14:11:48.593Z</time>
      </trkpt>
      <trkpt lat="46.46937" lon="8.24264">
        <ele>1324</ele>
        <time>2020-07-16T14:11:49.594Z</time>
      </trkpt>
      <trkpt lat="46.46937" lon="8.24266">
        <ele>1324</ele>
        <time>2020-07-16T14:11:50.594Z</time>
      </trkpt>
      <trkpt lat="46.46937" lon="8.24267">
        <ele>1325</ele>
        <time>2020-07-16T14:11:51.594Z</time>
      </trkpt>
      <trkpt lat="46.46938" lon="8.24267">
        <ele>1325</ele>
        <time>2020-07-16T14:11:52.594Z</time>
      </trkpt>
      <trkpt lat="46.46939" lon="8.24267">
        <ele>1325</ele>
        <time>2020-07-16T14:11:53.593Z</time>
      </trkpt>
      <trkpt lat="46.46939" lon="8.24267">
        <ele>1325</ele>
        <time>2020-07-16T14:11:54.594Z</time>
      </trkpt>
      <trkpt lat="46.46939" lon="8.24271">
        <ele>1326</ele>
        <time>2020-07-16T14:11:55.595Z</time>
      </trkpt>
      <trkpt lat="46.46939" lon="8.24272">
        <ele>1326</ele>
        <time>2020-07-16T14:11:56.594Z</time>
      </trkpt>
      <trkpt lat="46.4694" lon="8.24273">
        <ele>1326</ele>
        <time>2020-07-16T14:11:57.594Z</time>
      </trkpt>
      <trkpt lat="46.4694" lon="8.24274">
        <ele>1326</ele>
        <time>2020-07-16T14:11:58.594Z</time>
      </trkpt>
      <trkpt lat="46.4694" lon="8.24276">
        <ele>1326</ele>
        <time>2020-07-16T14:11:59.594Z</time>
      </trkpt>
      <trkpt lat="46.46941" lon="8.24277">
        <ele>1327</ele>
        <time>2020-07-16T14:12:00.595Z</time>
      </trkpt>
      <trkpt lat="46.46941" lon="8.24279">
        <ele>1327</ele>
        <time>2020-07-16T14:12:01.595Z</time>
      </trkpt>
      <trkpt lat="46.46942" lon="8.24281">
        <ele>1328</ele>
        <time>2020-07-16T14:12:02.594Z</time>
      </trkpt>
      <trkpt lat="46.46942" lon="8.24282">
        <ele>1328</ele>
        <time>2020-07-16T14:12:03.595Z</time>
      </trkpt>
      <trkpt lat="46.46942" lon="8.24284">
        <ele>1329</ele>
        <time>2020-07-16T14:12:04.594Z</time>
      </trkpt>
      <trkpt lat="46.46942" lon="8.24285">
        <ele>1329</ele>
        <time>2020-07-16T14:12:05.594Z</time>
      </trkpt>
      <trkpt lat="46.46942" lon="8.24286">
        <ele>1330</ele>
        <time>2020-07-16T14:12:06.594Z</time>
      </trkpt>
      <trkpt lat="46.46941" lon="8.24287">
        <ele>1330</ele>
        <time>2020-07-16T14:12:07.594Z</time>
      </trkpt>
      <trkpt lat="46.4694" lon="8.24288">
        <ele>1331</ele>
        <time>2020-07-16T14:12:08.594Z</time>
      </trkpt>
      <trkpt lat="46.4694" lon="8.24288">
        <ele>1331</ele>
        <time>2020-07-16T14:12:09.595Z</time>
      </trkpt>
      <trkpt lat="46.46938" lon="8.2429">
        <ele>1332</ele>
        <time>2020-07-16T14:12:10.595Z</time>
      </trkpt>
      <trkpt lat="46.46938" lon="8.24291">
        <ele>1333</ele>
        <time>2020-07-16T14:12:11.596Z</time>
      </trkpt>
      <trkpt lat="46.46937" lon="8.24291">
        <ele>1334</ele>
        <time>2020-07-16T14:12:12.596Z</time>
      </trkpt>
      <trkpt lat="46.46935" lon="8.24292">
        <ele>1334</ele>
        <time>2020-07-16T14:12:13.596Z</time>
      </trkpt>
      <trkpt lat="46.46934" lon="8.24293">
        <ele>1335</ele>
        <time>2020-07-16T14:12:14.596Z</time>
      </trkpt>
      <trkpt lat="46.46933" lon="8.24292">
        <ele>1335</ele>
        <time>2020-07-16T14:12:15.595Z</time>
      </trkpt>
      <trkpt lat="46.46932" lon="8.24291">
        <ele>1334</ele>
        <time>2020-07-16T14:12:16.596Z</time>
      </trkpt>
      <trkpt lat="46.46932" lon="8.24292">
        <ele>1334</ele>
        <time>2020-07-16T14:12:17.596Z</time>
      </trkpt>
      <trkpt lat="46.46931" lon="8.24292">
        <ele>1335</ele>
        <time>2020-07-16T14:12:18.596Z</time>
      </trkpt>
      <trkpt lat="46.4693" lon="8.24291">
        <ele>1335</ele>
        <time>2020-07-16T14:12:19.596Z</time>
      </trkpt>
      <trkpt lat="46.46928" lon="8.24289">
        <ele>1336</ele>
        <time>2020-07-16T14:12:20.595Z</time>
      </trkpt>
      <trkpt lat="46.46928" lon="8.2429">
        <ele>1336</ele>
        <time>2020-07-16T14:12:21.596Z</time>
      </trkpt>
      <trkpt lat="46.46927" lon="8.2429">
        <ele>1336</ele>
        <time>2020-07-16T14:12:22.595Z</time>
      </trkpt>
      <trkpt lat="46.46927" lon="8.24291">
        <ele>1336</ele>
        <time>2020-07-16T14:12:23.595Z</time>
      </trkpt>
      <trkpt lat="46.46927" lon="8.24292">
        <ele>1336</ele>
        <time>2020-07-16T14:12:24.595Z</time>
      </trkpt>
      <trkpt lat="46.46927" lon="8.24292">
        <ele>1336</ele>
        <time>2020-07-16T14:12:25.596Z</time>
      </trkpt>
      <trkpt lat="46.46926" lon="8.24292">
        <ele>1336</ele>
        <time>2020-07-16T14:12:26.596Z</time>
      </trkpt>
      <trkpt lat="46.46926" lon="8.24292">
        <ele>1335</ele>
        <time>2020-07-16T14:12:27.596Z</time>
      </trkpt>
      <trkpt lat="46.46926" lon="8.24292">
        <ele>1335</ele>
        <time>2020-07-16T14:12:28.596Z</time>
      </trkpt>
      <trkpt lat="46.46926" lon="8.24291">
        <ele>1335</ele>
        <time>2020-07-16T14:12:29.598Z</time>
      </trkpt>
      <trkpt lat="46.46927" lon="8.2429">
        <ele>1335</ele>
        <time>2020-07-16T14:12:30.598Z</time>
      </trkpt>
      <trkpt lat="46.46927" lon="8.2429">
        <ele>1335</ele>
        <time>2020-07-16T14:12:31.597Z</time>
      </trkpt>
      <trkpt lat="46.46928" lon="8.24289">
        <ele>1335</ele>
        <time>2020-07-16T14:12:32.598Z</time>
      </trkpt>
      <trkpt lat="46.46928" lon="8.24289">
        <ele>1335</ele>
        <time>2020-07-16T14:12:33.598Z</time>
      </trkpt>
      <trkpt lat="46.46929" lon="8.24288">
        <ele>1335</ele>
        <time>2020-07-16T14:12:34.598Z</time>
      </trkpt>
      <trkpt lat="46.46931" lon="8.24288">
        <ele>1335</ele>
        <time>2020-07-16T14:12:35.598Z</time>
      </trkpt>
      <trkpt lat="46.46932" lon="8.24289">
        <ele>1335</ele>
        <time>2020-07-16T14:12:36.598Z</time>
      </trkpt>
      <trkpt lat="46.46932" lon="8.2429">
        <ele>1335</ele>
        <time>2020-07-16T14:12:37.597Z</time>
      </trkpt>
      <trkpt lat="46.46932" lon="8.24292">
        <ele>1335</ele>
        <time>2020-07-16T14:12:38.598Z</time>
      </trkpt>
      <trkpt lat="46.46932" lon="8.24294">
        <ele>1335</ele>
        <time>2020-07-16T14:12:39.597Z</time>
      </trkpt>
      <trkpt lat="46.46932" lon="8.24295">
        <ele>1335</ele>
        <time>2020-07-16T14:12:40.598Z</time>
      </trkpt>
      <trkpt lat="46.46931" lon="8.24296">
        <ele>1335</ele>
        <time>2020-07-16T14:12:41.598Z</time>
      </trkpt>
      <trkpt lat="46.4693" lon="8.24298">
        <ele>1335</ele>
        <time>2020-07-16T14:12:42.598Z</time>
      </trkpt>
      <trkpt lat="46.46929" lon="8.243">
        <ele>1335</ele>
        <time>2020-07-16T14:12:43.598Z</time>
      </trkpt>
      <trkpt lat="46.46929" lon="8.24302">
        <ele>1335</ele>
        <time>2020-07-16T14:12:44.598Z</time>
      </trkpt>
      <trkpt lat="46.46928" lon="8.24304">
        <ele>1334</ele>
        <time>2020-07-16T14:12:45.597Z</time>
      </trkpt>
      <trkpt lat="46.46927" lon="8.24306">
        <ele>1334</ele>
        <time>2020-07-16T14:12:46.598Z</time>
      </trkpt>
      <trkpt lat="46.46927" lon="8.24308">
        <ele>1335</ele>
        <time>2020-07-16T14:12:47.597Z</time>
      </trkpt>
      <trkpt lat="46.46927" lon="8.2431">
        <ele>1335</ele>
        <time>2020-07-16T14:12:48.598Z</time>
      </trkpt>
      <trkpt lat="46.46927" lon="8.24312">
        <ele>1335</ele>
        <time>2020-07-16T14:12:49.598Z</time>
      </trkpt>
      <trkpt lat="46.46926" lon="8.24316">
        <ele>1335</ele>
        <time>2020-07-16T14:12:50.598Z</time>
      </trkpt>
      <trkpt lat="46.46927" lon="8.24319">
        <ele>1335</ele>
        <time>2020-07-16T14:12:51.598Z</time>
      </trkpt>
      <trkpt lat="46.46927" lon="8.2432">
        <ele>1334</ele>
        <time>2020-07-16T14:12:52.598Z</time>
      </trkpt>
      <trkpt lat="46.46928" lon="8.24322">
        <ele>1334</ele>
        <time>2020-07-16T14:12:53.597Z</time>
      </trkpt>
      <trkpt lat="46.46929" lon="8.24322">
        <ele>1334</ele>
        <time>2020-07-16T14:12:54.597Z</time>
      </trkpt>
      <trkpt lat="46.46929" lon="8.24322">
        <ele>1333</ele>
        <time>2020-07-16T14:12:55.598Z</time>
      </trkpt>
      <trkpt lat="46.4693" lon="8.24322">
        <ele>1333</ele>
        <time>2020-07-16T14:12:56.598Z</time>
      </trkpt>
      <trkpt lat="46.4693" lon="8.24324">
        <ele>1333</ele>
        <time>2020-07-16T14:12:57.599Z</time>
      </trkpt>
      <trkpt lat="46.4693" lon="8.24326">
        <ele>1332</ele>
        <time>2020-07-16T14:12:58.598Z</time>
      </trkpt>
      <trkpt lat="46.4693" lon="8.24327">
        <ele>1331</ele>
        <time>2020-07-16T14:12:59.598Z</time>
      </trkpt>
      <trkpt lat="46.4693" lon="8.24328">
        <ele>1330</ele>
        <time>2020-07-16T14:13:00.599Z</time>
      </trkpt>
      <trkpt lat="46.4693" lon="8.24329">
        <ele>1329</ele>
        <time>2020-07-16T14:13:01.599Z</time>
      </trkpt>
      <trkpt lat="46.4693" lon="8.24331">
        <ele>1329</ele>
        <time>2020-07-16T14:13:02.599Z</time>
      </trkpt>
      <trkpt lat="46.46931" lon="8.24331">
        <ele>1328</ele>
        <time>2020-07-16T14:13:03.599Z</time>
      </trkpt>
      <trkpt lat="46.46931" lon="8.24333">
        <ele>1327</ele>
        <time>2020-07-16T14:13:04.599Z</time>
      </trkpt>
      <trkpt lat="46.46931" lon="8.24334">
        <ele>1327</ele>
        <time>2020-07-16T14:13:05.599Z</time>
      </trkpt>
      <trkpt lat="46.4693" lon="8.24336">
        <ele>1327</ele>
        <time>2020-07-16T14:13:06.598Z</time>
      </trkpt>
      <trkpt lat="46.46931" lon="8.24338">
        <ele>1327</ele>
        <time>2020-07-16T14:13:07.599Z</time>
      </trkpt>
      <trkpt lat="46.46931" lon="8.24339">
        <ele>1327</ele>
        <time>2020-07-16T14:13:08.598Z</time>
      </trkpt>
      <trkpt lat="46.46929" lon="8.24341">
        <ele>1327</ele>
        <time>2020-07-16T14:13:09.599Z</time>
      </trkpt>
      <trkpt lat="46.46928" lon="8.24344">
        <ele>1327</ele>
        <time>2020-07-16T14:13:10.599Z</time>
      </trkpt>
      <trkpt lat="46.46927" lon="8.24345">
        <ele>1327</ele>
        <time>2020-07-16T14:13:11.598Z</time>
      </trkpt>
      <trkpt lat="46.46926" lon="8.24347">
        <ele>1326</ele>
        <time>2020-07-16T14:13:12.598Z</time>
      </trkpt>
      <trkpt lat="46.46926" lon="8.24348">
        <ele>1326</ele>
        <time>2020-07-16T14:13:13.599Z</time>
      </trkpt>
      <trkpt lat="46.46925" lon="8.2435">
        <ele>1325</ele>
        <time>2020-07-16T14:13:14.598Z</time>
      </trkpt>
      <trkpt lat="46.46925" lon="8.24351">
        <ele>1325</ele>
        <time>2020-07-16T14:13:15.598Z</time>
      </trkpt>
      <trkpt lat="46.46925" lon="8.24351">
        <ele>1324</ele>
        <time>2020-07-16T14:13:16.599Z</time>
      </trkpt>
      <trkpt lat="46.46925" lon="8.24352">
        <ele>1324</ele>
        <time>2020-07-16T14:13:17.599Z</time>
      </trkpt>
      <trkpt lat="46.46924" lon="8.24354">
        <ele>1324</ele>
        <time>2020-07-16T14:13:18.599Z</time>
      </trkpt>
      <trkpt lat="46.46923" lon="8.24356">
        <ele>1324</ele>
        <time>2020-07-16T14:13:19.598Z</time>
      </trkpt>
      <trkpt lat="46.46923" lon="8.24357">
        <ele>1324</ele>
        <time>2020-07-16T14:13:20.598Z</time>
      </trkpt>
      <trkpt lat="46.46922" lon="8.24358">
        <ele>1324</ele>
        <time>2020-07-16T14:13:21.598Z</time>
      </trkpt>
      <trkpt lat="46.46921" lon="8.24359">
        <ele>1324</ele>
        <time>2020-07-16T14:13:22.599Z</time>
      </trkpt>
      <trkpt lat="46.4692" lon="8.2436">
        <ele>1324</ele>
        <time>2020-07-16T14:13:23.599Z</time>
      </trkpt>
      <trkpt lat="46.46919" lon="8.24361">
        <ele>1324</ele>
        <time>2020-07-16T14:13:24.599Z</time>
      </trkpt>
      <trkpt lat="46.46918" lon="8.24362">
        <ele>1324</ele>
        <time>2020-07-16T14:13:25.598Z</time>
      </trkpt>
      <trkpt lat="46.46917" lon="8.24363">
        <ele>1324</ele>
        <time>2020-07-16T14:13:26.599Z</time>
      </trkpt>
      <trkpt lat="46.46916" lon="8.24364">
        <ele>1324</ele>
        <time>2020-07-16T14:13:27.598Z</time>
      </trkpt>
      <trkpt lat="46.46914" lon="8.24365">
        <ele>1324</ele>
        <time>2020-07-16T14:13:28.599Z</time>
      </trkpt>
      <trkpt lat="46.46913" lon="8.24366">
        <ele>1323</ele>
        <time>2020-07-16T14:13:29.598Z</time>
      </trkpt>
      <trkpt lat="46.46912" lon="8.24367">
        <ele>1323</ele>
        <time>2020-07-16T14:13:30.599Z</time>
      </trkpt>
      <trkpt lat="46.46911" lon="8.24368">
        <ele>1323</ele>
        <time>2020-07-16T14:13:31.599Z</time>
      </trkpt>
      <trkpt lat="46.4691" lon="8.24368">
        <ele>1323</ele>
        <time>2020-07-16T14:13:32.599Z</time>
      </trkpt>
      <trkpt lat="46.46909" lon="8.24369">
        <ele>1322</ele>
        <time>2020-07-16T14:13:33.599Z</time>
      </trkpt>
      <trkpt lat="46.46909" lon="8.2437">
        <ele>1322</ele>
        <time>2020-07-16T14:13:34.599Z</time>
      </trkpt>
      <trkpt lat="46.46908" lon="8.24371">
        <ele>1322</ele>
        <time>2020-07-16T14:13:35.599Z</time>
      </trkpt>
      <trkpt lat="46.46908" lon="8.24372">
        <ele>1323</ele>
        <time>2020-07-16T14:13:36.598Z</time>
      </trkpt>
      <trkpt lat="46.46907" lon="8.24373">
        <ele>1323</ele>
        <time>2020-07-16T14:13:37.598Z</time>
      </trkpt>
      <trkpt lat="46.46907" lon="8.24374">
        <ele>1324</ele>
        <time>2020-07-16T14:13:38.599Z</time>
      </trkpt>
      <trkpt lat="46.46907" lon="8.24376">
        <ele>1324</ele>
        <time>2020-07-16T14:13:39.598Z</time>
      </trkpt>
      <trkpt lat="46.46907" lon="8.24376">
        <ele>1325</ele>
        <time>2020-07-16T14:13:40.598Z</time>
      </trkpt>
      <trkpt lat="46.46907" lon="8.24377">
        <ele>1326</ele>
        <time>2020-07-16T14:13:41.599Z</time>
      </trkpt>
      <trkpt lat="46.46907" lon="8.24378">
        <ele>1326</ele>
        <time>2020-07-16T14:13:42.599Z</time>
      </trkpt>
      <trkpt lat="46.46907" lon="8.2438">
        <ele>1327</ele>
        <time>2020-07-16T14:13:43.599Z</time>
      </trkpt>
      <trkpt lat="46.46908" lon="8.24381">
        <ele>1327</ele>
        <time>2020-07-16T14:13:44.599Z</time>
      </trkpt>
      <trkpt lat="46.46908" lon="8.24382">
        <ele>1327</ele>
        <time>2020-07-16T14:13:45.599Z</time>
      </trkpt>
      <trkpt lat="46.46908" lon="8.24382">
        <ele>1328</ele>
        <time>2020-07-16T14:13:46.599Z</time>
      </trkpt>
      <trkpt lat="46.46908" lon="8.24383">
        <ele>1328</ele>
        <time>2020-07-16T14:13:47.599Z</time>
      </trkpt>
      <trkpt lat="46.46908" lon="8.24383">
        <ele>1328</ele>
        <time>2020-07-16T14:13:48.599Z</time>
      </trkpt>
      <trkpt lat="46.46891" lon="8.24378">
        <ele>1326</ele>
        <time>2020-07-16T14:15:04.599Z</time>
      </trkpt>
      <trkpt lat="46.4689" lon="8.24381">
        <ele>1324</ele>
        <time>2020-07-16T14:15:05.599Z</time>
      </trkpt>
      <trkpt lat="46.46891" lon="8.24381">
        <ele>1323</ele>
        <time>2020-07-16T14:15:06.599Z</time>
      </trkpt>
      <trkpt lat="46.46891" lon="8.24382">
        <ele>1321</ele>
        <time>2020-07-16T14:15:07.599Z</time>
      </trkpt>
      <trkpt lat="46.46892" lon="8.24384">
        <ele>1320</ele>
        <time>2020-07-16T14:15:08.599Z</time>
      </trkpt>
      <trkpt lat="46.46894" lon="8.24387">
        <ele>1319</ele>
        <time>2020-07-16T14:15:09.599Z</time>
      </trkpt>
      <trkpt lat="46.46896" lon="8.2439">
        <ele>1318</ele>
        <time>2020-07-16T14:15:10.599Z</time>
      </trkpt>
      <trkpt lat="46.46898" lon="8.24392">
        <ele>1317</ele>
        <time>2020-07-16T14:15:11.598Z</time>
      </trkpt>
      <trkpt lat="46.46899" lon="8.24393">
        <ele>1317</ele>
        <time>2020-07-16T14:15:12.599Z</time>
      </trkpt>
      <trkpt lat="46.46899" lon="8.24395">
        <ele>1317</ele>
        <time>2020-07-16T14:15:13.599Z</time>
      </trkpt>
      <trkpt lat="46.46899" lon="8.24397">
        <ele>1317</ele>
        <time>2020-07-16T14:15:14.599Z</time>
      </trkpt>
      <trkpt lat="46.46899" lon="8.24399">
        <ele>1317</ele>
        <time>2020-07-16T14:15:15.598Z</time>
      </trkpt>
      <trkpt lat="46.469" lon="8.244">
        <ele>1317</ele>
        <time>2020-07-16T14:15:16.598Z</time>
      </trkpt>
      <trkpt lat="46.46901" lon="8.24401">
        <ele>1318</ele>
        <time>2020-07-16T14:15:17.599Z</time>
      </trkpt>
      <trkpt lat="46.469" lon="8.24402">
        <ele>1318</ele>
        <time>2020-07-16T14:15:18.598Z</time>
      </trkpt>
      <trkpt lat="46.46899" lon="8.24404">
        <ele>1319</ele>
        <time>2020-07-16T14:15:19.599Z</time>
      </trkpt>
      <trkpt lat="46.46899" lon="8.24405">
        <ele>1319</ele>
        <time>2020-07-16T14:15:20.599Z</time>
      </trkpt>
      <trkpt lat="46.469" lon="8.24406">
        <ele>1319</ele>
        <time>2020-07-16T14:15:21.598Z</time>
      </trkpt>
      <trkpt lat="46.46901" lon="8.24407">
        <ele>1320</ele>
        <time>2020-07-16T14:15:22.599Z</time>
      </trkpt>
      <trkpt lat="46.46902" lon="8.24407">
        <ele>1320</ele>
        <time>2020-07-16T14:15:23.599Z</time>
      </trkpt>
      <trkpt lat="46.46903" lon="8.24407">
        <ele>1321</ele>
        <time>2020-07-16T14:15:24.598Z</time>
      </trkpt>
      <trkpt lat="46.46903" lon="8.24407">
        <ele>1321</ele>
        <time>2020-07-16T14:15:25.599Z</time>
      </trkpt>
      <trkpt lat="46.46904" lon="8.24405">
        <ele>1322</ele>
        <time>2020-07-16T14:15:26.601Z</time>
      </trkpt>
      <trkpt lat="46.46904" lon="8.24405">
        <ele>1322</ele>
        <time>2020-07-16T14:15:27.601Z</time>
      </trkpt>
      <trkpt lat="46.46904" lon="8.24403">
        <ele>1319</ele>
        <time>2020-07-16T14:15:28.601Z</time>
      </trkpt>
      <trkpt lat="46.46905" lon="8.24403">
        <ele>1320</ele>
        <time>2020-07-16T14:15:29.601Z</time>
      </trkpt>
      <trkpt lat="46.46905" lon="8.24403">
        <ele>1320</ele>
        <time>2020-07-16T14:15:30.601Z</time>
      </trkpt>
      <trkpt lat="46.46906" lon="8.24402">
        <ele>1322</ele>
        <time>2020-07-16T14:15:31.603Z</time>
      </trkpt>
      <trkpt lat="46.46906" lon="8.24402">
        <ele>1322</ele>
        <time>2020-07-16T14:15:32.603Z</time>
      </trkpt>
      <trkpt lat="46.46905" lon="8.24402">
        <ele>1322</ele>
        <time>2020-07-16T14:15:33.603Z</time>
      </trkpt>
      <trkpt lat="46.46905" lon="8.24402">
        <ele>1322</ele>
        <time>2020-07-16T14:15:34.603Z</time>
      </trkpt>
      <trkpt lat="46.46905" lon="8.24403">
        <ele>1322</ele>
        <time>2020-07-16T14:15:35.603Z</time>
      </trkpt>
      <trkpt lat="46.46904" lon="8.24404">
        <ele>1320</ele>
        <time>2020-07-16T14:15:36.604Z</time>
      </trkpt>
      <trkpt lat="46.46904" lon="8.24404">
        <ele>1320</ele>
        <time>2020-07-16T14:15:37.604Z</time>
      </trkpt>
      <trkpt lat="46.46904" lon="8.24404">
        <ele>1319</ele>
        <time>2020-07-16T14:15:38.604Z</time>
      </trkpt>
      <trkpt lat="46.46904" lon="8.24404">
        <ele>1319</ele>
        <time>2020-07-16T14:15:39.604Z</time>
      </trkpt>
      <trkpt lat="46.46904" lon="8.24404">
        <ele>1318</ele>
        <time>2020-07-16T14:15:40.604Z</time>
      </trkpt>
      <trkpt lat="46.46905" lon="8.24404">
        <ele>1320</ele>
        <time>2020-07-16T14:15:41.604Z</time>
      </trkpt>
      <trkpt lat="46.46905" lon="8.24404">
        <ele>1321</ele>
        <time>2020-07-16T14:15:42.603Z</time>
      </trkpt>
      <trkpt lat="46.46904" lon="8.24406">
        <ele>1325</ele>
        <time>2020-07-16T14:15:43.605Z</time>
      </trkpt>
      <trkpt lat="46.46904" lon="8.24406">
        <ele>1325</ele>
        <time>2020-07-16T14:15:44.605Z</time>
      </trkpt>
      <trkpt lat="46.46905" lon="8.24406">
        <ele>1325</ele>
        <time>2020-07-16T14:15:45.604Z</time>
      </trkpt>
      <trkpt lat="46.46905" lon="8.24405">
        <ele>1325</ele>
        <time>2020-07-16T14:15:46.605Z</time>
      </trkpt>
      <trkpt lat="46.46905" lon="8.24405">
        <ele>1324</ele>
        <time>2020-07-16T14:15:47.604Z</time>
      </trkpt>
      <trkpt lat="46.46905" lon="8.24406">
        <ele>1323</ele>
        <time>2020-07-16T14:15:48.604Z</time>
      </trkpt>
      <trkpt lat="46.46905" lon="8.24406">
        <ele>1323</ele>
        <time>2020-07-16T14:15:49.605Z</time>
      </trkpt>
      <trkpt lat="46.46905" lon="8.24406">
        <ele>1323</ele>
        <time>2020-07-16T14:15:50.605Z</time>
      </trkpt>
      <trkpt lat="46.46906" lon="8.24398">
        <ele>1320</ele>
        <time>2020-07-16T14:15:51.606Z</time>
      </trkpt>
      <trkpt lat="46.46906" lon="8.24397">
        <ele>1320</ele>
        <time>2020-07-16T14:15:52.605Z</time>
      </trkpt>
      <trkpt lat="46.46906" lon="8.24397">
        <ele>1320</ele>
        <time>2020-07-16T14:15:53.606Z</time>
      </trkpt>
      <trkpt lat="46.46905" lon="8.24398">
        <ele>1319</ele>
        <time>2020-07-16T14:15:54.607Z</time>
      </trkpt>
      <trkpt lat="46.46905" lon="8.24398">
        <ele>1319</ele>
        <time>2020-07-16T14:15:55.607Z</time>
      </trkpt>
      <trkpt lat="46.46906" lon="8.24404">
        <ele>1316</ele>
        <time>2020-07-16T14:15:56.609Z</time>
      </trkpt>
      <trkpt lat="46.46906" lon="8.24404">
        <ele>1316</ele>
        <time>2020-07-16T14:15:57.609Z</time>
      </trkpt>
      <trkpt lat="46.46907" lon="8.24404">
        <ele>1316</ele>
        <time>2020-07-16T14:15:58.610Z</time>
      </trkpt>
      <trkpt lat="46.46907" lon="8.24404">
        <ele>1316</ele>
        <time>2020-07-16T14:15:59.609Z</time>
      </trkpt>
      <trkpt lat="46.46907" lon="8.24404">
        <ele>1316</ele>
        <time>2020-07-16T14:16:00.610Z</time>
      </trkpt>
      <trkpt lat="46.46907" lon="8.24403">
        <ele>1316</ele>
        <time>2020-07-16T14:16:01.610Z</time>
      </trkpt>
      <trkpt lat="46.46907" lon="8.24403">
        <ele>1316</ele>
        <time>2020-07-16T14:16:02.609Z</time>
      </trkpt>
      <trkpt lat="46.46906" lon="8.24402">
        <ele>1316</ele>
        <time>2020-07-16T14:16:03.611Z</time>
      </trkpt>
      <trkpt lat="46.46906" lon="8.24402">
        <ele>1316</ele>
        <time>2020-07-16T14:16:04.610Z</time>
      </trkpt>
      <trkpt lat="46.46905" lon="8.24402">
        <ele>1316</ele>
        <time>2020-07-16T14:16:05.611Z</time>
      </trkpt>
      <trkpt lat="46.46904" lon="8.24403">
        <ele>1316</ele>
        <time>2020-07-16T14:16:06.611Z</time>
      </trkpt>
      <trkpt lat="46.46904" lon="8.24404">
        <ele>1316</ele>
        <time>2020-07-16T14:16:07.611Z</time>
      </trkpt>
      <trkpt lat="46.46902" lon="8.24406">
        <ele>1320</ele>
        <time>2020-07-16T14:16:08.611Z</time>
      </trkpt>
      <trkpt lat="46.46903" lon="8.24404">
        <ele>1320</ele>
        <time>2020-07-16T14:16:09.612Z</time>
      </trkpt>
      <trkpt lat="46.46904" lon="8.24405">
        <ele>1318</ele>
        <time>2020-07-16T14:16:10.611Z</time>
      </trkpt>
      <trkpt lat="46.46904" lon="8.24405">
        <ele>1318</ele>
        <time>2020-07-16T14:16:11.611Z</time>
      </trkpt>
      <trkpt lat="46.46904" lon="8.24405">
        <ele>1318</ele>
        <time>2020-07-16T14:16:12.611Z</time>
      </trkpt>
      <trkpt lat="46.46904" lon="8.24405">
        <ele>1318</ele>
        <time>2020-07-16T14:16:13.611Z</time>
      </trkpt>
      <trkpt lat="46.46905" lon="8.24405">
        <ele>1318</ele>
        <time>2020-07-16T14:16:14.612Z</time>
      </trkpt>
      <trkpt lat="46.46905" lon="8.24405">
        <ele>1318</ele>
        <time>2020-07-16T14:16:15.612Z</time>
      </trkpt>
      <trkpt lat="46.46906" lon="8.24403">
        <ele>1315</ele>
        <time>2020-07-16T14:16:16.611Z</time>
      </trkpt>
      <trkpt lat="46.46907" lon="8.24402">
        <ele>1314</ele>
        <time>2020-07-16T14:16:17.612Z</time>
      </trkpt>
      <trkpt lat="46.46907" lon="8.24401">
        <ele>1314</ele>
        <time>2020-07-16T14:16:18.612Z</time>
      </trkpt>
      <trkpt lat="46.46908" lon="8.244">
        <ele>1313</ele>
        <time>2020-07-16T14:16:19.612Z</time>
      </trkpt>
      <trkpt lat="46.46908" lon="8.24397">
        <ele>1310</ele>
        <time>2020-07-16T14:16:20.613Z</time>
      </trkpt>
      <trkpt lat="46.46908" lon="8.24397">
        <ele>1310</ele>
        <time>2020-07-16T14:16:21.613Z</time>
      </trkpt>
      <trkpt lat="46.46907" lon="8.24397">
        <ele>1310</ele>
        <time>2020-07-16T14:16:22.612Z</time>
      </trkpt>
      <trkpt lat="46.46907" lon="8.24397">
        <ele>1310</ele>
        <time>2020-07-16T14:16:23.612Z</time>
      </trkpt>
      <trkpt lat="46.46905" lon="8.24401">
        <ele>1314</ele>
        <time>2020-07-16T14:16:24.613Z</time>
      </trkpt>
      <trkpt lat="46.46905" lon="8.24402">
        <ele>1313</ele>
        <time>2020-07-16T14:16:25.612Z</time>
      </trkpt>
      <trkpt lat="46.46906" lon="8.24402">
        <ele>1309</ele>
        <time>2020-07-16T14:16:26.613Z</time>
      </trkpt>
      <trkpt lat="46.46907" lon="8.24405">
        <ele>1307</ele>
        <time>2020-07-16T14:16:27.613Z</time>
      </trkpt>
      <trkpt lat="46.46907" lon="8.24406">
        <ele>1307</ele>
        <time>2020-07-16T14:16:28.613Z</time>
      </trkpt>
      <trkpt lat="46.46908" lon="8.24407">
        <ele>1312</ele>
        <time>2020-07-16T14:16:29.614Z</time>
      </trkpt>
      <trkpt lat="46.46908" lon="8.24407">
        <ele>1313</ele>
        <time>2020-07-16T14:16:30.613Z</time>
      </trkpt>
      <trkpt lat="46.46907" lon="8.24407">
        <ele>1315</ele>
        <time>2020-07-16T14:16:31.613Z</time>
      </trkpt>
      <trkpt lat="46.46908" lon="8.24407">
        <ele>1321</ele>
        <time>2020-07-16T14:16:32.614Z</time>
      </trkpt>
      <trkpt lat="46.46908" lon="8.24407">
        <ele>1321</ele>
        <time>2020-07-16T14:16:33.615Z</time>
      </trkpt>
      <trkpt lat="46.46908" lon="8.24408">
        <ele>1320</ele>
        <time>2020-07-16T14:16:34.615Z</time>
      </trkpt>
      <trkpt lat="46.46908" lon="8.24407">
        <ele>1320</ele>
        <time>2020-07-16T14:16:35.615Z</time>
      </trkpt>
      <trkpt lat="46.46908" lon="8.24406">
        <ele>1319</ele>
        <time>2020-07-16T14:16:36.615Z</time>
      </trkpt>
      <trkpt lat="46.46908" lon="8.24404">
        <ele>1318</ele>
        <time>2020-07-16T14:16:37.615Z</time>
      </trkpt>
      <trkpt lat="46.46909" lon="8.24404">
        <ele>1318</ele>
        <time>2020-07-16T14:16:38.615Z</time>
      </trkpt>
      <trkpt lat="46.46909" lon="8.24403">
        <ele>1317</ele>
        <time>2020-07-16T14:16:39.614Z</time>
      </trkpt>
      <trkpt lat="46.46909" lon="8.24404">
        <ele>1317</ele>
        <time>2020-07-16T14:16:40.615Z</time>
      </trkpt>
      <trkpt lat="46.46909" lon="8.24404">
        <ele>1317</ele>
        <time>2020-07-16T14:16:41.614Z</time>
      </trkpt>
      <trkpt lat="46.46909" lon="8.24404">
        <ele>1316</ele>
        <time>2020-07-16T14:16:42.614Z</time>
      </trkpt>
      <trkpt lat="46.46908" lon="8.24404">
        <ele>1319</ele>
        <time>2020-07-16T14:16:43.616Z</time>
      </trkpt>
      <trkpt lat="46.46908" lon="8.24404">
        <ele>1319</ele>
        <time>2020-07-16T14:16:44.615Z</time>
      </trkpt>
      <trkpt lat="46.46908" lon="8.24404">
        <ele>1320</ele>
        <time>2020-07-16T14:16:45.616Z</time>
      </trkpt>
      <trkpt lat="46.46907" lon="8.24405">
        <ele>1320</ele>
        <time>2020-07-16T14:16:46.615Z</time>
      </trkpt>
      <trkpt lat="46.46907" lon="8.24405">
        <ele>1320</ele>
        <time>2020-07-16T14:16:47.616Z</time>
      </trkpt>
      <trkpt lat="46.46905" lon="8.24402">
        <ele>1324</ele>
        <time>2020-07-16T14:16:48.615Z</time>
      </trkpt>
      <trkpt lat="46.46905" lon="8.24403">
        <ele>1324</ele>
        <time>2020-07-16T14:16:49.616Z</time>
      </trkpt>
      <trkpt lat="46.46905" lon="8.24403">
        <ele>1325</ele>
        <time>2020-07-16T14:16:50.616Z</time>
      </trkpt>
      <trkpt lat="46.46905" lon="8.24403">
        <ele>1325</ele>
        <time>2020-07-16T14:16:51.616Z</time>
      </trkpt>
      <trkpt lat="46.46905" lon="8.24403">
        <ele>1326</ele>
        <time>2020-07-16T14:16:52.616Z</time>
      </trkpt>
      <trkpt lat="46.46904" lon="8.24403">
        <ele>1326</ele>
        <time>2020-07-16T14:16:53.616Z</time>
      </trkpt>
      <trkpt lat="46.46904" lon="8.24403">
        <ele>1326</ele>
        <time>2020-07-16T14:16:54.616Z</time>
      </trkpt>
      <trkpt lat="46.46904" lon="8.24403">
        <ele>1326</ele>
        <time>2020-07-16T14:16:55.615Z</time>
      </trkpt>
      <trkpt lat="46.46904" lon="8.24403">
        <ele>1326</ele>
        <time>2020-07-16T14:16:56.616Z</time>
      </trkpt>
      <trkpt lat="46.46904" lon="8.24403">
        <ele>1326</ele>
        <time>2020-07-16T14:16:57.616Z</time>
      </trkpt>
      <trkpt lat="46.46903" lon="8.24405">
        <ele>1326</ele>
        <time>2020-07-16T14:16:58.617Z</time>
      </trkpt>
      <trkpt lat="46.46903" lon="8.24405">
        <ele>1325</ele>
        <time>2020-07-16T14:16:59.616Z</time>
      </trkpt>
      <trkpt lat="46.46903" lon="8.24405">
        <ele>1324</ele>
        <time>2020-07-16T14:17:00.617Z</time>
      </trkpt>
      <trkpt lat="46.46906" lon="8.24408">
        <ele>1318</ele>
        <time>2020-07-16T14:17:01.618Z</time>
      </trkpt>
      <trkpt lat="46.46906" lon="8.24408">
        <ele>1318</ele>
        <time>2020-07-16T14:17:02.617Z</time>
      </trkpt>
      <trkpt lat="46.46906" lon="8.24406">
        <ele>1317</ele>
        <time>2020-07-16T14:17:03.619Z</time>
      </trkpt>
      <trkpt lat="46.46905" lon="8.24406">
        <ele>1317</ele>
        <time>2020-07-16T14:17:04.618Z</time>
      </trkpt>
      <trkpt lat="46.46905" lon="8.24406">
        <ele>1317</ele>
        <time>2020-07-16T14:17:05.618Z</time>
      </trkpt>
      <trkpt lat="46.46905" lon="8.24404">
        <ele>1317</ele>
        <time>2020-07-16T14:17:06.619Z</time>
      </trkpt>
      <trkpt lat="46.46906" lon="8.24404">
        <ele>1319</ele>
        <time>2020-07-16T14:17:07.619Z</time>
      </trkpt>
      <trkpt lat="46.46907" lon="8.24403">
        <ele>1318</ele>
        <time>2020-07-16T14:17:08.620Z</time>
      </trkpt>
      <trkpt lat="46.46907" lon="8.24403">
        <ele>1318</ele>
        <time>2020-07-16T14:17:09.620Z</time>
      </trkpt>
      <trkpt lat="46.46907" lon="8.24401">
        <ele>1320</ele>
        <time>2020-07-16T14:17:10.619Z</time>
      </trkpt>
      <trkpt lat="46.46907" lon="8.244">
        <ele>1318</ele>
        <time>2020-07-16T14:17:11.620Z</time>
      </trkpt>
      <trkpt lat="46.46907" lon="8.244">
        <ele>1318</ele>
        <time>2020-07-16T14:17:12.620Z</time>
      </trkpt>
      <trkpt lat="46.46907" lon="8.244">
        <ele>1318</ele>
        <time>2020-07-16T14:17:13.620Z</time>
      </trkpt>
      <trkpt lat="46.46908" lon="8.244">
        <ele>1318</ele>
        <time>2020-07-16T14:17:14.619Z</time>
      </trkpt>
      <trkpt lat="46.46907" lon="8.244">
        <ele>1318</ele>
        <time>2020-07-16T14:17:15.620Z</time>
      </trkpt>
      <trkpt lat="46.46907" lon="8.244">
        <ele>1318</ele>
        <time>2020-07-16T14:17:16.620Z</time>
      </trkpt>
      <trkpt lat="46.46905" lon="8.244">
        <ele>1321</ele>
        <time>2020-07-16T14:17:17.620Z</time>
      </trkpt>
      <trkpt lat="46.46905" lon="8.244">
        <ele>1321</ele>
        <time>2020-07-16T14:17:18.621Z</time>
      </trkpt>
      <trkpt lat="46.46905" lon="8.24398">
        <ele>1324</ele>
        <time>2020-07-16T14:17:19.621Z</time>
      </trkpt>
      <trkpt lat="46.46906" lon="8.24397">
        <ele>1323</ele>
        <time>2020-07-16T14:17:20.622Z</time>
      </trkpt>
      <trkpt lat="46.46906" lon="8.24397">
        <ele>1323</ele>
        <time>2020-07-16T14:17:21.621Z</time>
      </trkpt>
      <trkpt lat="46.46906" lon="8.24397">
        <ele>1322</ele>
        <time>2020-07-16T14:17:22.621Z</time>
      </trkpt>
      <trkpt lat="46.46906" lon="8.24398">
        <ele>1322</ele>
        <time>2020-07-16T14:17:23.622Z</time>
      </trkpt>
      <trkpt lat="46.46905" lon="8.24399">
        <ele>1326</ele>
        <time>2020-07-16T14:17:24.623Z</time>
      </trkpt>
      <trkpt lat="46.46905" lon="8.24399">
        <ele>1326</ele>
        <time>2020-07-16T14:17:25.623Z</time>
      </trkpt>
      <trkpt lat="46.46905" lon="8.24399">
        <ele>1327</ele>
        <time>2020-07-16T14:17:26.622Z</time>
      </trkpt>
      <trkpt lat="46.46905" lon="8.244">
        <ele>1327</ele>
        <time>2020-07-16T14:17:27.623Z</time>
      </trkpt>
      <trkpt lat="46.46906" lon="8.24401">
        <ele>1318</ele>
        <time>2020-07-16T14:17:28.624Z</time>
      </trkpt>
      <trkpt lat="46.46907" lon="8.24401">
        <ele>1318</ele>
        <time>2020-07-16T14:17:29.624Z</time>
      </trkpt>
      <trkpt lat="46.46906" lon="8.24401">
        <ele>1317</ele>
        <time>2020-07-16T14:17:30.624Z</time>
      </trkpt>
      <trkpt lat="46.46906" lon="8.24401">
        <ele>1317</ele>
        <time>2020-07-16T14:17:31.624Z</time>
      </trkpt>
      <trkpt lat="46.46906" lon="8.24401">
        <ele>1318</ele>
        <time>2020-07-16T14:17:32.623Z</time>
      </trkpt>
      <trkpt lat="46.46906" lon="8.24401">
        <ele>1318</ele>
        <time>2020-07-16T14:17:33.624Z</time>
      </trkpt>
      <trkpt lat="46.46904" lon="8.24403">
        <ele>1318</ele>
        <time>2020-07-16T14:17:34.623Z</time>
      </trkpt>
      <trkpt lat="46.46904" lon="8.24404">
        <ele>1318</ele>
        <time>2020-07-16T14:17:35.624Z</time>
      </trkpt>
      <trkpt lat="46.46904" lon="8.24405">
        <ele>1317</ele>
        <time>2020-07-16T14:17:36.624Z</time>
      </trkpt>
      <trkpt lat="46.46905" lon="8.24409">
        <ele>1316</ele>
        <time>2020-07-16T14:17:37.624Z</time>
      </trkpt>
      <trkpt lat="46.46905" lon="8.2441">
        <ele>1315</ele>
        <time>2020-07-16T14:17:38.624Z</time>
      </trkpt>
      <trkpt lat="46.46905" lon="8.24408">
        <ele>1314</ele>
        <time>2020-07-16T14:17:39.623Z</time>
      </trkpt>
      <trkpt lat="46.46905" lon="8.24408">
        <ele>1314</ele>
        <time>2020-07-16T14:17:40.624Z</time>
      </trkpt>
      <trkpt lat="46.46905" lon="8.24407">
        <ele>1314</ele>
        <time>2020-07-16T14:17:41.624Z</time>
      </trkpt>
      <trkpt lat="46.46905" lon="8.24407">
        <ele>1314</ele>
        <time>2020-07-16T14:17:42.624Z</time>
      </trkpt>
      <trkpt lat="46.46905" lon="8.24407">
        <ele>1314</ele>
        <time>2020-07-16T14:17:43.624Z</time>
      </trkpt>
      <trkpt lat="46.46906" lon="8.24405">
        <ele>1314</ele>
        <time>2020-07-16T14:17:44.624Z</time>
      </trkpt>
      <trkpt lat="46.46906" lon="8.24405">
        <ele>1314</ele>
        <time>2020-07-16T14:17:45.624Z</time>
      </trkpt>
      <trkpt lat="46.46905" lon="8.24405">
        <ele>1314</ele>
        <time>2020-07-16T14:17:46.624Z</time>
      </trkpt>
      <trkpt lat="46.46905" lon="8.24405">
        <ele>1314</ele>
        <time>2020-07-16T14:17:47.624Z</time>
      </trkpt>
      <trkpt lat="46.46904" lon="8.24405">
        <ele>1314</ele>
        <time>2020-07-16T14:17:48.624Z</time>
      </trkpt>
      <trkpt lat="46.46904" lon="8.24405">
        <ele>1314</ele>
        <time>2020-07-16T14:17:49.624Z</time>
      </trkpt>
      <trkpt lat="46.46905" lon="8.24406">
        <ele>1314</ele>
        <time>2020-07-16T14:17:50.623Z</time>
      </trkpt>
      <trkpt lat="46.46905" lon="8.24407">
        <ele>1314</ele>
        <time>2020-07-16T14:17:51.623Z</time>
      </trkpt>
      <trkpt lat="46.46905" lon="8.24407">
        <ele>1313</ele>
        <time>2020-07-16T14:17:52.624Z</time>
      </trkpt>
      <trkpt lat="46.46904" lon="8.24408">
        <ele>1312</ele>
        <time>2020-07-16T14:17:53.624Z</time>
      </trkpt>
      <trkpt lat="46.46905" lon="8.24405">
        <ele>1312</ele>
        <time>2020-07-16T14:17:54.623Z</time>
      </trkpt>
      <trkpt lat="46.46905" lon="8.24406">
        <ele>1313</ele>
        <time>2020-07-16T14:17:55.624Z</time>
      </trkpt>
      <trkpt lat="46.46904" lon="8.24408">
        <ele>1314</ele>
        <time>2020-07-16T14:17:56.625Z</time>
      </trkpt>
      <trkpt lat="46.46903" lon="8.24409">
        <ele>1314</ele>
        <time>2020-07-16T14:17:57.625Z</time>
      </trkpt>
      <trkpt lat="46.46904" lon="8.24405">
        <ele>1315</ele>
        <time>2020-07-16T14:17:58.626Z</time>
      </trkpt>
      <trkpt lat="46.46903" lon="8.24404">
        <ele>1315</ele>
        <time>2020-07-16T14:17:59.625Z</time>
      </trkpt>
      <trkpt lat="46.46903" lon="8.24404">
        <ele>1315</ele>
        <time>2020-07-16T14:18:00.626Z</time>
      </trkpt>
      <trkpt lat="46.46902" lon="8.24403">
        <ele>1316</ele>
        <time>2020-07-16T14:18:01.625Z</time>
      </trkpt>
      <trkpt lat="46.46902" lon="8.24403">
        <ele>1316</ele>
        <time>2020-07-16T14:18:02.625Z</time>
      </trkpt>
      <trkpt lat="46.46903" lon="8.24402">
        <ele>1316</ele>
        <time>2020-07-16T14:18:03.626Z</time>
      </trkpt>
      <trkpt lat="46.46903" lon="8.24402">
        <ele>1316</ele>
        <time>2020-07-16T14:18:04.625Z</time>
      </trkpt>
      <trkpt lat="46.46904" lon="8.24401">
        <ele>1317</ele>
        <time>2020-07-16T14:18:05.626Z</time>
      </trkpt>
      <trkpt lat="46.46903" lon="8.244">
        <ele>1317</ele>
        <time>2020-07-16T14:18:06.625Z</time>
      </trkpt>
      <trkpt lat="46.46903" lon="8.244">
        <ele>1317</ele>
        <time>2020-07-16T14:18:07.626Z</time>
      </trkpt>
      <trkpt lat="46.46902" lon="8.24399">
        <ele>1317</ele>
        <time>2020-07-16T14:18:08.626Z</time>
      </trkpt>
      <trkpt lat="46.46902" lon="8.24399">
        <ele>1318</ele>
        <time>2020-07-16T14:18:09.625Z</time>
      </trkpt>
      <trkpt lat="46.469" lon="8.24399">
        <ele>1318</ele>
        <time>2020-07-16T14:18:10.625Z</time>
      </trkpt>
      <trkpt lat="46.46899" lon="8.24399">
        <ele>1318</ele>
        <time>2020-07-16T14:18:11.626Z</time>
      </trkpt>
      <trkpt lat="46.46899" lon="8.24399">
        <ele>1318</ele>
        <time>2020-07-16T14:18:12.625Z</time>
      </trkpt>
      <trkpt lat="46.469" lon="8.244">
        <ele>1318</ele>
        <time>2020-07-16T14:18:13.626Z</time>
      </trkpt>
      <trkpt lat="46.469" lon="8.244">
        <ele>1319</ele>
        <time>2020-07-16T14:18:14.626Z</time>
      </trkpt>
      <trkpt lat="46.46899" lon="8.24401">
        <ele>1319</ele>
        <time>2020-07-16T14:18:15.626Z</time>
      </trkpt>
      <trkpt lat="46.469" lon="8.244">
        <ele>1319</ele>
        <time>2020-07-16T14:18:16.627Z</time>
      </trkpt>
      <trkpt lat="46.469" lon="8.24398">
        <ele>1319</ele>
        <time>2020-07-16T14:18:17.628Z</time>
      </trkpt>
      <trkpt lat="46.46901" lon="8.24401">
        <ele>1319</ele>
        <time>2020-07-16T14:18:18.627Z</time>
      </trkpt>
      <trkpt lat="46.46901" lon="8.244">
        <ele>1319</ele>
        <time>2020-07-16T14:18:19.627Z</time>
      </trkpt>
      <trkpt lat="46.46902" lon="8.24399">
        <ele>1319</ele>
        <time>2020-07-16T14:18:20.627Z</time>
      </trkpt>
      <trkpt lat="46.46903" lon="8.24398">
        <ele>1319</ele>
        <time>2020-07-16T14:18:21.627Z</time>
      </trkpt>
      <trkpt lat="46.46903" lon="8.24398">
        <ele>1319</ele>
        <time>2020-07-16T14:18:22.627Z</time>
      </trkpt>
      <trkpt lat="46.46903" lon="8.24398">
        <ele>1319</ele>
        <time>2020-07-16T14:18:23.628Z</time>
      </trkpt>
      <trkpt lat="46.46903" lon="8.244">
        <ele>1320</ele>
        <time>2020-07-16T14:18:24.628Z</time>
      </trkpt>
      <trkpt lat="46.46902" lon="8.244">
        <ele>1322</ele>
        <time>2020-07-16T14:18:25.629Z</time>
      </trkpt>
      <trkpt lat="46.46902" lon="8.244">
        <ele>1323</ele>
        <time>2020-07-16T14:18:26.628Z</time>
      </trkpt>
      <trkpt lat="46.46902" lon="8.244">
        <ele>1323</ele>
        <time>2020-07-16T14:18:27.629Z</time>
      </trkpt>
      <trkpt lat="46.46901" lon="8.244">
        <ele>1324</ele>
        <time>2020-07-16T14:18:28.629Z</time>
      </trkpt>
      <trkpt lat="46.46902" lon="8.24402">
        <ele>1319</ele>
        <time>2020-07-16T14:18:29.629Z</time>
      </trkpt>
      <trkpt lat="46.46903" lon="8.24401">
        <ele>1319</ele>
        <time>2020-07-16T14:18:30.629Z</time>
      </trkpt>
      <trkpt lat="46.46904" lon="8.24401">
        <ele>1323</ele>
        <time>2020-07-16T14:18:31.630Z</time>
      </trkpt>
      <trkpt lat="46.46905" lon="8.24402">
        <ele>1319</ele>
        <time>2020-07-16T14:18:32.632Z</time>
      </trkpt>
      <trkpt lat="46.46905" lon="8.24402">
        <ele>1319</ele>
        <time>2020-07-16T14:18:33.631Z</time>
      </trkpt>
      <trkpt lat="46.46906" lon="8.24399">
        <ele>1320</ele>
        <time>2020-07-16T14:18:34.631Z</time>
      </trkpt>
      <trkpt lat="46.46906" lon="8.24399">
        <ele>1320</ele>
        <time>2020-07-16T14:18:35.632Z</time>
      </trkpt>
      <trkpt lat="46.46906" lon="8.24399">
        <ele>1321</ele>
        <time>2020-07-16T14:18:36.631Z</time>
      </trkpt>
      <trkpt lat="46.46905" lon="8.24398">
        <ele>1321</ele>
        <time>2020-07-16T14:18:37.631Z</time>
      </trkpt>
      <trkpt lat="46.46904" lon="8.24401">
        <ele>1322</ele>
        <time>2020-07-16T14:18:38.634Z</time>
      </trkpt>
      <trkpt lat="46.46904" lon="8.24403">
        <ele>1322</ele>
        <time>2020-07-16T14:18:39.633Z</time>
      </trkpt>
      <trkpt lat="46.46903" lon="8.24404">
        <ele>1322</ele>
        <time>2020-07-16T14:18:40.634Z</time>
      </trkpt>
      <trkpt lat="46.46903" lon="8.24404">
        <ele>1322</ele>
        <time>2020-07-16T14:18:41.634Z</time>
      </trkpt>
      <trkpt lat="46.46902" lon="8.24405">
        <ele>1322</ele>
        <time>2020-07-16T14:18:42.634Z</time>
      </trkpt>
      <trkpt lat="46.46903" lon="8.24408">
        <ele>1320</ele>
        <time>2020-07-16T14:18:43.635Z</time>
      </trkpt>
      <trkpt lat="46.46902" lon="8.24408">
        <ele>1320</ele>
        <time>2020-07-16T14:18:44.635Z</time>
      </trkpt>
      <trkpt lat="46.46902" lon="8.24408">
        <ele>1320</ele>
        <time>2020-07-16T14:18:45.635Z</time>
      </trkpt>
      <trkpt lat="46.46901" lon="8.24405">
        <ele>1320</ele>
        <time>2020-07-16T14:18:46.634Z</time>
      </trkpt>
      <trkpt lat="46.46901" lon="8.24405">
        <ele>1321</ele>
        <time>2020-07-16T14:18:47.635Z</time>
      </trkpt>
      <trkpt lat="46.46901" lon="8.24406">
        <ele>1321</ele>
        <time>2020-07-16T14:18:48.634Z</time>
      </trkpt>
      <trkpt lat="46.469" lon="8.24406">
        <ele>1321</ele>
        <time>2020-07-16T14:18:49.635Z</time>
      </trkpt>
      <trkpt lat="46.469" lon="8.24406">
        <ele>1321</ele>
        <time>2020-07-16T14:18:50.635Z</time>
      </trkpt>
      <trkpt lat="46.46899" lon="8.24406">
        <ele>1321</ele>
        <time>2020-07-16T14:18:51.634Z</time>
      </trkpt>
      <trkpt lat="46.469" lon="8.24406">
        <ele>1321</ele>
        <time>2020-07-16T14:18:52.635Z</time>
      </trkpt>
      <trkpt lat="46.469" lon="8.24406">
        <ele>1321</ele>
        <time>2020-07-16T14:18:53.634Z</time>
      </trkpt>
      <trkpt lat="46.46901" lon="8.24406">
        <ele>1321</ele>
        <time>2020-07-16T14:18:54.635Z</time>
      </trkpt>
      <trkpt lat="46.46901" lon="8.24406">
        <ele>1321</ele>
        <time>2020-07-16T14:18:55.634Z</time>
      </trkpt>
      <trkpt lat="46.46901" lon="8.244">
        <ele>1321</ele>
        <time>2020-07-16T14:18:56.635Z</time>
      </trkpt>
      <trkpt lat="46.469" lon="8.24401">
        <ele>1321</ele>
        <time>2020-07-16T14:18:57.634Z</time>
      </trkpt>
      <trkpt lat="46.46901" lon="8.24403">
        <ele>1321</ele>
        <time>2020-07-16T14:18:58.635Z</time>
      </trkpt>
      <trkpt lat="46.46901" lon="8.24403">
        <ele>1321</ele>
        <time>2020-07-16T14:18:59.635Z</time>
      </trkpt>
      <trkpt lat="46.46904" lon="8.24401">
        <ele>1318</ele>
        <time>2020-07-16T14:19:00.635Z</time>
      </trkpt>
      <trkpt lat="46.46904" lon="8.24402">
        <ele>1318</ele>
        <time>2020-07-16T14:19:01.635Z</time>
      </trkpt>
      <trkpt lat="46.46901" lon="8.24399">
        <ele>1317</ele>
        <time>2020-07-16T14:19:02.636Z</time>
      </trkpt>
      <trkpt lat="46.46901" lon="8.24399">
        <ele>1317</ele>
        <time>2020-07-16T14:19:03.636Z</time>
      </trkpt>
      <trkpt lat="46.46901" lon="8.24398">
        <ele>1317</ele>
        <time>2020-07-16T14:19:04.637Z</time>
      </trkpt>
      <trkpt lat="46.46901" lon="8.24398">
        <ele>1317</ele>
        <time>2020-07-16T14:19:05.637Z</time>
      </trkpt>
      <trkpt lat="46.469" lon="8.24398">
        <ele>1317</ele>
        <time>2020-07-16T14:19:06.637Z</time>
      </trkpt>
      <trkpt lat="46.469" lon="8.24398">
        <ele>1317</ele>
        <time>2020-07-16T14:19:07.636Z</time>
      </trkpt>
      <trkpt lat="46.46899" lon="8.24399">
        <ele>1317</ele>
        <time>2020-07-16T14:19:08.637Z</time>
      </trkpt>
      <trkpt lat="46.46899" lon="8.24399">
        <ele>1318</ele>
        <time>2020-07-16T14:19:09.637Z</time>
      </trkpt>
      <trkpt lat="46.46899" lon="8.24398">
        <ele>1318</ele>
        <time>2020-07-16T14:19:10.637Z</time>
      </trkpt>
      <trkpt lat="46.469" lon="8.24397">
        <ele>1318</ele>
        <time>2020-07-16T14:19:11.637Z</time>
      </trkpt>
      <trkpt lat="46.469" lon="8.24396">
        <ele>1319</ele>
        <time>2020-07-16T14:19:12.637Z</time>
      </trkpt>
      <trkpt lat="46.46899" lon="8.24396">
        <ele>1319</ele>
        <time>2020-07-16T14:19:13.637Z</time>
      </trkpt>
      <trkpt lat="46.46898" lon="8.24396">
        <ele>1319</ele>
        <time>2020-07-16T14:19:14.636Z</time>
      </trkpt>
      <trkpt lat="46.46899" lon="8.24395">
        <ele>1319</ele>
        <time>2020-07-16T14:19:15.637Z</time>
      </trkpt>
      <trkpt lat="46.46899" lon="8.24395">
        <ele>1320</ele>
        <time>2020-07-16T14:19:16.636Z</time>
      </trkpt>
      <trkpt lat="46.46899" lon="8.24395">
        <ele>1320</ele>
        <time>2020-07-16T14:19:17.637Z</time>
      </trkpt>
      <trkpt lat="46.46899" lon="8.24396">
        <ele>1320</ele>
        <time>2020-07-16T14:19:18.636Z</time>
      </trkpt>
      <trkpt lat="46.46899" lon="8.24396">
        <ele>1320</ele>
        <time>2020-07-16T14:19:19.637Z</time>
      </trkpt>
      <trkpt lat="46.46899" lon="8.24397">
        <ele>1320</ele>
        <time>2020-07-16T14:19:20.637Z</time>
      </trkpt>
      <trkpt lat="46.469" lon="8.24398">
        <ele>1320</ele>
        <time>2020-07-16T14:19:21.636Z</time>
      </trkpt>
      <trkpt lat="46.469" lon="8.24398">
        <ele>1321</ele>
        <time>2020-07-16T14:19:22.637Z</time>
      </trkpt>
      <trkpt lat="46.469" lon="8.24399">
        <ele>1321</ele>
        <time>2020-07-16T14:19:23.637Z</time>
      </trkpt>
      <trkpt lat="46.469" lon="8.24399">
        <ele>1321</ele>
        <time>2020-07-16T14:19:24.636Z</time>
      </trkpt>
      <trkpt lat="46.469" lon="8.24399">
        <ele>1321</ele>
        <time>2020-07-16T14:19:25.636Z</time>
      </trkpt>
      <trkpt lat="46.469" lon="8.24399">
        <ele>1321</ele>
        <time>2020-07-16T14:19:26.637Z</time>
      </trkpt>
      <trkpt lat="46.469" lon="8.244">
        <ele>1321</ele>
        <time>2020-07-16T14:19:27.637Z</time>
      </trkpt>
      <trkpt lat="46.469" lon="8.244">
        <ele>1321</ele>
        <time>2020-07-16T14:19:28.637Z</time>
      </trkpt>
      <trkpt lat="46.469" lon="8.244">
        <ele>1321</ele>
        <time>2020-07-16T14:19:29.636Z</time>
      </trkpt>
      <trkpt lat="46.46901" lon="8.244">
        <ele>1321</ele>
        <time>2020-07-16T14:19:30.636Z</time>
      </trkpt>
      <trkpt lat="46.46901" lon="8.24401">
        <ele>1321</ele>
        <time>2020-07-16T14:19:31.636Z</time>
      </trkpt>
      <trkpt lat="46.46902" lon="8.24401">
        <ele>1320</ele>
        <time>2020-07-16T14:19:32.636Z</time>
      </trkpt>
      <trkpt lat="46.46902" lon="8.24401">
        <ele>1320</ele>
        <time>2020-07-16T14:19:33.637Z</time>
      </trkpt>
      <trkpt lat="46.46903" lon="8.24401">
        <ele>1320</ele>
        <time>2020-07-16T14:19:34.637Z</time>
      </trkpt>
      <trkpt lat="46.46906" lon="8.24399">
        <ele>1322</ele>
        <time>2020-07-16T14:19:35.638Z</time>
      </trkpt>
      <trkpt lat="46.46906" lon="8.244">
        <ele>1322</ele>
        <time>2020-07-16T14:19:36.637Z</time>
      </trkpt>
      <trkpt lat="46.46906" lon="8.244">
        <ele>1319</ele>
        <time>2020-07-16T14:19:37.637Z</time>
      </trkpt>
      <trkpt lat="46.46905" lon="8.244">
        <ele>1320</ele>
        <time>2020-07-16T14:19:38.638Z</time>
      </trkpt>
      <trkpt lat="46.46905" lon="8.24401">
        <ele>1322</ele>
        <time>2020-07-16T14:19:39.638Z</time>
      </trkpt>
      <trkpt lat="46.46905" lon="8.24401">
        <ele>1322</ele>
        <time>2020-07-16T14:19:40.638Z</time>
      </trkpt>
      <trkpt lat="46.46904" lon="8.24402">
        <ele>1323</ele>
        <time>2020-07-16T14:19:41.638Z</time>
      </trkpt>
      <trkpt lat="46.46904" lon="8.24402">
        <ele>1323</ele>
        <time>2020-07-16T14:19:42.639Z</time>
      </trkpt>
      <trkpt lat="46.46904" lon="8.24403">
        <ele>1323</ele>
        <time>2020-07-16T14:19:43.639Z</time>
      </trkpt>
      <trkpt lat="46.46904" lon="8.24404">
        <ele>1323</ele>
        <time>2020-07-16T14:19:44.638Z</time>
      </trkpt>
      <trkpt lat="46.46904" lon="8.24405">
        <ele>1323</ele>
        <time>2020-07-16T14:19:45.639Z</time>
      </trkpt>
      <trkpt lat="46.46903" lon="8.24404">
        <ele>1323</ele>
        <time>2020-07-16T14:19:46.639Z</time>
      </trkpt>
      <trkpt lat="46.46903" lon="8.24404">
        <ele>1323</ele>
        <time>2020-07-16T14:19:47.639Z</time>
      </trkpt>
      <trkpt lat="46.46904" lon="8.24404">
        <ele>1324</ele>
        <time>2020-07-16T14:19:48.638Z</time>
      </trkpt>
      <trkpt lat="46.46904" lon="8.24404">
        <ele>1323</ele>
        <time>2020-07-16T14:19:49.639Z</time>
      </trkpt>
      <trkpt lat="46.46905" lon="8.24404">
        <ele>1323</ele>
        <time>2020-07-16T14:19:50.638Z</time>
      </trkpt>
      <trkpt lat="46.46907" lon="8.24402">
        <ele>1323</ele>
        <time>2020-07-16T14:19:51.639Z</time>
      </trkpt>
      <trkpt lat="46.46904" lon="8.24407">
        <ele>1325</ele>
        <time>2020-07-16T14:19:52.640Z</time>
      </trkpt>
      <trkpt lat="46.46904" lon="8.24408">
        <ele>1326</ele>
        <time>2020-07-16T14:19:53.640Z</time>
      </trkpt>
      <trkpt lat="46.46904" lon="8.24408">
        <ele>1326</ele>
        <time>2020-07-16T14:19:54.640Z</time>
      </trkpt>
      <trkpt lat="46.46905" lon="8.24402">
        <ele>1324</ele>
        <time>2020-07-16T14:19:55.640Z</time>
      </trkpt>
      <trkpt lat="46.46904" lon="8.24404">
        <ele>1325</ele>
        <time>2020-07-16T14:19:56.640Z</time>
      </trkpt>
      <trkpt lat="46.46903" lon="8.24405">
        <ele>1326</ele>
        <time>2020-07-16T14:19:57.640Z</time>
      </trkpt>
      <trkpt lat="46.46903" lon="8.24405">
        <ele>1326</ele>
        <time>2020-07-16T14:19:58.640Z</time>
      </trkpt>
      <trkpt lat="46.46903" lon="8.24405">
        <ele>1326</ele>
        <time>2020-07-16T14:19:59.641Z</time>
      </trkpt>
      <trkpt lat="46.46903" lon="8.24405">
        <ele>1326</ele>
        <time>2020-07-16T14:20:00.641Z</time>
      </trkpt>
      <trkpt lat="46.46903" lon="8.24405">
        <ele>1327</ele>
        <time>2020-07-16T14:20:01.641Z</time>
      </trkpt>
      <trkpt lat="46.46904" lon="8.24403">
        <ele>1327</ele>
        <time>2020-07-16T14:20:02.642Z</time>
      </trkpt>
      <trkpt lat="46.46904" lon="8.24404">
        <ele>1327</ele>
        <time>2020-07-16T14:20:03.641Z</time>
      </trkpt>
      <trkpt lat="46.46902" lon="8.24404">
        <ele>1325</ele>
        <time>2020-07-16T14:20:04.643Z</time>
      </trkpt>
      <trkpt lat="46.46902" lon="8.24404">
        <ele>1325</ele>
        <time>2020-07-16T14:20:05.644Z</time>
      </trkpt>
      <trkpt lat="46.46902" lon="8.24404">
        <ele>1325</ele>
        <time>2020-07-16T14:20:06.643Z</time>
      </trkpt>
      <trkpt lat="46.46901" lon="8.24404">
        <ele>1324</ele>
        <time>2020-07-16T14:20:07.644Z</time>
      </trkpt>
      <trkpt lat="46.46901" lon="8.24405">
        <ele>1322</ele>
        <time>2020-07-16T14:20:08.645Z</time>
      </trkpt>
      <trkpt lat="46.46901" lon="8.24404">
        <ele>1322</ele>
        <time>2020-07-16T14:20:09.644Z</time>
      </trkpt>
      <trkpt lat="46.46901" lon="8.24404">
        <ele>1321</ele>
        <time>2020-07-16T14:20:10.644Z</time>
      </trkpt>
      <trkpt lat="46.46902" lon="8.24401">
        <ele>1313</ele>
        <time>2020-07-16T14:20:11.645Z</time>
      </trkpt>
      <trkpt lat="46.46903" lon="8.24398">
        <ele>1319</ele>
        <time>2020-07-16T14:20:12.646Z</time>
      </trkpt>
      <trkpt lat="46.46904" lon="8.24399">
        <ele>1320</ele>
        <time>2020-07-16T14:20:13.646Z</time>
      </trkpt>
      <trkpt lat="46.46904" lon="8.24399">
        <ele>1320</ele>
        <time>2020-07-16T14:20:14.645Z</time>
      </trkpt>
      <trkpt lat="46.46903" lon="8.244">
        <ele>1323</ele>
        <time>2020-07-16T14:20:15.646Z</time>
      </trkpt>
      <trkpt lat="46.46903" lon="8.244">
        <ele>1324</ele>
        <time>2020-07-16T14:20:16.646Z</time>
      </trkpt>
      <trkpt lat="46.46903" lon="8.244">
        <ele>1324</ele>
        <time>2020-07-16T14:20:17.522Z</time>
      </trkpt>
      <trkpt lat="46.46902" lon="8.24401">
        <ele>1324</ele>
        <time>2020-07-16T14:20:18.522Z</time>
      </trkpt>
      <trkpt lat="46.46901" lon="8.244">
        <ele>1323</ele>
        <time>2020-07-16T14:20:19.522Z</time>
      </trkpt>
      <trkpt lat="46.469" lon="8.244">
        <ele>1323</ele>
        <time>2020-07-16T14:20:20.522Z</time>
      </trkpt>
      <trkpt lat="46.46899" lon="8.24401">
        <ele>1324</ele>
        <time>2020-07-16T14:20:21.522Z</time>
      </trkpt>
      <trkpt lat="46.46899" lon="8.24401">
        <ele>1324</ele>
        <time>2020-07-16T14:20:22.522Z</time>
      </trkpt>
      <trkpt lat="46.46898" lon="8.24402">
        <ele>1326</ele>
        <time>2020-07-16T14:20:23.523Z</time>
      </trkpt>
      <trkpt lat="46.46898" lon="8.24402">
        <ele>1326</ele>
        <time>2020-07-16T14:20:24.523Z</time>
      </trkpt>
      <trkpt lat="46.46901" lon="8.24403">
        <ele>1324</ele>
        <time>2020-07-16T14:20:25.522Z</time>
      </trkpt>
      <trkpt lat="46.46901" lon="8.24404">
        <ele>1322</ele>
        <time>2020-07-16T14:20:26.522Z</time>
      </trkpt>
      <trkpt lat="46.46901" lon="8.24404">
        <ele>1322</ele>
        <time>2020-07-16T14:20:27.522Z</time>
      </trkpt>
      <trkpt lat="46.46899" lon="8.24404">
        <ele>1317</ele>
        <time>2020-07-16T14:20:28.522Z</time>
      </trkpt>
      <trkpt lat="46.46899" lon="8.24405">
        <ele>1317</ele>
        <time>2020-07-16T14:20:29.522Z</time>
      </trkpt>
      <trkpt lat="46.469" lon="8.24405">
        <ele>1317</ele>
        <time>2020-07-16T14:20:30.522Z</time>
      </trkpt>
      <trkpt lat="46.46899" lon="8.24403">
        <ele>1317</ele>
        <time>2020-07-16T14:20:31.522Z</time>
      </trkpt>
      <trkpt lat="46.469" lon="8.24403">
        <ele>1318</ele>
        <time>2020-07-16T14:20:32.523Z</time>
      </trkpt>
      <trkpt lat="46.46903" lon="8.24402">
        <ele>1319</ele>
        <time>2020-07-16T14:20:33.524Z</time>
      </trkpt>
      <trkpt lat="46.46901" lon="8.24402">
        <ele>1321</ele>
        <time>2020-07-16T14:20:34.525Z</time>
      </trkpt>
      <trkpt lat="46.46901" lon="8.24403">
        <ele>1321</ele>
        <time>2020-07-16T14:20:35.525Z</time>
      </trkpt>
      <trkpt lat="46.46902" lon="8.24403">
        <ele>1322</ele>
        <time>2020-07-16T14:20:36.524Z</time>
      </trkpt>
      <trkpt lat="46.46903" lon="8.24405">
        <ele>1324</ele>
        <time>2020-07-16T14:20:37.526Z</time>
      </trkpt>
      <trkpt lat="46.46902" lon="8.24405">
        <ele>1324</ele>
        <time>2020-07-16T14:20:38.525Z</time>
      </trkpt>
      <trkpt lat="46.46902" lon="8.24405">
        <ele>1325</ele>
        <time>2020-07-16T14:20:39.525Z</time>
      </trkpt>
      <trkpt lat="46.46902" lon="8.24405">
        <ele>1325</ele>
        <time>2020-07-16T14:20:40.525Z</time>
      </trkpt>
      <trkpt lat="46.469" lon="8.24407">
        <ele>1328</ele>
        <time>2020-07-16T14:20:41.527Z</time>
      </trkpt>
      <trkpt lat="46.46901" lon="8.24407">
        <ele>1328</ele>
        <time>2020-07-16T14:20:42.526Z</time>
      </trkpt>
      <trkpt lat="46.46901" lon="8.24404">
        <ele>1324</ele>
        <time>2020-07-16T14:20:43.528Z</time>
      </trkpt>
      <trkpt lat="46.46901" lon="8.24403">
        <ele>1324</ele>
        <time>2020-07-16T14:20:44.528Z</time>
      </trkpt>
      <trkpt lat="46.46902" lon="8.24403">
        <ele>1324</ele>
        <time>2020-07-16T14:20:45.527Z</time>
      </trkpt>
      <trkpt lat="46.46902" lon="8.24401">
        <ele>1328</ele>
        <time>2020-07-16T14:20:46.528Z</time>
      </trkpt>
      <trkpt lat="46.46903" lon="8.24401">
        <ele>1327</ele>
        <time>2020-07-16T14:20:47.530Z</time>
      </trkpt>
      <trkpt lat="46.46904" lon="8.24399">
        <ele>1331</ele>
        <time>2020-07-16T14:20:48.531Z</time>
      </trkpt>
      <trkpt lat="46.46904" lon="8.24399">
        <ele>1331</ele>
        <time>2020-07-16T14:20:49.530Z</time>
      </trkpt>
      <trkpt lat="46.46904" lon="8.24399">
        <ele>1331</ele>
        <time>2020-07-16T14:20:50.531Z</time>
      </trkpt>
      <trkpt lat="46.46904" lon="8.24399">
        <ele>1331</ele>
        <time>2020-07-16T14:20:51.530Z</time>
      </trkpt>
      <trkpt lat="46.46904" lon="8.24399">
        <ele>1331</ele>
        <time>2020-07-16T14:20:52.531Z</time>
      </trkpt>
      <trkpt lat="46.46906" lon="8.24405">
        <ele>1333</ele>
        <time>2020-07-16T14:20:53.531Z</time>
      </trkpt>
      <trkpt lat="46.46906" lon="8.24406">
        <ele>1333</ele>
        <time>2020-07-16T14:20:54.531Z</time>
      </trkpt>
      <trkpt lat="46.46905" lon="8.24406">
        <ele>1332</ele>
        <time>2020-07-16T14:20:55.531Z</time>
      </trkpt>
      <trkpt lat="46.46905" lon="8.24407">
        <ele>1332</ele>
        <time>2020-07-16T14:20:56.531Z</time>
      </trkpt>
      <trkpt lat="46.46904" lon="8.24408">
        <ele>1331</ele>
        <time>2020-07-16T14:20:57.531Z</time>
      </trkpt>
      <trkpt lat="46.46905" lon="8.24403">
        <ele>1322</ele>
        <time>2020-07-16T14:20:58.532Z</time>
      </trkpt>
      <trkpt lat="46.46905" lon="8.24404">
        <ele>1322</ele>
        <time>2020-07-16T14:20:59.531Z</time>
      </trkpt>
      <trkpt lat="46.46905" lon="8.24404">
        <ele>1323</ele>
        <time>2020-07-16T14:21:00.532Z</time>
      </trkpt>
      <trkpt lat="46.46905" lon="8.24404">
        <ele>1323</ele>
        <time>2020-07-16T14:21:01.531Z</time>
      </trkpt>
      <trkpt lat="46.46905" lon="8.24406">
        <ele>1328</ele>
        <time>2020-07-16T14:21:02.532Z</time>
      </trkpt>
      <trkpt lat="46.46904" lon="8.24407">
        <ele>1329</ele>
        <time>2020-07-16T14:21:03.532Z</time>
      </trkpt>
      <trkpt lat="46.46904" lon="8.24406">
        <ele>1329</ele>
        <time>2020-07-16T14:21:04.532Z</time>
      </trkpt>
      <trkpt lat="46.46905" lon="8.24404">
        <ele>1316</ele>
        <time>2020-07-16T14:21:05.535Z</time>
      </trkpt>
      <trkpt lat="46.46905" lon="8.24404">
        <ele>1316</ele>
        <time>2020-07-16T14:21:06.534Z</time>
      </trkpt>
      <trkpt lat="46.46906" lon="8.24398">
        <ele>1314</ele>
        <time>2020-07-16T14:21:07.535Z</time>
      </trkpt>
      <trkpt lat="46.46906" lon="8.24398">
        <ele>1314</ele>
        <time>2020-07-16T14:21:08.534Z</time>
      </trkpt>
      <trkpt lat="46.46906" lon="8.24397">
        <ele>1314</ele>
        <time>2020-07-16T14:21:09.535Z</time>
      </trkpt>
      <trkpt lat="46.46906" lon="8.24395">
        <ele>1315</ele>
        <time>2020-07-16T14:21:10.535Z</time>
      </trkpt>
      <trkpt lat="46.46906" lon="8.24395">
        <ele>1315</ele>
        <time>2020-07-16T14:21:11.536Z</time>
      </trkpt>
      <trkpt lat="46.46906" lon="8.24395">
        <ele>1315</ele>
        <time>2020-07-16T14:21:12.535Z</time>
      </trkpt>
      <trkpt lat="46.46905" lon="8.24395">
        <ele>1315</ele>
        <time>2020-07-16T14:21:13.536Z</time>
      </trkpt>
      <trkpt lat="46.46908" lon="8.24394">
        <ele>1311</ele>
        <time>2020-07-16T14:21:14.536Z</time>
      </trkpt>
      <trkpt lat="46.46908" lon="8.24394">
        <ele>1311</ele>
        <time>2020-07-16T14:21:15.535Z</time>
      </trkpt>
      <trkpt lat="46.46909" lon="8.24394">
        <ele>1310</ele>
        <time>2020-07-16T14:21:16.535Z</time>
      </trkpt>
      <trkpt lat="46.46909" lon="8.24394">
        <ele>1310</ele>
        <time>2020-07-16T14:21:17.535Z</time>
      </trkpt>
      <trkpt lat="46.4691" lon="8.24395">
        <ele>1309</ele>
        <time>2020-07-16T14:21:18.535Z</time>
      </trkpt>
      <trkpt lat="46.4691" lon="8.24395">
        <ele>1309</ele>
        <time>2020-07-16T14:21:19.536Z</time>
      </trkpt>
      <trkpt lat="46.4691" lon="8.24395">
        <ele>1309</ele>
        <time>2020-07-16T14:21:20.536Z</time>
      </trkpt>
      <trkpt lat="46.46909" lon="8.24398">
        <ele>1306</ele>
        <time>2020-07-16T14:21:21.536Z</time>
      </trkpt>
      <trkpt lat="46.46909" lon="8.24398">
        <ele>1305</ele>
        <time>2020-07-16T14:21:22.536Z</time>
      </trkpt>
      <trkpt lat="46.46902" lon="8.24403">
        <ele>1315</ele>
        <time>2020-07-16T14:21:23.536Z</time>
      </trkpt>
      <trkpt lat="46.46902" lon="8.24402">
        <ele>1316</ele>
        <time>2020-07-16T14:21:24.536Z</time>
      </trkpt>
      <trkpt lat="46.46903" lon="8.24402">
        <ele>1317</ele>
        <time>2020-07-16T14:21:25.536Z</time>
      </trkpt>
      <trkpt lat="46.46902" lon="8.24401">
        <ele>1318</ele>
        <time>2020-07-16T14:21:26.536Z</time>
      </trkpt>
      <trkpt lat="46.46902" lon="8.24401">
        <ele>1318</ele>
        <time>2020-07-16T14:21:27.536Z</time>
      </trkpt>
      <trkpt lat="46.46902" lon="8.244">
        <ele>1319</ele>
        <time>2020-07-16T14:21:28.537Z</time>
      </trkpt>
      <trkpt lat="46.46901" lon="8.244">
        <ele>1319</ele>
        <time>2020-07-16T14:21:29.537Z</time>
      </trkpt>
      <trkpt lat="46.469" lon="8.24401">
        <ele>1324</ele>
        <time>2020-07-16T14:21:30.538Z</time>
      </trkpt>
      <trkpt lat="46.46902" lon="8.24399">
        <ele>1325</ele>
        <time>2020-07-16T14:21:31.538Z</time>
      </trkpt>
      <trkpt lat="46.46902" lon="8.24401">
        <ele>1325</ele>
        <time>2020-07-16T14:21:32.538Z</time>
      </trkpt>
      <trkpt lat="46.46903" lon="8.24405">
        <ele>1325</ele>
        <time>2020-07-16T14:21:33.540Z</time>
      </trkpt>
      <trkpt lat="46.46904" lon="8.24404">
        <ele>1325</ele>
        <time>2020-07-16T14:21:34.540Z</time>
      </trkpt>
      <trkpt lat="46.46904" lon="8.24404">
        <ele>1325</ele>
        <time>2020-07-16T14:21:35.539Z</time>
      </trkpt>
      <trkpt lat="46.46904" lon="8.24404">
        <ele>1324</ele>
        <time>2020-07-16T14:21:36.542Z</time>
      </trkpt>
      <trkpt lat="46.46904" lon="8.24404">
        <ele>1324</ele>
        <time>2020-07-16T14:21:37.542Z</time>
      </trkpt>
      <trkpt lat="46.46905" lon="8.24404">
        <ele>1323</ele>
        <time>2020-07-16T14:21:38.541Z</time>
      </trkpt>
      <trkpt lat="46.46905" lon="8.24403">
        <ele>1317</ele>
        <time>2020-07-16T14:21:39.543Z</time>
      </trkpt>
      <trkpt lat="46.46904" lon="8.24403">
        <ele>1317</ele>
        <time>2020-07-16T14:21:40.543Z</time>
      </trkpt>
      <trkpt lat="46.46903" lon="8.24403">
        <ele>1317</ele>
        <time>2020-07-16T14:21:41.542Z</time>
      </trkpt>
      <trkpt lat="46.46903" lon="8.24402">
        <ele>1317</ele>
        <time>2020-07-16T14:21:42.543Z</time>
      </trkpt>
      <trkpt lat="46.46905" lon="8.244">
        <ele>1316</ele>
        <time>2020-07-16T14:21:43.544Z</time>
      </trkpt>
      <trkpt lat="46.46905" lon="8.244">
        <ele>1315</ele>
        <time>2020-07-16T14:21:44.544Z</time>
      </trkpt>
      <trkpt lat="46.46906" lon="8.24399">
        <ele>1315</ele>
        <time>2020-07-16T14:21:45.544Z</time>
      </trkpt>
      <trkpt lat="46.46906" lon="8.24399">
        <ele>1315</ele>
        <time>2020-07-16T14:21:46.543Z</time>
      </trkpt>
      <trkpt lat="46.46905" lon="8.244">
        <ele>1315</ele>
        <time>2020-07-16T14:21:47.544Z</time>
      </trkpt>
      <trkpt lat="46.46905" lon="8.24402">
        <ele>1317</ele>
        <time>2020-07-16T14:21:48.546Z</time>
      </trkpt>
      <trkpt lat="46.46904" lon="8.24404">
        <ele>1319</ele>
        <time>2020-07-16T14:21:49.546Z</time>
      </trkpt>
      <trkpt lat="46.46904" lon="8.24403">
        <ele>1319</ele>
        <time>2020-07-16T14:21:50.545Z</time>
      </trkpt>
      <trkpt lat="46.46904" lon="8.24403">
        <ele>1320</ele>
        <time>2020-07-16T14:21:51.546Z</time>
      </trkpt>
      <trkpt lat="46.46904" lon="8.24403">
        <ele>1320</ele>
        <time>2020-07-16T14:21:52.545Z</time>
      </trkpt>
      <trkpt lat="46.46904" lon="8.24404">
        <ele>1321</ele>
        <time>2020-07-16T14:21:53.547Z</time>
      </trkpt>
      <trkpt lat="46.46904" lon="8.24404">
        <ele>1321</ele>
        <time>2020-07-16T14:21:54.547Z</time>
      </trkpt>
      <trkpt lat="46.46904" lon="8.24404">
        <ele>1321</ele>
        <time>2020-07-16T14:21:55.547Z</time>
      </trkpt>
      <trkpt lat="46.46905" lon="8.24403">
        <ele>1321</ele>
        <time>2020-07-16T14:21:56.546Z</time>
      </trkpt>
      <trkpt lat="46.46904" lon="8.24404">
        <ele>1321</ele>
        <time>2020-07-16T14:21:57.547Z</time>
      </trkpt>
      <trkpt lat="46.46904" lon="8.24404">
        <ele>1320</ele>
        <time>2020-07-16T14:21:58.547Z</time>
      </trkpt>
      <trkpt lat="46.46904" lon="8.24405">
        <ele>1320</ele>
        <time>2020-07-16T14:21:59.547Z</time>
      </trkpt>
      <trkpt lat="46.46902" lon="8.24404">
        <ele>1321</ele>
        <time>2020-07-16T14:22:00.547Z</time>
      </trkpt>
      <trkpt lat="46.46902" lon="8.24403">
        <ele>1321</ele>
        <time>2020-07-16T14:22:01.546Z</time>
      </trkpt>
      <trkpt lat="46.46902" lon="8.24403">
        <ele>1320</ele>
        <time>2020-07-16T14:22:02.547Z</time>
      </trkpt>
      <trkpt lat="46.46901" lon="8.24403">
        <ele>1320</ele>
        <time>2020-07-16T14:22:03.546Z</time>
      </trkpt>
      <trkpt lat="46.46901" lon="8.24403">
        <ele>1319</ele>
        <time>2020-07-16T14:22:04.547Z</time>
      </trkpt>
      <trkpt lat="46.46901" lon="8.24402">
        <ele>1319</ele>
        <time>2020-07-16T14:22:05.547Z</time>
      </trkpt>
      <trkpt lat="46.46901" lon="8.24401">
        <ele>1318</ele>
        <time>2020-07-16T14:22:06.548Z</time>
      </trkpt>
      <trkpt lat="46.46901" lon="8.24401">
        <ele>1318</ele>
        <time>2020-07-16T14:22:07.548Z</time>
      </trkpt>
      <trkpt lat="46.46902" lon="8.24402">
        <ele>1318</ele>
        <time>2020-07-16T14:22:08.549Z</time>
      </trkpt>
      <trkpt lat="46.46902" lon="8.24403">
        <ele>1318</ele>
        <time>2020-07-16T14:22:09.549Z</time>
      </trkpt>
      <trkpt lat="46.46903" lon="8.24403">
        <ele>1318</ele>
        <time>2020-07-16T14:22:10.549Z</time>
      </trkpt>
      <trkpt lat="46.46902" lon="8.24404">
        <ele>1318</ele>
        <time>2020-07-16T14:22:11.549Z</time>
      </trkpt>
      <trkpt lat="46.46903" lon="8.24404">
        <ele>1318</ele>
        <time>2020-07-16T14:22:12.548Z</time>
      </trkpt>
      <trkpt lat="46.46903" lon="8.24403">
        <ele>1318</ele>
        <time>2020-07-16T14:22:13.549Z</time>
      </trkpt>
      <trkpt lat="46.46902" lon="8.24402">
        <ele>1317</ele>
        <time>2020-07-16T14:22:14.548Z</time>
      </trkpt>
      <trkpt lat="46.46903" lon="8.24402">
        <ele>1317</ele>
        <time>2020-07-16T14:22:15.548Z</time>
      </trkpt>
      <trkpt lat="46.46902" lon="8.24402">
        <ele>1318</ele>
        <time>2020-07-16T14:22:16.548Z</time>
      </trkpt>
      <trkpt lat="46.46907" lon="8.24402">
        <ele>1315</ele>
        <time>2020-07-16T14:22:17.548Z</time>
      </trkpt>
      <trkpt lat="46.46907" lon="8.24401">
        <ele>1315</ele>
        <time>2020-07-16T14:22:18.548Z</time>
      </trkpt>
      <trkpt lat="46.46908" lon="8.24394">
        <ele>1312</ele>
        <time>2020-07-16T14:22:19.549Z</time>
      </trkpt>
      <trkpt lat="46.46908" lon="8.24394">
        <ele>1312</ele>
        <time>2020-07-16T14:22:20.550Z</time>
      </trkpt>
      <trkpt lat="46.46908" lon="8.24394">
        <ele>1312</ele>
        <time>2020-07-16T14:22:21.549Z</time>
      </trkpt>
      <trkpt lat="46.46908" lon="8.244">
        <ele>1321</ele>
        <time>2020-07-16T14:22:22.550Z</time>
      </trkpt>
      <trkpt lat="46.46908" lon="8.244">
        <ele>1321</ele>
        <time>2020-07-16T14:22:23.549Z</time>
      </trkpt>
      <trkpt lat="46.46908" lon="8.244">
        <ele>1321</ele>
        <time>2020-07-16T14:22:24.549Z</time>
      </trkpt>
      <trkpt lat="46.46908" lon="8.244">
        <ele>1321</ele>
        <time>2020-07-16T14:22:25.550Z</time>
      </trkpt>
      <trkpt lat="46.46907" lon="8.244">
        <ele>1320</ele>
        <time>2020-07-16T14:22:26.551Z</time>
      </trkpt>
      <trkpt lat="46.46907" lon="8.244">
        <ele>1320</ele>
        <time>2020-07-16T14:22:27.550Z</time>
      </trkpt>
      <trkpt lat="46.46907" lon="8.244">
        <ele>1320</ele>
        <time>2020-07-16T14:22:28.550Z</time>
      </trkpt>
      <trkpt lat="46.46907" lon="8.24401">
        <ele>1320</ele>
        <time>2020-07-16T14:22:29.551Z</time>
      </trkpt>
      <trkpt lat="46.46907" lon="8.24401">
        <ele>1320</ele>
        <time>2020-07-16T14:22:30.550Z</time>
      </trkpt>
      <trkpt lat="46.46904" lon="8.24397">
        <ele>1319</ele>
        <time>2020-07-16T14:22:31.553Z</time>
      </trkpt>
      <trkpt lat="46.46904" lon="8.24397">
        <ele>1319</ele>
        <time>2020-07-16T14:22:32.553Z</time>
      </trkpt>
      <trkpt lat="46.46904" lon="8.24397">
        <ele>1318</ele>
        <time>2020-07-16T14:22:33.553Z</time>
      </trkpt>
      <trkpt lat="46.46905" lon="8.24399">
        <ele>1316</ele>
        <time>2020-07-16T14:22:34.553Z</time>
      </trkpt>
      <trkpt lat="46.46905" lon="8.244">
        <ele>1317</ele>
        <time>2020-07-16T14:22:35.553Z</time>
      </trkpt>
      <trkpt lat="46.46901" lon="8.244">
        <ele>1319</ele>
        <time>2020-07-16T14:22:36.554Z</time>
      </trkpt>
      <trkpt lat="46.469" lon="8.244">
        <ele>1319</ele>
        <time>2020-07-16T14:22:37.554Z</time>
      </trkpt>
      <trkpt lat="46.46903" lon="8.244">
        <ele>1320</ele>
        <time>2020-07-16T14:22:38.555Z</time>
      </trkpt>
      <trkpt lat="46.46903" lon="8.244">
        <ele>1320</ele>
        <time>2020-07-16T14:22:39.554Z</time>
      </trkpt>
      <trkpt lat="46.46903" lon="8.24401">
        <ele>1320</ele>
        <time>2020-07-16T14:22:40.555Z</time>
      </trkpt>
      <trkpt lat="46.46902" lon="8.24401">
        <ele>1321</ele>
        <time>2020-07-16T14:22:41.554Z</time>
      </trkpt>
      <trkpt lat="46.469" lon="8.24401">
        <ele>1322</ele>
        <time>2020-07-16T14:22:42.556Z</time>
      </trkpt>
      <trkpt lat="46.46898" lon="8.24396">
        <ele>1328</ele>
        <time>2020-07-16T14:22:43.556Z</time>
      </trkpt>
      <trkpt lat="46.46898" lon="8.24396">
        <ele>1328</ele>
        <time>2020-07-16T14:22:44.555Z</time>
      </trkpt>
      <trkpt lat="46.469" lon="8.24397">
        <ele>1327</ele>
        <time>2020-07-16T14:22:45.556Z</time>
      </trkpt>
      <trkpt lat="46.469" lon="8.24397">
        <ele>1328</ele>
        <time>2020-07-16T14:22:46.556Z</time>
      </trkpt>
      <trkpt lat="46.46899" lon="8.24396">
        <ele>1328</ele>
        <time>2020-07-16T14:22:47.555Z</time>
      </trkpt>
      <trkpt lat="46.46897" lon="8.24396">
        <ele>1333</ele>
        <time>2020-07-16T14:22:48.557Z</time>
      </trkpt>
      <trkpt lat="46.46899" lon="8.24399">
        <ele>1337</ele>
        <time>2020-07-16T14:22:49.557Z</time>
      </trkpt>
      <trkpt lat="46.46899" lon="8.24399">
        <ele>1335</ele>
        <time>2020-07-16T14:22:50.556Z</time>
      </trkpt>
      <trkpt lat="46.46904" lon="8.24402">
        <ele>1319</ele>
        <time>2020-07-16T14:22:51.558Z</time>
      </trkpt>
      <trkpt lat="46.46905" lon="8.24399">
        <ele>1319</ele>
        <time>2020-07-16T14:22:52.558Z</time>
      </trkpt>
      <trkpt lat="46.46905" lon="8.24398">
        <ele>1318</ele>
        <time>2020-07-16T14:22:53.557Z</time>
      </trkpt>
      <trkpt lat="46.46906" lon="8.24398">
        <ele>1318</ele>
        <time>2020-07-16T14:22:54.557Z</time>
      </trkpt>
      <trkpt lat="46.46906" lon="8.24398">
        <ele>1317</ele>
        <time>2020-07-16T14:22:55.558Z</time>
      </trkpt>
      <trkpt lat="46.46906" lon="8.24397">
        <ele>1317</ele>
        <time>2020-07-16T14:22:56.558Z</time>
      </trkpt>
      <trkpt lat="46.46906" lon="8.24399">
        <ele>1314</ele>
        <time>2020-07-16T14:22:57.559Z</time>
      </trkpt>
      <trkpt lat="46.46905" lon="8.244">
        <ele>1314</ele>
        <time>2020-07-16T14:22:58.558Z</time>
      </trkpt>
      <trkpt lat="46.46905" lon="8.244">
        <ele>1314</ele>
        <time>2020-07-16T14:22:59.558Z</time>
      </trkpt>
      <trkpt lat="46.46905" lon="8.244">
        <ele>1314</ele>
        <time>2020-07-16T14:23:00.558Z</time>
      </trkpt>
      <trkpt lat="46.46905" lon="8.24399">
        <ele>1314</ele>
        <time>2020-07-16T14:23:01.558Z</time>
      </trkpt>
      <trkpt lat="46.46904" lon="8.24397">
        <ele>1314</ele>
        <time>2020-07-16T14:23:02.558Z</time>
      </trkpt>
      <trkpt lat="46.46904" lon="8.24396">
        <ele>1314</ele>
        <time>2020-07-16T14:23:03.558Z</time>
      </trkpt>
      <trkpt lat="46.46904" lon="8.24396">
        <ele>1314</ele>
        <time>2020-07-16T14:23:04.558Z</time>
      </trkpt>
      <trkpt lat="46.46904" lon="8.24396">
        <ele>1314</ele>
        <time>2020-07-16T14:23:05.558Z</time>
      </trkpt>
      <trkpt lat="46.46905" lon="8.24395">
        <ele>1314</ele>
        <time>2020-07-16T14:23:06.559Z</time>
      </trkpt>
      <trkpt lat="46.46905" lon="8.24394">
        <ele>1314</ele>
        <time>2020-07-16T14:23:07.558Z</time>
      </trkpt>
      <trkpt lat="46.46904" lon="8.24395">
        <ele>1316</ele>
        <time>2020-07-16T14:23:08.560Z</time>
      </trkpt>
      <trkpt lat="46.46903" lon="8.24395">
        <ele>1317</ele>
        <time>2020-07-16T14:23:09.560Z</time>
      </trkpt>
      <trkpt lat="46.46903" lon="8.24395">
        <ele>1318</ele>
        <time>2020-07-16T14:23:10.560Z</time>
      </trkpt>
      <trkpt lat="46.46903" lon="8.24394">
        <ele>1319</ele>
        <time>2020-07-16T14:23:11.561Z</time>
      </trkpt>
      <trkpt lat="46.46902" lon="8.24394">
        <ele>1323</ele>
        <time>2020-07-16T14:23:12.562Z</time>
      </trkpt>
      <trkpt lat="46.46901" lon="8.24395">
        <ele>1323</ele>
        <time>2020-07-16T14:23:13.562Z</time>
      </trkpt>
      <trkpt lat="46.46899" lon="8.24394">
        <ele>1324</ele>
        <time>2020-07-16T14:23:14.563Z</time>
      </trkpt>
      <trkpt lat="46.46898" lon="8.24393">
        <ele>1323</ele>
        <time>2020-07-16T14:23:15.563Z</time>
      </trkpt>
      <trkpt lat="46.46898" lon="8.24392">
        <ele>1323</ele>
        <time>2020-07-16T14:23:16.563Z</time>
      </trkpt>
      <trkpt lat="46.46898" lon="8.24393">
        <ele>1323</ele>
        <time>2020-07-16T14:23:17.562Z</time>
      </trkpt>
      <trkpt lat="46.46899" lon="8.24395">
        <ele>1322</ele>
        <time>2020-07-16T14:23:18.563Z</time>
      </trkpt>
      <trkpt lat="46.469" lon="8.24395">
        <ele>1321</ele>
        <time>2020-07-16T14:23:19.562Z</time>
      </trkpt>
      <trkpt lat="46.469" lon="8.24396">
        <ele>1321</ele>
        <time>2020-07-16T14:23:20.562Z</time>
      </trkpt>
      <trkpt lat="46.469" lon="8.24396">
        <ele>1321</ele>
        <time>2020-07-16T14:23:21.563Z</time>
      </trkpt>
      <trkpt lat="46.46901" lon="8.24395">
        <ele>1322</ele>
        <time>2020-07-16T14:23:22.562Z</time>
      </trkpt>
      <trkpt lat="46.46902" lon="8.24395">
        <ele>1321</ele>
        <time>2020-07-16T14:23:23.562Z</time>
      </trkpt>
      <trkpt lat="46.46902" lon="8.24396">
        <ele>1321</ele>
        <time>2020-07-16T14:23:24.563Z</time>
      </trkpt>
      <trkpt lat="46.46903" lon="8.24396">
        <ele>1320</ele>
        <time>2020-07-16T14:23:25.563Z</time>
      </trkpt>
      <trkpt lat="46.46903" lon="8.24396">
        <ele>1319</ele>
        <time>2020-07-16T14:23:26.563Z</time>
      </trkpt>
      <trkpt lat="46.46903" lon="8.24397">
        <ele>1319</ele>
        <time>2020-07-16T14:23:27.562Z</time>
      </trkpt>
      <trkpt lat="46.46905" lon="8.24402">
        <ele>1316</ele>
        <time>2020-07-16T14:23:28.564Z</time>
      </trkpt>
      <trkpt lat="46.46905" lon="8.24401">
        <ele>1316</ele>
        <time>2020-07-16T14:23:29.564Z</time>
      </trkpt>
      <trkpt lat="46.46905" lon="8.244">
        <ele>1315</ele>
        <time>2020-07-16T14:23:30.564Z</time>
      </trkpt>
      <trkpt lat="46.46905" lon="8.24399">
        <ele>1315</ele>
        <time>2020-07-16T14:23:31.564Z</time>
      </trkpt>
      <trkpt lat="46.46905" lon="8.24399">
        <ele>1315</ele>
        <time>2020-07-16T14:23:32.564Z</time>
      </trkpt>
      <trkpt lat="46.46905" lon="8.24399">
        <ele>1315</ele>
        <time>2020-07-16T14:23:33.564Z</time>
      </trkpt>
      <trkpt lat="46.46906" lon="8.244">
        <ele>1316</ele>
        <time>2020-07-16T14:23:34.565Z</time>
      </trkpt>
      <trkpt lat="46.46905" lon="8.24397">
        <ele>1318</ele>
        <time>2020-07-16T14:23:35.565Z</time>
      </trkpt>
      <trkpt lat="46.46905" lon="8.24396">
        <ele>1318</ele>
        <time>2020-07-16T14:23:36.566Z</time>
      </trkpt>
      <trkpt lat="46.46902" lon="8.24396">
        <ele>1318</ele>
        <time>2020-07-16T14:23:37.565Z</time>
      </trkpt>
      <trkpt lat="46.46905" lon="8.24392">
        <ele>1316</ele>
        <time>2020-07-16T14:23:38.565Z</time>
      </trkpt>
      <trkpt lat="46.46905" lon="8.24391">
        <ele>1315</ele>
        <time>2020-07-16T14:23:39.565Z</time>
      </trkpt>
      <trkpt lat="46.46904" lon="8.24392">
        <ele>1317</ele>
        <time>2020-07-16T14:23:40.566Z</time>
      </trkpt>
      <trkpt lat="46.46904" lon="8.24392">
        <ele>1317</ele>
        <time>2020-07-16T14:23:41.565Z</time>
      </trkpt>
      <trkpt lat="46.46903" lon="8.24392">
        <ele>1317</ele>
        <time>2020-07-16T14:23:42.566Z</time>
      </trkpt>
      <trkpt lat="46.46904" lon="8.24391">
        <ele>1317</ele>
        <time>2020-07-16T14:23:43.566Z</time>
      </trkpt>
      <trkpt lat="46.46904" lon="8.2439">
        <ele>1317</ele>
        <time>2020-07-16T14:23:44.566Z</time>
      </trkpt>
      <trkpt lat="46.46904" lon="8.2439">
        <ele>1317</ele>
        <time>2020-07-16T14:23:45.566Z</time>
      </trkpt>
      <trkpt lat="46.46902" lon="8.24391">
        <ele>1323</ele>
        <time>2020-07-16T14:23:46.567Z</time>
      </trkpt>
      <trkpt lat="46.46901" lon="8.24392">
        <ele>1324</ele>
        <time>2020-07-16T14:23:47.566Z</time>
      </trkpt>
      <trkpt lat="46.46903" lon="8.24392">
        <ele>1326</ele>
        <time>2020-07-16T14:23:48.568Z</time>
      </trkpt>
      <trkpt lat="46.46903" lon="8.24392">
        <ele>1326</ele>
        <time>2020-07-16T14:23:49.569Z</time>
      </trkpt>
      <trkpt lat="46.46903" lon="8.24392">
        <ele>1326</ele>
        <time>2020-07-16T14:23:50.568Z</time>
      </trkpt>
      <trkpt lat="46.46903" lon="8.24392">
        <ele>1326</ele>
        <time>2020-07-16T14:23:51.568Z</time>
      </trkpt>
      <trkpt lat="46.46903" lon="8.24395">
        <ele>1324</ele>
        <time>2020-07-16T14:23:52.571Z</time>
      </trkpt>
      <trkpt lat="46.46902" lon="8.24396">
        <ele>1324</ele>
        <time>2020-07-16T14:23:53.571Z</time>
      </trkpt>
      <trkpt lat="46.46902" lon="8.24397">
        <ele>1324</ele>
        <time>2020-07-16T14:23:54.570Z</time>
      </trkpt>
      <trkpt lat="46.46904" lon="8.24394">
        <ele>1318</ele>
        <time>2020-07-16T14:23:55.573Z</time>
      </trkpt>
      <trkpt lat="46.46904" lon="8.24394">
        <ele>1318</ele>
        <time>2020-07-16T14:23:56.572Z</time>
      </trkpt>
      <trkpt lat="46.46904" lon="8.24394">
        <ele>1317</ele>
        <time>2020-07-16T14:23:57.573Z</time>
      </trkpt>
      <trkpt lat="46.46903" lon="8.24395">
        <ele>1313</ele>
        <time>2020-07-16T14:23:58.573Z</time>
      </trkpt>
      <trkpt lat="46.46904" lon="8.24395">
        <ele>1313</ele>
        <time>2020-07-16T14:23:59.573Z</time>
      </trkpt>
      <trkpt lat="46.46905" lon="8.24395">
        <ele>1313</ele>
        <time>2020-07-16T14:24:00.574Z</time>
      </trkpt>
      <trkpt lat="46.46905" lon="8.24395">
        <ele>1313</ele>
        <time>2020-07-16T14:24:01.574Z</time>
      </trkpt>
      <trkpt lat="46.46903" lon="8.24397">
        <ele>1318</ele>
        <time>2020-07-16T14:24:02.574Z</time>
      </trkpt>
      <trkpt lat="46.46903" lon="8.24397">
        <ele>1318</ele>
        <time>2020-07-16T14:24:03.574Z</time>
      </trkpt>
      <trkpt lat="46.46903" lon="8.24396">
        <ele>1318</ele>
        <time>2020-07-16T14:24:04.573Z</time>
      </trkpt>
      <trkpt lat="46.46904" lon="8.244">
        <ele>1318</ele>
        <time>2020-07-16T14:24:05.574Z</time>
      </trkpt>
      <trkpt lat="46.46904" lon="8.244">
        <ele>1318</ele>
        <time>2020-07-16T14:24:06.574Z</time>
      </trkpt>
      <trkpt lat="46.46904" lon="8.24401">
        <ele>1318</ele>
        <time>2020-07-16T14:24:07.573Z</time>
      </trkpt>
      <trkpt lat="46.46904" lon="8.24402">
        <ele>1319</ele>
        <time>2020-07-16T14:24:08.573Z</time>
      </trkpt>
      <trkpt lat="46.46904" lon="8.24401">
        <ele>1320</ele>
        <time>2020-07-16T14:24:09.573Z</time>
      </trkpt>
      <trkpt lat="46.46904" lon="8.24404">
        <ele>1321</ele>
        <time>2020-07-16T14:24:10.574Z</time>
      </trkpt>
      <trkpt lat="46.46904" lon="8.24409">
        <ele>1322</ele>
        <time>2020-07-16T14:24:11.574Z</time>
      </trkpt>
      <trkpt lat="46.46904" lon="8.24408">
        <ele>1322</ele>
        <time>2020-07-16T14:24:12.574Z</time>
      </trkpt>
      <trkpt lat="46.46904" lon="8.24401">
        <ele>1317</ele>
        <time>2020-07-16T14:24:13.575Z</time>
      </trkpt>
      <trkpt lat="46.46904" lon="8.244">
        <ele>1316</ele>
        <time>2020-07-16T14:24:14.575Z</time>
      </trkpt>
      <trkpt lat="46.46904" lon="8.24398">
        <ele>1316</ele>
        <time>2020-07-16T14:24:15.574Z</time>
      </trkpt>
      <trkpt lat="46.46903" lon="8.24397">
        <ele>1315</ele>
        <time>2020-07-16T14:24:16.575Z</time>
      </trkpt>
      <trkpt lat="46.46904" lon="8.24395">
        <ele>1315</ele>
        <time>2020-07-16T14:24:17.575Z</time>
      </trkpt>
      <trkpt lat="46.46903" lon="8.24391">
        <ele>1315</ele>
        <time>2020-07-16T14:24:18.577Z</time>
      </trkpt>
      <trkpt lat="46.46902" lon="8.2439">
        <ele>1315</ele>
        <time>2020-07-16T14:24:19.577Z</time>
      </trkpt>
      <trkpt lat="46.46899" lon="8.24388">
        <ele>1320</ele>
        <time>2020-07-16T14:24:20.578Z</time>
      </trkpt>
      <trkpt lat="46.46899" lon="8.24387">
        <ele>1320</ele>
        <time>2020-07-16T14:24:21.577Z</time>
      </trkpt>
      <trkpt lat="46.46899" lon="8.24387">
        <ele>1321</ele>
        <time>2020-07-16T14:24:22.578Z</time>
      </trkpt>
      <trkpt lat="46.46899" lon="8.24386">
        <ele>1322</ele>
        <time>2020-07-16T14:24:23.578Z</time>
      </trkpt>
      <trkpt lat="46.46899" lon="8.24386">
        <ele>1322</ele>
        <time>2020-07-16T14:24:24.578Z</time>
      </trkpt>
      <trkpt lat="46.46898" lon="8.24385">
        <ele>1323</ele>
        <time>2020-07-16T14:24:25.577Z</time>
      </trkpt>
      <trkpt lat="46.46898" lon="8.24385">
        <ele>1324</ele>
        <time>2020-07-16T14:24:26.577Z</time>
      </trkpt>
      <trkpt lat="46.46897" lon="8.24384">
        <ele>1325</ele>
        <time>2020-07-16T14:24:27.577Z</time>
      </trkpt>
      <trkpt lat="46.46893" lon="8.24384">
        <ele>1329</ele>
        <time>2020-07-16T14:24:28.578Z</time>
      </trkpt>
      <trkpt lat="46.46891" lon="8.24384">
        <ele>1330</ele>
        <time>2020-07-16T14:24:29.577Z</time>
      </trkpt>
      <trkpt lat="46.46891" lon="8.24386">
        <ele>1330</ele>
        <time>2020-07-16T14:24:30.577Z</time>
      </trkpt>
      <trkpt lat="46.46892" lon="8.24387">
        <ele>1329</ele>
        <time>2020-07-16T14:24:31.578Z</time>
      </trkpt>
      <trkpt lat="46.46892" lon="8.24388">
        <ele>1328</ele>
        <time>2020-07-16T14:24:32.577Z</time>
      </trkpt>
      <trkpt lat="46.46892" lon="8.24389">
        <ele>1327</ele>
        <time>2020-07-16T14:24:33.577Z</time>
      </trkpt>
      <trkpt lat="46.46892" lon="8.24391">
        <ele>1326</ele>
        <time>2020-07-16T14:24:34.577Z</time>
      </trkpt>
      <trkpt lat="46.46892" lon="8.24392">
        <ele>1325</ele>
        <time>2020-07-16T14:24:35.577Z</time>
      </trkpt>
      <trkpt lat="46.46892" lon="8.24393">
        <ele>1324</ele>
        <time>2020-07-16T14:24:36.577Z</time>
      </trkpt>
      <trkpt lat="46.46893" lon="8.24395">
        <ele>1324</ele>
        <time>2020-07-16T14:24:37.578Z</time>
      </trkpt>
      <trkpt lat="46.46893" lon="8.24397">
        <ele>1323</ele>
        <time>2020-07-16T14:24:38.577Z</time>
      </trkpt>
      <trkpt lat="46.46893" lon="8.24398">
        <ele>1322</ele>
        <time>2020-07-16T14:24:39.577Z</time>
      </trkpt>
      <trkpt lat="46.46892" lon="8.244">
        <ele>1322</ele>
        <time>2020-07-16T14:24:40.577Z</time>
      </trkpt>
      <trkpt lat="46.46892" lon="8.24402">
        <ele>1321</ele>
        <time>2020-07-16T14:24:41.577Z</time>
      </trkpt>
      <trkpt lat="46.46892" lon="8.24403">
        <ele>1320</ele>
        <time>2020-07-16T14:24:42.578Z</time>
      </trkpt>
      <trkpt lat="46.46892" lon="8.24404">
        <ele>1319</ele>
        <time>2020-07-16T14:24:43.578Z</time>
      </trkpt>
      <trkpt lat="46.46892" lon="8.24405">
        <ele>1318</ele>
        <time>2020-07-16T14:24:44.577Z</time>
      </trkpt>
      <trkpt lat="46.46893" lon="8.24406">
        <ele>1318</ele>
        <time>2020-07-16T14:24:45.577Z</time>
      </trkpt>
      <trkpt lat="46.46894" lon="8.24405">
        <ele>1317</ele>
        <time>2020-07-16T14:24:46.577Z</time>
      </trkpt>
      <trkpt lat="46.46895" lon="8.24406">
        <ele>1316</ele>
        <time>2020-07-16T14:24:47.578Z</time>
      </trkpt>
      <trkpt lat="46.46896" lon="8.24406">
        <ele>1315</ele>
        <time>2020-07-16T14:24:48.577Z</time>
      </trkpt>
      <trkpt lat="46.46896" lon="8.24408">
        <ele>1314</ele>
        <time>2020-07-16T14:24:49.577Z</time>
      </trkpt>
      <trkpt lat="46.46896" lon="8.24409">
        <ele>1314</ele>
        <time>2020-07-16T14:24:50.578Z</time>
      </trkpt>
      <trkpt lat="46.46896" lon="8.2441">
        <ele>1313</ele>
        <time>2020-07-16T14:24:51.577Z</time>
      </trkpt>
      <trkpt lat="46.46896" lon="8.24411">
        <ele>1312</ele>
        <time>2020-07-16T14:24:52.577Z</time>
      </trkpt>
      <trkpt lat="46.46896" lon="8.24413">
        <ele>1312</ele>
        <time>2020-07-16T14:24:53.577Z</time>
      </trkpt>
      <trkpt lat="46.46896" lon="8.24414">
        <ele>1312</ele>
        <time>2020-07-16T14:24:54.577Z</time>
      </trkpt>
      <trkpt lat="46.46896" lon="8.24415">
        <ele>1312</ele>
        <time>2020-07-16T14:24:55.577Z</time>
      </trkpt>
      <trkpt lat="46.46895" lon="8.24415">
        <ele>1311</ele>
        <time>2020-07-16T14:24:56.577Z</time>
      </trkpt>
      <trkpt lat="46.46896" lon="8.24414">
        <ele>1313</ele>
        <time>2020-07-16T14:24:57.577Z</time>
      </trkpt>
      <trkpt lat="46.46896" lon="8.24413">
        <ele>1313</ele>
        <time>2020-07-16T14:24:58.577Z</time>
      </trkpt>
      <trkpt lat="46.46897" lon="8.24412">
        <ele>1314</ele>
        <time>2020-07-16T14:24:59.578Z</time>
      </trkpt>
      <trkpt lat="46.46897" lon="8.2441">
        <ele>1315</ele>
        <time>2020-07-16T14:25:00.577Z</time>
      </trkpt>
      <trkpt lat="46.46897" lon="8.24409">
        <ele>1315</ele>
        <time>2020-07-16T14:25:01.577Z</time>
      </trkpt>
      <trkpt lat="46.46897" lon="8.24407">
        <ele>1315</ele>
        <time>2020-07-16T14:25:02.577Z</time>
      </trkpt>
      <trkpt lat="46.46897" lon="8.24406">
        <ele>1316</ele>
        <time>2020-07-16T14:25:03.578Z</time>
      </trkpt>
      <trkpt lat="46.46898" lon="8.24405">
        <ele>1316</ele>
        <time>2020-07-16T14:25:04.577Z</time>
      </trkpt>
      <trkpt lat="46.46898" lon="8.24403">
        <ele>1316</ele>
        <time>2020-07-16T14:25:05.578Z</time>
      </trkpt>
      <trkpt lat="46.46898" lon="8.24402">
        <ele>1315</ele>
        <time>2020-07-16T14:25:06.578Z</time>
      </trkpt>
      <trkpt lat="46.46897" lon="8.244">
        <ele>1315</ele>
        <time>2020-07-16T14:25:07.577Z</time>
      </trkpt>
      <trkpt lat="46.46896" lon="8.24399">
        <ele>1315</ele>
        <time>2020-07-16T14:25:08.577Z</time>
      </trkpt>
      <trkpt lat="46.46896" lon="8.24399">
        <ele>1315</ele>
        <time>2020-07-16T14:25:09.577Z</time>
      </trkpt>
      <trkpt lat="46.46895" lon="8.24399">
        <ele>1315</ele>
        <time>2020-07-16T14:25:10.578Z</time>
      </trkpt>
      <trkpt lat="46.46895" lon="8.24399">
        <ele>1316</ele>
        <time>2020-07-16T14:25:11.577Z</time>
      </trkpt>
      <trkpt lat="46.46894" lon="8.24403">
        <ele>1323</ele>
        <time>2020-07-16T14:25:12.578Z</time>
      </trkpt>
      <trkpt lat="46.46894" lon="8.24406">
        <ele>1323</ele>
        <time>2020-07-16T14:25:13.577Z</time>
      </trkpt>
      <trkpt lat="46.46895" lon="8.24407">
        <ele>1322</ele>
        <time>2020-07-16T14:25:14.577Z</time>
      </trkpt>
      <trkpt lat="46.46895" lon="8.24408">
        <ele>1322</ele>
        <time>2020-07-16T14:25:15.578Z</time>
      </trkpt>
      <trkpt lat="46.46895" lon="8.24409">
        <ele>1321</ele>
        <time>2020-07-16T14:25:16.578Z</time>
      </trkpt>
      <trkpt lat="46.46895" lon="8.24409">
        <ele>1320</ele>
        <time>2020-07-16T14:25:17.578Z</time>
      </trkpt>
      <trkpt lat="46.46895" lon="8.24408">
        <ele>1319</ele>
        <time>2020-07-16T14:25:18.578Z</time>
      </trkpt>
      <trkpt lat="46.46895" lon="8.24407">
        <ele>1318</ele>
        <time>2020-07-16T14:25:19.577Z</time>
      </trkpt>
      <trkpt lat="46.46894" lon="8.24406">
        <ele>1318</ele>
        <time>2020-07-16T14:25:20.578Z</time>
      </trkpt>
      <trkpt lat="46.46894" lon="8.24405">
        <ele>1317</ele>
        <time>2020-07-16T14:25:21.577Z</time>
      </trkpt>
      <trkpt lat="46.46894" lon="8.24404">
        <ele>1317</ele>
        <time>2020-07-16T14:25:22.578Z</time>
      </trkpt>
      <trkpt lat="46.46895" lon="8.24402">
        <ele>1316</ele>
        <time>2020-07-16T14:25:23.578Z</time>
      </trkpt>
      <trkpt lat="46.46895" lon="8.24401">
        <ele>1316</ele>
        <time>2020-07-16T14:25:24.577Z</time>
      </trkpt>
      <trkpt lat="46.46894" lon="8.244">
        <ele>1315</ele>
        <time>2020-07-16T14:25:25.578Z</time>
      </trkpt>
      <trkpt lat="46.46894" lon="8.24399">
        <ele>1315</ele>
        <time>2020-07-16T14:25:26.578Z</time>
      </trkpt>
      <trkpt lat="46.46895" lon="8.24397">
        <ele>1315</ele>
        <time>2020-07-16T14:25:27.578Z</time>
      </trkpt>
      <trkpt lat="46.46895" lon="8.24396">
        <ele>1315</ele>
        <time>2020-07-16T14:25:28.578Z</time>
      </trkpt>
      <trkpt lat="46.46895" lon="8.24396">
        <ele>1315</ele>
        <time>2020-07-16T14:25:29.577Z</time>
      </trkpt>
      <trkpt lat="46.46895" lon="8.24395">
        <ele>1315</ele>
        <time>2020-07-16T14:25:30.578Z</time>
      </trkpt>
      <trkpt lat="46.46895" lon="8.24394">
        <ele>1315</ele>
        <time>2020-07-16T14:25:31.578Z</time>
      </trkpt>
      <trkpt lat="46.46895" lon="8.24394">
        <ele>1315</ele>
        <time>2020-07-16T14:25:32.578Z</time>
      </trkpt>
      <trkpt lat="46.46895" lon="8.24393">
        <ele>1316</ele>
        <time>2020-07-16T14:25:33.578Z</time>
      </trkpt>
      <trkpt lat="46.46896" lon="8.24392">
        <ele>1316</ele>
        <time>2020-07-16T14:25:34.578Z</time>
      </trkpt>
      <trkpt lat="46.46896" lon="8.24391">
        <ele>1317</ele>
        <time>2020-07-16T14:25:35.578Z</time>
      </trkpt>
      <trkpt lat="46.46895" lon="8.2439">
        <ele>1317</ele>
        <time>2020-07-16T14:25:36.578Z</time>
      </trkpt>
      <trkpt lat="46.46895" lon="8.24388">
        <ele>1317</ele>
        <time>2020-07-16T14:25:37.578Z</time>
      </trkpt>
      <trkpt lat="46.46894" lon="8.24388">
        <ele>1318</ele>
        <time>2020-07-16T14:25:38.578Z</time>
      </trkpt>
      <trkpt lat="46.46894" lon="8.24387">
        <ele>1318</ele>
        <time>2020-07-16T14:25:39.577Z</time>
      </trkpt>
      <trkpt lat="46.46893" lon="8.24387">
        <ele>1318</ele>
        <time>2020-07-16T14:25:40.578Z</time>
      </trkpt>
      <trkpt lat="46.46893" lon="8.24387">
        <ele>1318</ele>
        <time>2020-07-16T14:25:41.578Z</time>
      </trkpt>
      <trkpt lat="46.46893" lon="8.24386">
        <ele>1318</ele>
        <time>2020-07-16T14:25:42.578Z</time>
      </trkpt>
      <trkpt lat="46.46893" lon="8.24385">
        <ele>1318</ele>
        <time>2020-07-16T14:25:43.578Z</time>
      </trkpt>
      <trkpt lat="46.46893" lon="8.24383">
        <ele>1319</ele>
        <time>2020-07-16T14:25:44.577Z</time>
      </trkpt>
      <trkpt lat="46.46894" lon="8.24382">
        <ele>1319</ele>
        <time>2020-07-16T14:25:45.578Z</time>
      </trkpt>
      <trkpt lat="46.46894" lon="8.24381">
        <ele>1319</ele>
        <time>2020-07-16T14:25:46.578Z</time>
      </trkpt>
      <trkpt lat="46.46895" lon="8.24381">
        <ele>1319</ele>
        <time>2020-07-16T14:25:47.578Z</time>
      </trkpt>
      <trkpt lat="46.46895" lon="8.24381">
        <ele>1320</ele>
        <time>2020-07-16T14:25:48.578Z</time>
      </trkpt>
      <trkpt lat="46.46895" lon="8.2438">
        <ele>1320</ele>
        <time>2020-07-16T14:25:49.577Z</time>
      </trkpt>
      <trkpt lat="46.46895" lon="8.24379">
        <ele>1320</ele>
        <time>2020-07-16T14:25:50.577Z</time>
      </trkpt>
      <trkpt lat="46.46896" lon="8.24378">
        <ele>1320</ele>
        <time>2020-07-16T14:25:51.578Z</time>
      </trkpt>
      <trkpt lat="46.46896" lon="8.24378">
        <ele>1320</ele>
        <time>2020-07-16T14:25:52.578Z</time>
      </trkpt>
      <trkpt lat="46.46896" lon="8.24378">
        <ele>1321</ele>
        <time>2020-07-16T14:25:53.577Z</time>
      </trkpt>
      <trkpt lat="46.46898" lon="8.24377">
        <ele>1322</ele>
        <time>2020-07-16T14:25:55.579Z</time>
      </trkpt>
      <trkpt lat="46.46894" lon="8.24373">
        <ele>1329</ele>
        <time>2020-07-16T14:25:56.580Z</time>
      </trkpt>
      <trkpt lat="46.46893" lon="8.24372">
        <ele>1330</ele>
        <time>2020-07-16T14:25:57.581Z</time>
      </trkpt>
      <trkpt lat="46.46892" lon="8.24372">
        <ele>1330</ele>
        <time>2020-07-16T14:25:58.580Z</time>
      </trkpt>
      <trkpt lat="46.4689" lon="8.24372">
        <ele>1339</ele>
        <time>2020-07-16T14:25:59.581Z</time>
      </trkpt>
      <trkpt lat="46.4689" lon="8.24372">
        <ele>1340</ele>
        <time>2020-07-16T14:26:00.582Z</time>
      </trkpt>
      <trkpt lat="46.46891" lon="8.24372">
        <ele>1340</ele>
        <time>2020-07-16T14:26:01.581Z</time>
      </trkpt>
      <trkpt lat="46.46891" lon="8.24372">
        <ele>1340</ele>
        <time>2020-07-16T14:26:02.582Z</time>
      </trkpt>
      <trkpt lat="46.46891" lon="8.24371">
        <ele>1340</ele>
        <time>2020-07-16T14:26:03.582Z</time>
      </trkpt>
      <trkpt lat="46.46891" lon="8.24371">
        <ele>1340</ele>
        <time>2020-07-16T14:26:04.582Z</time>
      </trkpt>
      <trkpt lat="46.46888" lon="8.24368">
        <ele>1340</ele>
        <time>2020-07-16T14:26:05.582Z</time>
      </trkpt>
      <trkpt lat="46.46888" lon="8.24368">
        <ele>1340</ele>
        <time>2020-07-16T14:26:06.583Z</time>
      </trkpt>
      <trkpt lat="46.46888" lon="8.24369">
        <ele>1339</ele>
        <time>2020-07-16T14:26:07.582Z</time>
      </trkpt>
      <trkpt lat="46.46888" lon="8.24369">
        <ele>1339</ele>
        <time>2020-07-16T14:26:08.583Z</time>
      </trkpt>
      <trkpt lat="46.46889" lon="8.24369">
        <ele>1336</ele>
        <time>2020-07-16T14:26:09.584Z</time>
      </trkpt>
      <trkpt lat="46.4689" lon="8.24369">
        <ele>1336</ele>
        <time>2020-07-16T14:26:10.584Z</time>
      </trkpt>
      <trkpt lat="46.46891" lon="8.24369">
        <ele>1336</ele>
        <time>2020-07-16T14:26:11.584Z</time>
      </trkpt>
      <trkpt lat="46.46892" lon="8.24369">
        <ele>1335</ele>
        <time>2020-07-16T14:26:12.584Z</time>
      </trkpt>
      <trkpt lat="46.46893" lon="8.24369">
        <ele>1334</ele>
        <time>2020-07-16T14:26:13.584Z</time>
      </trkpt>
      <trkpt lat="46.46894" lon="8.24369">
        <ele>1334</ele>
        <time>2020-07-16T14:26:14.583Z</time>
      </trkpt>
      <trkpt lat="46.46895" lon="8.24368">
        <ele>1333</ele>
        <time>2020-07-16T14:26:15.584Z</time>
      </trkpt>
      <trkpt lat="46.46896" lon="8.24367">
        <ele>1332</ele>
        <time>2020-07-16T14:26:16.584Z</time>
      </trkpt>
      <trkpt lat="46.46898" lon="8.24368">
        <ele>1332</ele>
        <time>2020-07-16T14:26:17.583Z</time>
      </trkpt>
      <trkpt lat="46.46899" lon="8.24369">
        <ele>1330</ele>
        <time>2020-07-16T14:26:18.584Z</time>
      </trkpt>
      <trkpt lat="46.469" lon="8.2437">
        <ele>1329</ele>
        <time>2020-07-16T14:26:19.583Z</time>
      </trkpt>
      <trkpt lat="46.46901" lon="8.24371">
        <ele>1326</ele>
        <time>2020-07-16T14:26:20.583Z</time>
      </trkpt>
      <trkpt lat="46.46901" lon="8.2437">
        <ele>1326</ele>
        <time>2020-07-16T14:26:21.583Z</time>
      </trkpt>
      <trkpt lat="46.46901" lon="8.2437">
        <ele>1325</ele>
        <time>2020-07-16T14:26:22.583Z</time>
      </trkpt>
      <trkpt lat="46.46901" lon="8.2437">
        <ele>1325</ele>
        <time>2020-07-16T14:26:23.583Z</time>
      </trkpt>
      <trkpt lat="46.46901" lon="8.24369">
        <ele>1325</ele>
        <time>2020-07-16T14:26:24.583Z</time>
      </trkpt>
      <trkpt lat="46.46902" lon="8.2437">
        <ele>1325</ele>
        <time>2020-07-16T14:26:25.583Z</time>
      </trkpt>
      <trkpt lat="46.46903" lon="8.2437">
        <ele>1324</ele>
        <time>2020-07-16T14:26:26.584Z</time>
      </trkpt>
      <trkpt lat="46.46904" lon="8.2437">
        <ele>1324</ele>
        <time>2020-07-16T14:26:27.584Z</time>
      </trkpt>
      <trkpt lat="46.46905" lon="8.2437">
        <ele>1324</ele>
        <time>2020-07-16T14:26:28.584Z</time>
      </trkpt>
      <trkpt lat="46.46906" lon="8.2437">
        <ele>1324</ele>
        <time>2020-07-16T14:26:29.584Z</time>
      </trkpt>
      <trkpt lat="46.46906" lon="8.2437">
        <ele>1323</ele>
        <time>2020-07-16T14:26:30.584Z</time>
      </trkpt>
      <trkpt lat="46.46908" lon="8.24372">
        <ele>1321</ele>
        <time>2020-07-16T14:26:31.584Z</time>
      </trkpt>
      <trkpt lat="46.46908" lon="8.24372">
        <ele>1321</ele>
        <time>2020-07-16T14:26:32.585Z</time>
      </trkpt>
      <trkpt lat="46.46908" lon="8.24373">
        <ele>1321</ele>
        <time>2020-07-16T14:26:33.585Z</time>
      </trkpt>
      <trkpt lat="46.46908" lon="8.24373">
        <ele>1321</ele>
        <time>2020-07-16T14:26:34.585Z</time>
      </trkpt>
      <trkpt lat="46.46909" lon="8.24375">
        <ele>1321</ele>
        <time>2020-07-16T14:26:35.584Z</time>
      </trkpt>
      <trkpt lat="46.46909" lon="8.24375">
        <ele>1321</ele>
        <time>2020-07-16T14:26:36.584Z</time>
      </trkpt>
      <trkpt lat="46.46909" lon="8.24375">
        <ele>1322</ele>
        <time>2020-07-16T14:26:37.585Z</time>
      </trkpt>
      <trkpt lat="46.46909" lon="8.24376">
        <ele>1322</ele>
        <time>2020-07-16T14:26:38.584Z</time>
      </trkpt>
      <trkpt lat="46.46909" lon="8.24376">
        <ele>1322</ele>
        <time>2020-07-16T14:26:39.584Z</time>
      </trkpt>
      <trkpt lat="46.46907" lon="8.24375">
        <ele>1322</ele>
        <time>2020-07-16T14:26:46.644Z</time>
      </trkpt>
      <trkpt lat="46.46906" lon="8.24375">
        <ele>1322</ele>
        <time>2020-07-16T14:26:47.645Z</time>
      </trkpt>
      <trkpt lat="46.46907" lon="8.24371">
        <ele>1320</ele>
        <time>2020-07-16T14:26:48.644Z</time>
      </trkpt>
      <trkpt lat="46.46907" lon="8.24371">
        <ele>1321</ele>
        <time>2020-07-16T14:26:49.645Z</time>
      </trkpt>
      <trkpt lat="46.46907" lon="8.2437">
        <ele>1321</ele>
        <time>2020-07-16T14:26:50.644Z</time>
      </trkpt>
      <trkpt lat="46.46909" lon="8.24369">
        <ele>1321</ele>
        <time>2020-07-16T14:26:51.646Z</time>
      </trkpt>
      <trkpt lat="46.46909" lon="8.24368">
        <ele>1321</ele>
        <time>2020-07-16T14:26:52.646Z</time>
      </trkpt>
      <trkpt lat="46.46909" lon="8.24368">
        <ele>1321</ele>
        <time>2020-07-16T14:26:53.645Z</time>
      </trkpt>
      <trkpt lat="46.46908" lon="8.24369">
        <ele>1322</ele>
        <time>2020-07-16T14:26:54.645Z</time>
      </trkpt>
      <trkpt lat="46.46909" lon="8.24369">
        <ele>1322</ele>
        <time>2020-07-16T14:26:55.646Z</time>
      </trkpt>
      <trkpt lat="46.4691" lon="8.2437">
        <ele>1323</ele>
        <time>2020-07-16T14:26:56.645Z</time>
      </trkpt>
      <trkpt lat="46.46911" lon="8.24371">
        <ele>1323</ele>
        <time>2020-07-16T14:26:57.646Z</time>
      </trkpt>
      <trkpt lat="46.46912" lon="8.24371">
        <ele>1323</ele>
        <time>2020-07-16T14:26:58.646Z</time>
      </trkpt>
      <trkpt lat="46.46913" lon="8.2437">
        <ele>1323</ele>
        <time>2020-07-16T14:26:59.645Z</time>
      </trkpt>
      <trkpt lat="46.46914" lon="8.24369">
        <ele>1322</ele>
        <time>2020-07-16T14:27:00.646Z</time>
      </trkpt>
      <trkpt lat="46.46916" lon="8.24368">
        <ele>1322</ele>
        <time>2020-07-16T14:27:01.645Z</time>
      </trkpt>
      <trkpt lat="46.46916" lon="8.24369">
        <ele>1321</ele>
        <time>2020-07-16T14:27:05.624Z</time>
      </trkpt>
      <trkpt lat="46.46917" lon="8.2437">
        <ele>1321</ele>
        <time>2020-07-16T14:27:06.624Z</time>
      </trkpt>
      <trkpt lat="46.46917" lon="8.24371">
        <ele>1321</ele>
        <time>2020-07-16T14:27:07.623Z</time>
      </trkpt>
      <trkpt lat="46.46918" lon="8.24373">
        <ele>1320</ele>
        <time>2020-07-16T14:27:08.624Z</time>
      </trkpt>
      <trkpt lat="46.46919" lon="8.24374">
        <ele>1320</ele>
        <time>2020-07-16T14:27:09.623Z</time>
      </trkpt>
      <trkpt lat="46.46919" lon="8.24376">
        <ele>1320</ele>
        <time>2020-07-16T14:27:10.624Z</time>
      </trkpt>
      <trkpt lat="46.4692" lon="8.24377">
        <ele>1319</ele>
        <time>2020-07-16T14:27:11.624Z</time>
      </trkpt>
      <trkpt lat="46.46921" lon="8.24378">
        <ele>1319</ele>
        <time>2020-07-16T14:27:12.624Z</time>
      </trkpt>
      <trkpt lat="46.46921" lon="8.24379">
        <ele>1318</ele>
        <time>2020-07-16T14:27:13.623Z</time>
      </trkpt>
      <trkpt lat="46.46921" lon="8.24381">
        <ele>1318</ele>
        <time>2020-07-16T14:27:14.624Z</time>
      </trkpt>
      <trkpt lat="46.46924" lon="8.2438">
        <ele>1318</ele>
        <time>2020-07-16T14:27:15.624Z</time>
      </trkpt>
      <trkpt lat="46.46927" lon="8.24379">
        <ele>1318</ele>
        <time>2020-07-16T14:27:16.624Z</time>
      </trkpt>
      <trkpt lat="46.46929" lon="8.24378">
        <ele>1318</ele>
        <time>2020-07-16T14:27:17.623Z</time>
      </trkpt>
      <trkpt lat="46.46933" lon="8.24377">
        <ele>1317</ele>
        <time>2020-07-16T14:27:18.624Z</time>
      </trkpt>
      <trkpt lat="46.46935" lon="8.24376">
        <ele>1317</ele>
        <time>2020-07-16T14:27:19.624Z</time>
      </trkpt>
      <trkpt lat="46.46936" lon="8.24377">
        <ele>1317</ele>
        <time>2020-07-16T14:27:20.623Z</time>
      </trkpt>
      <trkpt lat="46.46936" lon="8.24379">
        <ele>1318</ele>
        <time>2020-07-16T14:27:21.623Z</time>
      </trkpt>
      <trkpt lat="46.46936" lon="8.24381">
        <ele>1318</ele>
        <time>2020-07-16T14:27:22.623Z</time>
      </trkpt>
      <trkpt lat="46.46935" lon="8.24383">
        <ele>1319</ele>
        <time>2020-07-16T14:27:23.624Z</time>
      </trkpt>
      <trkpt lat="46.46936" lon="8.24385">
        <ele>1320</ele>
        <time>2020-07-16T14:27:24.624Z</time>
      </trkpt>
      <trkpt lat="46.46936" lon="8.24387">
        <ele>1320</ele>
        <time>2020-07-16T14:27:25.623Z</time>
      </trkpt>
      <trkpt lat="46.46937" lon="8.24388">
        <ele>1321</ele>
        <time>2020-07-16T14:27:26.623Z</time>
      </trkpt>
      <trkpt lat="46.46938" lon="8.2439">
        <ele>1321</ele>
        <time>2020-07-16T14:27:27.623Z</time>
      </trkpt>
      <trkpt lat="46.46938" lon="8.24391">
        <ele>1321</ele>
        <time>2020-07-16T14:27:28.624Z</time>
      </trkpt>
      <trkpt lat="46.46939" lon="8.24393">
        <ele>1321</ele>
        <time>2020-07-16T14:27:29.623Z</time>
      </trkpt>
      <trkpt lat="46.46939" lon="8.24394">
        <ele>1321</ele>
        <time>2020-07-16T14:27:30.624Z</time>
      </trkpt>
      <trkpt lat="46.4694" lon="8.24396">
        <ele>1321</ele>
        <time>2020-07-16T14:27:31.624Z</time>
      </trkpt>
      <trkpt lat="46.4694" lon="8.24398">
        <ele>1320</ele>
        <time>2020-07-16T14:27:32.624Z</time>
      </trkpt>
      <trkpt lat="46.46939" lon="8.244">
        <ele>1320</ele>
        <time>2020-07-16T14:27:33.624Z</time>
      </trkpt>
      <trkpt lat="46.4694" lon="8.24402">
        <ele>1320</ele>
        <time>2020-07-16T14:27:34.623Z</time>
      </trkpt>
      <trkpt lat="46.4694" lon="8.24403">
        <ele>1319</ele>
        <time>2020-07-16T14:27:35.624Z</time>
      </trkpt>
      <trkpt lat="46.46941" lon="8.24405">
        <ele>1319</ele>
        <time>2020-07-16T14:27:36.623Z</time>
      </trkpt>
      <trkpt lat="46.46941" lon="8.24407">
        <ele>1319</ele>
        <time>2020-07-16T14:27:37.624Z</time>
      </trkpt>
      <trkpt lat="46.46941" lon="8.24409">
        <ele>1319</ele>
        <time>2020-07-16T14:27:38.623Z</time>
      </trkpt>
      <trkpt lat="46.46941" lon="8.24411">
        <ele>1319</ele>
        <time>2020-07-16T14:27:39.624Z</time>
      </trkpt>
      <trkpt lat="46.46941" lon="8.24412">
        <ele>1319</ele>
        <time>2020-07-16T14:27:40.624Z</time>
      </trkpt>
      <trkpt lat="46.46941" lon="8.24413">
        <ele>1320</ele>
        <time>2020-07-16T14:27:41.623Z</time>
      </trkpt>
      <trkpt lat="46.46941" lon="8.24415">
        <ele>1321</ele>
        <time>2020-07-16T14:27:42.624Z</time>
      </trkpt>
      <trkpt lat="46.4694" lon="8.24417">
        <ele>1321</ele>
        <time>2020-07-16T14:27:43.624Z</time>
      </trkpt>
      <trkpt lat="46.4694" lon="8.24418">
        <ele>1321</ele>
        <time>2020-07-16T14:27:44.624Z</time>
      </trkpt>
      <trkpt lat="46.4694" lon="8.2442">
        <ele>1321</ele>
        <time>2020-07-16T14:27:45.624Z</time>
      </trkpt>
      <trkpt lat="46.4694" lon="8.24423">
        <ele>1321</ele>
        <time>2020-07-16T14:27:46.623Z</time>
      </trkpt>
      <trkpt lat="46.4694" lon="8.24425">
        <ele>1321</ele>
        <time>2020-07-16T14:27:47.624Z</time>
      </trkpt>
      <trkpt lat="46.4694" lon="8.24426">
        <ele>1322</ele>
        <time>2020-07-16T14:27:48.624Z</time>
      </trkpt>
      <trkpt lat="46.46941" lon="8.24427">
        <ele>1322</ele>
        <time>2020-07-16T14:27:49.623Z</time>
      </trkpt>
      <trkpt lat="46.46942" lon="8.24429">
        <ele>1322</ele>
        <time>2020-07-16T14:27:50.623Z</time>
      </trkpt>
      <trkpt lat="46.46942" lon="8.24431">
        <ele>1322</ele>
        <time>2020-07-16T14:27:51.623Z</time>
      </trkpt>
      <trkpt lat="46.46942" lon="8.24433">
        <ele>1321</ele>
        <time>2020-07-16T14:27:52.624Z</time>
      </trkpt>
      <trkpt lat="46.46943" lon="8.24434">
        <ele>1321</ele>
        <time>2020-07-16T14:27:53.624Z</time>
      </trkpt>
      <trkpt lat="46.46943" lon="8.24436">
        <ele>1320</ele>
        <time>2020-07-16T14:27:54.624Z</time>
      </trkpt>
      <trkpt lat="46.46943" lon="8.24438">
        <ele>1320</ele>
        <time>2020-07-16T14:27:55.624Z</time>
      </trkpt>
      <trkpt lat="46.46943" lon="8.24439">
        <ele>1319</ele>
        <time>2020-07-16T14:27:56.623Z</time>
      </trkpt>
      <trkpt lat="46.46943" lon="8.24441">
        <ele>1319</ele>
        <time>2020-07-16T14:27:57.624Z</time>
      </trkpt>
      <trkpt lat="46.46944" lon="8.24442">
        <ele>1319</ele>
        <time>2020-07-16T14:27:58.624Z</time>
      </trkpt>
      <trkpt lat="46.46944" lon="8.24443">
        <ele>1319</ele>
        <time>2020-07-16T14:27:59.624Z</time>
      </trkpt>
      <trkpt lat="46.46945" lon="8.24444">
        <ele>1318</ele>
        <time>2020-07-16T14:28:13.627Z</time>
      </trkpt>
      <trkpt lat="46.46945" lon="8.24446">
        <ele>1318</ele>
        <time>2020-07-16T14:28:14.627Z</time>
      </trkpt>
      <trkpt lat="46.46946" lon="8.24447">
        <ele>1318</ele>
        <time>2020-07-16T14:28:15.628Z</time>
      </trkpt>
      <trkpt lat="46.46946" lon="8.24449">
        <ele>1318</ele>
        <time>2020-07-16T14:28:16.628Z</time>
      </trkpt>
      <trkpt lat="46.46946" lon="8.24451">
        <ele>1318</ele>
        <time>2020-07-16T14:28:17.627Z</time>
      </trkpt>
      <trkpt lat="46.46947" lon="8.24452">
        <ele>1318</ele>
        <time>2020-07-16T14:28:18.628Z</time>
      </trkpt>
      <trkpt lat="46.46947" lon="8.24454">
        <ele>1317</ele>
        <time>2020-07-16T14:28:19.627Z</time>
      </trkpt>
      <trkpt lat="46.46947" lon="8.24455">
        <ele>1317</ele>
        <time>2020-07-16T14:28:20.628Z</time>
      </trkpt>
      <trkpt lat="46.46948" lon="8.24456">
        <ele>1317</ele>
        <time>2020-07-16T14:28:21.628Z</time>
      </trkpt>
      <trkpt lat="46.46948" lon="8.24457">
        <ele>1316</ele>
        <time>2020-07-16T14:28:22.628Z</time>
      </trkpt>
      <trkpt lat="46.46948" lon="8.24458">
        <ele>1316</ele>
        <time>2020-07-16T14:28:23.628Z</time>
      </trkpt>
      <trkpt lat="46.46949" lon="8.2446">
        <ele>1315</ele>
        <time>2020-07-16T14:28:24.627Z</time>
      </trkpt>
      <trkpt lat="46.46949" lon="8.24461">
        <ele>1315</ele>
        <time>2020-07-16T14:28:25.628Z</time>
      </trkpt>
      <trkpt lat="46.46949" lon="8.24463">
        <ele>1315</ele>
        <time>2020-07-16T14:28:26.628Z</time>
      </trkpt>
      <trkpt lat="46.46949" lon="8.24464">
        <ele>1314</ele>
        <time>2020-07-16T14:28:27.628Z</time>
      </trkpt>
      <trkpt lat="46.46948" lon="8.24465">
        <ele>1314</ele>
        <time>2020-07-16T14:28:28.628Z</time>
      </trkpt>
      <trkpt lat="46.46948" lon="8.24466">
        <ele>1314</ele>
        <time>2020-07-16T14:28:29.627Z</time>
      </trkpt>
      <trkpt lat="46.46948" lon="8.24468">
        <ele>1314</ele>
        <time>2020-07-16T14:28:30.628Z</time>
      </trkpt>
      <trkpt lat="46.46948" lon="8.2447">
        <ele>1314</ele>
        <time>2020-07-16T14:28:31.628Z</time>
      </trkpt>
      <trkpt lat="46.46948" lon="8.24472">
        <ele>1314</ele>
        <time>2020-07-16T14:28:32.627Z</time>
      </trkpt>
      <trkpt lat="46.46948" lon="8.24473">
        <ele>1314</ele>
        <time>2020-07-16T14:28:33.628Z</time>
      </trkpt>
      <trkpt lat="46.46948" lon="8.24475">
        <ele>1314</ele>
        <time>2020-07-16T14:28:34.628Z</time>
      </trkpt>
      <trkpt lat="46.46948" lon="8.24477">
        <ele>1314</ele>
        <time>2020-07-16T14:28:35.628Z</time>
      </trkpt>
      <trkpt lat="46.46948" lon="8.24479">
        <ele>1313</ele>
        <time>2020-07-16T14:28:36.628Z</time>
      </trkpt>
      <trkpt lat="46.46948" lon="8.24481">
        <ele>1313</ele>
        <time>2020-07-16T14:28:37.628Z</time>
      </trkpt>
      <trkpt lat="46.46948" lon="8.24483">
        <ele>1313</ele>
        <time>2020-07-16T14:28:38.628Z</time>
      </trkpt>
      <trkpt lat="46.46948" lon="8.24485">
        <ele>1313</ele>
        <time>2020-07-16T14:28:39.627Z</time>
      </trkpt>
      <trkpt lat="46.46948" lon="8.24487">
        <ele>1313</ele>
        <time>2020-07-16T14:28:40.628Z</time>
      </trkpt>
      <trkpt lat="46.46948" lon="8.24489">
        <ele>1314</ele>
        <time>2020-07-16T14:28:41.628Z</time>
      </trkpt>
      <trkpt lat="46.46948" lon="8.24491">
        <ele>1314</ele>
        <time>2020-07-16T14:28:42.628Z</time>
      </trkpt>
      <trkpt lat="46.46948" lon="8.24492">
        <ele>1314</ele>
        <time>2020-07-16T14:28:43.628Z</time>
      </trkpt>
      <trkpt lat="46.46948" lon="8.24494">
        <ele>1315</ele>
        <time>2020-07-16T14:28:44.628Z</time>
      </trkpt>
      <trkpt lat="46.46947" lon="8.24496">
        <ele>1315</ele>
        <time>2020-07-16T14:28:45.628Z</time>
      </trkpt>
      <trkpt lat="46.46947" lon="8.24496">
        <ele>1315</ele>
        <time>2020-07-16T14:28:46.628Z</time>
      </trkpt>
      <trkpt lat="46.46946" lon="8.24497">
        <ele>1315</ele>
        <time>2020-07-16T14:28:47.628Z</time>
      </trkpt>
      <trkpt lat="46.46946" lon="8.24498">
        <ele>1315</ele>
        <time>2020-07-16T14:28:48.628Z</time>
      </trkpt>
      <trkpt lat="46.46946" lon="8.24501">
        <ele>1315</ele>
        <time>2020-07-16T14:28:49.628Z</time>
      </trkpt>
      <trkpt lat="46.46947" lon="8.24503">
        <ele>1316</ele>
        <time>2020-07-16T14:28:50.627Z</time>
      </trkpt>
      <trkpt lat="46.46947" lon="8.24505">
        <ele>1316</ele>
        <time>2020-07-16T14:28:51.627Z</time>
      </trkpt>
      <trkpt lat="46.46947" lon="8.24507">
        <ele>1316</ele>
        <time>2020-07-16T14:28:52.628Z</time>
      </trkpt>
      <trkpt lat="46.46948" lon="8.24509">
        <ele>1316</ele>
        <time>2020-07-16T14:28:53.628Z</time>
      </trkpt>
      <trkpt lat="46.46948" lon="8.24512">
        <ele>1316</ele>
        <time>2020-07-16T14:28:54.627Z</time>
      </trkpt>
      <trkpt lat="46.46949" lon="8.24514">
        <ele>1316</ele>
        <time>2020-07-16T14:28:55.627Z</time>
      </trkpt>
      <trkpt lat="46.4695" lon="8.24516">
        <ele>1316</ele>
        <time>2020-07-16T14:28:56.628Z</time>
      </trkpt>
      <trkpt lat="46.4695" lon="8.24518">
        <ele>1315</ele>
        <time>2020-07-16T14:28:57.628Z</time>
      </trkpt>
      <trkpt lat="46.4695" lon="8.2452">
        <ele>1315</ele>
        <time>2020-07-16T14:28:58.628Z</time>
      </trkpt>
      <trkpt lat="46.4695" lon="8.24522">
        <ele>1315</ele>
        <time>2020-07-16T14:28:59.628Z</time>
      </trkpt>
      <trkpt lat="46.4695" lon="8.24525">
        <ele>1315</ele>
        <time>2020-07-16T14:29:00.628Z</time>
      </trkpt>
      <trkpt lat="46.4695" lon="8.24527">
        <ele>1315</ele>
        <time>2020-07-16T14:29:01.628Z</time>
      </trkpt>
      <trkpt lat="46.46951" lon="8.24528">
        <ele>1315</ele>
        <time>2020-07-16T14:29:02.628Z</time>
      </trkpt>
      <trkpt lat="46.46951" lon="8.24529">
        <ele>1316</ele>
        <time>2020-07-16T14:29:03.627Z</time>
      </trkpt>
      <trkpt lat="46.46952" lon="8.24529">
        <ele>1316</ele>
        <time>2020-07-16T14:29:04.627Z</time>
      </trkpt>
      <trkpt lat="46.46953" lon="8.2453">
        <ele>1316</ele>
        <time>2020-07-16T14:29:05.628Z</time>
      </trkpt>
      <trkpt lat="46.46954" lon="8.2453">
        <ele>1316</ele>
        <time>2020-07-16T14:29:06.628Z</time>
      </trkpt>
      <trkpt lat="46.46954" lon="8.24531">
        <ele>1315</ele>
        <time>2020-07-16T14:29:10.773Z</time>
      </trkpt>
      <trkpt lat="46.46955" lon="8.24532">
        <ele>1315</ele>
        <time>2020-07-16T14:29:11.773Z</time>
      </trkpt>
      <trkpt lat="46.46955" lon="8.24533">
        <ele>1315</ele>
        <time>2020-07-16T14:29:12.773Z</time>
      </trkpt>
      <trkpt lat="46.46956" lon="8.24534">
        <ele>1314</ele>
        <time>2020-07-16T14:29:13.772Z</time>
      </trkpt>
      <trkpt lat="46.46956" lon="8.24536">
        <ele>1314</ele>
        <time>2020-07-16T14:29:14.772Z</time>
      </trkpt>
      <trkpt lat="46.46956" lon="8.24537">
        <ele>1314</ele>
        <time>2020-07-16T14:29:15.773Z</time>
      </trkpt>
      <trkpt lat="46.46956" lon="8.24538">
        <ele>1314</ele>
        <time>2020-07-16T14:29:16.772Z</time>
      </trkpt>
      <trkpt lat="46.46956" lon="8.24538">
        <ele>1314</ele>
        <time>2020-07-16T14:29:17.773Z</time>
      </trkpt>
      <trkpt lat="46.46957" lon="8.2454">
        <ele>1313</ele>
        <time>2020-07-16T14:29:18.772Z</time>
      </trkpt>
      <trkpt lat="46.46957" lon="8.24541">
        <ele>1313</ele>
        <time>2020-07-16T14:29:19.772Z</time>
      </trkpt>
      <trkpt lat="46.46958" lon="8.24543">
        <ele>1313</ele>
        <time>2020-07-16T14:29:20.773Z</time>
      </trkpt>
      <trkpt lat="46.46958" lon="8.24544">
        <ele>1313</ele>
        <time>2020-07-16T14:29:21.773Z</time>
      </trkpt>
      <trkpt lat="46.46958" lon="8.24546">
        <ele>1314</ele>
        <time>2020-07-16T14:29:22.773Z</time>
      </trkpt>
      <trkpt lat="46.46958" lon="8.24547">
        <ele>1314</ele>
        <time>2020-07-16T14:29:23.773Z</time>
      </trkpt>
      <trkpt lat="46.46958" lon="8.24548">
        <ele>1314</ele>
        <time>2020-07-16T14:29:24.772Z</time>
      </trkpt>
      <trkpt lat="46.46958" lon="8.24548">
        <ele>1314</ele>
        <time>2020-07-16T14:29:25.773Z</time>
      </trkpt>
      <trkpt lat="46.46959" lon="8.24549">
        <ele>1314</ele>
        <time>2020-07-16T14:29:26.772Z</time>
      </trkpt>
      <trkpt lat="46.46959" lon="8.2455">
        <ele>1314</ele>
        <time>2020-07-16T14:29:27.773Z</time>
      </trkpt>
      <trkpt lat="46.46959" lon="8.24552">
        <ele>1314</ele>
        <time>2020-07-16T14:29:28.773Z</time>
      </trkpt>
      <trkpt lat="46.46959" lon="8.24553">
        <ele>1314</ele>
        <time>2020-07-16T14:29:29.773Z</time>
      </trkpt>
      <trkpt lat="46.4696" lon="8.24555">
        <ele>1314</ele>
        <time>2020-07-16T14:29:30.772Z</time>
      </trkpt>
      <trkpt lat="46.4696" lon="8.24557">
        <ele>1314</ele>
        <time>2020-07-16T14:29:31.773Z</time>
      </trkpt>
      <trkpt lat="46.4696" lon="8.24558">
        <ele>1314</ele>
        <time>2020-07-16T14:29:32.772Z</time>
      </trkpt>
      <trkpt lat="46.4696" lon="8.2456">
        <ele>1314</ele>
        <time>2020-07-16T14:29:33.773Z</time>
      </trkpt>
      <trkpt lat="46.46961" lon="8.24562">
        <ele>1314</ele>
        <time>2020-07-16T14:29:34.772Z</time>
      </trkpt>
      <trkpt lat="46.46961" lon="8.24564">
        <ele>1314</ele>
        <time>2020-07-16T14:29:35.773Z</time>
      </trkpt>
      <trkpt lat="46.46961" lon="8.24566">
        <ele>1314</ele>
        <time>2020-07-16T14:29:36.773Z</time>
      </trkpt>
      <trkpt lat="46.46961" lon="8.24569">
        <ele>1314</ele>
        <time>2020-07-16T14:29:37.773Z</time>
      </trkpt>
      <trkpt lat="46.46962" lon="8.24568">
        <ele>1314</ele>
        <time>2020-07-16T14:29:38.773Z</time>
      </trkpt>
      <trkpt lat="46.46962" lon="8.24569">
        <ele>1314</ele>
        <time>2020-07-16T14:29:39.772Z</time>
      </trkpt>
      <trkpt lat="46.46961" lon="8.24571">
        <ele>1314</ele>
        <time>2020-07-16T14:29:40.773Z</time>
      </trkpt>
      <trkpt lat="46.4696" lon="8.24574">
        <ele>1315</ele>
        <time>2020-07-16T14:29:41.772Z</time>
      </trkpt>
      <trkpt lat="46.46959" lon="8.24577">
        <ele>1315</ele>
        <time>2020-07-16T14:29:42.773Z</time>
      </trkpt>
      <trkpt lat="46.46959" lon="8.24578">
        <ele>1315</ele>
        <time>2020-07-16T14:29:43.773Z</time>
      </trkpt>
      <trkpt lat="46.46958" lon="8.24581">
        <ele>1316</ele>
        <time>2020-07-16T14:29:54.761Z</time>
      </trkpt>
      <trkpt lat="46.46958" lon="8.24584">
        <ele>1317</ele>
        <time>2020-07-16T14:29:55.761Z</time>
      </trkpt>
      <trkpt lat="46.46959" lon="8.24585">
        <ele>1318</ele>
        <time>2020-07-16T14:29:56.761Z</time>
      </trkpt>
      <trkpt lat="46.4696" lon="8.24586">
        <ele>1318</ele>
        <time>2020-07-16T14:29:57.761Z</time>
      </trkpt>
      <trkpt lat="46.46961" lon="8.24586">
        <ele>1319</ele>
        <time>2020-07-16T14:29:58.761Z</time>
      </trkpt>
      <trkpt lat="46.46962" lon="8.24587">
        <ele>1320</ele>
        <time>2020-07-16T14:30:15.759Z</time>
      </trkpt>
      <trkpt lat="46.46962" lon="8.24588">
        <ele>1321</ele>
        <time>2020-07-16T14:30:16.759Z</time>
      </trkpt>
      <trkpt lat="46.46962" lon="8.24589">
        <ele>1321</ele>
        <time>2020-07-16T14:30:17.759Z</time>
      </trkpt>
      <trkpt lat="46.46963" lon="8.2459">
        <ele>1322</ele>
        <time>2020-07-16T14:30:18.760Z</time>
      </trkpt>
      <trkpt lat="46.46963" lon="8.24591">
        <ele>1322</ele>
        <time>2020-07-16T14:30:19.760Z</time>
      </trkpt>
      <trkpt lat="46.46964" lon="8.24592">
        <ele>1323</ele>
        <time>2020-07-16T14:30:20.760Z</time>
      </trkpt>
      <trkpt lat="46.46964" lon="8.24594">
        <ele>1323</ele>
        <time>2020-07-16T14:30:21.760Z</time>
      </trkpt>
      <trkpt lat="46.46965" lon="8.24595">
        <ele>1323</ele>
        <time>2020-07-16T14:30:22.760Z</time>
      </trkpt>
      <trkpt lat="46.46964" lon="8.24598">
        <ele>1323</ele>
        <time>2020-07-16T14:30:23.760Z</time>
      </trkpt>
      <trkpt lat="46.46962" lon="8.24602">
        <ele>1323</ele>
        <time>2020-07-16T14:30:24.759Z</time>
      </trkpt>
      <trkpt lat="46.46962" lon="8.24605">
        <ele>1323</ele>
        <time>2020-07-16T14:30:25.760Z</time>
      </trkpt>
      <trkpt lat="46.46961" lon="8.24607">
        <ele>1323</ele>
        <time>2020-07-16T14:30:26.760Z</time>
      </trkpt>
      <trkpt lat="46.46961" lon="8.24609">
        <ele>1323</ele>
        <time>2020-07-16T14:30:27.760Z</time>
      </trkpt>
      <trkpt lat="46.46961" lon="8.2461">
        <ele>1323</ele>
        <time>2020-07-16T14:30:28.760Z</time>
      </trkpt>
      <trkpt lat="46.46962" lon="8.24612">
        <ele>1323</ele>
        <time>2020-07-16T14:30:29.759Z</time>
      </trkpt>
      <trkpt lat="46.46963" lon="8.24614">
        <ele>1323</ele>
        <time>2020-07-16T14:30:30.759Z</time>
      </trkpt>
      <trkpt lat="46.46963" lon="8.24615">
        <ele>1323</ele>
        <time>2020-07-16T14:30:31.760Z</time>
      </trkpt>
      <trkpt lat="46.46965" lon="8.24615">
        <ele>1323</ele>
        <time>2020-07-16T14:30:32.760Z</time>
      </trkpt>
      <trkpt lat="46.46965" lon="8.24615">
        <ele>1322</ele>
        <time>2020-07-16T14:30:33.760Z</time>
      </trkpt>
      <trkpt lat="46.46967" lon="8.24614">
        <ele>1322</ele>
        <time>2020-07-16T14:30:34.760Z</time>
      </trkpt>
      <trkpt lat="46.46967" lon="8.24615">
        <ele>1322</ele>
        <time>2020-07-16T14:30:35.760Z</time>
      </trkpt>
      <trkpt lat="46.46968" lon="8.24615">
        <ele>1321</ele>
        <time>2020-07-16T14:30:36.760Z</time>
      </trkpt>
      <trkpt lat="46.46968" lon="8.24616">
        <ele>1321</ele>
        <time>2020-07-16T14:30:37.760Z</time>
      </trkpt>
      <trkpt lat="46.46968" lon="8.24618">
        <ele>1321</ele>
        <time>2020-07-16T14:30:38.760Z</time>
      </trkpt>
      <trkpt lat="46.46969" lon="8.24619">
        <ele>1321</ele>
        <time>2020-07-16T14:30:39.760Z</time>
      </trkpt>
      <trkpt lat="46.4697" lon="8.2462">
        <ele>1321</ele>
        <time>2020-07-16T14:30:40.760Z</time>
      </trkpt>
      <trkpt lat="46.46971" lon="8.24622">
        <ele>1321</ele>
        <time>2020-07-16T14:30:46.781Z</time>
      </trkpt>
      <trkpt lat="46.46971" lon="8.24622">
        <ele>1321</ele>
        <time>2020-07-16T14:30:47.780Z</time>
      </trkpt>
      <trkpt lat="46.46972" lon="8.24622">
        <ele>1320</ele>
        <time>2020-07-16T14:30:48.781Z</time>
      </trkpt>
      <trkpt lat="46.46972" lon="8.24624">
        <ele>1320</ele>
        <time>2020-07-16T14:30:49.781Z</time>
      </trkpt>
      <trkpt lat="46.46973" lon="8.24625">
        <ele>1321</ele>
        <time>2020-07-16T14:30:50.781Z</time>
      </trkpt>
      <trkpt lat="46.46973" lon="8.24627">
        <ele>1321</ele>
        <time>2020-07-16T14:30:52.843Z</time>
      </trkpt>
      <trkpt lat="46.46973" lon="8.24629">
        <ele>1321</ele>
        <time>2020-07-16T14:30:53.843Z</time>
      </trkpt>
      <trkpt lat="46.46974" lon="8.2463">
        <ele>1321</ele>
        <time>2020-07-16T14:30:54.843Z</time>
      </trkpt>
      <trkpt lat="46.46974" lon="8.24631">
        <ele>1321</ele>
        <time>2020-07-16T14:31:03.884Z</time>
      </trkpt>
      <trkpt lat="46.46975" lon="8.24633">
        <ele>1320</ele>
        <time>2020-07-16T14:31:04.883Z</time>
      </trkpt>
      <trkpt lat="46.46975" lon="8.24634">
        <ele>1320</ele>
        <time>2020-07-16T14:31:05.884Z</time>
      </trkpt>
      <trkpt lat="46.46975" lon="8.24634">
        <ele>1319</ele>
        <time>2020-07-16T14:31:06.883Z</time>
      </trkpt>
      <trkpt lat="46.46976" lon="8.24634">
        <ele>1319</ele>
        <time>2020-07-16T14:31:07.884Z</time>
      </trkpt>
      <trkpt lat="46.46976" lon="8.24634">
        <ele>1319</ele>
        <time>2020-07-16T14:31:08.884Z</time>
      </trkpt>
      <trkpt lat="46.46977" lon="8.2463">
        <ele>1318</ele>
        <time>2020-07-16T14:31:14.008Z</time>
      </trkpt>
      <trkpt lat="46.46977" lon="8.2463">
        <ele>1318</ele>
        <time>2020-07-16T14:31:15.008Z</time>
      </trkpt>
      <trkpt lat="46.46977" lon="8.24631">
        <ele>1318</ele>
        <time>2020-07-16T14:31:16.008Z</time>
      </trkpt>
      <trkpt lat="46.46978" lon="8.24633">
        <ele>1318</ele>
        <time>2020-07-16T14:31:17.008Z</time>
      </trkpt>
      <trkpt lat="46.46979" lon="8.24635">
        <ele>1318</ele>
        <time>2020-07-16T14:31:18.007Z</time>
      </trkpt>
      <trkpt lat="46.46979" lon="8.24637">
        <ele>1318</ele>
        <time>2020-07-16T14:31:19.007Z</time>
      </trkpt>
      <trkpt lat="46.4698" lon="8.24639">
        <ele>1319</ele>
        <time>2020-07-16T14:31:20.008Z</time>
      </trkpt>
      <trkpt lat="46.4698" lon="8.24641">
        <ele>1319</ele>
        <time>2020-07-16T14:31:21.008Z</time>
      </trkpt>
      <trkpt lat="46.46981" lon="8.24642">
        <ele>1319</ele>
        <time>2020-07-16T14:31:22.008Z</time>
      </trkpt>
      <trkpt lat="46.46981" lon="8.24643">
        <ele>1320</ele>
        <time>2020-07-16T14:31:23.007Z</time>
      </trkpt>
      <trkpt lat="46.46982" lon="8.24644">
        <ele>1319</ele>
        <time>2020-07-16T14:31:24.007Z</time>
      </trkpt>
      <trkpt lat="46.46982" lon="8.24645">
        <ele>1319</ele>
        <time>2020-07-16T14:31:25.008Z</time>
      </trkpt>
      <trkpt lat="46.46983" lon="8.24646">
        <ele>1319</ele>
        <time>2020-07-16T14:31:26.008Z</time>
      </trkpt>
      <trkpt lat="46.46983" lon="8.24647">
        <ele>1319</ele>
        <time>2020-07-16T14:31:27.007Z</time>
      </trkpt>
      <trkpt lat="46.46984" lon="8.24648">
        <ele>1319</ele>
        <time>2020-07-16T14:31:28.008Z</time>
      </trkpt>
      <trkpt lat="46.46984" lon="8.2465">
        <ele>1319</ele>
        <time>2020-07-16T14:31:29.008Z</time>
      </trkpt>
      <trkpt lat="46.46985" lon="8.24651">
        <ele>1319</ele>
        <time>2020-07-16T14:31:30.008Z</time>
      </trkpt>
      <trkpt lat="46.46986" lon="8.24651">
        <ele>1319</ele>
        <time>2020-07-16T14:31:31.007Z</time>
      </trkpt>
      <trkpt lat="46.46986" lon="8.24653">
        <ele>1319</ele>
        <time>2020-07-16T14:31:32.008Z</time>
      </trkpt>
      <trkpt lat="46.46986" lon="8.24653">
        <ele>1318</ele>
        <time>2020-07-16T14:31:33.007Z</time>
      </trkpt>
      <trkpt lat="46.46987" lon="8.24653">
        <ele>1318</ele>
        <time>2020-07-16T14:31:34.007Z</time>
      </trkpt>
      <trkpt lat="46.46988" lon="8.24652">
        <ele>1317</ele>
        <time>2020-07-16T14:31:35.007Z</time>
      </trkpt>
      <trkpt lat="46.46988" lon="8.24653">
        <ele>1316</ele>
        <time>2020-07-16T14:31:36.008Z</time>
      </trkpt>
      <trkpt lat="46.46989" lon="8.24653">
        <ele>1316</ele>
        <time>2020-07-16T14:31:37.008Z</time>
      </trkpt>
      <trkpt lat="46.4699" lon="8.24654">
        <ele>1316</ele>
        <time>2020-07-16T14:31:38.007Z</time>
      </trkpt>
      <trkpt lat="46.4699" lon="8.24655">
        <ele>1315</ele>
        <time>2020-07-16T14:31:39.008Z</time>
      </trkpt>
      <trkpt lat="46.46991" lon="8.24656">
        <ele>1315</ele>
        <time>2020-07-16T14:31:40.007Z</time>
      </trkpt>
      <trkpt lat="46.46989" lon="8.2466">
        <ele>1315</ele>
        <time>2020-07-16T14:31:41.008Z</time>
      </trkpt>
      <trkpt lat="46.46985" lon="8.24665">
        <ele>1315</ele>
        <time>2020-07-16T14:31:42.007Z</time>
      </trkpt>
      <trkpt lat="46.46983" lon="8.24669">
        <ele>1315</ele>
        <time>2020-07-16T14:31:43.008Z</time>
      </trkpt>
      <trkpt lat="46.4698" lon="8.24673">
        <ele>1315</ele>
        <time>2020-07-16T14:31:44.008Z</time>
      </trkpt>
      <trkpt lat="46.46977" lon="8.24676">
        <ele>1315</ele>
        <time>2020-07-16T14:31:45.007Z</time>
      </trkpt>
      <trkpt lat="46.46976" lon="8.24677">
        <ele>1315</ele>
        <time>2020-07-16T14:31:46.007Z</time>
      </trkpt>
      <trkpt lat="46.46976" lon="8.24677">
        <ele>1316</ele>
        <time>2020-07-16T14:31:47.007Z</time>
      </trkpt>
      <trkpt lat="46.46976" lon="8.24677">
        <ele>1316</ele>
        <time>2020-07-16T14:31:48.008Z</time>
      </trkpt>
      <trkpt lat="46.46976" lon="8.24677">
        <ele>1316</ele>
        <time>2020-07-16T14:31:49.008Z</time>
      </trkpt>
      <trkpt lat="46.46977" lon="8.24676">
        <ele>1316</ele>
        <time>2020-07-16T14:31:50.008Z</time>
      </trkpt>
      <trkpt lat="46.46977" lon="8.24677">
        <ele>1316</ele>
        <time>2020-07-16T14:31:51.008Z</time>
      </trkpt>
      <trkpt lat="46.46977" lon="8.24676">
        <ele>1316</ele>
        <time>2020-07-16T14:31:52.008Z</time>
      </trkpt>
      <trkpt lat="46.46978" lon="8.24678">
        <ele>1316</ele>
        <time>2020-07-16T14:31:53.007Z</time>
      </trkpt>
      <trkpt lat="46.46979" lon="8.24679">
        <ele>1316</ele>
        <time>2020-07-16T14:31:54.008Z</time>
      </trkpt>
      <trkpt lat="46.46979" lon="8.2468">
        <ele>1316</ele>
        <time>2020-07-16T14:31:55.007Z</time>
      </trkpt>
      <trkpt lat="46.46979" lon="8.24682">
        <ele>1317</ele>
        <time>2020-07-16T14:31:56.008Z</time>
      </trkpt>
      <trkpt lat="46.46981" lon="8.24682">
        <ele>1317</ele>
        <time>2020-07-16T14:31:57.008Z</time>
      </trkpt>
      <trkpt lat="46.46983" lon="8.24682">
        <ele>1317</ele>
        <time>2020-07-16T14:31:58.008Z</time>
      </trkpt>
      <trkpt lat="46.46985" lon="8.24682">
        <ele>1318</ele>
        <time>2020-07-16T14:31:59.007Z</time>
      </trkpt>
      <trkpt lat="46.46986" lon="8.24682">
        <ele>1318</ele>
        <time>2020-07-16T14:32:00.008Z</time>
      </trkpt>
      <trkpt lat="46.46988" lon="8.24683">
        <ele>1318</ele>
        <time>2020-07-16T14:32:01.007Z</time>
      </trkpt>
      <trkpt lat="46.4699" lon="8.24684">
        <ele>1318</ele>
        <time>2020-07-16T14:32:02.007Z</time>
      </trkpt>
      <trkpt lat="46.46991" lon="8.24684">
        <ele>1318</ele>
        <time>2020-07-16T14:32:03.008Z</time>
      </trkpt>
      <trkpt lat="46.46993" lon="8.24684">
        <ele>1318</ele>
        <time>2020-07-16T14:32:04.007Z</time>
      </trkpt>
      <trkpt lat="46.46994" lon="8.24685">
        <ele>1318</ele>
        <time>2020-07-16T14:32:05.008Z</time>
      </trkpt>
      <trkpt lat="46.46994" lon="8.24687">
        <ele>1318</ele>
        <time>2020-07-16T14:32:06.008Z</time>
      </trkpt>
      <trkpt lat="46.46995" lon="8.24688">
        <ele>1318</ele>
        <time>2020-07-16T14:32:07.008Z</time>
      </trkpt>
      <trkpt lat="46.46996" lon="8.24689">
        <ele>1318</ele>
        <time>2020-07-16T14:32:08.007Z</time>
      </trkpt>
      <trkpt lat="46.46997" lon="8.2469">
        <ele>1318</ele>
        <time>2020-07-16T14:32:09.008Z</time>
      </trkpt>
      <trkpt lat="46.46998" lon="8.24692">
        <ele>1318</ele>
        <time>2020-07-16T14:32:10.008Z</time>
      </trkpt>
      <trkpt lat="46.46999" lon="8.24694">
        <ele>1318</ele>
        <time>2020-07-16T14:32:11.008Z</time>
      </trkpt>
      <trkpt lat="46.47" lon="8.24695">
        <ele>1319</ele>
        <time>2020-07-16T14:32:12.008Z</time>
      </trkpt>
      <trkpt lat="46.47001" lon="8.24697">
        <ele>1320</ele>
        <time>2020-07-16T14:32:13.007Z</time>
      </trkpt>
      <trkpt lat="46.47002" lon="8.24701">
        <ele>1320</ele>
        <time>2020-07-16T14:32:14.008Z</time>
      </trkpt>
      <trkpt lat="46.47002" lon="8.24704">
        <ele>1321</ele>
        <time>2020-07-16T14:32:15.008Z</time>
      </trkpt>
      <trkpt lat="46.47003" lon="8.24706">
        <ele>1321</ele>
        <time>2020-07-16T14:32:16.007Z</time>
      </trkpt>
      <trkpt lat="46.47004" lon="8.24707">
        <ele>1321</ele>
        <time>2020-07-16T14:32:17.008Z</time>
      </trkpt>
      <trkpt lat="46.47005" lon="8.24708">
        <ele>1321</ele>
        <time>2020-07-16T14:32:18.008Z</time>
      </trkpt>
      <trkpt lat="46.47005" lon="8.24709">
        <ele>1321</ele>
        <time>2020-07-16T14:32:19.008Z</time>
      </trkpt>
      <trkpt lat="46.47007" lon="8.24709">
        <ele>1321</ele>
        <time>2020-07-16T14:32:20.007Z</time>
      </trkpt>
      <trkpt lat="46.47008" lon="8.2471">
        <ele>1321</ele>
        <time>2020-07-16T14:32:21.007Z</time>
      </trkpt>
      <trkpt lat="46.47009" lon="8.2471">
        <ele>1321</ele>
        <time>2020-07-16T14:32:22.008Z</time>
      </trkpt>
      <trkpt lat="46.4701" lon="8.24711">
        <ele>1321</ele>
        <time>2020-07-16T14:32:23.007Z</time>
      </trkpt>
      <trkpt lat="46.47011" lon="8.24713">
        <ele>1321</ele>
        <time>2020-07-16T14:32:24.008Z</time>
      </trkpt>
      <trkpt lat="46.47011" lon="8.24714">
        <ele>1321</ele>
        <time>2020-07-16T14:32:25.008Z</time>
      </trkpt>
      <trkpt lat="46.47012" lon="8.24715">
        <ele>1321</ele>
        <time>2020-07-16T14:32:26.008Z</time>
      </trkpt>
      <trkpt lat="46.47013" lon="8.24716">
        <ele>1321</ele>
        <time>2020-07-16T14:32:27.007Z</time>
      </trkpt>
      <trkpt lat="46.47013" lon="8.24716">
        <ele>1321</ele>
        <time>2020-07-16T14:32:28.007Z</time>
      </trkpt>
      <trkpt lat="46.47013" lon="8.24717">
        <ele>1321</ele>
        <time>2020-07-16T14:32:29.007Z</time>
      </trkpt>
      <trkpt lat="46.47014" lon="8.24718">
        <ele>1321</ele>
        <time>2020-07-16T14:32:30.008Z</time>
      </trkpt>
      <trkpt lat="46.47014" lon="8.24718">
        <ele>1320</ele>
        <time>2020-07-16T14:32:31.008Z</time>
      </trkpt>
      <trkpt lat="46.47015" lon="8.2472">
        <ele>1320</ele>
        <time>2020-07-16T14:32:32.008Z</time>
      </trkpt>
      <trkpt lat="46.47015" lon="8.24721">
        <ele>1320</ele>
        <time>2020-07-16T14:32:33.008Z</time>
      </trkpt>
      <trkpt lat="46.47016" lon="8.24722">
        <ele>1320</ele>
        <time>2020-07-16T14:32:34.008Z</time>
      </trkpt>
      <trkpt lat="46.47016" lon="8.24723">
        <ele>1321</ele>
        <time>2020-07-16T14:32:35.007Z</time>
      </trkpt>
      <trkpt lat="46.47017" lon="8.24725">
        <ele>1321</ele>
        <time>2020-07-16T14:32:36.008Z</time>
      </trkpt>
      <trkpt lat="46.47017" lon="8.24727">
        <ele>1321</ele>
        <time>2020-07-16T14:32:37.008Z</time>
      </trkpt>
      <trkpt lat="46.47018" lon="8.2473">
        <ele>1321</ele>
        <time>2020-07-16T14:32:38.007Z</time>
      </trkpt>
      <trkpt lat="46.47019" lon="8.24733">
        <ele>1321</ele>
        <time>2020-07-16T14:32:39.007Z</time>
      </trkpt>
      <trkpt lat="46.47019" lon="8.24735">
        <ele>1321</ele>
        <time>2020-07-16T14:32:40.008Z</time>
      </trkpt>
      <trkpt lat="46.4702" lon="8.24738">
        <ele>1321</ele>
        <time>2020-07-16T14:32:41.008Z</time>
      </trkpt>
      <trkpt lat="46.4702" lon="8.2474">
        <ele>1321</ele>
        <time>2020-07-16T14:32:42.008Z</time>
      </trkpt>
      <trkpt lat="46.47021" lon="8.24742">
        <ele>1320</ele>
        <time>2020-07-16T14:32:43.007Z</time>
      </trkpt>
      <trkpt lat="46.47022" lon="8.24744">
        <ele>1320</ele>
        <time>2020-07-16T14:32:44.008Z</time>
      </trkpt>
      <trkpt lat="46.47022" lon="8.24746">
        <ele>1320</ele>
        <time>2020-07-16T14:32:45.008Z</time>
      </trkpt>
      <trkpt lat="46.47022" lon="8.24748">
        <ele>1319</ele>
        <time>2020-07-16T14:32:46.007Z</time>
      </trkpt>
      <trkpt lat="46.47023" lon="8.2475">
        <ele>1319</ele>
        <time>2020-07-16T14:32:47.007Z</time>
      </trkpt>
      <trkpt lat="46.47024" lon="8.24752">
        <ele>1319</ele>
        <time>2020-07-16T14:32:48.008Z</time>
      </trkpt>
      <trkpt lat="46.47025" lon="8.24753">
        <ele>1318</ele>
        <time>2020-07-16T14:32:49.008Z</time>
      </trkpt>
      <trkpt lat="46.47025" lon="8.24754">
        <ele>1318</ele>
        <time>2020-07-16T14:32:50.007Z</time>
      </trkpt>
      <trkpt lat="46.47026" lon="8.24755">
        <ele>1317</ele>
        <time>2020-07-16T14:32:51.007Z</time>
      </trkpt>
      <trkpt lat="46.47027" lon="8.24756">
        <ele>1317</ele>
        <time>2020-07-16T14:32:52.008Z</time>
      </trkpt>
      <trkpt lat="46.47027" lon="8.24758">
        <ele>1317</ele>
        <time>2020-07-16T14:32:53.007Z</time>
      </trkpt>
      <trkpt lat="46.47027" lon="8.24759">
        <ele>1318</ele>
        <time>2020-07-16T14:32:54.008Z</time>
      </trkpt>
      <trkpt lat="46.47028" lon="8.24762">
        <ele>1317</ele>
        <time>2020-07-16T14:32:55.008Z</time>
      </trkpt>
      <trkpt lat="46.47029" lon="8.24763">
        <ele>1317</ele>
        <time>2020-07-16T14:32:56.007Z</time>
      </trkpt>
      <trkpt lat="46.47029" lon="8.24765">
        <ele>1317</ele>
        <time>2020-07-16T14:32:57.007Z</time>
      </trkpt>
      <trkpt lat="46.4703" lon="8.24766">
        <ele>1317</ele>
        <time>2020-07-16T14:32:58.007Z</time>
      </trkpt>
      <trkpt lat="46.4703" lon="8.24768">
        <ele>1317</ele>
        <time>2020-07-16T14:32:59.008Z</time>
      </trkpt>
      <trkpt lat="46.47031" lon="8.2477">
        <ele>1317</ele>
        <time>2020-07-16T14:33:00.008Z</time>
      </trkpt>
      <trkpt lat="46.47032" lon="8.24771">
        <ele>1317</ele>
        <time>2020-07-16T14:33:01.008Z</time>
      </trkpt>
      <trkpt lat="46.47032" lon="8.24772">
        <ele>1317</ele>
        <time>2020-07-16T14:33:02.008Z</time>
      </trkpt>
      <trkpt lat="46.47033" lon="8.24773">
        <ele>1318</ele>
        <time>2020-07-16T14:33:03.008Z</time>
      </trkpt>
      <trkpt lat="46.47034" lon="8.24774">
        <ele>1318</ele>
        <time>2020-07-16T14:33:04.007Z</time>
      </trkpt>
      <trkpt lat="46.47034" lon="8.24775">
        <ele>1318</ele>
        <time>2020-07-16T14:33:05.007Z</time>
      </trkpt>
      <trkpt lat="46.47035" lon="8.24776">
        <ele>1318</ele>
        <time>2020-07-16T14:33:06.008Z</time>
      </trkpt>
      <trkpt lat="46.47036" lon="8.24777">
        <ele>1318</ele>
        <time>2020-07-16T14:33:07.008Z</time>
      </trkpt>
      <trkpt lat="46.47036" lon="8.24779">
        <ele>1318</ele>
        <time>2020-07-16T14:33:08.008Z</time>
      </trkpt>
      <trkpt lat="46.47037" lon="8.2478">
        <ele>1318</ele>
        <time>2020-07-16T14:33:10.139Z</time>
      </trkpt>
      <trkpt lat="46.47038" lon="8.24782">
        <ele>1318</ele>
        <time>2020-07-16T14:33:11.140Z</time>
      </trkpt>
      <trkpt lat="46.47038" lon="8.24784">
        <ele>1318</ele>
        <time>2020-07-16T14:33:12.140Z</time>
      </trkpt>
      <trkpt lat="46.47038" lon="8.24785">
        <ele>1318</ele>
        <time>2020-07-16T14:33:13.140Z</time>
      </trkpt>
      <trkpt lat="46.47039" lon="8.24786">
        <ele>1318</ele>
        <time>2020-07-16T14:33:14.139Z</time>
      </trkpt>
      <trkpt lat="46.4704" lon="8.24787">
        <ele>1318</ele>
        <time>2020-07-16T14:33:15.140Z</time>
      </trkpt>
      <trkpt lat="46.4704" lon="8.24789">
        <ele>1318</ele>
        <time>2020-07-16T14:33:16.140Z</time>
      </trkpt>
      <trkpt lat="46.47041" lon="8.2479">
        <ele>1318</ele>
        <time>2020-07-16T14:33:17.140Z</time>
      </trkpt>
      <trkpt lat="46.47041" lon="8.24791">
        <ele>1318</ele>
        <time>2020-07-16T14:33:18.139Z</time>
      </trkpt>
      <trkpt lat="46.47041" lon="8.24794">
        <ele>1318</ele>
        <time>2020-07-16T14:33:19.140Z</time>
      </trkpt>
      <trkpt lat="46.47042" lon="8.24796">
        <ele>1318</ele>
        <time>2020-07-16T14:33:20.140Z</time>
      </trkpt>
      <trkpt lat="46.47043" lon="8.24797">
        <ele>1318</ele>
        <time>2020-07-16T14:33:21.139Z</time>
      </trkpt>
      <trkpt lat="46.47043" lon="8.24799">
        <ele>1319</ele>
        <time>2020-07-16T14:33:22.139Z</time>
      </trkpt>
      <trkpt lat="46.47043" lon="8.248">
        <ele>1319</ele>
        <time>2020-07-16T14:33:23.140Z</time>
      </trkpt>
      <trkpt lat="46.47044" lon="8.24802">
        <ele>1319</ele>
        <time>2020-07-16T14:33:24.140Z</time>
      </trkpt>
      <trkpt lat="46.47044" lon="8.24803">
        <ele>1319</ele>
        <time>2020-07-16T14:33:25.140Z</time>
      </trkpt>
      <trkpt lat="46.47045" lon="8.24805">
        <ele>1319</ele>
        <time>2020-07-16T14:33:26.139Z</time>
      </trkpt>
      <trkpt lat="46.47045" lon="8.24806">
        <ele>1319</ele>
        <time>2020-07-16T14:33:27.139Z</time>
      </trkpt>
      <trkpt lat="46.47045" lon="8.24808">
        <ele>1319</ele>
        <time>2020-07-16T14:33:28.140Z</time>
      </trkpt>
      <trkpt lat="46.47046" lon="8.24809">
        <ele>1319</ele>
        <time>2020-07-16T14:33:29.140Z</time>
      </trkpt>
      <trkpt lat="46.47046" lon="8.24811">
        <ele>1319</ele>
        <time>2020-07-16T14:33:30.140Z</time>
      </trkpt>
      <trkpt lat="46.47047" lon="8.24812">
        <ele>1319</ele>
        <time>2020-07-16T14:33:31.140Z</time>
      </trkpt>
      <trkpt lat="46.47047" lon="8.24813">
        <ele>1319</ele>
        <time>2020-07-16T14:33:32.139Z</time>
      </trkpt>
      <trkpt lat="46.47047" lon="8.24814">
        <ele>1319</ele>
        <time>2020-07-16T14:33:33.140Z</time>
      </trkpt>
      <trkpt lat="46.47047" lon="8.24816">
        <ele>1320</ele>
        <time>2020-07-16T14:33:34.140Z</time>
      </trkpt>
      <trkpt lat="46.47047" lon="8.24817">
        <ele>1320</ele>
        <time>2020-07-16T14:33:35.140Z</time>
      </trkpt>
      <trkpt lat="46.47047" lon="8.24818">
        <ele>1320</ele>
        <time>2020-07-16T14:33:36.139Z</time>
      </trkpt>
      <trkpt lat="46.47048" lon="8.2482">
        <ele>1320</ele>
        <time>2020-07-16T14:33:37.139Z</time>
      </trkpt>
      <trkpt lat="46.47048" lon="8.24821">
        <ele>1321</ele>
        <time>2020-07-16T14:33:38.140Z</time>
      </trkpt>
      <trkpt lat="46.47048" lon="8.24822">
        <ele>1321</ele>
        <time>2020-07-16T14:33:39.140Z</time>
      </trkpt>
      <trkpt lat="46.47048" lon="8.24823">
        <ele>1321</ele>
        <time>2020-07-16T14:33:40.140Z</time>
      </trkpt>
      <trkpt lat="46.47048" lon="8.24825">
        <ele>1321</ele>
        <time>2020-07-16T14:33:41.140Z</time>
      </trkpt>
      <trkpt lat="46.47048" lon="8.24826">
        <ele>1321</ele>
        <time>2020-07-16T14:33:42.140Z</time>
      </trkpt>
      <trkpt lat="46.47049" lon="8.24827">
        <ele>1320</ele>
        <time>2020-07-16T14:33:43.139Z</time>
      </trkpt>
      <trkpt lat="46.47049" lon="8.24828">
        <ele>1320</ele>
        <time>2020-07-16T14:33:44.140Z</time>
      </trkpt>
      <trkpt lat="46.47049" lon="8.24829">
        <ele>1320</ele>
        <time>2020-07-16T14:33:45.140Z</time>
      </trkpt>
      <trkpt lat="46.47049" lon="8.24831">
        <ele>1320</ele>
        <time>2020-07-16T14:33:46.140Z</time>
      </trkpt>
      <trkpt lat="46.4705" lon="8.24833">
        <ele>1320</ele>
        <time>2020-07-16T14:33:47.140Z</time>
      </trkpt>
      <trkpt lat="46.4705" lon="8.24834">
        <ele>1320</ele>
        <time>2020-07-16T14:33:48.139Z</time>
      </trkpt>
      <trkpt lat="46.47051" lon="8.24836">
        <ele>1320</ele>
        <time>2020-07-16T14:33:49.140Z</time>
      </trkpt>
      <trkpt lat="46.47051" lon="8.24837">
        <ele>1320</ele>
        <time>2020-07-16T14:33:50.140Z</time>
      </trkpt>
      <trkpt lat="46.47052" lon="8.24839">
        <ele>1320</ele>
        <time>2020-07-16T14:33:51.139Z</time>
      </trkpt>
      <trkpt lat="46.47052" lon="8.2484">
        <ele>1320</ele>
        <time>2020-07-16T14:33:52.140Z</time>
      </trkpt>
      <trkpt lat="46.47053" lon="8.24841">
        <ele>1320</ele>
        <time>2020-07-16T14:33:53.140Z</time>
      </trkpt>
      <trkpt lat="46.47053" lon="8.24842">
        <ele>1320</ele>
        <time>2020-07-16T14:33:54.140Z</time>
      </trkpt>
      <trkpt lat="46.47054" lon="8.24845">
        <ele>1320</ele>
        <time>2020-07-16T14:33:55.140Z</time>
      </trkpt>
      <trkpt lat="46.47054" lon="8.24848">
        <ele>1321</ele>
        <time>2020-07-16T14:33:56.140Z</time>
      </trkpt>
      <trkpt lat="46.47054" lon="8.24849">
        <ele>1321</ele>
        <time>2020-07-16T14:33:57.140Z</time>
      </trkpt>
      <trkpt lat="46.47055" lon="8.24851">
        <ele>1321</ele>
        <time>2020-07-16T14:33:58.139Z</time>
      </trkpt>
      <trkpt lat="46.47056" lon="8.24854">
        <ele>1321</ele>
        <time>2020-07-16T14:33:59.139Z</time>
      </trkpt>
      <trkpt lat="46.47056" lon="8.24856">
        <ele>1320</ele>
        <time>2020-07-16T14:34:00.140Z</time>
      </trkpt>
      <trkpt lat="46.47056" lon="8.24859">
        <ele>1320</ele>
        <time>2020-07-16T14:34:01.140Z</time>
      </trkpt>
      <trkpt lat="46.47056" lon="8.24861">
        <ele>1321</ele>
        <time>2020-07-16T14:34:02.140Z</time>
      </trkpt>
      <trkpt lat="46.47056" lon="8.24863">
        <ele>1321</ele>
        <time>2020-07-16T14:34:03.140Z</time>
      </trkpt>
      <trkpt lat="46.47057" lon="8.24864">
        <ele>1321</ele>
        <time>2020-07-16T14:34:04.139Z</time>
      </trkpt>
      <trkpt lat="46.47057" lon="8.24866">
        <ele>1321</ele>
        <time>2020-07-16T14:34:05.139Z</time>
      </trkpt>
      <trkpt lat="46.47058" lon="8.24868">
        <ele>1321</ele>
        <time>2020-07-16T14:34:06.140Z</time>
      </trkpt>
      <trkpt lat="46.47059" lon="8.24869">
        <ele>1321</ele>
        <time>2020-07-16T14:34:07.140Z</time>
      </trkpt>
      <trkpt lat="46.47059" lon="8.2487">
        <ele>1321</ele>
        <time>2020-07-16T14:34:08.140Z</time>
      </trkpt>
      <trkpt lat="46.47059" lon="8.24872">
        <ele>1321</ele>
        <time>2020-07-16T14:34:09.140Z</time>
      </trkpt>
      <trkpt lat="46.4706" lon="8.24874">
        <ele>1321</ele>
        <time>2020-07-16T14:34:10.140Z</time>
      </trkpt>
      <trkpt lat="46.47061" lon="8.24875">
        <ele>1321</ele>
        <time>2020-07-16T14:34:11.140Z</time>
      </trkpt>
      <trkpt lat="46.47061" lon="8.24877">
        <ele>1321</ele>
        <time>2020-07-16T14:34:12.140Z</time>
      </trkpt>
      <trkpt lat="46.47061" lon="8.24879">
        <ele>1321</ele>
        <time>2020-07-16T14:34:13.140Z</time>
      </trkpt>
      <trkpt lat="46.47062" lon="8.2488">
        <ele>1321</ele>
        <time>2020-07-16T14:34:14.140Z</time>
      </trkpt>
      <trkpt lat="46.47063" lon="8.24882">
        <ele>1321</ele>
        <time>2020-07-16T14:34:15.140Z</time>
      </trkpt>
      <trkpt lat="46.47064" lon="8.24883">
        <ele>1321</ele>
        <time>2020-07-16T14:34:16.140Z</time>
      </trkpt>
      <trkpt lat="46.47064" lon="8.24885">
        <ele>1321</ele>
        <time>2020-07-16T14:34:17.139Z</time>
      </trkpt>
      <trkpt lat="46.47064" lon="8.24886">
        <ele>1321</ele>
        <time>2020-07-16T14:34:18.139Z</time>
      </trkpt>
      <trkpt lat="46.47064" lon="8.24887">
        <ele>1321</ele>
        <time>2020-07-16T14:34:19.139Z</time>
      </trkpt>
      <trkpt lat="46.47063" lon="8.24887">
        <ele>1321</ele>
        <time>2020-07-16T14:34:20.140Z</time>
      </trkpt>
      <trkpt lat="46.47063" lon="8.24888">
        <ele>1322</ele>
        <time>2020-07-16T14:34:21.140Z</time>
      </trkpt>
      <trkpt lat="46.47062" lon="8.24889">
        <ele>1322</ele>
        <time>2020-07-16T14:34:22.140Z</time>
      </trkpt>
      <trkpt lat="46.47062" lon="8.2489">
        <ele>1322</ele>
        <time>2020-07-16T14:34:23.139Z</time>
      </trkpt>
      <trkpt lat="46.47062" lon="8.24889">
        <ele>1322</ele>
        <time>2020-07-16T14:34:24.140Z</time>
      </trkpt>
      <trkpt lat="46.47063" lon="8.24889">
        <ele>1322</ele>
        <time>2020-07-16T14:34:25.139Z</time>
      </trkpt>
      <trkpt lat="46.47063" lon="8.2489">
        <ele>1322</ele>
        <time>2020-07-16T14:34:26.140Z</time>
      </trkpt>
      <trkpt lat="46.47063" lon="8.24891">
        <ele>1322</ele>
        <time>2020-07-16T14:34:27.139Z</time>
      </trkpt>
      <trkpt lat="46.47063" lon="8.24893">
        <ele>1322</ele>
        <time>2020-07-16T14:34:28.140Z</time>
      </trkpt>
      <trkpt lat="46.47063" lon="8.24894">
        <ele>1322</ele>
        <time>2020-07-16T14:34:29.140Z</time>
      </trkpt>
      <trkpt lat="46.47064" lon="8.24896">
        <ele>1322</ele>
        <time>2020-07-16T14:34:30.140Z</time>
      </trkpt>
      <trkpt lat="46.47064" lon="8.24897">
        <ele>1322</ele>
        <time>2020-07-16T14:34:31.139Z</time>
      </trkpt>
      <trkpt lat="46.47065" lon="8.24899">
        <ele>1323</ele>
        <time>2020-07-16T14:34:32.140Z</time>
      </trkpt>
      <trkpt lat="46.47065" lon="8.249">
        <ele>1323</ele>
        <time>2020-07-16T14:34:33.140Z</time>
      </trkpt>
      <trkpt lat="46.47065" lon="8.24902">
        <ele>1323</ele>
        <time>2020-07-16T14:34:34.140Z</time>
      </trkpt>
      <trkpt lat="46.47065" lon="8.24903">
        <ele>1323</ele>
        <time>2020-07-16T14:34:35.139Z</time>
      </trkpt>
      <trkpt lat="46.47066" lon="8.24905">
        <ele>1323</ele>
        <time>2020-07-16T14:34:36.139Z</time>
      </trkpt>
      <trkpt lat="46.47066" lon="8.24907">
        <ele>1324</ele>
        <time>2020-07-16T14:34:37.140Z</time>
      </trkpt>
      <trkpt lat="46.47066" lon="8.24909">
        <ele>1324</ele>
        <time>2020-07-16T14:34:38.140Z</time>
      </trkpt>
      <trkpt lat="46.47066" lon="8.2491">
        <ele>1324</ele>
        <time>2020-07-16T14:34:39.140Z</time>
      </trkpt>
      <trkpt lat="46.47066" lon="8.24911">
        <ele>1324</ele>
        <time>2020-07-16T14:34:40.140Z</time>
      </trkpt>
      <trkpt lat="46.47066" lon="8.24913">
        <ele>1324</ele>
        <time>2020-07-16T14:34:41.139Z</time>
      </trkpt>
      <trkpt lat="46.47066" lon="8.24915">
        <ele>1324</ele>
        <time>2020-07-16T14:34:42.140Z</time>
      </trkpt>
      <trkpt lat="46.47066" lon="8.24916">
        <ele>1324</ele>
        <time>2020-07-16T14:34:43.140Z</time>
      </trkpt>
      <trkpt lat="46.47066" lon="8.24918">
        <ele>1324</ele>
        <time>2020-07-16T14:34:44.140Z</time>
      </trkpt>
      <trkpt lat="46.47066" lon="8.2492">
        <ele>1323</ele>
        <time>2020-07-16T14:34:45.139Z</time>
      </trkpt>
      <trkpt lat="46.47066" lon="8.24922">
        <ele>1323</ele>
        <time>2020-07-16T14:34:46.140Z</time>
      </trkpt>
      <trkpt lat="46.47066" lon="8.24923">
        <ele>1323</ele>
        <time>2020-07-16T14:34:47.139Z</time>
      </trkpt>
      <trkpt lat="46.47066" lon="8.24925">
        <ele>1323</ele>
        <time>2020-07-16T14:34:48.140Z</time>
      </trkpt>
      <trkpt lat="46.47067" lon="8.24927">
        <ele>1323</ele>
        <time>2020-07-16T14:34:49.140Z</time>
      </trkpt>
      <trkpt lat="46.47067" lon="8.24928">
        <ele>1323</ele>
        <time>2020-07-16T14:34:50.140Z</time>
      </trkpt>
      <trkpt lat="46.47067" lon="8.24929">
        <ele>1323</ele>
        <time>2020-07-16T14:34:51.139Z</time>
      </trkpt>
      <trkpt lat="46.47067" lon="8.2493">
        <ele>1323</ele>
        <time>2020-07-16T14:34:52.139Z</time>
      </trkpt>
      <trkpt lat="46.47067" lon="8.2493">
        <ele>1323</ele>
        <time>2020-07-16T14:34:53.139Z</time>
      </trkpt>
      <trkpt lat="46.47067" lon="8.2493">
        <ele>1322</ele>
        <time>2020-07-16T14:34:54.140Z</time>
      </trkpt>
      <trkpt lat="46.47067" lon="8.2493">
        <ele>1322</ele>
        <time>2020-07-16T14:34:55.140Z</time>
      </trkpt>
      <trkpt lat="46.47067" lon="8.2493">
        <ele>1321</ele>
        <time>2020-07-16T14:34:56.140Z</time>
      </trkpt>
      <trkpt lat="46.47067" lon="8.24931">
        <ele>1321</ele>
        <time>2020-07-16T14:34:57.140Z</time>
      </trkpt>
      <trkpt lat="46.47067" lon="8.24932">
        <ele>1321</ele>
        <time>2020-07-16T14:34:58.140Z</time>
      </trkpt>
      <trkpt lat="46.47067" lon="8.24933">
        <ele>1321</ele>
        <time>2020-07-16T14:34:59.140Z</time>
      </trkpt>
      <trkpt lat="46.47067" lon="8.24933">
        <ele>1321</ele>
        <time>2020-07-16T14:35:00.140Z</time>
      </trkpt>
      <trkpt lat="46.47067" lon="8.24934">
        <ele>1320</ele>
        <time>2020-07-16T14:35:01.140Z</time>
      </trkpt>
      <trkpt lat="46.47072" lon="8.24933">
        <ele>1319</ele>
        <time>2020-07-16T14:35:02.140Z</time>
      </trkpt>
      <trkpt lat="46.47072" lon="8.24933">
        <ele>1319</ele>
        <time>2020-07-16T14:35:03.140Z</time>
      </trkpt>
      <trkpt lat="46.47072" lon="8.24933">
        <ele>1318</ele>
        <time>2020-07-16T14:35:04.140Z</time>
      </trkpt>
      <trkpt lat="46.47071" lon="8.24933">
        <ele>1318</ele>
        <time>2020-07-16T14:35:05.140Z</time>
      </trkpt>
      <trkpt lat="46.4707" lon="8.24934">
        <ele>1318</ele>
        <time>2020-07-16T14:35:06.139Z</time>
      </trkpt>
      <trkpt lat="46.4707" lon="8.24934">
        <ele>1318</ele>
        <time>2020-07-16T14:35:07.139Z</time>
      </trkpt>
      <trkpt lat="46.47069" lon="8.24935">
        <ele>1319</ele>
        <time>2020-07-16T14:35:08.139Z</time>
      </trkpt>
      <trkpt lat="46.47069" lon="8.24935">
        <ele>1319</ele>
        <time>2020-07-16T14:35:09.140Z</time>
      </trkpt>
      <trkpt lat="46.47068" lon="8.24935">
        <ele>1319</ele>
        <time>2020-07-16T14:35:10.140Z</time>
      </trkpt>
      <trkpt lat="46.47068" lon="8.24935">
        <ele>1319</ele>
        <time>2020-07-16T14:35:11.140Z</time>
      </trkpt>
      <trkpt lat="46.47067" lon="8.24936">
        <ele>1319</ele>
        <time>2020-07-16T14:35:12.139Z</time>
      </trkpt>
      <trkpt lat="46.47067" lon="8.24936">
        <ele>1320</ele>
        <time>2020-07-16T14:35:13.140Z</time>
      </trkpt>
      <trkpt lat="46.47066" lon="8.24938">
        <ele>1321</ele>
        <time>2020-07-16T14:35:14.139Z</time>
      </trkpt>
      <trkpt lat="46.47065" lon="8.24932">
        <ele>1321</ele>
        <time>2020-07-16T14:35:15.140Z</time>
      </trkpt>
      <trkpt lat="46.47066" lon="8.24932">
        <ele>1321</ele>
        <time>2020-07-16T14:35:16.140Z</time>
      </trkpt>
      <trkpt lat="46.47066" lon="8.24933">
        <ele>1321</ele>
        <time>2020-07-16T14:35:17.140Z</time>
      </trkpt>
      <trkpt lat="46.47067" lon="8.24933">
        <ele>1321</ele>
        <time>2020-07-16T14:35:18.140Z</time>
      </trkpt>
      <trkpt lat="46.47068" lon="8.24933">
        <ele>1321</ele>
        <time>2020-07-16T14:35:19.140Z</time>
      </trkpt>
      <trkpt lat="46.47069" lon="8.24933">
        <ele>1321</ele>
        <time>2020-07-16T14:35:20.140Z</time>
      </trkpt>
      <trkpt lat="46.4707" lon="8.24933">
        <ele>1320</ele>
        <time>2020-07-16T14:35:21.140Z</time>
      </trkpt>
      <trkpt lat="46.4707" lon="8.24933">
        <ele>1320</ele>
        <time>2020-07-16T14:35:22.139Z</time>
      </trkpt>
      <trkpt lat="46.47071" lon="8.24933">
        <ele>1320</ele>
        <time>2020-07-16T14:35:23.139Z</time>
      </trkpt>
      <trkpt lat="46.47071" lon="8.24933">
        <ele>1320</ele>
        <time>2020-07-16T14:35:24.139Z</time>
      </trkpt>
      <trkpt lat="46.47071" lon="8.24933">
        <ele>1320</ele>
        <time>2020-07-16T14:35:25.140Z</time>
      </trkpt>
      <trkpt lat="46.4707" lon="8.24933">
        <ele>1320</ele>
        <time>2020-07-16T14:35:26.141Z</time>
      </trkpt>
      <trkpt lat="46.4707" lon="8.24934">
        <ele>1321</ele>
        <time>2020-07-16T14:35:27.140Z</time>
      </trkpt>
      <trkpt lat="46.4707" lon="8.24934">
        <ele>1321</ele>
        <time>2020-07-16T14:35:28.140Z</time>
      </trkpt>
      <trkpt lat="46.47069" lon="8.24936">
        <ele>1322</ele>
        <time>2020-07-16T14:35:29.141Z</time>
      </trkpt>
      <trkpt lat="46.47069" lon="8.24937">
        <ele>1322</ele>
        <time>2020-07-16T14:35:30.142Z</time>
      </trkpt>
      <trkpt lat="46.47069" lon="8.24938">
        <ele>1323</ele>
        <time>2020-07-16T14:35:31.142Z</time>
      </trkpt>
      <trkpt lat="46.47069" lon="8.24939">
        <ele>1323</ele>
        <time>2020-07-16T14:35:32.142Z</time>
      </trkpt>
      <trkpt lat="46.47069" lon="8.24941">
        <ele>1323</ele>
        <time>2020-07-16T14:35:33.142Z</time>
      </trkpt>
      <trkpt lat="46.47069" lon="8.24942">
        <ele>1324</ele>
        <time>2020-07-16T14:35:34.142Z</time>
      </trkpt>
      <trkpt lat="46.47069" lon="8.24944">
        <ele>1324</ele>
        <time>2020-07-16T14:35:35.142Z</time>
      </trkpt>
      <trkpt lat="46.4707" lon="8.24946">
        <ele>1324</ele>
        <time>2020-07-16T14:35:36.142Z</time>
      </trkpt>
      <trkpt lat="46.4707" lon="8.24947">
        <ele>1324</ele>
        <time>2020-07-16T14:35:37.141Z</time>
      </trkpt>
      <trkpt lat="46.4707" lon="8.24949">
        <ele>1324</ele>
        <time>2020-07-16T14:35:38.142Z</time>
      </trkpt>
      <trkpt lat="46.4707" lon="8.24952">
        <ele>1324</ele>
        <time>2020-07-16T14:35:39.142Z</time>
      </trkpt>
      <trkpt lat="46.4707" lon="8.24955">
        <ele>1324</ele>
        <time>2020-07-16T14:35:40.141Z</time>
      </trkpt>
      <trkpt lat="46.47069" lon="8.24959">
        <ele>1324</ele>
        <time>2020-07-16T14:35:41.142Z</time>
      </trkpt>
      <trkpt lat="46.47069" lon="8.24962">
        <ele>1324</ele>
        <time>2020-07-16T14:35:42.142Z</time>
      </trkpt>
      <trkpt lat="46.4707" lon="8.24967">
        <ele>1324</ele>
        <time>2020-07-16T14:35:43.142Z</time>
      </trkpt>
      <trkpt lat="46.4707" lon="8.24971">
        <ele>1324</ele>
        <time>2020-07-16T14:35:44.142Z</time>
      </trkpt>
      <trkpt lat="46.4707" lon="8.24975">
        <ele>1323</ele>
        <time>2020-07-16T14:35:45.141Z</time>
      </trkpt>
      <trkpt lat="46.4707" lon="8.24979">
        <ele>1323</ele>
        <time>2020-07-16T14:35:46.142Z</time>
      </trkpt>
      <trkpt lat="46.47071" lon="8.24982">
        <ele>1323</ele>
        <time>2020-07-16T14:35:47.142Z</time>
      </trkpt>
      <trkpt lat="46.47071" lon="8.24986">
        <ele>1323</ele>
        <time>2020-07-16T14:35:48.141Z</time>
      </trkpt>
      <trkpt lat="46.47071" lon="8.2499">
        <ele>1323</ele>
        <time>2020-07-16T14:35:49.141Z</time>
      </trkpt>
      <trkpt lat="46.47071" lon="8.24993">
        <ele>1322</ele>
        <time>2020-07-16T14:35:50.141Z</time>
      </trkpt>
      <trkpt lat="46.47071" lon="8.24995">
        <ele>1322</ele>
        <time>2020-07-16T14:35:51.141Z</time>
      </trkpt>
      <trkpt lat="46.47071" lon="8.24998">
        <ele>1322</ele>
        <time>2020-07-16T14:35:52.142Z</time>
      </trkpt>
      <trkpt lat="46.47072" lon="8.25001">
        <ele>1322</ele>
        <time>2020-07-16T14:35:53.142Z</time>
      </trkpt>
      <trkpt lat="46.47072" lon="8.25004">
        <ele>1321</ele>
        <time>2020-07-16T14:35:54.142Z</time>
      </trkpt>
      <trkpt lat="46.47072" lon="8.25007">
        <ele>1321</ele>
        <time>2020-07-16T14:35:55.141Z</time>
      </trkpt>
      <trkpt lat="46.47072" lon="8.25008">
        <ele>1321</ele>
        <time>2020-07-16T14:35:56.141Z</time>
      </trkpt>
      <trkpt lat="46.47072" lon="8.25011">
        <ele>1321</ele>
        <time>2020-07-16T14:35:57.142Z</time>
      </trkpt>
      <trkpt lat="46.47072" lon="8.25013">
        <ele>1321</ele>
        <time>2020-07-16T14:35:58.142Z</time>
      </trkpt>
      <trkpt lat="46.47072" lon="8.25015">
        <ele>1321</ele>
        <time>2020-07-16T14:35:59.142Z</time>
      </trkpt>
      <trkpt lat="46.47073" lon="8.25018">
        <ele>1321</ele>
        <time>2020-07-16T14:36:00.141Z</time>
      </trkpt>
      <trkpt lat="46.47073" lon="8.2502">
        <ele>1321</ele>
        <time>2020-07-16T14:36:01.141Z</time>
      </trkpt>
      <trkpt lat="46.47073" lon="8.25022">
        <ele>1322</ele>
        <time>2020-07-16T14:36:02.141Z</time>
      </trkpt>
      <trkpt lat="46.47073" lon="8.25024">
        <ele>1322</ele>
        <time>2020-07-16T14:36:03.141Z</time>
      </trkpt>
      <trkpt lat="46.47073" lon="8.25026">
        <ele>1322</ele>
        <time>2020-07-16T14:36:11.128Z</time>
      </trkpt>
      <trkpt lat="46.47073" lon="8.25028">
        <ele>1322</ele>
        <time>2020-07-16T14:36:12.128Z</time>
      </trkpt>
      <trkpt lat="46.47073" lon="8.2503">
        <ele>1323</ele>
        <time>2020-07-16T14:36:13.128Z</time>
      </trkpt>
      <trkpt lat="46.47073" lon="8.25032">
        <ele>1323</ele>
        <time>2020-07-16T14:36:14.128Z</time>
      </trkpt>
      <trkpt lat="46.47073" lon="8.25034">
        <ele>1323</ele>
        <time>2020-07-16T14:36:15.129Z</time>
      </trkpt>
      <trkpt lat="46.47073" lon="8.25036">
        <ele>1323</ele>
        <time>2020-07-16T14:36:16.129Z</time>
      </trkpt>
      <trkpt lat="46.47073" lon="8.25038">
        <ele>1323</ele>
        <time>2020-07-16T14:36:17.129Z</time>
      </trkpt>
      <trkpt lat="46.47073" lon="8.25039">
        <ele>1323</ele>
        <time>2020-07-16T14:36:18.128Z</time>
      </trkpt>
      <trkpt lat="46.47073" lon="8.2504">
        <ele>1323</ele>
        <time>2020-07-16T14:36:19.128Z</time>
      </trkpt>
      <trkpt lat="46.47073" lon="8.25042">
        <ele>1323</ele>
        <time>2020-07-16T14:36:20.129Z</time>
      </trkpt>
      <trkpt lat="46.47072" lon="8.25044">
        <ele>1322</ele>
        <time>2020-07-16T14:36:21.129Z</time>
      </trkpt>
      <trkpt lat="46.47072" lon="8.25046">
        <ele>1322</ele>
        <time>2020-07-16T14:36:22.129Z</time>
      </trkpt>
      <trkpt lat="46.47072" lon="8.25048">
        <ele>1322</ele>
        <time>2020-07-16T14:36:23.128Z</time>
      </trkpt>
      <trkpt lat="46.47072" lon="8.2505">
        <ele>1322</ele>
        <time>2020-07-16T14:36:24.128Z</time>
      </trkpt>
      <trkpt lat="46.47072" lon="8.25052">
        <ele>1322</ele>
        <time>2020-07-16T14:36:25.129Z</time>
      </trkpt>
      <trkpt lat="46.47072" lon="8.25053">
        <ele>1322</ele>
        <time>2020-07-16T14:36:26.129Z</time>
      </trkpt>
      <trkpt lat="46.47072" lon="8.25055">
        <ele>1322</ele>
        <time>2020-07-16T14:36:27.129Z</time>
      </trkpt>
      <trkpt lat="46.47072" lon="8.25056">
        <ele>1322</ele>
        <time>2020-07-16T14:36:28.129Z</time>
      </trkpt>
      <trkpt lat="46.47072" lon="8.25058">
        <ele>1322</ele>
        <time>2020-07-16T14:36:29.128Z</time>
      </trkpt>
      <trkpt lat="46.47072" lon="8.2506">
        <ele>1322</ele>
        <time>2020-07-16T14:36:30.129Z</time>
      </trkpt>
      <trkpt lat="46.47072" lon="8.25062">
        <ele>1322</ele>
        <time>2020-07-16T14:36:31.128Z</time>
      </trkpt>
      <trkpt lat="46.47072" lon="8.25064">
        <ele>1323</ele>
        <time>2020-07-16T14:36:32.129Z</time>
      </trkpt>
      <trkpt lat="46.47072" lon="8.25066">
        <ele>1323</ele>
        <time>2020-07-16T14:36:33.129Z</time>
      </trkpt>
      <trkpt lat="46.47072" lon="8.25068">
        <ele>1323</ele>
        <time>2020-07-16T14:36:34.129Z</time>
      </trkpt>
      <trkpt lat="46.47072" lon="8.25069">
        <ele>1324</ele>
        <time>2020-07-16T14:36:35.129Z</time>
      </trkpt>
      <trkpt lat="46.47072" lon="8.25071">
        <ele>1324</ele>
        <time>2020-07-16T14:36:36.129Z</time>
      </trkpt>
      <trkpt lat="46.47072" lon="8.25072">
        <ele>1324</ele>
        <time>2020-07-16T14:36:37.129Z</time>
      </trkpt>
      <trkpt lat="46.47072" lon="8.25074">
        <ele>1324</ele>
        <time>2020-07-16T14:36:38.129Z</time>
      </trkpt>
      <trkpt lat="46.47073" lon="8.25076">
        <ele>1323</ele>
        <time>2020-07-16T14:36:39.129Z</time>
      </trkpt>
      <trkpt lat="46.47073" lon="8.25078">
        <ele>1323</ele>
        <time>2020-07-16T14:36:40.129Z</time>
      </trkpt>
      <trkpt lat="46.47072" lon="8.2508">
        <ele>1323</ele>
        <time>2020-07-16T14:36:41.128Z</time>
      </trkpt>
      <trkpt lat="46.47072" lon="8.25082">
        <ele>1322</ele>
        <time>2020-07-16T14:36:42.128Z</time>
      </trkpt>
      <trkpt lat="46.47072" lon="8.25084">
        <ele>1322</ele>
        <time>2020-07-16T14:36:43.129Z</time>
      </trkpt>
      <trkpt lat="46.47071" lon="8.25086">
        <ele>1322</ele>
        <time>2020-07-16T14:36:44.129Z</time>
      </trkpt>
      <trkpt lat="46.47071" lon="8.25088">
        <ele>1322</ele>
        <time>2020-07-16T14:36:45.129Z</time>
      </trkpt>
      <trkpt lat="46.47072" lon="8.2509">
        <ele>1322</ele>
        <time>2020-07-16T14:36:46.129Z</time>
      </trkpt>
      <trkpt lat="46.47071" lon="8.25091">
        <ele>1321</ele>
        <time>2020-07-16T14:36:47.128Z</time>
      </trkpt>
      <trkpt lat="46.47072" lon="8.25093">
        <ele>1321</ele>
        <time>2020-07-16T14:36:48.129Z</time>
      </trkpt>
      <trkpt lat="46.47072" lon="8.25095">
        <ele>1321</ele>
        <time>2020-07-16T14:36:49.128Z</time>
      </trkpt>
      <trkpt lat="46.47072" lon="8.25096">
        <ele>1320</ele>
        <time>2020-07-16T14:36:50.128Z</time>
      </trkpt>
      <trkpt lat="46.47072" lon="8.25097">
        <ele>1319</ele>
        <time>2020-07-16T14:36:51.129Z</time>
      </trkpt>
      <trkpt lat="46.47071" lon="8.25099">
        <ele>1319</ele>
        <time>2020-07-16T14:36:52.129Z</time>
      </trkpt>
      <trkpt lat="46.47071" lon="8.25101">
        <ele>1318</ele>
        <time>2020-07-16T14:36:53.129Z</time>
      </trkpt>
      <trkpt lat="46.47071" lon="8.25103">
        <ele>1318</ele>
        <time>2020-07-16T14:36:54.129Z</time>
      </trkpt>
      <trkpt lat="46.47071" lon="8.25106">
        <ele>1318</ele>
        <time>2020-07-16T14:36:55.129Z</time>
      </trkpt>
      <trkpt lat="46.47071" lon="8.25107">
        <ele>1318</ele>
        <time>2020-07-16T14:36:56.128Z</time>
      </trkpt>
      <trkpt lat="46.47071" lon="8.25109">
        <ele>1318</ele>
        <time>2020-07-16T14:36:57.129Z</time>
      </trkpt>
      <trkpt lat="46.47071" lon="8.25111">
        <ele>1318</ele>
        <time>2020-07-16T14:36:58.129Z</time>
      </trkpt>
      <trkpt lat="46.47071" lon="8.25113">
        <ele>1319</ele>
        <time>2020-07-16T14:36:59.128Z</time>
      </trkpt>
      <trkpt lat="46.47071" lon="8.25115">
        <ele>1319</ele>
        <time>2020-07-16T14:37:00.129Z</time>
      </trkpt>
      <trkpt lat="46.47071" lon="8.25117">
        <ele>1319</ele>
        <time>2020-07-16T14:37:01.129Z</time>
      </trkpt>
      <trkpt lat="46.47071" lon="8.25118">
        <ele>1319</ele>
        <time>2020-07-16T14:37:02.129Z</time>
      </trkpt>
      <trkpt lat="46.47071" lon="8.2512">
        <ele>1319</ele>
        <time>2020-07-16T14:37:03.129Z</time>
      </trkpt>
      <trkpt lat="46.47071" lon="8.25122">
        <ele>1319</ele>
        <time>2020-07-16T14:37:04.129Z</time>
      </trkpt>
      <trkpt lat="46.47071" lon="8.25124">
        <ele>1319</ele>
        <time>2020-07-16T14:37:05.129Z</time>
      </trkpt>
      <trkpt lat="46.47071" lon="8.25125">
        <ele>1319</ele>
        <time>2020-07-16T14:37:06.129Z</time>
      </trkpt>
      <trkpt lat="46.47071" lon="8.25127">
        <ele>1319</ele>
        <time>2020-07-16T14:37:07.129Z</time>
      </trkpt>
      <trkpt lat="46.47072" lon="8.25129">
        <ele>1319</ele>
        <time>2020-07-16T14:37:08.129Z</time>
      </trkpt>
      <trkpt lat="46.47071" lon="8.25132">
        <ele>1319</ele>
        <time>2020-07-16T14:37:09.129Z</time>
      </trkpt>
      <trkpt lat="46.47071" lon="8.25134">
        <ele>1318</ele>
        <time>2020-07-16T14:37:10.128Z</time>
      </trkpt>
      <trkpt lat="46.47071" lon="8.25135">
        <ele>1318</ele>
        <time>2020-07-16T14:37:11.128Z</time>
      </trkpt>
      <trkpt lat="46.47071" lon="8.25136">
        <ele>1318</ele>
        <time>2020-07-16T14:37:12.129Z</time>
      </trkpt>
      <trkpt lat="46.47071" lon="8.25138">
        <ele>1317</ele>
        <time>2020-07-16T14:37:13.129Z</time>
      </trkpt>
      <trkpt lat="46.47071" lon="8.25141">
        <ele>1317</ele>
        <time>2020-07-16T14:37:14.129Z</time>
      </trkpt>
      <trkpt lat="46.4707" lon="8.25143">
        <ele>1317</ele>
        <time>2020-07-16T14:37:15.128Z</time>
      </trkpt>
      <trkpt lat="46.47071" lon="8.25145">
        <ele>1317</ele>
        <time>2020-07-16T14:37:16.128Z</time>
      </trkpt>
      <trkpt lat="46.47071" lon="8.25146">
        <ele>1316</ele>
        <time>2020-07-16T14:37:17.129Z</time>
      </trkpt>
      <trkpt lat="46.47071" lon="8.25148">
        <ele>1316</ele>
        <time>2020-07-16T14:37:18.129Z</time>
      </trkpt>
      <trkpt lat="46.47071" lon="8.2515">
        <ele>1316</ele>
        <time>2020-07-16T14:37:19.128Z</time>
      </trkpt>
      <trkpt lat="46.47072" lon="8.25152">
        <ele>1317</ele>
        <time>2020-07-16T14:37:20.129Z</time>
      </trkpt>
      <trkpt lat="46.47072" lon="8.25153">
        <ele>1317</ele>
        <time>2020-07-16T14:37:21.129Z</time>
      </trkpt>
      <trkpt lat="46.47071" lon="8.25156">
        <ele>1317</ele>
        <time>2020-07-16T14:37:22.129Z</time>
      </trkpt>
      <trkpt lat="46.47071" lon="8.25158">
        <ele>1317</ele>
        <time>2020-07-16T14:37:23.128Z</time>
      </trkpt>
      <trkpt lat="46.47071" lon="8.2516">
        <ele>1317</ele>
        <time>2020-07-16T14:37:24.129Z</time>
      </trkpt>
      <trkpt lat="46.47071" lon="8.25162">
        <ele>1317</ele>
        <time>2020-07-16T14:37:25.128Z</time>
      </trkpt>
      <trkpt lat="46.47071" lon="8.25165">
        <ele>1317</ele>
        <time>2020-07-16T14:37:26.128Z</time>
      </trkpt>
      <trkpt lat="46.47071" lon="8.25166">
        <ele>1317</ele>
        <time>2020-07-16T14:37:27.128Z</time>
      </trkpt>
      <trkpt lat="46.47072" lon="8.25167">
        <ele>1316</ele>
        <time>2020-07-16T14:37:28.128Z</time>
      </trkpt>
      <trkpt lat="46.47072" lon="8.25169">
        <ele>1316</ele>
        <time>2020-07-16T14:37:29.128Z</time>
      </trkpt>
      <trkpt lat="46.47072" lon="8.25169">
        <ele>1315</ele>
        <time>2020-07-16T14:37:30.129Z</time>
      </trkpt>
      <trkpt lat="46.47072" lon="8.25171">
        <ele>1315</ele>
        <time>2020-07-16T14:37:31.129Z</time>
      </trkpt>
      <trkpt lat="46.47072" lon="8.25173">
        <ele>1315</ele>
        <time>2020-07-16T14:37:32.129Z</time>
      </trkpt>
      <trkpt lat="46.47072" lon="8.25174">
        <ele>1314</ele>
        <time>2020-07-16T14:37:33.129Z</time>
      </trkpt>
      <trkpt lat="46.47072" lon="8.25176">
        <ele>1314</ele>
        <time>2020-07-16T14:37:34.129Z</time>
      </trkpt>
      <trkpt lat="46.47072" lon="8.25178">
        <ele>1314</ele>
        <time>2020-07-16T14:37:35.128Z</time>
      </trkpt>
      <trkpt lat="46.47072" lon="8.25179">
        <ele>1314</ele>
        <time>2020-07-16T14:37:36.129Z</time>
      </trkpt>
      <trkpt lat="46.47072" lon="8.25181">
        <ele>1315</ele>
        <time>2020-07-16T14:37:37.129Z</time>
      </trkpt>
      <trkpt lat="46.47072" lon="8.25183">
        <ele>1315</ele>
        <time>2020-07-16T14:37:38.128Z</time>
      </trkpt>
      <trkpt lat="46.47072" lon="8.25184">
        <ele>1316</ele>
        <time>2020-07-16T14:37:39.129Z</time>
      </trkpt>
      <trkpt lat="46.47072" lon="8.25186">
        <ele>1316</ele>
        <time>2020-07-16T14:37:40.128Z</time>
      </trkpt>
      <trkpt lat="46.47072" lon="8.25188">
        <ele>1316</ele>
        <time>2020-07-16T14:37:55.159Z</time>
      </trkpt>
      <trkpt lat="46.47072" lon="8.2519">
        <ele>1317</ele>
        <time>2020-07-16T14:37:56.159Z</time>
      </trkpt>
      <trkpt lat="46.47071" lon="8.25192">
        <ele>1317</ele>
        <time>2020-07-16T14:37:57.158Z</time>
      </trkpt>
      <trkpt lat="46.47071" lon="8.25195">
        <ele>1316</ele>
        <time>2020-07-16T14:37:58.159Z</time>
      </trkpt>
      <trkpt lat="46.47072" lon="8.25197">
        <ele>1316</ele>
        <time>2020-07-16T14:37:59.159Z</time>
      </trkpt>
      <trkpt lat="46.47073" lon="8.25199">
        <ele>1316</ele>
        <time>2020-07-16T14:38:00.159Z</time>
      </trkpt>
      <trkpt lat="46.47073" lon="8.25201">
        <ele>1316</ele>
        <time>2020-07-16T14:38:01.158Z</time>
      </trkpt>
      <trkpt lat="46.47073" lon="8.25203">
        <ele>1317</ele>
        <time>2020-07-16T14:38:02.159Z</time>
      </trkpt>
      <trkpt lat="46.47073" lon="8.25205">
        <ele>1317</ele>
        <time>2020-07-16T14:38:03.159Z</time>
      </trkpt>
      <trkpt lat="46.47073" lon="8.25207">
        <ele>1317</ele>
        <time>2020-07-16T14:38:04.158Z</time>
      </trkpt>
      <trkpt lat="46.47073" lon="8.25209">
        <ele>1317</ele>
        <time>2020-07-16T14:38:05.159Z</time>
      </trkpt>
      <trkpt lat="46.47073" lon="8.2521">
        <ele>1317</ele>
        <time>2020-07-16T14:38:06.159Z</time>
      </trkpt>
      <trkpt lat="46.47073" lon="8.25212">
        <ele>1318</ele>
        <time>2020-07-16T14:38:07.158Z</time>
      </trkpt>
      <trkpt lat="46.47072" lon="8.25214">
        <ele>1318</ele>
        <time>2020-07-16T14:38:08.158Z</time>
      </trkpt>
      <trkpt lat="46.47072" lon="8.25216">
        <ele>1318</ele>
        <time>2020-07-16T14:38:09.158Z</time>
      </trkpt>
      <trkpt lat="46.47072" lon="8.25217">
        <ele>1318</ele>
        <time>2020-07-16T14:38:10.159Z</time>
      </trkpt>
      <trkpt lat="46.47072" lon="8.25219">
        <ele>1319</ele>
        <time>2020-07-16T14:38:11.159Z</time>
      </trkpt>
      <trkpt lat="46.47072" lon="8.2522">
        <ele>1319</ele>
        <time>2020-07-16T14:38:12.159Z</time>
      </trkpt>
      <trkpt lat="46.47073" lon="8.25222">
        <ele>1319</ele>
        <time>2020-07-16T14:38:13.159Z</time>
      </trkpt>
      <trkpt lat="46.47073" lon="8.25224">
        <ele>1319</ele>
        <time>2020-07-16T14:38:14.159Z</time>
      </trkpt>
      <trkpt lat="46.47072" lon="8.25225">
        <ele>1319</ele>
        <time>2020-07-16T14:38:15.159Z</time>
      </trkpt>
      <trkpt lat="46.47072" lon="8.25227">
        <ele>1320</ele>
        <time>2020-07-16T14:38:16.158Z</time>
      </trkpt>
      <trkpt lat="46.47072" lon="8.25229">
        <ele>1320</ele>
        <time>2020-07-16T14:38:17.159Z</time>
      </trkpt>
      <trkpt lat="46.47072" lon="8.25231">
        <ele>1320</ele>
        <time>2020-07-16T14:38:18.159Z</time>
      </trkpt>
      <trkpt lat="46.47072" lon="8.25233">
        <ele>1321</ele>
        <time>2020-07-16T14:38:19.158Z</time>
      </trkpt>
      <trkpt lat="46.47072" lon="8.25235">
        <ele>1321</ele>
        <time>2020-07-16T14:38:20.159Z</time>
      </trkpt>
      <trkpt lat="46.47071" lon="8.25237">
        <ele>1321</ele>
        <time>2020-07-16T14:38:21.159Z</time>
      </trkpt>
      <trkpt lat="46.47071" lon="8.25239">
        <ele>1321</ele>
        <time>2020-07-16T14:38:22.159Z</time>
      </trkpt>
      <trkpt lat="46.47071" lon="8.25241">
        <ele>1321</ele>
        <time>2020-07-16T14:38:23.159Z</time>
      </trkpt>
      <trkpt lat="46.47071" lon="8.25243">
        <ele>1320</ele>
        <time>2020-07-16T14:38:24.159Z</time>
      </trkpt>
      <trkpt lat="46.4707" lon="8.25246">
        <ele>1320</ele>
        <time>2020-07-16T14:38:25.159Z</time>
      </trkpt>
      <trkpt lat="46.4707" lon="8.25249">
        <ele>1320</ele>
        <time>2020-07-16T14:38:26.159Z</time>
      </trkpt>
      <trkpt lat="46.47069" lon="8.25253">
        <ele>1320</ele>
        <time>2020-07-16T14:38:27.158Z</time>
      </trkpt>
      <trkpt lat="46.47069" lon="8.25258">
        <ele>1320</ele>
        <time>2020-07-16T14:38:28.158Z</time>
      </trkpt>
      <trkpt lat="46.47068" lon="8.25262">
        <ele>1321</ele>
        <time>2020-07-16T14:38:29.158Z</time>
      </trkpt>
      <trkpt lat="46.47067" lon="8.25267">
        <ele>1321</ele>
        <time>2020-07-16T14:38:30.158Z</time>
      </trkpt>
      <trkpt lat="46.47067" lon="8.25271">
        <ele>1321</ele>
        <time>2020-07-16T14:38:31.159Z</time>
      </trkpt>
      <trkpt lat="46.47066" lon="8.25275">
        <ele>1321</ele>
        <time>2020-07-16T14:38:32.159Z</time>
      </trkpt>
      <trkpt lat="46.47066" lon="8.25279">
        <ele>1321</ele>
        <time>2020-07-16T14:38:33.159Z</time>
      </trkpt>
      <trkpt lat="46.47066" lon="8.25281">
        <ele>1321</ele>
        <time>2020-07-16T14:38:34.159Z</time>
      </trkpt>
      <trkpt lat="46.47066" lon="8.25283">
        <ele>1320</ele>
        <time>2020-07-16T14:38:35.159Z</time>
      </trkpt>
      <trkpt lat="46.47066" lon="8.25285">
        <ele>1320</ele>
        <time>2020-07-16T14:38:36.159Z</time>
      </trkpt>
      <trkpt lat="46.47066" lon="8.25286">
        <ele>1320</ele>
        <time>2020-07-16T14:38:37.158Z</time>
      </trkpt>
      <trkpt lat="46.47066" lon="8.25288">
        <ele>1320</ele>
        <time>2020-07-16T14:38:38.159Z</time>
      </trkpt>
      <trkpt lat="46.47066" lon="8.25291">
        <ele>1319</ele>
        <time>2020-07-16T14:38:39.159Z</time>
      </trkpt>
      <trkpt lat="46.47066" lon="8.25292">
        <ele>1319</ele>
        <time>2020-07-16T14:38:40.159Z</time>
      </trkpt>
      <trkpt lat="46.47066" lon="8.25294">
        <ele>1318</ele>
        <time>2020-07-16T14:38:41.158Z</time>
      </trkpt>
      <trkpt lat="46.47066" lon="8.25296">
        <ele>1318</ele>
        <time>2020-07-16T14:38:42.158Z</time>
      </trkpt>
      <trkpt lat="46.47066" lon="8.25298">
        <ele>1318</ele>
        <time>2020-07-16T14:38:43.159Z</time>
      </trkpt>
      <trkpt lat="46.47066" lon="8.253">
        <ele>1318</ele>
        <time>2020-07-16T14:38:44.159Z</time>
      </trkpt>
      <trkpt lat="46.47066" lon="8.25302">
        <ele>1318</ele>
        <time>2020-07-16T14:38:45.159Z</time>
      </trkpt>
      <trkpt lat="46.47066" lon="8.25303">
        <ele>1318</ele>
        <time>2020-07-16T14:38:46.158Z</time>
      </trkpt>
      <trkpt lat="46.47066" lon="8.25306">
        <ele>1318</ele>
        <time>2020-07-16T14:38:47.159Z</time>
      </trkpt>
      <trkpt lat="46.47066" lon="8.25308">
        <ele>1318</ele>
        <time>2020-07-16T14:38:48.159Z</time>
      </trkpt>
      <trkpt lat="46.47066" lon="8.2531">
        <ele>1317</ele>
        <time>2020-07-16T14:38:49.159Z</time>
      </trkpt>
      <trkpt lat="46.47067" lon="8.25312">
        <ele>1317</ele>
        <time>2020-07-16T14:38:50.159Z</time>
      </trkpt>
      <trkpt lat="46.47067" lon="8.25313">
        <ele>1317</ele>
        <time>2020-07-16T14:38:51.158Z</time>
      </trkpt>
      <trkpt lat="46.47067" lon="8.25315">
        <ele>1317</ele>
        <time>2020-07-16T14:38:52.158Z</time>
      </trkpt>
      <trkpt lat="46.47068" lon="8.25316">
        <ele>1317</ele>
        <time>2020-07-16T14:38:53.159Z</time>
      </trkpt>
      <trkpt lat="46.47068" lon="8.25317">
        <ele>1317</ele>
        <time>2020-07-16T14:38:54.158Z</time>
      </trkpt>
      <trkpt lat="46.47068" lon="8.25317">
        <ele>1317</ele>
        <time>2020-07-16T14:38:55.158Z</time>
      </trkpt>
      <trkpt lat="46.47068" lon="8.25317">
        <ele>1317</ele>
        <time>2020-07-16T14:38:56.159Z</time>
      </trkpt>
      <trkpt lat="46.47069" lon="8.25318">
        <ele>1317</ele>
        <time>2020-07-16T14:38:57.159Z</time>
      </trkpt>
      <trkpt lat="46.47069" lon="8.25319">
        <ele>1317</ele>
        <time>2020-07-16T14:38:58.159Z</time>
      </trkpt>
      <trkpt lat="46.47068" lon="8.2532">
        <ele>1317</ele>
        <time>2020-07-16T14:38:59.159Z</time>
      </trkpt>
      <trkpt lat="46.47068" lon="8.25321">
        <ele>1317</ele>
        <time>2020-07-16T14:39:00.160Z</time>
      </trkpt>
      <trkpt lat="46.47068" lon="8.25322">
        <ele>1317</ele>
        <time>2020-07-16T14:39:01.160Z</time>
      </trkpt>
      <trkpt lat="46.47068" lon="8.25323">
        <ele>1317</ele>
        <time>2020-07-16T14:39:02.160Z</time>
      </trkpt>
      <trkpt lat="46.47068" lon="8.25323">
        <ele>1317</ele>
        <time>2020-07-16T14:39:03.160Z</time>
      </trkpt>
      <trkpt lat="46.47069" lon="8.25324">
        <ele>1317</ele>
        <time>2020-07-16T14:39:04.159Z</time>
      </trkpt>
      <trkpt lat="46.47069" lon="8.25326">
        <ele>1317</ele>
        <time>2020-07-16T14:39:05.160Z</time>
      </trkpt>
      <trkpt lat="46.47069" lon="8.25327">
        <ele>1317</ele>
        <time>2020-07-16T14:39:06.159Z</time>
      </trkpt>
      <trkpt lat="46.47069" lon="8.25328">
        <ele>1317</ele>
        <time>2020-07-16T14:39:07.160Z</time>
      </trkpt>
      <trkpt lat="46.4707" lon="8.25329">
        <ele>1317</ele>
        <time>2020-07-16T14:39:08.159Z</time>
      </trkpt>
      <trkpt lat="46.4707" lon="8.25331">
        <ele>1318</ele>
        <time>2020-07-16T14:39:09.160Z</time>
      </trkpt>
      <trkpt lat="46.47071" lon="8.25332">
        <ele>1318</ele>
        <time>2020-07-16T14:39:10.160Z</time>
      </trkpt>
      <trkpt lat="46.47071" lon="8.25334">
        <ele>1318</ele>
        <time>2020-07-16T14:39:11.160Z</time>
      </trkpt>
      <trkpt lat="46.47071" lon="8.25335">
        <ele>1318</ele>
        <time>2020-07-16T14:39:12.159Z</time>
      </trkpt>
      <trkpt lat="46.47071" lon="8.25336">
        <ele>1317</ele>
        <time>2020-07-16T14:39:13.159Z</time>
      </trkpt>
      <trkpt lat="46.47072" lon="8.25338">
        <ele>1317</ele>
        <time>2020-07-16T14:39:14.159Z</time>
      </trkpt>
      <trkpt lat="46.47072" lon="8.25339">
        <ele>1317</ele>
        <time>2020-07-16T14:39:15.160Z</time>
      </trkpt>
      <trkpt lat="46.47072" lon="8.25341">
        <ele>1316</ele>
        <time>2020-07-16T14:39:16.160Z</time>
      </trkpt>
      <trkpt lat="46.47072" lon="8.25342">
        <ele>1316</ele>
        <time>2020-07-16T14:39:17.160Z</time>
      </trkpt>
      <trkpt lat="46.47073" lon="8.25343">
        <ele>1316</ele>
        <time>2020-07-16T14:39:18.160Z</time>
      </trkpt>
      <trkpt lat="46.47073" lon="8.25344">
        <ele>1316</ele>
        <time>2020-07-16T14:39:19.159Z</time>
      </trkpt>
      <trkpt lat="46.47074" lon="8.25346">
        <ele>1316</ele>
        <time>2020-07-16T14:39:20.160Z</time>
      </trkpt>
      <trkpt lat="46.47074" lon="8.25347">
        <ele>1316</ele>
        <time>2020-07-16T14:39:21.160Z</time>
      </trkpt>
      <trkpt lat="46.47075" lon="8.25348">
        <ele>1316</ele>
        <time>2020-07-16T14:39:22.160Z</time>
      </trkpt>
      <trkpt lat="46.47075" lon="8.25349">
        <ele>1316</ele>
        <time>2020-07-16T14:39:23.160Z</time>
      </trkpt>
      <trkpt lat="46.47075" lon="8.25351">
        <ele>1316</ele>
        <time>2020-07-16T14:39:24.159Z</time>
      </trkpt>
      <trkpt lat="46.47075" lon="8.25353">
        <ele>1316</ele>
        <time>2020-07-16T14:39:25.159Z</time>
      </trkpt>
      <trkpt lat="46.47076" lon="8.25355">
        <ele>1316</ele>
        <time>2020-07-16T14:39:26.160Z</time>
      </trkpt>
      <trkpt lat="46.47076" lon="8.25356">
        <ele>1316</ele>
        <time>2020-07-16T14:39:27.160Z</time>
      </trkpt>
      <trkpt lat="46.47077" lon="8.25358">
        <ele>1316</ele>
        <time>2020-07-16T14:39:28.159Z</time>
      </trkpt>
      <trkpt lat="46.47078" lon="8.2536">
        <ele>1316</ele>
        <time>2020-07-16T14:39:29.160Z</time>
      </trkpt>
      <trkpt lat="46.47078" lon="8.25361">
        <ele>1316</ele>
        <time>2020-07-16T14:39:30.159Z</time>
      </trkpt>
      <trkpt lat="46.47079" lon="8.25362">
        <ele>1316</ele>
        <time>2020-07-16T14:39:31.159Z</time>
      </trkpt>
      <trkpt lat="46.47079" lon="8.25364">
        <ele>1316</ele>
        <time>2020-07-16T14:39:32.159Z</time>
      </trkpt>
      <trkpt lat="46.4708" lon="8.25366">
        <ele>1317</ele>
        <time>2020-07-16T14:39:33.160Z</time>
      </trkpt>
      <trkpt lat="46.47081" lon="8.25367">
        <ele>1316</ele>
        <time>2020-07-16T14:39:34.160Z</time>
      </trkpt>
      <trkpt lat="46.47081" lon="8.25368">
        <ele>1316</ele>
        <time>2020-07-16T14:39:35.159Z</time>
      </trkpt>
      <trkpt lat="46.47082" lon="8.25369">
        <ele>1316</ele>
        <time>2020-07-16T14:39:36.159Z</time>
      </trkpt>
      <trkpt lat="46.47084" lon="8.25371">
        <ele>1316</ele>
        <time>2020-07-16T14:39:37.160Z</time>
      </trkpt>
      <trkpt lat="46.47085" lon="8.25372">
        <ele>1316</ele>
        <time>2020-07-16T14:39:38.160Z</time>
      </trkpt>
      <trkpt lat="46.47086" lon="8.25372">
        <ele>1316</ele>
        <time>2020-07-16T14:39:48.241Z</time>
      </trkpt>
      <trkpt lat="46.47087" lon="8.25373">
        <ele>1316</ele>
        <time>2020-07-16T14:39:49.241Z</time>
      </trkpt>
      <trkpt lat="46.47088" lon="8.25374">
        <ele>1316</ele>
        <time>2020-07-16T14:39:50.242Z</time>
      </trkpt>
      <trkpt lat="46.47089" lon="8.25375">
        <ele>1316</ele>
        <time>2020-07-16T14:39:51.242Z</time>
      </trkpt>
      <trkpt lat="46.4709" lon="8.25376">
        <ele>1316</ele>
        <time>2020-07-16T14:39:52.242Z</time>
      </trkpt>
      <trkpt lat="46.47091" lon="8.25377">
        <ele>1317</ele>
        <time>2020-07-16T14:39:56.416Z</time>
      </trkpt>
      <trkpt lat="46.47092" lon="8.25378">
        <ele>1317</ele>
        <time>2020-07-16T14:39:57.415Z</time>
      </trkpt>
      <trkpt lat="46.47093" lon="8.2538">
        <ele>1317</ele>
        <time>2020-07-16T14:39:58.415Z</time>
      </trkpt>
      <trkpt lat="46.47094" lon="8.25381">
        <ele>1318</ele>
        <time>2020-07-16T14:39:59.416Z</time>
      </trkpt>
      <trkpt lat="46.47095" lon="8.25382">
        <ele>1318</ele>
        <time>2020-07-16T14:40:00.416Z</time>
      </trkpt>
      <trkpt lat="46.47096" lon="8.25383">
        <ele>1319</ele>
        <time>2020-07-16T14:40:06.358Z</time>
      </trkpt>
      <trkpt lat="46.47097" lon="8.25384">
        <ele>1319</ele>
        <time>2020-07-16T14:40:07.358Z</time>
      </trkpt>
      <trkpt lat="46.47098" lon="8.25385">
        <ele>1320</ele>
        <time>2020-07-16T14:40:08.358Z</time>
      </trkpt>
      <trkpt lat="46.47099" lon="8.25386">
        <ele>1320</ele>
        <time>2020-07-16T14:40:09.359Z</time>
      </trkpt>
      <trkpt lat="46.471" lon="8.25388">
        <ele>1321</ele>
        <time>2020-07-16T14:40:10.359Z</time>
      </trkpt>
      <trkpt lat="46.47101" lon="8.25389">
        <ele>1321</ele>
        <time>2020-07-16T14:40:11.358Z</time>
      </trkpt>
      <trkpt lat="46.47102" lon="8.2539">
        <ele>1321</ele>
        <time>2020-07-16T14:40:12.359Z</time>
      </trkpt>
      <trkpt lat="46.47103" lon="8.25392">
        <ele>1321</ele>
        <time>2020-07-16T14:40:13.359Z</time>
      </trkpt>
      <trkpt lat="46.47104" lon="8.25393">
        <ele>1321</ele>
        <time>2020-07-16T14:40:14.358Z</time>
      </trkpt>
      <trkpt lat="46.47105" lon="8.25394">
        <ele>1321</ele>
        <time>2020-07-16T14:40:15.358Z</time>
      </trkpt>
      <trkpt lat="46.47106" lon="8.25395">
        <ele>1322</ele>
        <time>2020-07-16T14:40:16.358Z</time>
      </trkpt>
      <trkpt lat="46.47107" lon="8.25395">
        <ele>1322</ele>
        <time>2020-07-16T14:40:17.359Z</time>
      </trkpt>
      <trkpt lat="46.47108" lon="8.25395">
        <ele>1322</ele>
        <time>2020-07-16T14:40:18.358Z</time>
      </trkpt>
      <trkpt lat="46.47109" lon="8.25395">
        <ele>1321</ele>
        <time>2020-07-16T14:40:19.359Z</time>
      </trkpt>
      <trkpt lat="46.47111" lon="8.25395">
        <ele>1321</ele>
        <time>2020-07-16T14:40:20.358Z</time>
      </trkpt>
      <trkpt lat="46.47112" lon="8.25395">
        <ele>1321</ele>
        <time>2020-07-16T14:40:21.359Z</time>
      </trkpt>
      <trkpt lat="46.47113" lon="8.25395">
        <ele>1321</ele>
        <time>2020-07-16T14:40:22.358Z</time>
      </trkpt>
      <trkpt lat="46.47114" lon="8.25395">
        <ele>1320</ele>
        <time>2020-07-16T14:40:23.359Z</time>
      </trkpt>
      <trkpt lat="46.47115" lon="8.25395">
        <ele>1320</ele>
        <time>2020-07-16T14:40:24.358Z</time>
      </trkpt>
      <trkpt lat="46.47116" lon="8.25396">
        <ele>1320</ele>
        <time>2020-07-16T14:40:25.359Z</time>
      </trkpt>
      <trkpt lat="46.47117" lon="8.25396">
        <ele>1319</ele>
        <time>2020-07-16T14:40:26.358Z</time>
      </trkpt>
      <trkpt lat="46.47118" lon="8.25397">
        <ele>1319</ele>
        <time>2020-07-16T14:40:27.359Z</time>
      </trkpt>
      <trkpt lat="46.47119" lon="8.25398">
        <ele>1319</ele>
        <time>2020-07-16T14:40:28.358Z</time>
      </trkpt>
      <trkpt lat="46.4712" lon="8.25398">
        <ele>1319</ele>
        <time>2020-07-16T14:40:29.359Z</time>
      </trkpt>
      <trkpt lat="46.47121" lon="8.25399">
        <ele>1318</ele>
        <time>2020-07-16T14:40:30.359Z</time>
      </trkpt>
      <trkpt lat="46.47122" lon="8.254">
        <ele>1319</ele>
        <time>2020-07-16T14:40:31.359Z</time>
      </trkpt>
      <trkpt lat="46.47123" lon="8.25401">
        <ele>1319</ele>
        <time>2020-07-16T14:40:32.358Z</time>
      </trkpt>
      <trkpt lat="46.47124" lon="8.25403">
        <ele>1319</ele>
        <time>2020-07-16T14:40:33.358Z</time>
      </trkpt>
      <trkpt lat="46.47125" lon="8.25404">
        <ele>1319</ele>
        <time>2020-07-16T14:40:34.358Z</time>
      </trkpt>
      <trkpt lat="46.47126" lon="8.25405">
        <ele>1319</ele>
        <time>2020-07-16T14:40:35.358Z</time>
      </trkpt>
      <trkpt lat="46.47127" lon="8.25406">
        <ele>1319</ele>
        <time>2020-07-16T14:40:36.359Z</time>
      </trkpt>
      <trkpt lat="46.47128" lon="8.25407">
        <ele>1319</ele>
        <time>2020-07-16T14:40:37.359Z</time>
      </trkpt>
      <trkpt lat="46.47129" lon="8.25408">
        <ele>1319</ele>
        <time>2020-07-16T14:40:38.358Z</time>
      </trkpt>
      <trkpt lat="46.4713" lon="8.25409">
        <ele>1320</ele>
        <time>2020-07-16T14:41:05.382Z</time>
      </trkpt>
      <trkpt lat="46.47131" lon="8.2541">
        <ele>1320</ele>
        <time>2020-07-16T14:41:06.382Z</time>
      </trkpt>
      <trkpt lat="46.47132" lon="8.25411">
        <ele>1321</ele>
        <time>2020-07-16T14:41:07.382Z</time>
      </trkpt>
      <trkpt lat="46.47134" lon="8.25412">
        <ele>1321</ele>
        <time>2020-07-16T14:41:14.134Z</time>
      </trkpt>
      <trkpt lat="46.47135" lon="8.25413">
        <ele>1322</ele>
        <time>2020-07-16T14:41:15.134Z</time>
      </trkpt>
      <trkpt lat="46.47136" lon="8.25413">
        <ele>1322</ele>
        <time>2020-07-16T14:41:16.133Z</time>
      </trkpt>
      <trkpt lat="46.47137" lon="8.25414">
        <ele>1323</ele>
        <time>2020-07-16T14:41:17.134Z</time>
      </trkpt>
      <trkpt lat="46.47137" lon="8.25415">
        <ele>1323</ele>
        <time>2020-07-16T14:41:18.134Z</time>
      </trkpt>
      <trkpt lat="46.47138" lon="8.25416">
        <ele>1323</ele>
        <time>2020-07-16T14:41:19.134Z</time>
      </trkpt>
      <trkpt lat="46.47139" lon="8.25417">
        <ele>1323</ele>
        <time>2020-07-16T14:41:23.114Z</time>
      </trkpt>
      <trkpt lat="46.4714" lon="8.25418">
        <ele>1323</ele>
        <time>2020-07-16T14:41:24.113Z</time>
      </trkpt>
      <trkpt lat="46.4714" lon="8.25419">
        <ele>1323</ele>
        <time>2020-07-16T14:41:25.114Z</time>
      </trkpt>
      <trkpt lat="46.47141" lon="8.2542">
        <ele>1323</ele>
        <time>2020-07-16T14:41:41.111Z</time>
      </trkpt>
      <trkpt lat="46.47142" lon="8.25421">
        <ele>1323</ele>
        <time>2020-07-16T14:41:42.112Z</time>
      </trkpt>
      <trkpt lat="46.47143" lon="8.25422">
        <ele>1322</ele>
        <time>2020-07-16T14:41:43.112Z</time>
      </trkpt>
      <trkpt lat="46.47144" lon="8.25423">
        <ele>1322</ele>
        <time>2020-07-16T14:41:44.111Z</time>
      </trkpt>
      <trkpt lat="46.47145" lon="8.25424">
        <ele>1321</ele>
        <time>2020-07-16T14:41:45.112Z</time>
      </trkpt>
      <trkpt lat="46.47146" lon="8.25424">
        <ele>1321</ele>
        <time>2020-07-16T14:41:46.112Z</time>
      </trkpt>
      <trkpt lat="46.47147" lon="8.25424">
        <ele>1321</ele>
        <time>2020-07-16T14:41:47.111Z</time>
      </trkpt>
      <trkpt lat="46.47149" lon="8.25425">
        <ele>1321</ele>
        <time>2020-07-16T14:41:48.111Z</time>
      </trkpt>
      <trkpt lat="46.4715" lon="8.25425">
        <ele>1321</ele>
        <time>2020-07-16T14:41:49.112Z</time>
      </trkpt>
      <trkpt lat="46.47151" lon="8.25425">
        <ele>1321</ele>
        <time>2020-07-16T14:41:50.111Z</time>
      </trkpt>
      <trkpt lat="46.47151" lon="8.25426">
        <ele>1321</ele>
        <time>2020-07-16T14:41:51.111Z</time>
      </trkpt>
      <trkpt lat="46.47152" lon="8.25427">
        <ele>1321</ele>
        <time>2020-07-16T14:41:52.112Z</time>
      </trkpt>
      <trkpt lat="46.47153" lon="8.25427">
        <ele>1321</ele>
        <time>2020-07-16T14:41:53.111Z</time>
      </trkpt>
      <trkpt lat="46.47154" lon="8.25428">
        <ele>1321</ele>
        <time>2020-07-16T14:41:54.111Z</time>
      </trkpt>
      <trkpt lat="46.47155" lon="8.25429">
        <ele>1321</ele>
        <time>2020-07-16T14:41:55.112Z</time>
      </trkpt>
      <trkpt lat="46.47156" lon="8.2543">
        <ele>1320</ele>
        <time>2020-07-16T14:41:56.111Z</time>
      </trkpt>
      <trkpt lat="46.47157" lon="8.2543">
        <ele>1320</ele>
        <time>2020-07-16T14:41:57.112Z</time>
      </trkpt>
      <trkpt lat="46.47158" lon="8.2543">
        <ele>1320</ele>
        <time>2020-07-16T14:41:58.111Z</time>
      </trkpt>
      <trkpt lat="46.47159" lon="8.2543">
        <ele>1320</ele>
        <time>2020-07-16T14:41:59.111Z</time>
      </trkpt>
      <trkpt lat="46.47161" lon="8.25431">
        <ele>1320</ele>
        <time>2020-07-16T14:42:00.112Z</time>
      </trkpt>
      <trkpt lat="46.47162" lon="8.25433">
        <ele>1320</ele>
        <time>2020-07-16T14:42:01.111Z</time>
      </trkpt>
      <trkpt lat="46.47163" lon="8.25434">
        <ele>1320</ele>
        <time>2020-07-16T14:42:02.111Z</time>
      </trkpt>
      <trkpt lat="46.47164" lon="8.25434">
        <ele>1320</ele>
        <time>2020-07-16T14:42:03.111Z</time>
      </trkpt>
      <trkpt lat="46.47165" lon="8.25435">
        <ele>1320</ele>
        <time>2020-07-16T14:42:04.112Z</time>
      </trkpt>
      <trkpt lat="46.47166" lon="8.25436">
        <ele>1320</ele>
        <time>2020-07-16T14:42:05.112Z</time>
      </trkpt>
      <trkpt lat="46.47167" lon="8.25436">
        <ele>1321</ele>
        <time>2020-07-16T14:42:06.112Z</time>
      </trkpt>
      <trkpt lat="46.47168" lon="8.25436">
        <ele>1321</ele>
        <time>2020-07-16T14:42:07.111Z</time>
      </trkpt>
      <trkpt lat="46.47169" lon="8.25437">
        <ele>1321</ele>
        <time>2020-07-16T14:42:08.112Z</time>
      </trkpt>
      <trkpt lat="46.47169" lon="8.25437">
        <ele>1321</ele>
        <time>2020-07-16T14:42:09.111Z</time>
      </trkpt>
      <trkpt lat="46.4717" lon="8.25438">
        <ele>1322</ele>
        <time>2020-07-16T14:42:10.111Z</time>
      </trkpt>
      <trkpt lat="46.47171" lon="8.25438">
        <ele>1322</ele>
        <time>2020-07-16T14:42:11.111Z</time>
      </trkpt>
      <trkpt lat="46.47172" lon="8.25439">
        <ele>1322</ele>
        <time>2020-07-16T14:42:24.130Z</time>
      </trkpt>
      <trkpt lat="46.47173" lon="8.25439">
        <ele>1323</ele>
        <time>2020-07-16T14:42:25.131Z</time>
      </trkpt>
      <trkpt lat="46.47174" lon="8.2544">
        <ele>1323</ele>
        <time>2020-07-16T14:42:26.130Z</time>
      </trkpt>
      <trkpt lat="46.47174" lon="8.2544">
        <ele>1323</ele>
        <time>2020-07-16T14:42:27.131Z</time>
      </trkpt>
      <trkpt lat="46.47175" lon="8.2544">
        <ele>1322</ele>
        <time>2020-07-16T14:42:28.131Z</time>
      </trkpt>
      <trkpt lat="46.47176" lon="8.25441">
        <ele>1322</ele>
        <time>2020-07-16T14:42:30.112Z</time>
      </trkpt>
      <trkpt lat="46.47177" lon="8.25441">
        <ele>1322</ele>
        <time>2020-07-16T14:42:31.112Z</time>
      </trkpt>
      <trkpt lat="46.47178" lon="8.25442">
        <ele>1322</ele>
        <time>2020-07-16T14:42:32.113Z</time>
      </trkpt>
      <trkpt lat="46.47179" lon="8.25442">
        <ele>1322</ele>
        <time>2020-07-16T14:42:33.113Z</time>
      </trkpt>
      <trkpt lat="46.4718" lon="8.25443">
        <ele>1322</ele>
        <time>2020-07-16T14:42:34.113Z</time>
      </trkpt>
      <trkpt lat="46.47181" lon="8.25443">
        <ele>1322</ele>
        <time>2020-07-16T14:42:35.112Z</time>
      </trkpt>
      <trkpt lat="46.47182" lon="8.25444">
        <ele>1322</ele>
        <time>2020-07-16T14:42:36.112Z</time>
      </trkpt>
      <trkpt lat="46.47183" lon="8.25444">
        <ele>1322</ele>
        <time>2020-07-16T14:42:37.113Z</time>
      </trkpt>
      <trkpt lat="46.47184" lon="8.25445">
        <ele>1322</ele>
        <time>2020-07-16T14:42:38.112Z</time>
      </trkpt>
      <trkpt lat="46.47185" lon="8.25445">
        <ele>1322</ele>
        <time>2020-07-16T14:42:39.113Z</time>
      </trkpt>
      <trkpt lat="46.47186" lon="8.25446">
        <ele>1323</ele>
        <time>2020-07-16T14:42:40.113Z</time>
      </trkpt>
      <trkpt lat="46.47187" lon="8.25447">
        <ele>1323</ele>
        <time>2020-07-16T14:42:41.112Z</time>
      </trkpt>
      <trkpt lat="46.47188" lon="8.25448">
        <ele>1323</ele>
        <time>2020-07-16T14:42:42.112Z</time>
      </trkpt>
      <trkpt lat="46.4719" lon="8.25448">
        <ele>1323</ele>
        <time>2020-07-16T14:42:43.112Z</time>
      </trkpt>
      <trkpt lat="46.47191" lon="8.25448">
        <ele>1323</ele>
        <time>2020-07-16T14:42:44.112Z</time>
      </trkpt>
      <trkpt lat="46.47192" lon="8.25448">
        <ele>1323</ele>
        <time>2020-07-16T14:42:45.113Z</time>
      </trkpt>
      <trkpt lat="46.47193" lon="8.25448">
        <ele>1323</ele>
        <time>2020-07-16T14:42:46.112Z</time>
      </trkpt>
      <trkpt lat="46.47194" lon="8.25448">
        <ele>1323</ele>
        <time>2020-07-16T14:42:47.113Z</time>
      </trkpt>
      <trkpt lat="46.47195" lon="8.25449">
        <ele>1323</ele>
        <time>2020-07-16T14:42:48.113Z</time>
      </trkpt>
      <trkpt lat="46.47196" lon="8.25449">
        <ele>1323</ele>
        <time>2020-07-16T14:42:49.112Z</time>
      </trkpt>
      <trkpt lat="46.47197" lon="8.2545">
        <ele>1323</ele>
        <time>2020-07-16T14:42:50.112Z</time>
      </trkpt>
      <trkpt lat="46.47198" lon="8.25451">
        <ele>1323</ele>
        <time>2020-07-16T14:42:51.113Z</time>
      </trkpt>
      <trkpt lat="46.47199" lon="8.25452">
        <ele>1323</ele>
        <time>2020-07-16T14:42:52.112Z</time>
      </trkpt>
      <trkpt lat="46.472" lon="8.25452">
        <ele>1323</ele>
        <time>2020-07-16T14:42:53.112Z</time>
      </trkpt>
      <trkpt lat="46.47201" lon="8.25452">
        <ele>1323</ele>
        <time>2020-07-16T14:42:54.112Z</time>
      </trkpt>
      <trkpt lat="46.47202" lon="8.25453">
        <ele>1323</ele>
        <time>2020-07-16T14:42:55.113Z</time>
      </trkpt>
      <trkpt lat="46.47203" lon="8.25453">
        <ele>1323</ele>
        <time>2020-07-16T14:42:56.112Z</time>
      </trkpt>
      <trkpt lat="46.47204" lon="8.25453">
        <ele>1323</ele>
        <time>2020-07-16T14:42:57.113Z</time>
      </trkpt>
      <trkpt lat="46.47205" lon="8.25453">
        <ele>1323</ele>
        <time>2020-07-16T14:42:58.112Z</time>
      </trkpt>
      <trkpt lat="46.47205" lon="8.25453">
        <ele>1322</ele>
        <time>2020-07-16T14:42:59.112Z</time>
      </trkpt>
      <trkpt lat="46.47206" lon="8.25453">
        <ele>1322</ele>
        <time>2020-07-16T14:43:00.112Z</time>
      </trkpt>
      <trkpt lat="46.47208" lon="8.25453">
        <ele>1321</ele>
        <time>2020-07-16T14:43:20.258Z</time>
      </trkpt>
      <trkpt lat="46.47209" lon="8.25454">
        <ele>1321</ele>
        <time>2020-07-16T14:43:21.257Z</time>
      </trkpt>
      <trkpt lat="46.4721" lon="8.25454">
        <ele>1321</ele>
        <time>2020-07-16T14:43:22.258Z</time>
      </trkpt>
      <trkpt lat="46.47211" lon="8.25454">
        <ele>1321</ele>
        <time>2020-07-16T14:43:23.258Z</time>
      </trkpt>
      <trkpt lat="46.47213" lon="8.25455">
        <ele>1321</ele>
        <time>2020-07-16T14:43:28.382Z</time>
      </trkpt>
      <trkpt lat="46.47214" lon="8.25456">
        <ele>1321</ele>
        <time>2020-07-16T14:43:29.383Z</time>
      </trkpt>
      <trkpt lat="46.47215" lon="8.25456">
        <ele>1321</ele>
        <time>2020-07-16T14:43:30.382Z</time>
      </trkpt>
      <trkpt lat="46.47216" lon="8.25456">
        <ele>1321</ele>
        <time>2020-07-16T14:43:31.383Z</time>
      </trkpt>
      <trkpt lat="46.47217" lon="8.25456">
        <ele>1321</ele>
        <time>2020-07-16T14:43:32.382Z</time>
      </trkpt>
      <trkpt lat="46.47218" lon="8.25457">
        <ele>1321</ele>
        <time>2020-07-16T14:43:33.383Z</time>
      </trkpt>
      <trkpt lat="46.47219" lon="8.25457">
        <ele>1321</ele>
        <time>2020-07-16T14:43:34.382Z</time>
      </trkpt>
      <trkpt lat="46.47219" lon="8.25457">
        <ele>1321</ele>
        <time>2020-07-16T14:43:35.383Z</time>
      </trkpt>
      <trkpt lat="46.47221" lon="8.25458">
        <ele>1321</ele>
        <time>2020-07-16T14:43:36.383Z</time>
      </trkpt>
      <trkpt lat="46.47222" lon="8.25458">
        <ele>1321</ele>
        <time>2020-07-16T14:43:37.383Z</time>
      </trkpt>
      <trkpt lat="46.47223" lon="8.25459">
        <ele>1321</ele>
        <time>2020-07-16T14:43:38.382Z</time>
      </trkpt>
      <trkpt lat="46.47225" lon="8.25459">
        <ele>1322</ele>
        <time>2020-07-16T14:43:39.383Z</time>
      </trkpt>
      <trkpt lat="46.47226" lon="8.25459">
        <ele>1322</ele>
        <time>2020-07-16T14:43:40.383Z</time>
      </trkpt>
      <trkpt lat="46.47227" lon="8.25459">
        <ele>1322</ele>
        <time>2020-07-16T14:43:41.382Z</time>
      </trkpt>
      <trkpt lat="46.47228" lon="8.25459">
        <ele>1322</ele>
        <time>2020-07-16T14:43:42.382Z</time>
      </trkpt>
      <trkpt lat="46.47229" lon="8.2546">
        <ele>1321</ele>
        <time>2020-07-16T14:43:43.382Z</time>
      </trkpt>
      <trkpt lat="46.47231" lon="8.2546">
        <ele>1321</ele>
        <time>2020-07-16T14:43:44.383Z</time>
      </trkpt>
      <trkpt lat="46.47232" lon="8.2546">
        <ele>1321</ele>
        <time>2020-07-16T14:43:45.382Z</time>
      </trkpt>
      <trkpt lat="46.47233" lon="8.2546">
        <ele>1320</ele>
        <time>2020-07-16T14:43:46.382Z</time>
      </trkpt>
      <trkpt lat="46.47234" lon="8.2546">
        <ele>1320</ele>
        <time>2020-07-16T14:43:47.382Z</time>
      </trkpt>
      <trkpt lat="46.47235" lon="8.25461">
        <ele>1320</ele>
        <time>2020-07-16T14:43:48.383Z</time>
      </trkpt>
      <trkpt lat="46.47236" lon="8.25461">
        <ele>1320</ele>
        <time>2020-07-16T14:43:49.383Z</time>
      </trkpt>
      <trkpt lat="46.47237" lon="8.25461">
        <ele>1319</ele>
        <time>2020-07-16T14:43:50.383Z</time>
      </trkpt>
      <trkpt lat="46.47237" lon="8.25461">
        <ele>1319</ele>
        <time>2020-07-16T14:43:51.383Z</time>
      </trkpt>
      <trkpt lat="46.47238" lon="8.25461">
        <ele>1319</ele>
        <time>2020-07-16T14:43:52.383Z</time>
      </trkpt>
      <trkpt lat="46.47238" lon="8.25461">
        <ele>1319</ele>
        <time>2020-07-16T14:43:53.383Z</time>
      </trkpt>
      <trkpt lat="46.4724" lon="8.25461">
        <ele>1320</ele>
        <time>2020-07-16T14:43:54.383Z</time>
      </trkpt>
      <trkpt lat="46.47241" lon="8.25462">
        <ele>1321</ele>
        <time>2020-07-16T14:43:55.382Z</time>
      </trkpt>
      <trkpt lat="46.47242" lon="8.25462">
        <ele>1322</ele>
        <time>2020-07-16T14:43:56.382Z</time>
      </trkpt>
      <trkpt lat="46.47243" lon="8.25463">
        <ele>1322</ele>
        <time>2020-07-16T14:43:57.382Z</time>
      </trkpt>
      <trkpt lat="46.47244" lon="8.25463">
        <ele>1322</ele>
        <time>2020-07-16T14:43:58.383Z</time>
      </trkpt>
      <trkpt lat="46.47245" lon="8.25463">
        <ele>1322</ele>
        <time>2020-07-16T14:43:59.382Z</time>
      </trkpt>
      <trkpt lat="46.47247" lon="8.25464">
        <ele>1323</ele>
        <time>2020-07-16T14:44:00.383Z</time>
      </trkpt>
      <trkpt lat="46.47248" lon="8.25464">
        <ele>1322</ele>
        <time>2020-07-16T14:44:01.383Z</time>
      </trkpt>
      <trkpt lat="46.47249" lon="8.25464">
        <ele>1322</ele>
        <time>2020-07-16T14:44:02.383Z</time>
      </trkpt>
      <trkpt lat="46.47251" lon="8.25465">
        <ele>1322</ele>
        <time>2020-07-16T14:44:03.383Z</time>
      </trkpt>
      <trkpt lat="46.47251" lon="8.25466">
        <ele>1322</ele>
        <time>2020-07-16T14:44:04.383Z</time>
      </trkpt>
      <trkpt lat="46.47253" lon="8.25466">
        <ele>1322</ele>
        <time>2020-07-16T14:44:05.383Z</time>
      </trkpt>
      <trkpt lat="46.47254" lon="8.25467">
        <ele>1321</ele>
        <time>2020-07-16T14:44:06.382Z</time>
      </trkpt>
      <trkpt lat="46.47255" lon="8.25467">
        <ele>1321</ele>
        <time>2020-07-16T14:44:07.383Z</time>
      </trkpt>
      <trkpt lat="46.47256" lon="8.25468">
        <ele>1321</ele>
        <time>2020-07-16T14:44:08.383Z</time>
      </trkpt>
      <trkpt lat="46.47257" lon="8.25468">
        <ele>1321</ele>
        <time>2020-07-16T14:44:09.382Z</time>
      </trkpt>
      <trkpt lat="46.47259" lon="8.25468">
        <ele>1322</ele>
        <time>2020-07-16T14:44:10.383Z</time>
      </trkpt>
      <trkpt lat="46.4726" lon="8.25468">
        <ele>1322</ele>
        <time>2020-07-16T14:44:11.383Z</time>
      </trkpt>
      <trkpt lat="46.47261" lon="8.25468">
        <ele>1322</ele>
        <time>2020-07-16T14:44:12.383Z</time>
      </trkpt>
      <trkpt lat="46.47262" lon="8.25469">
        <ele>1322</ele>
        <time>2020-07-16T14:44:13.382Z</time>
      </trkpt>
      <trkpt lat="46.47263" lon="8.25469">
        <ele>1323</ele>
        <time>2020-07-16T14:44:14.383Z</time>
      </trkpt>
      <trkpt lat="46.47264" lon="8.25469">
        <ele>1322</ele>
        <time>2020-07-16T14:44:15.383Z</time>
      </trkpt>
      <trkpt lat="46.47266" lon="8.2547">
        <ele>1322</ele>
        <time>2020-07-16T14:44:16.382Z</time>
      </trkpt>
      <trkpt lat="46.47266" lon="8.2547">
        <ele>1322</ele>
        <time>2020-07-16T14:44:17.382Z</time>
      </trkpt>
      <trkpt lat="46.47268" lon="8.2547">
        <ele>1322</ele>
        <time>2020-07-16T14:44:18.383Z</time>
      </trkpt>
      <trkpt lat="46.47269" lon="8.25471">
        <ele>1322</ele>
        <time>2020-07-16T14:44:19.383Z</time>
      </trkpt>
      <trkpt lat="46.4727" lon="8.25471">
        <ele>1323</ele>
        <time>2020-07-16T14:44:20.383Z</time>
      </trkpt>
      <trkpt lat="46.47271" lon="8.25472">
        <ele>1323</ele>
        <time>2020-07-16T14:44:21.382Z</time>
      </trkpt>
      <trkpt lat="46.47272" lon="8.25473">
        <ele>1323</ele>
        <time>2020-07-16T14:44:22.382Z</time>
      </trkpt>
      <trkpt lat="46.47272" lon="8.25473">
        <ele>1322</ele>
        <time>2020-07-16T14:44:23.382Z</time>
      </trkpt>
      <trkpt lat="46.47273" lon="8.25474">
        <ele>1322</ele>
        <time>2020-07-16T14:44:24.382Z</time>
      </trkpt>
      <trkpt lat="46.47274" lon="8.25474">
        <ele>1322</ele>
        <time>2020-07-16T14:44:25.382Z</time>
      </trkpt>
      <trkpt lat="46.47276" lon="8.25474">
        <ele>1322</ele>
        <time>2020-07-16T14:44:26.382Z</time>
      </trkpt>
      <trkpt lat="46.47277" lon="8.25474">
        <ele>1322</ele>
        <time>2020-07-16T14:44:27.383Z</time>
      </trkpt>
      <trkpt lat="46.47278" lon="8.25474">
        <ele>1322</ele>
        <time>2020-07-16T14:44:28.383Z</time>
      </trkpt>
      <trkpt lat="46.4728" lon="8.25474">
        <ele>1322</ele>
        <time>2020-07-16T14:44:29.382Z</time>
      </trkpt>
      <trkpt lat="46.47281" lon="8.25474">
        <ele>1321</ele>
        <time>2020-07-16T14:44:30.383Z</time>
      </trkpt>
      <trkpt lat="46.47282" lon="8.25474">
        <ele>1321</ele>
        <time>2020-07-16T14:44:31.382Z</time>
      </trkpt>
      <trkpt lat="46.47283" lon="8.25475">
        <ele>1321</ele>
        <time>2020-07-16T14:44:32.382Z</time>
      </trkpt>
      <trkpt lat="46.47284" lon="8.25475">
        <ele>1322</ele>
        <time>2020-07-16T14:44:33.383Z</time>
      </trkpt>
      <trkpt lat="46.47285" lon="8.25475">
        <ele>1322</ele>
        <time>2020-07-16T14:44:34.383Z</time>
      </trkpt>
      <trkpt lat="46.47286" lon="8.25475">
        <ele>1323</ele>
        <time>2020-07-16T14:44:35.383Z</time>
      </trkpt>
      <trkpt lat="46.47287" lon="8.25476">
        <ele>1323</ele>
        <time>2020-07-16T14:44:36.383Z</time>
      </trkpt>
      <trkpt lat="46.47288" lon="8.25476">
        <ele>1324</ele>
        <time>2020-07-16T14:44:37.383Z</time>
      </trkpt>
      <trkpt lat="46.47289" lon="8.25477">
        <ele>1324</ele>
        <time>2020-07-16T14:44:38.383Z</time>
      </trkpt>
      <trkpt lat="46.4729" lon="8.25477">
        <ele>1324</ele>
        <time>2020-07-16T14:44:39.383Z</time>
      </trkpt>
      <trkpt lat="46.47291" lon="8.25478">
        <ele>1324</ele>
        <time>2020-07-16T14:44:40.383Z</time>
      </trkpt>
      <trkpt lat="46.47292" lon="8.25478">
        <ele>1324</ele>
        <time>2020-07-16T14:44:41.383Z</time>
      </trkpt>
      <trkpt lat="46.47293" lon="8.25479">
        <ele>1324</ele>
        <time>2020-07-16T14:44:42.382Z</time>
      </trkpt>
      <trkpt lat="46.47294" lon="8.2548">
        <ele>1324</ele>
        <time>2020-07-16T14:44:43.382Z</time>
      </trkpt>
      <trkpt lat="46.47295" lon="8.25481">
        <ele>1324</ele>
        <time>2020-07-16T14:44:44.382Z</time>
      </trkpt>
      <trkpt lat="46.47296" lon="8.25482">
        <ele>1325</ele>
        <time>2020-07-16T14:44:45.382Z</time>
      </trkpt>
      <trkpt lat="46.47297" lon="8.25482">
        <ele>1325</ele>
        <time>2020-07-16T14:44:46.382Z</time>
      </trkpt>
      <trkpt lat="46.47299" lon="8.25482">
        <ele>1325</ele>
        <time>2020-07-16T14:44:47.382Z</time>
      </trkpt>
      <trkpt lat="46.473" lon="8.25483">
        <ele>1326</ele>
        <time>2020-07-16T14:44:48.382Z</time>
      </trkpt>
      <trkpt lat="46.47301" lon="8.25483">
        <ele>1326</ele>
        <time>2020-07-16T14:44:49.382Z</time>
      </trkpt>
      <trkpt lat="46.47302" lon="8.25483">
        <ele>1325</ele>
        <time>2020-07-16T14:44:50.383Z</time>
      </trkpt>
      <trkpt lat="46.47302" lon="8.25483">
        <ele>1325</ele>
        <time>2020-07-16T14:44:51.383Z</time>
      </trkpt>
      <trkpt lat="46.47302" lon="8.25482">
        <ele>1324</ele>
        <time>2020-07-16T14:44:52.383Z</time>
      </trkpt>
      <trkpt lat="46.47302" lon="8.25482">
        <ele>1324</ele>
        <time>2020-07-16T14:44:53.382Z</time>
      </trkpt>
      <trkpt lat="46.47301" lon="8.25484">
        <ele>1321</ele>
        <time>2020-07-16T14:45:13.484Z</time>
      </trkpt>
      <trkpt lat="46.47302" lon="8.25484">
        <ele>1322</ele>
        <time>2020-07-16T14:45:14.483Z</time>
      </trkpt>
      <trkpt lat="46.47304" lon="8.25484">
        <ele>1322</ele>
        <time>2020-07-16T14:45:15.483Z</time>
      </trkpt>
      <trkpt lat="46.47305" lon="8.25484">
        <ele>1322</ele>
        <time>2020-07-16T14:45:16.484Z</time>
      </trkpt>
      <trkpt lat="46.47306" lon="8.25485">
        <ele>1322</ele>
        <time>2020-07-16T14:45:17.484Z</time>
      </trkpt>
      <trkpt lat="46.47307" lon="8.25486">
        <ele>1323</ele>
        <time>2020-07-16T14:45:18.484Z</time>
      </trkpt>
      <trkpt lat="46.47308" lon="8.25486">
        <ele>1323</ele>
        <time>2020-07-16T14:45:19.484Z</time>
      </trkpt>
      <trkpt lat="46.47309" lon="8.25486">
        <ele>1323</ele>
        <time>2020-07-16T14:45:20.484Z</time>
      </trkpt>
      <trkpt lat="46.47311" lon="8.25487">
        <ele>1324</ele>
        <time>2020-07-16T14:45:21.483Z</time>
      </trkpt>
      <trkpt lat="46.47312" lon="8.25487">
        <ele>1324</ele>
        <time>2020-07-16T14:45:22.484Z</time>
      </trkpt>
      <trkpt lat="46.47313" lon="8.25488">
        <ele>1325</ele>
        <time>2020-07-16T14:45:23.483Z</time>
      </trkpt>
      <trkpt lat="46.47314" lon="8.25488">
        <ele>1325</ele>
        <time>2020-07-16T14:45:24.483Z</time>
      </trkpt>
      <trkpt lat="46.47315" lon="8.25489">
        <ele>1326</ele>
        <time>2020-07-16T14:45:25.484Z</time>
      </trkpt>
      <trkpt lat="46.47316" lon="8.2549">
        <ele>1326</ele>
        <time>2020-07-16T14:45:26.483Z</time>
      </trkpt>
      <trkpt lat="46.47317" lon="8.2549">
        <ele>1326</ele>
        <time>2020-07-16T14:45:27.484Z</time>
      </trkpt>
      <trkpt lat="46.47318" lon="8.25491">
        <ele>1326</ele>
        <time>2020-07-16T14:45:28.483Z</time>
      </trkpt>
      <trkpt lat="46.47319" lon="8.25491">
        <ele>1326</ele>
        <time>2020-07-16T14:45:29.484Z</time>
      </trkpt>
      <trkpt lat="46.4732" lon="8.25492">
        <ele>1326</ele>
        <time>2020-07-16T14:45:30.483Z</time>
      </trkpt>
      <trkpt lat="46.47321" lon="8.25492">
        <ele>1326</ele>
        <time>2020-07-16T14:45:31.484Z</time>
      </trkpt>
      <trkpt lat="46.47322" lon="8.25492">
        <ele>1326</ele>
        <time>2020-07-16T14:45:32.483Z</time>
      </trkpt>
      <trkpt lat="46.47322" lon="8.25493">
        <ele>1326</ele>
        <time>2020-07-16T14:45:33.483Z</time>
      </trkpt>
      <trkpt lat="46.47323" lon="8.25494">
        <ele>1325</ele>
        <time>2020-07-16T14:45:34.484Z</time>
      </trkpt>
      <trkpt lat="46.47324" lon="8.25495">
        <ele>1325</ele>
        <time>2020-07-16T14:45:35.484Z</time>
      </trkpt>
      <trkpt lat="46.47325" lon="8.25496">
        <ele>1325</ele>
        <time>2020-07-16T14:45:36.484Z</time>
      </trkpt>
      <trkpt lat="46.47326" lon="8.25496">
        <ele>1325</ele>
        <time>2020-07-16T14:45:37.484Z</time>
      </trkpt>
      <trkpt lat="46.47327" lon="8.25497">
        <ele>1325</ele>
        <time>2020-07-16T14:45:38.483Z</time>
      </trkpt>
      <trkpt lat="46.47328" lon="8.25497">
        <ele>1324</ele>
        <time>2020-07-16T14:45:39.484Z</time>
      </trkpt>
      <trkpt lat="46.47329" lon="8.25498">
        <ele>1324</ele>
        <time>2020-07-16T14:45:40.484Z</time>
      </trkpt>
      <trkpt lat="46.4733" lon="8.25498">
        <ele>1324</ele>
        <time>2020-07-16T14:45:41.484Z</time>
      </trkpt>
      <trkpt lat="46.47331" lon="8.25499">
        <ele>1324</ele>
        <time>2020-07-16T14:45:42.484Z</time>
      </trkpt>
      <trkpt lat="46.47332" lon="8.25499">
        <ele>1324</ele>
        <time>2020-07-16T14:45:43.483Z</time>
      </trkpt>
      <trkpt lat="46.47333" lon="8.255">
        <ele>1324</ele>
        <time>2020-07-16T14:45:44.484Z</time>
      </trkpt>
      <trkpt lat="46.47334" lon="8.25502">
        <ele>1324</ele>
        <time>2020-07-16T14:45:45.483Z</time>
      </trkpt>
      <trkpt lat="46.47335" lon="8.25503">
        <ele>1324</ele>
        <time>2020-07-16T14:45:46.484Z</time>
      </trkpt>
      <trkpt lat="46.47336" lon="8.25505">
        <ele>1324</ele>
        <time>2020-07-16T14:45:47.484Z</time>
      </trkpt>
      <trkpt lat="46.47337" lon="8.25506">
        <ele>1324</ele>
        <time>2020-07-16T14:45:48.484Z</time>
      </trkpt>
      <trkpt lat="46.47338" lon="8.25508">
        <ele>1325</ele>
        <time>2020-07-16T14:45:49.483Z</time>
      </trkpt>
      <trkpt lat="46.47338" lon="8.25509">
        <ele>1325</ele>
        <time>2020-07-16T14:45:50.484Z</time>
      </trkpt>
      <trkpt lat="46.47339" lon="8.25511">
        <ele>1325</ele>
        <time>2020-07-16T14:45:51.484Z</time>
      </trkpt>
      <trkpt lat="46.4734" lon="8.25512">
        <ele>1326</ele>
        <time>2020-07-16T14:45:52.484Z</time>
      </trkpt>
      <trkpt lat="46.47341" lon="8.25513">
        <ele>1326</ele>
        <time>2020-07-16T14:45:53.484Z</time>
      </trkpt>
      <trkpt lat="46.47342" lon="8.25513">
        <ele>1326</ele>
        <time>2020-07-16T14:45:54.483Z</time>
      </trkpt>
      <trkpt lat="46.47343" lon="8.25514">
        <ele>1325</ele>
        <time>2020-07-16T14:45:55.484Z</time>
      </trkpt>
      <trkpt lat="46.47344" lon="8.25515">
        <ele>1325</ele>
        <time>2020-07-16T14:45:56.484Z</time>
      </trkpt>
      <trkpt lat="46.47345" lon="8.25516">
        <ele>1325</ele>
        <time>2020-07-16T14:45:57.484Z</time>
      </trkpt>
      <trkpt lat="46.47346" lon="8.25518">
        <ele>1325</ele>
        <time>2020-07-16T14:46:06.511Z</time>
      </trkpt>
      <trkpt lat="46.47347" lon="8.25518">
        <ele>1325</ele>
        <time>2020-07-16T14:46:07.512Z</time>
      </trkpt>
      <trkpt lat="46.47348" lon="8.25519">
        <ele>1325</ele>
        <time>2020-07-16T14:46:08.511Z</time>
      </trkpt>
      <trkpt lat="46.47349" lon="8.2552">
        <ele>1326</ele>
        <time>2020-07-16T14:46:09.511Z</time>
      </trkpt>
      <trkpt lat="46.47349" lon="8.25521">
        <ele>1326</ele>
        <time>2020-07-16T14:46:10.511Z</time>
      </trkpt>
      <trkpt lat="46.4735" lon="8.25523">
        <ele>1326</ele>
        <time>2020-07-16T14:46:11.511Z</time>
      </trkpt>
      <trkpt lat="46.47351" lon="8.25524">
        <ele>1326</ele>
        <time>2020-07-16T14:46:12.511Z</time>
      </trkpt>
      <trkpt lat="46.47352" lon="8.25526">
        <ele>1326</ele>
        <time>2020-07-16T14:46:13.512Z</time>
      </trkpt>
      <trkpt lat="46.47353" lon="8.25527">
        <ele>1326</ele>
        <time>2020-07-16T14:46:14.512Z</time>
      </trkpt>
      <trkpt lat="46.47354" lon="8.25528">
        <ele>1326</ele>
        <time>2020-07-16T14:46:15.512Z</time>
      </trkpt>
      <trkpt lat="46.47355" lon="8.2553">
        <ele>1326</ele>
        <time>2020-07-16T14:46:16.512Z</time>
      </trkpt>
      <trkpt lat="46.47355" lon="8.25531">
        <ele>1327</ele>
        <time>2020-07-16T14:46:17.511Z</time>
      </trkpt>
      <trkpt lat="46.47356" lon="8.25533">
        <ele>1327</ele>
        <time>2020-07-16T14:46:18.511Z</time>
      </trkpt>
      <trkpt lat="46.47357" lon="8.25535">
        <ele>1328</ele>
        <time>2020-07-16T14:46:19.512Z</time>
      </trkpt>
      <trkpt lat="46.47358" lon="8.25536">
        <ele>1329</ele>
        <time>2020-07-16T14:46:20.512Z</time>
      </trkpt>
      <trkpt lat="46.47359" lon="8.25537">
        <ele>1330</ele>
        <time>2020-07-16T14:46:21.511Z</time>
      </trkpt>
      <trkpt lat="46.4736" lon="8.25539">
        <ele>1330</ele>
        <time>2020-07-16T14:46:22.512Z</time>
      </trkpt>
      <trkpt lat="46.4736" lon="8.2554">
        <ele>1331</ele>
        <time>2020-07-16T14:46:23.512Z</time>
      </trkpt>
      <trkpt lat="46.47362" lon="8.25541">
        <ele>1331</ele>
        <time>2020-07-16T14:46:24.512Z</time>
      </trkpt>
      <trkpt lat="46.47363" lon="8.25542">
        <ele>1331</ele>
        <time>2020-07-16T14:46:25.512Z</time>
      </trkpt>
      <trkpt lat="46.47364" lon="8.25544">
        <ele>1331</ele>
        <time>2020-07-16T14:46:26.512Z</time>
      </trkpt>
      <trkpt lat="46.47364" lon="8.25544">
        <ele>1331</ele>
        <time>2020-07-16T14:46:27.511Z</time>
      </trkpt>
      <trkpt lat="46.47365" lon="8.25545">
        <ele>1331</ele>
        <time>2020-07-16T14:46:28.512Z</time>
      </trkpt>
      <trkpt lat="46.47366" lon="8.25547">
        <ele>1331</ele>
        <time>2020-07-16T14:46:29.512Z</time>
      </trkpt>
      <trkpt lat="46.47366" lon="8.25548">
        <ele>1330</ele>
        <time>2020-07-16T14:46:30.512Z</time>
      </trkpt>
      <trkpt lat="46.47367" lon="8.2555">
        <ele>1330</ele>
        <time>2020-07-16T14:46:31.512Z</time>
      </trkpt>
      <trkpt lat="46.47368" lon="8.2555">
        <ele>1329</ele>
        <time>2020-07-16T14:46:32.511Z</time>
      </trkpt>
      <trkpt lat="46.47368" lon="8.25551">
        <ele>1328</ele>
        <time>2020-07-16T14:46:33.512Z</time>
      </trkpt>
      <trkpt lat="46.47369" lon="8.25552">
        <ele>1328</ele>
        <time>2020-07-16T14:46:34.512Z</time>
      </trkpt>
      <trkpt lat="46.4737" lon="8.25553">
        <ele>1327</ele>
        <time>2020-07-16T14:46:35.511Z</time>
      </trkpt>
      <trkpt lat="46.47371" lon="8.25554">
        <ele>1326</ele>
        <time>2020-07-16T14:46:36.511Z</time>
      </trkpt>
      <trkpt lat="46.47372" lon="8.25556">
        <ele>1326</ele>
        <time>2020-07-16T14:46:37.511Z</time>
      </trkpt>
      <trkpt lat="46.47373" lon="8.25557">
        <ele>1326</ele>
        <time>2020-07-16T14:46:38.511Z</time>
      </trkpt>
      <trkpt lat="46.47374" lon="8.25559">
        <ele>1326</ele>
        <time>2020-07-16T14:46:39.512Z</time>
      </trkpt>
      <trkpt lat="46.47375" lon="8.2556">
        <ele>1326</ele>
        <time>2020-07-16T14:46:40.512Z</time>
      </trkpt>
      <trkpt lat="46.47376" lon="8.25561">
        <ele>1326</ele>
        <time>2020-07-16T14:46:41.512Z</time>
      </trkpt>
      <trkpt lat="46.47377" lon="8.25562">
        <ele>1325</ele>
        <time>2020-07-16T14:46:42.511Z</time>
      </trkpt>
      <trkpt lat="46.47377" lon="8.25563">
        <ele>1325</ele>
        <time>2020-07-16T14:46:43.511Z</time>
      </trkpt>
      <trkpt lat="46.47378" lon="8.25563">
        <ele>1325</ele>
        <time>2020-07-16T14:46:44.512Z</time>
      </trkpt>
      <trkpt lat="46.47379" lon="8.25564">
        <ele>1324</ele>
        <time>2020-07-16T14:46:45.512Z</time>
      </trkpt>
      <trkpt lat="46.4738" lon="8.25564">
        <ele>1324</ele>
        <time>2020-07-16T14:46:46.511Z</time>
      </trkpt>
      <trkpt lat="46.47381" lon="8.25566">
        <ele>1324</ele>
        <time>2020-07-16T14:46:47.511Z</time>
      </trkpt>
      <trkpt lat="46.47383" lon="8.25567">
        <ele>1325</ele>
        <time>2020-07-16T14:46:48.512Z</time>
      </trkpt>
      <trkpt lat="46.47384" lon="8.25569">
        <ele>1325</ele>
        <time>2020-07-16T14:46:49.512Z</time>
      </trkpt>
      <trkpt lat="46.47385" lon="8.25569">
        <ele>1325</ele>
        <time>2020-07-16T14:46:50.512Z</time>
      </trkpt>
      <trkpt lat="46.47386" lon="8.2557">
        <ele>1326</ele>
        <time>2020-07-16T14:46:51.512Z</time>
      </trkpt>
      <trkpt lat="46.47387" lon="8.2557">
        <ele>1326</ele>
        <time>2020-07-16T14:46:52.511Z</time>
      </trkpt>
      <trkpt lat="46.47388" lon="8.25571">
        <ele>1326</ele>
        <time>2020-07-16T14:46:53.512Z</time>
      </trkpt>
      <trkpt lat="46.47389" lon="8.25573">
        <ele>1326</ele>
        <time>2020-07-16T14:46:54.512Z</time>
      </trkpt>
      <trkpt lat="46.47389" lon="8.25574">
        <ele>1326</ele>
        <time>2020-07-16T14:46:55.512Z</time>
      </trkpt>
      <trkpt lat="46.4739" lon="8.25575">
        <ele>1326</ele>
        <time>2020-07-16T14:46:56.512Z</time>
      </trkpt>
      <trkpt lat="46.47391" lon="8.25577">
        <ele>1325</ele>
        <time>2020-07-16T14:46:57.511Z</time>
      </trkpt>
      <trkpt lat="46.47392" lon="8.25578">
        <ele>1325</ele>
        <time>2020-07-16T14:46:58.512Z</time>
      </trkpt>
      <trkpt lat="46.47392" lon="8.2558">
        <ele>1325</ele>
        <time>2020-07-16T14:46:59.512Z</time>
      </trkpt>
      <trkpt lat="46.47392" lon="8.25581">
        <ele>1325</ele>
        <time>2020-07-16T14:47:00.512Z</time>
      </trkpt>
      <trkpt lat="46.47393" lon="8.25582">
        <ele>1325</ele>
        <time>2020-07-16T14:47:01.512Z</time>
      </trkpt>
      <trkpt lat="46.47394" lon="8.25584">
        <ele>1325</ele>
        <time>2020-07-16T14:47:02.511Z</time>
      </trkpt>
      <trkpt lat="46.47395" lon="8.25585">
        <ele>1325</ele>
        <time>2020-07-16T14:47:03.511Z</time>
      </trkpt>
      <trkpt lat="46.47396" lon="8.25587">
        <ele>1325</ele>
        <time>2020-07-16T14:47:04.512Z</time>
      </trkpt>
      <trkpt lat="46.47396" lon="8.25589">
        <ele>1325</ele>
        <time>2020-07-16T14:47:05.512Z</time>
      </trkpt>
      <trkpt lat="46.47397" lon="8.2559">
        <ele>1325</ele>
        <time>2020-07-16T14:47:06.512Z</time>
      </trkpt>
      <trkpt lat="46.47398" lon="8.25591">
        <ele>1325</ele>
        <time>2020-07-16T14:47:07.511Z</time>
      </trkpt>
      <trkpt lat="46.47399" lon="8.25592">
        <ele>1325</ele>
        <time>2020-07-16T14:47:08.511Z</time>
      </trkpt>
      <trkpt lat="46.474" lon="8.25593">
        <ele>1325</ele>
        <time>2020-07-16T14:47:09.511Z</time>
      </trkpt>
      <trkpt lat="46.47401" lon="8.25594">
        <ele>1325</ele>
        <time>2020-07-16T14:47:10.512Z</time>
      </trkpt>
      <trkpt lat="46.47401" lon="8.25596">
        <ele>1325</ele>
        <time>2020-07-16T14:47:11.511Z</time>
      </trkpt>
      <trkpt lat="46.47403" lon="8.25597">
        <ele>1325</ele>
        <time>2020-07-16T14:47:12.511Z</time>
      </trkpt>
      <trkpt lat="46.47404" lon="8.25599">
        <ele>1325</ele>
        <time>2020-07-16T14:47:13.511Z</time>
      </trkpt>
      <trkpt lat="46.47405" lon="8.256">
        <ele>1325</ele>
        <time>2020-07-16T14:47:14.511Z</time>
      </trkpt>
      <trkpt lat="46.47406" lon="8.25601">
        <ele>1325</ele>
        <time>2020-07-16T14:47:15.512Z</time>
      </trkpt>
      <trkpt lat="46.47407" lon="8.25603">
        <ele>1325</ele>
        <time>2020-07-16T14:47:16.512Z</time>
      </trkpt>
      <trkpt lat="46.47408" lon="8.25604">
        <ele>1325</ele>
        <time>2020-07-16T14:47:17.511Z</time>
      </trkpt>
      <trkpt lat="46.47409" lon="8.25604">
        <ele>1326</ele>
        <time>2020-07-16T14:47:18.512Z</time>
      </trkpt>
      <trkpt lat="46.4741" lon="8.25605">
        <ele>1326</ele>
        <time>2020-07-16T14:47:19.512Z</time>
      </trkpt>
      <trkpt lat="46.47411" lon="8.25606">
        <ele>1326</ele>
        <time>2020-07-16T14:47:20.512Z</time>
      </trkpt>
      <trkpt lat="46.47412" lon="8.25607">
        <ele>1327</ele>
        <time>2020-07-16T14:47:21.511Z</time>
      </trkpt>
      <trkpt lat="46.47413" lon="8.25607">
        <ele>1327</ele>
        <time>2020-07-16T14:47:22.512Z</time>
      </trkpt>
      <trkpt lat="46.47415" lon="8.25606">
        <ele>1328</ele>
        <time>2020-07-16T14:47:23.512Z</time>
      </trkpt>
      <trkpt lat="46.47416" lon="8.25604">
        <ele>1327</ele>
        <time>2020-07-16T14:47:24.512Z</time>
      </trkpt>
      <trkpt lat="46.47417" lon="8.25603">
        <ele>1327</ele>
        <time>2020-07-16T14:47:25.512Z</time>
      </trkpt>
      <trkpt lat="46.47418" lon="8.25602">
        <ele>1326</ele>
        <time>2020-07-16T14:47:26.512Z</time>
      </trkpt>
      <trkpt lat="46.47419" lon="8.25602">
        <ele>1325</ele>
        <time>2020-07-16T14:47:27.512Z</time>
      </trkpt>
      <trkpt lat="46.4742" lon="8.25602">
        <ele>1325</ele>
        <time>2020-07-16T14:47:28.512Z</time>
      </trkpt>
      <trkpt lat="46.47422" lon="8.25601">
        <ele>1324</ele>
        <time>2020-07-16T14:47:29.511Z</time>
      </trkpt>
      <trkpt lat="46.47423" lon="8.256">
        <ele>1324</ele>
        <time>2020-07-16T14:47:30.512Z</time>
      </trkpt>
      <trkpt lat="46.47424" lon="8.256">
        <ele>1324</ele>
        <time>2020-07-16T14:47:31.511Z</time>
      </trkpt>
      <trkpt lat="46.47426" lon="8.256">
        <ele>1323</ele>
        <time>2020-07-16T14:47:32.511Z</time>
      </trkpt>
      <trkpt lat="46.47427" lon="8.256">
        <ele>1323</ele>
        <time>2020-07-16T14:47:33.512Z</time>
      </trkpt>
      <trkpt lat="46.47428" lon="8.256">
        <ele>1323</ele>
        <time>2020-07-16T14:47:34.511Z</time>
      </trkpt>
      <trkpt lat="46.4743" lon="8.256">
        <ele>1323</ele>
        <time>2020-07-16T14:47:35.512Z</time>
      </trkpt>
      <trkpt lat="46.47431" lon="8.25599">
        <ele>1323</ele>
        <time>2020-07-16T14:47:36.512Z</time>
      </trkpt>
      <trkpt lat="46.47432" lon="8.25598">
        <ele>1323</ele>
        <time>2020-07-16T14:47:37.512Z</time>
      </trkpt>
      <trkpt lat="46.47434" lon="8.25598">
        <ele>1323</ele>
        <time>2020-07-16T14:47:38.511Z</time>
      </trkpt>
      <trkpt lat="46.47435" lon="8.25598">
        <ele>1322</ele>
        <time>2020-07-16T14:47:39.512Z</time>
      </trkpt>
      <trkpt lat="46.47436" lon="8.25597">
        <ele>1322</ele>
        <time>2020-07-16T14:47:40.511Z</time>
      </trkpt>
      <trkpt lat="46.47437" lon="8.25598">
        <ele>1322</ele>
        <time>2020-07-16T14:47:41.511Z</time>
      </trkpt>
      <trkpt lat="46.47439" lon="8.25597">
        <ele>1322</ele>
        <time>2020-07-16T14:47:42.512Z</time>
      </trkpt>
      <trkpt lat="46.4744" lon="8.25597">
        <ele>1322</ele>
        <time>2020-07-16T14:47:43.512Z</time>
      </trkpt>
      <trkpt lat="46.47441" lon="8.25597">
        <ele>1322</ele>
        <time>2020-07-16T14:47:44.512Z</time>
      </trkpt>
      <trkpt lat="46.47442" lon="8.25597">
        <ele>1322</ele>
        <time>2020-07-16T14:47:45.512Z</time>
      </trkpt>
      <trkpt lat="46.47444" lon="8.25597">
        <ele>1322</ele>
        <time>2020-07-16T14:47:46.512Z</time>
      </trkpt>
      <trkpt lat="46.47445" lon="8.25598">
        <ele>1322</ele>
        <time>2020-07-16T14:47:47.512Z</time>
      </trkpt>
      <trkpt lat="46.47446" lon="8.25598">
        <ele>1321</ele>
        <time>2020-07-16T14:47:48.512Z</time>
      </trkpt>
      <trkpt lat="46.47448" lon="8.25598">
        <ele>1321</ele>
        <time>2020-07-16T14:47:49.512Z</time>
      </trkpt>
      <trkpt lat="46.47449" lon="8.25598">
        <ele>1321</ele>
        <time>2020-07-16T14:47:50.512Z</time>
      </trkpt>
      <trkpt lat="46.47451" lon="8.25599">
        <ele>1320</ele>
        <time>2020-07-16T14:47:51.512Z</time>
      </trkpt>
      <trkpt lat="46.47452" lon="8.256">
        <ele>1320</ele>
        <time>2020-07-16T14:47:52.511Z</time>
      </trkpt>
      <trkpt lat="46.47453" lon="8.25601">
        <ele>1320</ele>
        <time>2020-07-16T14:47:53.511Z</time>
      </trkpt>
      <trkpt lat="46.47454" lon="8.25601">
        <ele>1320</ele>
        <time>2020-07-16T14:47:54.512Z</time>
      </trkpt>
      <trkpt lat="46.47456" lon="8.25602">
        <ele>1320</ele>
        <time>2020-07-16T14:47:55.512Z</time>
      </trkpt>
      <trkpt lat="46.47457" lon="8.25603">
        <ele>1319</ele>
        <time>2020-07-16T14:47:56.511Z</time>
      </trkpt>
      <trkpt lat="46.47458" lon="8.25604">
        <ele>1319</ele>
        <time>2020-07-16T14:47:57.512Z</time>
      </trkpt>
      <trkpt lat="46.47459" lon="8.25605">
        <ele>1319</ele>
        <time>2020-07-16T14:47:58.511Z</time>
      </trkpt>
      <trkpt lat="46.4746" lon="8.25606">
        <ele>1320</ele>
        <time>2020-07-16T14:47:59.511Z</time>
      </trkpt>
      <trkpt lat="46.47461" lon="8.25607">
        <ele>1320</ele>
        <time>2020-07-16T14:48:00.512Z</time>
      </trkpt>
      <trkpt lat="46.47462" lon="8.25608">
        <ele>1320</ele>
        <time>2020-07-16T14:48:01.512Z</time>
      </trkpt>
      <trkpt lat="46.47463" lon="8.25609">
        <ele>1321</ele>
        <time>2020-07-16T14:48:02.512Z</time>
      </trkpt>
      <trkpt lat="46.47464" lon="8.2561">
        <ele>1321</ele>
        <time>2020-07-16T14:48:03.511Z</time>
      </trkpt>
      <trkpt lat="46.47465" lon="8.25612">
        <ele>1321</ele>
        <time>2020-07-16T14:48:04.512Z</time>
      </trkpt>
      <trkpt lat="46.47465" lon="8.25613">
        <ele>1321</ele>
        <time>2020-07-16T14:48:05.512Z</time>
      </trkpt>
      <trkpt lat="46.47466" lon="8.25614">
        <ele>1321</ele>
        <time>2020-07-16T14:48:06.511Z</time>
      </trkpt>
      <trkpt lat="46.47467" lon="8.25615">
        <ele>1321</ele>
        <time>2020-07-16T14:48:07.511Z</time>
      </trkpt>
      <trkpt lat="46.47468" lon="8.25616">
        <ele>1320</ele>
        <time>2020-07-16T14:48:08.512Z</time>
      </trkpt>
      <trkpt lat="46.47469" lon="8.25617">
        <ele>1320</ele>
        <time>2020-07-16T14:48:09.511Z</time>
      </trkpt>
      <trkpt lat="46.47469" lon="8.25619">
        <ele>1319</ele>
        <time>2020-07-16T14:48:10.512Z</time>
      </trkpt>
      <trkpt lat="46.4747" lon="8.25621">
        <ele>1319</ele>
        <time>2020-07-16T14:48:11.512Z</time>
      </trkpt>
      <trkpt lat="46.4747" lon="8.25622">
        <ele>1319</ele>
        <time>2020-07-16T14:48:12.512Z</time>
      </trkpt>
      <trkpt lat="46.47471" lon="8.25623">
        <ele>1319</ele>
        <time>2020-07-16T14:48:13.512Z</time>
      </trkpt>
      <trkpt lat="46.47472" lon="8.25625">
        <ele>1319</ele>
        <time>2020-07-16T14:48:14.511Z</time>
      </trkpt>
      <trkpt lat="46.47473" lon="8.25627">
        <ele>1320</ele>
        <time>2020-07-16T14:48:15.512Z</time>
      </trkpt>
      <trkpt lat="46.47474" lon="8.25628">
        <ele>1320</ele>
        <time>2020-07-16T14:48:16.512Z</time>
      </trkpt>
      <trkpt lat="46.47475" lon="8.2563">
        <ele>1321</ele>
        <time>2020-07-16T14:48:17.512Z</time>
      </trkpt>
      <trkpt lat="46.47476" lon="8.25631">
        <ele>1321</ele>
        <time>2020-07-16T14:48:18.511Z</time>
      </trkpt>
      <trkpt lat="46.47476" lon="8.25633">
        <ele>1322</ele>
        <time>2020-07-16T14:48:19.511Z</time>
      </trkpt>
      <trkpt lat="46.47477" lon="8.25635">
        <ele>1322</ele>
        <time>2020-07-16T14:48:20.511Z</time>
      </trkpt>
      <trkpt lat="46.47478" lon="8.25637">
        <ele>1323</ele>
        <time>2020-07-16T14:48:21.512Z</time>
      </trkpt>
      <trkpt lat="46.47479" lon="8.2564">
        <ele>1323</ele>
        <time>2020-07-16T14:48:22.512Z</time>
      </trkpt>
      <trkpt lat="46.4748" lon="8.25642">
        <ele>1324</ele>
        <time>2020-07-16T14:48:23.512Z</time>
      </trkpt>
      <trkpt lat="46.4748" lon="8.25644">
        <ele>1324</ele>
        <time>2020-07-16T14:48:24.511Z</time>
      </trkpt>
      <trkpt lat="46.47481" lon="8.25645">
        <ele>1324</ele>
        <time>2020-07-16T14:48:25.512Z</time>
      </trkpt>
      <trkpt lat="46.47482" lon="8.25647">
        <ele>1325</ele>
        <time>2020-07-16T14:48:26.511Z</time>
      </trkpt>
      <trkpt lat="46.47483" lon="8.25649">
        <ele>1325</ele>
        <time>2020-07-16T14:48:27.511Z</time>
      </trkpt>
      <trkpt lat="46.47484" lon="8.25651">
        <ele>1325</ele>
        <time>2020-07-16T14:48:28.512Z</time>
      </trkpt>
      <trkpt lat="46.47485" lon="8.25653">
        <ele>1325</ele>
        <time>2020-07-16T14:48:29.512Z</time>
      </trkpt>
      <trkpt lat="46.47486" lon="8.25654">
        <ele>1325</ele>
        <time>2020-07-16T14:48:30.512Z</time>
      </trkpt>
      <trkpt lat="46.47487" lon="8.25656">
        <ele>1325</ele>
        <time>2020-07-16T14:48:31.512Z</time>
      </trkpt>
      <trkpt lat="46.47488" lon="8.25656">
        <ele>1325</ele>
        <time>2020-07-16T14:48:32.512Z</time>
      </trkpt>
      <trkpt lat="46.47488" lon="8.25658">
        <ele>1324</ele>
        <time>2020-07-16T14:48:33.512Z</time>
      </trkpt>
      <trkpt lat="46.47489" lon="8.25659">
        <ele>1324</ele>
        <time>2020-07-16T14:48:34.512Z</time>
      </trkpt>
      <trkpt lat="46.4749" lon="8.25661">
        <ele>1324</ele>
        <time>2020-07-16T14:48:35.512Z</time>
      </trkpt>
      <trkpt lat="46.4749" lon="8.25662">
        <ele>1323</ele>
        <time>2020-07-16T14:48:36.512Z</time>
      </trkpt>
      <trkpt lat="46.47491" lon="8.25664">
        <ele>1323</ele>
        <time>2020-07-16T14:48:37.512Z</time>
      </trkpt>
      <trkpt lat="46.47492" lon="8.25665">
        <ele>1324</ele>
        <time>2020-07-16T14:48:38.512Z</time>
      </trkpt>
      <trkpt lat="46.47493" lon="8.25666">
        <ele>1324</ele>
        <time>2020-07-16T14:48:39.511Z</time>
      </trkpt>
      <trkpt lat="46.47494" lon="8.25667">
        <ele>1324</ele>
        <time>2020-07-16T14:48:40.512Z</time>
      </trkpt>
      <trkpt lat="46.47495" lon="8.25669">
        <ele>1324</ele>
        <time>2020-07-16T14:48:41.512Z</time>
      </trkpt>
      <trkpt lat="46.47495" lon="8.2567">
        <ele>1323</ele>
        <time>2020-07-16T14:48:42.512Z</time>
      </trkpt>
      <trkpt lat="46.47496" lon="8.25672">
        <ele>1323</ele>
        <time>2020-07-16T14:48:43.512Z</time>
      </trkpt>
      <trkpt lat="46.47497" lon="8.25673">
        <ele>1322</ele>
        <time>2020-07-16T14:48:44.511Z</time>
      </trkpt>
      <trkpt lat="46.47498" lon="8.25674">
        <ele>1322</ele>
        <time>2020-07-16T14:48:45.512Z</time>
      </trkpt>
      <trkpt lat="46.47499" lon="8.25676">
        <ele>1322</ele>
        <time>2020-07-16T14:48:46.512Z</time>
      </trkpt>
      <trkpt lat="46.475" lon="8.25678">
        <ele>1321</ele>
        <time>2020-07-16T14:48:47.512Z</time>
      </trkpt>
      <trkpt lat="46.475" lon="8.2568">
        <ele>1321</ele>
        <time>2020-07-16T14:48:48.512Z</time>
      </trkpt>
      <trkpt lat="46.47501" lon="8.25682">
        <ele>1322</ele>
        <time>2020-07-16T14:48:49.512Z</time>
      </trkpt>
      <trkpt lat="46.47502" lon="8.25684">
        <ele>1322</ele>
        <time>2020-07-16T14:48:50.512Z</time>
      </trkpt>
      <trkpt lat="46.47503" lon="8.25685">
        <ele>1322</ele>
        <time>2020-07-16T14:48:51.512Z</time>
      </trkpt>
      <trkpt lat="46.47504" lon="8.25687">
        <ele>1323</ele>
        <time>2020-07-16T14:48:52.512Z</time>
      </trkpt>
      <trkpt lat="46.47505" lon="8.25689">
        <ele>1323</ele>
        <time>2020-07-16T14:48:53.512Z</time>
      </trkpt>
      <trkpt lat="46.47506" lon="8.2569">
        <ele>1324</ele>
        <time>2020-07-16T14:48:54.512Z</time>
      </trkpt>
      <trkpt lat="46.47507" lon="8.25691">
        <ele>1324</ele>
        <time>2020-07-16T14:48:55.512Z</time>
      </trkpt>
      <trkpt lat="46.47508" lon="8.25693">
        <ele>1324</ele>
        <time>2020-07-16T14:49:01.612Z</time>
      </trkpt>
      <trkpt lat="46.47509" lon="8.25693">
        <ele>1324</ele>
        <time>2020-07-16T14:49:02.611Z</time>
      </trkpt>
      <trkpt lat="46.47509" lon="8.25694">
        <ele>1324</ele>
        <time>2020-07-16T14:49:03.611Z</time>
      </trkpt>
      <trkpt lat="46.4751" lon="8.25694">
        <ele>1325</ele>
        <time>2020-07-16T14:49:04.611Z</time>
      </trkpt>
      <trkpt lat="46.4751" lon="8.25693">
        <ele>1324</ele>
        <time>2020-07-16T14:49:05.611Z</time>
      </trkpt>
      <trkpt lat="46.4751" lon="8.25693">
        <ele>1324</ele>
        <time>2020-07-16T14:49:06.611Z</time>
      </trkpt>
      <trkpt lat="46.4751" lon="8.25688">
        <ele>1322</ele>
        <time>2020-07-16T14:49:07.611Z</time>
      </trkpt>
      <trkpt lat="46.4751" lon="8.25687">
        <ele>1322</ele>
        <time>2020-07-16T14:49:08.611Z</time>
      </trkpt>
      <trkpt lat="46.4751" lon="8.25687">
        <ele>1322</ele>
        <time>2020-07-16T14:49:09.611Z</time>
      </trkpt>
      <trkpt lat="46.4751" lon="8.25688">
        <ele>1321</ele>
        <time>2020-07-16T14:49:10.612Z</time>
      </trkpt>
      <trkpt lat="46.4751" lon="8.25689">
        <ele>1321</ele>
        <time>2020-07-16T14:49:11.612Z</time>
      </trkpt>
      <trkpt lat="46.4751" lon="8.25689">
        <ele>1321</ele>
        <time>2020-07-16T14:49:12.611Z</time>
      </trkpt>
      <trkpt lat="46.4751" lon="8.25689">
        <ele>1321</ele>
        <time>2020-07-16T14:49:13.611Z</time>
      </trkpt>
      <trkpt lat="46.4751" lon="8.25689">
        <ele>1321</ele>
        <time>2020-07-16T14:49:14.612Z</time>
      </trkpt>
      <trkpt lat="46.47512" lon="8.25689">
        <ele>1321</ele>
        <time>2020-07-16T14:49:15.612Z</time>
      </trkpt>
      <trkpt lat="46.47513" lon="8.2569">
        <ele>1321</ele>
        <time>2020-07-16T14:49:16.612Z</time>
      </trkpt>
      <trkpt lat="46.47514" lon="8.25691">
        <ele>1321</ele>
        <time>2020-07-16T14:49:17.611Z</time>
      </trkpt>
      <trkpt lat="46.47516" lon="8.25692">
        <ele>1321</ele>
        <time>2020-07-16T14:49:18.612Z</time>
      </trkpt>
      <trkpt lat="46.47517" lon="8.25693">
        <ele>1321</ele>
        <time>2020-07-16T14:49:19.612Z</time>
      </trkpt>
      <trkpt lat="46.47518" lon="8.25694">
        <ele>1321</ele>
        <time>2020-07-16T14:49:20.612Z</time>
      </trkpt>
      <trkpt lat="46.47518" lon="8.25696">
        <ele>1321</ele>
        <time>2020-07-16T14:49:21.611Z</time>
      </trkpt>
      <trkpt lat="46.47519" lon="8.25697">
        <ele>1321</ele>
        <time>2020-07-16T14:49:22.612Z</time>
      </trkpt>
      <trkpt lat="46.47521" lon="8.257">
        <ele>1321</ele>
        <time>2020-07-16T14:49:23.611Z</time>
      </trkpt>
      <trkpt lat="46.47522" lon="8.25701">
        <ele>1321</ele>
        <time>2020-07-16T14:49:24.612Z</time>
      </trkpt>
      <trkpt lat="46.47523" lon="8.25702">
        <ele>1321</ele>
        <time>2020-07-16T14:49:25.612Z</time>
      </trkpt>
      <trkpt lat="46.47524" lon="8.25704">
        <ele>1321</ele>
        <time>2020-07-16T14:49:26.612Z</time>
      </trkpt>
      <trkpt lat="46.47525" lon="8.25705">
        <ele>1321</ele>
        <time>2020-07-16T14:49:27.612Z</time>
      </trkpt>
      <trkpt lat="46.47526" lon="8.25707">
        <ele>1321</ele>
        <time>2020-07-16T14:49:28.611Z</time>
      </trkpt>
      <trkpt lat="46.47528" lon="8.25708">
        <ele>1321</ele>
        <time>2020-07-16T14:49:29.612Z</time>
      </trkpt>
      <trkpt lat="46.47529" lon="8.25709">
        <ele>1322</ele>
        <time>2020-07-16T14:49:30.612Z</time>
      </trkpt>
      <trkpt lat="46.47531" lon="8.2571">
        <ele>1322</ele>
        <time>2020-07-16T14:49:31.611Z</time>
      </trkpt>
      <trkpt lat="46.47532" lon="8.25712">
        <ele>1323</ele>
        <time>2020-07-16T14:49:32.612Z</time>
      </trkpt>
      <trkpt lat="46.47533" lon="8.25712">
        <ele>1323</ele>
        <time>2020-07-16T14:49:33.611Z</time>
      </trkpt>
      <trkpt lat="46.47534" lon="8.25714">
        <ele>1323</ele>
        <time>2020-07-16T14:49:34.612Z</time>
      </trkpt>
      <trkpt lat="46.47535" lon="8.25714">
        <ele>1322</ele>
        <time>2020-07-16T14:49:35.611Z</time>
      </trkpt>
      <trkpt lat="46.47536" lon="8.25715">
        <ele>1322</ele>
        <time>2020-07-16T14:49:36.611Z</time>
      </trkpt>
      <trkpt lat="46.47538" lon="8.25716">
        <ele>1322</ele>
        <time>2020-07-16T14:49:37.612Z</time>
      </trkpt>
      <trkpt lat="46.47539" lon="8.25717">
        <ele>1322</ele>
        <time>2020-07-16T14:49:38.612Z</time>
      </trkpt>
      <trkpt lat="46.4754" lon="8.25719">
        <ele>1323</ele>
        <time>2020-07-16T14:49:39.612Z</time>
      </trkpt>
      <trkpt lat="46.47541" lon="8.2572">
        <ele>1323</ele>
        <time>2020-07-16T14:49:40.612Z</time>
      </trkpt>
      <trkpt lat="46.47543" lon="8.25721">
        <ele>1322</ele>
        <time>2020-07-16T14:49:41.612Z</time>
      </trkpt>
      <trkpt lat="46.47544" lon="8.25722">
        <ele>1322</ele>
        <time>2020-07-16T14:49:42.612Z</time>
      </trkpt>
      <trkpt lat="46.47545" lon="8.25723">
        <ele>1322</ele>
        <time>2020-07-16T14:49:43.611Z</time>
      </trkpt>
      <trkpt lat="46.47546" lon="8.25724">
        <ele>1323</ele>
        <time>2020-07-16T14:49:44.611Z</time>
      </trkpt>
      <trkpt lat="46.47548" lon="8.25726">
        <ele>1323</ele>
        <time>2020-07-16T14:49:45.611Z</time>
      </trkpt>
      <trkpt lat="46.47549" lon="8.25727">
        <ele>1323</ele>
        <time>2020-07-16T14:49:46.611Z</time>
      </trkpt>
      <trkpt lat="46.4755" lon="8.25727">
        <ele>1323</ele>
        <time>2020-07-16T14:49:47.611Z</time>
      </trkpt>
      <trkpt lat="46.47551" lon="8.25728">
        <ele>1323</ele>
        <time>2020-07-16T14:49:48.612Z</time>
      </trkpt>
      <trkpt lat="46.47553" lon="8.25729">
        <ele>1323</ele>
        <time>2020-07-16T14:49:49.612Z</time>
      </trkpt>
      <trkpt lat="46.47554" lon="8.2573">
        <ele>1323</ele>
        <time>2020-07-16T14:49:50.612Z</time>
      </trkpt>
      <trkpt lat="46.47555" lon="8.2573">
        <ele>1323</ele>
        <time>2020-07-16T14:49:51.611Z</time>
      </trkpt>
      <trkpt lat="46.47556" lon="8.25731">
        <ele>1323</ele>
        <time>2020-07-16T14:49:52.612Z</time>
      </trkpt>
      <trkpt lat="46.47557" lon="8.25732">
        <ele>1323</ele>
        <time>2020-07-16T14:49:53.612Z</time>
      </trkpt>
      <trkpt lat="46.47559" lon="8.25733">
        <ele>1323</ele>
        <time>2020-07-16T14:49:54.612Z</time>
      </trkpt>
      <trkpt lat="46.4756" lon="8.25734">
        <ele>1323</ele>
        <time>2020-07-16T14:49:55.612Z</time>
      </trkpt>
      <trkpt lat="46.47561" lon="8.25735">
        <ele>1323</ele>
        <time>2020-07-16T14:49:56.612Z</time>
      </trkpt>
      <trkpt lat="46.47562" lon="8.25737">
        <ele>1323</ele>
        <time>2020-07-16T14:49:57.612Z</time>
      </trkpt>
      <trkpt lat="46.47564" lon="8.25738">
        <ele>1323</ele>
        <time>2020-07-16T14:49:58.612Z</time>
      </trkpt>
      <trkpt lat="46.47565" lon="8.25739">
        <ele>1323</ele>
        <time>2020-07-16T14:49:59.611Z</time>
      </trkpt>
      <trkpt lat="46.47566" lon="8.2574">
        <ele>1323</ele>
        <time>2020-07-16T14:50:00.612Z</time>
      </trkpt>
      <trkpt lat="46.47567" lon="8.25741">
        <ele>1323</ele>
        <time>2020-07-16T14:50:01.611Z</time>
      </trkpt>
      <trkpt lat="46.47568" lon="8.25743">
        <ele>1323</ele>
        <time>2020-07-16T14:50:02.612Z</time>
      </trkpt>
      <trkpt lat="46.47569" lon="8.25743">
        <ele>1323</ele>
        <time>2020-07-16T14:50:03.611Z</time>
      </trkpt>
      <trkpt lat="46.47571" lon="8.25744">
        <ele>1323</ele>
        <time>2020-07-16T14:50:04.611Z</time>
      </trkpt>
      <trkpt lat="46.47572" lon="8.25745">
        <ele>1322</ele>
        <time>2020-07-16T14:50:05.611Z</time>
      </trkpt>
      <trkpt lat="46.47573" lon="8.25746">
        <ele>1322</ele>
        <time>2020-07-16T14:50:06.612Z</time>
      </trkpt>
      <trkpt lat="46.47575" lon="8.25747">
        <ele>1322</ele>
        <time>2020-07-16T14:50:07.611Z</time>
      </trkpt>
      <trkpt lat="46.47576" lon="8.25748">
        <ele>1322</ele>
        <time>2020-07-16T14:50:08.612Z</time>
      </trkpt>
      <trkpt lat="46.47577" lon="8.25749">
        <ele>1323</ele>
        <time>2020-07-16T14:50:09.612Z</time>
      </trkpt>
      <trkpt lat="46.47578" lon="8.2575">
        <ele>1323</ele>
        <time>2020-07-16T14:50:10.612Z</time>
      </trkpt>
      <trkpt lat="46.47579" lon="8.25751">
        <ele>1324</ele>
        <time>2020-07-16T14:50:11.612Z</time>
      </trkpt>
      <trkpt lat="46.47581" lon="8.25753">
        <ele>1324</ele>
        <time>2020-07-16T14:50:12.611Z</time>
      </trkpt>
      <trkpt lat="46.47582" lon="8.25755">
        <ele>1324</ele>
        <time>2020-07-16T14:50:13.612Z</time>
      </trkpt>
      <trkpt lat="46.47583" lon="8.25757">
        <ele>1324</ele>
        <time>2020-07-16T14:50:14.611Z</time>
      </trkpt>
      <trkpt lat="46.47585" lon="8.2576">
        <ele>1325</ele>
        <time>2020-07-16T14:50:15.612Z</time>
      </trkpt>
      <trkpt lat="46.47587" lon="8.25762">
        <ele>1325</ele>
        <time>2020-07-16T14:50:16.612Z</time>
      </trkpt>
      <trkpt lat="46.4759" lon="8.25763">
        <ele>1325</ele>
        <time>2020-07-16T14:50:17.612Z</time>
      </trkpt>
      <trkpt lat="46.47592" lon="8.25765">
        <ele>1325</ele>
        <time>2020-07-16T14:50:18.612Z</time>
      </trkpt>
      <trkpt lat="46.47594" lon="8.25767">
        <ele>1325</ele>
        <time>2020-07-16T14:50:19.612Z</time>
      </trkpt>
      <trkpt lat="46.47596" lon="8.25769">
        <ele>1325</ele>
        <time>2020-07-16T14:50:20.612Z</time>
      </trkpt>
      <trkpt lat="46.47598" lon="8.25771">
        <ele>1324</ele>
        <time>2020-07-16T14:50:21.612Z</time>
      </trkpt>
      <trkpt lat="46.476" lon="8.25773">
        <ele>1324</ele>
        <time>2020-07-16T14:50:22.612Z</time>
      </trkpt>
      <trkpt lat="46.47602" lon="8.25776">
        <ele>1324</ele>
        <time>2020-07-16T14:50:23.611Z</time>
      </trkpt>
      <trkpt lat="46.47604" lon="8.25777">
        <ele>1324</ele>
        <time>2020-07-16T14:50:24.611Z</time>
      </trkpt>
      <trkpt lat="46.47607" lon="8.25778">
        <ele>1324</ele>
        <time>2020-07-16T14:50:25.612Z</time>
      </trkpt>
      <trkpt lat="46.4761" lon="8.2578">
        <ele>1324</ele>
        <time>2020-07-16T14:50:26.612Z</time>
      </trkpt>
      <trkpt lat="46.47612" lon="8.25783">
        <ele>1325</ele>
        <time>2020-07-16T14:50:27.611Z</time>
      </trkpt>
      <trkpt lat="46.47615" lon="8.25785">
        <ele>1325</ele>
        <time>2020-07-16T14:50:28.612Z</time>
      </trkpt>
      <trkpt lat="46.47617" lon="8.25787">
        <ele>1326</ele>
        <time>2020-07-16T14:50:29.612Z</time>
      </trkpt>
      <trkpt lat="46.47619" lon="8.25789">
        <ele>1326</ele>
        <time>2020-07-16T14:50:30.612Z</time>
      </trkpt>
      <trkpt lat="46.47621" lon="8.25791">
        <ele>1326</ele>
        <time>2020-07-16T14:50:31.611Z</time>
      </trkpt>
      <trkpt lat="46.47623" lon="8.25793">
        <ele>1326</ele>
        <time>2020-07-16T14:50:32.612Z</time>
      </trkpt>
      <trkpt lat="46.47625" lon="8.25795">
        <ele>1326</ele>
        <time>2020-07-16T14:50:33.612Z</time>
      </trkpt>
      <trkpt lat="46.47626" lon="8.25796">
        <ele>1325</ele>
        <time>2020-07-16T14:50:34.612Z</time>
      </trkpt>
      <trkpt lat="46.47628" lon="8.25797">
        <ele>1325</ele>
        <time>2020-07-16T14:50:35.611Z</time>
      </trkpt>
      <trkpt lat="46.47629" lon="8.25799">
        <ele>1324</ele>
        <time>2020-07-16T14:50:36.611Z</time>
      </trkpt>
      <trkpt lat="46.47631" lon="8.258">
        <ele>1324</ele>
        <time>2020-07-16T14:50:37.612Z</time>
      </trkpt>
      <trkpt lat="46.47632" lon="8.25802">
        <ele>1324</ele>
        <time>2020-07-16T14:50:38.612Z</time>
      </trkpt>
      <trkpt lat="46.47633" lon="8.25803">
        <ele>1324</ele>
        <time>2020-07-16T14:50:39.612Z</time>
      </trkpt>
      <trkpt lat="46.47634" lon="8.25804">
        <ele>1324</ele>
        <time>2020-07-16T14:50:40.611Z</time>
      </trkpt>
      <trkpt lat="46.47636" lon="8.25804">
        <ele>1324</ele>
        <time>2020-07-16T14:50:41.611Z</time>
      </trkpt>
      <trkpt lat="46.47637" lon="8.25804">
        <ele>1324</ele>
        <time>2020-07-16T14:50:42.612Z</time>
      </trkpt>
      <trkpt lat="46.47638" lon="8.25804">
        <ele>1324</ele>
        <time>2020-07-16T14:50:43.612Z</time>
      </trkpt>
      <trkpt lat="46.4764" lon="8.25804">
        <ele>1324</ele>
        <time>2020-07-16T14:50:44.611Z</time>
      </trkpt>
      <trkpt lat="46.47641" lon="8.25805">
        <ele>1324</ele>
        <time>2020-07-16T14:50:45.612Z</time>
      </trkpt>
      <trkpt lat="46.47643" lon="8.25806">
        <ele>1324</ele>
        <time>2020-07-16T14:50:46.612Z</time>
      </trkpt>
      <trkpt lat="46.47644" lon="8.25808">
        <ele>1324</ele>
        <time>2020-07-16T14:50:47.612Z</time>
      </trkpt>
      <trkpt lat="46.47645" lon="8.2581">
        <ele>1324</ele>
        <time>2020-07-16T14:50:48.611Z</time>
      </trkpt>
      <trkpt lat="46.47646" lon="8.2581">
        <ele>1324</ele>
        <time>2020-07-16T14:50:49.611Z</time>
      </trkpt>
      <trkpt lat="46.47647" lon="8.25811">
        <ele>1324</ele>
        <time>2020-07-16T14:50:50.612Z</time>
      </trkpt>
      <trkpt lat="46.47649" lon="8.25811">
        <ele>1324</ele>
        <time>2020-07-16T14:50:51.611Z</time>
      </trkpt>
      <trkpt lat="46.47651" lon="8.25811">
        <ele>1324</ele>
        <time>2020-07-16T14:50:52.612Z</time>
      </trkpt>
      <trkpt lat="46.47652" lon="8.25811">
        <ele>1324</ele>
        <time>2020-07-16T14:50:53.611Z</time>
      </trkpt>
      <trkpt lat="46.47653" lon="8.25812">
        <ele>1323</ele>
        <time>2020-07-16T14:50:54.611Z</time>
      </trkpt>
      <trkpt lat="46.47654" lon="8.25813">
        <ele>1323</ele>
        <time>2020-07-16T14:50:55.612Z</time>
      </trkpt>
      <trkpt lat="46.47655" lon="8.25814">
        <ele>1323</ele>
        <time>2020-07-16T14:50:56.612Z</time>
      </trkpt>
      <trkpt lat="46.47656" lon="8.25815">
        <ele>1322</ele>
        <time>2020-07-16T14:50:57.612Z</time>
      </trkpt>
      <trkpt lat="46.47657" lon="8.25816">
        <ele>1322</ele>
        <time>2020-07-16T14:50:58.612Z</time>
      </trkpt>
      <trkpt lat="46.47658" lon="8.25817">
        <ele>1322</ele>
        <time>2020-07-16T14:50:59.611Z</time>
      </trkpt>
      <trkpt lat="46.47659" lon="8.25819">
        <ele>1322</ele>
        <time>2020-07-16T14:51:00.612Z</time>
      </trkpt>
      <trkpt lat="46.4766" lon="8.2582">
        <ele>1322</ele>
        <time>2020-07-16T14:51:01.612Z</time>
      </trkpt>
      <trkpt lat="46.47661" lon="8.25821">
        <ele>1322</ele>
        <time>2020-07-16T14:51:02.612Z</time>
      </trkpt>
      <trkpt lat="46.47662" lon="8.25823">
        <ele>1322</ele>
        <time>2020-07-16T14:51:03.612Z</time>
      </trkpt>
      <trkpt lat="46.47663" lon="8.25824">
        <ele>1323</ele>
        <time>2020-07-16T14:51:04.612Z</time>
      </trkpt>
      <trkpt lat="46.47664" lon="8.25826">
        <ele>1323</ele>
        <time>2020-07-16T14:51:05.612Z</time>
      </trkpt>
      <trkpt lat="46.47665" lon="8.25827">
        <ele>1323</ele>
        <time>2020-07-16T14:51:06.611Z</time>
      </trkpt>
      <trkpt lat="46.47666" lon="8.25829">
        <ele>1324</ele>
        <time>2020-07-16T14:51:07.611Z</time>
      </trkpt>
      <trkpt lat="46.47667" lon="8.25831">
        <ele>1324</ele>
        <time>2020-07-16T14:51:08.612Z</time>
      </trkpt>
      <trkpt lat="46.47668" lon="8.25833">
        <ele>1324</ele>
        <time>2020-07-16T14:51:09.612Z</time>
      </trkpt>
      <trkpt lat="46.47668" lon="8.25835">
        <ele>1324</ele>
        <time>2020-07-16T14:51:10.611Z</time>
      </trkpt>
      <trkpt lat="46.47669" lon="8.25836">
        <ele>1324</ele>
        <time>2020-07-16T14:51:11.612Z</time>
      </trkpt>
      <trkpt lat="46.4767" lon="8.25838">
        <ele>1324</ele>
        <time>2020-07-16T14:51:12.612Z</time>
      </trkpt>
      <trkpt lat="46.47671" lon="8.25839">
        <ele>1323</ele>
        <time>2020-07-16T14:51:13.612Z</time>
      </trkpt>
      <trkpt lat="46.47672" lon="8.25841">
        <ele>1323</ele>
        <time>2020-07-16T14:51:14.612Z</time>
      </trkpt>
      <trkpt lat="46.47673" lon="8.25843">
        <ele>1324</ele>
        <time>2020-07-16T14:51:15.611Z</time>
      </trkpt>
      <trkpt lat="46.47674" lon="8.25845">
        <ele>1324</ele>
        <time>2020-07-16T14:51:16.611Z</time>
      </trkpt>
      <trkpt lat="46.47675" lon="8.25846">
        <ele>1324</ele>
        <time>2020-07-16T14:51:17.612Z</time>
      </trkpt>
      <trkpt lat="46.47677" lon="8.25848">
        <ele>1324</ele>
        <time>2020-07-16T14:51:18.612Z</time>
      </trkpt>
      <trkpt lat="46.47678" lon="8.25849">
        <ele>1324</ele>
        <time>2020-07-16T14:51:19.612Z</time>
      </trkpt>
      <trkpt lat="46.47679" lon="8.25851">
        <ele>1324</ele>
        <time>2020-07-16T14:51:20.612Z</time>
      </trkpt>
      <trkpt lat="46.4768" lon="8.25852">
        <ele>1324</ele>
        <time>2020-07-16T14:51:21.612Z</time>
      </trkpt>
      <trkpt lat="46.47682" lon="8.25853">
        <ele>1324</ele>
        <time>2020-07-16T14:51:22.611Z</time>
      </trkpt>
      <trkpt lat="46.47683" lon="8.25854">
        <ele>1324</ele>
        <time>2020-07-16T14:51:23.612Z</time>
      </trkpt>
      <trkpt lat="46.47684" lon="8.25855">
        <ele>1324</ele>
        <time>2020-07-16T14:51:24.612Z</time>
      </trkpt>
      <trkpt lat="46.47686" lon="8.25856">
        <ele>1324</ele>
        <time>2020-07-16T14:51:25.612Z</time>
      </trkpt>
      <trkpt lat="46.47687" lon="8.25856">
        <ele>1325</ele>
        <time>2020-07-16T14:51:26.612Z</time>
      </trkpt>
      <trkpt lat="46.47688" lon="8.25856">
        <ele>1324</ele>
        <time>2020-07-16T14:51:27.612Z</time>
      </trkpt>
      <trkpt lat="46.4769" lon="8.25856">
        <ele>1324</ele>
        <time>2020-07-16T14:51:28.612Z</time>
      </trkpt>
      <trkpt lat="46.47691" lon="8.25855">
        <ele>1323</ele>
        <time>2020-07-16T14:51:29.611Z</time>
      </trkpt>
      <trkpt lat="46.47693" lon="8.25855">
        <ele>1323</ele>
        <time>2020-07-16T14:51:30.611Z</time>
      </trkpt>
      <trkpt lat="46.47694" lon="8.25854">
        <ele>1323</ele>
        <time>2020-07-16T14:51:31.612Z</time>
      </trkpt>
      <trkpt lat="46.47695" lon="8.25854">
        <ele>1323</ele>
        <time>2020-07-16T14:51:32.612Z</time>
      </trkpt>
      <trkpt lat="46.47697" lon="8.25854">
        <ele>1323</ele>
        <time>2020-07-16T14:51:33.612Z</time>
      </trkpt>
      <trkpt lat="46.47698" lon="8.25854">
        <ele>1322</ele>
        <time>2020-07-16T14:51:34.612Z</time>
      </trkpt>
      <trkpt lat="46.47699" lon="8.25854">
        <ele>1322</ele>
        <time>2020-07-16T14:51:35.612Z</time>
      </trkpt>
      <trkpt lat="46.47701" lon="8.25854">
        <ele>1322</ele>
        <time>2020-07-16T14:51:36.612Z</time>
      </trkpt>
      <trkpt lat="46.47703" lon="8.25853">
        <ele>1323</ele>
        <time>2020-07-16T14:51:37.612Z</time>
      </trkpt>
      <trkpt lat="46.47705" lon="8.25854">
        <ele>1323</ele>
        <time>2020-07-16T14:51:38.612Z</time>
      </trkpt>
      <trkpt lat="46.47706" lon="8.25854">
        <ele>1323</ele>
        <time>2020-07-16T14:51:39.612Z</time>
      </trkpt>
      <trkpt lat="46.47708" lon="8.25853">
        <ele>1323</ele>
        <time>2020-07-16T14:51:40.611Z</time>
      </trkpt>
      <trkpt lat="46.47709" lon="8.25853">
        <ele>1323</ele>
        <time>2020-07-16T14:51:41.612Z</time>
      </trkpt>
      <trkpt lat="46.4771" lon="8.25853">
        <ele>1323</ele>
        <time>2020-07-16T14:51:42.612Z</time>
      </trkpt>
      <trkpt lat="46.47712" lon="8.25853">
        <ele>1323</ele>
        <time>2020-07-16T14:51:43.611Z</time>
      </trkpt>
      <trkpt lat="46.47713" lon="8.25854">
        <ele>1324</ele>
        <time>2020-07-16T14:51:44.611Z</time>
      </trkpt>
      <trkpt lat="46.47713" lon="8.25855">
        <ele>1324</ele>
        <time>2020-07-16T14:51:45.611Z</time>
      </trkpt>
      <trkpt lat="46.47714" lon="8.25856">
        <ele>1324</ele>
        <time>2020-07-16T14:51:50.761Z</time>
      </trkpt>
      <trkpt lat="46.47714" lon="8.25857">
        <ele>1324</ele>
        <time>2020-07-16T14:51:51.761Z</time>
      </trkpt>
      <trkpt lat="46.47714" lon="8.25857">
        <ele>1324</ele>
        <time>2020-07-16T14:51:52.761Z</time>
      </trkpt>
      <trkpt lat="46.47714" lon="8.25858">
        <ele>1324</ele>
        <time>2020-07-16T14:51:53.762Z</time>
      </trkpt>
      <trkpt lat="46.47713" lon="8.25856">
        <ele>1325</ele>
        <time>2020-07-16T14:51:54.761Z</time>
      </trkpt>
      <trkpt lat="46.47713" lon="8.25855">
        <ele>1325</ele>
        <time>2020-07-16T14:51:55.761Z</time>
      </trkpt>
      <trkpt lat="46.47713" lon="8.25856">
        <ele>1325</ele>
        <time>2020-07-16T14:51:56.763Z</time>
      </trkpt>
      <trkpt lat="46.47713" lon="8.25857">
        <ele>1325</ele>
        <time>2020-07-16T14:51:57.763Z</time>
      </trkpt>
      <trkpt lat="46.47712" lon="8.25855">
        <ele>1324</ele>
        <time>2020-07-16T14:51:58.763Z</time>
      </trkpt>
      <trkpt lat="46.47712" lon="8.25855">
        <ele>1325</ele>
        <time>2020-07-16T14:51:59.763Z</time>
      </trkpt>
      <trkpt lat="46.47712" lon="8.25856">
        <ele>1324</ele>
        <time>2020-07-16T14:52:00.763Z</time>
      </trkpt>
      <trkpt lat="46.47713" lon="8.25858">
        <ele>1324</ele>
        <time>2020-07-16T14:52:01.764Z</time>
      </trkpt>
      <trkpt lat="46.47713" lon="8.2586">
        <ele>1323</ele>
        <time>2020-07-16T14:52:02.763Z</time>
      </trkpt>
      <trkpt lat="46.47713" lon="8.25861">
        <ele>1323</ele>
        <time>2020-07-16T14:52:03.763Z</time>
      </trkpt>
      <trkpt lat="46.47714" lon="8.25863">
        <ele>1323</ele>
        <time>2020-07-16T14:52:04.763Z</time>
      </trkpt>
      <trkpt lat="46.47714" lon="8.25864">
        <ele>1323</ele>
        <time>2020-07-16T14:52:05.764Z</time>
      </trkpt>
      <trkpt lat="46.47715" lon="8.25866">
        <ele>1324</ele>
        <time>2020-07-16T14:52:06.763Z</time>
      </trkpt>
      <trkpt lat="46.47715" lon="8.25868">
        <ele>1324</ele>
        <time>2020-07-16T14:52:07.763Z</time>
      </trkpt>
      <trkpt lat="46.47715" lon="8.2587">
        <ele>1324</ele>
        <time>2020-07-16T14:52:08.764Z</time>
      </trkpt>
      <trkpt lat="46.47716" lon="8.25871">
        <ele>1325</ele>
        <time>2020-07-16T14:52:09.763Z</time>
      </trkpt>
      <trkpt lat="46.47716" lon="8.25873">
        <ele>1325</ele>
        <time>2020-07-16T14:52:10.763Z</time>
      </trkpt>
      <trkpt lat="46.47716" lon="8.25875">
        <ele>1326</ele>
        <time>2020-07-16T14:52:11.763Z</time>
      </trkpt>
      <trkpt lat="46.47717" lon="8.25877">
        <ele>1326</ele>
        <time>2020-07-16T14:52:12.763Z</time>
      </trkpt>
      <trkpt lat="46.47717" lon="8.25879">
        <ele>1326</ele>
        <time>2020-07-16T14:52:14.845Z</time>
      </trkpt>
      <trkpt lat="46.47717" lon="8.2588">
        <ele>1327</ele>
        <time>2020-07-16T14:52:15.846Z</time>
      </trkpt>
      <trkpt lat="46.47718" lon="8.25882">
        <ele>1327</ele>
        <time>2020-07-16T14:52:16.846Z</time>
      </trkpt>
      <trkpt lat="46.47718" lon="8.25884">
        <ele>1327</ele>
        <time>2020-07-16T14:52:17.845Z</time>
      </trkpt>
      <trkpt lat="46.47719" lon="8.25886">
        <ele>1327</ele>
        <time>2020-07-16T14:52:18.846Z</time>
      </trkpt>
      <trkpt lat="46.47719" lon="8.25888">
        <ele>1327</ele>
        <time>2020-07-16T14:52:19.845Z</time>
      </trkpt>
      <trkpt lat="46.47719" lon="8.2589">
        <ele>1327</ele>
        <time>2020-07-16T14:52:20.845Z</time>
      </trkpt>
      <trkpt lat="46.47719" lon="8.2589">
        <ele>1327</ele>
        <time>2020-07-16T14:52:21.845Z</time>
      </trkpt>
      <trkpt lat="46.47719" lon="8.2589">
        <ele>1327</ele>
        <time>2020-07-16T14:52:22.846Z</time>
      </trkpt>
      <trkpt lat="46.47719" lon="8.2589">
        <ele>1326</ele>
        <time>2020-07-16T14:52:23.846Z</time>
      </trkpt>
      <trkpt lat="46.47719" lon="8.25891">
        <ele>1326</ele>
        <time>2020-07-16T14:52:24.846Z</time>
      </trkpt>
      <trkpt lat="46.4772" lon="8.25891">
        <ele>1326</ele>
        <time>2020-07-16T14:52:25.846Z</time>
      </trkpt>
      <trkpt lat="46.4772" lon="8.2589">
        <ele>1325</ele>
        <time>2020-07-16T14:52:26.845Z</time>
      </trkpt>
      <trkpt lat="46.4772" lon="8.2589">
        <ele>1325</ele>
        <time>2020-07-16T14:52:27.846Z</time>
      </trkpt>
      <trkpt lat="46.4772" lon="8.25891">
        <ele>1326</ele>
        <time>2020-07-16T14:52:28.846Z</time>
      </trkpt>
      <trkpt lat="46.4772" lon="8.25892">
        <ele>1326</ele>
        <time>2020-07-16T14:52:29.845Z</time>
      </trkpt>
      <trkpt lat="46.47721" lon="8.25893">
        <ele>1326</ele>
        <time>2020-07-16T14:52:42.863Z</time>
      </trkpt>
      <trkpt lat="46.47721" lon="8.25895">
        <ele>1327</ele>
        <time>2020-07-16T14:52:43.863Z</time>
      </trkpt>
      <trkpt lat="46.47722" lon="8.25895">
        <ele>1327</ele>
        <time>2020-07-16T14:52:44.863Z</time>
      </trkpt>
      <trkpt lat="46.47722" lon="8.25896">
        <ele>1327</ele>
        <time>2020-07-16T14:52:45.864Z</time>
      </trkpt>
      <trkpt lat="46.47723" lon="8.25895">
        <ele>1327</ele>
        <time>2020-07-16T14:52:52.884Z</time>
      </trkpt>
      <trkpt lat="46.47723" lon="8.25895">
        <ele>1328</ele>
        <time>2020-07-16T14:52:53.885Z</time>
      </trkpt>
      <trkpt lat="46.47724" lon="8.25895">
        <ele>1328</ele>
        <time>2020-07-16T14:52:54.885Z</time>
      </trkpt>
      <trkpt lat="46.47724" lon="8.25895">
        <ele>1328</ele>
        <time>2020-07-16T14:52:55.885Z</time>
      </trkpt>
      <trkpt lat="46.47724" lon="8.25895">
        <ele>1327</ele>
        <time>2020-07-16T14:52:56.885Z</time>
      </trkpt>
      <trkpt lat="46.47724" lon="8.25896">
        <ele>1327</ele>
        <time>2020-07-16T14:52:57.885Z</time>
      </trkpt>
      <trkpt lat="46.47724" lon="8.25897">
        <ele>1327</ele>
        <time>2020-07-16T14:52:58.886Z</time>
      </trkpt>
      <trkpt lat="46.47725" lon="8.25898">
        <ele>1327</ele>
        <time>2020-07-16T14:52:59.886Z</time>
      </trkpt>
      <trkpt lat="46.47725" lon="8.259">
        <ele>1327</ele>
        <time>2020-07-16T14:53:00.885Z</time>
      </trkpt>
      <trkpt lat="46.47725" lon="8.25901">
        <ele>1327</ele>
        <time>2020-07-16T14:53:01.885Z</time>
      </trkpt>
      <trkpt lat="46.47725" lon="8.25902">
        <ele>1327</ele>
        <time>2020-07-16T14:53:02.886Z</time>
      </trkpt>
      <trkpt lat="46.47725" lon="8.25903">
        <ele>1328</ele>
        <time>2020-07-16T14:53:03.885Z</time>
      </trkpt>
      <trkpt lat="46.47726" lon="8.25904">
        <ele>1327</ele>
        <time>2020-07-16T14:53:04.886Z</time>
      </trkpt>
      <trkpt lat="46.47726" lon="8.25905">
        <ele>1327</ele>
        <time>2020-07-16T14:53:05.886Z</time>
      </trkpt>
      <trkpt lat="46.47726" lon="8.25907">
        <ele>1326</ele>
        <time>2020-07-16T14:53:06.886Z</time>
      </trkpt>
      <trkpt lat="46.47726" lon="8.25909">
        <ele>1326</ele>
        <time>2020-07-16T14:53:07.885Z</time>
      </trkpt>
      <trkpt lat="46.47726" lon="8.2591">
        <ele>1327</ele>
        <time>2020-07-16T14:53:08.886Z</time>
      </trkpt>
      <trkpt lat="46.47726" lon="8.25911">
        <ele>1327</ele>
        <time>2020-07-16T14:53:09.886Z</time>
      </trkpt>
      <trkpt lat="46.47726" lon="8.25912">
        <ele>1327</ele>
        <time>2020-07-16T14:53:10.886Z</time>
      </trkpt>
      <trkpt lat="46.47727" lon="8.25913">
        <ele>1327</ele>
        <time>2020-07-16T14:53:11.886Z</time>
      </trkpt>
      <trkpt lat="46.47727" lon="8.25914">
        <ele>1328</ele>
        <time>2020-07-16T14:53:12.885Z</time>
      </trkpt>
      <trkpt lat="46.47727" lon="8.25914">
        <ele>1328</ele>
        <time>2020-07-16T14:53:13.885Z</time>
      </trkpt>
      <trkpt lat="46.47727" lon="8.25915">
        <ele>1328</ele>
        <time>2020-07-16T14:53:14.886Z</time>
      </trkpt>
      <trkpt lat="46.47727" lon="8.25916">
        <ele>1329</ele>
        <time>2020-07-16T14:53:15.886Z</time>
      </trkpt>
      <trkpt lat="46.47727" lon="8.25916">
        <ele>1329</ele>
        <time>2020-07-16T14:53:16.886Z</time>
      </trkpt>
      <trkpt lat="46.47727" lon="8.25916">
        <ele>1329</ele>
        <time>2020-07-16T14:53:17.886Z</time>
      </trkpt>
      <trkpt lat="46.47726" lon="8.25917">
        <ele>1329</ele>
        <time>2020-07-16T14:53:18.886Z</time>
      </trkpt>
      <trkpt lat="46.47726" lon="8.25919">
        <ele>1329</ele>
        <time>2020-07-16T14:53:19.886Z</time>
      </trkpt>
      <trkpt lat="46.47726" lon="8.25921">
        <ele>1329</ele>
        <time>2020-07-16T14:53:20.886Z</time>
      </trkpt>
      <trkpt lat="46.47726" lon="8.25923">
        <ele>1329</ele>
        <time>2020-07-16T14:53:21.885Z</time>
      </trkpt>
      <trkpt lat="46.47726" lon="8.25925">
        <ele>1329</ele>
        <time>2020-07-16T14:53:22.885Z</time>
      </trkpt>
      <trkpt lat="46.47726" lon="8.25927">
        <ele>1328</ele>
        <time>2020-07-16T14:53:23.886Z</time>
      </trkpt>
      <trkpt lat="46.47727" lon="8.25928">
        <ele>1328</ele>
        <time>2020-07-16T14:53:24.886Z</time>
      </trkpt>
      <trkpt lat="46.47727" lon="8.25929">
        <ele>1328</ele>
        <time>2020-07-16T14:53:25.886Z</time>
      </trkpt>
      <trkpt lat="46.47727" lon="8.25931">
        <ele>1327</ele>
        <time>2020-07-16T14:53:26.886Z</time>
      </trkpt>
      <trkpt lat="46.47727" lon="8.25931">
        <ele>1327</ele>
        <time>2020-07-16T14:53:27.886Z</time>
      </trkpt>
      <trkpt lat="46.47727" lon="8.25932">
        <ele>1326</ele>
        <time>2020-07-16T14:53:28.886Z</time>
      </trkpt>
      <trkpt lat="46.47727" lon="8.25934">
        <ele>1326</ele>
        <time>2020-07-16T14:53:29.886Z</time>
      </trkpt>
      <trkpt lat="46.47727" lon="8.25935">
        <ele>1326</ele>
        <time>2020-07-16T14:53:30.885Z</time>
      </trkpt>
      <trkpt lat="46.47728" lon="8.25936">
        <ele>1326</ele>
        <time>2020-07-16T14:53:31.886Z</time>
      </trkpt>
      <trkpt lat="46.47728" lon="8.25937">
        <ele>1326</ele>
        <time>2020-07-16T14:53:32.886Z</time>
      </trkpt>
      <trkpt lat="46.47729" lon="8.25938">
        <ele>1326</ele>
        <time>2020-07-16T14:53:34.844Z</time>
      </trkpt>
      <trkpt lat="46.47729" lon="8.25939">
        <ele>1326</ele>
        <time>2020-07-16T14:53:35.843Z</time>
      </trkpt>
      <trkpt lat="46.47729" lon="8.25941">
        <ele>1327</ele>
        <time>2020-07-16T14:53:36.844Z</time>
      </trkpt>
      <trkpt lat="46.47729" lon="8.25942">
        <ele>1327</ele>
        <time>2020-07-16T14:53:37.844Z</time>
      </trkpt>
      <trkpt lat="46.4773" lon="8.25942">
        <ele>1326</ele>
        <time>2020-07-16T14:53:38.844Z</time>
      </trkpt>
      <trkpt lat="46.4773" lon="8.25943">
        <ele>1326</ele>
        <time>2020-07-16T14:53:39.843Z</time>
      </trkpt>
      <trkpt lat="46.4773" lon="8.25944">
        <ele>1326</ele>
        <time>2020-07-16T14:53:40.843Z</time>
      </trkpt>
      <trkpt lat="46.4773" lon="8.25944">
        <ele>1326</ele>
        <time>2020-07-16T14:53:41.843Z</time>
      </trkpt>
      <trkpt lat="46.4773" lon="8.25945">
        <ele>1326</ele>
        <time>2020-07-16T14:53:42.843Z</time>
      </trkpt>
      <trkpt lat="46.4773" lon="8.25946">
        <ele>1326</ele>
        <time>2020-07-16T14:53:43.843Z</time>
      </trkpt>
      <trkpt lat="46.4773" lon="8.25948">
        <ele>1327</ele>
        <time>2020-07-16T14:53:44.844Z</time>
      </trkpt>
      <trkpt lat="46.47731" lon="8.25949">
        <ele>1327</ele>
        <time>2020-07-16T14:53:45.844Z</time>
      </trkpt>
      <trkpt lat="46.47731" lon="8.2595">
        <ele>1327</ele>
        <time>2020-07-16T14:53:46.844Z</time>
      </trkpt>
      <trkpt lat="46.47731" lon="8.25951">
        <ele>1327</ele>
        <time>2020-07-16T14:53:47.844Z</time>
      </trkpt>
      <trkpt lat="46.47731" lon="8.25952">
        <ele>1327</ele>
        <time>2020-07-16T14:53:48.844Z</time>
      </trkpt>
      <trkpt lat="46.47732" lon="8.25952">
        <ele>1327</ele>
        <time>2020-07-16T14:53:49.843Z</time>
      </trkpt>
      <trkpt lat="46.47732" lon="8.25953">
        <ele>1328</ele>
        <time>2020-07-16T14:53:50.843Z</time>
      </trkpt>
      <trkpt lat="46.47732" lon="8.25953">
        <ele>1328</ele>
        <time>2020-07-16T14:53:51.843Z</time>
      </trkpt>
      <trkpt lat="46.47733" lon="8.25954">
        <ele>1328</ele>
        <time>2020-07-16T14:53:52.843Z</time>
      </trkpt>
      <trkpt lat="46.47733" lon="8.25955">
        <ele>1328</ele>
        <time>2020-07-16T14:53:53.844Z</time>
      </trkpt>
      <trkpt lat="46.47733" lon="8.25956">
        <ele>1328</ele>
        <time>2020-07-16T14:53:54.843Z</time>
      </trkpt>
      <trkpt lat="46.47733" lon="8.25958">
        <ele>1328</ele>
        <time>2020-07-16T14:53:55.844Z</time>
      </trkpt>
      <trkpt lat="46.47733" lon="8.25959">
        <ele>1328</ele>
        <time>2020-07-16T14:53:56.843Z</time>
      </trkpt>
      <trkpt lat="46.47733" lon="8.25961">
        <ele>1329</ele>
        <time>2020-07-16T14:53:57.844Z</time>
      </trkpt>
      <trkpt lat="46.47734" lon="8.25962">
        <ele>1329</ele>
        <time>2020-07-16T14:53:58.844Z</time>
      </trkpt>
      <trkpt lat="46.47734" lon="8.25963">
        <ele>1329</ele>
        <time>2020-07-16T14:53:59.843Z</time>
      </trkpt>
      <trkpt lat="46.47734" lon="8.25964">
        <ele>1329</ele>
        <time>2020-07-16T14:54:00.844Z</time>
      </trkpt>
      <trkpt lat="46.47734" lon="8.25965">
        <ele>1328</ele>
        <time>2020-07-16T14:54:01.844Z</time>
      </trkpt>
      <trkpt lat="46.47734" lon="8.25966">
        <ele>1328</ele>
        <time>2020-07-16T14:54:02.844Z</time>
      </trkpt>
      <trkpt lat="46.47734" lon="8.25968">
        <ele>1328</ele>
        <time>2020-07-16T14:54:03.844Z</time>
      </trkpt>
      <trkpt lat="46.47734" lon="8.25968">
        <ele>1328</ele>
        <time>2020-07-16T14:54:04.843Z</time>
      </trkpt>
      <trkpt lat="46.47734" lon="8.25969">
        <ele>1328</ele>
        <time>2020-07-16T14:54:05.844Z</time>
      </trkpt>
      <trkpt lat="46.47734" lon="8.2597">
        <ele>1328</ele>
        <time>2020-07-16T14:54:06.843Z</time>
      </trkpt>
      <trkpt lat="46.47734" lon="8.2597">
        <ele>1327</ele>
        <time>2020-07-16T14:54:07.844Z</time>
      </trkpt>
      <trkpt lat="46.47734" lon="8.25971">
        <ele>1328</ele>
        <time>2020-07-16T14:54:08.844Z</time>
      </trkpt>
      <trkpt lat="46.47734" lon="8.25971">
        <ele>1328</ele>
        <time>2020-07-16T14:54:09.844Z</time>
      </trkpt>
      <trkpt lat="46.47735" lon="8.25972">
        <ele>1328</ele>
        <time>2020-07-16T14:54:10.843Z</time>
      </trkpt>
      <trkpt lat="46.47735" lon="8.25974">
        <ele>1328</ele>
        <time>2020-07-16T14:54:11.843Z</time>
      </trkpt>
      <trkpt lat="46.47735" lon="8.25975">
        <ele>1328</ele>
        <time>2020-07-16T14:54:12.843Z</time>
      </trkpt>
      <trkpt lat="46.47735" lon="8.25976">
        <ele>1328</ele>
        <time>2020-07-16T14:54:13.844Z</time>
      </trkpt>
      <trkpt lat="46.47736" lon="8.25977">
        <ele>1328</ele>
        <time>2020-07-16T14:54:14.844Z</time>
      </trkpt>
      <trkpt lat="46.47736" lon="8.25978">
        <ele>1329</ele>
        <time>2020-07-16T14:54:15.843Z</time>
      </trkpt>
      <trkpt lat="46.47737" lon="8.25979">
        <ele>1329</ele>
        <time>2020-07-16T14:54:16.843Z</time>
      </trkpt>
      <trkpt lat="46.47737" lon="8.2598">
        <ele>1330</ele>
        <time>2020-07-16T14:54:17.843Z</time>
      </trkpt>
      <trkpt lat="46.47737" lon="8.25981">
        <ele>1331</ele>
        <time>2020-07-16T14:54:18.844Z</time>
      </trkpt>
      <trkpt lat="46.47737" lon="8.25982">
        <ele>1331</ele>
        <time>2020-07-16T14:54:19.843Z</time>
      </trkpt>
      <trkpt lat="46.47737" lon="8.25983">
        <ele>1332</ele>
        <time>2020-07-16T14:54:20.844Z</time>
      </trkpt>
      <trkpt lat="46.47737" lon="8.25984">
        <ele>1332</ele>
        <time>2020-07-16T14:54:21.844Z</time>
      </trkpt>
      <trkpt lat="46.47737" lon="8.25985">
        <ele>1332</ele>
        <time>2020-07-16T14:54:28.868Z</time>
      </trkpt>
      <trkpt lat="46.47737" lon="8.25986">
        <ele>1332</ele>
        <time>2020-07-16T14:54:36.638Z</time>
      </trkpt>
      <trkpt lat="46.47737" lon="8.25988">
        <ele>1332</ele>
        <time>2020-07-16T14:54:37.639Z</time>
      </trkpt>
      <trkpt lat="46.47738" lon="8.25989">
        <ele>1332</ele>
        <time>2020-07-16T14:54:38.639Z</time>
      </trkpt>
      <trkpt lat="46.47738" lon="8.2599">
        <ele>1332</ele>
        <time>2020-07-16T14:54:47.762Z</time>
      </trkpt>
      <trkpt lat="46.47738" lon="8.25991">
        <ele>1332</ele>
        <time>2020-07-16T14:54:48.761Z</time>
      </trkpt>
      <trkpt lat="46.47737" lon="8.25992">
        <ele>1332</ele>
        <time>2020-07-16T14:54:49.762Z</time>
      </trkpt>
      <trkpt lat="46.47737" lon="8.25993">
        <ele>1332</ele>
        <time>2020-07-16T14:54:50.761Z</time>
      </trkpt>
      <trkpt lat="46.47737" lon="8.25994">
        <ele>1332</ele>
        <time>2020-07-16T14:54:51.761Z</time>
      </trkpt>
      <trkpt lat="46.47738" lon="8.25994">
        <ele>1332</ele>
        <time>2020-07-16T14:54:52.762Z</time>
      </trkpt>
      <trkpt lat="46.47738" lon="8.25995">
        <ele>1331</ele>
        <time>2020-07-16T14:54:53.762Z</time>
      </trkpt>
      <trkpt lat="46.47739" lon="8.25994">
        <ele>1331</ele>
        <time>2020-07-16T14:54:54.761Z</time>
      </trkpt>
      <trkpt lat="46.47739" lon="8.25995">
        <ele>1330</ele>
        <time>2020-07-16T14:54:55.761Z</time>
      </trkpt>
      <trkpt lat="46.47739" lon="8.25995">
        <ele>1330</ele>
        <time>2020-07-16T14:54:56.762Z</time>
      </trkpt>
      <trkpt lat="46.47739" lon="8.25995">
        <ele>1330</ele>
        <time>2020-07-16T14:54:57.761Z</time>
      </trkpt>
      <trkpt lat="46.47739" lon="8.25995">
        <ele>1330</ele>
        <time>2020-07-16T14:54:58.762Z</time>
      </trkpt>
      <trkpt lat="46.4774" lon="8.25997">
        <ele>1330</ele>
        <time>2020-07-16T14:54:59.761Z</time>
      </trkpt>
      <trkpt lat="46.4774" lon="8.25997">
        <ele>1330</ele>
        <time>2020-07-16T14:55:00.762Z</time>
      </trkpt>
      <trkpt lat="46.47739" lon="8.25998">
        <ele>1330</ele>
        <time>2020-07-16T14:55:01.761Z</time>
      </trkpt>
      <trkpt lat="46.47739" lon="8.26">
        <ele>1331</ele>
        <time>2020-07-16T14:55:02.761Z</time>
      </trkpt>
      <trkpt lat="46.4774" lon="8.26001">
        <ele>1331</ele>
        <time>2020-07-16T14:55:08.735Z</time>
      </trkpt>
      <trkpt lat="46.4774" lon="8.26002">
        <ele>1328</ele>
        <time>2020-07-16T14:55:09.735Z</time>
      </trkpt>
      <trkpt lat="46.4774" lon="8.26002">
        <ele>1328</ele>
        <time>2020-07-16T14:55:10.736Z</time>
      </trkpt>
      <trkpt lat="46.47737" lon="8.26">
        <ele>1331</ele>
        <time>2020-07-16T14:55:11.736Z</time>
      </trkpt>
      <trkpt lat="46.47737" lon="8.26001">
        <ele>1331</ele>
        <time>2020-07-16T14:55:12.735Z</time>
      </trkpt>
      <trkpt lat="46.47737" lon="8.26">
        <ele>1332</ele>
        <time>2020-07-16T14:55:13.735Z</time>
      </trkpt>
      <trkpt lat="46.47738" lon="8.26001">
        <ele>1331</ele>
        <time>2020-07-16T14:55:14.735Z</time>
      </trkpt>
      <trkpt lat="46.47738" lon="8.26002">
        <ele>1331</ele>
        <time>2020-07-16T14:55:15.736Z</time>
      </trkpt>
      <trkpt lat="46.47738" lon="8.26003">
        <ele>1332</ele>
        <time>2020-07-16T14:55:16.735Z</time>
      </trkpt>
      <trkpt lat="46.47738" lon="8.26004">
        <ele>1332</ele>
        <time>2020-07-16T14:55:17.735Z</time>
      </trkpt>
      <trkpt lat="46.47738" lon="8.26005">
        <ele>1332</ele>
        <time>2020-07-16T14:55:18.735Z</time>
      </trkpt>
      <trkpt lat="46.47738" lon="8.26005">
        <ele>1332</ele>
        <time>2020-07-16T14:55:19.735Z</time>
      </trkpt>
      <trkpt lat="46.47739" lon="8.26006">
        <ele>1333</ele>
        <time>2020-07-16T14:55:20.736Z</time>
      </trkpt>
      <trkpt lat="46.47739" lon="8.26007">
        <ele>1333</ele>
        <time>2020-07-16T14:55:21.736Z</time>
      </trkpt>
      <trkpt lat="46.47739" lon="8.26008">
        <ele>1333</ele>
        <time>2020-07-16T14:55:22.735Z</time>
      </trkpt>
      <trkpt lat="46.47739" lon="8.2601">
        <ele>1333</ele>
        <time>2020-07-16T14:55:23.735Z</time>
      </trkpt>
      <trkpt lat="46.47739" lon="8.26011">
        <ele>1333</ele>
        <time>2020-07-16T14:55:24.735Z</time>
      </trkpt>
      <trkpt lat="46.4774" lon="8.26012">
        <ele>1333</ele>
        <time>2020-07-16T14:55:25.735Z</time>
      </trkpt>
      <trkpt lat="46.4774" lon="8.26013">
        <ele>1333</ele>
        <time>2020-07-16T14:55:26.736Z</time>
      </trkpt>
      <trkpt lat="46.4774" lon="8.26015">
        <ele>1332</ele>
        <time>2020-07-16T14:55:27.736Z</time>
      </trkpt>
      <trkpt lat="46.47741" lon="8.26016">
        <ele>1332</ele>
        <time>2020-07-16T14:55:28.735Z</time>
      </trkpt>
      <trkpt lat="46.47741" lon="8.26017">
        <ele>1332</ele>
        <time>2020-07-16T14:55:34.880Z</time>
      </trkpt>
      <trkpt lat="46.47741" lon="8.26019">
        <ele>1332</ele>
        <time>2020-07-16T14:55:35.880Z</time>
      </trkpt>
      <trkpt lat="46.47742" lon="8.2602">
        <ele>1332</ele>
        <time>2020-07-16T14:55:36.881Z</time>
      </trkpt>
      <trkpt lat="46.47742" lon="8.26021">
        <ele>1332</ele>
        <time>2020-07-16T14:55:44.987Z</time>
      </trkpt>
      <trkpt lat="46.47743" lon="8.26022">
        <ele>1332</ele>
        <time>2020-07-16T14:55:45.988Z</time>
      </trkpt>
      <trkpt lat="46.47743" lon="8.26024">
        <ele>1332</ele>
        <time>2020-07-16T14:55:53.865Z</time>
      </trkpt>
      <trkpt lat="46.47743" lon="8.26025">
        <ele>1332</ele>
        <time>2020-07-16T14:55:54.865Z</time>
      </trkpt>
      <trkpt lat="46.47743" lon="8.26026">
        <ele>1332</ele>
        <time>2020-07-16T14:55:55.864Z</time>
      </trkpt>
      <trkpt lat="46.47744" lon="8.26027">
        <ele>1332</ele>
        <time>2020-07-16T14:55:56.864Z</time>
      </trkpt>
      <trkpt lat="46.47744" lon="8.26028">
        <ele>1332</ele>
        <time>2020-07-16T14:55:57.864Z</time>
      </trkpt>
      <trkpt lat="46.47744" lon="8.26029">
        <ele>1332</ele>
        <time>2020-07-16T14:55:58.864Z</time>
      </trkpt>
      <trkpt lat="46.47745" lon="8.2603">
        <ele>1332</ele>
        <time>2020-07-16T14:55:59.864Z</time>
      </trkpt>
      <trkpt lat="46.47745" lon="8.26031">
        <ele>1332</ele>
        <time>2020-07-16T14:56:01.845Z</time>
      </trkpt>
      <trkpt lat="46.47746" lon="8.26032">
        <ele>1332</ele>
        <time>2020-07-16T14:56:02.845Z</time>
      </trkpt>
      <trkpt lat="46.47746" lon="8.26034">
        <ele>1332</ele>
        <time>2020-07-16T14:56:03.845Z</time>
      </trkpt>
      <trkpt lat="46.47747" lon="8.26035">
        <ele>1332</ele>
        <time>2020-07-16T14:56:04.846Z</time>
      </trkpt>
      <trkpt lat="46.47748" lon="8.26036">
        <ele>1332</ele>
        <time>2020-07-16T14:56:05.846Z</time>
      </trkpt>
      <trkpt lat="46.47748" lon="8.26037">
        <ele>1332</ele>
        <time>2020-07-16T14:56:06.845Z</time>
      </trkpt>
      <trkpt lat="46.47748" lon="8.26038">
        <ele>1332</ele>
        <time>2020-07-16T14:56:07.846Z</time>
      </trkpt>
      <trkpt lat="46.47749" lon="8.2604">
        <ele>1332</ele>
        <time>2020-07-16T14:56:08.845Z</time>
      </trkpt>
      <trkpt lat="46.4775" lon="8.26041">
        <ele>1332</ele>
        <time>2020-07-16T14:56:09.846Z</time>
      </trkpt>
      <trkpt lat="46.47751" lon="8.26042">
        <ele>1332</ele>
        <time>2020-07-16T14:56:10.845Z</time>
      </trkpt>
      <trkpt lat="46.47751" lon="8.26043">
        <ele>1332</ele>
        <time>2020-07-16T14:56:11.845Z</time>
      </trkpt>
      <trkpt lat="46.47752" lon="8.26044">
        <ele>1332</ele>
        <time>2020-07-16T14:56:12.845Z</time>
      </trkpt>
      <trkpt lat="46.47753" lon="8.26045">
        <ele>1332</ele>
        <time>2020-07-16T14:56:13.845Z</time>
      </trkpt>
      <trkpt lat="46.47754" lon="8.26046">
        <ele>1331</ele>
        <time>2020-07-16T14:56:14.845Z</time>
      </trkpt>
      <trkpt lat="46.47755" lon="8.26047">
        <ele>1331</ele>
        <time>2020-07-16T14:56:15.845Z</time>
      </trkpt>
      <trkpt lat="46.47755" lon="8.26048">
        <ele>1331</ele>
        <time>2020-07-16T14:56:16.845Z</time>
      </trkpt>
      <trkpt lat="46.47756" lon="8.26049">
        <ele>1331</ele>
        <time>2020-07-16T14:56:17.846Z</time>
      </trkpt>
      <trkpt lat="46.47757" lon="8.26051">
        <ele>1332</ele>
        <time>2020-07-16T14:56:18.846Z</time>
      </trkpt>
      <trkpt lat="46.47758" lon="8.26051">
        <ele>1332</ele>
        <time>2020-07-16T14:56:19.845Z</time>
      </trkpt>
      <trkpt lat="46.47759" lon="8.26052">
        <ele>1332</ele>
        <time>2020-07-16T14:56:20.846Z</time>
      </trkpt>
      <trkpt lat="46.47759" lon="8.26053">
        <ele>1333</ele>
        <time>2020-07-16T14:56:21.845Z</time>
      </trkpt>
      <trkpt lat="46.4776" lon="8.26054">
        <ele>1333</ele>
        <time>2020-07-16T14:56:22.845Z</time>
      </trkpt>
      <trkpt lat="46.47761" lon="8.26055">
        <ele>1333</ele>
        <time>2020-07-16T14:56:23.845Z</time>
      </trkpt>
      <trkpt lat="46.47762" lon="8.26056">
        <ele>1333</ele>
        <time>2020-07-16T14:56:24.845Z</time>
      </trkpt>
      <trkpt lat="46.47763" lon="8.26058">
        <ele>1332</ele>
        <time>2020-07-16T14:56:25.846Z</time>
      </trkpt>
      <trkpt lat="46.47763" lon="8.26059">
        <ele>1332</ele>
        <time>2020-07-16T14:56:26.845Z</time>
      </trkpt>
      <trkpt lat="46.47764" lon="8.2606">
        <ele>1333</ele>
        <time>2020-07-16T14:56:27.846Z</time>
      </trkpt>
      <trkpt lat="46.47765" lon="8.26061">
        <ele>1332</ele>
        <time>2020-07-16T14:56:28.845Z</time>
      </trkpt>
      <trkpt lat="46.47765" lon="8.26062">
        <ele>1332</ele>
        <time>2020-07-16T14:56:29.846Z</time>
      </trkpt>
      <trkpt lat="46.47766" lon="8.26063">
        <ele>1332</ele>
        <time>2020-07-16T14:56:30.846Z</time>
      </trkpt>
      <trkpt lat="46.47767" lon="8.26064">
        <ele>1332</ele>
        <time>2020-07-16T14:56:31.846Z</time>
      </trkpt>
      <trkpt lat="46.47767" lon="8.26065">
        <ele>1333</ele>
        <time>2020-07-16T14:56:32.845Z</time>
      </trkpt>
      <trkpt lat="46.47768" lon="8.26066">
        <ele>1333</ele>
        <time>2020-07-16T14:56:33.845Z</time>
      </trkpt>
      <trkpt lat="46.47769" lon="8.26067">
        <ele>1333</ele>
        <time>2020-07-16T14:56:34.845Z</time>
      </trkpt>
      <trkpt lat="46.47769" lon="8.26068">
        <ele>1334</ele>
        <time>2020-07-16T14:56:35.845Z</time>
      </trkpt>
      <trkpt lat="46.4777" lon="8.26069">
        <ele>1334</ele>
        <time>2020-07-16T14:56:36.845Z</time>
      </trkpt>
      <trkpt lat="46.4777" lon="8.2607">
        <ele>1335</ele>
        <time>2020-07-16T14:56:37.845Z</time>
      </trkpt>
      <trkpt lat="46.47771" lon="8.26071">
        <ele>1335</ele>
        <time>2020-07-16T14:56:55.864Z</time>
      </trkpt>
      <trkpt lat="46.47771" lon="8.26072">
        <ele>1336</ele>
        <time>2020-07-16T14:56:56.864Z</time>
      </trkpt>
      <trkpt lat="46.47772" lon="8.26073">
        <ele>1336</ele>
        <time>2020-07-16T14:56:57.864Z</time>
      </trkpt>
      <trkpt lat="46.47772" lon="8.26074">
        <ele>1337</ele>
        <time>2020-07-16T14:56:59.865Z</time>
      </trkpt>
      <trkpt lat="46.47773" lon="8.26075">
        <ele>1338</ele>
        <time>2020-07-16T14:57:06.644Z</time>
      </trkpt>
      <trkpt lat="46.47774" lon="8.26076">
        <ele>1338</ele>
        <time>2020-07-16T14:57:07.643Z</time>
      </trkpt>
      <trkpt lat="46.47774" lon="8.26077">
        <ele>1339</ele>
        <time>2020-07-16T14:57:08.644Z</time>
      </trkpt>
      <trkpt lat="46.47775" lon="8.26078">
        <ele>1339</ele>
        <time>2020-07-16T14:57:09.644Z</time>
      </trkpt>
      <trkpt lat="46.47775" lon="8.26079">
        <ele>1340</ele>
        <time>2020-07-16T14:57:10.643Z</time>
      </trkpt>
      <trkpt lat="46.47776" lon="8.2608">
        <ele>1340</ele>
        <time>2020-07-16T14:57:11.643Z</time>
      </trkpt>
      <trkpt lat="46.47777" lon="8.26081">
        <ele>1340</ele>
        <time>2020-07-16T14:57:12.643Z</time>
      </trkpt>
      <trkpt lat="46.47777" lon="8.26082">
        <ele>1340</ele>
        <time>2020-07-16T14:57:13.643Z</time>
      </trkpt>
      <trkpt lat="46.47778" lon="8.26082">
        <ele>1340</ele>
        <time>2020-07-16T14:57:14.643Z</time>
      </trkpt>
      <trkpt lat="46.47778" lon="8.26083">
        <ele>1340</ele>
        <time>2020-07-16T14:57:15.643Z</time>
      </trkpt>
      <trkpt lat="46.47779" lon="8.26085">
        <ele>1339</ele>
        <time>2020-07-16T14:57:16.643Z</time>
      </trkpt>
      <trkpt lat="46.4778" lon="8.26086">
        <ele>1339</ele>
        <time>2020-07-16T14:57:17.643Z</time>
      </trkpt>
      <trkpt lat="46.47781" lon="8.26086">
        <ele>1339</ele>
        <time>2020-07-16T14:57:18.643Z</time>
      </trkpt>
      <trkpt lat="46.47781" lon="8.26087">
        <ele>1339</ele>
        <time>2020-07-16T14:57:19.643Z</time>
      </trkpt>
      <trkpt lat="46.47782" lon="8.26088">
        <ele>1339</ele>
        <time>2020-07-16T14:57:20.643Z</time>
      </trkpt>
      <trkpt lat="46.47783" lon="8.2609">
        <ele>1340</ele>
        <time>2020-07-16T14:57:21.643Z</time>
      </trkpt>
      <trkpt lat="46.47783" lon="8.2609">
        <ele>1340</ele>
        <time>2020-07-16T14:57:22.644Z</time>
      </trkpt>
      <trkpt lat="46.47783" lon="8.26091">
        <ele>1340</ele>
        <time>2020-07-16T14:57:23.643Z</time>
      </trkpt>
      <trkpt lat="46.47784" lon="8.26092">
        <ele>1340</ele>
        <time>2020-07-16T14:57:24.643Z</time>
      </trkpt>
      <trkpt lat="46.47785" lon="8.26093">
        <ele>1341</ele>
        <time>2020-07-16T14:57:25.643Z</time>
      </trkpt>
      <trkpt lat="46.47785" lon="8.26094">
        <ele>1341</ele>
        <time>2020-07-16T14:57:26.643Z</time>
      </trkpt>
      <trkpt lat="46.47786" lon="8.26095">
        <ele>1341</ele>
        <time>2020-07-16T14:57:27.643Z</time>
      </trkpt>
      <trkpt lat="46.47786" lon="8.26096">
        <ele>1341</ele>
        <time>2020-07-16T14:57:28.643Z</time>
      </trkpt>
      <trkpt lat="46.47786" lon="8.26097">
        <ele>1341</ele>
        <time>2020-07-16T14:57:29.643Z</time>
      </trkpt>
      <trkpt lat="46.47787" lon="8.26098">
        <ele>1342</ele>
        <time>2020-07-16T14:57:30.644Z</time>
      </trkpt>
      <trkpt lat="46.47787" lon="8.26099">
        <ele>1342</ele>
        <time>2020-07-16T14:57:31.643Z</time>
      </trkpt>
      <trkpt lat="46.47788" lon="8.26099">
        <ele>1342</ele>
        <time>2020-07-16T14:57:32.643Z</time>
      </trkpt>
      <trkpt lat="46.47789" lon="8.261">
        <ele>1342</ele>
        <time>2020-07-16T14:57:33.643Z</time>
      </trkpt>
      <trkpt lat="46.4779" lon="8.26102">
        <ele>1341</ele>
        <time>2020-07-16T14:57:34.643Z</time>
      </trkpt>
      <trkpt lat="46.47791" lon="8.26103">
        <ele>1341</ele>
        <time>2020-07-16T14:57:35.643Z</time>
      </trkpt>
      <trkpt lat="46.47792" lon="8.26104">
        <ele>1340</ele>
        <time>2020-07-16T14:57:36.643Z</time>
      </trkpt>
      <trkpt lat="46.47792" lon="8.26105">
        <ele>1339</ele>
        <time>2020-07-16T14:57:37.644Z</time>
      </trkpt>
      <trkpt lat="46.47793" lon="8.26108">
        <ele>1339</ele>
        <time>2020-07-16T14:57:38.643Z</time>
      </trkpt>
      <trkpt lat="46.47793" lon="8.26109">
        <ele>1339</ele>
        <time>2020-07-16T14:57:39.644Z</time>
      </trkpt>
      <trkpt lat="46.47792" lon="8.2611">
        <ele>1338</ele>
        <time>2020-07-16T14:57:40.643Z</time>
      </trkpt>
      <trkpt lat="46.47792" lon="8.26111">
        <ele>1338</ele>
        <time>2020-07-16T14:57:41.643Z</time>
      </trkpt>
      <trkpt lat="46.47793" lon="8.26113">
        <ele>1337</ele>
        <time>2020-07-16T14:57:42.643Z</time>
      </trkpt>
      <trkpt lat="46.47794" lon="8.26114">
        <ele>1337</ele>
        <time>2020-07-16T14:57:43.643Z</time>
      </trkpt>
      <trkpt lat="46.47795" lon="8.26114">
        <ele>1336</ele>
        <time>2020-07-16T14:57:44.643Z</time>
      </trkpt>
      <trkpt lat="46.47796" lon="8.26115">
        <ele>1336</ele>
        <time>2020-07-16T14:57:45.643Z</time>
      </trkpt>
      <trkpt lat="46.47796" lon="8.26116">
        <ele>1336</ele>
        <time>2020-07-16T14:57:46.643Z</time>
      </trkpt>
      <trkpt lat="46.47796" lon="8.26117">
        <ele>1336</ele>
        <time>2020-07-16T14:57:47.643Z</time>
      </trkpt>
      <trkpt lat="46.47797" lon="8.26116">
        <ele>1337</ele>
        <time>2020-07-16T14:57:48.643Z</time>
      </trkpt>
      <trkpt lat="46.47797" lon="8.26116">
        <ele>1337</ele>
        <time>2020-07-16T14:57:49.643Z</time>
      </trkpt>
      <trkpt lat="46.47798" lon="8.26117">
        <ele>1337</ele>
        <time>2020-07-16T14:57:50.643Z</time>
      </trkpt>
      <trkpt lat="46.47799" lon="8.26119">
        <ele>1338</ele>
        <time>2020-07-16T14:57:51.644Z</time>
      </trkpt>
      <trkpt lat="46.47799" lon="8.26119">
        <ele>1338</ele>
        <time>2020-07-16T14:57:52.643Z</time>
      </trkpt>
      <trkpt lat="46.47799" lon="8.26121">
        <ele>1338</ele>
        <time>2020-07-16T14:57:53.643Z</time>
      </trkpt>
      <trkpt lat="46.47799" lon="8.26122">
        <ele>1338</ele>
        <time>2020-07-16T14:57:54.643Z</time>
      </trkpt>
      <trkpt lat="46.478" lon="8.26123">
        <ele>1339</ele>
        <time>2020-07-16T14:57:55.644Z</time>
      </trkpt>
      <trkpt lat="46.47801" lon="8.26123">
        <ele>1339</ele>
        <time>2020-07-16T14:57:56.643Z</time>
      </trkpt>
      <trkpt lat="46.47801" lon="8.26123">
        <ele>1339</ele>
        <time>2020-07-16T14:57:57.643Z</time>
      </trkpt>
      <trkpt lat="46.47802" lon="8.26124">
        <ele>1340</ele>
        <time>2020-07-16T14:57:58.643Z</time>
      </trkpt>
      <trkpt lat="46.47802" lon="8.26124">
        <ele>1340</ele>
        <time>2020-07-16T14:57:59.643Z</time>
      </trkpt>
      <trkpt lat="46.47803" lon="8.26124">
        <ele>1340</ele>
        <time>2020-07-16T14:58:00.643Z</time>
      </trkpt>
      <trkpt lat="46.47803" lon="8.26124">
        <ele>1339</ele>
        <time>2020-07-16T14:58:01.643Z</time>
      </trkpt>
      <trkpt lat="46.47803" lon="8.26124">
        <ele>1339</ele>
        <time>2020-07-16T14:58:02.643Z</time>
      </trkpt>
      <trkpt lat="46.47804" lon="8.26126">
        <ele>1338</ele>
        <time>2020-07-16T14:58:03.644Z</time>
      </trkpt>
      <trkpt lat="46.47804" lon="8.26126">
        <ele>1337</ele>
        <time>2020-07-16T14:58:04.643Z</time>
      </trkpt>
      <trkpt lat="46.47804" lon="8.26126">
        <ele>1336</ele>
        <time>2020-07-16T14:58:05.644Z</time>
      </trkpt>
      <trkpt lat="46.47804" lon="8.26126">
        <ele>1335</ele>
        <time>2020-07-16T14:58:06.643Z</time>
      </trkpt>
      <trkpt lat="46.47804" lon="8.26127">
        <ele>1334</ele>
        <time>2020-07-16T14:58:07.643Z</time>
      </trkpt>
      <trkpt lat="46.47804" lon="8.26129">
        <ele>1330</ele>
        <time>2020-07-16T14:58:08.643Z</time>
      </trkpt>
      <trkpt lat="46.47804" lon="8.26129">
        <ele>1329</ele>
        <time>2020-07-16T14:58:09.643Z</time>
      </trkpt>
      <trkpt lat="46.47805" lon="8.2613">
        <ele>1328</ele>
        <time>2020-07-16T14:58:10.643Z</time>
      </trkpt>
      <trkpt lat="46.47805" lon="8.26131">
        <ele>1327</ele>
        <time>2020-07-16T14:58:11.643Z</time>
      </trkpt>
      <trkpt lat="46.47806" lon="8.26132">
        <ele>1327</ele>
        <time>2020-07-16T14:58:12.644Z</time>
      </trkpt>
      <trkpt lat="46.47807" lon="8.26132">
        <ele>1327</ele>
        <time>2020-07-16T14:58:13.644Z</time>
      </trkpt>
      <trkpt lat="46.47808" lon="8.26133">
        <ele>1326</ele>
        <time>2020-07-16T14:58:14.643Z</time>
      </trkpt>
      <trkpt lat="46.47809" lon="8.26134">
        <ele>1326</ele>
        <time>2020-07-16T14:58:15.643Z</time>
      </trkpt>
      <trkpt lat="46.47809" lon="8.26134">
        <ele>1325</ele>
        <time>2020-07-16T14:58:16.644Z</time>
      </trkpt>
      <trkpt lat="46.4781" lon="8.26136">
        <ele>1324</ele>
        <time>2020-07-16T14:58:17.644Z</time>
      </trkpt>
      <trkpt lat="46.47811" lon="8.26136">
        <ele>1324</ele>
        <time>2020-07-16T14:58:18.643Z</time>
      </trkpt>
      <trkpt lat="46.47812" lon="8.26137">
        <ele>1323</ele>
        <time>2020-07-16T14:58:19.643Z</time>
      </trkpt>
      <trkpt lat="46.47812" lon="8.26138">
        <ele>1323</ele>
        <time>2020-07-16T14:58:20.643Z</time>
      </trkpt>
      <trkpt lat="46.47813" lon="8.26139">
        <ele>1323</ele>
        <time>2020-07-16T14:58:21.643Z</time>
      </trkpt>
      <trkpt lat="46.47813" lon="8.26141">
        <ele>1323</ele>
        <time>2020-07-16T14:58:22.643Z</time>
      </trkpt>
      <trkpt lat="46.47814" lon="8.26141">
        <ele>1323</ele>
        <time>2020-07-16T14:58:23.644Z</time>
      </trkpt>
      <trkpt lat="46.47815" lon="8.26142">
        <ele>1323</ele>
        <time>2020-07-16T14:58:24.643Z</time>
      </trkpt>
      <trkpt lat="46.47816" lon="8.26143">
        <ele>1323</ele>
        <time>2020-07-16T14:58:25.643Z</time>
      </trkpt>
      <trkpt lat="46.47817" lon="8.26145">
        <ele>1323</ele>
        <time>2020-07-16T14:58:26.644Z</time>
      </trkpt>
      <trkpt lat="46.47817" lon="8.26148">
        <ele>1323</ele>
        <time>2020-07-16T14:58:27.644Z</time>
      </trkpt>
      <trkpt lat="46.47818" lon="8.2615">
        <ele>1324</ele>
        <time>2020-07-16T14:58:35.762Z</time>
      </trkpt>
      <trkpt lat="46.47819" lon="8.26152">
        <ele>1324</ele>
        <time>2020-07-16T14:58:36.761Z</time>
      </trkpt>
      <trkpt lat="46.4782" lon="8.26153">
        <ele>1324</ele>
        <time>2020-07-16T14:58:51.504Z</time>
      </trkpt>
      <trkpt lat="46.47821" lon="8.26155">
        <ele>1324</ele>
        <time>2020-07-16T14:58:52.504Z</time>
      </trkpt>
      <trkpt lat="46.47821" lon="8.26156">
        <ele>1325</ele>
        <time>2020-07-16T14:58:53.505Z</time>
      </trkpt>
      <trkpt lat="46.47822" lon="8.26157">
        <ele>1326</ele>
        <time>2020-07-16T14:58:54.505Z</time>
      </trkpt>
      <trkpt lat="46.47822" lon="8.26157">
        <ele>1326</ele>
        <time>2020-07-16T14:58:55.504Z</time>
      </trkpt>
      <trkpt lat="46.47823" lon="8.26157">
        <ele>1327</ele>
        <time>2020-07-16T14:58:56.504Z</time>
      </trkpt>
      <trkpt lat="46.47824" lon="8.26158">
        <ele>1328</ele>
        <time>2020-07-16T14:59:01.509Z</time>
      </trkpt>
      <trkpt lat="46.47824" lon="8.26159">
        <ele>1328</ele>
        <time>2020-07-16T14:59:02.509Z</time>
      </trkpt>
      <trkpt lat="46.47824" lon="8.2616">
        <ele>1329</ele>
        <time>2020-07-16T14:59:03.510Z</time>
      </trkpt>
      <trkpt lat="46.47825" lon="8.2616">
        <ele>1329</ele>
        <time>2020-07-16T14:59:12.258Z</time>
      </trkpt>
      <trkpt lat="46.47825" lon="8.26161">
        <ele>1330</ele>
        <time>2020-07-16T14:59:13.258Z</time>
      </trkpt>
      <trkpt lat="46.47826" lon="8.26163">
        <ele>1330</ele>
        <time>2020-07-16T14:59:14.259Z</time>
      </trkpt>
      <trkpt lat="46.47826" lon="8.26164">
        <ele>1331</ele>
        <time>2020-07-16T14:59:29.359Z</time>
      </trkpt>
      <trkpt lat="46.47826" lon="8.26165">
        <ele>1331</ele>
        <time>2020-07-16T14:59:30.360Z</time>
      </trkpt>
      <trkpt lat="46.47827" lon="8.26166">
        <ele>1331</ele>
        <time>2020-07-16T14:59:31.359Z</time>
      </trkpt>
      <trkpt lat="46.47827" lon="8.26167">
        <ele>1331</ele>
        <time>2020-07-16T14:59:39.108Z</time>
      </trkpt>
      <trkpt lat="46.47828" lon="8.26169">
        <ele>1331</ele>
        <time>2020-07-16T14:59:40.107Z</time>
      </trkpt>
      <trkpt lat="46.47829" lon="8.26169">
        <ele>1331</ele>
        <time>2020-07-16T14:59:41.108Z</time>
      </trkpt>
      <trkpt lat="46.47829" lon="8.2617">
        <ele>1332</ele>
        <time>2020-07-16T14:59:42.107Z</time>
      </trkpt>
      <trkpt lat="46.4783" lon="8.26171">
        <ele>1332</ele>
        <time>2020-07-16T14:59:43.107Z</time>
      </trkpt>
      <trkpt lat="46.4783" lon="8.26171">
        <ele>1332</ele>
        <time>2020-07-16T14:59:44.108Z</time>
      </trkpt>
      <trkpt lat="46.47831" lon="8.26173">
        <ele>1333</ele>
        <time>2020-07-16T14:59:45.107Z</time>
      </trkpt>
      <trkpt lat="46.47832" lon="8.26175">
        <ele>1333</ele>
        <time>2020-07-16T14:59:46.108Z</time>
      </trkpt>
      <trkpt lat="46.47832" lon="8.26176">
        <ele>1333</ele>
        <time>2020-07-16T14:59:47.107Z</time>
      </trkpt>
      <trkpt lat="46.47833" lon="8.26177">
        <ele>1333</ele>
        <time>2020-07-16T14:59:48.107Z</time>
      </trkpt>
      <trkpt lat="46.47833" lon="8.26179">
        <ele>1334</ele>
        <time>2020-07-16T14:59:49.107Z</time>
      </trkpt>
      <trkpt lat="46.47834" lon="8.2618">
        <ele>1334</ele>
        <time>2020-07-16T14:59:50.107Z</time>
      </trkpt>
      <trkpt lat="46.47835" lon="8.26181">
        <ele>1334</ele>
        <time>2020-07-16T14:59:51.107Z</time>
      </trkpt>
      <trkpt lat="46.47836" lon="8.26183">
        <ele>1334</ele>
        <time>2020-07-16T14:59:52.107Z</time>
      </trkpt>
      <trkpt lat="46.47836" lon="8.26183">
        <ele>1334</ele>
        <time>2020-07-16T14:59:53.107Z</time>
      </trkpt>
      <trkpt lat="46.47837" lon="8.26185">
        <ele>1335</ele>
        <time>2020-07-16T14:59:54.107Z</time>
      </trkpt>
      <trkpt lat="46.47838" lon="8.26186">
        <ele>1335</ele>
        <time>2020-07-16T14:59:55.107Z</time>
      </trkpt>
      <trkpt lat="46.47838" lon="8.26187">
        <ele>1335</ele>
        <time>2020-07-16T14:59:56.107Z</time>
      </trkpt>
      <trkpt lat="46.47839" lon="8.26188">
        <ele>1335</ele>
        <time>2020-07-16T14:59:57.108Z</time>
      </trkpt>
      <trkpt lat="46.47839" lon="8.26189">
        <ele>1335</ele>
        <time>2020-07-16T14:59:58.108Z</time>
      </trkpt>
      <trkpt lat="46.4784" lon="8.2619">
        <ele>1336</ele>
        <time>2020-07-16T14:59:59.107Z</time>
      </trkpt>
      <trkpt lat="46.47841" lon="8.26191">
        <ele>1336</ele>
        <time>2020-07-16T15:00:00.108Z</time>
      </trkpt>
      <trkpt lat="46.47842" lon="8.26192">
        <ele>1336</ele>
        <time>2020-07-16T15:00:01.107Z</time>
      </trkpt>
      <trkpt lat="46.47843" lon="8.26193">
        <ele>1336</ele>
        <time>2020-07-16T15:00:02.107Z</time>
      </trkpt>
      <trkpt lat="46.47844" lon="8.26196">
        <ele>1337</ele>
        <time>2020-07-16T15:00:03.107Z</time>
      </trkpt>
      <trkpt lat="46.47844" lon="8.26197">
        <ele>1337</ele>
        <time>2020-07-16T15:00:04.107Z</time>
      </trkpt>
      <trkpt lat="46.47844" lon="8.26197">
        <ele>1337</ele>
        <time>2020-07-16T15:00:05.108Z</time>
      </trkpt>
      <trkpt lat="46.47844" lon="8.26198">
        <ele>1338</ele>
        <time>2020-07-16T15:00:06.108Z</time>
      </trkpt>
      <trkpt lat="46.47845" lon="8.26198">
        <ele>1338</ele>
        <time>2020-07-16T15:00:07.108Z</time>
      </trkpt>
      <trkpt lat="46.47846" lon="8.26199">
        <ele>1338</ele>
        <time>2020-07-16T15:00:08.107Z</time>
      </trkpt>
      <trkpt lat="46.47846" lon="8.262">
        <ele>1339</ele>
        <time>2020-07-16T15:00:09.107Z</time>
      </trkpt>
      <trkpt lat="46.47847" lon="8.26201">
        <ele>1339</ele>
        <time>2020-07-16T15:00:10.107Z</time>
      </trkpt>
      <trkpt lat="46.47847" lon="8.26202">
        <ele>1340</ele>
        <time>2020-07-16T15:00:11.107Z</time>
      </trkpt>
      <trkpt lat="46.47847" lon="8.26203">
        <ele>1340</ele>
        <time>2020-07-16T15:00:12.107Z</time>
      </trkpt>
      <trkpt lat="46.47848" lon="8.26204">
        <ele>1340</ele>
        <time>2020-07-16T15:00:13.107Z</time>
      </trkpt>
      <trkpt lat="46.47848" lon="8.26204">
        <ele>1341</ele>
        <time>2020-07-16T15:00:14.108Z</time>
      </trkpt>
      <trkpt lat="46.47849" lon="8.26205">
        <ele>1341</ele>
        <time>2020-07-16T15:00:15.107Z</time>
      </trkpt>
      <trkpt lat="46.47849" lon="8.26206">
        <ele>1341</ele>
        <time>2020-07-16T15:00:16.107Z</time>
      </trkpt>
      <trkpt lat="46.4785" lon="8.26207">
        <ele>1341</ele>
        <time>2020-07-16T15:00:17.107Z</time>
      </trkpt>
      <trkpt lat="46.4785" lon="8.26209">
        <ele>1341</ele>
        <time>2020-07-16T15:00:18.108Z</time>
      </trkpt>
      <trkpt lat="46.47851" lon="8.2621">
        <ele>1341</ele>
        <time>2020-07-16T15:00:19.107Z</time>
      </trkpt>
      <trkpt lat="46.47852" lon="8.26211">
        <ele>1341</ele>
        <time>2020-07-16T15:00:20.107Z</time>
      </trkpt>
      <trkpt lat="46.47852" lon="8.26212">
        <ele>1340</ele>
        <time>2020-07-16T15:00:21.107Z</time>
      </trkpt>
      <trkpt lat="46.47853" lon="8.26213">
        <ele>1340</ele>
        <time>2020-07-16T15:00:22.107Z</time>
      </trkpt>
      <trkpt lat="46.47854" lon="8.26214">
        <ele>1340</ele>
        <time>2020-07-16T15:00:23.107Z</time>
      </trkpt>
      <trkpt lat="46.47855" lon="8.26215">
        <ele>1340</ele>
        <time>2020-07-16T15:00:24.107Z</time>
      </trkpt>
      <trkpt lat="46.47855" lon="8.26216">
        <ele>1340</ele>
        <time>2020-07-16T15:00:25.107Z</time>
      </trkpt>
      <trkpt lat="46.47856" lon="8.26217">
        <ele>1340</ele>
        <time>2020-07-16T15:00:26.107Z</time>
      </trkpt>
      <trkpt lat="46.47857" lon="8.26218">
        <ele>1339</ele>
        <time>2020-07-16T15:00:27.108Z</time>
      </trkpt>
      <trkpt lat="46.47858" lon="8.26219">
        <ele>1339</ele>
        <time>2020-07-16T15:00:28.107Z</time>
      </trkpt>
      <trkpt lat="46.47859" lon="8.2622">
        <ele>1338</ele>
        <time>2020-07-16T15:00:29.107Z</time>
      </trkpt>
      <trkpt lat="46.4786" lon="8.2622">
        <ele>1338</ele>
        <time>2020-07-16T15:00:30.107Z</time>
      </trkpt>
      <trkpt lat="46.47861" lon="8.26222">
        <ele>1338</ele>
        <time>2020-07-16T15:00:31.107Z</time>
      </trkpt>
      <trkpt lat="46.47862" lon="8.26223">
        <ele>1338</ele>
        <time>2020-07-16T15:00:32.107Z</time>
      </trkpt>
      <trkpt lat="46.47862" lon="8.26224">
        <ele>1337</ele>
        <time>2020-07-16T15:00:33.107Z</time>
      </trkpt>
      <trkpt lat="46.47863" lon="8.26225">
        <ele>1337</ele>
        <time>2020-07-16T15:00:34.108Z</time>
      </trkpt>
      <trkpt lat="46.47863" lon="8.26226">
        <ele>1336</ele>
        <time>2020-07-16T15:00:35.107Z</time>
      </trkpt>
      <trkpt lat="46.47864" lon="8.26228">
        <ele>1336</ele>
        <time>2020-07-16T15:00:36.108Z</time>
      </trkpt>
      <trkpt lat="46.47865" lon="8.2623">
        <ele>1335</ele>
        <time>2020-07-16T15:00:37.107Z</time>
      </trkpt>
      <trkpt lat="46.47866" lon="8.26231">
        <ele>1335</ele>
        <time>2020-07-16T15:00:38.107Z</time>
      </trkpt>
      <trkpt lat="46.47866" lon="8.26232">
        <ele>1335</ele>
        <time>2020-07-16T15:00:39.107Z</time>
      </trkpt>
      <trkpt lat="46.47867" lon="8.26233">
        <ele>1335</ele>
        <time>2020-07-16T15:00:40.107Z</time>
      </trkpt>
      <trkpt lat="46.47868" lon="8.26233">
        <ele>1335</ele>
        <time>2020-07-16T15:00:41.107Z</time>
      </trkpt>
      <trkpt lat="46.47868" lon="8.26233">
        <ele>1335</ele>
        <time>2020-07-16T15:00:42.107Z</time>
      </trkpt>
      <trkpt lat="46.47868" lon="8.26234">
        <ele>1335</ele>
        <time>2020-07-16T15:00:43.107Z</time>
      </trkpt>
      <trkpt lat="46.47868" lon="8.26235">
        <ele>1335</ele>
        <time>2020-07-16T15:00:44.108Z</time>
      </trkpt>
      <trkpt lat="46.47869" lon="8.26236">
        <ele>1335</ele>
        <time>2020-07-16T15:00:45.108Z</time>
      </trkpt>
      <trkpt lat="46.4787" lon="8.26237">
        <ele>1336</ele>
        <time>2020-07-16T15:00:46.107Z</time>
      </trkpt>
      <trkpt lat="46.4787" lon="8.26238">
        <ele>1336</ele>
        <time>2020-07-16T15:00:47.108Z</time>
      </trkpt>
      <trkpt lat="46.47871" lon="8.26238">
        <ele>1336</ele>
        <time>2020-07-16T15:00:48.107Z</time>
      </trkpt>
      <trkpt lat="46.47872" lon="8.26238">
        <ele>1336</ele>
        <time>2020-07-16T15:00:49.107Z</time>
      </trkpt>
      <trkpt lat="46.47872" lon="8.26239">
        <ele>1337</ele>
        <time>2020-07-16T15:00:50.107Z</time>
      </trkpt>
      <trkpt lat="46.47873" lon="8.2624">
        <ele>1338</ele>
        <time>2020-07-16T15:00:51.107Z</time>
      </trkpt>
      <trkpt lat="46.47874" lon="8.26241">
        <ele>1338</ele>
        <time>2020-07-16T15:00:52.107Z</time>
      </trkpt>
      <trkpt lat="46.47874" lon="8.26242">
        <ele>1339</ele>
        <time>2020-07-16T15:00:53.107Z</time>
      </trkpt>
      <trkpt lat="46.47875" lon="8.26244">
        <ele>1339</ele>
        <time>2020-07-16T15:00:54.107Z</time>
      </trkpt>
      <trkpt lat="46.47876" lon="8.26245">
        <ele>1340</ele>
        <time>2020-07-16T15:00:55.107Z</time>
      </trkpt>
      <trkpt lat="46.47876" lon="8.26247">
        <ele>1340</ele>
        <time>2020-07-16T15:00:56.107Z</time>
      </trkpt>
      <trkpt lat="46.47877" lon="8.26248">
        <ele>1341</ele>
        <time>2020-07-16T15:00:57.107Z</time>
      </trkpt>
      <trkpt lat="46.47878" lon="8.26249">
        <ele>1341</ele>
        <time>2020-07-16T15:00:58.107Z</time>
      </trkpt>
      <trkpt lat="46.47879" lon="8.26251">
        <ele>1341</ele>
        <time>2020-07-16T15:00:59.108Z</time>
      </trkpt>
      <trkpt lat="46.47879" lon="8.26252">
        <ele>1341</ele>
        <time>2020-07-16T15:01:00.107Z</time>
      </trkpt>
      <trkpt lat="46.47879" lon="8.26252">
        <ele>1341</ele>
        <time>2020-07-16T15:01:01.107Z</time>
      </trkpt>
      <trkpt lat="46.4788" lon="8.26253">
        <ele>1341</ele>
        <time>2020-07-16T15:02:27.130Z</time>
      </trkpt>
      <trkpt lat="46.4788" lon="8.26254">
        <ele>1340</ele>
        <time>2020-07-16T15:02:28.129Z</time>
      </trkpt>
      <trkpt lat="46.47881" lon="8.26255">
        <ele>1340</ele>
        <time>2020-07-16T15:02:42.029Z</time>
      </trkpt>
      <trkpt lat="46.47881" lon="8.26256">
        <ele>1340</ele>
        <time>2020-07-16T15:02:59.780Z</time>
      </trkpt>
      <trkpt lat="46.47882" lon="8.26257">
        <ele>1340</ele>
        <time>2020-07-16T15:03:00.779Z</time>
      </trkpt>
      <trkpt lat="46.47883" lon="8.26258">
        <ele>1340</ele>
        <time>2020-07-16T15:03:01.779Z</time>
      </trkpt>
      <trkpt lat="46.47883" lon="8.26259">
        <ele>1340</ele>
        <time>2020-07-16T15:03:02.780Z</time>
      </trkpt>
      <trkpt lat="46.47884" lon="8.2626">
        <ele>1341</ele>
        <time>2020-07-16T15:03:09.876Z</time>
      </trkpt>
      <trkpt lat="46.47884" lon="8.2626">
        <ele>1341</ele>
        <time>2020-07-16T15:03:10.877Z</time>
      </trkpt>
      <trkpt lat="46.47885" lon="8.26261">
        <ele>1341</ele>
        <time>2020-07-16T15:03:11.876Z</time>
      </trkpt>
      <trkpt lat="46.47886" lon="8.26262">
        <ele>1342</ele>
        <time>2020-07-16T15:03:12.876Z</time>
      </trkpt>
      <trkpt lat="46.47887" lon="8.26263">
        <ele>1342</ele>
        <time>2020-07-16T15:03:15.884Z</time>
      </trkpt>
      <trkpt lat="46.47888" lon="8.26263">
        <ele>1341</ele>
        <time>2020-07-16T15:03:16.884Z</time>
      </trkpt>
      <trkpt lat="46.47889" lon="8.26264">
        <ele>1341</ele>
        <time>2020-07-16T15:03:17.884Z</time>
      </trkpt>
      <trkpt lat="46.47889" lon="8.26265">
        <ele>1341</ele>
        <time>2020-07-16T15:03:18.884Z</time>
      </trkpt>
      <trkpt lat="46.4789" lon="8.26266">
        <ele>1340</ele>
        <time>2020-07-16T15:03:19.885Z</time>
      </trkpt>
      <trkpt lat="46.47891" lon="8.26267">
        <ele>1340</ele>
        <time>2020-07-16T15:03:20.885Z</time>
      </trkpt>
      <trkpt lat="46.47892" lon="8.26268">
        <ele>1339</ele>
        <time>2020-07-16T15:03:21.884Z</time>
      </trkpt>
      <trkpt lat="46.47892" lon="8.26269">
        <ele>1339</ele>
        <time>2020-07-16T15:03:22.885Z</time>
      </trkpt>
      <trkpt lat="46.47893" lon="8.26271">
        <ele>1338</ele>
        <time>2020-07-16T15:03:23.884Z</time>
      </trkpt>
      <trkpt lat="46.47893" lon="8.26272">
        <ele>1338</ele>
        <time>2020-07-16T15:03:24.885Z</time>
      </trkpt>
      <trkpt lat="46.47894" lon="8.26272">
        <ele>1338</ele>
        <time>2020-07-16T15:03:25.884Z</time>
      </trkpt>
      <trkpt lat="46.47895" lon="8.26273">
        <ele>1338</ele>
        <time>2020-07-16T15:03:26.885Z</time>
      </trkpt>
      <trkpt lat="46.47895" lon="8.26275">
        <ele>1338</ele>
        <time>2020-07-16T15:03:27.885Z</time>
      </trkpt>
      <trkpt lat="46.47896" lon="8.26277">
        <ele>1337</ele>
        <time>2020-07-16T15:03:28.884Z</time>
      </trkpt>
      <trkpt lat="46.47896" lon="8.26278">
        <ele>1337</ele>
        <time>2020-07-16T15:03:29.884Z</time>
      </trkpt>
      <trkpt lat="46.47897" lon="8.26279">
        <ele>1337</ele>
        <time>2020-07-16T15:03:30.884Z</time>
      </trkpt>
      <trkpt lat="46.47898" lon="8.26279">
        <ele>1336</ele>
        <time>2020-07-16T15:03:31.884Z</time>
      </trkpt>
      <trkpt lat="46.47899" lon="8.2628">
        <ele>1336</ele>
        <time>2020-07-16T15:03:32.884Z</time>
      </trkpt>
      <trkpt lat="46.479" lon="8.26281">
        <ele>1336</ele>
        <time>2020-07-16T15:03:33.884Z</time>
      </trkpt>
      <trkpt lat="46.47901" lon="8.26282">
        <ele>1336</ele>
        <time>2020-07-16T15:03:34.884Z</time>
      </trkpt>
      <trkpt lat="46.47901" lon="8.26283">
        <ele>1337</ele>
        <time>2020-07-16T15:03:35.884Z</time>
      </trkpt>
      <trkpt lat="46.47901" lon="8.26284">
        <ele>1337</ele>
        <time>2020-07-16T15:03:36.885Z</time>
      </trkpt>
      <trkpt lat="46.47902" lon="8.26285">
        <ele>1337</ele>
        <time>2020-07-16T15:03:37.884Z</time>
      </trkpt>
      <trkpt lat="46.47902" lon="8.26285">
        <ele>1337</ele>
        <time>2020-07-16T15:03:38.884Z</time>
      </trkpt>
      <trkpt lat="46.47903" lon="8.26286">
        <ele>1338</ele>
        <time>2020-07-16T15:03:39.885Z</time>
      </trkpt>
      <trkpt lat="46.47903" lon="8.26287">
        <ele>1338</ele>
        <time>2020-07-16T15:03:40.884Z</time>
      </trkpt>
      <trkpt lat="46.47904" lon="8.26288">
        <ele>1338</ele>
        <time>2020-07-16T15:03:41.884Z</time>
      </trkpt>
      <trkpt lat="46.47905" lon="8.26288">
        <ele>1337</ele>
        <time>2020-07-16T15:03:42.884Z</time>
      </trkpt>
      <trkpt lat="46.47906" lon="8.2629">
        <ele>1337</ele>
        <time>2020-07-16T15:03:43.884Z</time>
      </trkpt>
      <trkpt lat="46.47907" lon="8.26291">
        <ele>1337</ele>
        <time>2020-07-16T15:03:44.884Z</time>
      </trkpt>
      <trkpt lat="46.47907" lon="8.26292">
        <ele>1336</ele>
        <time>2020-07-16T15:03:45.884Z</time>
      </trkpt>
      <trkpt lat="46.47908" lon="8.26294">
        <ele>1336</ele>
        <time>2020-07-16T15:03:46.885Z</time>
      </trkpt>
      <trkpt lat="46.47909" lon="8.26294">
        <ele>1337</ele>
        <time>2020-07-16T15:03:47.884Z</time>
      </trkpt>
      <trkpt lat="46.4791" lon="8.26296">
        <ele>1337</ele>
        <time>2020-07-16T15:03:48.884Z</time>
      </trkpt>
      <trkpt lat="46.47911" lon="8.26297">
        <ele>1337</ele>
        <time>2020-07-16T15:03:49.885Z</time>
      </trkpt>
      <trkpt lat="46.47911" lon="8.26298">
        <ele>1337</ele>
        <time>2020-07-16T15:03:50.884Z</time>
      </trkpt>
      <trkpt lat="46.47911" lon="8.26298">
        <ele>1338</ele>
        <time>2020-07-16T15:03:51.884Z</time>
      </trkpt>
      <trkpt lat="46.47912" lon="8.263">
        <ele>1338</ele>
        <time>2020-07-16T15:03:52.884Z</time>
      </trkpt>
      <trkpt lat="46.47912" lon="8.26301">
        <ele>1338</ele>
        <time>2020-07-16T15:03:53.885Z</time>
      </trkpt>
      <trkpt lat="46.47913" lon="8.26303">
        <ele>1339</ele>
        <time>2020-07-16T15:03:54.884Z</time>
      </trkpt>
      <trkpt lat="46.47914" lon="8.26304">
        <ele>1339</ele>
        <time>2020-07-16T15:03:55.884Z</time>
      </trkpt>
      <trkpt lat="46.47915" lon="8.26305">
        <ele>1338</ele>
        <time>2020-07-16T15:03:56.884Z</time>
      </trkpt>
      <trkpt lat="46.47916" lon="8.26306">
        <ele>1338</ele>
        <time>2020-07-16T15:03:57.884Z</time>
      </trkpt>
      <trkpt lat="46.47917" lon="8.26307">
        <ele>1337</ele>
        <time>2020-07-16T15:03:58.884Z</time>
      </trkpt>
      <trkpt lat="46.47918" lon="8.26308">
        <ele>1337</ele>
        <time>2020-07-16T15:03:59.884Z</time>
      </trkpt>
      <trkpt lat="46.47919" lon="8.2631">
        <ele>1336</ele>
        <time>2020-07-16T15:04:00.884Z</time>
      </trkpt>
      <trkpt lat="46.47919" lon="8.26311">
        <ele>1336</ele>
        <time>2020-07-16T15:04:01.884Z</time>
      </trkpt>
      <trkpt lat="46.4792" lon="8.26312">
        <ele>1335</ele>
        <time>2020-07-16T15:04:02.884Z</time>
      </trkpt>
      <trkpt lat="46.47921" lon="8.26313">
        <ele>1335</ele>
        <time>2020-07-16T15:04:03.885Z</time>
      </trkpt>
      <trkpt lat="46.47921" lon="8.26314">
        <ele>1335</ele>
        <time>2020-07-16T15:04:04.884Z</time>
      </trkpt>
      <trkpt lat="46.47922" lon="8.26316">
        <ele>1335</ele>
        <time>2020-07-16T15:04:05.884Z</time>
      </trkpt>
      <trkpt lat="46.47923" lon="8.26318">
        <ele>1336</ele>
        <time>2020-07-16T15:04:06.885Z</time>
      </trkpt>
      <trkpt lat="46.47923" lon="8.26319">
        <ele>1336</ele>
        <time>2020-07-16T15:04:07.884Z</time>
      </trkpt>
      <trkpt lat="46.47924" lon="8.2632">
        <ele>1336</ele>
        <time>2020-07-16T15:04:08.885Z</time>
      </trkpt>
      <trkpt lat="46.47925" lon="8.26322">
        <ele>1336</ele>
        <time>2020-07-16T15:04:09.885Z</time>
      </trkpt>
      <trkpt lat="46.47926" lon="8.26323">
        <ele>1336</ele>
        <time>2020-07-16T15:04:10.884Z</time>
      </trkpt>
      <trkpt lat="46.47926" lon="8.26324">
        <ele>1336</ele>
        <time>2020-07-16T15:04:11.884Z</time>
      </trkpt>
      <trkpt lat="46.47927" lon="8.26325">
        <ele>1335</ele>
        <time>2020-07-16T15:04:12.884Z</time>
      </trkpt>
      <trkpt lat="46.47928" lon="8.26326">
        <ele>1335</ele>
        <time>2020-07-16T15:04:13.884Z</time>
      </trkpt>
      <trkpt lat="46.47928" lon="8.26327">
        <ele>1335</ele>
        <time>2020-07-16T15:04:14.884Z</time>
      </trkpt>
      <trkpt lat="46.47929" lon="8.26328">
        <ele>1335</ele>
        <time>2020-07-16T15:04:15.884Z</time>
      </trkpt>
      <trkpt lat="46.4793" lon="8.26329">
        <ele>1335</ele>
        <time>2020-07-16T15:04:16.884Z</time>
      </trkpt>
      <trkpt lat="46.47931" lon="8.26331">
        <ele>1335</ele>
        <time>2020-07-16T15:04:17.884Z</time>
      </trkpt>
      <trkpt lat="46.47931" lon="8.26332">
        <ele>1336</ele>
        <time>2020-07-16T15:04:18.884Z</time>
      </trkpt>
      <trkpt lat="46.47932" lon="8.26333">
        <ele>1336</ele>
        <time>2020-07-16T15:04:19.884Z</time>
      </trkpt>
      <trkpt lat="46.47933" lon="8.26334">
        <ele>1336</ele>
        <time>2020-07-16T15:04:20.884Z</time>
      </trkpt>
      <trkpt lat="46.47935" lon="8.26335">
        <ele>1336</ele>
        <time>2020-07-16T15:04:21.884Z</time>
      </trkpt>
      <trkpt lat="46.47935" lon="8.26336">
        <ele>1337</ele>
        <time>2020-07-16T15:04:22.884Z</time>
      </trkpt>
      <trkpt lat="46.47935" lon="8.26337">
        <ele>1337</ele>
        <time>2020-07-16T15:04:23.885Z</time>
      </trkpt>
      <trkpt lat="46.47936" lon="8.26337">
        <ele>1338</ele>
        <time>2020-07-16T15:04:24.885Z</time>
      </trkpt>
      <trkpt lat="46.47937" lon="8.26338">
        <ele>1338</ele>
        <time>2020-07-16T15:04:25.885Z</time>
      </trkpt>
      <trkpt lat="46.47937" lon="8.26339">
        <ele>1338</ele>
        <time>2020-07-16T15:04:26.885Z</time>
      </trkpt>
      <trkpt lat="46.47939" lon="8.2634">
        <ele>1338</ele>
        <time>2020-07-16T15:04:29.882Z</time>
      </trkpt>
      <trkpt lat="46.47939" lon="8.26342">
        <ele>1338</ele>
        <time>2020-07-16T15:04:30.882Z</time>
      </trkpt>
      <trkpt lat="46.4794" lon="8.26344">
        <ele>1337</ele>
        <time>2020-07-16T15:04:31.881Z</time>
      </trkpt>
      <trkpt lat="46.47941" lon="8.26345">
        <ele>1337</ele>
        <time>2020-07-16T15:04:32.881Z</time>
      </trkpt>
      <trkpt lat="46.47942" lon="8.26347">
        <ele>1336</ele>
        <time>2020-07-16T15:04:33.882Z</time>
      </trkpt>
      <trkpt lat="46.47943" lon="8.26349">
        <ele>1336</ele>
        <time>2020-07-16T15:04:34.882Z</time>
      </trkpt>
      <trkpt lat="46.47944" lon="8.2635">
        <ele>1336</ele>
        <time>2020-07-16T15:04:35.881Z</time>
      </trkpt>
      <trkpt lat="46.47944" lon="8.26351">
        <ele>1335</ele>
        <time>2020-07-16T15:04:36.882Z</time>
      </trkpt>
      <trkpt lat="46.47945" lon="8.26352">
        <ele>1335</ele>
        <time>2020-07-16T15:04:37.881Z</time>
      </trkpt>
      <trkpt lat="46.47945" lon="8.26353">
        <ele>1335</ele>
        <time>2020-07-16T15:04:38.881Z</time>
      </trkpt>
      <trkpt lat="46.47946" lon="8.26353">
        <ele>1336</ele>
        <time>2020-07-16T15:04:39.881Z</time>
      </trkpt>
      <trkpt lat="46.47946" lon="8.26353">
        <ele>1336</ele>
        <time>2020-07-16T15:04:40.882Z</time>
      </trkpt>
      <trkpt lat="46.47947" lon="8.26354">
        <ele>1337</ele>
        <time>2020-07-16T15:04:41.881Z</time>
      </trkpt>
      <trkpt lat="46.47947" lon="8.26354">
        <ele>1337</ele>
        <time>2020-07-16T15:04:42.882Z</time>
      </trkpt>
      <trkpt lat="46.47948" lon="8.26354">
        <ele>1338</ele>
        <time>2020-07-16T15:04:43.881Z</time>
      </trkpt>
      <trkpt lat="46.47948" lon="8.26354">
        <ele>1338</ele>
        <time>2020-07-16T15:04:44.881Z</time>
      </trkpt>
      <trkpt lat="46.47948" lon="8.26355">
        <ele>1337</ele>
        <time>2020-07-16T15:04:45.883Z</time>
      </trkpt>
      <trkpt lat="46.47948" lon="8.26357">
        <ele>1337</ele>
        <time>2020-07-16T15:04:46.883Z</time>
      </trkpt>
      <trkpt lat="46.47948" lon="8.26357">
        <ele>1337</ele>
        <time>2020-07-16T15:04:47.884Z</time>
      </trkpt>
      <trkpt lat="46.47948" lon="8.26358">
        <ele>1336</ele>
        <time>2020-07-16T15:04:48.884Z</time>
      </trkpt>
      <trkpt lat="46.47949" lon="8.26359">
        <ele>1336</ele>
        <time>2020-07-16T15:04:49.883Z</time>
      </trkpt>
      <trkpt lat="46.4795" lon="8.2636">
        <ele>1336</ele>
        <time>2020-07-16T15:04:50.884Z</time>
      </trkpt>
      <trkpt lat="46.47952" lon="8.26362">
        <ele>1335</ele>
        <time>2020-07-16T15:04:58.904Z</time>
      </trkpt>
      <trkpt lat="46.47953" lon="8.26362">
        <ele>1335</ele>
        <time>2020-07-16T15:04:59.904Z</time>
      </trkpt>
      <trkpt lat="46.47954" lon="8.26362">
        <ele>1334</ele>
        <time>2020-07-16T15:05:16.781Z</time>
      </trkpt>
      <trkpt lat="46.47954" lon="8.2636">
        <ele>1334</ele>
        <time>2020-07-16T15:05:17.781Z</time>
      </trkpt>
      <trkpt lat="46.47954" lon="8.2636">
        <ele>1334</ele>
        <time>2020-07-16T15:05:18.780Z</time>
      </trkpt>
      <trkpt lat="46.47954" lon="8.26356">
        <ele>1335</ele>
        <time>2020-07-16T15:05:19.780Z</time>
      </trkpt>
      <trkpt lat="46.47954" lon="8.26356">
        <ele>1335</ele>
        <time>2020-07-16T15:05:20.781Z</time>
      </trkpt>
      <trkpt lat="46.47953" lon="8.26356">
        <ele>1334</ele>
        <time>2020-07-16T15:05:21.780Z</time>
      </trkpt>
      <trkpt lat="46.47952" lon="8.26354">
        <ele>1334</ele>
        <time>2020-07-16T15:05:22.781Z</time>
      </trkpt>
      <trkpt lat="46.47952" lon="8.26355">
        <ele>1335</ele>
        <time>2020-07-16T15:05:23.781Z</time>
      </trkpt>
      <trkpt lat="46.47952" lon="8.26356">
        <ele>1335</ele>
        <time>2020-07-16T15:05:24.780Z</time>
      </trkpt>
      <trkpt lat="46.47952" lon="8.26357">
        <ele>1336</ele>
        <time>2020-07-16T15:05:25.781Z</time>
      </trkpt>
      <trkpt lat="46.47953" lon="8.26357">
        <ele>1335</ele>
        <time>2020-07-16T15:05:26.780Z</time>
      </trkpt>
      <trkpt lat="46.47953" lon="8.26358">
        <ele>1335</ele>
        <time>2020-07-16T15:05:27.781Z</time>
      </trkpt>
      <trkpt lat="46.47953" lon="8.26358">
        <ele>1334</ele>
        <time>2020-07-16T15:05:28.781Z</time>
      </trkpt>
      <trkpt lat="46.47953" lon="8.26359">
        <ele>1334</ele>
        <time>2020-07-16T15:05:29.781Z</time>
      </trkpt>
      <trkpt lat="46.47953" lon="8.26359">
        <ele>1334</ele>
        <time>2020-07-16T15:05:30.781Z</time>
      </trkpt>
      <trkpt lat="46.47952" lon="8.2636">
        <ele>1333</ele>
        <time>2020-07-16T15:05:31.781Z</time>
      </trkpt>
      <trkpt lat="46.47952" lon="8.26361">
        <ele>1333</ele>
        <time>2020-07-16T15:05:32.781Z</time>
      </trkpt>
      <trkpt lat="46.47951" lon="8.26362">
        <ele>1333</ele>
        <time>2020-07-16T15:05:33.781Z</time>
      </trkpt>
      <trkpt lat="46.47951" lon="8.26363">
        <ele>1333</ele>
        <time>2020-07-16T15:05:34.780Z</time>
      </trkpt>
      <trkpt lat="46.47951" lon="8.26364">
        <ele>1333</ele>
        <time>2020-07-16T15:05:35.780Z</time>
      </trkpt>
      <trkpt lat="46.4795" lon="8.26364">
        <ele>1334</ele>
        <time>2020-07-16T15:05:44.744Z</time>
      </trkpt>
      <trkpt lat="46.4795" lon="8.26365">
        <ele>1334</ele>
        <time>2020-07-16T15:05:45.745Z</time>
      </trkpt>
      <trkpt lat="46.4795" lon="8.26365">
        <ele>1334</ele>
        <time>2020-07-16T15:05:46.744Z</time>
      </trkpt>
      <trkpt lat="46.47949" lon="8.26366">
        <ele>1334</ele>
        <time>2020-07-16T15:05:49.721Z</time>
      </trkpt>
      <trkpt lat="46.47948" lon="8.26365">
        <ele>1335</ele>
        <time>2020-07-16T15:05:50.721Z</time>
      </trkpt>
      <trkpt lat="46.47948" lon="8.26365">
        <ele>1334</ele>
        <time>2020-07-16T15:05:51.721Z</time>
      </trkpt>
      <trkpt lat="46.47947" lon="8.26366">
        <ele>1334</ele>
        <time>2020-07-16T15:05:52.720Z</time>
      </trkpt>
      <trkpt lat="46.47946" lon="8.26365">
        <ele>1335</ele>
        <time>2020-07-16T15:05:53.720Z</time>
      </trkpt>
      <trkpt lat="46.47946" lon="8.26365">
        <ele>1335</ele>
        <time>2020-07-16T15:05:54.721Z</time>
      </trkpt>
      <trkpt lat="46.47946" lon="8.26364">
        <ele>1335</ele>
        <time>2020-07-16T15:05:55.721Z</time>
      </trkpt>
      <trkpt lat="46.47947" lon="8.26366">
        <ele>1331</ele>
        <time>2020-07-16T15:05:56.722Z</time>
      </trkpt>
      <trkpt lat="46.47947" lon="8.26366">
        <ele>1331</ele>
        <time>2020-07-16T15:05:57.722Z</time>
      </trkpt>
      <trkpt lat="46.47946" lon="8.26366">
        <ele>1332</ele>
        <time>2020-07-16T15:05:58.721Z</time>
      </trkpt>
      <trkpt lat="46.47947" lon="8.26367">
        <ele>1332</ele>
        <time>2020-07-16T15:05:59.722Z</time>
      </trkpt>
      <trkpt lat="46.47948" lon="8.26368">
        <ele>1331</ele>
        <time>2020-07-16T15:06:00.722Z</time>
      </trkpt>
      <trkpt lat="46.47948" lon="8.26367">
        <ele>1331</ele>
        <time>2020-07-16T15:06:01.722Z</time>
      </trkpt>
      <trkpt lat="46.47947" lon="8.26367">
        <ele>1331</ele>
        <time>2020-07-16T15:06:07.789Z</time>
      </trkpt>
      <trkpt lat="46.47947" lon="8.26368">
        <ele>1331</ele>
        <time>2020-07-16T15:06:08.788Z</time>
      </trkpt>
      <trkpt lat="46.47947" lon="8.26368">
        <ele>1330</ele>
        <time>2020-07-16T15:06:09.789Z</time>
      </trkpt>
      <trkpt lat="46.47946" lon="8.26367">
        <ele>1330</ele>
        <time>2020-07-16T15:06:10.789Z</time>
      </trkpt>
      <trkpt lat="46.47946" lon="8.26366">
        <ele>1328</ele>
        <time>2020-07-16T15:06:11.790Z</time>
      </trkpt>
      <trkpt lat="46.47945" lon="8.26365">
        <ele>1328</ele>
        <time>2020-07-16T15:06:12.790Z</time>
      </trkpt>
      <trkpt lat="46.47945" lon="8.26365">
        <ele>1328</ele>
        <time>2020-07-16T15:06:13.789Z</time>
      </trkpt>
      <trkpt lat="46.47944" lon="8.26365">
        <ele>1328</ele>
        <time>2020-07-16T15:06:14.789Z</time>
      </trkpt>
      <trkpt lat="46.47944" lon="8.26365">
        <ele>1328</ele>
        <time>2020-07-16T15:06:15.790Z</time>
      </trkpt>
      <trkpt lat="46.47944" lon="8.26365">
        <ele>1328</ele>
        <time>2020-07-16T15:06:16.790Z</time>
      </trkpt>
      <trkpt lat="46.47944" lon="8.26365">
        <ele>1328</ele>
        <time>2020-07-16T15:06:17.789Z</time>
      </trkpt>
      <trkpt lat="46.47945" lon="8.26365">
        <ele>1329</ele>
        <time>2020-07-16T15:06:18.789Z</time>
      </trkpt>
      <trkpt lat="46.47944" lon="8.26366">
        <ele>1330</ele>
        <time>2020-07-16T15:06:19.791Z</time>
      </trkpt>
      <trkpt lat="46.47944" lon="8.26366">
        <ele>1331</ele>
        <time>2020-07-16T15:06:20.791Z</time>
      </trkpt>
      <trkpt lat="46.47944" lon="8.26366">
        <ele>1332</ele>
        <time>2020-07-16T15:06:21.791Z</time>
      </trkpt>
      <trkpt lat="46.47944" lon="8.26366">
        <ele>1332</ele>
        <time>2020-07-16T15:06:22.790Z</time>
      </trkpt>
      <trkpt lat="46.47943" lon="8.26368">
        <ele>1337</ele>
        <time>2020-07-16T15:06:23.791Z</time>
      </trkpt>
      <trkpt lat="46.47943" lon="8.26369">
        <ele>1337</ele>
        <time>2020-07-16T15:06:24.790Z</time>
      </trkpt>
      <trkpt lat="46.47943" lon="8.26369">
        <ele>1337</ele>
        <time>2020-07-16T15:06:25.791Z</time>
      </trkpt>
      <trkpt lat="46.47943" lon="8.26369">
        <ele>1338</ele>
        <time>2020-07-16T15:06:26.791Z</time>
      </trkpt>
      <trkpt lat="46.47943" lon="8.2637">
        <ele>1338</ele>
        <time>2020-07-16T15:06:27.793Z</time>
      </trkpt>
      <trkpt lat="46.47943" lon="8.2637">
        <ele>1338</ele>
        <time>2020-07-16T15:06:28.793Z</time>
      </trkpt>
      <trkpt lat="46.47943" lon="8.26369">
        <ele>1339</ele>
        <time>2020-07-16T15:06:29.793Z</time>
      </trkpt>
      <trkpt lat="46.47943" lon="8.26368">
        <ele>1339</ele>
        <time>2020-07-16T15:06:30.793Z</time>
      </trkpt>
      <trkpt lat="46.47943" lon="8.26368">
        <ele>1339</ele>
        <time>2020-07-16T15:06:31.793Z</time>
      </trkpt>
      <trkpt lat="46.47943" lon="8.26367">
        <ele>1340</ele>
        <time>2020-07-16T15:06:32.793Z</time>
      </trkpt>
      <trkpt lat="46.47944" lon="8.26365">
        <ele>1340</ele>
        <time>2020-07-16T15:06:33.793Z</time>
      </trkpt>
      <trkpt lat="46.47944" lon="8.26365">
        <ele>1340</ele>
        <time>2020-07-16T15:06:34.793Z</time>
      </trkpt>
      <trkpt lat="46.47944" lon="8.26364">
        <ele>1340</ele>
        <time>2020-07-16T15:06:35.793Z</time>
      </trkpt>
      <trkpt lat="46.47944" lon="8.26364">
        <ele>1341</ele>
        <time>2020-07-16T15:06:36.793Z</time>
      </trkpt>
      <trkpt lat="46.47944" lon="8.26364">
        <ele>1341</ele>
        <time>2020-07-16T15:06:37.794Z</time>
      </trkpt>
      <trkpt lat="46.47944" lon="8.26365">
        <ele>1341</ele>
        <time>2020-07-16T15:06:38.793Z</time>
      </trkpt>
      <trkpt lat="46.47944" lon="8.26365">
        <ele>1341</ele>
        <time>2020-07-16T15:06:39.793Z</time>
      </trkpt>
      <trkpt lat="46.47944" lon="8.26365">
        <ele>1342</ele>
        <time>2020-07-16T15:06:40.793Z</time>
      </trkpt>
      <trkpt lat="46.47938" lon="8.26357">
        <ele>1352</ele>
        <time>2020-07-16T15:06:41.794Z</time>
      </trkpt>
      <trkpt lat="46.47938" lon="8.26356">
        <ele>1353</ele>
        <time>2020-07-16T15:06:42.793Z</time>
      </trkpt>
      <trkpt lat="46.47942" lon="8.26357">
        <ele>1351</ele>
        <time>2020-07-16T15:06:43.793Z</time>
      </trkpt>
      <trkpt lat="46.47942" lon="8.26357">
        <ele>1350</ele>
        <time>2020-07-16T15:06:44.793Z</time>
      </trkpt>
      <trkpt lat="46.47944" lon="8.26362">
        <ele>1344</ele>
        <time>2020-07-16T15:06:45.794Z</time>
      </trkpt>
      <trkpt lat="46.47943" lon="8.26362">
        <ele>1344</ele>
        <time>2020-07-16T15:06:46.793Z</time>
      </trkpt>
      <trkpt lat="46.47942" lon="8.26363">
        <ele>1345</ele>
        <time>2020-07-16T15:06:47.793Z</time>
      </trkpt>
      <trkpt lat="46.47942" lon="8.26363">
        <ele>1345</ele>
        <time>2020-07-16T15:06:48.794Z</time>
      </trkpt>
      <trkpt lat="46.47941" lon="8.26364">
        <ele>1345</ele>
        <time>2020-07-16T15:06:49.794Z</time>
      </trkpt>
      <trkpt lat="46.47941" lon="8.26364">
        <ele>1345</ele>
        <time>2020-07-16T15:06:50.794Z</time>
      </trkpt>
      <trkpt lat="46.4794" lon="8.26364">
        <ele>1345</ele>
        <time>2020-07-16T15:06:51.794Z</time>
      </trkpt>
      <trkpt lat="46.4794" lon="8.26364">
        <ele>1346</ele>
        <time>2020-07-16T15:06:52.793Z</time>
      </trkpt>
      <trkpt lat="46.47943" lon="8.26366">
        <ele>1341</ele>
        <time>2020-07-16T15:06:53.795Z</time>
      </trkpt>
      <trkpt lat="46.47944" lon="8.26366">
        <ele>1340</ele>
        <time>2020-07-16T15:06:54.794Z</time>
      </trkpt>
      <trkpt lat="46.47944" lon="8.26367">
        <ele>1340</ele>
        <time>2020-07-16T15:06:55.794Z</time>
      </trkpt>
      <trkpt lat="46.47942" lon="8.26372">
        <ele>1342</ele>
        <time>2020-07-16T15:06:56.796Z</time>
      </trkpt>
      <trkpt lat="46.47938" lon="8.26371">
        <ele>1349</ele>
        <time>2020-07-16T15:06:57.796Z</time>
      </trkpt>
      <trkpt lat="46.47937" lon="8.26371">
        <ele>1350</ele>
        <time>2020-07-16T15:06:58.795Z</time>
      </trkpt>
      <trkpt lat="46.47936" lon="8.26369">
        <ele>1350</ele>
        <time>2020-07-16T15:06:59.796Z</time>
      </trkpt>
      <trkpt lat="46.47936" lon="8.26368">
        <ele>1351</ele>
        <time>2020-07-16T15:07:00.796Z</time>
      </trkpt>
      <trkpt lat="46.47937" lon="8.26367">
        <ele>1352</ele>
        <time>2020-07-16T15:07:01.795Z</time>
      </trkpt>
      <trkpt lat="46.47937" lon="8.26367">
        <ele>1352</ele>
        <time>2020-07-16T15:07:02.796Z</time>
      </trkpt>
      <trkpt lat="46.47936" lon="8.26367">
        <ele>1353</ele>
        <time>2020-07-16T15:07:03.795Z</time>
      </trkpt>
      <trkpt lat="46.47935" lon="8.26367">
        <ele>1354</ele>
        <time>2020-07-16T15:07:04.795Z</time>
      </trkpt>
      <trkpt lat="46.47934" lon="8.26367">
        <ele>1354</ele>
        <time>2020-07-16T15:07:05.796Z</time>
      </trkpt>
      <trkpt lat="46.47933" lon="8.26366">
        <ele>1355</ele>
        <time>2020-07-16T15:07:06.795Z</time>
      </trkpt>
      <trkpt lat="46.47933" lon="8.26366">
        <ele>1356</ele>
        <time>2020-07-16T15:07:07.796Z</time>
      </trkpt>
      <trkpt lat="46.47932" lon="8.26366">
        <ele>1357</ele>
        <time>2020-07-16T15:07:08.796Z</time>
      </trkpt>
      <trkpt lat="46.47931" lon="8.26366">
        <ele>1358</ele>
        <time>2020-07-16T15:07:09.796Z</time>
      </trkpt>
      <trkpt lat="46.47931" lon="8.26365">
        <ele>1359</ele>
        <time>2020-07-16T15:07:10.796Z</time>
      </trkpt>
      <trkpt lat="46.4793" lon="8.26365">
        <ele>1360</ele>
        <time>2020-07-16T15:07:11.796Z</time>
      </trkpt>
      <trkpt lat="46.47934" lon="8.26363">
        <ele>1359</ele>
        <time>2020-07-16T15:07:12.795Z</time>
      </trkpt>
      <trkpt lat="46.47934" lon="8.26363">
        <ele>1359</ele>
        <time>2020-07-16T15:07:13.796Z</time>
      </trkpt>
      <trkpt lat="46.47934" lon="8.26363">
        <ele>1358</ele>
        <time>2020-07-16T15:07:14.795Z</time>
      </trkpt>
      <trkpt lat="46.47935" lon="8.26355">
        <ele>1360</ele>
        <time>2020-07-16T15:07:15.796Z</time>
      </trkpt>
      <trkpt lat="46.47934" lon="8.26355">
        <ele>1361</ele>
        <time>2020-07-16T15:07:16.796Z</time>
      </trkpt>
      <trkpt lat="46.47931" lon="8.26355">
        <ele>1370</ele>
        <time>2020-07-16T15:07:17.795Z</time>
      </trkpt>
      <trkpt lat="46.47935" lon="8.26358">
        <ele>1354</ele>
        <time>2020-07-16T15:07:18.796Z</time>
      </trkpt>
      <trkpt lat="46.47936" lon="8.26358">
        <ele>1352</ele>
        <time>2020-07-16T15:07:19.796Z</time>
      </trkpt>
      <trkpt lat="46.47936" lon="8.26358">
        <ele>1351</ele>
        <time>2020-07-16T15:07:20.796Z</time>
      </trkpt>
      <trkpt lat="46.47936" lon="8.26358">
        <ele>1350</ele>
        <time>2020-07-16T15:07:21.796Z</time>
      </trkpt>
      <trkpt lat="46.47936" lon="8.26358">
        <ele>1350</ele>
        <time>2020-07-16T15:07:22.796Z</time>
      </trkpt>
      <trkpt lat="46.47941" lon="8.26358">
        <ele>1350</ele>
        <time>2020-07-16T15:07:23.796Z</time>
      </trkpt>
      <trkpt lat="46.47941" lon="8.26358">
        <ele>1351</ele>
        <time>2020-07-16T15:07:24.796Z</time>
      </trkpt>
      <trkpt lat="46.47937" lon="8.2636">
        <ele>1358</ele>
        <time>2020-07-16T15:07:25.797Z</time>
      </trkpt>
      <trkpt lat="46.47936" lon="8.26359">
        <ele>1359</ele>
        <time>2020-07-16T15:07:26.796Z</time>
      </trkpt>
      <trkpt lat="46.47936" lon="8.26359">
        <ele>1360</ele>
        <time>2020-07-16T15:07:27.797Z</time>
      </trkpt>
      <trkpt lat="46.47935" lon="8.26359">
        <ele>1361</ele>
        <time>2020-07-16T15:07:28.797Z</time>
      </trkpt>
      <trkpt lat="46.47935" lon="8.2636">
        <ele>1362</ele>
        <time>2020-07-16T15:07:29.796Z</time>
      </trkpt>
      <trkpt lat="46.47934" lon="8.2636">
        <ele>1363</ele>
        <time>2020-07-16T15:07:30.797Z</time>
      </trkpt>
      <trkpt lat="46.47934" lon="8.2636">
        <ele>1363</ele>
        <time>2020-07-16T15:07:31.797Z</time>
      </trkpt>
      <trkpt lat="46.47934" lon="8.2636">
        <ele>1364</ele>
        <time>2020-07-16T15:07:32.796Z</time>
      </trkpt>
      <trkpt lat="46.47931" lon="8.26357">
        <ele>1373</ele>
        <time>2020-07-16T15:07:33.796Z</time>
      </trkpt>
      <trkpt lat="46.47931" lon="8.26357">
        <ele>1372</ele>
        <time>2020-07-16T15:07:34.797Z</time>
      </trkpt>
      <trkpt lat="46.47932" lon="8.26358">
        <ele>1371</ele>
        <time>2020-07-16T15:07:35.797Z</time>
      </trkpt>
      <trkpt lat="46.47933" lon="8.26358">
        <ele>1370</ele>
        <time>2020-07-16T15:07:36.797Z</time>
      </trkpt>
      <trkpt lat="46.47933" lon="8.26358">
        <ele>1368</ele>
        <time>2020-07-16T15:07:37.796Z</time>
      </trkpt>
      <trkpt lat="46.47933" lon="8.26358">
        <ele>1367</ele>
        <time>2020-07-16T15:07:38.797Z</time>
      </trkpt>
      <trkpt lat="46.47934" lon="8.26359">
        <ele>1366</ele>
        <time>2020-07-16T15:07:39.796Z</time>
      </trkpt>
      <trkpt lat="46.47934" lon="8.26359">
        <ele>1365</ele>
        <time>2020-07-16T15:07:40.797Z</time>
      </trkpt>
      <trkpt lat="46.47934" lon="8.26359">
        <ele>1364</ele>
        <time>2020-07-16T15:07:41.797Z</time>
      </trkpt>
      <trkpt lat="46.47935" lon="8.2636">
        <ele>1360</ele>
        <time>2020-07-16T15:07:42.797Z</time>
      </trkpt>
      <trkpt lat="46.47936" lon="8.26361">
        <ele>1358</ele>
        <time>2020-07-16T15:07:43.796Z</time>
      </trkpt>
      <trkpt lat="46.47937" lon="8.26361">
        <ele>1356</ele>
        <time>2020-07-16T15:07:44.797Z</time>
      </trkpt>
      <trkpt lat="46.47938" lon="8.26362">
        <ele>1355</ele>
        <time>2020-07-16T15:07:45.797Z</time>
      </trkpt>
      <trkpt lat="46.47938" lon="8.26362">
        <ele>1353</ele>
        <time>2020-07-16T15:07:46.796Z</time>
      </trkpt>
      <trkpt lat="46.47939" lon="8.2636">
        <ele>1347</ele>
        <time>2020-07-16T15:07:47.799Z</time>
      </trkpt>
      <trkpt lat="46.47939" lon="8.2636">
        <ele>1347</ele>
        <time>2020-07-16T15:07:48.799Z</time>
      </trkpt>
      <trkpt lat="46.47939" lon="8.2636">
        <ele>1347</ele>
        <time>2020-07-16T15:07:49.799Z</time>
      </trkpt>
      <trkpt lat="46.47939" lon="8.2636">
        <ele>1348</ele>
        <time>2020-07-16T15:07:50.799Z</time>
      </trkpt>
      <trkpt lat="46.47934" lon="8.26359">
        <ele>1358</ele>
        <time>2020-07-16T15:07:51.800Z</time>
      </trkpt>
      <trkpt lat="46.47933" lon="8.26359">
        <ele>1359</ele>
        <time>2020-07-16T15:07:52.800Z</time>
      </trkpt>
      <trkpt lat="46.47933" lon="8.26358">
        <ele>1360</ele>
        <time>2020-07-16T15:07:53.800Z</time>
      </trkpt>
      <trkpt lat="46.47933" lon="8.26358">
        <ele>1361</ele>
        <time>2020-07-16T15:07:54.800Z</time>
      </trkpt>
      <trkpt lat="46.47935" lon="8.26367">
        <ele>1374</ele>
        <time>2020-07-16T15:07:55.801Z</time>
      </trkpt>
      <trkpt lat="46.47936" lon="8.26366">
        <ele>1374</ele>
        <time>2020-07-16T15:07:56.801Z</time>
      </trkpt>
      <trkpt lat="46.47936" lon="8.26367">
        <ele>1374</ele>
        <time>2020-07-16T15:07:57.800Z</time>
      </trkpt>
      <trkpt lat="46.47937" lon="8.26367">
        <ele>1374</ele>
        <time>2020-07-16T15:07:58.800Z</time>
      </trkpt>
      <trkpt lat="46.47938" lon="8.26367">
        <ele>1373</ele>
        <time>2020-07-16T15:07:59.801Z</time>
      </trkpt>
      <trkpt lat="46.47938" lon="8.26367">
        <ele>1373</ele>
        <time>2020-07-16T15:08:00.801Z</time>
      </trkpt>
      <trkpt lat="46.47943" lon="8.26368">
        <ele>1340</ele>
        <time>2020-07-16T15:08:01.802Z</time>
      </trkpt>
      <trkpt lat="46.47943" lon="8.26368">
        <ele>1339</ele>
        <time>2020-07-16T15:08:02.802Z</time>
      </trkpt>
      <trkpt lat="46.47946" lon="8.26363">
        <ele>1347</ele>
        <time>2020-07-16T15:08:03.802Z</time>
      </trkpt>
      <trkpt lat="46.47949" lon="8.26364">
        <ele>1331</ele>
        <time>2020-07-16T15:08:04.802Z</time>
      </trkpt>
      <trkpt lat="46.4795" lon="8.26364">
        <ele>1330</ele>
        <time>2020-07-16T15:08:05.802Z</time>
      </trkpt>
      <trkpt lat="46.4795" lon="8.26364">
        <ele>1330</ele>
        <time>2020-07-16T15:08:06.801Z</time>
      </trkpt>
      <trkpt lat="46.47948" lon="8.26367">
        <ele>1329</ele>
        <time>2020-07-16T15:08:07.803Z</time>
      </trkpt>
      <trkpt lat="46.47949" lon="8.26368">
        <ele>1328</ele>
        <time>2020-07-16T15:08:08.802Z</time>
      </trkpt>
      <trkpt lat="46.47946" lon="8.2637">
        <ele>1330</ele>
        <time>2020-07-16T15:08:09.803Z</time>
      </trkpt>
      <trkpt lat="46.47946" lon="8.26369">
        <ele>1330</ele>
        <time>2020-07-16T15:08:10.802Z</time>
      </trkpt>
      <trkpt lat="46.47945" lon="8.26368">
        <ele>1332</ele>
        <time>2020-07-16T15:08:11.803Z</time>
      </trkpt>
      <trkpt lat="46.47943" lon="8.26368">
        <ele>1332</ele>
        <time>2020-07-16T15:08:12.803Z</time>
      </trkpt>
      <trkpt lat="46.47943" lon="8.26368">
        <ele>1331</ele>
        <time>2020-07-16T15:08:13.803Z</time>
      </trkpt>
      <trkpt lat="46.47942" lon="8.26368">
        <ele>1338</ele>
        <time>2020-07-16T15:08:14.802Z</time>
      </trkpt>
      <trkpt lat="46.47942" lon="8.26369">
        <ele>1337</ele>
        <time>2020-07-16T15:08:15.803Z</time>
      </trkpt>
      <trkpt lat="46.47941" lon="8.26369">
        <ele>1337</ele>
        <time>2020-07-16T15:08:16.802Z</time>
      </trkpt>
      <trkpt lat="46.4794" lon="8.26369">
        <ele>1337</ele>
        <time>2020-07-16T15:08:17.802Z</time>
      </trkpt>
      <trkpt lat="46.4794" lon="8.26368">
        <ele>1337</ele>
        <time>2020-07-16T15:08:18.803Z</time>
      </trkpt>
      <trkpt lat="46.47941" lon="8.26367">
        <ele>1337</ele>
        <time>2020-07-16T15:08:19.803Z</time>
      </trkpt>
      <trkpt lat="46.47941" lon="8.26367">
        <ele>1338</ele>
        <time>2020-07-16T15:08:20.802Z</time>
      </trkpt>
      <trkpt lat="46.47939" lon="8.26363">
        <ele>1343</ele>
        <time>2020-07-16T15:08:21.803Z</time>
      </trkpt>
      <trkpt lat="46.47939" lon="8.26362">
        <ele>1343</ele>
        <time>2020-07-16T15:08:22.803Z</time>
      </trkpt>
      <trkpt lat="46.47942" lon="8.26359">
        <ele>1339</ele>
        <time>2020-07-16T15:08:23.803Z</time>
      </trkpt>
      <trkpt lat="46.47944" lon="8.26365">
        <ele>1331</ele>
        <time>2020-07-16T15:08:24.803Z</time>
      </trkpt>
      <trkpt lat="46.47945" lon="8.2637">
        <ele>1348</ele>
        <time>2020-07-16T15:08:25.803Z</time>
      </trkpt>
      <trkpt lat="46.47944" lon="8.2637">
        <ele>1348</ele>
        <time>2020-07-16T15:08:26.803Z</time>
      </trkpt>
      <trkpt lat="46.47944" lon="8.2637">
        <ele>1349</ele>
        <time>2020-07-16T15:08:27.803Z</time>
      </trkpt>
      <trkpt lat="46.47943" lon="8.26369">
        <ele>1349</ele>
        <time>2020-07-16T15:08:28.802Z</time>
      </trkpt>
      <trkpt lat="46.47943" lon="8.26369">
        <ele>1350</ele>
        <time>2020-07-16T15:08:29.803Z</time>
      </trkpt>
      <trkpt lat="46.47943" lon="8.26369">
        <ele>1351</ele>
        <time>2020-07-16T15:08:30.803Z</time>
      </trkpt>
      <trkpt lat="46.47943" lon="8.26369">
        <ele>1351</ele>
        <time>2020-07-16T15:08:31.802Z</time>
      </trkpt>
      <trkpt lat="46.47943" lon="8.26368">
        <ele>1350</ele>
        <time>2020-07-16T15:08:32.802Z</time>
      </trkpt>
      <trkpt lat="46.47942" lon="8.26368">
        <ele>1350</ele>
        <time>2020-07-16T15:08:33.803Z</time>
      </trkpt>
      <trkpt lat="46.47942" lon="8.26368">
        <ele>1350</ele>
        <time>2020-07-16T15:08:34.803Z</time>
      </trkpt>
      <trkpt lat="46.47942" lon="8.26368">
        <ele>1349</ele>
        <time>2020-07-16T15:08:35.803Z</time>
      </trkpt>
      <trkpt lat="46.47942" lon="8.26368">
        <ele>1349</ele>
        <time>2020-07-16T15:08:36.803Z</time>
      </trkpt>
      <trkpt lat="46.47942" lon="8.26367">
        <ele>1349</ele>
        <time>2020-07-16T15:08:37.803Z</time>
      </trkpt>
      <trkpt lat="46.47941" lon="8.26366">
        <ele>1348</ele>
        <time>2020-07-16T15:08:38.803Z</time>
      </trkpt>
      <trkpt lat="46.47941" lon="8.26366">
        <ele>1347</ele>
        <time>2020-07-16T15:08:39.802Z</time>
      </trkpt>
      <trkpt lat="46.47941" lon="8.26365">
        <ele>1346</ele>
        <time>2020-07-16T15:08:40.803Z</time>
      </trkpt>
      <trkpt lat="46.47941" lon="8.26365">
        <ele>1344</ele>
        <time>2020-07-16T15:08:41.802Z</time>
      </trkpt>
      <trkpt lat="46.47942" lon="8.2636">
        <ele>1335</ele>
        <time>2020-07-16T15:08:46.901Z</time>
      </trkpt>
      <trkpt lat="46.47942" lon="8.26359">
        <ele>1335</ele>
        <time>2020-07-16T15:08:47.901Z</time>
      </trkpt>
      <trkpt lat="46.47943" lon="8.2636">
        <ele>1334</ele>
        <time>2020-07-16T15:08:48.900Z</time>
      </trkpt>
      <trkpt lat="46.47943" lon="8.26359">
        <ele>1334</ele>
        <time>2020-07-16T15:08:49.901Z</time>
      </trkpt>
      <trkpt lat="46.47943" lon="8.2636">
        <ele>1334</ele>
        <time>2020-07-16T15:08:50.901Z</time>
      </trkpt>
      <trkpt lat="46.47938" lon="8.26365">
        <ele>1346</ele>
        <time>2020-07-16T15:08:51.901Z</time>
      </trkpt>
      <trkpt lat="46.47939" lon="8.26364">
        <ele>1346</ele>
        <time>2020-07-16T15:08:52.902Z</time>
      </trkpt>
      <trkpt lat="46.47939" lon="8.26363">
        <ele>1338</ele>
        <time>2020-07-16T15:08:53.902Z</time>
      </trkpt>
      <trkpt lat="46.47939" lon="8.26363">
        <ele>1339</ele>
        <time>2020-07-16T15:08:54.901Z</time>
      </trkpt>
      <trkpt lat="46.47946" lon="8.26369">
        <ele>1336</ele>
        <time>2020-07-16T15:08:55.902Z</time>
      </trkpt>
      <trkpt lat="46.47946" lon="8.26369">
        <ele>1337</ele>
        <time>2020-07-16T15:08:56.903Z</time>
      </trkpt>
      <trkpt lat="46.47946" lon="8.2637">
        <ele>1337</ele>
        <time>2020-07-16T15:08:57.902Z</time>
      </trkpt>
      <trkpt lat="46.47943" lon="8.26367">
        <ele>1336</ele>
        <time>2020-07-16T15:08:58.903Z</time>
      </trkpt>
      <trkpt lat="46.47943" lon="8.26367">
        <ele>1336</ele>
        <time>2020-07-16T15:08:59.902Z</time>
      </trkpt>
      <trkpt lat="46.47943" lon="8.26367">
        <ele>1337</ele>
        <time>2020-07-16T15:09:00.902Z</time>
      </trkpt>
      <trkpt lat="46.47943" lon="8.26368">
        <ele>1336</ele>
        <time>2020-07-16T15:09:01.902Z</time>
      </trkpt>
      <trkpt lat="46.47944" lon="8.26369">
        <ele>1336</ele>
        <time>2020-07-16T15:09:02.903Z</time>
      </trkpt>
      <trkpt lat="46.47944" lon="8.26369">
        <ele>1336</ele>
        <time>2020-07-16T15:09:03.903Z</time>
      </trkpt>
      <trkpt lat="46.47944" lon="8.26369">
        <ele>1336</ele>
        <time>2020-07-16T15:09:04.903Z</time>
      </trkpt>
      <trkpt lat="46.47942" lon="8.26371">
        <ele>1333</ele>
        <time>2020-07-16T15:09:05.904Z</time>
      </trkpt>
      <trkpt lat="46.47942" lon="8.2637">
        <ele>1333</ele>
        <time>2020-07-16T15:09:06.904Z</time>
      </trkpt>
      <trkpt lat="46.47942" lon="8.2637">
        <ele>1333</ele>
        <time>2020-07-16T15:09:07.904Z</time>
      </trkpt>
      <trkpt lat="46.47942" lon="8.2637">
        <ele>1333</ele>
        <time>2020-07-16T15:09:08.904Z</time>
      </trkpt>
      <trkpt lat="46.47942" lon="8.26369">
        <ele>1333</ele>
        <time>2020-07-16T15:09:09.905Z</time>
      </trkpt>
      <trkpt lat="46.47942" lon="8.26369">
        <ele>1333</ele>
        <time>2020-07-16T15:09:10.905Z</time>
      </trkpt>
      <trkpt lat="46.47943" lon="8.26368">
        <ele>1336</ele>
        <time>2020-07-16T15:09:11.905Z</time>
      </trkpt>
      <trkpt lat="46.47943" lon="8.26367">
        <ele>1336</ele>
        <time>2020-07-16T15:09:12.906Z</time>
      </trkpt>
      <trkpt lat="46.47942" lon="8.26367">
        <ele>1335</ele>
        <time>2020-07-16T15:09:13.905Z</time>
      </trkpt>
      <trkpt lat="46.47943" lon="8.26366">
        <ele>1335</ele>
        <time>2020-07-16T15:09:14.905Z</time>
      </trkpt>
      <trkpt lat="46.47943" lon="8.26366">
        <ele>1335</ele>
        <time>2020-07-16T15:09:15.906Z</time>
      </trkpt>
      <trkpt lat="46.47943" lon="8.26369">
        <ele>1335</ele>
        <time>2020-07-16T15:09:16.907Z</time>
      </trkpt>
      <trkpt lat="46.47943" lon="8.26369">
        <ele>1335</ele>
        <time>2020-07-16T15:09:17.907Z</time>
      </trkpt>
      <trkpt lat="46.47943" lon="8.26369">
        <ele>1334</ele>
        <time>2020-07-16T15:09:18.907Z</time>
      </trkpt>
      <trkpt lat="46.47943" lon="8.26369">
        <ele>1334</ele>
        <time>2020-07-16T15:09:19.906Z</time>
      </trkpt>
      <trkpt lat="46.47944" lon="8.26369">
        <ele>1332</ele>
        <time>2020-07-16T15:09:20.907Z</time>
      </trkpt>
      <trkpt lat="46.47945" lon="8.26368">
        <ele>1331</ele>
        <time>2020-07-16T15:09:21.906Z</time>
      </trkpt>
      <trkpt lat="46.47945" lon="8.26367">
        <ele>1331</ele>
        <time>2020-07-16T15:09:22.907Z</time>
      </trkpt>
      <trkpt lat="46.47945" lon="8.26367">
        <ele>1331</ele>
        <time>2020-07-16T15:09:23.907Z</time>
      </trkpt>
      <trkpt lat="46.47947" lon="8.2636">
        <ele>1325</ele>
        <time>2020-07-16T15:09:24.907Z</time>
      </trkpt>
      <trkpt lat="46.47947" lon="8.26361">
        <ele>1326</ele>
        <time>2020-07-16T15:09:25.906Z</time>
      </trkpt>
      <trkpt lat="46.47946" lon="8.2636">
        <ele>1326</ele>
        <time>2020-07-16T15:09:26.907Z</time>
      </trkpt>
      <trkpt lat="46.47946" lon="8.26359">
        <ele>1326</ele>
        <time>2020-07-16T15:09:27.906Z</time>
      </trkpt>
      <trkpt lat="46.47946" lon="8.26359">
        <ele>1327</ele>
        <time>2020-07-16T15:09:31.907Z</time>
      </trkpt>
      <trkpt lat="46.47946" lon="8.26358">
        <ele>1327</ele>
        <time>2020-07-16T15:09:32.906Z</time>
      </trkpt>
      <trkpt lat="46.47946" lon="8.26358">
        <ele>1327</ele>
        <time>2020-07-16T15:09:33.906Z</time>
      </trkpt>
      <trkpt lat="46.47946" lon="8.26358">
        <ele>1327</ele>
        <time>2020-07-16T15:09:34.906Z</time>
      </trkpt>
      <trkpt lat="46.47945" lon="8.26357">
        <ele>1327</ele>
        <time>2020-07-16T15:09:35.906Z</time>
      </trkpt>
      <trkpt lat="46.47945" lon="8.26357">
        <ele>1327</ele>
        <time>2020-07-16T15:09:36.907Z</time>
      </trkpt>
      <trkpt lat="46.47945" lon="8.26357">
        <ele>1327</ele>
        <time>2020-07-16T15:09:37.906Z</time>
      </trkpt>
      <trkpt lat="46.47944" lon="8.26356">
        <ele>1326</ele>
        <time>2020-07-16T15:09:38.906Z</time>
      </trkpt>
      <trkpt lat="46.47943" lon="8.26355">
        <ele>1326</ele>
        <time>2020-07-16T15:09:39.907Z</time>
      </trkpt>
      <trkpt lat="46.47942" lon="8.26354">
        <ele>1326</ele>
        <time>2020-07-16T15:09:40.906Z</time>
      </trkpt>
      <trkpt lat="46.47942" lon="8.26354">
        <ele>1325</ele>
        <time>2020-07-16T15:09:41.907Z</time>
      </trkpt>
      <trkpt lat="46.47942" lon="8.26354">
        <ele>1325</ele>
        <time>2020-07-16T15:09:42.906Z</time>
      </trkpt>
      <trkpt lat="46.47943" lon="8.26355">
        <ele>1325</ele>
        <time>2020-07-16T15:09:43.906Z</time>
      </trkpt>
      <trkpt lat="46.47944" lon="8.26357">
        <ele>1319</ele>
        <time>2020-07-16T15:09:44.908Z</time>
      </trkpt>
      <trkpt lat="46.47944" lon="8.26357">
        <ele>1319</ele>
        <time>2020-07-16T15:09:45.907Z</time>
      </trkpt>
      <trkpt lat="46.47943" lon="8.26356">
        <ele>1318</ele>
        <time>2020-07-16T15:09:46.908Z</time>
      </trkpt>
      <trkpt lat="46.47943" lon="8.26356">
        <ele>1317</ele>
        <time>2020-07-16T15:09:47.907Z</time>
      </trkpt>
      <trkpt lat="46.47943" lon="8.26356">
        <ele>1317</ele>
        <time>2020-07-16T15:09:48.907Z</time>
      </trkpt>
      <trkpt lat="46.47942" lon="8.26356">
        <ele>1317</ele>
        <time>2020-07-16T15:09:49.909Z</time>
      </trkpt>
      <trkpt lat="46.47942" lon="8.26356">
        <ele>1317</ele>
        <time>2020-07-16T15:09:50.909Z</time>
      </trkpt>
      <trkpt lat="46.47942" lon="8.26356">
        <ele>1316</ele>
        <time>2020-07-16T15:09:51.908Z</time>
      </trkpt>
      <trkpt lat="46.47941" lon="8.26355">
        <ele>1316</ele>
        <time>2020-07-16T15:09:52.908Z</time>
      </trkpt>
      <trkpt lat="46.47941" lon="8.26354">
        <ele>1316</ele>
        <time>2020-07-16T15:09:53.909Z</time>
      </trkpt>
      <trkpt lat="46.4794" lon="8.26354">
        <ele>1316</ele>
        <time>2020-07-16T15:09:54.908Z</time>
      </trkpt>
      <trkpt lat="46.4794" lon="8.26354">
        <ele>1317</ele>
        <time>2020-07-16T15:09:55.908Z</time>
      </trkpt>
      <trkpt lat="46.47939" lon="8.26353">
        <ele>1317</ele>
        <time>2020-07-16T15:09:56.908Z</time>
      </trkpt>
      <trkpt lat="46.47939" lon="8.26353">
        <ele>1318</ele>
        <time>2020-07-16T15:09:57.908Z</time>
      </trkpt>
      <trkpt lat="46.47939" lon="8.26353">
        <ele>1318</ele>
        <time>2020-07-16T15:09:58.908Z</time>
      </trkpt>
      <trkpt lat="46.47939" lon="8.26354">
        <ele>1319</ele>
        <time>2020-07-16T15:09:59.908Z</time>
      </trkpt>
      <trkpt lat="46.4794" lon="8.26355">
        <ele>1319</ele>
        <time>2020-07-16T15:10:00.909Z</time>
      </trkpt>
      <trkpt lat="46.47941" lon="8.26357">
        <ele>1320</ele>
        <time>2020-07-16T15:10:01.909Z</time>
      </trkpt>
      <trkpt lat="46.47943" lon="8.26359">
        <ele>1320</ele>
        <time>2020-07-16T15:10:02.908Z</time>
      </trkpt>
      <trkpt lat="46.47943" lon="8.2636">
        <ele>1321</ele>
        <time>2020-07-16T15:10:03.909Z</time>
      </trkpt>
      <trkpt lat="46.47944" lon="8.26361">
        <ele>1321</ele>
        <time>2020-07-16T15:10:04.908Z</time>
      </trkpt>
      <trkpt lat="46.47945" lon="8.26362">
        <ele>1321</ele>
        <time>2020-07-16T15:10:05.909Z</time>
      </trkpt>
      <trkpt lat="46.47945" lon="8.26361">
        <ele>1322</ele>
        <time>2020-07-16T15:10:06.908Z</time>
      </trkpt>
      <trkpt lat="46.47944" lon="8.26362">
        <ele>1322</ele>
        <time>2020-07-16T15:10:13.010Z</time>
      </trkpt>
      <trkpt lat="46.47944" lon="8.26362">
        <ele>1322</ele>
        <time>2020-07-16T15:10:14.011Z</time>
      </trkpt>
      <trkpt lat="46.47945" lon="8.26368">
        <ele>1334</ele>
        <time>2020-07-16T15:10:15.011Z</time>
      </trkpt>
      <trkpt lat="46.47944" lon="8.26373">
        <ele>1330</ele>
        <time>2020-07-16T15:10:16.011Z</time>
      </trkpt>
      <trkpt lat="46.47945" lon="8.26372">
        <ele>1330</ele>
        <time>2020-07-16T15:10:36.011Z</time>
      </trkpt>
      <trkpt lat="46.47945" lon="8.26371">
        <ele>1330</ele>
        <time>2020-07-16T15:10:37.012Z</time>
      </trkpt>
      <trkpt lat="46.47944" lon="8.2637">
        <ele>1331</ele>
        <time>2020-07-16T15:10:38.013Z</time>
      </trkpt>
      <trkpt lat="46.47944" lon="8.2637">
        <ele>1330</ele>
        <time>2020-07-16T15:10:39.012Z</time>
      </trkpt>
      <trkpt lat="46.47945" lon="8.26369">
        <ele>1328</ele>
        <time>2020-07-16T15:10:40.012Z</time>
      </trkpt>
      <trkpt lat="46.47945" lon="8.26369">
        <ele>1328</ele>
        <time>2020-07-16T15:10:42.037Z</time>
      </trkpt>
      <trkpt lat="46.47944" lon="8.26367">
        <ele>1326</ele>
        <time>2020-07-16T15:10:43.038Z</time>
      </trkpt>
      <trkpt lat="46.47944" lon="8.26367">
        <ele>1326</ele>
        <time>2020-07-16T15:10:44.037Z</time>
      </trkpt>
      <trkpt lat="46.47945" lon="8.26368">
        <ele>1326</ele>
        <time>2020-07-16T15:10:45.039Z</time>
      </trkpt>
      <trkpt lat="46.47946" lon="8.26368">
        <ele>1326</ele>
        <time>2020-07-16T15:10:46.039Z</time>
      </trkpt>
      <trkpt lat="46.47946" lon="8.26369">
        <ele>1326</ele>
        <time>2020-07-16T15:10:47.038Z</time>
      </trkpt>
      <trkpt lat="46.47946" lon="8.2637">
        <ele>1327</ele>
        <time>2020-07-16T15:10:48.038Z</time>
      </trkpt>
      <trkpt lat="46.47947" lon="8.26371">
        <ele>1327</ele>
        <time>2020-07-16T15:10:49.039Z</time>
      </trkpt>
      <trkpt lat="46.47948" lon="8.26373">
        <ele>1332</ele>
        <time>2020-07-16T15:10:50.040Z</time>
      </trkpt>
      <trkpt lat="46.47947" lon="8.26373">
        <ele>1332</ele>
        <time>2020-07-16T15:10:51.040Z</time>
      </trkpt>
      <trkpt lat="46.47947" lon="8.26373">
        <ele>1333</ele>
        <time>2020-07-16T15:10:52.040Z</time>
      </trkpt>
      <trkpt lat="46.47946" lon="8.26373">
        <ele>1333</ele>
        <time>2020-07-16T15:10:53.039Z</time>
      </trkpt>
      <trkpt lat="46.47947" lon="8.26371">
        <ele>1334</ele>
        <time>2020-07-16T15:10:54.041Z</time>
      </trkpt>
      <trkpt lat="46.47948" lon="8.26371">
        <ele>1335</ele>
        <time>2020-07-16T15:10:55.041Z</time>
      </trkpt>
      <trkpt lat="46.47948" lon="8.2637">
        <ele>1335</ele>
        <time>2020-07-16T15:10:56.040Z</time>
      </trkpt>
      <trkpt lat="46.47948" lon="8.2637">
        <ele>1336</ele>
        <time>2020-07-16T15:10:57.041Z</time>
      </trkpt>
      <trkpt lat="46.47948" lon="8.2637">
        <ele>1336</ele>
        <time>2020-07-16T15:10:58.040Z</time>
      </trkpt>
      <trkpt lat="46.47948" lon="8.26369">
        <ele>1336</ele>
        <time>2020-07-16T15:10:59.041Z</time>
      </trkpt>
      <trkpt lat="46.47948" lon="8.26368">
        <ele>1336</ele>
        <time>2020-07-16T15:11:00.040Z</time>
      </trkpt>
      <trkpt lat="46.4795" lon="8.26367">
        <ele>1336</ele>
        <time>2020-07-16T15:11:01.041Z</time>
      </trkpt>
      <trkpt lat="46.47949" lon="8.26367">
        <ele>1336</ele>
        <time>2020-07-16T15:11:02.041Z</time>
      </trkpt>
      <trkpt lat="46.47949" lon="8.26368">
        <ele>1336</ele>
        <time>2020-07-16T15:11:03.041Z</time>
      </trkpt>
      <trkpt lat="46.47943" lon="8.26367">
        <ele>1326</ele>
        <time>2020-07-16T15:11:04.041Z</time>
      </trkpt>
      <trkpt lat="46.47943" lon="8.26367">
        <ele>1327</ele>
        <time>2020-07-16T15:11:05.041Z</time>
      </trkpt>
      <trkpt lat="46.47943" lon="8.26367">
        <ele>1327</ele>
        <time>2020-07-16T15:11:06.041Z</time>
      </trkpt>
      <trkpt lat="46.47942" lon="8.26372">
        <ele>1326</ele>
        <time>2020-07-16T15:11:07.041Z</time>
      </trkpt>
      <trkpt lat="46.47943" lon="8.26372">
        <ele>1326</ele>
        <time>2020-07-16T15:11:08.041Z</time>
      </trkpt>
      <trkpt lat="46.47943" lon="8.26372">
        <ele>1326</ele>
        <time>2020-07-16T15:11:09.040Z</time>
      </trkpt>
      <trkpt lat="46.47941" lon="8.26363">
        <ele>1334</ele>
        <time>2020-07-16T15:11:10.043Z</time>
      </trkpt>
      <trkpt lat="46.47941" lon="8.26361">
        <ele>1335</ele>
        <time>2020-07-16T15:11:11.043Z</time>
      </trkpt>
      <trkpt lat="46.47941" lon="8.26359">
        <ele>1335</ele>
        <time>2020-07-16T15:11:12.043Z</time>
      </trkpt>
      <trkpt lat="46.47941" lon="8.26358">
        <ele>1335</ele>
        <time>2020-07-16T15:11:13.043Z</time>
      </trkpt>
      <trkpt lat="46.47941" lon="8.26358">
        <ele>1335</ele>
        <time>2020-07-16T15:11:14.042Z</time>
      </trkpt>
      <trkpt lat="46.47942" lon="8.26358">
        <ele>1335</ele>
        <time>2020-07-16T15:11:15.043Z</time>
      </trkpt>
      <trkpt lat="46.47942" lon="8.26358">
        <ele>1335</ele>
        <time>2020-07-16T15:11:16.042Z</time>
      </trkpt>
      <trkpt lat="46.47942" lon="8.26358">
        <ele>1334</ele>
        <time>2020-07-16T15:11:17.043Z</time>
      </trkpt>
      <trkpt lat="46.47941" lon="8.26357">
        <ele>1334</ele>
        <time>2020-07-16T15:11:18.042Z</time>
      </trkpt>
      <trkpt lat="46.47941" lon="8.26356">
        <ele>1333</ele>
        <time>2020-07-16T15:11:19.043Z</time>
      </trkpt>
      <trkpt lat="46.47941" lon="8.26357">
        <ele>1333</ele>
        <time>2020-07-16T15:11:20.043Z</time>
      </trkpt>
      <trkpt lat="46.47941" lon="8.26357">
        <ele>1333</ele>
        <time>2020-07-16T15:11:21.043Z</time>
      </trkpt>
      <trkpt lat="46.47942" lon="8.26358">
        <ele>1332</ele>
        <time>2020-07-16T15:11:22.043Z</time>
      </trkpt>
      <trkpt lat="46.47943" lon="8.26358">
        <ele>1332</ele>
        <time>2020-07-16T15:11:23.042Z</time>
      </trkpt>
      <trkpt lat="46.47943" lon="8.26358">
        <ele>1331</ele>
        <time>2020-07-16T15:11:24.043Z</time>
      </trkpt>
      <trkpt lat="46.47943" lon="8.26359">
        <ele>1331</ele>
        <time>2020-07-16T15:11:25.043Z</time>
      </trkpt>
      <trkpt lat="46.47943" lon="8.26359">
        <ele>1330</ele>
        <time>2020-07-16T15:11:26.042Z</time>
      </trkpt>
      <trkpt lat="46.47943" lon="8.26359">
        <ele>1330</ele>
        <time>2020-07-16T15:11:27.043Z</time>
      </trkpt>
      <trkpt lat="46.47943" lon="8.2636">
        <ele>1330</ele>
        <time>2020-07-16T15:11:28.042Z</time>
      </trkpt>
      <trkpt lat="46.47943" lon="8.2636">
        <ele>1330</ele>
        <time>2020-07-16T15:11:29.042Z</time>
      </trkpt>
      <trkpt lat="46.47943" lon="8.2636">
        <ele>1330</ele>
        <time>2020-07-16T15:11:30.043Z</time>
      </trkpt>
      <trkpt lat="46.47943" lon="8.26361">
        <ele>1329</ele>
        <time>2020-07-16T15:11:31.043Z</time>
      </trkpt>
      <trkpt lat="46.47943" lon="8.26361">
        <ele>1329</ele>
        <time>2020-07-16T15:11:32.042Z</time>
      </trkpt>
      <trkpt lat="46.47943" lon="8.26361">
        <ele>1330</ele>
        <time>2020-07-16T15:11:33.043Z</time>
      </trkpt>
      <trkpt lat="46.47943" lon="8.26361">
        <ele>1330</ele>
        <time>2020-07-16T15:11:34.043Z</time>
      </trkpt>
      <trkpt lat="46.47943" lon="8.26361">
        <ele>1330</ele>
        <time>2020-07-16T15:11:35.042Z</time>
      </trkpt>
      <trkpt lat="46.47943" lon="8.26361">
        <ele>1330</ele>
        <time>2020-07-16T15:11:36.043Z</time>
      </trkpt>
      <trkpt lat="46.4795" lon="8.26369">
        <ele>1332</ele>
        <time>2020-07-16T15:11:37.043Z</time>
      </trkpt>
      <trkpt lat="46.47949" lon="8.26369">
        <ele>1332</ele>
        <time>2020-07-16T15:11:38.043Z</time>
      </trkpt>
      <trkpt lat="46.47949" lon="8.26367">
        <ele>1329</ele>
        <time>2020-07-16T15:11:42.143Z</time>
      </trkpt>
      <trkpt lat="46.47949" lon="8.26367">
        <ele>1325</ele>
        <time>2020-07-16T15:11:43.142Z</time>
      </trkpt>
      <trkpt lat="46.47949" lon="8.26367">
        <ele>1324</ele>
        <time>2020-07-16T15:11:44.142Z</time>
      </trkpt>
      <trkpt lat="46.47949" lon="8.26366">
        <ele>1326</ele>
        <time>2020-07-16T15:11:45.143Z</time>
      </trkpt>
      <trkpt lat="46.47949" lon="8.26365">
        <ele>1327</ele>
        <time>2020-07-16T15:11:46.142Z</time>
      </trkpt>
      <trkpt lat="46.4795" lon="8.26364">
        <ele>1330</ele>
        <time>2020-07-16T15:11:47.142Z</time>
      </trkpt>
      <trkpt lat="46.47949" lon="8.26364">
        <ele>1331</ele>
        <time>2020-07-16T15:11:48.143Z</time>
      </trkpt>
      <trkpt lat="46.47949" lon="8.26364">
        <ele>1331</ele>
        <time>2020-07-16T15:11:49.144Z</time>
      </trkpt>
      <trkpt lat="46.47949" lon="8.26365">
        <ele>1331</ele>
        <time>2020-07-16T15:11:50.144Z</time>
      </trkpt>
      <trkpt lat="46.47949" lon="8.26365">
        <ele>1330</ele>
        <time>2020-07-16T15:11:51.143Z</time>
      </trkpt>
      <trkpt lat="46.47944" lon="8.26368">
        <ele>1321</ele>
        <time>2020-07-16T15:11:52.145Z</time>
      </trkpt>
      <trkpt lat="46.47944" lon="8.26368">
        <ele>1321</ele>
        <time>2020-07-16T15:11:53.144Z</time>
      </trkpt>
      <trkpt lat="46.47943" lon="8.26368">
        <ele>1322</ele>
        <time>2020-07-16T15:11:54.145Z</time>
      </trkpt>
      <trkpt lat="46.47943" lon="8.26368">
        <ele>1322</ele>
        <time>2020-07-16T15:11:55.145Z</time>
      </trkpt>
      <trkpt lat="46.47944" lon="8.26369">
        <ele>1326</ele>
        <time>2020-07-16T15:11:56.145Z</time>
      </trkpt>
      <trkpt lat="46.47944" lon="8.2637">
        <ele>1326</ele>
        <time>2020-07-16T15:11:58.126Z</time>
      </trkpt>
      <trkpt lat="46.4795" lon="8.2637">
        <ele>1325</ele>
        <time>2020-07-16T15:11:59.126Z</time>
      </trkpt>
      <trkpt lat="46.4795" lon="8.26369">
        <ele>1325</ele>
        <time>2020-07-16T15:12:00.126Z</time>
      </trkpt>
      <trkpt lat="46.4795" lon="8.26369">
        <ele>1326</ele>
        <time>2020-07-16T15:12:01.126Z</time>
      </trkpt>
      <trkpt lat="46.47951" lon="8.26368">
        <ele>1326</ele>
        <time>2020-07-16T15:12:02.126Z</time>
      </trkpt>
      <trkpt lat="46.47951" lon="8.26368">
        <ele>1326</ele>
        <time>2020-07-16T15:12:03.127Z</time>
      </trkpt>
      <trkpt lat="46.47951" lon="8.26368">
        <ele>1327</ele>
        <time>2020-07-16T15:12:04.127Z</time>
      </trkpt>
      <trkpt lat="46.47952" lon="8.26368">
        <ele>1327</ele>
        <time>2020-07-16T15:12:05.126Z</time>
      </trkpt>
      <trkpt lat="46.47952" lon="8.26368">
        <ele>1327</ele>
        <time>2020-07-16T15:12:06.126Z</time>
      </trkpt>
      <trkpt lat="46.47953" lon="8.26368">
        <ele>1327</ele>
        <time>2020-07-16T15:12:07.126Z</time>
      </trkpt>
      <trkpt lat="46.47953" lon="8.26368">
        <ele>1328</ele>
        <time>2020-07-16T15:12:08.126Z</time>
      </trkpt>
      <trkpt lat="46.47953" lon="8.26367">
        <ele>1328</ele>
        <time>2020-07-16T15:12:09.126Z</time>
      </trkpt>
      <trkpt lat="46.47953" lon="8.26367">
        <ele>1328</ele>
        <time>2020-07-16T15:12:11.152Z</time>
      </trkpt>
      <trkpt lat="46.47954" lon="8.26367">
        <ele>1328</ele>
        <time>2020-07-16T15:12:12.152Z</time>
      </trkpt>
      <trkpt lat="46.47955" lon="8.26367">
        <ele>1327</ele>
        <time>2020-07-16T15:12:13.153Z</time>
      </trkpt>
      <trkpt lat="46.47955" lon="8.26367">
        <ele>1327</ele>
        <time>2020-07-16T15:12:14.152Z</time>
      </trkpt>
      <trkpt lat="46.47956" lon="8.26368">
        <ele>1327</ele>
        <time>2020-07-16T15:12:15.153Z</time>
      </trkpt>
      <trkpt lat="46.47956" lon="8.26368">
        <ele>1327</ele>
        <time>2020-07-16T15:12:16.153Z</time>
      </trkpt>
      <trkpt lat="46.47957" lon="8.26368">
        <ele>1327</ele>
        <time>2020-07-16T15:12:17.153Z</time>
      </trkpt>
      <trkpt lat="46.47957" lon="8.26368">
        <ele>1327</ele>
        <time>2020-07-16T15:12:18.152Z</time>
      </trkpt>
      <trkpt lat="46.47958" lon="8.26368">
        <ele>1327</ele>
        <time>2020-07-16T15:12:19.152Z</time>
      </trkpt>
      <trkpt lat="46.47959" lon="8.26367">
        <ele>1327</ele>
        <time>2020-07-16T15:12:20.153Z</time>
      </trkpt>
      <trkpt lat="46.4796" lon="8.26367">
        <ele>1327</ele>
        <time>2020-07-16T15:12:21.153Z</time>
      </trkpt>
      <trkpt lat="46.4796" lon="8.26368">
        <ele>1327</ele>
        <time>2020-07-16T15:12:22.152Z</time>
      </trkpt>
      <trkpt lat="46.4796" lon="8.26369">
        <ele>1328</ele>
        <time>2020-07-16T15:12:23.152Z</time>
      </trkpt>
      <trkpt lat="46.47961" lon="8.2637">
        <ele>1328</ele>
        <time>2020-07-16T15:12:24.152Z</time>
      </trkpt>
      <trkpt lat="46.47962" lon="8.26371">
        <ele>1329</ele>
        <time>2020-07-16T15:12:25.153Z</time>
      </trkpt>
      <trkpt lat="46.47963" lon="8.26372">
        <ele>1329</ele>
        <time>2020-07-16T15:12:26.153Z</time>
      </trkpt>
      <trkpt lat="46.47963" lon="8.26373">
        <ele>1330</ele>
        <time>2020-07-16T15:12:27.153Z</time>
      </trkpt>
      <trkpt lat="46.47964" lon="8.26374">
        <ele>1330</ele>
        <time>2020-07-16T15:12:28.152Z</time>
      </trkpt>
      <trkpt lat="46.47965" lon="8.26374">
        <ele>1331</ele>
        <time>2020-07-16T15:12:29.153Z</time>
      </trkpt>
      <trkpt lat="46.47966" lon="8.26374">
        <ele>1330</ele>
        <time>2020-07-16T15:12:30.153Z</time>
      </trkpt>
      <trkpt lat="46.47966" lon="8.26375">
        <ele>1330</ele>
        <time>2020-07-16T15:12:34.291Z</time>
      </trkpt>
      <trkpt lat="46.47967" lon="8.26375">
        <ele>1330</ele>
        <time>2020-07-16T15:12:35.291Z</time>
      </trkpt>
      <trkpt lat="46.47968" lon="8.26375">
        <ele>1330</ele>
        <time>2020-07-16T15:12:36.291Z</time>
      </trkpt>
      <trkpt lat="46.47968" lon="8.26376">
        <ele>1330</ele>
        <time>2020-07-16T15:12:37.291Z</time>
      </trkpt>
      <trkpt lat="46.47969" lon="8.26377">
        <ele>1330</ele>
        <time>2020-07-16T15:12:38.291Z</time>
      </trkpt>
      <trkpt lat="46.47969" lon="8.26379">
        <ele>1330</ele>
        <time>2020-07-16T15:12:39.291Z</time>
      </trkpt>
      <trkpt lat="46.4797" lon="8.2638">
        <ele>1330</ele>
        <time>2020-07-16T15:12:40.290Z</time>
      </trkpt>
      <trkpt lat="46.47971" lon="8.26381">
        <ele>1330</ele>
        <time>2020-07-16T15:12:41.290Z</time>
      </trkpt>
      <trkpt lat="46.47972" lon="8.26382">
        <ele>1330</ele>
        <time>2020-07-16T15:12:42.291Z</time>
      </trkpt>
      <trkpt lat="46.47972" lon="8.26384">
        <ele>1330</ele>
        <time>2020-07-16T15:12:43.291Z</time>
      </trkpt>
      <trkpt lat="46.47973" lon="8.26386">
        <ele>1331</ele>
        <time>2020-07-16T15:12:44.291Z</time>
      </trkpt>
      <trkpt lat="46.47973" lon="8.26387">
        <ele>1331</ele>
        <time>2020-07-16T15:12:45.291Z</time>
      </trkpt>
      <trkpt lat="46.47974" lon="8.26387">
        <ele>1332</ele>
        <time>2020-07-16T15:12:46.291Z</time>
      </trkpt>
      <trkpt lat="46.47974" lon="8.26386">
        <ele>1332</ele>
        <time>2020-07-16T15:12:47.290Z</time>
      </trkpt>
      <trkpt lat="46.47974" lon="8.26385">
        <ele>1332</ele>
        <time>2020-07-16T15:12:48.291Z</time>
      </trkpt>
      <trkpt lat="46.47975" lon="8.26385">
        <ele>1330</ele>
        <time>2020-07-16T15:12:49.291Z</time>
      </trkpt>
      <trkpt lat="46.47975" lon="8.26385">
        <ele>1330</ele>
        <time>2020-07-16T15:12:50.292Z</time>
      </trkpt>
      <trkpt lat="46.47976" lon="8.26385">
        <ele>1330</ele>
        <time>2020-07-16T15:12:51.291Z</time>
      </trkpt>
      <trkpt lat="46.47978" lon="8.26385">
        <ele>1330</ele>
        <time>2020-07-16T15:12:52.292Z</time>
      </trkpt>
      <trkpt lat="46.47979" lon="8.26385">
        <ele>1330</ele>
        <time>2020-07-16T15:12:53.291Z</time>
      </trkpt>
      <trkpt lat="46.4798" lon="8.26385">
        <ele>1330</ele>
        <time>2020-07-16T15:12:54.291Z</time>
      </trkpt>
      <trkpt lat="46.47982" lon="8.26385">
        <ele>1330</ele>
        <time>2020-07-16T15:12:55.291Z</time>
      </trkpt>
      <trkpt lat="46.47983" lon="8.26385">
        <ele>1330</ele>
        <time>2020-07-16T15:12:56.292Z</time>
      </trkpt>
      <trkpt lat="46.47984" lon="8.26385">
        <ele>1330</ele>
        <time>2020-07-16T15:12:57.291Z</time>
      </trkpt>
      <trkpt lat="46.47985" lon="8.26384">
        <ele>1330</ele>
        <time>2020-07-16T15:12:58.292Z</time>
      </trkpt>
      <trkpt lat="46.47986" lon="8.26384">
        <ele>1329</ele>
        <time>2020-07-16T15:12:59.291Z</time>
      </trkpt>
      <trkpt lat="46.47987" lon="8.26383">
        <ele>1329</ele>
        <time>2020-07-16T15:13:00.292Z</time>
      </trkpt>
      <trkpt lat="46.47988" lon="8.26383">
        <ele>1329</ele>
        <time>2020-07-16T15:13:01.292Z</time>
      </trkpt>
      <trkpt lat="46.4799" lon="8.26382">
        <ele>1329</ele>
        <time>2020-07-16T15:13:02.292Z</time>
      </trkpt>
      <trkpt lat="46.47991" lon="8.26382">
        <ele>1328</ele>
        <time>2020-07-16T15:13:03.292Z</time>
      </trkpt>
      <trkpt lat="46.47992" lon="8.26382">
        <ele>1328</ele>
        <time>2020-07-16T15:13:04.292Z</time>
      </trkpt>
      <trkpt lat="46.47993" lon="8.26381">
        <ele>1328</ele>
        <time>2020-07-16T15:13:05.292Z</time>
      </trkpt>
      <trkpt lat="46.47994" lon="8.26381">
        <ele>1328</ele>
        <time>2020-07-16T15:13:06.292Z</time>
      </trkpt>
      <trkpt lat="46.47996" lon="8.26381">
        <ele>1328</ele>
        <time>2020-07-16T15:13:07.291Z</time>
      </trkpt>
      <trkpt lat="46.47997" lon="8.26381">
        <ele>1329</ele>
        <time>2020-07-16T15:13:08.292Z</time>
      </trkpt>
      <trkpt lat="46.47998" lon="8.26381">
        <ele>1329</ele>
        <time>2020-07-16T15:13:09.291Z</time>
      </trkpt>
      <trkpt lat="46.47999" lon="8.26381">
        <ele>1329</ele>
        <time>2020-07-16T15:13:10.292Z</time>
      </trkpt>
      <trkpt lat="46.48" lon="8.26381">
        <ele>1329</ele>
        <time>2020-07-16T15:13:11.292Z</time>
      </trkpt>
      <trkpt lat="46.48001" lon="8.26381">
        <ele>1328</ele>
        <time>2020-07-16T15:13:12.291Z</time>
      </trkpt>
      <trkpt lat="46.48002" lon="8.26381">
        <ele>1328</ele>
        <time>2020-07-16T15:13:13.292Z</time>
      </trkpt>
      <trkpt lat="46.48003" lon="8.26381">
        <ele>1328</ele>
        <time>2020-07-16T15:13:14.291Z</time>
      </trkpt>
      <trkpt lat="46.48004" lon="8.2638">
        <ele>1328</ele>
        <time>2020-07-16T15:13:15.292Z</time>
      </trkpt>
      <trkpt lat="46.48005" lon="8.2638">
        <ele>1328</ele>
        <time>2020-07-16T15:13:16.292Z</time>
      </trkpt>
      <trkpt lat="46.48006" lon="8.26379">
        <ele>1328</ele>
        <time>2020-07-16T15:13:17.292Z</time>
      </trkpt>
      <trkpt lat="46.48007" lon="8.26379">
        <ele>1328</ele>
        <time>2020-07-16T15:13:18.291Z</time>
      </trkpt>
      <trkpt lat="46.48008" lon="8.26379">
        <ele>1328</ele>
        <time>2020-07-16T15:13:19.292Z</time>
      </trkpt>
      <trkpt lat="46.4801" lon="8.26378">
        <ele>1328</ele>
        <time>2020-07-16T15:13:20.292Z</time>
      </trkpt>
      <trkpt lat="46.48011" lon="8.26378">
        <ele>1328</ele>
        <time>2020-07-16T15:13:21.292Z</time>
      </trkpt>
      <trkpt lat="46.48011" lon="8.26378">
        <ele>1328</ele>
        <time>2020-07-16T15:13:22.292Z</time>
      </trkpt>
      <trkpt lat="46.48013" lon="8.26378">
        <ele>1328</ele>
        <time>2020-07-16T15:13:23.291Z</time>
      </trkpt>
      <trkpt lat="46.48014" lon="8.26377">
        <ele>1328</ele>
        <time>2020-07-16T15:13:24.292Z</time>
      </trkpt>
      <trkpt lat="46.48016" lon="8.26377">
        <ele>1328</ele>
        <time>2020-07-16T15:13:25.292Z</time>
      </trkpt>
      <trkpt lat="46.48017" lon="8.26376">
        <ele>1328</ele>
        <time>2020-07-16T15:13:26.292Z</time>
      </trkpt>
      <trkpt lat="46.48018" lon="8.26376">
        <ele>1328</ele>
        <time>2020-07-16T15:13:27.291Z</time>
      </trkpt>
      <trkpt lat="46.48019" lon="8.26375">
        <ele>1327</ele>
        <time>2020-07-16T15:13:28.291Z</time>
      </trkpt>
      <trkpt lat="46.48021" lon="8.26374">
        <ele>1328</ele>
        <time>2020-07-16T15:13:29.291Z</time>
      </trkpt>
      <trkpt lat="46.48024" lon="8.26373">
        <ele>1328</ele>
        <time>2020-07-16T15:13:30.291Z</time>
      </trkpt>
      <trkpt lat="46.48026" lon="8.26372">
        <ele>1328</ele>
        <time>2020-07-16T15:13:31.291Z</time>
      </trkpt>
      <trkpt lat="46.48028" lon="8.26371">
        <ele>1328</ele>
        <time>2020-07-16T15:13:32.292Z</time>
      </trkpt>
      <trkpt lat="46.4803" lon="8.26369">
        <ele>1328</ele>
        <time>2020-07-16T15:13:33.291Z</time>
      </trkpt>
      <trkpt lat="46.48033" lon="8.26368">
        <ele>1328</ele>
        <time>2020-07-16T15:13:34.292Z</time>
      </trkpt>
      <trkpt lat="46.48035" lon="8.26368">
        <ele>1328</ele>
        <time>2020-07-16T15:13:35.292Z</time>
      </trkpt>
      <trkpt lat="46.48036" lon="8.26367">
        <ele>1328</ele>
        <time>2020-07-16T15:13:36.291Z</time>
      </trkpt>
      <trkpt lat="46.48038" lon="8.26367">
        <ele>1327</ele>
        <time>2020-07-16T15:13:37.292Z</time>
      </trkpt>
      <trkpt lat="46.48039" lon="8.26367">
        <ele>1328</ele>
        <time>2020-07-16T15:13:38.292Z</time>
      </trkpt>
      <trkpt lat="46.4804" lon="8.26367">
        <ele>1328</ele>
        <time>2020-07-16T15:13:39.292Z</time>
      </trkpt>
      <trkpt lat="46.48041" lon="8.26368">
        <ele>1328</ele>
        <time>2020-07-16T15:13:40.292Z</time>
      </trkpt>
      <trkpt lat="46.48042" lon="8.26368">
        <ele>1329</ele>
        <time>2020-07-16T15:13:41.292Z</time>
      </trkpt>
      <trkpt lat="46.48044" lon="8.26368">
        <ele>1329</ele>
        <time>2020-07-16T15:13:42.292Z</time>
      </trkpt>
      <trkpt lat="46.48045" lon="8.26368">
        <ele>1329</ele>
        <time>2020-07-16T15:13:43.291Z</time>
      </trkpt>
      <trkpt lat="46.48046" lon="8.26368">
        <ele>1329</ele>
        <time>2020-07-16T15:13:44.291Z</time>
      </trkpt>
      <trkpt lat="46.48047" lon="8.26369">
        <ele>1329</ele>
        <time>2020-07-16T15:13:45.292Z</time>
      </trkpt>
      <trkpt lat="46.48049" lon="8.26369">
        <ele>1329</ele>
        <time>2020-07-16T15:13:46.292Z</time>
      </trkpt>
      <trkpt lat="46.4805" lon="8.26369">
        <ele>1329</ele>
        <time>2020-07-16T15:13:47.292Z</time>
      </trkpt>
      <trkpt lat="46.48051" lon="8.26369">
        <ele>1329</ele>
        <time>2020-07-16T15:13:48.292Z</time>
      </trkpt>
      <trkpt lat="46.48052" lon="8.2637">
        <ele>1329</ele>
        <time>2020-07-16T15:13:49.292Z</time>
      </trkpt>
      <trkpt lat="46.48054" lon="8.2637">
        <ele>1330</ele>
        <time>2020-07-16T15:13:50.292Z</time>
      </trkpt>
      <trkpt lat="46.48055" lon="8.2637">
        <ele>1330</ele>
        <time>2020-07-16T15:13:51.292Z</time>
      </trkpt>
      <trkpt lat="46.48056" lon="8.2637">
        <ele>1330</ele>
        <time>2020-07-16T15:13:52.292Z</time>
      </trkpt>
      <trkpt lat="46.48057" lon="8.26371">
        <ele>1330</ele>
        <time>2020-07-16T15:13:53.291Z</time>
      </trkpt>
      <trkpt lat="46.48058" lon="8.26371">
        <ele>1330</ele>
        <time>2020-07-16T15:13:54.291Z</time>
      </trkpt>
      <trkpt lat="46.48059" lon="8.26371">
        <ele>1330</ele>
        <time>2020-07-16T15:13:55.292Z</time>
      </trkpt>
      <trkpt lat="46.4806" lon="8.26371">
        <ele>1330</ele>
        <time>2020-07-16T15:13:56.292Z</time>
      </trkpt>
      <trkpt lat="46.48061" lon="8.26371">
        <ele>1330</ele>
        <time>2020-07-16T15:13:57.292Z</time>
      </trkpt>
      <trkpt lat="46.48063" lon="8.26371">
        <ele>1330</ele>
        <time>2020-07-16T15:13:58.292Z</time>
      </trkpt>
      <trkpt lat="46.48064" lon="8.26371">
        <ele>1330</ele>
        <time>2020-07-16T15:13:59.291Z</time>
      </trkpt>
      <trkpt lat="46.48065" lon="8.26372">
        <ele>1331</ele>
        <time>2020-07-16T15:14:00.292Z</time>
      </trkpt>
      <trkpt lat="46.48066" lon="8.26372">
        <ele>1331</ele>
        <time>2020-07-16T15:14:01.292Z</time>
      </trkpt>
      <trkpt lat="46.48067" lon="8.26372">
        <ele>1330</ele>
        <time>2020-07-16T15:14:02.292Z</time>
      </trkpt>
      <trkpt lat="46.48068" lon="8.26373">
        <ele>1330</ele>
        <time>2020-07-16T15:14:03.292Z</time>
      </trkpt>
      <trkpt lat="46.48069" lon="8.26374">
        <ele>1330</ele>
        <time>2020-07-16T15:14:04.292Z</time>
      </trkpt>
      <trkpt lat="46.4807" lon="8.26374">
        <ele>1330</ele>
        <time>2020-07-16T15:14:05.291Z</time>
      </trkpt>
      <trkpt lat="46.48071" lon="8.26374">
        <ele>1330</ele>
        <time>2020-07-16T15:14:06.292Z</time>
      </trkpt>
      <trkpt lat="46.48072" lon="8.26374">
        <ele>1330</ele>
        <time>2020-07-16T15:14:07.292Z</time>
      </trkpt>
      <trkpt lat="46.48073" lon="8.26374">
        <ele>1329</ele>
        <time>2020-07-16T15:14:08.292Z</time>
      </trkpt>
      <trkpt lat="46.48074" lon="8.26374">
        <ele>1329</ele>
        <time>2020-07-16T15:14:09.292Z</time>
      </trkpt>
      <trkpt lat="46.48075" lon="8.26375">
        <ele>1329</ele>
        <time>2020-07-16T15:14:10.292Z</time>
      </trkpt>
      <trkpt lat="46.48076" lon="8.26375">
        <ele>1329</ele>
        <time>2020-07-16T15:14:11.291Z</time>
      </trkpt>
      <trkpt lat="46.48077" lon="8.26375">
        <ele>1330</ele>
        <time>2020-07-16T15:14:12.291Z</time>
      </trkpt>
      <trkpt lat="46.48078" lon="8.26375">
        <ele>1330</ele>
        <time>2020-07-16T15:14:13.291Z</time>
      </trkpt>
      <trkpt lat="46.4808" lon="8.26375">
        <ele>1330</ele>
        <time>2020-07-16T15:14:14.291Z</time>
      </trkpt>
      <trkpt lat="46.48081" lon="8.26375">
        <ele>1331</ele>
        <time>2020-07-16T15:14:15.292Z</time>
      </trkpt>
      <trkpt lat="46.48082" lon="8.26375">
        <ele>1331</ele>
        <time>2020-07-16T15:14:16.291Z</time>
      </trkpt>
      <trkpt lat="46.48083" lon="8.26376">
        <ele>1331</ele>
        <time>2020-07-16T15:14:17.292Z</time>
      </trkpt>
      <trkpt lat="46.48084" lon="8.26376">
        <ele>1331</ele>
        <time>2020-07-16T15:14:24.409Z</time>
      </trkpt>
      <trkpt lat="46.48086" lon="8.26377">
        <ele>1332</ele>
        <time>2020-07-16T15:14:25.408Z</time>
      </trkpt>
      <trkpt lat="46.48087" lon="8.26377">
        <ele>1332</ele>
        <time>2020-07-16T15:14:26.409Z</time>
      </trkpt>
      <trkpt lat="46.48088" lon="8.26377">
        <ele>1332</ele>
        <time>2020-07-16T15:14:27.409Z</time>
      </trkpt>
      <trkpt lat="46.48089" lon="8.26378">
        <ele>1332</ele>
        <time>2020-07-16T15:14:28.409Z</time>
      </trkpt>
      <trkpt lat="46.4809" lon="8.26378">
        <ele>1332</ele>
        <time>2020-07-16T15:14:29.409Z</time>
      </trkpt>
      <trkpt lat="46.48091" lon="8.26378">
        <ele>1332</ele>
        <time>2020-07-16T15:14:30.409Z</time>
      </trkpt>
      <trkpt lat="46.48092" lon="8.26379">
        <ele>1332</ele>
        <time>2020-07-16T15:14:31.409Z</time>
      </trkpt>
      <trkpt lat="46.48093" lon="8.26379">
        <ele>1331</ele>
        <time>2020-07-16T15:14:32.408Z</time>
      </trkpt>
      <trkpt lat="46.48094" lon="8.26379">
        <ele>1331</ele>
        <time>2020-07-16T15:14:33.408Z</time>
      </trkpt>
      <trkpt lat="46.48095" lon="8.26379">
        <ele>1331</ele>
        <time>2020-07-16T15:14:34.408Z</time>
      </trkpt>
      <trkpt lat="46.48097" lon="8.26378">
        <ele>1331</ele>
        <time>2020-07-16T15:14:35.408Z</time>
      </trkpt>
      <trkpt lat="46.48098" lon="8.26378">
        <ele>1330</ele>
        <time>2020-07-16T15:14:36.409Z</time>
      </trkpt>
      <trkpt lat="46.48099" lon="8.26378">
        <ele>1330</ele>
        <time>2020-07-16T15:14:37.409Z</time>
      </trkpt>
      <trkpt lat="46.481" lon="8.26379">
        <ele>1330</ele>
        <time>2020-07-16T15:14:38.409Z</time>
      </trkpt>
      <trkpt lat="46.48101" lon="8.26379">
        <ele>1331</ele>
        <time>2020-07-16T15:14:39.409Z</time>
      </trkpt>
      <trkpt lat="46.48102" lon="8.26379">
        <ele>1331</ele>
        <time>2020-07-16T15:14:45.542Z</time>
      </trkpt>
      <trkpt lat="46.48103" lon="8.26379">
        <ele>1331</ele>
        <time>2020-07-16T15:14:46.543Z</time>
      </trkpt>
      <trkpt lat="46.48104" lon="8.26379">
        <ele>1331</ele>
        <time>2020-07-16T15:14:47.543Z</time>
      </trkpt>
      <trkpt lat="46.48105" lon="8.26379">
        <ele>1331</ele>
        <time>2020-07-16T15:15:42.669Z</time>
      </trkpt>
      <trkpt lat="46.48106" lon="8.26379">
        <ele>1331</ele>
        <time>2020-07-16T15:15:43.669Z</time>
      </trkpt>
      <trkpt lat="46.48107" lon="8.26379">
        <ele>1331</ele>
        <time>2020-07-16T15:15:54.519Z</time>
      </trkpt>
      <trkpt lat="46.48108" lon="8.26379">
        <ele>1331</ele>
        <time>2020-07-16T15:15:55.519Z</time>
      </trkpt>
      <trkpt lat="46.48109" lon="8.26379">
        <ele>1331</ele>
        <time>2020-07-16T15:15:56.520Z</time>
      </trkpt>
      <trkpt lat="46.4811" lon="8.26379">
        <ele>1331</ele>
        <time>2020-07-16T15:15:57.519Z</time>
      </trkpt>
      <trkpt lat="46.48112" lon="8.26379">
        <ele>1332</ele>
        <time>2020-07-16T15:15:58.520Z</time>
      </trkpt>
      <trkpt lat="46.48113" lon="8.26379">
        <ele>1332</ele>
        <time>2020-07-16T15:15:59.520Z</time>
      </trkpt>
      <trkpt lat="46.48114" lon="8.26379">
        <ele>1332</ele>
        <time>2020-07-16T15:16:00.520Z</time>
      </trkpt>
      <trkpt lat="46.48115" lon="8.2638">
        <ele>1332</ele>
        <time>2020-07-16T15:16:08.539Z</time>
      </trkpt>
      <trkpt lat="46.48116" lon="8.2638">
        <ele>1332</ele>
        <time>2020-07-16T15:16:09.539Z</time>
      </trkpt>
      <trkpt lat="46.48117" lon="8.2638">
        <ele>1332</ele>
        <time>2020-07-16T15:16:36.396Z</time>
      </trkpt>
      <trkpt lat="46.48118" lon="8.2638">
        <ele>1332</ele>
        <time>2020-07-16T15:16:37.396Z</time>
      </trkpt>
      <trkpt lat="46.48119" lon="8.26381">
        <ele>1332</ele>
        <time>2020-07-16T15:16:38.395Z</time>
      </trkpt>
      <trkpt lat="46.4812" lon="8.2638">
        <ele>1332</ele>
        <time>2020-07-16T15:17:10.417Z</time>
      </trkpt>
      <trkpt lat="46.48121" lon="8.26381">
        <ele>1332</ele>
        <time>2020-07-16T15:17:11.417Z</time>
      </trkpt>
      <trkpt lat="46.48122" lon="8.26381">
        <ele>1332</ele>
        <time>2020-07-16T15:17:14.126Z</time>
      </trkpt>
      <trkpt lat="46.48124" lon="8.26381">
        <ele>1332</ele>
        <time>2020-07-16T15:17:15.127Z</time>
      </trkpt>
      <trkpt lat="46.48125" lon="8.26381">
        <ele>1332</ele>
        <time>2020-07-16T15:17:16.127Z</time>
      </trkpt>
      <trkpt lat="46.48126" lon="8.26381">
        <ele>1332</ele>
        <time>2020-07-16T15:17:17.127Z</time>
      </trkpt>
      <trkpt lat="46.48127" lon="8.26381">
        <ele>1331</ele>
        <time>2020-07-16T15:17:18.127Z</time>
      </trkpt>
      <trkpt lat="46.48128" lon="8.26381">
        <ele>1331</ele>
        <time>2020-07-16T15:17:26.148Z</time>
      </trkpt>
      <trkpt lat="46.48129" lon="8.26382">
        <ele>1331</ele>
        <time>2020-07-16T15:17:35.020Z</time>
      </trkpt>
      <trkpt lat="46.4813" lon="8.26382">
        <ele>1331</ele>
        <time>2020-07-16T15:17:36.775Z</time>
      </trkpt>
      <trkpt lat="46.48131" lon="8.26382">
        <ele>1331</ele>
        <time>2020-07-16T15:17:37.775Z</time>
      </trkpt>
      <trkpt lat="46.48132" lon="8.26382">
        <ele>1332</ele>
        <time>2020-07-16T15:17:38.776Z</time>
      </trkpt>
      <trkpt lat="46.48133" lon="8.26382">
        <ele>1332</ele>
        <time>2020-07-16T15:17:39.775Z</time>
      </trkpt>
      <trkpt lat="46.48134" lon="8.26382">
        <ele>1332</ele>
        <time>2020-07-16T15:17:40.776Z</time>
      </trkpt>
      <trkpt lat="46.48135" lon="8.26383">
        <ele>1332</ele>
        <time>2020-07-16T15:17:41.776Z</time>
      </trkpt>
      <trkpt lat="46.48136" lon="8.26384">
        <ele>1333</ele>
        <time>2020-07-16T15:17:42.775Z</time>
      </trkpt>
      <trkpt lat="46.48137" lon="8.26384">
        <ele>1333</ele>
        <time>2020-07-16T15:17:43.775Z</time>
      </trkpt>
      <trkpt lat="46.48138" lon="8.26385">
        <ele>1333</ele>
        <time>2020-07-16T15:17:44.775Z</time>
      </trkpt>
      <trkpt lat="46.48139" lon="8.26385">
        <ele>1333</ele>
        <time>2020-07-16T15:17:45.775Z</time>
      </trkpt>
      <trkpt lat="46.48141" lon="8.26386">
        <ele>1333</ele>
        <time>2020-07-16T15:17:46.775Z</time>
      </trkpt>
      <trkpt lat="46.48142" lon="8.26386">
        <ele>1333</ele>
        <time>2020-07-16T15:17:47.776Z</time>
      </trkpt>
      <trkpt lat="46.48143" lon="8.26386">
        <ele>1333</ele>
        <time>2020-07-16T15:17:48.776Z</time>
      </trkpt>
      <trkpt lat="46.48144" lon="8.26387">
        <ele>1333</ele>
        <time>2020-07-16T15:17:49.776Z</time>
      </trkpt>
      <trkpt lat="46.48145" lon="8.26387">
        <ele>1333</ele>
        <time>2020-07-16T15:17:50.776Z</time>
      </trkpt>
      <trkpt lat="46.48146" lon="8.26388">
        <ele>1333</ele>
        <time>2020-07-16T15:17:51.776Z</time>
      </trkpt>
      <trkpt lat="46.48147" lon="8.26388">
        <ele>1333</ele>
        <time>2020-07-16T15:17:52.776Z</time>
      </trkpt>
      <trkpt lat="46.48149" lon="8.26388">
        <ele>1333</ele>
        <time>2020-07-16T15:17:53.776Z</time>
      </trkpt>
      <trkpt lat="46.4815" lon="8.26388">
        <ele>1333</ele>
        <time>2020-07-16T15:17:54.775Z</time>
      </trkpt>
      <trkpt lat="46.48151" lon="8.26388">
        <ele>1333</ele>
        <time>2020-07-16T15:17:55.776Z</time>
      </trkpt>
      <trkpt lat="46.48152" lon="8.26389">
        <ele>1333</ele>
        <time>2020-07-16T15:17:56.776Z</time>
      </trkpt>
      <trkpt lat="46.48153" lon="8.26389">
        <ele>1333</ele>
        <time>2020-07-16T15:17:57.776Z</time>
      </trkpt>
      <trkpt lat="46.48154" lon="8.26389">
        <ele>1333</ele>
        <time>2020-07-16T15:17:58.776Z</time>
      </trkpt>
      <trkpt lat="46.48156" lon="8.26389">
        <ele>1333</ele>
        <time>2020-07-16T15:17:59.775Z</time>
      </trkpt>
      <trkpt lat="46.48157" lon="8.2639">
        <ele>1333</ele>
        <time>2020-07-16T15:18:00.775Z</time>
      </trkpt>
      <trkpt lat="46.48158" lon="8.2639">
        <ele>1333</ele>
        <time>2020-07-16T15:18:01.776Z</time>
      </trkpt>
      <trkpt lat="46.48158" lon="8.2639">
        <ele>1333</ele>
        <time>2020-07-16T15:18:02.775Z</time>
      </trkpt>
      <trkpt lat="46.48159" lon="8.26391">
        <ele>1334</ele>
        <time>2020-07-16T15:18:03.776Z</time>
      </trkpt>
      <trkpt lat="46.48161" lon="8.26391">
        <ele>1334</ele>
        <time>2020-07-16T15:18:04.776Z</time>
      </trkpt>
      <trkpt lat="46.48162" lon="8.26392">
        <ele>1334</ele>
        <time>2020-07-16T15:18:05.776Z</time>
      </trkpt>
      <trkpt lat="46.48163" lon="8.26393">
        <ele>1334</ele>
        <time>2020-07-16T15:18:06.776Z</time>
      </trkpt>
      <trkpt lat="46.48163" lon="8.26394">
        <ele>1335</ele>
        <time>2020-07-16T15:18:07.776Z</time>
      </trkpt>
      <trkpt lat="46.48165" lon="8.26395">
        <ele>1335</ele>
        <time>2020-07-16T15:18:08.776Z</time>
      </trkpt>
      <trkpt lat="46.48165" lon="8.26396">
        <ele>1335</ele>
        <time>2020-07-16T15:18:09.776Z</time>
      </trkpt>
      <trkpt lat="46.48167" lon="8.26396">
        <ele>1335</ele>
        <time>2020-07-16T15:18:10.776Z</time>
      </trkpt>
      <trkpt lat="46.48168" lon="8.26397">
        <ele>1335</ele>
        <time>2020-07-16T15:18:11.775Z</time>
      </trkpt>
      <trkpt lat="46.48169" lon="8.26398">
        <ele>1334</ele>
        <time>2020-07-16T15:18:12.776Z</time>
      </trkpt>
      <trkpt lat="46.48169" lon="8.26399">
        <ele>1334</ele>
        <time>2020-07-16T15:18:13.776Z</time>
      </trkpt>
      <trkpt lat="46.4817" lon="8.264">
        <ele>1334</ele>
        <time>2020-07-16T15:18:14.775Z</time>
      </trkpt>
      <trkpt lat="46.48171" lon="8.26401">
        <ele>1334</ele>
        <time>2020-07-16T15:18:15.776Z</time>
      </trkpt>
      <trkpt lat="46.48172" lon="8.26402">
        <ele>1335</ele>
        <time>2020-07-16T15:18:16.776Z</time>
      </trkpt>
      <trkpt lat="46.48173" lon="8.26403">
        <ele>1335</ele>
        <time>2020-07-16T15:18:17.775Z</time>
      </trkpt>
      <trkpt lat="46.48174" lon="8.26403">
        <ele>1336</ele>
        <time>2020-07-16T15:18:18.775Z</time>
      </trkpt>
      <trkpt lat="46.48176" lon="8.26402">
        <ele>1336</ele>
        <time>2020-07-16T15:18:19.776Z</time>
      </trkpt>
      <trkpt lat="46.48177" lon="8.26403">
        <ele>1336</ele>
        <time>2020-07-16T15:18:20.775Z</time>
      </trkpt>
      <trkpt lat="46.48178" lon="8.26404">
        <ele>1336</ele>
        <time>2020-07-16T15:18:21.776Z</time>
      </trkpt>
      <trkpt lat="46.48179" lon="8.26404">
        <ele>1337</ele>
        <time>2020-07-16T15:18:22.775Z</time>
      </trkpt>
      <trkpt lat="46.48181" lon="8.26405">
        <ele>1337</ele>
        <time>2020-07-16T15:18:23.776Z</time>
      </trkpt>
      <trkpt lat="46.48183" lon="8.26407">
        <ele>1337</ele>
        <time>2020-07-16T15:18:24.775Z</time>
      </trkpt>
      <trkpt lat="46.48183" lon="8.26408">
        <ele>1337</ele>
        <time>2020-07-16T15:18:25.776Z</time>
      </trkpt>
      <trkpt lat="46.48184" lon="8.26409">
        <ele>1337</ele>
        <time>2020-07-16T15:18:26.775Z</time>
      </trkpt>
      <trkpt lat="46.48185" lon="8.2641">
        <ele>1337</ele>
        <time>2020-07-16T15:18:27.776Z</time>
      </trkpt>
      <trkpt lat="46.48187" lon="8.26411">
        <ele>1337</ele>
        <time>2020-07-16T15:18:28.776Z</time>
      </trkpt>
      <trkpt lat="46.48187" lon="8.26412">
        <ele>1337</ele>
        <time>2020-07-16T15:18:29.776Z</time>
      </trkpt>
      <trkpt lat="46.48188" lon="8.26413">
        <ele>1336</ele>
        <time>2020-07-16T15:18:30.775Z</time>
      </trkpt>
      <trkpt lat="46.48189" lon="8.26413">
        <ele>1336</ele>
        <time>2020-07-16T15:18:31.775Z</time>
      </trkpt>
      <trkpt lat="46.4819" lon="8.26414">
        <ele>1336</ele>
        <time>2020-07-16T15:18:32.775Z</time>
      </trkpt>
      <trkpt lat="46.48191" lon="8.26415">
        <ele>1336</ele>
        <time>2020-07-16T15:18:35.876Z</time>
      </trkpt>
      <trkpt lat="46.48191" lon="8.26415">
        <ele>1335</ele>
        <time>2020-07-16T15:18:36.875Z</time>
      </trkpt>
      <trkpt lat="46.48192" lon="8.26416">
        <ele>1335</ele>
        <time>2020-07-16T15:18:37.876Z</time>
      </trkpt>
      <trkpt lat="46.48193" lon="8.26416">
        <ele>1335</ele>
        <time>2020-07-16T15:18:38.876Z</time>
      </trkpt>
      <trkpt lat="46.48193" lon="8.26417">
        <ele>1335</ele>
        <time>2020-07-16T15:18:39.875Z</time>
      </trkpt>
      <trkpt lat="46.48194" lon="8.26418">
        <ele>1334</ele>
        <time>2020-07-16T15:18:40.876Z</time>
      </trkpt>
      <trkpt lat="46.48195" lon="8.26419">
        <ele>1334</ele>
        <time>2020-07-16T15:18:41.876Z</time>
      </trkpt>
      <trkpt lat="46.48196" lon="8.2642">
        <ele>1334</ele>
        <time>2020-07-16T15:18:42.876Z</time>
      </trkpt>
      <trkpt lat="46.48197" lon="8.26421">
        <ele>1334</ele>
        <time>2020-07-16T15:18:43.875Z</time>
      </trkpt>
      <trkpt lat="46.48197" lon="8.26422">
        <ele>1334</ele>
        <time>2020-07-16T15:18:44.876Z</time>
      </trkpt>
      <trkpt lat="46.48198" lon="8.26423">
        <ele>1334</ele>
        <time>2020-07-16T15:18:45.875Z</time>
      </trkpt>
      <trkpt lat="46.48198" lon="8.26424">
        <ele>1334</ele>
        <time>2020-07-16T15:18:46.876Z</time>
      </trkpt>
      <trkpt lat="46.48199" lon="8.26425">
        <ele>1334</ele>
        <time>2020-07-16T15:18:47.876Z</time>
      </trkpt>
      <trkpt lat="46.482" lon="8.26426">
        <ele>1333</ele>
        <time>2020-07-16T15:18:48.876Z</time>
      </trkpt>
      <trkpt lat="46.48201" lon="8.26426">
        <ele>1333</ele>
        <time>2020-07-16T15:18:49.876Z</time>
      </trkpt>
      <trkpt lat="46.48202" lon="8.26427">
        <ele>1333</ele>
        <time>2020-07-16T15:18:50.876Z</time>
      </trkpt>
      <trkpt lat="46.48203" lon="8.26428">
        <ele>1333</ele>
        <time>2020-07-16T15:18:51.876Z</time>
      </trkpt>
      <trkpt lat="46.48203" lon="8.26429">
        <ele>1333</ele>
        <time>2020-07-16T15:18:52.876Z</time>
      </trkpt>
      <trkpt lat="46.48204" lon="8.2643">
        <ele>1333</ele>
        <time>2020-07-16T15:18:53.875Z</time>
      </trkpt>
      <trkpt lat="46.48205" lon="8.26431">
        <ele>1332</ele>
        <time>2020-07-16T15:18:54.876Z</time>
      </trkpt>
      <trkpt lat="46.48205" lon="8.26432">
        <ele>1332</ele>
        <time>2020-07-16T15:18:55.876Z</time>
      </trkpt>
      <trkpt lat="46.48206" lon="8.26433">
        <ele>1332</ele>
        <time>2020-07-16T15:18:56.876Z</time>
      </trkpt>
      <trkpt lat="46.48207" lon="8.26433">
        <ele>1333</ele>
        <time>2020-07-16T15:18:57.876Z</time>
      </trkpt>
      <trkpt lat="46.48209" lon="8.26434">
        <ele>1333</ele>
        <time>2020-07-16T15:18:58.875Z</time>
      </trkpt>
      <trkpt lat="46.4821" lon="8.26434">
        <ele>1333</ele>
        <time>2020-07-16T15:18:59.875Z</time>
      </trkpt>
      <trkpt lat="46.48211" lon="8.26434">
        <ele>1334</ele>
        <time>2020-07-16T15:19:00.876Z</time>
      </trkpt>
      <trkpt lat="46.48213" lon="8.26434">
        <ele>1334</ele>
        <time>2020-07-16T15:19:01.876Z</time>
      </trkpt>
      <trkpt lat="46.48213" lon="8.26434">
        <ele>1334</ele>
        <time>2020-07-16T15:19:02.875Z</time>
      </trkpt>
      <trkpt lat="46.48214" lon="8.26434">
        <ele>1334</ele>
        <time>2020-07-16T15:19:03.876Z</time>
      </trkpt>
      <trkpt lat="46.48215" lon="8.26435">
        <ele>1334</ele>
        <time>2020-07-16T15:19:04.876Z</time>
      </trkpt>
      <trkpt lat="46.48217" lon="8.26435">
        <ele>1335</ele>
        <time>2020-07-16T15:19:05.875Z</time>
      </trkpt>
      <trkpt lat="46.48218" lon="8.26435">
        <ele>1335</ele>
        <time>2020-07-16T15:19:06.875Z</time>
      </trkpt>
      <trkpt lat="46.48219" lon="8.26435">
        <ele>1335</ele>
        <time>2020-07-16T15:19:07.875Z</time>
      </trkpt>
      <trkpt lat="46.4822" lon="8.26435">
        <ele>1334</ele>
        <time>2020-07-16T15:19:08.876Z</time>
      </trkpt>
      <trkpt lat="46.48221" lon="8.26435">
        <ele>1334</ele>
        <time>2020-07-16T15:19:09.876Z</time>
      </trkpt>
      <trkpt lat="46.48222" lon="8.26435">
        <ele>1334</ele>
        <time>2020-07-16T15:19:10.876Z</time>
      </trkpt>
      <trkpt lat="46.48223" lon="8.26436">
        <ele>1334</ele>
        <time>2020-07-16T15:19:11.876Z</time>
      </trkpt>
      <trkpt lat="46.48224" lon="8.26436">
        <ele>1334</ele>
        <time>2020-07-16T15:19:12.875Z</time>
      </trkpt>
      <trkpt lat="46.48225" lon="8.26437">
        <ele>1335</ele>
        <time>2020-07-16T15:19:13.876Z</time>
      </trkpt>
      <trkpt lat="46.48226" lon="8.26437">
        <ele>1335</ele>
        <time>2020-07-16T15:19:14.876Z</time>
      </trkpt>
      <trkpt lat="46.48227" lon="8.26438">
        <ele>1334</ele>
        <time>2020-07-16T15:19:15.876Z</time>
      </trkpt>
      <trkpt lat="46.48228" lon="8.26438">
        <ele>1334</ele>
        <time>2020-07-16T15:19:16.876Z</time>
      </trkpt>
      <trkpt lat="46.48229" lon="8.26437">
        <ele>1334</ele>
        <time>2020-07-16T15:19:17.875Z</time>
      </trkpt>
      <trkpt lat="46.4823" lon="8.26437">
        <ele>1334</ele>
        <time>2020-07-16T15:19:18.876Z</time>
      </trkpt>
      <trkpt lat="46.48231" lon="8.26437">
        <ele>1334</ele>
        <time>2020-07-16T15:19:19.876Z</time>
      </trkpt>
      <trkpt lat="46.48232" lon="8.26437">
        <ele>1334</ele>
        <time>2020-07-16T15:19:20.876Z</time>
      </trkpt>
      <trkpt lat="46.48233" lon="8.26437">
        <ele>1334</ele>
        <time>2020-07-16T15:19:21.876Z</time>
      </trkpt>
      <trkpt lat="46.48234" lon="8.26437">
        <ele>1334</ele>
        <time>2020-07-16T15:19:22.876Z</time>
      </trkpt>
      <trkpt lat="46.48235" lon="8.26437">
        <ele>1334</ele>
        <time>2020-07-16T15:19:23.875Z</time>
      </trkpt>
      <trkpt lat="46.48236" lon="8.26438">
        <ele>1335</ele>
        <time>2020-07-16T15:19:24.876Z</time>
      </trkpt>
      <trkpt lat="46.48237" lon="8.26438">
        <ele>1335</ele>
        <time>2020-07-16T15:19:25.876Z</time>
      </trkpt>
      <trkpt lat="46.48238" lon="8.26439">
        <ele>1335</ele>
        <time>2020-07-16T15:19:26.876Z</time>
      </trkpt>
      <trkpt lat="46.48239" lon="8.26439">
        <ele>1336</ele>
        <time>2020-07-16T15:19:27.876Z</time>
      </trkpt>
      <trkpt lat="46.4824" lon="8.26439">
        <ele>1336</ele>
        <time>2020-07-16T15:19:28.876Z</time>
      </trkpt>
      <trkpt lat="46.48241" lon="8.26439">
        <ele>1337</ele>
        <time>2020-07-16T15:19:29.876Z</time>
      </trkpt>
      <trkpt lat="46.48242" lon="8.26439">
        <ele>1337</ele>
        <time>2020-07-16T15:19:30.875Z</time>
      </trkpt>
      <trkpt lat="46.48243" lon="8.26439">
        <ele>1337</ele>
        <time>2020-07-16T15:19:31.875Z</time>
      </trkpt>
      <trkpt lat="46.48244" lon="8.26439">
        <ele>1337</ele>
        <time>2020-07-16T15:19:32.875Z</time>
      </trkpt>
      <trkpt lat="46.48245" lon="8.26439">
        <ele>1337</ele>
        <time>2020-07-16T15:19:33.875Z</time>
      </trkpt>
      <trkpt lat="46.48246" lon="8.2644">
        <ele>1337</ele>
        <time>2020-07-16T15:19:34.875Z</time>
      </trkpt>
      <trkpt lat="46.48248" lon="8.2644">
        <ele>1338</ele>
        <time>2020-07-16T15:19:35.876Z</time>
      </trkpt>
      <trkpt lat="46.4825" lon="8.2644">
        <ele>1339</ele>
        <time>2020-07-16T15:19:36.875Z</time>
      </trkpt>
      <trkpt lat="46.48251" lon="8.26441">
        <ele>1339</ele>
        <time>2020-07-16T15:19:37.876Z</time>
      </trkpt>
      <trkpt lat="46.48252" lon="8.26441">
        <ele>1339</ele>
        <time>2020-07-16T15:19:38.876Z</time>
      </trkpt>
      <trkpt lat="46.48253" lon="8.26441">
        <ele>1339</ele>
        <time>2020-07-16T15:19:39.876Z</time>
      </trkpt>
      <trkpt lat="46.48254" lon="8.26441">
        <ele>1339</ele>
        <time>2020-07-16T15:19:40.876Z</time>
      </trkpt>
      <trkpt lat="46.48255" lon="8.26441">
        <ele>1339</ele>
        <time>2020-07-16T15:19:41.875Z</time>
      </trkpt>
      <trkpt lat="46.48256" lon="8.26442">
        <ele>1339</ele>
        <time>2020-07-16T15:19:42.876Z</time>
      </trkpt>
      <trkpt lat="46.48257" lon="8.26442">
        <ele>1339</ele>
        <time>2020-07-16T15:19:43.876Z</time>
      </trkpt>
      <trkpt lat="46.48258" lon="8.26443">
        <ele>1339</ele>
        <time>2020-07-16T15:19:44.875Z</time>
      </trkpt>
      <trkpt lat="46.48259" lon="8.26443">
        <ele>1339</ele>
        <time>2020-07-16T15:19:45.876Z</time>
      </trkpt>
      <trkpt lat="46.4826" lon="8.26444">
        <ele>1339</ele>
        <time>2020-07-16T15:19:46.876Z</time>
      </trkpt>
      <trkpt lat="46.48261" lon="8.26445">
        <ele>1340</ele>
        <time>2020-07-16T15:19:47.876Z</time>
      </trkpt>
      <trkpt lat="46.48262" lon="8.26446">
        <ele>1340</ele>
        <time>2020-07-16T15:19:48.876Z</time>
      </trkpt>
      <trkpt lat="46.48263" lon="8.26447">
        <ele>1340</ele>
        <time>2020-07-16T15:19:49.876Z</time>
      </trkpt>
      <trkpt lat="46.48264" lon="8.26447">
        <ele>1340</ele>
        <time>2020-07-16T15:19:50.876Z</time>
      </trkpt>
      <trkpt lat="46.48265" lon="8.26448">
        <ele>1340</ele>
        <time>2020-07-16T15:19:51.876Z</time>
      </trkpt>
      <trkpt lat="46.48267" lon="8.26449">
        <ele>1340</ele>
        <time>2020-07-16T15:19:52.876Z</time>
      </trkpt>
      <trkpt lat="46.48267" lon="8.26449">
        <ele>1340</ele>
        <time>2020-07-16T15:19:53.876Z</time>
      </trkpt>
      <trkpt lat="46.48268" lon="8.26449">
        <ele>1340</ele>
        <time>2020-07-16T15:19:54.876Z</time>
      </trkpt>
      <trkpt lat="46.48269" lon="8.2645">
        <ele>1340</ele>
        <time>2020-07-16T15:19:55.876Z</time>
      </trkpt>
      <trkpt lat="46.48271" lon="8.2645">
        <ele>1340</ele>
        <time>2020-07-16T15:19:56.875Z</time>
      </trkpt>
      <trkpt lat="46.48272" lon="8.26451">
        <ele>1340</ele>
        <time>2020-07-16T15:19:57.876Z</time>
      </trkpt>
      <trkpt lat="46.48273" lon="8.26451">
        <ele>1339</ele>
        <time>2020-07-16T15:19:58.876Z</time>
      </trkpt>
      <trkpt lat="46.48274" lon="8.26451">
        <ele>1339</ele>
        <time>2020-07-16T15:19:59.875Z</time>
      </trkpt>
      <trkpt lat="46.48275" lon="8.26451">
        <ele>1339</ele>
        <time>2020-07-16T15:20:00.875Z</time>
      </trkpt>
      <trkpt lat="46.48276" lon="8.26451">
        <ele>1339</ele>
        <time>2020-07-16T15:20:01.876Z</time>
      </trkpt>
      <trkpt lat="46.48277" lon="8.26451">
        <ele>1339</ele>
        <time>2020-07-16T15:20:02.875Z</time>
      </trkpt>
      <trkpt lat="46.48278" lon="8.26451">
        <ele>1339</ele>
        <time>2020-07-16T15:20:03.876Z</time>
      </trkpt>
      <trkpt lat="46.4828" lon="8.26451">
        <ele>1339</ele>
        <time>2020-07-16T15:20:04.876Z</time>
      </trkpt>
      <trkpt lat="46.48281" lon="8.26452">
        <ele>1339</ele>
        <time>2020-07-16T15:20:05.875Z</time>
      </trkpt>
      <trkpt lat="46.48282" lon="8.26452">
        <ele>1339</ele>
        <time>2020-07-16T15:20:06.876Z</time>
      </trkpt>
      <trkpt lat="46.48283" lon="8.26452">
        <ele>1340</ele>
        <time>2020-07-16T15:20:07.875Z</time>
      </trkpt>
      <trkpt lat="46.48284" lon="8.26452">
        <ele>1340</ele>
        <time>2020-07-16T15:20:08.876Z</time>
      </trkpt>
      <trkpt lat="46.48285" lon="8.26452">
        <ele>1340</ele>
        <time>2020-07-16T15:20:09.876Z</time>
      </trkpt>
      <trkpt lat="46.48287" lon="8.26452">
        <ele>1341</ele>
        <time>2020-07-16T15:20:10.876Z</time>
      </trkpt>
      <trkpt lat="46.48288" lon="8.26452">
        <ele>1341</ele>
        <time>2020-07-16T15:20:11.876Z</time>
      </trkpt>
      <trkpt lat="46.48289" lon="8.26453">
        <ele>1341</ele>
        <time>2020-07-16T15:20:12.876Z</time>
      </trkpt>
      <trkpt lat="46.4829" lon="8.26453">
        <ele>1340</ele>
        <time>2020-07-16T15:20:13.875Z</time>
      </trkpt>
      <trkpt lat="46.48291" lon="8.26453">
        <ele>1340</ele>
        <time>2020-07-16T15:20:14.875Z</time>
      </trkpt>
      <trkpt lat="46.48292" lon="8.26454">
        <ele>1340</ele>
        <time>2020-07-16T15:20:15.876Z</time>
      </trkpt>
      <trkpt lat="46.48293" lon="8.26454">
        <ele>1340</ele>
        <time>2020-07-16T15:20:16.875Z</time>
      </trkpt>
      <trkpt lat="46.48294" lon="8.26454">
        <ele>1341</ele>
        <time>2020-07-16T15:20:17.876Z</time>
      </trkpt>
      <trkpt lat="46.48296" lon="8.26454">
        <ele>1341</ele>
        <time>2020-07-16T15:20:18.875Z</time>
      </trkpt>
      <trkpt lat="46.48297" lon="8.26455">
        <ele>1342</ele>
        <time>2020-07-16T15:20:19.876Z</time>
      </trkpt>
      <trkpt lat="46.48298" lon="8.26454">
        <ele>1342</ele>
        <time>2020-07-16T15:20:20.875Z</time>
      </trkpt>
      <trkpt lat="46.483" lon="8.26455">
        <ele>1343</ele>
        <time>2020-07-16T15:20:21.875Z</time>
      </trkpt>
      <trkpt lat="46.483" lon="8.26455">
        <ele>1343</ele>
        <time>2020-07-16T15:20:22.875Z</time>
      </trkpt>
      <trkpt lat="46.48301" lon="8.26454">
        <ele>1342</ele>
        <time>2020-07-16T15:20:23.875Z</time>
      </trkpt>
      <trkpt lat="46.48302" lon="8.26454">
        <ele>1341</ele>
        <time>2020-07-16T15:20:24.875Z</time>
      </trkpt>
      <trkpt lat="46.48304" lon="8.26454">
        <ele>1341</ele>
        <time>2020-07-16T15:20:25.875Z</time>
      </trkpt>
      <trkpt lat="46.48305" lon="8.26454">
        <ele>1341</ele>
        <time>2020-07-16T15:20:26.875Z</time>
      </trkpt>
      <trkpt lat="46.48307" lon="8.26454">
        <ele>1341</ele>
        <time>2020-07-16T15:20:27.876Z</time>
      </trkpt>
      <trkpt lat="46.48308" lon="8.26454">
        <ele>1341</ele>
        <time>2020-07-16T15:20:28.875Z</time>
      </trkpt>
      <trkpt lat="46.4831" lon="8.26454">
        <ele>1342</ele>
        <time>2020-07-16T15:20:29.875Z</time>
      </trkpt>
      <trkpt lat="46.48311" lon="8.26454">
        <ele>1341</ele>
        <time>2020-07-16T15:20:30.876Z</time>
      </trkpt>
      <trkpt lat="46.48313" lon="8.26454">
        <ele>1341</ele>
        <time>2020-07-16T15:20:31.876Z</time>
      </trkpt>
      <trkpt lat="46.48314" lon="8.26455">
        <ele>1342</ele>
        <time>2020-07-16T15:20:32.875Z</time>
      </trkpt>
      <trkpt lat="46.48316" lon="8.26455">
        <ele>1342</ele>
        <time>2020-07-16T15:20:33.876Z</time>
      </trkpt>
      <trkpt lat="46.48317" lon="8.26455">
        <ele>1342</ele>
        <time>2020-07-16T15:20:34.875Z</time>
      </trkpt>
      <trkpt lat="46.48319" lon="8.26455">
        <ele>1342</ele>
        <time>2020-07-16T15:20:35.876Z</time>
      </trkpt>
      <trkpt lat="46.4832" lon="8.26455">
        <ele>1342</ele>
        <time>2020-07-16T15:20:36.876Z</time>
      </trkpt>
      <trkpt lat="46.48321" lon="8.26455">
        <ele>1342</ele>
        <time>2020-07-16T15:20:37.875Z</time>
      </trkpt>
      <trkpt lat="46.48322" lon="8.26455">
        <ele>1342</ele>
        <time>2020-07-16T15:20:38.876Z</time>
      </trkpt>
      <trkpt lat="46.48324" lon="8.26454">
        <ele>1342</ele>
        <time>2020-07-16T15:20:39.875Z</time>
      </trkpt>
      <trkpt lat="46.48325" lon="8.26454">
        <ele>1342</ele>
        <time>2020-07-16T15:20:40.876Z</time>
      </trkpt>
      <trkpt lat="46.48326" lon="8.26454">
        <ele>1342</ele>
        <time>2020-07-16T15:20:41.876Z</time>
      </trkpt>
      <trkpt lat="46.48327" lon="8.26454">
        <ele>1342</ele>
        <time>2020-07-16T15:20:42.876Z</time>
      </trkpt>
      <trkpt lat="46.48328" lon="8.26454">
        <ele>1341</ele>
        <time>2020-07-16T15:20:43.876Z</time>
      </trkpt>
      <trkpt lat="46.48329" lon="8.26455">
        <ele>1341</ele>
        <time>2020-07-16T15:20:44.876Z</time>
      </trkpt>
      <trkpt lat="46.48329" lon="8.26455">
        <ele>1341</ele>
        <time>2020-07-16T15:20:45.876Z</time>
      </trkpt>
      <trkpt lat="46.48329" lon="8.26455">
        <ele>1341</ele>
        <time>2020-07-16T15:20:46.875Z</time>
      </trkpt>
      <trkpt lat="46.48329" lon="8.26455">
        <ele>1341</ele>
        <time>2020-07-16T15:20:47.876Z</time>
      </trkpt>
      <trkpt lat="46.48329" lon="8.26453">
        <ele>1341</ele>
        <time>2020-07-16T15:20:48.876Z</time>
      </trkpt>
      <trkpt lat="46.4833" lon="8.26454">
        <ele>1341</ele>
        <time>2020-07-16T15:20:49.878Z</time>
      </trkpt>
      <trkpt lat="46.48331" lon="8.26453">
        <ele>1341</ele>
        <time>2020-07-16T15:20:50.878Z</time>
      </trkpt>
      <trkpt lat="46.48332" lon="8.26453">
        <ele>1341</ele>
        <time>2020-07-16T15:20:51.877Z</time>
      </trkpt>
      <trkpt lat="46.48333" lon="8.26453">
        <ele>1341</ele>
        <time>2020-07-16T15:20:52.878Z</time>
      </trkpt>
      <trkpt lat="46.48334" lon="8.26453">
        <ele>1341</ele>
        <time>2020-07-16T15:20:53.878Z</time>
      </trkpt>
      <trkpt lat="46.48335" lon="8.26454">
        <ele>1341</ele>
        <time>2020-07-16T15:20:54.877Z</time>
      </trkpt>
      <trkpt lat="46.48335" lon="8.26454">
        <ele>1340</ele>
        <time>2020-07-16T15:20:55.878Z</time>
      </trkpt>
      <trkpt lat="46.48337" lon="8.26455">
        <ele>1340</ele>
        <time>2020-07-16T15:20:56.878Z</time>
      </trkpt>
      <trkpt lat="46.48338" lon="8.26455">
        <ele>1340</ele>
        <time>2020-07-16T15:20:57.877Z</time>
      </trkpt>
      <trkpt lat="46.48339" lon="8.26455">
        <ele>1340</ele>
        <time>2020-07-16T15:20:58.878Z</time>
      </trkpt>
      <trkpt lat="46.4834" lon="8.26455">
        <ele>1340</ele>
        <time>2020-07-16T15:20:59.877Z</time>
      </trkpt>
      <trkpt lat="46.48342" lon="8.26456">
        <ele>1341</ele>
        <time>2020-07-16T15:21:00.878Z</time>
      </trkpt>
      <trkpt lat="46.48342" lon="8.26456">
        <ele>1341</ele>
        <time>2020-07-16T15:21:01.878Z</time>
      </trkpt>
      <trkpt lat="46.48344" lon="8.26456">
        <ele>1342</ele>
        <time>2020-07-16T15:21:02.878Z</time>
      </trkpt>
      <trkpt lat="46.48345" lon="8.26456">
        <ele>1342</ele>
        <time>2020-07-16T15:21:03.878Z</time>
      </trkpt>
      <trkpt lat="46.48346" lon="8.26456">
        <ele>1342</ele>
        <time>2020-07-16T15:21:04.878Z</time>
      </trkpt>
      <trkpt lat="46.48347" lon="8.26456">
        <ele>1342</ele>
        <time>2020-07-16T15:21:05.877Z</time>
      </trkpt>
      <trkpt lat="46.48348" lon="8.26456">
        <ele>1342</ele>
        <time>2020-07-16T15:21:06.878Z</time>
      </trkpt>
      <trkpt lat="46.4835" lon="8.26456">
        <ele>1342</ele>
        <time>2020-07-16T15:21:07.878Z</time>
      </trkpt>
      <trkpt lat="46.48351" lon="8.26456">
        <ele>1342</ele>
        <time>2020-07-16T15:21:08.878Z</time>
      </trkpt>
      <trkpt lat="46.48352" lon="8.26456">
        <ele>1342</ele>
        <time>2020-07-16T15:21:09.878Z</time>
      </trkpt>
      <trkpt lat="46.48353" lon="8.26456">
        <ele>1343</ele>
        <time>2020-07-16T15:21:10.877Z</time>
      </trkpt>
      <trkpt lat="46.48354" lon="8.26456">
        <ele>1343</ele>
        <time>2020-07-16T15:21:11.877Z</time>
      </trkpt>
      <trkpt lat="46.48355" lon="8.26456">
        <ele>1342</ele>
        <time>2020-07-16T15:21:12.877Z</time>
      </trkpt>
      <trkpt lat="46.48356" lon="8.26457">
        <ele>1343</ele>
        <time>2020-07-16T15:21:13.878Z</time>
      </trkpt>
      <trkpt lat="46.48357" lon="8.26457">
        <ele>1343</ele>
        <time>2020-07-16T15:21:14.878Z</time>
      </trkpt>
      <trkpt lat="46.48359" lon="8.26457">
        <ele>1343</ele>
        <time>2020-07-16T15:21:15.878Z</time>
      </trkpt>
      <trkpt lat="46.4836" lon="8.26456">
        <ele>1343</ele>
        <time>2020-07-16T15:21:16.878Z</time>
      </trkpt>
      <trkpt lat="46.48361" lon="8.26456">
        <ele>1343</ele>
        <time>2020-07-16T15:21:17.878Z</time>
      </trkpt>
      <trkpt lat="46.48363" lon="8.26456">
        <ele>1343</ele>
        <time>2020-07-16T15:21:18.878Z</time>
      </trkpt>
      <trkpt lat="46.48364" lon="8.26456">
        <ele>1343</ele>
        <time>2020-07-16T15:21:19.878Z</time>
      </trkpt>
      <trkpt lat="46.48365" lon="8.26456">
        <ele>1343</ele>
        <time>2020-07-16T15:21:20.877Z</time>
      </trkpt>
      <trkpt lat="46.48366" lon="8.26457">
        <ele>1343</ele>
        <time>2020-07-16T15:21:21.878Z</time>
      </trkpt>
      <trkpt lat="46.48367" lon="8.26457">
        <ele>1344</ele>
        <time>2020-07-16T15:21:22.878Z</time>
      </trkpt>
      <trkpt lat="46.48368" lon="8.26457">
        <ele>1344</ele>
        <time>2020-07-16T15:21:23.878Z</time>
      </trkpt>
      <trkpt lat="46.4837" lon="8.26457">
        <ele>1344</ele>
        <time>2020-07-16T15:21:24.878Z</time>
      </trkpt>
      <trkpt lat="46.48371" lon="8.26457">
        <ele>1344</ele>
        <time>2020-07-16T15:21:25.877Z</time>
      </trkpt>
      <trkpt lat="46.48372" lon="8.26457">
        <ele>1344</ele>
        <time>2020-07-16T15:21:26.878Z</time>
      </trkpt>
      <trkpt lat="46.48374" lon="8.26457">
        <ele>1344</ele>
        <time>2020-07-16T15:21:27.877Z</time>
      </trkpt>
      <trkpt lat="46.48375" lon="8.26458">
        <ele>1344</ele>
        <time>2020-07-16T15:21:28.878Z</time>
      </trkpt>
      <trkpt lat="46.48376" lon="8.26458">
        <ele>1344</ele>
        <time>2020-07-16T15:21:29.878Z</time>
      </trkpt>
      <trkpt lat="46.48377" lon="8.26459">
        <ele>1345</ele>
        <time>2020-07-16T15:21:30.877Z</time>
      </trkpt>
      <trkpt lat="46.48379" lon="8.26459">
        <ele>1345</ele>
        <time>2020-07-16T15:21:31.878Z</time>
      </trkpt>
      <trkpt lat="46.4838" lon="8.26459">
        <ele>1345</ele>
        <time>2020-07-16T15:21:32.878Z</time>
      </trkpt>
      <trkpt lat="46.48381" lon="8.26459">
        <ele>1345</ele>
        <time>2020-07-16T15:21:33.878Z</time>
      </trkpt>
      <trkpt lat="46.48382" lon="8.2646">
        <ele>1346</ele>
        <time>2020-07-16T15:21:34.877Z</time>
      </trkpt>
      <trkpt lat="46.48383" lon="8.2646">
        <ele>1346</ele>
        <time>2020-07-16T15:21:35.878Z</time>
      </trkpt>
      <trkpt lat="46.48384" lon="8.2646">
        <ele>1346</ele>
        <time>2020-07-16T15:21:36.877Z</time>
      </trkpt>
      <trkpt lat="46.48386" lon="8.26459">
        <ele>1347</ele>
        <time>2020-07-16T15:21:37.877Z</time>
      </trkpt>
      <trkpt lat="46.48387" lon="8.26459">
        <ele>1347</ele>
        <time>2020-07-16T15:21:38.878Z</time>
      </trkpt>
      <trkpt lat="46.48388" lon="8.26458">
        <ele>1347</ele>
        <time>2020-07-16T15:21:39.877Z</time>
      </trkpt>
      <trkpt lat="46.4839" lon="8.26458">
        <ele>1347</ele>
        <time>2020-07-16T15:21:40.878Z</time>
      </trkpt>
      <trkpt lat="46.48391" lon="8.26458">
        <ele>1347</ele>
        <time>2020-07-16T15:21:41.877Z</time>
      </trkpt>
      <trkpt lat="46.48392" lon="8.26458">
        <ele>1348</ele>
        <time>2020-07-16T15:21:42.878Z</time>
      </trkpt>
      <trkpt lat="46.48393" lon="8.26458">
        <ele>1348</ele>
        <time>2020-07-16T15:21:43.878Z</time>
      </trkpt>
      <trkpt lat="46.48394" lon="8.26458">
        <ele>1349</ele>
        <time>2020-07-16T15:21:44.878Z</time>
      </trkpt>
      <trkpt lat="46.48395" lon="8.26459">
        <ele>1349</ele>
        <time>2020-07-16T15:21:45.877Z</time>
      </trkpt>
      <trkpt lat="46.48397" lon="8.26459">
        <ele>1349</ele>
        <time>2020-07-16T15:21:46.878Z</time>
      </trkpt>
      <trkpt lat="46.48398" lon="8.26459">
        <ele>1350</ele>
        <time>2020-07-16T15:21:47.878Z</time>
      </trkpt>
      <trkpt lat="46.48398" lon="8.26459">
        <ele>1350</ele>
        <time>2020-07-16T15:21:48.878Z</time>
      </trkpt>
      <trkpt lat="46.48399" lon="8.26459">
        <ele>1351</ele>
        <time>2020-07-16T15:21:49.878Z</time>
      </trkpt>
      <trkpt lat="46.484" lon="8.26459">
        <ele>1351</ele>
        <time>2020-07-16T15:21:50.877Z</time>
      </trkpt>
      <trkpt lat="46.48401" lon="8.26458">
        <ele>1351</ele>
        <time>2020-07-16T15:21:51.878Z</time>
      </trkpt>
      <trkpt lat="46.48403" lon="8.26459">
        <ele>1351</ele>
        <time>2020-07-16T15:21:52.877Z</time>
      </trkpt>
      <trkpt lat="46.48403" lon="8.26459">
        <ele>1351</ele>
        <time>2020-07-16T15:21:53.878Z</time>
      </trkpt>
      <trkpt lat="46.48404" lon="8.26459">
        <ele>1351</ele>
        <time>2020-07-16T15:21:54.878Z</time>
      </trkpt>
      <trkpt lat="46.48405" lon="8.2646">
        <ele>1351</ele>
        <time>2020-07-16T15:21:55.878Z</time>
      </trkpt>
      <trkpt lat="46.48405" lon="8.2646">
        <ele>1351</ele>
        <time>2020-07-16T15:21:56.877Z</time>
      </trkpt>
      <trkpt lat="46.48406" lon="8.2646">
        <ele>1351</ele>
        <time>2020-07-16T15:21:57.878Z</time>
      </trkpt>
      <trkpt lat="46.48407" lon="8.2646">
        <ele>1351</ele>
        <time>2020-07-16T15:21:58.877Z</time>
      </trkpt>
      <trkpt lat="46.48409" lon="8.2646">
        <ele>1351</ele>
        <time>2020-07-16T15:21:59.878Z</time>
      </trkpt>
      <trkpt lat="46.4841" lon="8.26461">
        <ele>1352</ele>
        <time>2020-07-16T15:22:00.878Z</time>
      </trkpt>
      <trkpt lat="46.48412" lon="8.26461">
        <ele>1352</ele>
        <time>2020-07-16T15:22:01.878Z</time>
      </trkpt>
      <trkpt lat="46.48413" lon="8.26461">
        <ele>1352</ele>
        <time>2020-07-16T15:22:02.878Z</time>
      </trkpt>
      <trkpt lat="46.48415" lon="8.26461">
        <ele>1352</ele>
        <time>2020-07-16T15:22:03.877Z</time>
      </trkpt>
      <trkpt lat="46.48416" lon="8.26461">
        <ele>1352</ele>
        <time>2020-07-16T15:22:04.878Z</time>
      </trkpt>
      <trkpt lat="46.48417" lon="8.26461">
        <ele>1352</ele>
        <time>2020-07-16T15:22:05.877Z</time>
      </trkpt>
      <trkpt lat="46.48418" lon="8.26461">
        <ele>1352</ele>
        <time>2020-07-16T15:22:06.878Z</time>
      </trkpt>
      <trkpt lat="46.48419" lon="8.26461">
        <ele>1353</ele>
        <time>2020-07-16T15:22:33.901Z</time>
      </trkpt>
      <trkpt lat="46.4842" lon="8.26461">
        <ele>1353</ele>
        <time>2020-07-16T15:22:34.900Z</time>
      </trkpt>
      <trkpt lat="46.48421" lon="8.26461">
        <ele>1353</ele>
        <time>2020-07-16T15:22:35.901Z</time>
      </trkpt>
      <trkpt lat="46.48422" lon="8.26461">
        <ele>1353</ele>
        <time>2020-07-16T15:22:36.900Z</time>
      </trkpt>
      <trkpt lat="46.48424" lon="8.26461">
        <ele>1353</ele>
        <time>2020-07-16T15:22:37.901Z</time>
      </trkpt>
      <trkpt lat="46.48426" lon="8.26461">
        <ele>1353</ele>
        <time>2020-07-16T15:22:38.900Z</time>
      </trkpt>
      <trkpt lat="46.48427" lon="8.26461">
        <ele>1352</ele>
        <time>2020-07-16T15:22:39.900Z</time>
      </trkpt>
      <trkpt lat="46.48428" lon="8.26461">
        <ele>1352</ele>
        <time>2020-07-16T15:22:40.901Z</time>
      </trkpt>
      <trkpt lat="46.48429" lon="8.26462">
        <ele>1352</ele>
        <time>2020-07-16T15:22:41.900Z</time>
      </trkpt>
      <trkpt lat="46.4843" lon="8.26462">
        <ele>1352</ele>
        <time>2020-07-16T15:22:42.901Z</time>
      </trkpt>
      <trkpt lat="46.48431" lon="8.26463">
        <ele>1352</ele>
        <time>2020-07-16T15:22:43.901Z</time>
      </trkpt>
      <trkpt lat="46.48432" lon="8.26464">
        <ele>1352</ele>
        <time>2020-07-16T15:22:44.900Z</time>
      </trkpt>
      <trkpt lat="46.48434" lon="8.26464">
        <ele>1353</ele>
        <time>2020-07-16T15:22:45.900Z</time>
      </trkpt>
      <trkpt lat="46.48435" lon="8.26465">
        <ele>1353</ele>
        <time>2020-07-16T15:22:46.901Z</time>
      </trkpt>
      <trkpt lat="46.48436" lon="8.26465">
        <ele>1353</ele>
        <time>2020-07-16T15:22:47.900Z</time>
      </trkpt>
      <trkpt lat="46.48437" lon="8.26466">
        <ele>1353</ele>
        <time>2020-07-16T15:22:48.901Z</time>
      </trkpt>
      <trkpt lat="46.48438" lon="8.26466">
        <ele>1353</ele>
        <time>2020-07-16T15:22:49.901Z</time>
      </trkpt>
      <trkpt lat="46.4844" lon="8.26466">
        <ele>1353</ele>
        <time>2020-07-16T15:22:50.900Z</time>
      </trkpt>
      <trkpt lat="46.48441" lon="8.26466">
        <ele>1354</ele>
        <time>2020-07-16T15:22:51.900Z</time>
      </trkpt>
      <trkpt lat="46.48442" lon="8.26466">
        <ele>1354</ele>
        <time>2020-07-16T15:22:52.901Z</time>
      </trkpt>
      <trkpt lat="46.48443" lon="8.26466">
        <ele>1354</ele>
        <time>2020-07-16T15:22:53.900Z</time>
      </trkpt>
      <trkpt lat="46.48444" lon="8.26466">
        <ele>1354</ele>
        <time>2020-07-16T15:22:54.901Z</time>
      </trkpt>
      <trkpt lat="46.48446" lon="8.26465">
        <ele>1354</ele>
        <time>2020-07-16T15:22:55.901Z</time>
      </trkpt>
      <trkpt lat="46.48447" lon="8.26465">
        <ele>1354</ele>
        <time>2020-07-16T15:22:56.901Z</time>
      </trkpt>
      <trkpt lat="46.48448" lon="8.26465">
        <ele>1353</ele>
        <time>2020-07-16T15:22:57.900Z</time>
      </trkpt>
      <trkpt lat="46.48449" lon="8.26465">
        <ele>1353</ele>
        <time>2020-07-16T15:22:58.901Z</time>
      </trkpt>
      <trkpt lat="46.48451" lon="8.26465">
        <ele>1353</ele>
        <time>2020-07-16T15:22:59.901Z</time>
      </trkpt>
      <trkpt lat="46.48453" lon="8.26464">
        <ele>1353</ele>
        <time>2020-07-16T15:23:00.900Z</time>
      </trkpt>
      <trkpt lat="46.48454" lon="8.26463">
        <ele>1352</ele>
        <time>2020-07-16T15:23:01.901Z</time>
      </trkpt>
      <trkpt lat="46.48455" lon="8.26463">
        <ele>1352</ele>
        <time>2020-07-16T15:23:02.901Z</time>
      </trkpt>
      <trkpt lat="46.48457" lon="8.26462">
        <ele>1352</ele>
        <time>2020-07-16T15:23:03.900Z</time>
      </trkpt>
      <trkpt lat="46.48458" lon="8.26462">
        <ele>1352</ele>
        <time>2020-07-16T15:23:04.900Z</time>
      </trkpt>
      <trkpt lat="46.48459" lon="8.26462">
        <ele>1353</ele>
        <time>2020-07-16T15:23:05.901Z</time>
      </trkpt>
      <trkpt lat="46.48461" lon="8.26462">
        <ele>1353</ele>
        <time>2020-07-16T15:23:15.065Z</time>
      </trkpt>
      <trkpt lat="46.48463" lon="8.26462">
        <ele>1354</ele>
        <time>2020-07-16T15:23:16.065Z</time>
      </trkpt>
      <trkpt lat="46.48463" lon="8.26462">
        <ele>1354</ele>
        <time>2020-07-16T15:23:17.065Z</time>
      </trkpt>
      <trkpt lat="46.48464" lon="8.26461">
        <ele>1355</ele>
        <time>2020-07-16T15:23:27.148Z</time>
      </trkpt>
      <trkpt lat="46.48465" lon="8.2646">
        <ele>1355</ele>
        <time>2020-07-16T15:23:28.148Z</time>
      </trkpt>
      <trkpt lat="46.48466" lon="8.26459">
        <ele>1356</ele>
        <time>2020-07-16T15:23:29.148Z</time>
      </trkpt>
      <trkpt lat="46.48467" lon="8.26457">
        <ele>1356</ele>
        <time>2020-07-16T15:23:30.148Z</time>
      </trkpt>
      <trkpt lat="46.48467" lon="8.26457">
        <ele>1356</ele>
        <time>2020-07-16T15:23:31.148Z</time>
      </trkpt>
      <trkpt lat="46.48468" lon="8.26455">
        <ele>1357</ele>
        <time>2020-07-16T15:23:32.148Z</time>
      </trkpt>
      <trkpt lat="46.48469" lon="8.26454">
        <ele>1357</ele>
        <time>2020-07-16T15:23:33.148Z</time>
      </trkpt>
      <trkpt lat="46.4847" lon="8.26453">
        <ele>1357</ele>
        <time>2020-07-16T15:23:34.148Z</time>
      </trkpt>
      <trkpt lat="46.4847" lon="8.26452">
        <ele>1358</ele>
        <time>2020-07-16T15:23:35.148Z</time>
      </trkpt>
      <trkpt lat="46.48471" lon="8.26451">
        <ele>1358</ele>
        <time>2020-07-16T15:23:36.147Z</time>
      </trkpt>
      <trkpt lat="46.48472" lon="8.26449">
        <ele>1358</ele>
        <time>2020-07-16T15:23:37.147Z</time>
      </trkpt>
      <trkpt lat="46.48472" lon="8.26448">
        <ele>1358</ele>
        <time>2020-07-16T15:23:38.148Z</time>
      </trkpt>
      <trkpt lat="46.48473" lon="8.26447">
        <ele>1359</ele>
        <time>2020-07-16T15:23:39.148Z</time>
      </trkpt>
      <trkpt lat="46.48473" lon="8.26446">
        <ele>1359</ele>
        <time>2020-07-16T15:23:40.148Z</time>
      </trkpt>
      <trkpt lat="46.48473" lon="8.26445">
        <ele>1359</ele>
        <time>2020-07-16T15:23:41.148Z</time>
      </trkpt>
      <trkpt lat="46.48474" lon="8.26444">
        <ele>1360</ele>
        <time>2020-07-16T15:23:42.148Z</time>
      </trkpt>
      <trkpt lat="46.48474" lon="8.26443">
        <ele>1360</ele>
        <time>2020-07-16T15:23:43.148Z</time>
      </trkpt>
      <trkpt lat="46.48474" lon="8.26442">
        <ele>1360</ele>
        <time>2020-07-16T15:23:44.147Z</time>
      </trkpt>
      <trkpt lat="46.48474" lon="8.2644">
        <ele>1361</ele>
        <time>2020-07-16T15:23:45.148Z</time>
      </trkpt>
      <trkpt lat="46.48475" lon="8.26439">
        <ele>1361</ele>
        <time>2020-07-16T15:23:46.147Z</time>
      </trkpt>
      <trkpt lat="46.48474" lon="8.26436">
        <ele>1361</ele>
        <time>2020-07-16T15:23:47.148Z</time>
      </trkpt>
      <trkpt lat="46.48474" lon="8.26434">
        <ele>1360</ele>
        <time>2020-07-16T15:23:48.148Z</time>
      </trkpt>
      <trkpt lat="46.48475" lon="8.26433">
        <ele>1360</ele>
        <time>2020-07-16T15:23:49.148Z</time>
      </trkpt>
      <trkpt lat="46.48476" lon="8.26432">
        <ele>1360</ele>
        <time>2020-07-16T15:23:50.148Z</time>
      </trkpt>
      <trkpt lat="46.48477" lon="8.2643">
        <ele>1360</ele>
        <time>2020-07-16T15:23:51.148Z</time>
      </trkpt>
      <trkpt lat="46.48477" lon="8.26429">
        <ele>1360</ele>
        <time>2020-07-16T15:23:52.148Z</time>
      </trkpt>
      <trkpt lat="46.48478" lon="8.26428">
        <ele>1360</ele>
        <time>2020-07-16T15:23:53.148Z</time>
      </trkpt>
      <trkpt lat="46.48478" lon="8.26426">
        <ele>1360</ele>
        <time>2020-07-16T15:23:54.147Z</time>
      </trkpt>
      <trkpt lat="46.48479" lon="8.26424">
        <ele>1360</ele>
        <time>2020-07-16T15:23:55.148Z</time>
      </trkpt>
      <trkpt lat="46.4848" lon="8.26422">
        <ele>1360</ele>
        <time>2020-07-16T15:23:56.147Z</time>
      </trkpt>
      <trkpt lat="46.48481" lon="8.26421">
        <ele>1360</ele>
        <time>2020-07-16T15:23:57.148Z</time>
      </trkpt>
      <trkpt lat="46.48481" lon="8.2642">
        <ele>1360</ele>
        <time>2020-07-16T15:23:58.148Z</time>
      </trkpt>
      <trkpt lat="46.48482" lon="8.26418">
        <ele>1360</ele>
        <time>2020-07-16T15:23:59.148Z</time>
      </trkpt>
      <trkpt lat="46.48481" lon="8.26415">
        <ele>1360</ele>
        <time>2020-07-16T15:24:00.148Z</time>
      </trkpt>
      <trkpt lat="46.48482" lon="8.26413">
        <ele>1360</ele>
        <time>2020-07-16T15:24:01.147Z</time>
      </trkpt>
      <trkpt lat="46.48482" lon="8.26412">
        <ele>1361</ele>
        <time>2020-07-16T15:24:02.148Z</time>
      </trkpt>
      <trkpt lat="46.48483" lon="8.2641">
        <ele>1361</ele>
        <time>2020-07-16T15:24:03.148Z</time>
      </trkpt>
      <trkpt lat="46.48483" lon="8.26409">
        <ele>1361</ele>
        <time>2020-07-16T15:24:04.148Z</time>
      </trkpt>
      <trkpt lat="46.48484" lon="8.26406">
        <ele>1362</ele>
        <time>2020-07-16T15:24:05.147Z</time>
      </trkpt>
      <trkpt lat="46.48485" lon="8.26404">
        <ele>1362</ele>
        <time>2020-07-16T15:24:06.148Z</time>
      </trkpt>
      <trkpt lat="46.48485" lon="8.26403">
        <ele>1362</ele>
        <time>2020-07-16T15:24:07.147Z</time>
      </trkpt>
      <trkpt lat="46.48485" lon="8.26402">
        <ele>1362</ele>
        <time>2020-07-16T15:24:08.148Z</time>
      </trkpt>
      <trkpt lat="46.48486" lon="8.264">
        <ele>1362</ele>
        <time>2020-07-16T15:24:09.148Z</time>
      </trkpt>
      <trkpt lat="46.48486" lon="8.26399">
        <ele>1362</ele>
        <time>2020-07-16T15:24:10.147Z</time>
      </trkpt>
      <trkpt lat="46.48487" lon="8.26398">
        <ele>1363</ele>
        <time>2020-07-16T15:24:11.148Z</time>
      </trkpt>
      <trkpt lat="46.48487" lon="8.26396">
        <ele>1363</ele>
        <time>2020-07-16T15:24:12.147Z</time>
      </trkpt>
      <trkpt lat="46.48488" lon="8.26395">
        <ele>1363</ele>
        <time>2020-07-16T15:24:13.148Z</time>
      </trkpt>
      <trkpt lat="46.48488" lon="8.26395">
        <ele>1363</ele>
        <time>2020-07-16T15:24:14.148Z</time>
      </trkpt>
      <trkpt lat="46.48489" lon="8.26394">
        <ele>1363</ele>
        <time>2020-07-16T15:24:15.148Z</time>
      </trkpt>
      <trkpt lat="46.48489" lon="8.26393">
        <ele>1363</ele>
        <time>2020-07-16T15:24:16.147Z</time>
      </trkpt>
      <trkpt lat="46.4849" lon="8.26392">
        <ele>1362</ele>
        <time>2020-07-16T15:24:17.147Z</time>
      </trkpt>
      <trkpt lat="46.48491" lon="8.26391">
        <ele>1361</ele>
        <time>2020-07-16T15:24:18.148Z</time>
      </trkpt>
      <trkpt lat="46.48491" lon="8.26391">
        <ele>1361</ele>
        <time>2020-07-16T15:24:19.148Z</time>
      </trkpt>
      <trkpt lat="46.48492" lon="8.2639">
        <ele>1360</ele>
        <time>2020-07-16T15:24:20.147Z</time>
      </trkpt>
      <trkpt lat="46.48493" lon="8.2639">
        <ele>1359</ele>
        <time>2020-07-16T15:24:21.147Z</time>
      </trkpt>
      <trkpt lat="46.48494" lon="8.26391">
        <ele>1358</ele>
        <time>2020-07-16T15:24:22.148Z</time>
      </trkpt>
      <trkpt lat="46.48495" lon="8.26392">
        <ele>1358</ele>
        <time>2020-07-16T15:24:23.148Z</time>
      </trkpt>
      <trkpt lat="46.48496" lon="8.26392">
        <ele>1357</ele>
        <time>2020-07-16T15:24:24.147Z</time>
      </trkpt>
      <trkpt lat="46.48497" lon="8.26393">
        <ele>1357</ele>
        <time>2020-07-16T15:24:25.148Z</time>
      </trkpt>
      <trkpt lat="46.48498" lon="8.26393">
        <ele>1356</ele>
        <time>2020-07-16T15:24:26.147Z</time>
      </trkpt>
      <trkpt lat="46.48499" lon="8.26394">
        <ele>1355</ele>
        <time>2020-07-16T15:24:27.148Z</time>
      </trkpt>
      <trkpt lat="46.485" lon="8.26394">
        <ele>1355</ele>
        <time>2020-07-16T15:24:28.148Z</time>
      </trkpt>
      <trkpt lat="46.48501" lon="8.26395">
        <ele>1354</ele>
        <time>2020-07-16T15:24:29.148Z</time>
      </trkpt>
      <trkpt lat="46.48502" lon="8.26395">
        <ele>1353</ele>
        <time>2020-07-16T15:24:30.148Z</time>
      </trkpt>
      <trkpt lat="46.48503" lon="8.26396">
        <ele>1353</ele>
        <time>2020-07-16T15:24:31.147Z</time>
      </trkpt>
      <trkpt lat="46.48504" lon="8.26397">
        <ele>1352</ele>
        <time>2020-07-16T15:24:32.148Z</time>
      </trkpt>
      <trkpt lat="46.48505" lon="8.26398">
        <ele>1352</ele>
        <time>2020-07-16T15:24:36.268Z</time>
      </trkpt>
      <trkpt lat="46.48505" lon="8.26399">
        <ele>1352</ele>
        <time>2020-07-16T15:24:37.269Z</time>
      </trkpt>
      <trkpt lat="46.48506" lon="8.26401">
        <ele>1352</ele>
        <time>2020-07-16T15:24:38.268Z</time>
      </trkpt>
      <trkpt lat="46.48506" lon="8.26402">
        <ele>1353</ele>
        <time>2020-07-16T15:24:44.269Z</time>
      </trkpt>
      <trkpt lat="46.48507" lon="8.26404">
        <ele>1353</ele>
        <time>2020-07-16T15:24:45.268Z</time>
      </trkpt>
      <trkpt lat="46.48507" lon="8.26405">
        <ele>1353</ele>
        <time>2020-07-16T15:24:46.268Z</time>
      </trkpt>
      <trkpt lat="46.48508" lon="8.26407">
        <ele>1354</ele>
        <time>2020-07-16T15:24:48.405Z</time>
      </trkpt>
      <trkpt lat="46.48509" lon="8.26408">
        <ele>1354</ele>
        <time>2020-07-16T15:24:49.405Z</time>
      </trkpt>
      <trkpt lat="46.48509" lon="8.2641">
        <ele>1355</ele>
        <time>2020-07-16T15:24:50.405Z</time>
      </trkpt>
      <trkpt lat="46.4851" lon="8.26411">
        <ele>1356</ele>
        <time>2020-07-16T15:24:51.405Z</time>
      </trkpt>
      <trkpt lat="46.4851" lon="8.26412">
        <ele>1356</ele>
        <time>2020-07-16T15:24:52.406Z</time>
      </trkpt>
      <trkpt lat="46.48511" lon="8.26414">
        <ele>1357</ele>
        <time>2020-07-16T15:24:53.406Z</time>
      </trkpt>
      <trkpt lat="46.48512" lon="8.26415">
        <ele>1357</ele>
        <time>2020-07-16T15:24:54.406Z</time>
      </trkpt>
      <trkpt lat="46.48513" lon="8.26415">
        <ele>1358</ele>
        <time>2020-07-16T15:24:55.405Z</time>
      </trkpt>
      <trkpt lat="46.48514" lon="8.26416">
        <ele>1359</ele>
        <time>2020-07-16T15:24:56.405Z</time>
      </trkpt>
      <trkpt lat="46.48515" lon="8.26417">
        <ele>1360</ele>
        <time>2020-07-16T15:24:57.405Z</time>
      </trkpt>
      <trkpt lat="46.48516" lon="8.26417">
        <ele>1360</ele>
        <time>2020-07-16T15:24:58.406Z</time>
      </trkpt>
      <trkpt lat="46.48516" lon="8.26417">
        <ele>1360</ele>
        <time>2020-07-16T15:24:59.406Z</time>
      </trkpt>
      <trkpt lat="46.48517" lon="8.26416">
        <ele>1361</ele>
        <time>2020-07-16T15:25:00.405Z</time>
      </trkpt>
      <trkpt lat="46.48517" lon="8.26415">
        <ele>1361</ele>
        <time>2020-07-16T15:25:01.405Z</time>
      </trkpt>
      <trkpt lat="46.48517" lon="8.26413">
        <ele>1362</ele>
        <time>2020-07-16T15:25:02.405Z</time>
      </trkpt>
      <trkpt lat="46.48517" lon="8.26411">
        <ele>1363</ele>
        <time>2020-07-16T15:25:03.405Z</time>
      </trkpt>
      <trkpt lat="46.48518" lon="8.26407">
        <ele>1363</ele>
        <time>2020-07-16T15:25:04.406Z</time>
      </trkpt>
      <trkpt lat="46.4852" lon="8.26406">
        <ele>1364</ele>
        <time>2020-07-16T15:25:05.405Z</time>
      </trkpt>
      <trkpt lat="46.48521" lon="8.26404">
        <ele>1364</ele>
        <time>2020-07-16T15:25:06.405Z</time>
      </trkpt>
      <trkpt lat="46.48522" lon="8.26403">
        <ele>1365</ele>
        <time>2020-07-16T15:25:07.405Z</time>
      </trkpt>
      <trkpt lat="46.48523" lon="8.26402">
        <ele>1365</ele>
        <time>2020-07-16T15:25:08.406Z</time>
      </trkpt>
      <trkpt lat="46.48523" lon="8.26401">
        <ele>1366</ele>
        <time>2020-07-16T15:25:09.405Z</time>
      </trkpt>
      <trkpt lat="46.48524" lon="8.264">
        <ele>1366</ele>
        <time>2020-07-16T15:25:10.405Z</time>
      </trkpt>
      <trkpt lat="46.48525" lon="8.26398">
        <ele>1367</ele>
        <time>2020-07-16T15:25:11.405Z</time>
      </trkpt>
      <trkpt lat="46.48527" lon="8.26397">
        <ele>1368</ele>
        <time>2020-07-16T15:25:12.405Z</time>
      </trkpt>
      <trkpt lat="46.48528" lon="8.26395">
        <ele>1369</ele>
        <time>2020-07-16T15:25:13.406Z</time>
      </trkpt>
      <trkpt lat="46.48529" lon="8.26394">
        <ele>1369</ele>
        <time>2020-07-16T15:25:14.406Z</time>
      </trkpt>
      <trkpt lat="46.4853" lon="8.26394">
        <ele>1370</ele>
        <time>2020-07-16T15:25:15.405Z</time>
      </trkpt>
      <trkpt lat="46.4853" lon="8.26394">
        <ele>1370</ele>
        <time>2020-07-16T15:25:16.405Z</time>
      </trkpt>
      <trkpt lat="46.48531" lon="8.26393">
        <ele>1370</ele>
        <time>2020-07-16T15:25:17.405Z</time>
      </trkpt>
      <trkpt lat="46.48532" lon="8.26392">
        <ele>1370</ele>
        <time>2020-07-16T15:25:18.406Z</time>
      </trkpt>
      <trkpt lat="46.48533" lon="8.26392">
        <ele>1370</ele>
        <time>2020-07-16T15:25:19.406Z</time>
      </trkpt>
      <trkpt lat="46.48533" lon="8.26392">
        <ele>1370</ele>
        <time>2020-07-16T15:25:20.405Z</time>
      </trkpt>
      <trkpt lat="46.48534" lon="8.26391">
        <ele>1370</ele>
        <time>2020-07-16T15:25:21.405Z</time>
      </trkpt>
      <trkpt lat="46.48534" lon="8.2639">
        <ele>1370</ele>
        <time>2020-07-16T15:25:22.406Z</time>
      </trkpt>
      <trkpt lat="46.48535" lon="8.2639">
        <ele>1369</ele>
        <time>2020-07-16T15:25:23.406Z</time>
      </trkpt>
      <trkpt lat="46.48536" lon="8.26389">
        <ele>1369</ele>
        <time>2020-07-16T15:25:24.405Z</time>
      </trkpt>
      <trkpt lat="46.48537" lon="8.26389">
        <ele>1369</ele>
        <time>2020-07-16T15:25:25.405Z</time>
      </trkpt>
      <trkpt lat="46.48538" lon="8.26388">
        <ele>1368</ele>
        <time>2020-07-16T15:25:26.405Z</time>
      </trkpt>
      <trkpt lat="46.4854" lon="8.26387">
        <ele>1367</ele>
        <time>2020-07-16T15:25:27.405Z</time>
      </trkpt>
      <trkpt lat="46.48542" lon="8.26387">
        <ele>1367</ele>
        <time>2020-07-16T15:25:28.405Z</time>
      </trkpt>
      <trkpt lat="46.48543" lon="8.26386">
        <ele>1367</ele>
        <time>2020-07-16T15:25:29.405Z</time>
      </trkpt>
      <trkpt lat="46.48544" lon="8.26386">
        <ele>1367</ele>
        <time>2020-07-16T15:25:30.405Z</time>
      </trkpt>
      <trkpt lat="46.48545" lon="8.26385">
        <ele>1367</ele>
        <time>2020-07-16T15:25:31.405Z</time>
      </trkpt>
      <trkpt lat="46.48546" lon="8.26385">
        <ele>1367</ele>
        <time>2020-07-16T15:25:32.405Z</time>
      </trkpt>
      <trkpt lat="46.48546" lon="8.26384">
        <ele>1367</ele>
        <time>2020-07-16T15:25:33.405Z</time>
      </trkpt>
      <trkpt lat="46.48547" lon="8.26384">
        <ele>1366</ele>
        <time>2020-07-16T15:25:34.406Z</time>
      </trkpt>
      <trkpt lat="46.48548" lon="8.26383">
        <ele>1366</ele>
        <time>2020-07-16T15:25:35.406Z</time>
      </trkpt>
      <trkpt lat="46.48549" lon="8.26383">
        <ele>1366</ele>
        <time>2020-07-16T15:25:36.406Z</time>
      </trkpt>
      <trkpt lat="46.4855" lon="8.26382">
        <ele>1366</ele>
        <time>2020-07-16T15:25:37.406Z</time>
      </trkpt>
      <trkpt lat="46.48552" lon="8.26381">
        <ele>1366</ele>
        <time>2020-07-16T15:25:38.405Z</time>
      </trkpt>
      <trkpt lat="46.48554" lon="8.26381">
        <ele>1366</ele>
        <time>2020-07-16T15:25:39.405Z</time>
      </trkpt>
      <trkpt lat="46.48555" lon="8.2638">
        <ele>1367</ele>
        <time>2020-07-16T15:25:40.406Z</time>
      </trkpt>
      <trkpt lat="46.48556" lon="8.26379">
        <ele>1367</ele>
        <time>2020-07-16T15:25:41.406Z</time>
      </trkpt>
      <trkpt lat="46.48557" lon="8.26378">
        <ele>1367</ele>
        <time>2020-07-16T15:25:42.405Z</time>
      </trkpt>
      <trkpt lat="46.48558" lon="8.26377">
        <ele>1367</ele>
        <time>2020-07-16T15:25:43.406Z</time>
      </trkpt>
      <trkpt lat="46.4856" lon="8.26377">
        <ele>1368</ele>
        <time>2020-07-16T15:25:44.406Z</time>
      </trkpt>
      <trkpt lat="46.48562" lon="8.26376">
        <ele>1368</ele>
        <time>2020-07-16T15:25:45.406Z</time>
      </trkpt>
      <trkpt lat="46.48563" lon="8.26375">
        <ele>1369</ele>
        <time>2020-07-16T15:25:46.406Z</time>
      </trkpt>
      <trkpt lat="46.48564" lon="8.26374">
        <ele>1369</ele>
        <time>2020-07-16T15:25:47.406Z</time>
      </trkpt>
      <trkpt lat="46.48564" lon="8.26373">
        <ele>1369</ele>
        <time>2020-07-16T15:25:48.406Z</time>
      </trkpt>
      <trkpt lat="46.48565" lon="8.26373">
        <ele>1369</ele>
        <time>2020-07-16T15:25:49.406Z</time>
      </trkpt>
      <trkpt lat="46.48566" lon="8.26372">
        <ele>1369</ele>
        <time>2020-07-16T15:25:50.406Z</time>
      </trkpt>
      <trkpt lat="46.48567" lon="8.26372">
        <ele>1369</ele>
        <time>2020-07-16T15:25:51.406Z</time>
      </trkpt>
      <trkpt lat="46.48568" lon="8.26371">
        <ele>1369</ele>
        <time>2020-07-16T15:25:52.406Z</time>
      </trkpt>
      <trkpt lat="46.48569" lon="8.2637">
        <ele>1368</ele>
        <time>2020-07-16T15:25:53.405Z</time>
      </trkpt>
      <trkpt lat="46.48569" lon="8.26369">
        <ele>1368</ele>
        <time>2020-07-16T15:25:54.405Z</time>
      </trkpt>
      <trkpt lat="46.4857" lon="8.26369">
        <ele>1367</ele>
        <time>2020-07-16T15:25:55.405Z</time>
      </trkpt>
      <trkpt lat="46.48571" lon="8.26368">
        <ele>1367</ele>
        <time>2020-07-16T15:25:56.406Z</time>
      </trkpt>
      <trkpt lat="46.48572" lon="8.26367">
        <ele>1367</ele>
        <time>2020-07-16T15:25:57.405Z</time>
      </trkpt>
      <trkpt lat="46.48572" lon="8.26367">
        <ele>1367</ele>
        <time>2020-07-16T15:25:58.406Z</time>
      </trkpt>
      <trkpt lat="46.48573" lon="8.26367">
        <ele>1367</ele>
        <time>2020-07-16T15:25:59.406Z</time>
      </trkpt>
      <trkpt lat="46.48573" lon="8.26367">
        <ele>1367</ele>
        <time>2020-07-16T15:26:00.406Z</time>
      </trkpt>
      <trkpt lat="46.48574" lon="8.26367">
        <ele>1367</ele>
        <time>2020-07-16T15:26:01.405Z</time>
      </trkpt>
      <trkpt lat="46.48575" lon="8.26367">
        <ele>1367</ele>
        <time>2020-07-16T15:26:02.406Z</time>
      </trkpt>
      <trkpt lat="46.48576" lon="8.26367">
        <ele>1367</ele>
        <time>2020-07-16T15:26:03.406Z</time>
      </trkpt>
      <trkpt lat="46.48577" lon="8.26367">
        <ele>1366</ele>
        <time>2020-07-16T15:26:04.405Z</time>
      </trkpt>
      <trkpt lat="46.48578" lon="8.26368">
        <ele>1367</ele>
        <time>2020-07-16T15:26:05.405Z</time>
      </trkpt>
      <trkpt lat="46.48579" lon="8.26368">
        <ele>1366</ele>
        <time>2020-07-16T15:26:06.406Z</time>
      </trkpt>
      <trkpt lat="46.48579" lon="8.26368">
        <ele>1366</ele>
        <time>2020-07-16T15:26:07.406Z</time>
      </trkpt>
      <trkpt lat="46.4858" lon="8.26369">
        <ele>1366</ele>
        <time>2020-07-16T15:26:08.406Z</time>
      </trkpt>
      <trkpt lat="46.48581" lon="8.26368">
        <ele>1366</ele>
        <time>2020-07-16T15:26:09.405Z</time>
      </trkpt>
      <trkpt lat="46.48582" lon="8.26367">
        <ele>1366</ele>
        <time>2020-07-16T15:26:10.406Z</time>
      </trkpt>
      <trkpt lat="46.48583" lon="8.26367">
        <ele>1366</ele>
        <time>2020-07-16T15:26:11.405Z</time>
      </trkpt>
      <trkpt lat="46.48584" lon="8.26367">
        <ele>1367</ele>
        <time>2020-07-16T15:26:12.406Z</time>
      </trkpt>
      <trkpt lat="46.48584" lon="8.26366">
        <ele>1367</ele>
        <time>2020-07-16T15:26:13.405Z</time>
      </trkpt>
      <trkpt lat="46.48585" lon="8.26367">
        <ele>1367</ele>
        <time>2020-07-16T15:26:14.405Z</time>
      </trkpt>
      <trkpt lat="46.48586" lon="8.26367">
        <ele>1368</ele>
        <time>2020-07-16T15:26:15.405Z</time>
      </trkpt>
      <trkpt lat="46.48587" lon="8.26367">
        <ele>1368</ele>
        <time>2020-07-16T15:26:16.405Z</time>
      </trkpt>
      <trkpt lat="46.48587" lon="8.26368">
        <ele>1368</ele>
        <time>2020-07-16T15:26:17.406Z</time>
      </trkpt>
      <trkpt lat="46.48588" lon="8.26367">
        <ele>1368</ele>
        <time>2020-07-16T15:26:18.406Z</time>
      </trkpt>
      <trkpt lat="46.48589" lon="8.26366">
        <ele>1368</ele>
        <time>2020-07-16T15:26:19.406Z</time>
      </trkpt>
      <trkpt lat="46.4859" lon="8.26365">
        <ele>1368</ele>
        <time>2020-07-16T15:26:20.406Z</time>
      </trkpt>
      <trkpt lat="46.48592" lon="8.26365">
        <ele>1368</ele>
        <time>2020-07-16T15:26:21.405Z</time>
      </trkpt>
      <trkpt lat="46.48593" lon="8.26364">
        <ele>1367</ele>
        <time>2020-07-16T15:26:22.406Z</time>
      </trkpt>
      <trkpt lat="46.48594" lon="8.26363">
        <ele>1367</ele>
        <time>2020-07-16T15:26:23.406Z</time>
      </trkpt>
      <trkpt lat="46.48594" lon="8.26363">
        <ele>1367</ele>
        <time>2020-07-16T15:26:24.406Z</time>
      </trkpt>
      <trkpt lat="46.48595" lon="8.26361">
        <ele>1367</ele>
        <time>2020-07-16T15:26:25.406Z</time>
      </trkpt>
      <trkpt lat="46.48596" lon="8.26361">
        <ele>1368</ele>
        <time>2020-07-16T15:26:26.406Z</time>
      </trkpt>
      <trkpt lat="46.48597" lon="8.2636">
        <ele>1368</ele>
        <time>2020-07-16T15:26:27.406Z</time>
      </trkpt>
      <trkpt lat="46.48598" lon="8.26359">
        <ele>1369</ele>
        <time>2020-07-16T15:26:28.406Z</time>
      </trkpt>
      <trkpt lat="46.48599" lon="8.26358">
        <ele>1369</ele>
        <time>2020-07-16T15:26:29.406Z</time>
      </trkpt>
      <trkpt lat="46.486" lon="8.26357">
        <ele>1369</ele>
        <time>2020-07-16T15:26:30.406Z</time>
      </trkpt>
      <trkpt lat="46.486" lon="8.26356">
        <ele>1369</ele>
        <time>2020-07-16T15:26:31.406Z</time>
      </trkpt>
      <trkpt lat="46.48601" lon="8.26354">
        <ele>1370</ele>
        <time>2020-07-16T15:26:32.405Z</time>
      </trkpt>
      <trkpt lat="46.48601" lon="8.26353">
        <ele>1370</ele>
        <time>2020-07-16T15:26:33.406Z</time>
      </trkpt>
      <trkpt lat="46.48602" lon="8.26352">
        <ele>1370</ele>
        <time>2020-07-16T15:26:34.406Z</time>
      </trkpt>
      <trkpt lat="46.48602" lon="8.26351">
        <ele>1371</ele>
        <time>2020-07-16T15:26:35.406Z</time>
      </trkpt>
      <trkpt lat="46.48603" lon="8.26349">
        <ele>1372</ele>
        <time>2020-07-16T15:26:36.406Z</time>
      </trkpt>
      <trkpt lat="46.48603" lon="8.26349">
        <ele>1373</ele>
        <time>2020-07-16T15:26:37.406Z</time>
      </trkpt>
      <trkpt lat="46.48604" lon="8.26348">
        <ele>1374</ele>
        <time>2020-07-16T15:26:38.405Z</time>
      </trkpt>
      <trkpt lat="46.48605" lon="8.26347">
        <ele>1375</ele>
        <time>2020-07-16T15:26:39.405Z</time>
      </trkpt>
      <trkpt lat="46.48606" lon="8.26346">
        <ele>1375</ele>
        <time>2020-07-16T15:26:40.406Z</time>
      </trkpt>
      <trkpt lat="46.48606" lon="8.26345">
        <ele>1376</ele>
        <time>2020-07-16T15:26:41.406Z</time>
      </trkpt>
      <trkpt lat="46.48607" lon="8.26345">
        <ele>1376</ele>
        <time>2020-07-16T15:26:42.405Z</time>
      </trkpt>
      <trkpt lat="46.48608" lon="8.26344">
        <ele>1376</ele>
        <time>2020-07-16T15:26:43.405Z</time>
      </trkpt>
      <trkpt lat="46.48609" lon="8.26344">
        <ele>1376</ele>
        <time>2020-07-16T15:26:44.406Z</time>
      </trkpt>
      <trkpt lat="46.4861" lon="8.26343">
        <ele>1377</ele>
        <time>2020-07-16T15:26:45.406Z</time>
      </trkpt>
      <trkpt lat="46.48611" lon="8.26342">
        <ele>1377</ele>
        <time>2020-07-16T15:26:46.406Z</time>
      </trkpt>
      <trkpt lat="46.48611" lon="8.26342">
        <ele>1377</ele>
        <time>2020-07-16T15:26:47.406Z</time>
      </trkpt>
      <trkpt lat="46.48612" lon="8.26341">
        <ele>1377</ele>
        <time>2020-07-16T15:26:48.406Z</time>
      </trkpt>
      <trkpt lat="46.48613" lon="8.26341">
        <ele>1377</ele>
        <time>2020-07-16T15:26:49.406Z</time>
      </trkpt>
      <trkpt lat="46.48615" lon="8.2634">
        <ele>1377</ele>
        <time>2020-07-16T15:26:50.405Z</time>
      </trkpt>
      <trkpt lat="46.48616" lon="8.26339">
        <ele>1377</ele>
        <time>2020-07-16T15:26:51.406Z</time>
      </trkpt>
      <trkpt lat="46.48618" lon="8.26339">
        <ele>1377</ele>
        <time>2020-07-16T15:26:52.406Z</time>
      </trkpt>
      <trkpt lat="46.48619" lon="8.26338">
        <ele>1376</ele>
        <time>2020-07-16T15:26:53.406Z</time>
      </trkpt>
      <trkpt lat="46.4862" lon="8.26338">
        <ele>1376</ele>
        <time>2020-07-16T15:26:54.406Z</time>
      </trkpt>
      <trkpt lat="46.48622" lon="8.26338">
        <ele>1376</ele>
        <time>2020-07-16T15:26:55.406Z</time>
      </trkpt>
      <trkpt lat="46.48623" lon="8.26338">
        <ele>1376</ele>
        <time>2020-07-16T15:26:56.406Z</time>
      </trkpt>
      <trkpt lat="46.48624" lon="8.26338">
        <ele>1375</ele>
        <time>2020-07-16T15:26:57.406Z</time>
      </trkpt>
      <trkpt lat="46.48625" lon="8.26338">
        <ele>1375</ele>
        <time>2020-07-16T15:26:58.406Z</time>
      </trkpt>
      <trkpt lat="46.48626" lon="8.26338">
        <ele>1375</ele>
        <time>2020-07-16T15:26:59.405Z</time>
      </trkpt>
      <trkpt lat="46.48627" lon="8.26337">
        <ele>1374</ele>
        <time>2020-07-16T15:27:00.406Z</time>
      </trkpt>
      <trkpt lat="46.48628" lon="8.26337">
        <ele>1374</ele>
        <time>2020-07-16T15:27:01.406Z</time>
      </trkpt>
      <trkpt lat="46.48629" lon="8.26336">
        <ele>1373</ele>
        <time>2020-07-16T15:27:02.406Z</time>
      </trkpt>
      <trkpt lat="46.4863" lon="8.26336">
        <ele>1373</ele>
        <time>2020-07-16T15:27:03.406Z</time>
      </trkpt>
      <trkpt lat="46.48631" lon="8.26335">
        <ele>1373</ele>
        <time>2020-07-16T15:27:04.405Z</time>
      </trkpt>
      <trkpt lat="46.48632" lon="8.26334">
        <ele>1374</ele>
        <time>2020-07-16T15:27:05.406Z</time>
      </trkpt>
      <trkpt lat="46.48633" lon="8.26334">
        <ele>1374</ele>
        <time>2020-07-16T15:27:06.405Z</time>
      </trkpt>
      <trkpt lat="46.48634" lon="8.26334">
        <ele>1374</ele>
        <time>2020-07-16T15:27:07.406Z</time>
      </trkpt>
      <trkpt lat="46.48635" lon="8.26334">
        <ele>1375</ele>
        <time>2020-07-16T15:27:08.405Z</time>
      </trkpt>
      <trkpt lat="46.48636" lon="8.26334">
        <ele>1374</ele>
        <time>2020-07-16T15:27:09.405Z</time>
      </trkpt>
      <trkpt lat="46.48637" lon="8.26334">
        <ele>1374</ele>
        <time>2020-07-16T15:27:10.406Z</time>
      </trkpt>
      <trkpt lat="46.48638" lon="8.26334">
        <ele>1374</ele>
        <time>2020-07-16T15:27:11.406Z</time>
      </trkpt>
      <trkpt lat="46.48639" lon="8.26334">
        <ele>1374</ele>
        <time>2020-07-16T15:27:12.406Z</time>
      </trkpt>
      <trkpt lat="46.4864" lon="8.26333">
        <ele>1374</ele>
        <time>2020-07-16T15:27:13.405Z</time>
      </trkpt>
      <trkpt lat="46.48641" lon="8.26333">
        <ele>1374</ele>
        <time>2020-07-16T15:27:14.406Z</time>
      </trkpt>
      <trkpt lat="46.48642" lon="8.26333">
        <ele>1374</ele>
        <time>2020-07-16T15:27:15.406Z</time>
      </trkpt>
      <trkpt lat="46.48643" lon="8.26333">
        <ele>1374</ele>
        <time>2020-07-16T15:27:16.405Z</time>
      </trkpt>
      <trkpt lat="46.48644" lon="8.26332">
        <ele>1374</ele>
        <time>2020-07-16T15:27:17.406Z</time>
      </trkpt>
      <trkpt lat="46.48645" lon="8.26332">
        <ele>1375</ele>
        <time>2020-07-16T15:27:18.405Z</time>
      </trkpt>
      <trkpt lat="46.48646" lon="8.26332">
        <ele>1376</ele>
        <time>2020-07-16T15:27:19.405Z</time>
      </trkpt>
      <trkpt lat="46.48646" lon="8.26332">
        <ele>1376</ele>
        <time>2020-07-16T15:27:20.405Z</time>
      </trkpt>
      <trkpt lat="46.48647" lon="8.26332">
        <ele>1376</ele>
        <time>2020-07-16T15:27:21.405Z</time>
      </trkpt>
      <trkpt lat="46.48647" lon="8.26333">
        <ele>1376</ele>
        <time>2020-07-16T15:27:22.406Z</time>
      </trkpt>
      <trkpt lat="46.48647" lon="8.26335">
        <ele>1376</ele>
        <time>2020-07-16T15:27:23.405Z</time>
      </trkpt>
      <trkpt lat="46.48647" lon="8.26336">
        <ele>1376</ele>
        <time>2020-07-16T15:27:24.406Z</time>
      </trkpt>
      <trkpt lat="46.48646" lon="8.26337">
        <ele>1376</ele>
        <time>2020-07-16T15:27:25.405Z</time>
      </trkpt>
      <trkpt lat="46.48646" lon="8.26338">
        <ele>1376</ele>
        <time>2020-07-16T15:27:26.405Z</time>
      </trkpt>
      <trkpt lat="46.48647" lon="8.26339">
        <ele>1376</ele>
        <time>2020-07-16T15:27:27.406Z</time>
      </trkpt>
      <trkpt lat="46.48647" lon="8.2634">
        <ele>1376</ele>
        <time>2020-07-16T15:27:28.406Z</time>
      </trkpt>
      <trkpt lat="46.48647" lon="8.26342">
        <ele>1375</ele>
        <time>2020-07-16T15:27:29.406Z</time>
      </trkpt>
      <trkpt lat="46.48647" lon="8.26343">
        <ele>1375</ele>
        <time>2020-07-16T15:27:30.406Z</time>
      </trkpt>
      <trkpt lat="46.48647" lon="8.26345">
        <ele>1374</ele>
        <time>2020-07-16T15:27:31.406Z</time>
      </trkpt>
      <trkpt lat="46.48648" lon="8.26346">
        <ele>1374</ele>
        <time>2020-07-16T15:27:32.406Z</time>
      </trkpt>
      <trkpt lat="46.48648" lon="8.26347">
        <ele>1374</ele>
        <time>2020-07-16T15:27:33.406Z</time>
      </trkpt>
      <trkpt lat="46.48648" lon="8.26348">
        <ele>1373</ele>
        <time>2020-07-16T15:27:34.406Z</time>
      </trkpt>
      <trkpt lat="46.48648" lon="8.2635">
        <ele>1373</ele>
        <time>2020-07-16T15:27:35.406Z</time>
      </trkpt>
      <trkpt lat="46.48647" lon="8.26351">
        <ele>1373</ele>
        <time>2020-07-16T15:27:36.405Z</time>
      </trkpt>
      <trkpt lat="46.48647" lon="8.26352">
        <ele>1373</ele>
        <time>2020-07-16T15:27:37.406Z</time>
      </trkpt>
      <trkpt lat="46.48647" lon="8.26353">
        <ele>1374</ele>
        <time>2020-07-16T15:27:38.406Z</time>
      </trkpt>
      <trkpt lat="46.48647" lon="8.26354">
        <ele>1374</ele>
        <time>2020-07-16T15:27:39.405Z</time>
      </trkpt>
      <trkpt lat="46.48646" lon="8.26355">
        <ele>1374</ele>
        <time>2020-07-16T15:27:40.405Z</time>
      </trkpt>
      <trkpt lat="46.48646" lon="8.26357">
        <ele>1374</ele>
        <time>2020-07-16T15:27:41.405Z</time>
      </trkpt>
      <trkpt lat="46.48647" lon="8.26358">
        <ele>1374</ele>
        <time>2020-07-16T15:27:42.406Z</time>
      </trkpt>
      <trkpt lat="46.48647" lon="8.26359">
        <ele>1374</ele>
        <time>2020-07-16T15:27:43.406Z</time>
      </trkpt>
      <trkpt lat="46.48647" lon="8.26361">
        <ele>1374</ele>
        <time>2020-07-16T15:27:44.405Z</time>
      </trkpt>
      <trkpt lat="46.48647" lon="8.26362">
        <ele>1374</ele>
        <time>2020-07-16T15:27:45.406Z</time>
      </trkpt>
      <trkpt lat="46.48648" lon="8.26363">
        <ele>1374</ele>
        <time>2020-07-16T15:27:46.405Z</time>
      </trkpt>
      <trkpt lat="46.48648" lon="8.26364">
        <ele>1374</ele>
        <time>2020-07-16T15:27:47.405Z</time>
      </trkpt>
      <trkpt lat="46.48649" lon="8.26365">
        <ele>1374</ele>
        <time>2020-07-16T15:27:48.406Z</time>
      </trkpt>
      <trkpt lat="46.48649" lon="8.26367">
        <ele>1375</ele>
        <time>2020-07-16T15:27:49.406Z</time>
      </trkpt>
      <trkpt lat="46.48649" lon="8.26369">
        <ele>1375</ele>
        <time>2020-07-16T15:27:50.406Z</time>
      </trkpt>
      <trkpt lat="46.48649" lon="8.2637">
        <ele>1375</ele>
        <time>2020-07-16T15:27:51.405Z</time>
      </trkpt>
      <trkpt lat="46.48649" lon="8.26371">
        <ele>1375</ele>
        <time>2020-07-16T15:27:52.406Z</time>
      </trkpt>
      <trkpt lat="46.48649" lon="8.26372">
        <ele>1375</ele>
        <time>2020-07-16T15:27:53.405Z</time>
      </trkpt>
      <trkpt lat="46.4865" lon="8.26373">
        <ele>1375</ele>
        <time>2020-07-16T15:27:54.405Z</time>
      </trkpt>
      <trkpt lat="46.4865" lon="8.26374">
        <ele>1375</ele>
        <time>2020-07-16T15:27:55.406Z</time>
      </trkpt>
      <trkpt lat="46.48651" lon="8.26376">
        <ele>1375</ele>
        <time>2020-07-16T15:27:56.406Z</time>
      </trkpt>
      <trkpt lat="46.48652" lon="8.26377">
        <ele>1376</ele>
        <time>2020-07-16T15:27:57.406Z</time>
      </trkpt>
      <trkpt lat="46.48652" lon="8.26379">
        <ele>1376</ele>
        <time>2020-07-16T15:27:58.406Z</time>
      </trkpt>
      <trkpt lat="46.48653" lon="8.2638">
        <ele>1377</ele>
        <time>2020-07-16T15:27:59.406Z</time>
      </trkpt>
      <trkpt lat="46.48653" lon="8.26382">
        <ele>1377</ele>
        <time>2020-07-16T15:28:00.406Z</time>
      </trkpt>
      <trkpt lat="46.48654" lon="8.26383">
        <ele>1378</ele>
        <time>2020-07-16T15:28:01.406Z</time>
      </trkpt>
      <trkpt lat="46.48654" lon="8.26385">
        <ele>1378</ele>
        <time>2020-07-16T15:28:02.405Z</time>
      </trkpt>
      <trkpt lat="46.48655" lon="8.26386">
        <ele>1378</ele>
        <time>2020-07-16T15:28:03.405Z</time>
      </trkpt>
      <trkpt lat="46.48655" lon="8.26388">
        <ele>1378</ele>
        <time>2020-07-16T15:28:04.406Z</time>
      </trkpt>
      <trkpt lat="46.48656" lon="8.26389">
        <ele>1378</ele>
        <time>2020-07-16T15:28:05.406Z</time>
      </trkpt>
      <trkpt lat="46.48657" lon="8.2639">
        <ele>1378</ele>
        <time>2020-07-16T15:28:06.405Z</time>
      </trkpt>
      <trkpt lat="46.48657" lon="8.26392">
        <ele>1378</ele>
        <time>2020-07-16T15:28:07.406Z</time>
      </trkpt>
      <trkpt lat="46.48657" lon="8.26392">
        <ele>1378</ele>
        <time>2020-07-16T15:28:08.406Z</time>
      </trkpt>
      <trkpt lat="46.48657" lon="8.26393">
        <ele>1378</ele>
        <time>2020-07-16T15:28:09.406Z</time>
      </trkpt>
      <trkpt lat="46.48657" lon="8.26395">
        <ele>1378</ele>
        <time>2020-07-16T15:28:10.406Z</time>
      </trkpt>
      <trkpt lat="46.48658" lon="8.26396">
        <ele>1378</ele>
        <time>2020-07-16T15:28:11.405Z</time>
      </trkpt>
      <trkpt lat="46.48658" lon="8.26398">
        <ele>1379</ele>
        <time>2020-07-16T15:28:12.406Z</time>
      </trkpt>
      <trkpt lat="46.48659" lon="8.26399">
        <ele>1379</ele>
        <time>2020-07-16T15:28:13.405Z</time>
      </trkpt>
      <trkpt lat="46.48659" lon="8.26401">
        <ele>1379</ele>
        <time>2020-07-16T15:28:14.406Z</time>
      </trkpt>
      <trkpt lat="46.4866" lon="8.26403">
        <ele>1380</ele>
        <time>2020-07-16T15:28:15.406Z</time>
      </trkpt>
      <trkpt lat="46.4866" lon="8.26405">
        <ele>1380</ele>
        <time>2020-07-16T15:28:16.405Z</time>
      </trkpt>
      <trkpt lat="46.48661" lon="8.26406">
        <ele>1380</ele>
        <time>2020-07-16T15:28:17.405Z</time>
      </trkpt>
      <trkpt lat="46.48661" lon="8.26407">
        <ele>1380</ele>
        <time>2020-07-16T15:28:18.406Z</time>
      </trkpt>
      <trkpt lat="46.48662" lon="8.26408">
        <ele>1380</ele>
        <time>2020-07-16T15:28:19.406Z</time>
      </trkpt>
      <trkpt lat="46.48662" lon="8.26409">
        <ele>1380</ele>
        <time>2020-07-16T15:28:20.406Z</time>
      </trkpt>
      <trkpt lat="46.48662" lon="8.2641">
        <ele>1380</ele>
        <time>2020-07-16T15:28:21.406Z</time>
      </trkpt>
      <trkpt lat="46.48663" lon="8.26412">
        <ele>1380</ele>
        <time>2020-07-16T15:28:22.406Z</time>
      </trkpt>
      <trkpt lat="46.48665" lon="8.26413">
        <ele>1380</ele>
        <time>2020-07-16T15:28:23.406Z</time>
      </trkpt>
      <trkpt lat="46.48666" lon="8.26414">
        <ele>1381</ele>
        <time>2020-07-16T15:28:24.405Z</time>
      </trkpt>
      <trkpt lat="46.48667" lon="8.26415">
        <ele>1382</ele>
        <time>2020-07-16T15:28:25.406Z</time>
      </trkpt>
      <trkpt lat="46.48667" lon="8.26416">
        <ele>1382</ele>
        <time>2020-07-16T15:28:26.406Z</time>
      </trkpt>
      <trkpt lat="46.48668" lon="8.26417">
        <ele>1382</ele>
        <time>2020-07-16T15:28:27.406Z</time>
      </trkpt>
      <trkpt lat="46.48669" lon="8.26418">
        <ele>1382</ele>
        <time>2020-07-16T15:28:28.406Z</time>
      </trkpt>
      <trkpt lat="46.4867" lon="8.26419">
        <ele>1382</ele>
        <time>2020-07-16T15:28:29.405Z</time>
      </trkpt>
      <trkpt lat="46.48671" lon="8.26419">
        <ele>1382</ele>
        <time>2020-07-16T15:28:30.405Z</time>
      </trkpt>
      <trkpt lat="46.48672" lon="8.2642">
        <ele>1382</ele>
        <time>2020-07-16T15:28:31.406Z</time>
      </trkpt>
      <trkpt lat="46.48674" lon="8.26421">
        <ele>1382</ele>
        <time>2020-07-16T15:28:32.405Z</time>
      </trkpt>
      <trkpt lat="46.48675" lon="8.26421">
        <ele>1382</ele>
        <time>2020-07-16T15:28:33.405Z</time>
      </trkpt>
      <trkpt lat="46.48677" lon="8.26421">
        <ele>1382</ele>
        <time>2020-07-16T15:28:34.405Z</time>
      </trkpt>
      <trkpt lat="46.48678" lon="8.26422">
        <ele>1382</ele>
        <time>2020-07-16T15:28:35.406Z</time>
      </trkpt>
      <trkpt lat="46.48679" lon="8.26422">
        <ele>1382</ele>
        <time>2020-07-16T15:28:36.406Z</time>
      </trkpt>
      <trkpt lat="46.4868" lon="8.26423">
        <ele>1382</ele>
        <time>2020-07-16T15:28:37.406Z</time>
      </trkpt>
      <trkpt lat="46.48681" lon="8.26423">
        <ele>1383</ele>
        <time>2020-07-16T15:28:38.406Z</time>
      </trkpt>
      <trkpt lat="46.48682" lon="8.26423">
        <ele>1383</ele>
        <time>2020-07-16T15:28:39.406Z</time>
      </trkpt>
      <trkpt lat="46.48683" lon="8.26423">
        <ele>1383</ele>
        <time>2020-07-16T15:28:40.405Z</time>
      </trkpt>
      <trkpt lat="46.48684" lon="8.26423">
        <ele>1383</ele>
        <time>2020-07-16T15:28:41.406Z</time>
      </trkpt>
      <trkpt lat="46.48685" lon="8.26423">
        <ele>1384</ele>
        <time>2020-07-16T15:28:42.405Z</time>
      </trkpt>
      <trkpt lat="46.48686" lon="8.26423">
        <ele>1384</ele>
        <time>2020-07-16T15:28:43.405Z</time>
      </trkpt>
      <trkpt lat="46.48687" lon="8.26423">
        <ele>1384</ele>
        <time>2020-07-16T15:28:44.406Z</time>
      </trkpt>
      <trkpt lat="46.48688" lon="8.26423">
        <ele>1385</ele>
        <time>2020-07-16T15:28:45.406Z</time>
      </trkpt>
      <trkpt lat="46.48689" lon="8.26424">
        <ele>1385</ele>
        <time>2020-07-16T15:28:46.405Z</time>
      </trkpt>
      <trkpt lat="46.4869" lon="8.26424">
        <ele>1385</ele>
        <time>2020-07-16T15:28:47.406Z</time>
      </trkpt>
      <trkpt lat="46.48691" lon="8.26424">
        <ele>1386</ele>
        <time>2020-07-16T15:28:48.405Z</time>
      </trkpt>
      <trkpt lat="46.48693" lon="8.26424">
        <ele>1386</ele>
        <time>2020-07-16T15:28:49.405Z</time>
      </trkpt>
      <trkpt lat="46.48694" lon="8.26424">
        <ele>1386</ele>
        <time>2020-07-16T15:28:50.406Z</time>
      </trkpt>
      <trkpt lat="46.48695" lon="8.26424">
        <ele>1387</ele>
        <time>2020-07-16T15:28:51.405Z</time>
      </trkpt>
      <trkpt lat="46.48696" lon="8.26424">
        <ele>1388</ele>
        <time>2020-07-16T15:28:52.406Z</time>
      </trkpt>
      <trkpt lat="46.48697" lon="8.26424">
        <ele>1388</ele>
        <time>2020-07-16T15:28:53.405Z</time>
      </trkpt>
      <trkpt lat="46.48698" lon="8.26423">
        <ele>1389</ele>
        <time>2020-07-16T15:28:54.406Z</time>
      </trkpt>
      <trkpt lat="46.48699" lon="8.26423">
        <ele>1389</ele>
        <time>2020-07-16T15:28:55.405Z</time>
      </trkpt>
      <trkpt lat="46.48699" lon="8.26422">
        <ele>1390</ele>
        <time>2020-07-16T15:28:56.406Z</time>
      </trkpt>
      <trkpt lat="46.487" lon="8.26422">
        <ele>1390</ele>
        <time>2020-07-16T15:28:57.406Z</time>
      </trkpt>
      <trkpt lat="46.48701" lon="8.26421">
        <ele>1391</ele>
        <time>2020-07-16T15:28:58.406Z</time>
      </trkpt>
      <trkpt lat="46.48701" lon="8.2642">
        <ele>1391</ele>
        <time>2020-07-16T15:28:59.406Z</time>
      </trkpt>
      <trkpt lat="46.48702" lon="8.2642">
        <ele>1391</ele>
        <time>2020-07-16T15:29:00.405Z</time>
      </trkpt>
      <trkpt lat="46.48702" lon="8.2642">
        <ele>1391</ele>
        <time>2020-07-16T15:29:01.406Z</time>
      </trkpt>
      <trkpt lat="46.48701" lon="8.2642">
        <ele>1391</ele>
        <time>2020-07-16T15:29:02.406Z</time>
      </trkpt>
      <trkpt lat="46.48703" lon="8.26423">
        <ele>1392</ele>
        <time>2020-07-16T15:29:03.407Z</time>
      </trkpt>
      <trkpt lat="46.48704" lon="8.26423">
        <ele>1393</ele>
        <time>2020-07-16T15:29:11.396Z</time>
      </trkpt>
      <trkpt lat="46.48705" lon="8.26422">
        <ele>1393</ele>
        <time>2020-07-16T15:29:12.395Z</time>
      </trkpt>
      <trkpt lat="46.48705" lon="8.26421">
        <ele>1394</ele>
        <time>2020-07-16T15:29:13.395Z</time>
      </trkpt>
      <trkpt lat="46.48706" lon="8.26422">
        <ele>1395</ele>
        <time>2020-07-16T15:29:14.396Z</time>
      </trkpt>
      <trkpt lat="46.48707" lon="8.26422">
        <ele>1395</ele>
        <time>2020-07-16T15:29:25.544Z</time>
      </trkpt>
      <trkpt lat="46.48707" lon="8.26421">
        <ele>1396</ele>
        <time>2020-07-16T15:29:26.544Z</time>
      </trkpt>
      <trkpt lat="46.48708" lon="8.26421">
        <ele>1397</ele>
        <time>2020-07-16T15:29:27.543Z</time>
      </trkpt>
      <trkpt lat="46.48708" lon="8.26421">
        <ele>1397</ele>
        <time>2020-07-16T15:29:28.544Z</time>
      </trkpt>
      <trkpt lat="46.48709" lon="8.26421">
        <ele>1397</ele>
        <time>2020-07-16T15:29:29.543Z</time>
      </trkpt>
      <trkpt lat="46.4871" lon="8.26421">
        <ele>1398</ele>
        <time>2020-07-16T15:29:55.565Z</time>
      </trkpt>
      <trkpt lat="46.48711" lon="8.26421">
        <ele>1398</ele>
        <time>2020-07-16T15:29:56.565Z</time>
      </trkpt>
      <trkpt lat="46.48711" lon="8.26421">
        <ele>1398</ele>
        <time>2020-07-16T15:29:57.565Z</time>
      </trkpt>
      <trkpt lat="46.48712" lon="8.26421">
        <ele>1398</ele>
        <time>2020-07-16T15:29:58.565Z</time>
      </trkpt>
      <trkpt lat="46.48712" lon="8.26421">
        <ele>1398</ele>
        <time>2020-07-16T15:29:59.565Z</time>
      </trkpt>
      <trkpt lat="46.48713" lon="8.26421">
        <ele>1399</ele>
        <time>2020-07-16T15:30:02.504Z</time>
      </trkpt>
      <trkpt lat="46.48713" lon="8.26422">
        <ele>1399</ele>
        <time>2020-07-16T15:30:03.504Z</time>
      </trkpt>
      <trkpt lat="46.48715" lon="8.26421">
        <ele>1400</ele>
        <time>2020-07-16T15:30:04.505Z</time>
      </trkpt>
      <trkpt lat="46.48716" lon="8.26422">
        <ele>1400</ele>
        <time>2020-07-16T15:30:13.526Z</time>
      </trkpt>
      <trkpt lat="46.48716" lon="8.26422">
        <ele>1400</ele>
        <time>2020-07-16T15:30:14.526Z</time>
      </trkpt>
      <trkpt lat="46.48717" lon="8.26423">
        <ele>1400</ele>
        <time>2020-07-16T15:30:15.526Z</time>
      </trkpt>
      <trkpt lat="46.48718" lon="8.26424">
        <ele>1400</ele>
        <time>2020-07-16T15:30:16.526Z</time>
      </trkpt>
      <trkpt lat="46.4872" lon="8.26425">
        <ele>1400</ele>
        <time>2020-07-16T15:30:17.526Z</time>
      </trkpt>
      <trkpt lat="46.4872" lon="8.26426">
        <ele>1399</ele>
        <time>2020-07-16T15:30:18.526Z</time>
      </trkpt>
      <trkpt lat="46.48721" lon="8.26427">
        <ele>1399</ele>
        <time>2020-07-16T15:30:24.529Z</time>
      </trkpt>
      <trkpt lat="46.48723" lon="8.26427">
        <ele>1399</ele>
        <time>2020-07-16T15:30:25.529Z</time>
      </trkpt>
      <trkpt lat="46.48724" lon="8.26427">
        <ele>1398</ele>
        <time>2020-07-16T15:30:26.528Z</time>
      </trkpt>
      <trkpt lat="46.48725" lon="8.26427">
        <ele>1398</ele>
        <time>2020-07-16T15:30:27.529Z</time>
      </trkpt>
      <trkpt lat="46.48727" lon="8.26427">
        <ele>1398</ele>
        <time>2020-07-16T15:30:28.529Z</time>
      </trkpt>
      <trkpt lat="46.48728" lon="8.26428">
        <ele>1397</ele>
        <time>2020-07-16T15:30:29.528Z</time>
      </trkpt>
      <trkpt lat="46.48729" lon="8.26428">
        <ele>1397</ele>
        <time>2020-07-16T15:30:30.528Z</time>
      </trkpt>
      <trkpt lat="46.4873" lon="8.26427">
        <ele>1397</ele>
        <time>2020-07-16T15:30:31.528Z</time>
      </trkpt>
      <trkpt lat="46.48731" lon="8.26426">
        <ele>1397</ele>
        <time>2020-07-16T15:30:37.649Z</time>
      </trkpt>
      <trkpt lat="46.48732" lon="8.26426">
        <ele>1398</ele>
        <time>2020-07-16T15:30:38.650Z</time>
      </trkpt>
      <trkpt lat="46.48733" lon="8.26426">
        <ele>1397</ele>
        <time>2020-07-16T15:30:39.651Z</time>
      </trkpt>
      <trkpt lat="46.48733" lon="8.26426">
        <ele>1397</ele>
        <time>2020-07-16T15:30:51.791Z</time>
      </trkpt>
      <trkpt lat="46.48734" lon="8.26426">
        <ele>1397</ele>
        <time>2020-07-16T15:30:52.792Z</time>
      </trkpt>
      <trkpt lat="46.48734" lon="8.26426">
        <ele>1396</ele>
        <time>2020-07-16T15:30:53.791Z</time>
      </trkpt>
      <trkpt lat="46.48735" lon="8.26426">
        <ele>1396</ele>
        <time>2020-07-16T15:30:54.792Z</time>
      </trkpt>
      <trkpt lat="46.48738" lon="8.26426">
        <ele>1395</ele>
        <time>2020-07-16T15:30:55.793Z</time>
      </trkpt>
      <trkpt lat="46.48739" lon="8.26425">
        <ele>1395</ele>
        <time>2020-07-16T15:30:56.792Z</time>
      </trkpt>
      <trkpt lat="46.48738" lon="8.26425">
        <ele>1395</ele>
        <time>2020-07-16T15:30:57.792Z</time>
      </trkpt>
      <trkpt lat="46.48735" lon="8.26424">
        <ele>1393</ele>
        <time>2020-07-16T15:30:58.794Z</time>
      </trkpt>
      <trkpt lat="46.48734" lon="8.26424">
        <ele>1391</ele>
        <time>2020-07-16T15:30:59.795Z</time>
      </trkpt>
      <trkpt lat="46.48734" lon="8.26423">
        <ele>1391</ele>
        <time>2020-07-16T15:31:00.795Z</time>
      </trkpt>
      <trkpt lat="46.48734" lon="8.26423">
        <ele>1391</ele>
        <time>2020-07-16T15:31:01.795Z</time>
      </trkpt>
      <trkpt lat="46.48736" lon="8.26426">
        <ele>1392</ele>
        <time>2020-07-16T15:31:02.794Z</time>
      </trkpt>
      <trkpt lat="46.48736" lon="8.26427">
        <ele>1393</ele>
        <time>2020-07-16T15:31:03.794Z</time>
      </trkpt>
      <trkpt lat="46.48737" lon="8.26427">
        <ele>1393</ele>
        <time>2020-07-16T15:31:12.919Z</time>
      </trkpt>
      <trkpt lat="46.48737" lon="8.26427">
        <ele>1393</ele>
        <time>2020-07-16T15:31:13.919Z</time>
      </trkpt>
      <trkpt lat="46.48737" lon="8.26428">
        <ele>1394</ele>
        <time>2020-07-16T15:31:16.757Z</time>
      </trkpt>
      <trkpt lat="46.48738" lon="8.26428">
        <ele>1394</ele>
        <time>2020-07-16T15:31:17.757Z</time>
      </trkpt>
      <trkpt lat="46.48738" lon="8.26427">
        <ele>1395</ele>
        <time>2020-07-16T15:31:18.757Z</time>
      </trkpt>
      <trkpt lat="46.48737" lon="8.26425">
        <ele>1395</ele>
        <time>2020-07-16T15:31:19.757Z</time>
      </trkpt>
      <trkpt lat="46.48738" lon="8.26425">
        <ele>1396</ele>
        <time>2020-07-16T15:31:20.757Z</time>
      </trkpt>
      <trkpt lat="46.48739" lon="8.26425">
        <ele>1396</ele>
        <time>2020-07-16T15:31:21.757Z</time>
      </trkpt>
      <trkpt lat="46.4874" lon="8.26423">
        <ele>1397</ele>
        <time>2020-07-16T15:31:22.757Z</time>
      </trkpt>
      <trkpt lat="46.48741" lon="8.26421">
        <ele>1397</ele>
        <time>2020-07-16T15:31:23.757Z</time>
      </trkpt>
      <trkpt lat="46.48741" lon="8.26419">
        <ele>1398</ele>
        <time>2020-07-16T15:31:24.757Z</time>
      </trkpt>
      <trkpt lat="46.48741" lon="8.26417">
        <ele>1399</ele>
        <time>2020-07-16T15:31:25.757Z</time>
      </trkpt>
      <trkpt lat="46.48741" lon="8.26415">
        <ele>1400</ele>
        <time>2020-07-16T15:31:26.757Z</time>
      </trkpt>
      <trkpt lat="46.48741" lon="8.26413">
        <ele>1401</ele>
        <time>2020-07-16T15:31:27.757Z</time>
      </trkpt>
      <trkpt lat="46.48741" lon="8.26412">
        <ele>1402</ele>
        <time>2020-07-16T15:31:28.757Z</time>
      </trkpt>
      <trkpt lat="46.48741" lon="8.2641">
        <ele>1403</ele>
        <time>2020-07-16T15:31:29.757Z</time>
      </trkpt>
      <trkpt lat="46.48742" lon="8.26408">
        <ele>1403</ele>
        <time>2020-07-16T15:31:30.757Z</time>
      </trkpt>
      <trkpt lat="46.48743" lon="8.26407">
        <ele>1404</ele>
        <time>2020-07-16T15:31:31.757Z</time>
      </trkpt>
      <trkpt lat="46.48743" lon="8.26405">
        <ele>1404</ele>
        <time>2020-07-16T15:31:32.757Z</time>
      </trkpt>
      <trkpt lat="46.48744" lon="8.26403">
        <ele>1405</ele>
        <time>2020-07-16T15:31:33.757Z</time>
      </trkpt>
      <trkpt lat="46.48745" lon="8.26401">
        <ele>1405</ele>
        <time>2020-07-16T15:31:34.757Z</time>
      </trkpt>
      <trkpt lat="46.48745" lon="8.26399">
        <ele>1405</ele>
        <time>2020-07-16T15:31:35.757Z</time>
      </trkpt>
      <trkpt lat="46.48745" lon="8.26397">
        <ele>1404</ele>
        <time>2020-07-16T15:31:36.757Z</time>
      </trkpt>
      <trkpt lat="46.48746" lon="8.26396">
        <ele>1404</ele>
        <time>2020-07-16T15:31:37.757Z</time>
      </trkpt>
      <trkpt lat="46.48746" lon="8.26395">
        <ele>1403</ele>
        <time>2020-07-16T15:31:38.757Z</time>
      </trkpt>
      <trkpt lat="46.48747" lon="8.26393">
        <ele>1403</ele>
        <time>2020-07-16T15:31:39.757Z</time>
      </trkpt>
      <trkpt lat="46.48748" lon="8.26393">
        <ele>1403</ele>
        <time>2020-07-16T15:31:40.757Z</time>
      </trkpt>
      <trkpt lat="46.48749" lon="8.26392">
        <ele>1403</ele>
        <time>2020-07-16T15:31:41.757Z</time>
      </trkpt>
      <trkpt lat="46.48749" lon="8.26391">
        <ele>1403</ele>
        <time>2020-07-16T15:31:42.757Z</time>
      </trkpt>
      <trkpt lat="46.4875" lon="8.26391">
        <ele>1403</ele>
        <time>2020-07-16T15:31:43.757Z</time>
      </trkpt>
      <trkpt lat="46.48751" lon="8.2639">
        <ele>1403</ele>
        <time>2020-07-16T15:31:44.757Z</time>
      </trkpt>
      <trkpt lat="46.48751" lon="8.26389">
        <ele>1403</ele>
        <time>2020-07-16T15:31:45.757Z</time>
      </trkpt>
      <trkpt lat="46.48751" lon="8.26388">
        <ele>1404</ele>
        <time>2020-07-16T15:31:46.757Z</time>
      </trkpt>
      <trkpt lat="46.48752" lon="8.26388">
        <ele>1405</ele>
        <time>2020-07-16T15:31:47.757Z</time>
      </trkpt>
      <trkpt lat="46.48753" lon="8.26388">
        <ele>1405</ele>
        <time>2020-07-16T15:31:48.757Z</time>
      </trkpt>
      <trkpt lat="46.48753" lon="8.26388">
        <ele>1405</ele>
        <time>2020-07-16T15:31:49.757Z</time>
      </trkpt>
      <trkpt lat="46.48754" lon="8.26388">
        <ele>1405</ele>
        <time>2020-07-16T15:31:50.757Z</time>
      </trkpt>
      <trkpt lat="46.48755" lon="8.26388">
        <ele>1405</ele>
        <time>2020-07-16T15:31:51.757Z</time>
      </trkpt>
      <trkpt lat="46.48755" lon="8.26388">
        <ele>1405</ele>
        <time>2020-07-16T15:31:52.757Z</time>
      </trkpt>
      <trkpt lat="46.48756" lon="8.26388">
        <ele>1405</ele>
        <time>2020-07-16T15:31:53.757Z</time>
      </trkpt>
      <trkpt lat="46.48756" lon="8.26388">
        <ele>1405</ele>
        <time>2020-07-16T15:31:54.757Z</time>
      </trkpt>
      <trkpt lat="46.48756" lon="8.26388">
        <ele>1405</ele>
        <time>2020-07-16T15:31:55.757Z</time>
      </trkpt>
      <trkpt lat="46.48756" lon="8.26387">
        <ele>1405</ele>
        <time>2020-07-16T15:31:56.757Z</time>
      </trkpt>
    </trkseg>
  </trk>
  <trk>
    <name><![CDATA[reckingen_randonnée_2]]></name>
    <trkseg>
      <trkpt lat="46.48781" lon="8.26277">
        <ele>1401</ele>
        <time>2020-10-24T12:22:25.100Z</time>
      </trkpt>
      <trkpt lat="46.48778" lon="8.26278">
        <ele>1398</ele>
        <time>2020-10-24T12:22:26.100Z</time>
      </trkpt>
      <trkpt lat="46.48772" lon="8.26279">
        <ele>1396</ele>
        <time>2020-10-24T12:22:27.100Z</time>
      </trkpt>
      <trkpt lat="46.48769" lon="8.26277">
        <ele>1395</ele>
        <time>2020-10-24T12:22:28.100Z</time>
      </trkpt>
      <trkpt lat="46.48768" lon="8.26275">
        <ele>1394</ele>
        <time>2020-10-24T12:22:29.100Z</time>
      </trkpt>
      <trkpt lat="46.48768" lon="8.26274">
        <ele>1394</ele>
        <time>2020-10-24T12:22:30.100Z</time>
      </trkpt>
      <trkpt lat="46.48768" lon="8.26273">
        <ele>1393</ele>
        <time>2020-10-24T12:22:31.099Z</time>
      </trkpt>
      <trkpt lat="46.48768" lon="8.26273">
        <ele>1393</ele>
        <time>2020-10-24T12:22:32.100Z</time>
      </trkpt>
      <trkpt lat="46.48768" lon="8.26273">
        <ele>1393</ele>
        <time>2020-10-24T12:22:33.100Z</time>
      </trkpt>
      <trkpt lat="46.48767" lon="8.26274">
        <ele>1393</ele>
        <time>2020-10-24T12:22:34.099Z</time>
      </trkpt>
      <trkpt lat="46.48767" lon="8.26275">
        <ele>1393</ele>
        <time>2020-10-24T12:22:35.100Z</time>
      </trkpt>
      <trkpt lat="46.48767" lon="8.26275">
        <ele>1393</ele>
        <time>2020-10-24T12:22:36.099Z</time>
      </trkpt>
      <trkpt lat="46.48766" lon="8.26275">
        <ele>1393</ele>
        <time>2020-10-24T12:22:37.100Z</time>
      </trkpt>
      <trkpt lat="46.48766" lon="8.26276">
        <ele>1393</ele>
        <time>2020-10-24T12:22:38.100Z</time>
      </trkpt>
      <trkpt lat="46.48766" lon="8.26278">
        <ele>1393</ele>
        <time>2020-10-24T12:22:39.099Z</time>
      </trkpt>
      <trkpt lat="46.48766" lon="8.2628">
        <ele>1393</ele>
        <time>2020-10-24T12:22:40.100Z</time>
      </trkpt>
      <trkpt lat="46.48766" lon="8.26281">
        <ele>1393</ele>
        <time>2020-10-24T12:22:41.100Z</time>
      </trkpt>
      <trkpt lat="46.48765" lon="8.26283">
        <ele>1393</ele>
        <time>2020-10-24T12:22:42.100Z</time>
      </trkpt>
      <trkpt lat="46.48764" lon="8.26283">
        <ele>1393</ele>
        <time>2020-10-24T12:22:43.100Z</time>
      </trkpt>
      <trkpt lat="46.48762" lon="8.26284">
        <ele>1393</ele>
        <time>2020-10-24T12:22:44.099Z</time>
      </trkpt>
      <trkpt lat="46.48761" lon="8.26284">
        <ele>1393</ele>
        <time>2020-10-24T12:22:45.100Z</time>
      </trkpt>
      <trkpt lat="46.48759" lon="8.26284">
        <ele>1393</ele>
        <time>2020-10-24T12:22:46.100Z</time>
      </trkpt>
      <trkpt lat="46.48758" lon="8.26285">
        <ele>1394</ele>
        <time>2020-10-24T12:22:47.100Z</time>
      </trkpt>
      <trkpt lat="46.48756" lon="8.26286">
        <ele>1394</ele>
        <time>2020-10-24T12:22:48.100Z</time>
      </trkpt>
      <trkpt lat="46.48755" lon="8.26287">
        <ele>1394</ele>
        <time>2020-10-24T12:22:49.100Z</time>
      </trkpt>
      <trkpt lat="46.48754" lon="8.26287">
        <ele>1394</ele>
        <time>2020-10-24T12:22:50.100Z</time>
      </trkpt>
      <trkpt lat="46.48753" lon="8.26288">
        <ele>1394</ele>
        <time>2020-10-24T12:22:51.100Z</time>
      </trkpt>
      <trkpt lat="46.48752" lon="8.26288">
        <ele>1394</ele>
        <time>2020-10-24T12:22:52.100Z</time>
      </trkpt>
      <trkpt lat="46.48752" lon="8.26289">
        <ele>1394</ele>
        <time>2020-10-24T12:22:53.100Z</time>
      </trkpt>
      <trkpt lat="46.48751" lon="8.26289">
        <ele>1394</ele>
        <time>2020-10-24T12:22:54.100Z</time>
      </trkpt>
      <trkpt lat="46.48751" lon="8.26289">
        <ele>1394</ele>
        <time>2020-10-24T12:22:55.099Z</time>
      </trkpt>
      <trkpt lat="46.4875" lon="8.2629">
        <ele>1394</ele>
        <time>2020-10-24T12:22:56.100Z</time>
      </trkpt>
      <trkpt lat="46.48748" lon="8.2629">
        <ele>1394</ele>
        <time>2020-10-24T12:22:57.099Z</time>
      </trkpt>
      <trkpt lat="46.48748" lon="8.26289">
        <ele>1394</ele>
        <time>2020-10-24T12:22:58.100Z</time>
      </trkpt>
      <trkpt lat="46.48747" lon="8.26288">
        <ele>1395</ele>
        <time>2020-10-24T12:22:59.100Z</time>
      </trkpt>
      <trkpt lat="46.48746" lon="8.26287">
        <ele>1395</ele>
        <time>2020-10-24T12:23:00.100Z</time>
      </trkpt>
      <trkpt lat="46.48744" lon="8.26286">
        <ele>1395</ele>
        <time>2020-10-24T12:23:01.099Z</time>
      </trkpt>
      <trkpt lat="46.48743" lon="8.26285">
        <ele>1395</ele>
        <time>2020-10-24T12:23:02.100Z</time>
      </trkpt>
      <trkpt lat="46.48742" lon="8.26285">
        <ele>1395</ele>
        <time>2020-10-24T12:23:03.100Z</time>
      </trkpt>
      <trkpt lat="46.48741" lon="8.26285">
        <ele>1395</ele>
        <time>2020-10-24T12:23:04.100Z</time>
      </trkpt>
      <trkpt lat="46.48739" lon="8.26285">
        <ele>1395</ele>
        <time>2020-10-24T12:23:05.100Z</time>
      </trkpt>
      <trkpt lat="46.48738" lon="8.26285">
        <ele>1395</ele>
        <time>2020-10-24T12:23:06.100Z</time>
      </trkpt>
      <trkpt lat="46.48738" lon="8.26285">
        <ele>1395</ele>
        <time>2020-10-24T12:23:07.100Z</time>
      </trkpt>
      <trkpt lat="46.48737" lon="8.26286">
        <ele>1394</ele>
        <time>2020-10-24T12:23:08.099Z</time>
      </trkpt>
      <trkpt lat="46.48737" lon="8.26287">
        <ele>1394</ele>
        <time>2020-10-24T12:23:09.100Z</time>
      </trkpt>
      <trkpt lat="46.48737" lon="8.26289">
        <ele>1394</ele>
        <time>2020-10-24T12:23:10.100Z</time>
      </trkpt>
      <trkpt lat="46.48736" lon="8.2629">
        <ele>1394</ele>
        <time>2020-10-24T12:23:11.100Z</time>
      </trkpt>
      <trkpt lat="46.48736" lon="8.26292">
        <ele>1394</ele>
        <time>2020-10-24T12:23:12.100Z</time>
      </trkpt>
      <trkpt lat="46.48735" lon="8.26294">
        <ele>1394</ele>
        <time>2020-10-24T12:23:13.099Z</time>
      </trkpt>
      <trkpt lat="46.48735" lon="8.26297">
        <ele>1394</ele>
        <time>2020-10-24T12:23:14.099Z</time>
      </trkpt>
      <trkpt lat="46.48735" lon="8.26299">
        <ele>1393</ele>
        <time>2020-10-24T12:23:15.099Z</time>
      </trkpt>
      <trkpt lat="46.48734" lon="8.26301">
        <ele>1393</ele>
        <time>2020-10-24T12:23:16.100Z</time>
      </trkpt>
      <trkpt lat="46.48734" lon="8.26303">
        <ele>1392</ele>
        <time>2020-10-24T12:23:17.100Z</time>
      </trkpt>
      <trkpt lat="46.48732" lon="8.26303">
        <ele>1392</ele>
        <time>2020-10-24T12:23:18.099Z</time>
      </trkpt>
      <trkpt lat="46.48731" lon="8.26304">
        <ele>1391</ele>
        <time>2020-10-24T12:23:19.100Z</time>
      </trkpt>
      <trkpt lat="46.48729" lon="8.26304">
        <ele>1390</ele>
        <time>2020-10-24T12:23:20.100Z</time>
      </trkpt>
      <trkpt lat="46.48728" lon="8.26304">
        <ele>1389</ele>
        <time>2020-10-24T12:23:21.099Z</time>
      </trkpt>
      <trkpt lat="46.48727" lon="8.26304">
        <ele>1389</ele>
        <time>2020-10-24T12:23:22.100Z</time>
      </trkpt>
      <trkpt lat="46.48726" lon="8.26305">
        <ele>1389</ele>
        <time>2020-10-24T12:23:23.099Z</time>
      </trkpt>
      <trkpt lat="46.48724" lon="8.26305">
        <ele>1389</ele>
        <time>2020-10-24T12:23:24.099Z</time>
      </trkpt>
      <trkpt lat="46.48723" lon="8.26305">
        <ele>1388</ele>
        <time>2020-10-24T12:23:25.099Z</time>
      </trkpt>
      <trkpt lat="46.48721" lon="8.26305">
        <ele>1388</ele>
        <time>2020-10-24T12:23:26.100Z</time>
      </trkpt>
      <trkpt lat="46.4872" lon="8.26305">
        <ele>1389</ele>
        <time>2020-10-24T12:23:27.100Z</time>
      </trkpt>
      <trkpt lat="46.48718" lon="8.26304">
        <ele>1389</ele>
        <time>2020-10-24T12:23:28.099Z</time>
      </trkpt>
      <trkpt lat="46.48717" lon="8.26303">
        <ele>1389</ele>
        <time>2020-10-24T12:23:29.100Z</time>
      </trkpt>
      <trkpt lat="46.48716" lon="8.26303">
        <ele>1389</ele>
        <time>2020-10-24T12:23:30.100Z</time>
      </trkpt>
      <trkpt lat="46.48716" lon="8.26302">
        <ele>1388</ele>
        <time>2020-10-24T12:23:31.099Z</time>
      </trkpt>
      <trkpt lat="46.48714" lon="8.26303">
        <ele>1388</ele>
        <time>2020-10-24T12:23:32.100Z</time>
      </trkpt>
      <trkpt lat="46.48713" lon="8.26303">
        <ele>1387</ele>
        <time>2020-10-24T12:23:33.100Z</time>
      </trkpt>
      <trkpt lat="46.48712" lon="8.26304">
        <ele>1387</ele>
        <time>2020-10-24T12:23:34.100Z</time>
      </trkpt>
      <trkpt lat="46.48712" lon="8.26305">
        <ele>1386</ele>
        <time>2020-10-24T12:23:35.100Z</time>
      </trkpt>
      <trkpt lat="46.48712" lon="8.26306">
        <ele>1386</ele>
        <time>2020-10-24T12:23:36.099Z</time>
      </trkpt>
      <trkpt lat="46.48711" lon="8.26306">
        <ele>1385</ele>
        <time>2020-10-24T12:23:37.100Z</time>
      </trkpt>
      <trkpt lat="46.4871" lon="8.26306">
        <ele>1385</ele>
        <time>2020-10-24T12:23:38.100Z</time>
      </trkpt>
      <trkpt lat="46.4871" lon="8.26306">
        <ele>1385</ele>
        <time>2020-10-24T12:23:39.100Z</time>
      </trkpt>
      <trkpt lat="46.48709" lon="8.26306">
        <ele>1384</ele>
        <time>2020-10-24T12:23:40.100Z</time>
      </trkpt>
      <trkpt lat="46.48707" lon="8.26307">
        <ele>1384</ele>
        <time>2020-10-24T12:23:41.100Z</time>
      </trkpt>
      <trkpt lat="46.48706" lon="8.26307">
        <ele>1384</ele>
        <time>2020-10-24T12:23:42.100Z</time>
      </trkpt>
      <trkpt lat="46.48705" lon="8.26307">
        <ele>1384</ele>
        <time>2020-10-24T12:23:43.100Z</time>
      </trkpt>
      <trkpt lat="46.48704" lon="8.26306">
        <ele>1384</ele>
        <time>2020-10-24T12:23:44.099Z</time>
      </trkpt>
      <trkpt lat="46.48703" lon="8.26307">
        <ele>1385</ele>
        <time>2020-10-24T12:23:45.099Z</time>
      </trkpt>
      <trkpt lat="46.48702" lon="8.26308">
        <ele>1385</ele>
        <time>2020-10-24T12:23:46.100Z</time>
      </trkpt>
      <trkpt lat="46.48701" lon="8.26309">
        <ele>1386</ele>
        <time>2020-10-24T12:23:47.099Z</time>
      </trkpt>
      <trkpt lat="46.487" lon="8.2631">
        <ele>1386</ele>
        <time>2020-10-24T12:23:48.099Z</time>
      </trkpt>
      <trkpt lat="46.48699" lon="8.26311">
        <ele>1387</ele>
        <time>2020-10-24T12:23:49.100Z</time>
      </trkpt>
      <trkpt lat="46.48697" lon="8.26312">
        <ele>1387</ele>
        <time>2020-10-24T12:23:50.099Z</time>
      </trkpt>
      <trkpt lat="46.48696" lon="8.26313">
        <ele>1388</ele>
        <time>2020-10-24T12:23:51.100Z</time>
      </trkpt>
      <trkpt lat="46.48694" lon="8.26313">
        <ele>1388</ele>
        <time>2020-10-24T12:23:52.099Z</time>
      </trkpt>
      <trkpt lat="46.48693" lon="8.26314">
        <ele>1388</ele>
        <time>2020-10-24T12:23:53.099Z</time>
      </trkpt>
      <trkpt lat="46.48692" lon="8.26315">
        <ele>1389</ele>
        <time>2020-10-24T12:23:54.100Z</time>
      </trkpt>
      <trkpt lat="46.4869" lon="8.26315">
        <ele>1389</ele>
        <time>2020-10-24T12:23:55.099Z</time>
      </trkpt>
      <trkpt lat="46.4869" lon="8.26316">
        <ele>1390</ele>
        <time>2020-10-24T12:23:56.099Z</time>
      </trkpt>
      <trkpt lat="46.48689" lon="8.26318">
        <ele>1390</ele>
        <time>2020-10-24T12:23:57.100Z</time>
      </trkpt>
      <trkpt lat="46.48688" lon="8.26318">
        <ele>1390</ele>
        <time>2020-10-24T12:23:58.099Z</time>
      </trkpt>
      <trkpt lat="46.48688" lon="8.26319">
        <ele>1389</ele>
        <time>2020-10-24T12:23:59.099Z</time>
      </trkpt>
      <trkpt lat="46.48687" lon="8.2632">
        <ele>1389</ele>
        <time>2020-10-24T12:24:00.100Z</time>
      </trkpt>
      <trkpt lat="46.48686" lon="8.26321">
        <ele>1389</ele>
        <time>2020-10-24T12:24:01.100Z</time>
      </trkpt>
      <trkpt lat="46.48685" lon="8.2632">
        <ele>1388</ele>
        <time>2020-10-24T12:24:02.100Z</time>
      </trkpt>
      <trkpt lat="46.48684" lon="8.26319">
        <ele>1387</ele>
        <time>2020-10-24T12:24:03.100Z</time>
      </trkpt>
      <trkpt lat="46.48683" lon="8.26319">
        <ele>1387</ele>
        <time>2020-10-24T12:24:04.100Z</time>
      </trkpt>
      <trkpt lat="46.48682" lon="8.26319">
        <ele>1386</ele>
        <time>2020-10-24T12:24:05.099Z</time>
      </trkpt>
      <trkpt lat="46.48681" lon="8.26319">
        <ele>1385</ele>
        <time>2020-10-24T12:24:06.100Z</time>
      </trkpt>
      <trkpt lat="46.48679" lon="8.26319">
        <ele>1385</ele>
        <time>2020-10-24T12:24:07.100Z</time>
      </trkpt>
      <trkpt lat="46.48678" lon="8.2632">
        <ele>1385</ele>
        <time>2020-10-24T12:24:08.100Z</time>
      </trkpt>
      <trkpt lat="46.48677" lon="8.26321">
        <ele>1384</ele>
        <time>2020-10-24T12:24:09.100Z</time>
      </trkpt>
      <trkpt lat="46.48677" lon="8.26322">
        <ele>1384</ele>
        <time>2020-10-24T12:24:10.100Z</time>
      </trkpt>
      <trkpt lat="46.48676" lon="8.26323">
        <ele>1384</ele>
        <time>2020-10-24T12:24:11.100Z</time>
      </trkpt>
      <trkpt lat="46.48675" lon="8.26324">
        <ele>1384</ele>
        <time>2020-10-24T12:24:12.100Z</time>
      </trkpt>
      <trkpt lat="46.48674" lon="8.26324">
        <ele>1383</ele>
        <time>2020-10-24T12:24:13.099Z</time>
      </trkpt>
      <trkpt lat="46.48673" lon="8.26325">
        <ele>1382</ele>
        <time>2020-10-24T12:24:14.099Z</time>
      </trkpt>
      <trkpt lat="46.48672" lon="8.26325">
        <ele>1382</ele>
        <time>2020-10-24T12:24:15.099Z</time>
      </trkpt>
      <trkpt lat="46.4867" lon="8.26327">
        <ele>1381</ele>
        <time>2020-10-24T12:24:16.100Z</time>
      </trkpt>
      <trkpt lat="46.48669" lon="8.26327">
        <ele>1381</ele>
        <time>2020-10-24T12:24:17.100Z</time>
      </trkpt>
      <trkpt lat="46.48669" lon="8.26327">
        <ele>1381</ele>
        <time>2020-10-24T12:24:18.100Z</time>
      </trkpt>
      <trkpt lat="46.48668" lon="8.26328">
        <ele>1381</ele>
        <time>2020-10-24T12:24:19.099Z</time>
      </trkpt>
      <trkpt lat="46.48667" lon="8.26329">
        <ele>1380</ele>
        <time>2020-10-24T12:24:20.099Z</time>
      </trkpt>
      <trkpt lat="46.48666" lon="8.2633">
        <ele>1380</ele>
        <time>2020-10-24T12:24:21.100Z</time>
      </trkpt>
      <trkpt lat="46.48665" lon="8.2633">
        <ele>1380</ele>
        <time>2020-10-24T12:24:22.100Z</time>
      </trkpt>
      <trkpt lat="46.48664" lon="8.26331">
        <ele>1380</ele>
        <time>2020-10-24T12:24:23.100Z</time>
      </trkpt>
      <trkpt lat="46.48664" lon="8.26331">
        <ele>1380</ele>
        <time>2020-10-24T12:24:24.100Z</time>
      </trkpt>
      <trkpt lat="46.48662" lon="8.26331">
        <ele>1379</ele>
        <time>2020-10-24T12:24:25.099Z</time>
      </trkpt>
      <trkpt lat="46.48661" lon="8.26331">
        <ele>1379</ele>
        <time>2020-10-24T12:24:26.100Z</time>
      </trkpt>
      <trkpt lat="46.48659" lon="8.26331">
        <ele>1379</ele>
        <time>2020-10-24T12:24:27.099Z</time>
      </trkpt>
      <trkpt lat="46.48658" lon="8.26331">
        <ele>1378</ele>
        <time>2020-10-24T12:24:28.100Z</time>
      </trkpt>
      <trkpt lat="46.48657" lon="8.26331">
        <ele>1378</ele>
        <time>2020-10-24T12:24:29.100Z</time>
      </trkpt>
      <trkpt lat="46.48655" lon="8.2633">
        <ele>1378</ele>
        <time>2020-10-24T12:24:30.099Z</time>
      </trkpt>
      <trkpt lat="46.48653" lon="8.2633">
        <ele>1377</ele>
        <time>2020-10-24T12:24:31.099Z</time>
      </trkpt>
      <trkpt lat="46.48652" lon="8.26331">
        <ele>1377</ele>
        <time>2020-10-24T12:24:32.099Z</time>
      </trkpt>
      <trkpt lat="46.4865" lon="8.26332">
        <ele>1377</ele>
        <time>2020-10-24T12:24:33.100Z</time>
      </trkpt>
      <trkpt lat="46.48649" lon="8.26332">
        <ele>1377</ele>
        <time>2020-10-24T12:24:34.099Z</time>
      </trkpt>
      <trkpt lat="46.48647" lon="8.26334">
        <ele>1378</ele>
        <time>2020-10-24T12:24:35.099Z</time>
      </trkpt>
      <trkpt lat="46.48646" lon="8.26335">
        <ele>1378</ele>
        <time>2020-10-24T12:24:36.099Z</time>
      </trkpt>
      <trkpt lat="46.48644" lon="8.26336">
        <ele>1378</ele>
        <time>2020-10-24T12:24:37.099Z</time>
      </trkpt>
      <trkpt lat="46.48643" lon="8.26336">
        <ele>1379</ele>
        <time>2020-10-24T12:24:38.100Z</time>
      </trkpt>
      <trkpt lat="46.48641" lon="8.26336">
        <ele>1379</ele>
        <time>2020-10-24T12:24:39.099Z</time>
      </trkpt>
      <trkpt lat="46.4864" lon="8.26337">
        <ele>1379</ele>
        <time>2020-10-24T12:24:40.099Z</time>
      </trkpt>
      <trkpt lat="46.48639" lon="8.26339">
        <ele>1380</ele>
        <time>2020-10-24T12:24:41.099Z</time>
      </trkpt>
      <trkpt lat="46.48638" lon="8.2634">
        <ele>1381</ele>
        <time>2020-10-24T12:24:42.100Z</time>
      </trkpt>
      <trkpt lat="46.48638" lon="8.2634">
        <ele>1381</ele>
        <time>2020-10-24T12:24:43.100Z</time>
      </trkpt>
      <trkpt lat="46.48637" lon="8.26339">
        <ele>1382</ele>
        <time>2020-10-24T12:24:44.099Z</time>
      </trkpt>
      <trkpt lat="46.48636" lon="8.26339">
        <ele>1382</ele>
        <time>2020-10-24T12:24:45.099Z</time>
      </trkpt>
      <trkpt lat="46.48635" lon="8.2634">
        <ele>1383</ele>
        <time>2020-10-24T12:24:46.099Z</time>
      </trkpt>
      <trkpt lat="46.48634" lon="8.2634">
        <ele>1383</ele>
        <time>2020-10-24T12:24:47.099Z</time>
      </trkpt>
      <trkpt lat="46.48634" lon="8.2634">
        <ele>1383</ele>
        <time>2020-10-24T12:24:48.099Z</time>
      </trkpt>
      <trkpt lat="46.48633" lon="8.2634">
        <ele>1383</ele>
        <time>2020-10-24T12:24:49.099Z</time>
      </trkpt>
      <trkpt lat="46.48632" lon="8.26341">
        <ele>1383</ele>
        <time>2020-10-24T12:24:50.100Z</time>
      </trkpt>
      <trkpt lat="46.48631" lon="8.26341">
        <ele>1383</ele>
        <time>2020-10-24T12:24:51.099Z</time>
      </trkpt>
      <trkpt lat="46.4863" lon="8.26341">
        <ele>1383</ele>
        <time>2020-10-24T12:24:52.100Z</time>
      </trkpt>
      <trkpt lat="46.48629" lon="8.26342">
        <ele>1382</ele>
        <time>2020-10-24T12:24:53.100Z</time>
      </trkpt>
      <trkpt lat="46.48628" lon="8.26342">
        <ele>1382</ele>
        <time>2020-10-24T12:24:54.099Z</time>
      </trkpt>
      <trkpt lat="46.48627" lon="8.26342">
        <ele>1381</ele>
        <time>2020-10-24T12:24:55.100Z</time>
      </trkpt>
      <trkpt lat="46.48627" lon="8.26341">
        <ele>1381</ele>
        <time>2020-10-24T12:24:56.100Z</time>
      </trkpt>
      <trkpt lat="46.48625" lon="8.26341">
        <ele>1380</ele>
        <time>2020-10-24T12:24:57.100Z</time>
      </trkpt>
      <trkpt lat="46.48624" lon="8.2634">
        <ele>1380</ele>
        <time>2020-10-24T12:24:58.100Z</time>
      </trkpt>
      <trkpt lat="46.48623" lon="8.2634">
        <ele>1380</ele>
        <time>2020-10-24T12:24:59.100Z</time>
      </trkpt>
      <trkpt lat="46.48623" lon="8.26341">
        <ele>1380</ele>
        <time>2020-10-24T12:25:00.100Z</time>
      </trkpt>
      <trkpt lat="46.48622" lon="8.26341">
        <ele>1380</ele>
        <time>2020-10-24T12:25:01.100Z</time>
      </trkpt>
      <trkpt lat="46.4862" lon="8.26342">
        <ele>1380</ele>
        <time>2020-10-24T12:25:02.100Z</time>
      </trkpt>
      <trkpt lat="46.48618" lon="8.26343">
        <ele>1379</ele>
        <time>2020-10-24T12:25:03.100Z</time>
      </trkpt>
      <trkpt lat="46.48617" lon="8.26343">
        <ele>1379</ele>
        <time>2020-10-24T12:25:04.100Z</time>
      </trkpt>
      <trkpt lat="46.48617" lon="8.26343">
        <ele>1379</ele>
        <time>2020-10-24T12:25:05.100Z</time>
      </trkpt>
      <trkpt lat="46.48616" lon="8.26344">
        <ele>1378</ele>
        <time>2020-10-24T12:25:06.099Z</time>
      </trkpt>
      <trkpt lat="46.48615" lon="8.26344">
        <ele>1378</ele>
        <time>2020-10-24T12:25:07.100Z</time>
      </trkpt>
      <trkpt lat="46.48614" lon="8.26344">
        <ele>1378</ele>
        <time>2020-10-24T12:25:08.099Z</time>
      </trkpt>
      <trkpt lat="46.48612" lon="8.26343">
        <ele>1377</ele>
        <time>2020-10-24T12:25:09.100Z</time>
      </trkpt>
      <trkpt lat="46.48611" lon="8.26344">
        <ele>1377</ele>
        <time>2020-10-24T12:25:10.099Z</time>
      </trkpt>
      <trkpt lat="46.4861" lon="8.26344">
        <ele>1377</ele>
        <time>2020-10-24T12:25:11.100Z</time>
      </trkpt>
      <trkpt lat="46.48608" lon="8.26345">
        <ele>1376</ele>
        <time>2020-10-24T12:25:12.100Z</time>
      </trkpt>
      <trkpt lat="46.48607" lon="8.26346">
        <ele>1376</ele>
        <time>2020-10-24T12:25:13.099Z</time>
      </trkpt>
      <trkpt lat="46.48606" lon="8.26346">
        <ele>1375</ele>
        <time>2020-10-24T12:25:14.100Z</time>
      </trkpt>
      <trkpt lat="46.48604" lon="8.26347">
        <ele>1375</ele>
        <time>2020-10-24T12:25:15.100Z</time>
      </trkpt>
      <trkpt lat="46.48603" lon="8.26348">
        <ele>1374</ele>
        <time>2020-10-24T12:25:16.100Z</time>
      </trkpt>
      <trkpt lat="46.48602" lon="8.26349">
        <ele>1374</ele>
        <time>2020-10-24T12:25:17.100Z</time>
      </trkpt>
      <trkpt lat="46.48601" lon="8.2635">
        <ele>1374</ele>
        <time>2020-10-24T12:25:18.099Z</time>
      </trkpt>
      <trkpt lat="46.486" lon="8.26352">
        <ele>1373</ele>
        <time>2020-10-24T12:25:19.100Z</time>
      </trkpt>
      <trkpt lat="46.48599" lon="8.26353">
        <ele>1374</ele>
        <time>2020-10-24T12:25:20.100Z</time>
      </trkpt>
      <trkpt lat="46.48598" lon="8.26354">
        <ele>1374</ele>
        <time>2020-10-24T12:25:21.100Z</time>
      </trkpt>
      <trkpt lat="46.48598" lon="8.26355">
        <ele>1374</ele>
        <time>2020-10-24T12:25:22.100Z</time>
      </trkpt>
      <trkpt lat="46.48596" lon="8.26357">
        <ele>1374</ele>
        <time>2020-10-24T12:25:23.100Z</time>
      </trkpt>
      <trkpt lat="46.48594" lon="8.2636">
        <ele>1374</ele>
        <time>2020-10-24T12:25:24.100Z</time>
      </trkpt>
      <trkpt lat="46.48593" lon="8.26363">
        <ele>1374</ele>
        <time>2020-10-24T12:25:25.100Z</time>
      </trkpt>
      <trkpt lat="46.48593" lon="8.26364">
        <ele>1374</ele>
        <time>2020-10-24T12:25:26.099Z</time>
      </trkpt>
      <trkpt lat="46.48593" lon="8.26364">
        <ele>1374</ele>
        <time>2020-10-24T12:25:27.099Z</time>
      </trkpt>
      <trkpt lat="46.48593" lon="8.26365">
        <ele>1374</ele>
        <time>2020-10-24T12:25:28.100Z</time>
      </trkpt>
      <trkpt lat="46.48592" lon="8.26365">
        <ele>1373</ele>
        <time>2020-10-24T12:25:29.099Z</time>
      </trkpt>
      <trkpt lat="46.48591" lon="8.26366">
        <ele>1372</ele>
        <time>2020-10-24T12:25:30.099Z</time>
      </trkpt>
      <trkpt lat="46.48589" lon="8.26367">
        <ele>1372</ele>
        <time>2020-10-24T12:25:31.099Z</time>
      </trkpt>
      <trkpt lat="46.48588" lon="8.26368">
        <ele>1372</ele>
        <time>2020-10-24T12:25:32.100Z</time>
      </trkpt>
      <trkpt lat="46.48587" lon="8.26368">
        <ele>1372</ele>
        <time>2020-10-24T12:25:33.100Z</time>
      </trkpt>
      <trkpt lat="46.48586" lon="8.26368">
        <ele>1372</ele>
        <time>2020-10-24T12:25:34.099Z</time>
      </trkpt>
      <trkpt lat="46.48585" lon="8.26368">
        <ele>1372</ele>
        <time>2020-10-24T12:25:35.100Z</time>
      </trkpt>
      <trkpt lat="46.48584" lon="8.26368">
        <ele>1372</ele>
        <time>2020-10-24T12:25:36.100Z</time>
      </trkpt>
      <trkpt lat="46.48584" lon="8.26368">
        <ele>1372</ele>
        <time>2020-10-24T12:25:37.100Z</time>
      </trkpt>
      <trkpt lat="46.48584" lon="8.26369">
        <ele>1372</ele>
        <time>2020-10-24T12:25:38.100Z</time>
      </trkpt>
      <trkpt lat="46.48584" lon="8.26369">
        <ele>1372</ele>
        <time>2020-10-24T12:25:39.099Z</time>
      </trkpt>
      <trkpt lat="46.48584" lon="8.26368">
        <ele>1375</ele>
        <time>2020-10-24T12:25:40.099Z</time>
      </trkpt>
      <trkpt lat="46.48583" lon="8.26368">
        <ele>1375</ele>
        <time>2020-10-24T12:25:41.100Z</time>
      </trkpt>
      <trkpt lat="46.48582" lon="8.26368">
        <ele>1376</ele>
        <time>2020-10-24T12:25:42.100Z</time>
      </trkpt>
      <trkpt lat="46.48581" lon="8.26368">
        <ele>1376</ele>
        <time>2020-10-24T12:25:43.099Z</time>
      </trkpt>
      <trkpt lat="46.48579" lon="8.26368">
        <ele>1376</ele>
        <time>2020-10-24T12:25:44.100Z</time>
      </trkpt>
      <trkpt lat="46.48578" lon="8.26369">
        <ele>1375</ele>
        <time>2020-10-24T12:25:45.099Z</time>
      </trkpt>
      <trkpt lat="46.48577" lon="8.26369">
        <ele>1375</ele>
        <time>2020-10-24T12:25:46.100Z</time>
      </trkpt>
      <trkpt lat="46.48576" lon="8.2637">
        <ele>1374</ele>
        <time>2020-10-24T12:25:47.099Z</time>
      </trkpt>
      <trkpt lat="46.48576" lon="8.2637">
        <ele>1373</ele>
        <time>2020-10-24T12:25:48.100Z</time>
      </trkpt>
      <trkpt lat="46.48574" lon="8.2637">
        <ele>1373</ele>
        <time>2020-10-24T12:25:49.100Z</time>
      </trkpt>
      <trkpt lat="46.48572" lon="8.2637">
        <ele>1372</ele>
        <time>2020-10-24T12:25:50.099Z</time>
      </trkpt>
      <trkpt lat="46.48571" lon="8.2637">
        <ele>1372</ele>
        <time>2020-10-24T12:25:51.100Z</time>
      </trkpt>
      <trkpt lat="46.4857" lon="8.26371">
        <ele>1372</ele>
        <time>2020-10-24T12:25:52.100Z</time>
      </trkpt>
      <trkpt lat="46.48569" lon="8.26371">
        <ele>1372</ele>
        <time>2020-10-24T12:25:53.100Z</time>
      </trkpt>
      <trkpt lat="46.48568" lon="8.26373">
        <ele>1372</ele>
        <time>2020-10-24T12:25:54.100Z</time>
      </trkpt>
      <trkpt lat="46.48567" lon="8.26374">
        <ele>1373</ele>
        <time>2020-10-24T12:25:55.100Z</time>
      </trkpt>
      <trkpt lat="46.48566" lon="8.26375">
        <ele>1373</ele>
        <time>2020-10-24T12:25:56.099Z</time>
      </trkpt>
      <trkpt lat="46.48565" lon="8.26374">
        <ele>1373</ele>
        <time>2020-10-24T12:25:57.099Z</time>
      </trkpt>
      <trkpt lat="46.48564" lon="8.26374">
        <ele>1374</ele>
        <time>2020-10-24T12:25:58.099Z</time>
      </trkpt>
      <trkpt lat="46.48563" lon="8.26373">
        <ele>1374</ele>
        <time>2020-10-24T12:25:59.100Z</time>
      </trkpt>
      <trkpt lat="46.48563" lon="8.26373">
        <ele>1374</ele>
        <time>2020-10-24T12:26:00.100Z</time>
      </trkpt>
      <trkpt lat="46.48561" lon="8.26372">
        <ele>1374</ele>
        <time>2020-10-24T12:26:01.099Z</time>
      </trkpt>
      <trkpt lat="46.4856" lon="8.26373">
        <ele>1374</ele>
        <time>2020-10-24T12:26:02.100Z</time>
      </trkpt>
      <trkpt lat="46.48559" lon="8.26373">
        <ele>1373</ele>
        <time>2020-10-24T12:26:03.100Z</time>
      </trkpt>
      <trkpt lat="46.48558" lon="8.26373">
        <ele>1372</ele>
        <time>2020-10-24T12:26:04.100Z</time>
      </trkpt>
      <trkpt lat="46.48557" lon="8.26374">
        <ele>1372</ele>
        <time>2020-10-24T12:26:05.100Z</time>
      </trkpt>
      <trkpt lat="46.48556" lon="8.26374">
        <ele>1371</ele>
        <time>2020-10-24T12:26:06.100Z</time>
      </trkpt>
      <trkpt lat="46.48554" lon="8.26374">
        <ele>1371</ele>
        <time>2020-10-24T12:26:07.100Z</time>
      </trkpt>
      <trkpt lat="46.48553" lon="8.26375">
        <ele>1370</ele>
        <time>2020-10-24T12:26:08.100Z</time>
      </trkpt>
      <trkpt lat="46.48552" lon="8.26376">
        <ele>1370</ele>
        <time>2020-10-24T12:26:09.100Z</time>
      </trkpt>
      <trkpt lat="46.48551" lon="8.26377">
        <ele>1369</ele>
        <time>2020-10-24T12:26:10.100Z</time>
      </trkpt>
      <trkpt lat="46.4855" lon="8.26377">
        <ele>1369</ele>
        <time>2020-10-24T12:26:11.099Z</time>
      </trkpt>
      <trkpt lat="46.4855" lon="8.26378">
        <ele>1369</ele>
        <time>2020-10-24T12:26:12.099Z</time>
      </trkpt>
      <trkpt lat="46.48549" lon="8.26379">
        <ele>1368</ele>
        <time>2020-10-24T12:26:13.099Z</time>
      </trkpt>
      <trkpt lat="46.48548" lon="8.26379">
        <ele>1368</ele>
        <time>2020-10-24T12:26:14.100Z</time>
      </trkpt>
      <trkpt lat="46.48548" lon="8.2638">
        <ele>1368</ele>
        <time>2020-10-24T12:26:15.100Z</time>
      </trkpt>
      <trkpt lat="46.48547" lon="8.26381">
        <ele>1367</ele>
        <time>2020-10-24T12:26:16.099Z</time>
      </trkpt>
      <trkpt lat="46.48546" lon="8.26382">
        <ele>1367</ele>
        <time>2020-10-24T12:26:17.100Z</time>
      </trkpt>
      <trkpt lat="46.48545" lon="8.26383">
        <ele>1367</ele>
        <time>2020-10-24T12:26:18.100Z</time>
      </trkpt>
      <trkpt lat="46.48544" lon="8.26384">
        <ele>1367</ele>
        <time>2020-10-24T12:26:19.099Z</time>
      </trkpt>
      <trkpt lat="46.48543" lon="8.26384">
        <ele>1367</ele>
        <time>2020-10-24T12:26:20.100Z</time>
      </trkpt>
      <trkpt lat="46.48541" lon="8.26385">
        <ele>1367</ele>
        <time>2020-10-24T12:26:21.100Z</time>
      </trkpt>
      <trkpt lat="46.4854" lon="8.26386">
        <ele>1367</ele>
        <time>2020-10-24T12:26:22.100Z</time>
      </trkpt>
      <trkpt lat="46.48539" lon="8.26387">
        <ele>1367</ele>
        <time>2020-10-24T12:26:23.100Z</time>
      </trkpt>
      <trkpt lat="46.48538" lon="8.26387">
        <ele>1367</ele>
        <time>2020-10-24T12:26:24.100Z</time>
      </trkpt>
      <trkpt lat="46.48537" lon="8.26387">
        <ele>1367</ele>
        <time>2020-10-24T12:26:25.100Z</time>
      </trkpt>
      <trkpt lat="46.48535" lon="8.26388">
        <ele>1367</ele>
        <time>2020-10-24T12:26:26.099Z</time>
      </trkpt>
      <trkpt lat="46.48534" lon="8.26389">
        <ele>1367</ele>
        <time>2020-10-24T12:26:27.100Z</time>
      </trkpt>
      <trkpt lat="46.48534" lon="8.26389">
        <ele>1366</ele>
        <time>2020-10-24T12:26:28.100Z</time>
      </trkpt>
      <trkpt lat="46.48532" lon="8.26389">
        <ele>1366</ele>
        <time>2020-10-24T12:26:29.100Z</time>
      </trkpt>
      <trkpt lat="46.48531" lon="8.26389">
        <ele>1366</ele>
        <time>2020-10-24T12:26:30.100Z</time>
      </trkpt>
      <trkpt lat="46.48529" lon="8.2639">
        <ele>1366</ele>
        <time>2020-10-24T12:26:31.100Z</time>
      </trkpt>
      <trkpt lat="46.48528" lon="8.26391">
        <ele>1366</ele>
        <time>2020-10-24T12:26:32.100Z</time>
      </trkpt>
      <trkpt lat="46.48527" lon="8.26393">
        <ele>1367</ele>
        <time>2020-10-24T12:26:33.100Z</time>
      </trkpt>
      <trkpt lat="46.48526" lon="8.26394">
        <ele>1367</ele>
        <time>2020-10-24T12:26:34.100Z</time>
      </trkpt>
      <trkpt lat="46.48525" lon="8.26395">
        <ele>1367</ele>
        <time>2020-10-24T12:26:35.100Z</time>
      </trkpt>
      <trkpt lat="46.48525" lon="8.26396">
        <ele>1367</ele>
        <time>2020-10-24T12:26:36.100Z</time>
      </trkpt>
      <trkpt lat="46.48524" lon="8.26397">
        <ele>1367</ele>
        <time>2020-10-24T12:26:37.100Z</time>
      </trkpt>
      <trkpt lat="46.48523" lon="8.26398">
        <ele>1366</ele>
        <time>2020-10-24T12:26:38.100Z</time>
      </trkpt>
      <trkpt lat="46.48522" lon="8.26399">
        <ele>1366</ele>
        <time>2020-10-24T12:26:39.100Z</time>
      </trkpt>
      <trkpt lat="46.48522" lon="8.26401">
        <ele>1366</ele>
        <time>2020-10-24T12:26:40.099Z</time>
      </trkpt>
      <trkpt lat="46.48521" lon="8.26402">
        <ele>1365</ele>
        <time>2020-10-24T12:26:41.099Z</time>
      </trkpt>
      <trkpt lat="46.4852" lon="8.26403">
        <ele>1365</ele>
        <time>2020-10-24T12:26:42.100Z</time>
      </trkpt>
      <trkpt lat="46.48519" lon="8.26404">
        <ele>1366</ele>
        <time>2020-10-24T12:26:43.100Z</time>
      </trkpt>
      <trkpt lat="46.48518" lon="8.26406">
        <ele>1365</ele>
        <time>2020-10-24T12:26:44.100Z</time>
      </trkpt>
      <trkpt lat="46.48518" lon="8.26407">
        <ele>1365</ele>
        <time>2020-10-24T12:26:45.099Z</time>
      </trkpt>
      <trkpt lat="46.48517" lon="8.26408">
        <ele>1365</ele>
        <time>2020-10-24T12:26:46.100Z</time>
      </trkpt>
      <trkpt lat="46.48516" lon="8.26409">
        <ele>1365</ele>
        <time>2020-10-24T12:26:47.100Z</time>
      </trkpt>
      <trkpt lat="46.48515" lon="8.26409">
        <ele>1365</ele>
        <time>2020-10-24T12:26:48.100Z</time>
      </trkpt>
      <trkpt lat="46.48513" lon="8.26409">
        <ele>1365</ele>
        <time>2020-10-24T12:26:49.100Z</time>
      </trkpt>
      <trkpt lat="46.48512" lon="8.26408">
        <ele>1364</ele>
        <time>2020-10-24T12:26:50.099Z</time>
      </trkpt>
      <trkpt lat="46.48511" lon="8.26408">
        <ele>1364</ele>
        <time>2020-10-24T12:26:51.099Z</time>
      </trkpt>
      <trkpt lat="46.48511" lon="8.26408">
        <ele>1364</ele>
        <time>2020-10-24T12:26:52.099Z</time>
      </trkpt>
      <trkpt lat="46.4851" lon="8.26407">
        <ele>1364</ele>
        <time>2020-10-24T12:26:53.100Z</time>
      </trkpt>
      <trkpt lat="46.4851" lon="8.26406">
        <ele>1364</ele>
        <time>2020-10-24T12:26:54.100Z</time>
      </trkpt>
      <trkpt lat="46.48509" lon="8.26404">
        <ele>1364</ele>
        <time>2020-10-24T12:26:55.099Z</time>
      </trkpt>
      <trkpt lat="46.48508" lon="8.26402">
        <ele>1365</ele>
        <time>2020-10-24T12:26:56.100Z</time>
      </trkpt>
      <trkpt lat="46.48508" lon="8.26401">
        <ele>1365</ele>
        <time>2020-10-24T12:26:57.100Z</time>
      </trkpt>
      <trkpt lat="46.48507" lon="8.26399">
        <ele>1364</ele>
        <time>2020-10-24T12:26:58.100Z</time>
      </trkpt>
      <trkpt lat="46.48506" lon="8.26398">
        <ele>1364</ele>
        <time>2020-10-24T12:26:59.099Z</time>
      </trkpt>
      <trkpt lat="46.48506" lon="8.26397">
        <ele>1363</ele>
        <time>2020-10-24T12:27:00.100Z</time>
      </trkpt>
      <trkpt lat="46.48505" lon="8.26397">
        <ele>1363</ele>
        <time>2020-10-24T12:27:01.100Z</time>
      </trkpt>
      <trkpt lat="46.48504" lon="8.26397">
        <ele>1362</ele>
        <time>2020-10-24T12:27:02.100Z</time>
      </trkpt>
      <trkpt lat="46.48503" lon="8.26397">
        <ele>1362</ele>
        <time>2020-10-24T12:27:03.100Z</time>
      </trkpt>
      <trkpt lat="46.48502" lon="8.26397">
        <ele>1361</ele>
        <time>2020-10-24T12:27:04.100Z</time>
      </trkpt>
      <trkpt lat="46.485" lon="8.26396">
        <ele>1361</ele>
        <time>2020-10-24T12:27:05.099Z</time>
      </trkpt>
      <trkpt lat="46.48499" lon="8.26396">
        <ele>1360</ele>
        <time>2020-10-24T12:27:06.100Z</time>
      </trkpt>
      <trkpt lat="46.48497" lon="8.26395">
        <ele>1360</ele>
        <time>2020-10-24T12:27:07.099Z</time>
      </trkpt>
      <trkpt lat="46.48496" lon="8.26394">
        <ele>1360</ele>
        <time>2020-10-24T12:27:08.100Z</time>
      </trkpt>
      <trkpt lat="46.48495" lon="8.26394">
        <ele>1359</ele>
        <time>2020-10-24T12:27:09.100Z</time>
      </trkpt>
      <trkpt lat="46.48494" lon="8.26394">
        <ele>1359</ele>
        <time>2020-10-24T12:27:10.099Z</time>
      </trkpt>
      <trkpt lat="46.48493" lon="8.26394">
        <ele>1359</ele>
        <time>2020-10-24T12:27:11.100Z</time>
      </trkpt>
      <trkpt lat="46.48491" lon="8.26395">
        <ele>1359</ele>
        <time>2020-10-24T12:27:12.100Z</time>
      </trkpt>
      <trkpt lat="46.4849" lon="8.26396">
        <ele>1359</ele>
        <time>2020-10-24T12:27:13.100Z</time>
      </trkpt>
      <trkpt lat="46.48488" lon="8.26396">
        <ele>1359</ele>
        <time>2020-10-24T12:27:14.099Z</time>
      </trkpt>
      <trkpt lat="46.48487" lon="8.26397">
        <ele>1359</ele>
        <time>2020-10-24T12:27:15.099Z</time>
      </trkpt>
      <trkpt lat="46.48486" lon="8.26397">
        <ele>1359</ele>
        <time>2020-10-24T12:27:16.099Z</time>
      </trkpt>
      <trkpt lat="46.48485" lon="8.26398">
        <ele>1359</ele>
        <time>2020-10-24T12:27:17.099Z</time>
      </trkpt>
      <trkpt lat="46.48484" lon="8.26399">
        <ele>1359</ele>
        <time>2020-10-24T12:27:18.100Z</time>
      </trkpt>
      <trkpt lat="46.48482" lon="8.26401">
        <ele>1359</ele>
        <time>2020-10-24T12:27:19.100Z</time>
      </trkpt>
      <trkpt lat="46.48482" lon="8.26403">
        <ele>1359</ele>
        <time>2020-10-24T12:27:20.099Z</time>
      </trkpt>
      <trkpt lat="46.4848" lon="8.26404">
        <ele>1359</ele>
        <time>2020-10-24T12:27:21.100Z</time>
      </trkpt>
      <trkpt lat="46.48479" lon="8.26406">
        <ele>1359</ele>
        <time>2020-10-24T12:27:22.100Z</time>
      </trkpt>
      <trkpt lat="46.48479" lon="8.26407">
        <ele>1359</ele>
        <time>2020-10-24T12:27:23.099Z</time>
      </trkpt>
      <trkpt lat="46.48478" lon="8.26409">
        <ele>1360</ele>
        <time>2020-10-24T12:27:24.099Z</time>
      </trkpt>
      <trkpt lat="46.48478" lon="8.2641">
        <ele>1360</ele>
        <time>2020-10-24T12:27:25.100Z</time>
      </trkpt>
      <trkpt lat="46.48478" lon="8.26412">
        <ele>1360</ele>
        <time>2020-10-24T12:27:26.100Z</time>
      </trkpt>
      <trkpt lat="46.48478" lon="8.26414">
        <ele>1360</ele>
        <time>2020-10-24T12:27:27.099Z</time>
      </trkpt>
      <trkpt lat="46.48477" lon="8.26415">
        <ele>1361</ele>
        <time>2020-10-24T12:27:28.099Z</time>
      </trkpt>
      <trkpt lat="46.48477" lon="8.26417">
        <ele>1361</ele>
        <time>2020-10-24T12:27:29.100Z</time>
      </trkpt>
      <trkpt lat="46.48477" lon="8.26418">
        <ele>1361</ele>
        <time>2020-10-24T12:27:30.100Z</time>
      </trkpt>
      <trkpt lat="46.48476" lon="8.2642">
        <ele>1361</ele>
        <time>2020-10-24T12:27:31.100Z</time>
      </trkpt>
      <trkpt lat="46.48476" lon="8.26421">
        <ele>1362</ele>
        <time>2020-10-24T12:27:32.100Z</time>
      </trkpt>
      <trkpt lat="46.48475" lon="8.26423">
        <ele>1362</ele>
        <time>2020-10-24T12:27:33.100Z</time>
      </trkpt>
      <trkpt lat="46.48475" lon="8.26425">
        <ele>1362</ele>
        <time>2020-10-24T12:27:34.099Z</time>
      </trkpt>
      <trkpt lat="46.48475" lon="8.26427">
        <ele>1361</ele>
        <time>2020-10-24T12:27:35.100Z</time>
      </trkpt>
      <trkpt lat="46.48474" lon="8.26429">
        <ele>1361</ele>
        <time>2020-10-24T12:27:36.100Z</time>
      </trkpt>
      <trkpt lat="46.48474" lon="8.2643">
        <ele>1361</ele>
        <time>2020-10-24T12:27:37.100Z</time>
      </trkpt>
      <trkpt lat="46.48474" lon="8.26432">
        <ele>1360</ele>
        <time>2020-10-24T12:27:38.099Z</time>
      </trkpt>
      <trkpt lat="46.48474" lon="8.26434">
        <ele>1360</ele>
        <time>2020-10-24T12:27:39.100Z</time>
      </trkpt>
      <trkpt lat="46.48473" lon="8.26436">
        <ele>1360</ele>
        <time>2020-10-24T12:27:40.100Z</time>
      </trkpt>
      <trkpt lat="46.48473" lon="8.26437">
        <ele>1360</ele>
        <time>2020-10-24T12:27:41.100Z</time>
      </trkpt>
      <trkpt lat="46.48473" lon="8.26438">
        <ele>1360</ele>
        <time>2020-10-24T12:27:42.100Z</time>
      </trkpt>
      <trkpt lat="46.48473" lon="8.2644">
        <ele>1359</ele>
        <time>2020-10-24T12:27:43.100Z</time>
      </trkpt>
      <trkpt lat="46.48473" lon="8.26441">
        <ele>1359</ele>
        <time>2020-10-24T12:27:44.099Z</time>
      </trkpt>
      <trkpt lat="46.48472" lon="8.26441">
        <ele>1359</ele>
        <time>2020-10-24T12:27:45.100Z</time>
      </trkpt>
      <trkpt lat="46.48472" lon="8.26442">
        <ele>1359</ele>
        <time>2020-10-24T12:27:46.100Z</time>
      </trkpt>
      <trkpt lat="46.48471" lon="8.26443">
        <ele>1359</ele>
        <time>2020-10-24T12:27:47.099Z</time>
      </trkpt>
      <trkpt lat="46.4847" lon="8.26444">
        <ele>1359</ele>
        <time>2020-10-24T12:27:48.099Z</time>
      </trkpt>
      <trkpt lat="46.48469" lon="8.26446">
        <ele>1360</ele>
        <time>2020-10-24T12:27:49.100Z</time>
      </trkpt>
      <trkpt lat="46.48468" lon="8.26446">
        <ele>1360</ele>
        <time>2020-10-24T12:27:50.099Z</time>
      </trkpt>
      <trkpt lat="46.48468" lon="8.26449">
        <ele>1359</ele>
        <time>2020-10-24T12:27:51.100Z</time>
      </trkpt>
      <trkpt lat="46.48467" lon="8.2645">
        <ele>1359</ele>
        <time>2020-10-24T12:27:52.099Z</time>
      </trkpt>
      <trkpt lat="46.48465" lon="8.26451">
        <ele>1359</ele>
        <time>2020-10-24T12:27:53.100Z</time>
      </trkpt>
      <trkpt lat="46.48465" lon="8.26452">
        <ele>1359</ele>
        <time>2020-10-24T12:27:54.100Z</time>
      </trkpt>
      <trkpt lat="46.48464" lon="8.26453">
        <ele>1358</ele>
        <time>2020-10-24T12:27:55.100Z</time>
      </trkpt>
      <trkpt lat="46.48463" lon="8.26455">
        <ele>1358</ele>
        <time>2020-10-24T12:27:56.099Z</time>
      </trkpt>
      <trkpt lat="46.48462" lon="8.26456">
        <ele>1358</ele>
        <time>2020-10-24T12:27:57.099Z</time>
      </trkpt>
      <trkpt lat="46.48461" lon="8.26457">
        <ele>1358</ele>
        <time>2020-10-24T12:27:58.100Z</time>
      </trkpt>
      <trkpt lat="46.4846" lon="8.26458">
        <ele>1358</ele>
        <time>2020-10-24T12:27:59.100Z</time>
      </trkpt>
      <trkpt lat="46.48459" lon="8.26459">
        <ele>1358</ele>
        <time>2020-10-24T12:28:00.100Z</time>
      </trkpt>
      <trkpt lat="46.48458" lon="8.2646">
        <ele>1358</ele>
        <time>2020-10-24T12:28:01.100Z</time>
      </trkpt>
      <trkpt lat="46.48458" lon="8.26461">
        <ele>1358</ele>
        <time>2020-10-24T12:28:02.099Z</time>
      </trkpt>
      <trkpt lat="46.48457" lon="8.26462">
        <ele>1357</ele>
        <time>2020-10-24T12:28:03.100Z</time>
      </trkpt>
      <trkpt lat="46.48456" lon="8.26463">
        <ele>1357</ele>
        <time>2020-10-24T12:28:04.100Z</time>
      </trkpt>
      <trkpt lat="46.48455" lon="8.26465">
        <ele>1357</ele>
        <time>2020-10-24T12:28:05.099Z</time>
      </trkpt>
      <trkpt lat="46.48454" lon="8.26466">
        <ele>1357</ele>
        <time>2020-10-24T12:28:06.100Z</time>
      </trkpt>
      <trkpt lat="46.48454" lon="8.26468">
        <ele>1357</ele>
        <time>2020-10-24T12:28:07.099Z</time>
      </trkpt>
      <trkpt lat="46.48453" lon="8.26469">
        <ele>1356</ele>
        <time>2020-10-24T12:28:08.100Z</time>
      </trkpt>
      <trkpt lat="46.48453" lon="8.2647">
        <ele>1356</ele>
        <time>2020-10-24T12:28:09.100Z</time>
      </trkpt>
      <trkpt lat="46.48452" lon="8.26471">
        <ele>1356</ele>
        <time>2020-10-24T12:28:10.099Z</time>
      </trkpt>
      <trkpt lat="46.48451" lon="8.26472">
        <ele>1356</ele>
        <time>2020-10-24T12:28:11.099Z</time>
      </trkpt>
      <trkpt lat="46.4845" lon="8.26473">
        <ele>1356</ele>
        <time>2020-10-24T12:28:12.100Z</time>
      </trkpt>
      <trkpt lat="46.48449" lon="8.26473">
        <ele>1356</ele>
        <time>2020-10-24T12:28:13.099Z</time>
      </trkpt>
      <trkpt lat="46.48448" lon="8.26474">
        <ele>1356</ele>
        <time>2020-10-24T12:28:14.100Z</time>
      </trkpt>
      <trkpt lat="46.48446" lon="8.26475">
        <ele>1356</ele>
        <time>2020-10-24T12:28:15.099Z</time>
      </trkpt>
      <trkpt lat="46.48445" lon="8.26475">
        <ele>1357</ele>
        <time>2020-10-24T12:28:16.099Z</time>
      </trkpt>
      <trkpt lat="46.48444" lon="8.26476">
        <ele>1357</ele>
        <time>2020-10-24T12:28:17.100Z</time>
      </trkpt>
      <trkpt lat="46.48443" lon="8.26477">
        <ele>1357</ele>
        <time>2020-10-24T12:28:18.100Z</time>
      </trkpt>
      <trkpt lat="46.48442" lon="8.26478">
        <ele>1358</ele>
        <time>2020-10-24T12:28:19.100Z</time>
      </trkpt>
      <trkpt lat="46.48441" lon="8.2648">
        <ele>1357</ele>
        <time>2020-10-24T12:28:20.100Z</time>
      </trkpt>
      <trkpt lat="46.4844" lon="8.26481">
        <ele>1357</ele>
        <time>2020-10-24T12:28:21.100Z</time>
      </trkpt>
      <trkpt lat="46.48439" lon="8.26482">
        <ele>1357</ele>
        <time>2020-10-24T12:28:22.100Z</time>
      </trkpt>
      <trkpt lat="46.48438" lon="8.26483">
        <ele>1357</ele>
        <time>2020-10-24T12:28:23.100Z</time>
      </trkpt>
      <trkpt lat="46.48437" lon="8.26485">
        <ele>1357</ele>
        <time>2020-10-24T12:28:24.100Z</time>
      </trkpt>
      <trkpt lat="46.48436" lon="8.26486">
        <ele>1357</ele>
        <time>2020-10-24T12:28:25.100Z</time>
      </trkpt>
      <trkpt lat="46.48435" lon="8.26487">
        <ele>1357</ele>
        <time>2020-10-24T12:28:26.099Z</time>
      </trkpt>
      <trkpt lat="46.48434" lon="8.26488">
        <ele>1357</ele>
        <time>2020-10-24T12:28:27.100Z</time>
      </trkpt>
      <trkpt lat="46.48433" lon="8.26489">
        <ele>1357</ele>
        <time>2020-10-24T12:28:28.099Z</time>
      </trkpt>
      <trkpt lat="46.48433" lon="8.2649">
        <ele>1357</ele>
        <time>2020-10-24T12:28:29.100Z</time>
      </trkpt>
      <trkpt lat="46.48432" lon="8.26492">
        <ele>1357</ele>
        <time>2020-10-24T12:28:30.099Z</time>
      </trkpt>
      <trkpt lat="46.48431" lon="8.26493">
        <ele>1357</ele>
        <time>2020-10-24T12:28:31.100Z</time>
      </trkpt>
      <trkpt lat="46.48431" lon="8.26494">
        <ele>1356</ele>
        <time>2020-10-24T12:28:32.100Z</time>
      </trkpt>
      <trkpt lat="46.4843" lon="8.26495">
        <ele>1356</ele>
        <time>2020-10-24T12:28:33.099Z</time>
      </trkpt>
      <trkpt lat="46.4843" lon="8.26496">
        <ele>1355</ele>
        <time>2020-10-24T12:28:34.100Z</time>
      </trkpt>
      <trkpt lat="46.48429" lon="8.26498">
        <ele>1355</ele>
        <time>2020-10-24T12:28:35.099Z</time>
      </trkpt>
      <trkpt lat="46.48429" lon="8.26499">
        <ele>1355</ele>
        <time>2020-10-24T12:28:36.099Z</time>
      </trkpt>
      <trkpt lat="46.48428" lon="8.26501">
        <ele>1355</ele>
        <time>2020-10-24T12:28:37.099Z</time>
      </trkpt>
      <trkpt lat="46.48427" lon="8.26502">
        <ele>1354</ele>
        <time>2020-10-24T12:28:38.100Z</time>
      </trkpt>
      <trkpt lat="46.48427" lon="8.26503">
        <ele>1354</ele>
        <time>2020-10-24T12:28:39.099Z</time>
      </trkpt>
      <trkpt lat="46.48426" lon="8.26504">
        <ele>1354</ele>
        <time>2020-10-24T12:28:40.099Z</time>
      </trkpt>
      <trkpt lat="46.48426" lon="8.26505">
        <ele>1354</ele>
        <time>2020-10-24T12:28:41.100Z</time>
      </trkpt>
      <trkpt lat="46.48425" lon="8.26507">
        <ele>1354</ele>
        <time>2020-10-24T12:28:42.099Z</time>
      </trkpt>
      <trkpt lat="46.48424" lon="8.26508">
        <ele>1354</ele>
        <time>2020-10-24T12:28:43.100Z</time>
      </trkpt>
      <trkpt lat="46.48424" lon="8.2651">
        <ele>1353</ele>
        <time>2020-10-24T12:28:44.099Z</time>
      </trkpt>
      <trkpt lat="46.48423" lon="8.26511">
        <ele>1353</ele>
        <time>2020-10-24T12:28:45.100Z</time>
      </trkpt>
      <trkpt lat="46.48423" lon="8.26512">
        <ele>1353</ele>
        <time>2020-10-24T12:28:46.100Z</time>
      </trkpt>
      <trkpt lat="46.48422" lon="8.26514">
        <ele>1353</ele>
        <time>2020-10-24T12:28:47.100Z</time>
      </trkpt>
      <trkpt lat="46.48421" lon="8.26515">
        <ele>1353</ele>
        <time>2020-10-24T12:28:48.100Z</time>
      </trkpt>
      <trkpt lat="46.48421" lon="8.26516">
        <ele>1353</ele>
        <time>2020-10-24T12:28:49.099Z</time>
      </trkpt>
      <trkpt lat="46.4842" lon="8.26517">
        <ele>1353</ele>
        <time>2020-10-24T12:28:50.100Z</time>
      </trkpt>
      <trkpt lat="46.48419" lon="8.26518">
        <ele>1353</ele>
        <time>2020-10-24T12:28:51.100Z</time>
      </trkpt>
      <trkpt lat="46.48419" lon="8.2652">
        <ele>1353</ele>
        <time>2020-10-24T12:28:52.100Z</time>
      </trkpt>
      <trkpt lat="46.48418" lon="8.26521">
        <ele>1353</ele>
        <time>2020-10-24T12:28:53.099Z</time>
      </trkpt>
      <trkpt lat="46.48418" lon="8.26522">
        <ele>1352</ele>
        <time>2020-10-24T12:28:54.099Z</time>
      </trkpt>
      <trkpt lat="46.48417" lon="8.26523">
        <ele>1352</ele>
        <time>2020-10-24T12:28:55.100Z</time>
      </trkpt>
      <trkpt lat="46.48416" lon="8.26525">
        <ele>1351</ele>
        <time>2020-10-24T12:28:56.100Z</time>
      </trkpt>
      <trkpt lat="46.48415" lon="8.26527">
        <ele>1351</ele>
        <time>2020-10-24T12:28:57.100Z</time>
      </trkpt>
      <trkpt lat="46.48415" lon="8.26528">
        <ele>1351</ele>
        <time>2020-10-24T12:28:58.099Z</time>
      </trkpt>
      <trkpt lat="46.48414" lon="8.2653">
        <ele>1350</ele>
        <time>2020-10-24T12:28:59.100Z</time>
      </trkpt>
      <trkpt lat="46.48413" lon="8.26531">
        <ele>1350</ele>
        <time>2020-10-24T12:29:00.100Z</time>
      </trkpt>
      <trkpt lat="46.48413" lon="8.26533">
        <ele>1350</ele>
        <time>2020-10-24T12:29:01.099Z</time>
      </trkpt>
      <trkpt lat="46.48413" lon="8.26534">
        <ele>1350</ele>
        <time>2020-10-24T12:29:02.100Z</time>
      </trkpt>
      <trkpt lat="46.48412" lon="8.26535">
        <ele>1350</ele>
        <time>2020-10-24T12:29:03.100Z</time>
      </trkpt>
      <trkpt lat="46.48412" lon="8.26537">
        <ele>1349</ele>
        <time>2020-10-24T12:29:04.100Z</time>
      </trkpt>
      <trkpt lat="46.48411" lon="8.26538">
        <ele>1349</ele>
        <time>2020-10-24T12:29:05.100Z</time>
      </trkpt>
      <trkpt lat="46.48411" lon="8.26539">
        <ele>1349</ele>
        <time>2020-10-24T12:29:06.099Z</time>
      </trkpt>
      <trkpt lat="46.4841" lon="8.26541">
        <ele>1349</ele>
        <time>2020-10-24T12:29:07.100Z</time>
      </trkpt>
      <trkpt lat="46.4841" lon="8.26543">
        <ele>1349</ele>
        <time>2020-10-24T12:29:08.099Z</time>
      </trkpt>
      <trkpt lat="46.48409" lon="8.26544">
        <ele>1349</ele>
        <time>2020-10-24T12:29:09.099Z</time>
      </trkpt>
      <trkpt lat="46.48409" lon="8.26546">
        <ele>1349</ele>
        <time>2020-10-24T12:29:10.099Z</time>
      </trkpt>
      <trkpt lat="46.48408" lon="8.26548">
        <ele>1349</ele>
        <time>2020-10-24T12:29:11.099Z</time>
      </trkpt>
      <trkpt lat="46.48407" lon="8.26549">
        <ele>1349</ele>
        <time>2020-10-24T12:29:12.100Z</time>
      </trkpt>
      <trkpt lat="46.48407" lon="8.2655">
        <ele>1349</ele>
        <time>2020-10-24T12:29:13.100Z</time>
      </trkpt>
      <trkpt lat="46.48406" lon="8.26551">
        <ele>1349</ele>
        <time>2020-10-24T12:29:14.099Z</time>
      </trkpt>
      <trkpt lat="46.48405" lon="8.26552">
        <ele>1348</ele>
        <time>2020-10-24T12:29:15.100Z</time>
      </trkpt>
      <trkpt lat="46.48405" lon="8.26554">
        <ele>1348</ele>
        <time>2020-10-24T12:29:16.099Z</time>
      </trkpt>
      <trkpt lat="46.48404" lon="8.26555">
        <ele>1349</ele>
        <time>2020-10-24T12:29:17.100Z</time>
      </trkpt>
      <trkpt lat="46.48404" lon="8.26556">
        <ele>1349</ele>
        <time>2020-10-24T12:29:18.100Z</time>
      </trkpt>
      <trkpt lat="46.48404" lon="8.26557">
        <ele>1349</ele>
        <time>2020-10-24T12:29:19.100Z</time>
      </trkpt>
      <trkpt lat="46.48403" lon="8.26559">
        <ele>1349</ele>
        <time>2020-10-24T12:29:20.100Z</time>
      </trkpt>
      <trkpt lat="46.48403" lon="8.26561">
        <ele>1349</ele>
        <time>2020-10-24T12:29:21.099Z</time>
      </trkpt>
      <trkpt lat="46.48402" lon="8.26562">
        <ele>1349</ele>
        <time>2020-10-24T12:29:22.099Z</time>
      </trkpt>
      <trkpt lat="46.48401" lon="8.26564">
        <ele>1349</ele>
        <time>2020-10-24T12:29:23.100Z</time>
      </trkpt>
      <trkpt lat="46.484" lon="8.26565">
        <ele>1348</ele>
        <time>2020-10-24T12:29:24.099Z</time>
      </trkpt>
      <trkpt lat="46.484" lon="8.26566">
        <ele>1348</ele>
        <time>2020-10-24T12:29:25.100Z</time>
      </trkpt>
      <trkpt lat="46.48399" lon="8.26568">
        <ele>1348</ele>
        <time>2020-10-24T12:29:26.100Z</time>
      </trkpt>
      <trkpt lat="46.48398" lon="8.26569">
        <ele>1348</ele>
        <time>2020-10-24T12:29:27.099Z</time>
      </trkpt>
      <trkpt lat="46.48398" lon="8.2657">
        <ele>1348</ele>
        <time>2020-10-24T12:29:28.099Z</time>
      </trkpt>
      <trkpt lat="46.48397" lon="8.26572">
        <ele>1347</ele>
        <time>2020-10-24T12:29:29.100Z</time>
      </trkpt>
      <trkpt lat="46.48396" lon="8.26573">
        <ele>1347</ele>
        <time>2020-10-24T12:29:30.099Z</time>
      </trkpt>
      <trkpt lat="46.48396" lon="8.26574">
        <ele>1348</ele>
        <time>2020-10-24T12:29:31.100Z</time>
      </trkpt>
      <trkpt lat="46.48395" lon="8.26576">
        <ele>1347</ele>
        <time>2020-10-24T12:29:32.100Z</time>
      </trkpt>
      <trkpt lat="46.48394" lon="8.26577">
        <ele>1347</ele>
        <time>2020-10-24T12:29:33.099Z</time>
      </trkpt>
      <trkpt lat="46.48394" lon="8.26579">
        <ele>1347</ele>
        <time>2020-10-24T12:29:34.100Z</time>
      </trkpt>
      <trkpt lat="46.48393" lon="8.2658">
        <ele>1347</ele>
        <time>2020-10-24T12:29:35.100Z</time>
      </trkpt>
      <trkpt lat="46.48392" lon="8.26582">
        <ele>1346</ele>
        <time>2020-10-24T12:29:36.100Z</time>
      </trkpt>
      <trkpt lat="46.48391" lon="8.26583">
        <ele>1347</ele>
        <time>2020-10-24T12:29:37.100Z</time>
      </trkpt>
      <trkpt lat="46.4839" lon="8.26584">
        <ele>1347</ele>
        <time>2020-10-24T12:29:38.100Z</time>
      </trkpt>
      <trkpt lat="46.4839" lon="8.26586">
        <ele>1347</ele>
        <time>2020-10-24T12:29:39.099Z</time>
      </trkpt>
      <trkpt lat="46.48389" lon="8.26587">
        <ele>1348</ele>
        <time>2020-10-24T12:29:40.099Z</time>
      </trkpt>
      <trkpt lat="46.48389" lon="8.26588">
        <ele>1348</ele>
        <time>2020-10-24T12:29:41.099Z</time>
      </trkpt>
      <trkpt lat="46.48388" lon="8.26589">
        <ele>1348</ele>
        <time>2020-10-24T12:29:42.099Z</time>
      </trkpt>
      <trkpt lat="46.48387" lon="8.2659">
        <ele>1347</ele>
        <time>2020-10-24T12:29:43.100Z</time>
      </trkpt>
      <trkpt lat="46.48387" lon="8.26592">
        <ele>1347</ele>
        <time>2020-10-24T12:29:44.100Z</time>
      </trkpt>
      <trkpt lat="46.48386" lon="8.26593">
        <ele>1347</ele>
        <time>2020-10-24T12:29:45.100Z</time>
      </trkpt>
      <trkpt lat="46.48386" lon="8.26595">
        <ele>1347</ele>
        <time>2020-10-24T12:29:46.100Z</time>
      </trkpt>
      <trkpt lat="46.48385" lon="8.26596">
        <ele>1347</ele>
        <time>2020-10-24T12:29:47.100Z</time>
      </trkpt>
      <trkpt lat="46.48385" lon="8.26597">
        <ele>1348</ele>
        <time>2020-10-24T12:29:48.100Z</time>
      </trkpt>
      <trkpt lat="46.48384" lon="8.26599">
        <ele>1348</ele>
        <time>2020-10-24T12:29:49.100Z</time>
      </trkpt>
      <trkpt lat="46.48384" lon="8.26601">
        <ele>1348</ele>
        <time>2020-10-24T12:29:50.099Z</time>
      </trkpt>
      <trkpt lat="46.48383" lon="8.26603">
        <ele>1348</ele>
        <time>2020-10-24T12:29:51.100Z</time>
      </trkpt>
      <trkpt lat="46.48383" lon="8.26604">
        <ele>1348</ele>
        <time>2020-10-24T12:29:52.099Z</time>
      </trkpt>
      <trkpt lat="46.48383" lon="8.26605">
        <ele>1348</ele>
        <time>2020-10-24T12:29:53.099Z</time>
      </trkpt>
      <trkpt lat="46.48382" lon="8.26606">
        <ele>1348</ele>
        <time>2020-10-24T12:29:54.100Z</time>
      </trkpt>
      <trkpt lat="46.48382" lon="8.26608">
        <ele>1348</ele>
        <time>2020-10-24T12:29:55.099Z</time>
      </trkpt>
      <trkpt lat="46.48382" lon="8.26609">
        <ele>1347</ele>
        <time>2020-10-24T12:29:56.099Z</time>
      </trkpt>
      <trkpt lat="46.48381" lon="8.26611">
        <ele>1347</ele>
        <time>2020-10-24T12:29:57.100Z</time>
      </trkpt>
      <trkpt lat="46.48381" lon="8.26612">
        <ele>1347</ele>
        <time>2020-10-24T12:29:58.099Z</time>
      </trkpt>
      <trkpt lat="46.48381" lon="8.26614">
        <ele>1346</ele>
        <time>2020-10-24T12:29:59.099Z</time>
      </trkpt>
      <trkpt lat="46.4838" lon="8.26616">
        <ele>1346</ele>
        <time>2020-10-24T12:30:00.100Z</time>
      </trkpt>
      <trkpt lat="46.4838" lon="8.26618">
        <ele>1346</ele>
        <time>2020-10-24T12:30:01.099Z</time>
      </trkpt>
      <trkpt lat="46.4838" lon="8.26619">
        <ele>1346</ele>
        <time>2020-10-24T12:30:02.100Z</time>
      </trkpt>
      <trkpt lat="46.48379" lon="8.26621">
        <ele>1346</ele>
        <time>2020-10-24T12:30:03.100Z</time>
      </trkpt>
      <trkpt lat="46.48379" lon="8.26623">
        <ele>1346</ele>
        <time>2020-10-24T12:30:04.099Z</time>
      </trkpt>
      <trkpt lat="46.48379" lon="8.26624">
        <ele>1346</ele>
        <time>2020-10-24T12:30:05.100Z</time>
      </trkpt>
      <trkpt lat="46.48379" lon="8.26626">
        <ele>1346</ele>
        <time>2020-10-24T12:30:06.099Z</time>
      </trkpt>
      <trkpt lat="46.48378" lon="8.26627">
        <ele>1346</ele>
        <time>2020-10-24T12:30:07.100Z</time>
      </trkpt>
      <trkpt lat="46.48378" lon="8.26629">
        <ele>1346</ele>
        <time>2020-10-24T12:30:08.099Z</time>
      </trkpt>
      <trkpt lat="46.48378" lon="8.2663">
        <ele>1346</ele>
        <time>2020-10-24T12:30:09.099Z</time>
      </trkpt>
      <trkpt lat="46.48377" lon="8.26632">
        <ele>1346</ele>
        <time>2020-10-24T12:30:10.100Z</time>
      </trkpt>
      <trkpt lat="46.48377" lon="8.26634">
        <ele>1345</ele>
        <time>2020-10-24T12:30:11.099Z</time>
      </trkpt>
      <trkpt lat="46.48377" lon="8.26636">
        <ele>1345</ele>
        <time>2020-10-24T12:30:12.100Z</time>
      </trkpt>
      <trkpt lat="46.48376" lon="8.26637">
        <ele>1345</ele>
        <time>2020-10-24T12:30:13.099Z</time>
      </trkpt>
      <trkpt lat="46.48375" lon="8.26639">
        <ele>1345</ele>
        <time>2020-10-24T12:30:14.100Z</time>
      </trkpt>
      <trkpt lat="46.48375" lon="8.2664">
        <ele>1345</ele>
        <time>2020-10-24T12:30:15.099Z</time>
      </trkpt>
      <trkpt lat="46.48374" lon="8.26642">
        <ele>1345</ele>
        <time>2020-10-24T12:30:16.100Z</time>
      </trkpt>
      <trkpt lat="46.48374" lon="8.26643">
        <ele>1345</ele>
        <time>2020-10-24T12:30:17.100Z</time>
      </trkpt>
      <trkpt lat="46.48373" lon="8.26645">
        <ele>1345</ele>
        <time>2020-10-24T12:30:18.100Z</time>
      </trkpt>
      <trkpt lat="46.48373" lon="8.26646">
        <ele>1345</ele>
        <time>2020-10-24T12:30:19.100Z</time>
      </trkpt>
      <trkpt lat="46.48372" lon="8.26648">
        <ele>1345</ele>
        <time>2020-10-24T12:30:20.100Z</time>
      </trkpt>
      <trkpt lat="46.48371" lon="8.26649">
        <ele>1345</ele>
        <time>2020-10-24T12:30:21.100Z</time>
      </trkpt>
      <trkpt lat="46.4837" lon="8.2665">
        <ele>1346</ele>
        <time>2020-10-24T12:30:22.100Z</time>
      </trkpt>
      <trkpt lat="46.48369" lon="8.26652">
        <ele>1346</ele>
        <time>2020-10-24T12:30:23.100Z</time>
      </trkpt>
      <trkpt lat="46.48368" lon="8.26653">
        <ele>1346</ele>
        <time>2020-10-24T12:30:24.099Z</time>
      </trkpt>
      <trkpt lat="46.48367" lon="8.26654">
        <ele>1345</ele>
        <time>2020-10-24T12:30:25.099Z</time>
      </trkpt>
      <trkpt lat="46.48365" lon="8.26655">
        <ele>1345</ele>
        <time>2020-10-24T12:30:26.099Z</time>
      </trkpt>
      <trkpt lat="46.48364" lon="8.26656">
        <ele>1345</ele>
        <time>2020-10-24T12:30:27.099Z</time>
      </trkpt>
      <trkpt lat="46.48363" lon="8.26657">
        <ele>1345</ele>
        <time>2020-10-24T12:30:28.099Z</time>
      </trkpt>
      <trkpt lat="46.48362" lon="8.26658">
        <ele>1345</ele>
        <time>2020-10-24T12:30:29.099Z</time>
      </trkpt>
      <trkpt lat="46.48361" lon="8.26659">
        <ele>1345</ele>
        <time>2020-10-24T12:30:30.100Z</time>
      </trkpt>
      <trkpt lat="46.4836" lon="8.2666">
        <ele>1345</ele>
        <time>2020-10-24T12:30:31.100Z</time>
      </trkpt>
      <trkpt lat="46.48359" lon="8.26661">
        <ele>1345</ele>
        <time>2020-10-24T12:30:32.099Z</time>
      </trkpt>
      <trkpt lat="46.48358" lon="8.26662">
        <ele>1345</ele>
        <time>2020-10-24T12:30:33.099Z</time>
      </trkpt>
      <trkpt lat="46.48357" lon="8.26663">
        <ele>1345</ele>
        <time>2020-10-24T12:30:34.100Z</time>
      </trkpt>
      <trkpt lat="46.48357" lon="8.26664">
        <ele>1344</ele>
        <time>2020-10-24T12:30:35.099Z</time>
      </trkpt>
      <trkpt lat="46.48356" lon="8.26665">
        <ele>1344</ele>
        <time>2020-10-24T12:30:36.100Z</time>
      </trkpt>
      <trkpt lat="46.48354" lon="8.26665">
        <ele>1343</ele>
        <time>2020-10-24T12:30:37.100Z</time>
      </trkpt>
      <trkpt lat="46.48353" lon="8.26666">
        <ele>1343</ele>
        <time>2020-10-24T12:30:38.099Z</time>
      </trkpt>
      <trkpt lat="46.48352" lon="8.26667">
        <ele>1344</ele>
        <time>2020-10-24T12:30:39.100Z</time>
      </trkpt>
      <trkpt lat="46.4835" lon="8.26668">
        <ele>1344</ele>
        <time>2020-10-24T12:30:40.100Z</time>
      </trkpt>
      <trkpt lat="46.48349" lon="8.26668">
        <ele>1344</ele>
        <time>2020-10-24T12:30:41.100Z</time>
      </trkpt>
      <trkpt lat="46.48348" lon="8.26669">
        <ele>1344</ele>
        <time>2020-10-24T12:30:42.100Z</time>
      </trkpt>
      <trkpt lat="46.48347" lon="8.2667">
        <ele>1344</ele>
        <time>2020-10-24T12:30:43.099Z</time>
      </trkpt>
      <trkpt lat="46.48346" lon="8.26671">
        <ele>1344</ele>
        <time>2020-10-24T12:30:44.099Z</time>
      </trkpt>
      <trkpt lat="46.48345" lon="8.26673">
        <ele>1343</ele>
        <time>2020-10-24T12:30:45.099Z</time>
      </trkpt>
      <trkpt lat="46.48344" lon="8.26674">
        <ele>1343</ele>
        <time>2020-10-24T12:30:46.100Z</time>
      </trkpt>
      <trkpt lat="46.48343" lon="8.26675">
        <ele>1342</ele>
        <time>2020-10-24T12:30:47.100Z</time>
      </trkpt>
      <trkpt lat="46.48342" lon="8.26676">
        <ele>1341</ele>
        <time>2020-10-24T12:30:48.099Z</time>
      </trkpt>
      <trkpt lat="46.48341" lon="8.26677">
        <ele>1341</ele>
        <time>2020-10-24T12:30:49.099Z</time>
      </trkpt>
      <trkpt lat="46.4834" lon="8.26678">
        <ele>1340</ele>
        <time>2020-10-24T12:30:50.099Z</time>
      </trkpt>
      <trkpt lat="46.48339" lon="8.26679">
        <ele>1340</ele>
        <time>2020-10-24T12:30:51.099Z</time>
      </trkpt>
      <trkpt lat="46.48338" lon="8.26679">
        <ele>1340</ele>
        <time>2020-10-24T12:30:52.100Z</time>
      </trkpt>
      <trkpt lat="46.48338" lon="8.26681">
        <ele>1340</ele>
        <time>2020-10-24T12:30:53.100Z</time>
      </trkpt>
      <trkpt lat="46.48337" lon="8.26683">
        <ele>1340</ele>
        <time>2020-10-24T12:30:54.099Z</time>
      </trkpt>
      <trkpt lat="46.48336" lon="8.26684">
        <ele>1340</ele>
        <time>2020-10-24T12:30:55.099Z</time>
      </trkpt>
      <trkpt lat="46.48335" lon="8.26685">
        <ele>1341</ele>
        <time>2020-10-24T12:30:56.100Z</time>
      </trkpt>
      <trkpt lat="46.48334" lon="8.26687">
        <ele>1341</ele>
        <time>2020-10-24T12:30:57.099Z</time>
      </trkpt>
      <trkpt lat="46.48334" lon="8.26688">
        <ele>1340</ele>
        <time>2020-10-24T12:30:58.100Z</time>
      </trkpt>
      <trkpt lat="46.48333" lon="8.26689">
        <ele>1340</ele>
        <time>2020-10-24T12:30:59.100Z</time>
      </trkpt>
      <trkpt lat="46.48332" lon="8.2669">
        <ele>1340</ele>
        <time>2020-10-24T12:31:00.099Z</time>
      </trkpt>
      <trkpt lat="46.48331" lon="8.26691">
        <ele>1340</ele>
        <time>2020-10-24T12:31:01.100Z</time>
      </trkpt>
      <trkpt lat="46.48331" lon="8.26692">
        <ele>1340</ele>
        <time>2020-10-24T12:31:02.099Z</time>
      </trkpt>
      <trkpt lat="46.4833" lon="8.26693">
        <ele>1340</ele>
        <time>2020-10-24T12:31:03.100Z</time>
      </trkpt>
      <trkpt lat="46.48329" lon="8.26694">
        <ele>1339</ele>
        <time>2020-10-24T12:31:04.100Z</time>
      </trkpt>
      <trkpt lat="46.48328" lon="8.26695">
        <ele>1339</ele>
        <time>2020-10-24T12:31:05.100Z</time>
      </trkpt>
      <trkpt lat="46.48328" lon="8.26696">
        <ele>1339</ele>
        <time>2020-10-24T12:31:06.100Z</time>
      </trkpt>
      <trkpt lat="46.48326" lon="8.26696">
        <ele>1339</ele>
        <time>2020-10-24T12:31:07.099Z</time>
      </trkpt>
      <trkpt lat="46.48325" lon="8.26697">
        <ele>1339</ele>
        <time>2020-10-24T12:31:08.099Z</time>
      </trkpt>
      <trkpt lat="46.48325" lon="8.26698">
        <ele>1338</ele>
        <time>2020-10-24T12:31:09.100Z</time>
      </trkpt>
      <trkpt lat="46.48325" lon="8.26699">
        <ele>1337</ele>
        <time>2020-10-24T12:31:10.099Z</time>
      </trkpt>
      <trkpt lat="46.48324" lon="8.267">
        <ele>1336</ele>
        <time>2020-10-24T12:31:11.099Z</time>
      </trkpt>
      <trkpt lat="46.48323" lon="8.26702">
        <ele>1336</ele>
        <time>2020-10-24T12:31:12.099Z</time>
      </trkpt>
      <trkpt lat="46.48322" lon="8.26702">
        <ele>1336</ele>
        <time>2020-10-24T12:31:13.100Z</time>
      </trkpt>
      <trkpt lat="46.48321" lon="8.26703">
        <ele>1337</ele>
        <time>2020-10-24T12:31:14.099Z</time>
      </trkpt>
      <trkpt lat="46.48321" lon="8.26704">
        <ele>1337</ele>
        <time>2020-10-24T12:31:15.099Z</time>
      </trkpt>
      <trkpt lat="46.4832" lon="8.26705">
        <ele>1337</ele>
        <time>2020-10-24T12:31:16.099Z</time>
      </trkpt>
      <trkpt lat="46.48319" lon="8.26706">
        <ele>1337</ele>
        <time>2020-10-24T12:31:17.099Z</time>
      </trkpt>
      <trkpt lat="46.48318" lon="8.26707">
        <ele>1337</ele>
        <time>2020-10-24T12:31:18.100Z</time>
      </trkpt>
      <trkpt lat="46.48317" lon="8.26707">
        <ele>1337</ele>
        <time>2020-10-24T12:31:19.099Z</time>
      </trkpt>
      <trkpt lat="46.48316" lon="8.26708">
        <ele>1337</ele>
        <time>2020-10-24T12:31:20.099Z</time>
      </trkpt>
      <trkpt lat="46.48315" lon="8.2671">
        <ele>1337</ele>
        <time>2020-10-24T12:31:21.100Z</time>
      </trkpt>
      <trkpt lat="46.48314" lon="8.26711">
        <ele>1337</ele>
        <time>2020-10-24T12:31:22.100Z</time>
      </trkpt>
      <trkpt lat="46.48313" lon="8.26712">
        <ele>1337</ele>
        <time>2020-10-24T12:31:23.100Z</time>
      </trkpt>
      <trkpt lat="46.48313" lon="8.26712">
        <ele>1337</ele>
        <time>2020-10-24T12:31:24.100Z</time>
      </trkpt>
      <trkpt lat="46.48312" lon="8.26713">
        <ele>1336</ele>
        <time>2020-10-24T12:31:25.100Z</time>
      </trkpt>
      <trkpt lat="46.48311" lon="8.26714">
        <ele>1336</ele>
        <time>2020-10-24T12:31:26.099Z</time>
      </trkpt>
      <trkpt lat="46.4831" lon="8.26715">
        <ele>1336</ele>
        <time>2020-10-24T12:31:27.100Z</time>
      </trkpt>
      <trkpt lat="46.48309" lon="8.26716">
        <ele>1336</ele>
        <time>2020-10-24T12:31:28.100Z</time>
      </trkpt>
      <trkpt lat="46.48308" lon="8.26717">
        <ele>1336</ele>
        <time>2020-10-24T12:31:29.100Z</time>
      </trkpt>
      <trkpt lat="46.48307" lon="8.26718">
        <ele>1335</ele>
        <time>2020-10-24T12:31:30.100Z</time>
      </trkpt>
      <trkpt lat="46.48307" lon="8.26719">
        <ele>1335</ele>
        <time>2020-10-24T12:31:31.100Z</time>
      </trkpt>
      <trkpt lat="46.48306" lon="8.26719">
        <ele>1334</ele>
        <time>2020-10-24T12:31:32.100Z</time>
      </trkpt>
      <trkpt lat="46.48305" lon="8.26721">
        <ele>1334</ele>
        <time>2020-10-24T12:31:33.099Z</time>
      </trkpt>
      <trkpt lat="46.48304" lon="8.26721">
        <ele>1334</ele>
        <time>2020-10-24T12:31:34.099Z</time>
      </trkpt>
      <trkpt lat="46.48303" lon="8.26723">
        <ele>1335</ele>
        <time>2020-10-24T12:31:35.099Z</time>
      </trkpt>
      <trkpt lat="46.48303" lon="8.26724">
        <ele>1335</ele>
        <time>2020-10-24T12:31:36.100Z</time>
      </trkpt>
      <trkpt lat="46.48302" lon="8.26725">
        <ele>1336</ele>
        <time>2020-10-24T12:31:37.099Z</time>
      </trkpt>
      <trkpt lat="46.483" lon="8.26727">
        <ele>1337</ele>
        <time>2020-10-24T12:31:38.099Z</time>
      </trkpt>
      <trkpt lat="46.48299" lon="8.26728">
        <ele>1337</ele>
        <time>2020-10-24T12:31:39.100Z</time>
      </trkpt>
      <trkpt lat="46.48298" lon="8.26729">
        <ele>1337</ele>
        <time>2020-10-24T12:31:40.099Z</time>
      </trkpt>
      <trkpt lat="46.48297" lon="8.2673">
        <ele>1337</ele>
        <time>2020-10-24T12:31:41.099Z</time>
      </trkpt>
      <trkpt lat="46.48296" lon="8.26731">
        <ele>1337</ele>
        <time>2020-10-24T12:31:42.099Z</time>
      </trkpt>
      <trkpt lat="46.48295" lon="8.26732">
        <ele>1337</ele>
        <time>2020-10-24T12:31:43.100Z</time>
      </trkpt>
      <trkpt lat="46.48294" lon="8.26733">
        <ele>1337</ele>
        <time>2020-10-24T12:31:44.100Z</time>
      </trkpt>
      <trkpt lat="46.48294" lon="8.26734">
        <ele>1336</ele>
        <time>2020-10-24T12:31:45.100Z</time>
      </trkpt>
      <trkpt lat="46.48292" lon="8.26735">
        <ele>1336</ele>
        <time>2020-10-24T12:31:46.100Z</time>
      </trkpt>
      <trkpt lat="46.48291" lon="8.26736">
        <ele>1336</ele>
        <time>2020-10-24T12:31:47.100Z</time>
      </trkpt>
      <trkpt lat="46.4829" lon="8.26737">
        <ele>1336</ele>
        <time>2020-10-24T12:31:48.099Z</time>
      </trkpt>
      <trkpt lat="46.48289" lon="8.26737">
        <ele>1336</ele>
        <time>2020-10-24T12:31:49.099Z</time>
      </trkpt>
      <trkpt lat="46.48288" lon="8.26739">
        <ele>1336</ele>
        <time>2020-10-24T12:31:50.099Z</time>
      </trkpt>
      <trkpt lat="46.48287" lon="8.2674">
        <ele>1336</ele>
        <time>2020-10-24T12:31:51.099Z</time>
      </trkpt>
      <trkpt lat="46.48287" lon="8.26741">
        <ele>1336</ele>
        <time>2020-10-24T12:31:52.100Z</time>
      </trkpt>
      <trkpt lat="46.48286" lon="8.26743">
        <ele>1336</ele>
        <time>2020-10-24T12:31:53.100Z</time>
      </trkpt>
      <trkpt lat="46.48285" lon="8.26744">
        <ele>1336</ele>
        <time>2020-10-24T12:31:54.100Z</time>
      </trkpt>
      <trkpt lat="46.48284" lon="8.26745">
        <ele>1336</ele>
        <time>2020-10-24T12:31:55.099Z</time>
      </trkpt>
      <trkpt lat="46.48283" lon="8.26746">
        <ele>1336</ele>
        <time>2020-10-24T12:31:56.100Z</time>
      </trkpt>
      <trkpt lat="46.48282" lon="8.26747">
        <ele>1336</ele>
        <time>2020-10-24T12:31:57.100Z</time>
      </trkpt>
      <trkpt lat="46.48281" lon="8.26747">
        <ele>1336</ele>
        <time>2020-10-24T12:31:58.099Z</time>
      </trkpt>
      <trkpt lat="46.4828" lon="8.26748">
        <ele>1337</ele>
        <time>2020-10-24T12:31:59.100Z</time>
      </trkpt>
      <trkpt lat="46.48279" lon="8.26749">
        <ele>1337</ele>
        <time>2020-10-24T12:32:00.099Z</time>
      </trkpt>
      <trkpt lat="46.48278" lon="8.2675">
        <ele>1336</ele>
        <time>2020-10-24T12:32:01.099Z</time>
      </trkpt>
      <trkpt lat="46.48277" lon="8.26751">
        <ele>1336</ele>
        <time>2020-10-24T12:32:02.099Z</time>
      </trkpt>
      <trkpt lat="46.48276" lon="8.26752">
        <ele>1336</ele>
        <time>2020-10-24T12:32:03.099Z</time>
      </trkpt>
      <trkpt lat="46.48275" lon="8.26753">
        <ele>1335</ele>
        <time>2020-10-24T12:32:04.100Z</time>
      </trkpt>
      <trkpt lat="46.48274" lon="8.26754">
        <ele>1335</ele>
        <time>2020-10-24T12:32:05.099Z</time>
      </trkpt>
      <trkpt lat="46.48273" lon="8.26755">
        <ele>1335</ele>
        <time>2020-10-24T12:32:06.100Z</time>
      </trkpt>
      <trkpt lat="46.48272" lon="8.26756">
        <ele>1335</ele>
        <time>2020-10-24T12:32:07.099Z</time>
      </trkpt>
      <trkpt lat="46.48271" lon="8.26757">
        <ele>1335</ele>
        <time>2020-10-24T12:32:08.099Z</time>
      </trkpt>
      <trkpt lat="46.4827" lon="8.26758">
        <ele>1336</ele>
        <time>2020-10-24T12:32:09.099Z</time>
      </trkpt>
      <trkpt lat="46.48269" lon="8.26759">
        <ele>1336</ele>
        <time>2020-10-24T12:32:10.100Z</time>
      </trkpt>
      <trkpt lat="46.48268" lon="8.2676">
        <ele>1336</ele>
        <time>2020-10-24T12:32:11.100Z</time>
      </trkpt>
      <trkpt lat="46.48268" lon="8.26761">
        <ele>1335</ele>
        <time>2020-10-24T12:32:12.100Z</time>
      </trkpt>
      <trkpt lat="46.48267" lon="8.26762">
        <ele>1335</ele>
        <time>2020-10-24T12:32:13.099Z</time>
      </trkpt>
      <trkpt lat="46.48266" lon="8.26763">
        <ele>1335</ele>
        <time>2020-10-24T12:32:14.100Z</time>
      </trkpt>
      <trkpt lat="46.48265" lon="8.26764">
        <ele>1335</ele>
        <time>2020-10-24T12:32:15.099Z</time>
      </trkpt>
      <trkpt lat="46.48264" lon="8.26764">
        <ele>1335</ele>
        <time>2020-10-24T12:32:16.100Z</time>
      </trkpt>
      <trkpt lat="46.48263" lon="8.26766">
        <ele>1335</ele>
        <time>2020-10-24T12:32:17.100Z</time>
      </trkpt>
      <trkpt lat="46.48262" lon="8.26767">
        <ele>1335</ele>
        <time>2020-10-24T12:32:18.099Z</time>
      </trkpt>
      <trkpt lat="46.48261" lon="8.26769">
        <ele>1335</ele>
        <time>2020-10-24T12:32:19.100Z</time>
      </trkpt>
      <trkpt lat="46.48261" lon="8.2677">
        <ele>1335</ele>
        <time>2020-10-24T12:32:20.100Z</time>
      </trkpt>
      <trkpt lat="46.4826" lon="8.26771">
        <ele>1335</ele>
        <time>2020-10-24T12:32:21.099Z</time>
      </trkpt>
      <trkpt lat="46.4826" lon="8.26772">
        <ele>1335</ele>
        <time>2020-10-24T12:32:22.099Z</time>
      </trkpt>
      <trkpt lat="46.48259" lon="8.26773">
        <ele>1335</ele>
        <time>2020-10-24T12:32:23.099Z</time>
      </trkpt>
      <trkpt lat="46.48258" lon="8.26773">
        <ele>1335</ele>
        <time>2020-10-24T12:32:24.100Z</time>
      </trkpt>
      <trkpt lat="46.48258" lon="8.26774">
        <ele>1334</ele>
        <time>2020-10-24T12:32:25.100Z</time>
      </trkpt>
      <trkpt lat="46.48258" lon="8.26775">
        <ele>1334</ele>
        <time>2020-10-24T12:32:26.099Z</time>
      </trkpt>
      <trkpt lat="46.48257" lon="8.26776">
        <ele>1333</ele>
        <time>2020-10-24T12:32:27.099Z</time>
      </trkpt>
      <trkpt lat="46.48257" lon="8.26777">
        <ele>1333</ele>
        <time>2020-10-24T12:32:28.100Z</time>
      </trkpt>
      <trkpt lat="46.48256" lon="8.26778">
        <ele>1333</ele>
        <time>2020-10-24T12:32:29.100Z</time>
      </trkpt>
      <trkpt lat="46.48256" lon="8.26779">
        <ele>1333</ele>
        <time>2020-10-24T12:32:30.100Z</time>
      </trkpt>
      <trkpt lat="46.48255" lon="8.26779">
        <ele>1333</ele>
        <time>2020-10-24T12:32:31.100Z</time>
      </trkpt>
      <trkpt lat="46.48254" lon="8.2678">
        <ele>1332</ele>
        <time>2020-10-24T12:32:32.100Z</time>
      </trkpt>
      <trkpt lat="46.48254" lon="8.26781">
        <ele>1332</ele>
        <time>2020-10-24T12:32:33.100Z</time>
      </trkpt>
      <trkpt lat="46.48254" lon="8.26781">
        <ele>1332</ele>
        <time>2020-10-24T12:32:34.099Z</time>
      </trkpt>
      <trkpt lat="46.48254" lon="8.2678">
        <ele>1331</ele>
        <time>2020-10-24T12:32:35.099Z</time>
      </trkpt>
      <trkpt lat="46.48253" lon="8.26779">
        <ele>1335</ele>
        <time>2020-10-24T12:32:36.100Z</time>
      </trkpt>
      <trkpt lat="46.48252" lon="8.2678">
        <ele>1335</ele>
        <time>2020-10-24T12:32:37.100Z</time>
      </trkpt>
      <trkpt lat="46.48251" lon="8.26781">
        <ele>1336</ele>
        <time>2020-10-24T12:32:38.100Z</time>
      </trkpt>
      <trkpt lat="46.48251" lon="8.26781">
        <ele>1336</ele>
        <time>2020-10-24T12:32:39.101Z</time>
      </trkpt>
      <trkpt lat="46.48249" lon="8.26782">
        <ele>1337</ele>
        <time>2020-10-24T12:32:40.101Z</time>
      </trkpt>
      <trkpt lat="46.48248" lon="8.26783">
        <ele>1337</ele>
        <time>2020-10-24T12:32:41.100Z</time>
      </trkpt>
      <trkpt lat="46.48247" lon="8.26784">
        <ele>1337</ele>
        <time>2020-10-24T12:32:42.101Z</time>
      </trkpt>
      <trkpt lat="46.48246" lon="8.26785">
        <ele>1337</ele>
        <time>2020-10-24T12:32:43.101Z</time>
      </trkpt>
      <trkpt lat="46.48245" lon="8.26786">
        <ele>1337</ele>
        <time>2020-10-24T12:32:44.101Z</time>
      </trkpt>
      <trkpt lat="46.48244" lon="8.26787">
        <ele>1337</ele>
        <time>2020-10-24T12:32:45.100Z</time>
      </trkpt>
      <trkpt lat="46.48243" lon="8.26788">
        <ele>1337</ele>
        <time>2020-10-24T12:32:46.100Z</time>
      </trkpt>
      <trkpt lat="46.48241" lon="8.26789">
        <ele>1337</ele>
        <time>2020-10-24T12:32:47.101Z</time>
      </trkpt>
      <trkpt lat="46.48241" lon="8.2679">
        <ele>1336</ele>
        <time>2020-10-24T12:32:48.101Z</time>
      </trkpt>
      <trkpt lat="46.48239" lon="8.26792">
        <ele>1336</ele>
        <time>2020-10-24T12:32:49.101Z</time>
      </trkpt>
      <trkpt lat="46.48238" lon="8.26793">
        <ele>1336</ele>
        <time>2020-10-24T12:32:50.101Z</time>
      </trkpt>
      <trkpt lat="46.48237" lon="8.26794">
        <ele>1336</ele>
        <time>2020-10-24T12:32:51.101Z</time>
      </trkpt>
      <trkpt lat="46.48236" lon="8.26795">
        <ele>1335</ele>
        <time>2020-10-24T12:32:52.101Z</time>
      </trkpt>
      <trkpt lat="46.48235" lon="8.26797">
        <ele>1335</ele>
        <time>2020-10-24T12:32:53.101Z</time>
      </trkpt>
      <trkpt lat="46.48234" lon="8.26798">
        <ele>1335</ele>
        <time>2020-10-24T12:32:54.101Z</time>
      </trkpt>
      <trkpt lat="46.48234" lon="8.26799">
        <ele>1335</ele>
        <time>2020-10-24T12:32:55.101Z</time>
      </trkpt>
      <trkpt lat="46.48233" lon="8.268">
        <ele>1335</ele>
        <time>2020-10-24T12:32:56.101Z</time>
      </trkpt>
      <trkpt lat="46.48231" lon="8.268">
        <ele>1335</ele>
        <time>2020-10-24T12:32:57.100Z</time>
      </trkpt>
      <trkpt lat="46.4823" lon="8.26801">
        <ele>1335</ele>
        <time>2020-10-24T12:32:58.101Z</time>
      </trkpt>
      <trkpt lat="46.4823" lon="8.26801">
        <ele>1335</ele>
        <time>2020-10-24T12:32:59.100Z</time>
      </trkpt>
      <trkpt lat="46.48228" lon="8.26802">
        <ele>1335</ele>
        <time>2020-10-24T12:33:00.100Z</time>
      </trkpt>
      <trkpt lat="46.48228" lon="8.26804">
        <ele>1335</ele>
        <time>2020-10-24T12:33:01.101Z</time>
      </trkpt>
      <trkpt lat="46.48227" lon="8.26805">
        <ele>1335</ele>
        <time>2020-10-24T12:33:02.101Z</time>
      </trkpt>
      <trkpt lat="46.48226" lon="8.26806">
        <ele>1334</ele>
        <time>2020-10-24T12:33:03.101Z</time>
      </trkpt>
      <trkpt lat="46.48225" lon="8.26807">
        <ele>1334</ele>
        <time>2020-10-24T12:33:04.100Z</time>
      </trkpt>
      <trkpt lat="46.48224" lon="8.26808">
        <ele>1334</ele>
        <time>2020-10-24T12:33:05.100Z</time>
      </trkpt>
      <trkpt lat="46.48224" lon="8.2681">
        <ele>1334</ele>
        <time>2020-10-24T12:33:06.101Z</time>
      </trkpt>
      <trkpt lat="46.48223" lon="8.26811">
        <ele>1334</ele>
        <time>2020-10-24T12:33:07.101Z</time>
      </trkpt>
      <trkpt lat="46.48222" lon="8.26812">
        <ele>1333</ele>
        <time>2020-10-24T12:33:08.101Z</time>
      </trkpt>
      <trkpt lat="46.48221" lon="8.26813">
        <ele>1333</ele>
        <time>2020-10-24T12:33:09.101Z</time>
      </trkpt>
      <trkpt lat="46.4822" lon="8.26814">
        <ele>1333</ele>
        <time>2020-10-24T12:33:10.101Z</time>
      </trkpt>
      <trkpt lat="46.4822" lon="8.26816">
        <ele>1333</ele>
        <time>2020-10-24T12:33:11.101Z</time>
      </trkpt>
      <trkpt lat="46.48218" lon="8.26817">
        <ele>1333</ele>
        <time>2020-10-24T12:33:12.100Z</time>
      </trkpt>
      <trkpt lat="46.48217" lon="8.26817">
        <ele>1334</ele>
        <time>2020-10-24T12:33:13.101Z</time>
      </trkpt>
      <trkpt lat="46.48216" lon="8.26819">
        <ele>1334</ele>
        <time>2020-10-24T12:33:14.101Z</time>
      </trkpt>
      <trkpt lat="46.48215" lon="8.2682">
        <ele>1334</ele>
        <time>2020-10-24T12:33:15.101Z</time>
      </trkpt>
      <trkpt lat="46.48214" lon="8.26821">
        <ele>1334</ele>
        <time>2020-10-24T12:33:16.101Z</time>
      </trkpt>
      <trkpt lat="46.48213" lon="8.26822">
        <ele>1334</ele>
        <time>2020-10-24T12:33:17.101Z</time>
      </trkpt>
      <trkpt lat="46.48213" lon="8.26823">
        <ele>1334</ele>
        <time>2020-10-24T12:33:18.101Z</time>
      </trkpt>
      <trkpt lat="46.48212" lon="8.26824">
        <ele>1334</ele>
        <time>2020-10-24T12:33:19.101Z</time>
      </trkpt>
      <trkpt lat="46.48211" lon="8.26826">
        <ele>1334</ele>
        <time>2020-10-24T12:33:20.100Z</time>
      </trkpt>
      <trkpt lat="46.4821" lon="8.26827">
        <ele>1333</ele>
        <time>2020-10-24T12:33:21.100Z</time>
      </trkpt>
      <trkpt lat="46.48209" lon="8.26828">
        <ele>1333</ele>
        <time>2020-10-24T12:33:22.100Z</time>
      </trkpt>
      <trkpt lat="46.48208" lon="8.26829">
        <ele>1334</ele>
        <time>2020-10-24T12:33:23.101Z</time>
      </trkpt>
      <trkpt lat="46.48208" lon="8.26831">
        <ele>1334</ele>
        <time>2020-10-24T12:33:24.101Z</time>
      </trkpt>
      <trkpt lat="46.48207" lon="8.26832">
        <ele>1334</ele>
        <time>2020-10-24T12:33:25.101Z</time>
      </trkpt>
      <trkpt lat="46.48206" lon="8.26834">
        <ele>1334</ele>
        <time>2020-10-24T12:33:26.100Z</time>
      </trkpt>
      <trkpt lat="46.48206" lon="8.26836">
        <ele>1334</ele>
        <time>2020-10-24T12:33:27.101Z</time>
      </trkpt>
      <trkpt lat="46.48205" lon="8.26838">
        <ele>1333</ele>
        <time>2020-10-24T12:33:28.101Z</time>
      </trkpt>
      <trkpt lat="46.48204" lon="8.26839">
        <ele>1333</ele>
        <time>2020-10-24T12:33:29.101Z</time>
      </trkpt>
      <trkpt lat="46.48204" lon="8.26841">
        <ele>1333</ele>
        <time>2020-10-24T12:33:30.100Z</time>
      </trkpt>
      <trkpt lat="46.48203" lon="8.26842">
        <ele>1333</ele>
        <time>2020-10-24T12:33:31.101Z</time>
      </trkpt>
      <trkpt lat="46.48203" lon="8.26844">
        <ele>1333</ele>
        <time>2020-10-24T12:33:32.101Z</time>
      </trkpt>
      <trkpt lat="46.48202" lon="8.26846">
        <ele>1333</ele>
        <time>2020-10-24T12:33:33.100Z</time>
      </trkpt>
      <trkpt lat="46.48202" lon="8.26847">
        <ele>1333</ele>
        <time>2020-10-24T12:33:34.101Z</time>
      </trkpt>
      <trkpt lat="46.48201" lon="8.26849">
        <ele>1333</ele>
        <time>2020-10-24T12:33:35.101Z</time>
      </trkpt>
      <trkpt lat="46.48201" lon="8.2685">
        <ele>1333</ele>
        <time>2020-10-24T12:33:36.101Z</time>
      </trkpt>
      <trkpt lat="46.482" lon="8.26852">
        <ele>1333</ele>
        <time>2020-10-24T12:33:37.101Z</time>
      </trkpt>
      <trkpt lat="46.482" lon="8.26853">
        <ele>1334</ele>
        <time>2020-10-24T12:33:38.100Z</time>
      </trkpt>
      <trkpt lat="46.482" lon="8.26855">
        <ele>1334</ele>
        <time>2020-10-24T12:33:39.101Z</time>
      </trkpt>
      <trkpt lat="46.48199" lon="8.26856">
        <ele>1334</ele>
        <time>2020-10-24T12:33:40.100Z</time>
      </trkpt>
      <trkpt lat="46.48199" lon="8.26857">
        <ele>1334</ele>
        <time>2020-10-24T12:33:41.100Z</time>
      </trkpt>
      <trkpt lat="46.48198" lon="8.26859">
        <ele>1334</ele>
        <time>2020-10-24T12:33:42.100Z</time>
      </trkpt>
      <trkpt lat="46.48198" lon="8.26861">
        <ele>1334</ele>
        <time>2020-10-24T12:33:43.101Z</time>
      </trkpt>
      <trkpt lat="46.48197" lon="8.26863">
        <ele>1334</ele>
        <time>2020-10-24T12:33:44.101Z</time>
      </trkpt>
      <trkpt lat="46.48197" lon="8.26865">
        <ele>1334</ele>
        <time>2020-10-24T12:33:45.101Z</time>
      </trkpt>
      <trkpt lat="46.48196" lon="8.26867">
        <ele>1334</ele>
        <time>2020-10-24T12:33:46.100Z</time>
      </trkpt>
      <trkpt lat="46.48196" lon="8.26868">
        <ele>1334</ele>
        <time>2020-10-24T12:33:47.101Z</time>
      </trkpt>
      <trkpt lat="46.48196" lon="8.2687">
        <ele>1334</ele>
        <time>2020-10-24T12:33:48.101Z</time>
      </trkpt>
      <trkpt lat="46.48195" lon="8.26872">
        <ele>1334</ele>
        <time>2020-10-24T12:33:49.101Z</time>
      </trkpt>
      <trkpt lat="46.48195" lon="8.26874">
        <ele>1334</ele>
        <time>2020-10-24T12:33:50.101Z</time>
      </trkpt>
      <trkpt lat="46.48195" lon="8.26876">
        <ele>1334</ele>
        <time>2020-10-24T12:33:51.100Z</time>
      </trkpt>
      <trkpt lat="46.48194" lon="8.26877">
        <ele>1334</ele>
        <time>2020-10-24T12:33:52.101Z</time>
      </trkpt>
      <trkpt lat="46.48194" lon="8.26879">
        <ele>1334</ele>
        <time>2020-10-24T12:33:53.101Z</time>
      </trkpt>
      <trkpt lat="46.48194" lon="8.26881">
        <ele>1334</ele>
        <time>2020-10-24T12:33:54.100Z</time>
      </trkpt>
      <trkpt lat="46.48194" lon="8.26882">
        <ele>1334</ele>
        <time>2020-10-24T12:33:55.100Z</time>
      </trkpt>
      <trkpt lat="46.48193" lon="8.26884">
        <ele>1334</ele>
        <time>2020-10-24T12:33:56.101Z</time>
      </trkpt>
      <trkpt lat="46.48193" lon="8.26885">
        <ele>1334</ele>
        <time>2020-10-24T12:33:57.101Z</time>
      </trkpt>
      <trkpt lat="46.48193" lon="8.26887">
        <ele>1334</ele>
        <time>2020-10-24T12:33:58.100Z</time>
      </trkpt>
      <trkpt lat="46.48192" lon="8.26888">
        <ele>1335</ele>
        <time>2020-10-24T12:33:59.101Z</time>
      </trkpt>
      <trkpt lat="46.48192" lon="8.2689">
        <ele>1335</ele>
        <time>2020-10-24T12:34:00.100Z</time>
      </trkpt>
      <trkpt lat="46.48192" lon="8.26892">
        <ele>1335</ele>
        <time>2020-10-24T12:34:01.100Z</time>
      </trkpt>
      <trkpt lat="46.48192" lon="8.26893">
        <ele>1335</ele>
        <time>2020-10-24T12:34:02.101Z</time>
      </trkpt>
      <trkpt lat="46.48192" lon="8.26895">
        <ele>1335</ele>
        <time>2020-10-24T12:34:03.101Z</time>
      </trkpt>
      <trkpt lat="46.48191" lon="8.26897">
        <ele>1335</ele>
        <time>2020-10-24T12:34:04.101Z</time>
      </trkpt>
      <trkpt lat="46.48191" lon="8.26899">
        <ele>1335</ele>
        <time>2020-10-24T12:34:05.101Z</time>
      </trkpt>
      <trkpt lat="46.48191" lon="8.269">
        <ele>1335</ele>
        <time>2020-10-24T12:34:06.101Z</time>
      </trkpt>
      <trkpt lat="46.48191" lon="8.26901">
        <ele>1335</ele>
        <time>2020-10-24T12:34:07.100Z</time>
      </trkpt>
      <trkpt lat="46.4819" lon="8.26903">
        <ele>1335</ele>
        <time>2020-10-24T12:34:08.101Z</time>
      </trkpt>
      <trkpt lat="46.4819" lon="8.26904">
        <ele>1335</ele>
        <time>2020-10-24T12:34:09.100Z</time>
      </trkpt>
      <trkpt lat="46.48189" lon="8.26906">
        <ele>1336</ele>
        <time>2020-10-24T12:34:10.101Z</time>
      </trkpt>
      <trkpt lat="46.48189" lon="8.26907">
        <ele>1336</ele>
        <time>2020-10-24T12:34:11.100Z</time>
      </trkpt>
      <trkpt lat="46.48189" lon="8.26908">
        <ele>1336</ele>
        <time>2020-10-24T12:34:12.100Z</time>
      </trkpt>
      <trkpt lat="46.48189" lon="8.26909">
        <ele>1336</ele>
        <time>2020-10-24T12:34:13.101Z</time>
      </trkpt>
      <trkpt lat="46.48189" lon="8.2691">
        <ele>1335</ele>
        <time>2020-10-24T12:34:14.101Z</time>
      </trkpt>
      <trkpt lat="46.48189" lon="8.26912">
        <ele>1335</ele>
        <time>2020-10-24T12:34:15.100Z</time>
      </trkpt>
      <trkpt lat="46.48188" lon="8.26913">
        <ele>1335</ele>
        <time>2020-10-24T12:34:16.101Z</time>
      </trkpt>
      <trkpt lat="46.48188" lon="8.26915">
        <ele>1334</ele>
        <time>2020-10-24T12:34:17.100Z</time>
      </trkpt>
      <trkpt lat="46.48188" lon="8.26916">
        <ele>1335</ele>
        <time>2020-10-24T12:34:18.100Z</time>
      </trkpt>
      <trkpt lat="46.48188" lon="8.26918">
        <ele>1335</ele>
        <time>2020-10-24T12:34:19.101Z</time>
      </trkpt>
      <trkpt lat="46.48188" lon="8.26919">
        <ele>1336</ele>
        <time>2020-10-24T12:34:20.101Z</time>
      </trkpt>
      <trkpt lat="46.48189" lon="8.26921">
        <ele>1336</ele>
        <time>2020-10-24T12:34:21.101Z</time>
      </trkpt>
      <trkpt lat="46.48189" lon="8.26922">
        <ele>1337</ele>
        <time>2020-10-24T12:34:22.100Z</time>
      </trkpt>
      <trkpt lat="46.48189" lon="8.26924">
        <ele>1338</ele>
        <time>2020-10-24T12:34:23.100Z</time>
      </trkpt>
      <trkpt lat="46.48188" lon="8.26926">
        <ele>1338</ele>
        <time>2020-10-24T12:34:24.101Z</time>
      </trkpt>
      <trkpt lat="46.48188" lon="8.26928">
        <ele>1339</ele>
        <time>2020-10-24T12:34:25.101Z</time>
      </trkpt>
      <trkpt lat="46.48188" lon="8.2693">
        <ele>1339</ele>
        <time>2020-10-24T12:34:26.101Z</time>
      </trkpt>
      <trkpt lat="46.48188" lon="8.26932">
        <ele>1340</ele>
        <time>2020-10-24T12:34:27.101Z</time>
      </trkpt>
      <trkpt lat="46.48188" lon="8.26934">
        <ele>1340</ele>
        <time>2020-10-24T12:34:28.101Z</time>
      </trkpt>
      <trkpt lat="46.48188" lon="8.26935">
        <ele>1340</ele>
        <time>2020-10-24T12:34:29.101Z</time>
      </trkpt>
      <trkpt lat="46.48188" lon="8.26935">
        <ele>1340</ele>
        <time>2020-10-24T12:34:30.100Z</time>
      </trkpt>
      <trkpt lat="46.48187" lon="8.26935">
        <ele>1340</ele>
        <time>2020-10-24T12:34:31.100Z</time>
      </trkpt>
      <trkpt lat="46.48186" lon="8.26935">
        <ele>1340</ele>
        <time>2020-10-24T12:34:32.101Z</time>
      </trkpt>
      <trkpt lat="46.48186" lon="8.26935">
        <ele>1339</ele>
        <time>2020-10-24T12:34:33.101Z</time>
      </trkpt>
      <trkpt lat="46.48186" lon="8.26934">
        <ele>1339</ele>
        <time>2020-10-24T12:34:34.100Z</time>
      </trkpt>
      <trkpt lat="46.48185" lon="8.26933">
        <ele>1339</ele>
        <time>2020-10-24T12:34:35.101Z</time>
      </trkpt>
      <trkpt lat="46.48185" lon="8.26933">
        <ele>1339</ele>
        <time>2020-10-24T12:34:36.101Z</time>
      </trkpt>
      <trkpt lat="46.48185" lon="8.26933">
        <ele>1340</ele>
        <time>2020-10-24T12:34:37.101Z</time>
      </trkpt>
      <trkpt lat="46.48185" lon="8.26932">
        <ele>1340</ele>
        <time>2020-10-24T12:34:38.101Z</time>
      </trkpt>
      <trkpt lat="46.48184" lon="8.26932">
        <ele>1340</ele>
        <time>2020-10-24T12:34:39.100Z</time>
      </trkpt>
      <trkpt lat="46.48184" lon="8.26931">
        <ele>1340</ele>
        <time>2020-10-24T12:34:40.101Z</time>
      </trkpt>
      <trkpt lat="46.48184" lon="8.26931">
        <ele>1340</ele>
        <time>2020-10-24T12:34:41.101Z</time>
      </trkpt>
      <trkpt lat="46.48184" lon="8.26931">
        <ele>1340</ele>
        <time>2020-10-24T12:34:42.101Z</time>
      </trkpt>
      <trkpt lat="46.48184" lon="8.26932">
        <ele>1340</ele>
        <time>2020-10-24T12:34:43.101Z</time>
      </trkpt>
      <trkpt lat="46.48184" lon="8.26931">
        <ele>1340</ele>
        <time>2020-10-24T12:34:44.101Z</time>
      </trkpt>
      <trkpt lat="46.48183" lon="8.26931">
        <ele>1340</ele>
        <time>2020-10-24T12:34:45.101Z</time>
      </trkpt>
      <trkpt lat="46.48183" lon="8.26931">
        <ele>1339</ele>
        <time>2020-10-24T12:34:46.100Z</time>
      </trkpt>
      <trkpt lat="46.48183" lon="8.2693">
        <ele>1339</ele>
        <time>2020-10-24T12:34:47.100Z</time>
      </trkpt>
      <trkpt lat="46.48182" lon="8.26931">
        <ele>1339</ele>
        <time>2020-10-24T12:34:48.100Z</time>
      </trkpt>
      <trkpt lat="46.48182" lon="8.26931">
        <ele>1339</ele>
        <time>2020-10-24T12:34:49.100Z</time>
      </trkpt>
      <trkpt lat="46.48181" lon="8.26929">
        <ele>1339</ele>
        <time>2020-10-24T12:34:50.100Z</time>
      </trkpt>
      <trkpt lat="46.48181" lon="8.26928">
        <ele>1340</ele>
        <time>2020-10-24T12:34:51.100Z</time>
      </trkpt>
      <trkpt lat="46.4818" lon="8.26927">
        <ele>1340</ele>
        <time>2020-10-24T12:34:52.100Z</time>
      </trkpt>
      <trkpt lat="46.4818" lon="8.26926">
        <ele>1341</ele>
        <time>2020-10-24T12:34:53.100Z</time>
      </trkpt>
      <trkpt lat="46.48179" lon="8.26925">
        <ele>1342</ele>
        <time>2020-10-24T12:34:54.101Z</time>
      </trkpt>
      <trkpt lat="46.48179" lon="8.26925">
        <ele>1343</ele>
        <time>2020-10-24T12:34:55.100Z</time>
      </trkpt>
      <trkpt lat="46.48179" lon="8.26926">
        <ele>1344</ele>
        <time>2020-10-24T12:34:56.101Z</time>
      </trkpt>
      <trkpt lat="46.48179" lon="8.26927">
        <ele>1344</ele>
        <time>2020-10-24T12:34:57.100Z</time>
      </trkpt>
      <trkpt lat="46.48179" lon="8.26929">
        <ele>1345</ele>
        <time>2020-10-24T12:34:58.101Z</time>
      </trkpt>
      <trkpt lat="46.48179" lon="8.2693">
        <ele>1346</ele>
        <time>2020-10-24T12:34:59.101Z</time>
      </trkpt>
      <trkpt lat="46.48179" lon="8.2693">
        <ele>1347</ele>
        <time>2020-10-24T12:35:00.101Z</time>
      </trkpt>
      <trkpt lat="46.48179" lon="8.2693">
        <ele>1347</ele>
        <time>2020-10-24T12:35:01.101Z</time>
      </trkpt>
      <trkpt lat="46.48178" lon="8.26932">
        <ele>1348</ele>
        <time>2020-10-24T12:35:02.100Z</time>
      </trkpt>
      <trkpt lat="46.48178" lon="8.26934">
        <ele>1349</ele>
        <time>2020-10-24T12:35:03.101Z</time>
      </trkpt>
      <trkpt lat="46.48178" lon="8.26936">
        <ele>1349</ele>
        <time>2020-10-24T12:35:04.100Z</time>
      </trkpt>
      <trkpt lat="46.48178" lon="8.26939">
        <ele>1351</ele>
        <time>2020-10-24T12:35:05.101Z</time>
      </trkpt>
      <trkpt lat="46.48177" lon="8.2694">
        <ele>1352</ele>
        <time>2020-10-24T12:35:06.101Z</time>
      </trkpt>
      <trkpt lat="46.48177" lon="8.2694">
        <ele>1353</ele>
        <time>2020-10-24T12:35:07.101Z</time>
      </trkpt>
      <trkpt lat="46.48177" lon="8.2694">
        <ele>1354</ele>
        <time>2020-10-24T12:35:08.101Z</time>
      </trkpt>
      <trkpt lat="46.48178" lon="8.2694">
        <ele>1354</ele>
        <time>2020-10-24T12:35:09.102Z</time>
      </trkpt>
      <trkpt lat="46.48179" lon="8.26941">
        <ele>1355</ele>
        <time>2020-10-24T12:35:10.101Z</time>
      </trkpt>
      <trkpt lat="46.48179" lon="8.26941">
        <ele>1355</ele>
        <time>2020-10-24T12:35:11.102Z</time>
      </trkpt>
      <trkpt lat="46.4818" lon="8.26941">
        <ele>1355</ele>
        <time>2020-10-24T12:35:12.101Z</time>
      </trkpt>
      <trkpt lat="46.4818" lon="8.2694">
        <ele>1355</ele>
        <time>2020-10-24T12:35:13.102Z</time>
      </trkpt>
      <trkpt lat="46.4818" lon="8.2694">
        <ele>1355</ele>
        <time>2020-10-24T12:35:14.102Z</time>
      </trkpt>
      <trkpt lat="46.48181" lon="8.26939">
        <ele>1355</ele>
        <time>2020-10-24T12:35:15.102Z</time>
      </trkpt>
      <trkpt lat="46.4818" lon="8.26939">
        <ele>1354</ele>
        <time>2020-10-24T12:35:16.101Z</time>
      </trkpt>
      <trkpt lat="46.4818" lon="8.26939">
        <ele>1354</ele>
        <time>2020-10-24T12:35:17.101Z</time>
      </trkpt>
      <trkpt lat="46.4818" lon="8.26939">
        <ele>1353</ele>
        <time>2020-10-24T12:35:18.101Z</time>
      </trkpt>
      <trkpt lat="46.4818" lon="8.26941">
        <ele>1352</ele>
        <time>2020-10-24T12:35:19.101Z</time>
      </trkpt>
      <trkpt lat="46.4818" lon="8.26942">
        <ele>1351</ele>
        <time>2020-10-24T12:35:20.101Z</time>
      </trkpt>
      <trkpt lat="46.4818" lon="8.26944">
        <ele>1350</ele>
        <time>2020-10-24T12:35:21.101Z</time>
      </trkpt>
      <trkpt lat="46.4818" lon="8.26945">
        <ele>1349</ele>
        <time>2020-10-24T12:35:22.101Z</time>
      </trkpt>
      <trkpt lat="46.4818" lon="8.26945">
        <ele>1348</ele>
        <time>2020-10-24T12:35:23.101Z</time>
      </trkpt>
      <trkpt lat="46.48182" lon="8.26946">
        <ele>1348</ele>
        <time>2020-10-24T12:35:24.101Z</time>
      </trkpt>
      <trkpt lat="46.48182" lon="8.26945">
        <ele>1347</ele>
        <time>2020-10-24T12:35:25.102Z</time>
      </trkpt>
      <trkpt lat="46.48181" lon="8.26945">
        <ele>1345</ele>
        <time>2020-10-24T12:35:26.102Z</time>
      </trkpt>
      <trkpt lat="46.48181" lon="8.26945">
        <ele>1344</ele>
        <time>2020-10-24T12:35:27.102Z</time>
      </trkpt>
      <trkpt lat="46.48181" lon="8.26944">
        <ele>1344</ele>
        <time>2020-10-24T12:35:28.101Z</time>
      </trkpt>
      <trkpt lat="46.48181" lon="8.26943">
        <ele>1343</ele>
        <time>2020-10-24T12:35:29.102Z</time>
      </trkpt>
      <trkpt lat="46.4818" lon="8.26943">
        <ele>1343</ele>
        <time>2020-10-24T12:35:30.101Z</time>
      </trkpt>
      <trkpt lat="46.4818" lon="8.26944">
        <ele>1342</ele>
        <time>2020-10-24T12:35:31.102Z</time>
      </trkpt>
      <trkpt lat="46.48179" lon="8.26945">
        <ele>1342</ele>
        <time>2020-10-24T12:35:32.102Z</time>
      </trkpt>
      <trkpt lat="46.48178" lon="8.26945">
        <ele>1342</ele>
        <time>2020-10-24T12:35:33.102Z</time>
      </trkpt>
      <trkpt lat="46.48177" lon="8.26944">
        <ele>1342</ele>
        <time>2020-10-24T12:35:34.102Z</time>
      </trkpt>
      <trkpt lat="46.48176" lon="8.26944">
        <ele>1342</ele>
        <time>2020-10-24T12:35:35.101Z</time>
      </trkpt>
      <trkpt lat="46.48175" lon="8.26943">
        <ele>1342</ele>
        <time>2020-10-24T12:35:36.102Z</time>
      </trkpt>
      <trkpt lat="46.48175" lon="8.26942">
        <ele>1342</ele>
        <time>2020-10-24T12:35:37.102Z</time>
      </trkpt>
      <trkpt lat="46.48174" lon="8.2694">
        <ele>1343</ele>
        <time>2020-10-24T12:35:38.101Z</time>
      </trkpt>
      <trkpt lat="46.48173" lon="8.26938">
        <ele>1343</ele>
        <time>2020-10-24T12:35:39.102Z</time>
      </trkpt>
      <trkpt lat="46.48172" lon="8.26937">
        <ele>1344</ele>
        <time>2020-10-24T12:35:40.102Z</time>
      </trkpt>
      <trkpt lat="46.48172" lon="8.26935">
        <ele>1345</ele>
        <time>2020-10-24T12:35:41.101Z</time>
      </trkpt>
      <trkpt lat="46.4817" lon="8.26933">
        <ele>1345</ele>
        <time>2020-10-24T12:35:42.102Z</time>
      </trkpt>
      <trkpt lat="46.48169" lon="8.26931">
        <ele>1346</ele>
        <time>2020-10-24T12:35:43.102Z</time>
      </trkpt>
      <trkpt lat="46.48169" lon="8.2693">
        <ele>1346</ele>
        <time>2020-10-24T12:35:44.101Z</time>
      </trkpt>
      <trkpt lat="46.48169" lon="8.2693">
        <ele>1346</ele>
        <time>2020-10-24T12:35:45.101Z</time>
      </trkpt>
      <trkpt lat="46.48168" lon="8.2693">
        <ele>1346</ele>
        <time>2020-10-24T12:35:46.101Z</time>
      </trkpt>
      <trkpt lat="46.48168" lon="8.2693">
        <ele>1346</ele>
        <time>2020-10-24T12:35:47.102Z</time>
      </trkpt>
      <trkpt lat="46.48167" lon="8.26928">
        <ele>1346</ele>
        <time>2020-10-24T12:35:48.102Z</time>
      </trkpt>
      <trkpt lat="46.48165" lon="8.26925">
        <ele>1346</ele>
        <time>2020-10-24T12:35:49.102Z</time>
      </trkpt>
      <trkpt lat="46.48164" lon="8.26923">
        <ele>1346</ele>
        <time>2020-10-24T12:35:50.102Z</time>
      </trkpt>
      <trkpt lat="46.48163" lon="8.26921">
        <ele>1345</ele>
        <time>2020-10-24T12:35:51.102Z</time>
      </trkpt>
      <trkpt lat="46.48162" lon="8.2692">
        <ele>1345</ele>
        <time>2020-10-24T12:35:52.102Z</time>
      </trkpt>
      <trkpt lat="46.48161" lon="8.26919">
        <ele>1344</ele>
        <time>2020-10-24T12:35:53.102Z</time>
      </trkpt>
      <trkpt lat="46.4816" lon="8.26918">
        <ele>1343</ele>
        <time>2020-10-24T12:35:54.102Z</time>
      </trkpt>
      <trkpt lat="46.48159" lon="8.26917">
        <ele>1343</ele>
        <time>2020-10-24T12:35:55.101Z</time>
      </trkpt>
      <trkpt lat="46.48158" lon="8.26915">
        <ele>1343</ele>
        <time>2020-10-24T12:35:56.102Z</time>
      </trkpt>
      <trkpt lat="46.48157" lon="8.26914">
        <ele>1343</ele>
        <time>2020-10-24T12:35:57.102Z</time>
      </trkpt>
      <trkpt lat="46.48156" lon="8.26912">
        <ele>1343</ele>
        <time>2020-10-24T12:35:58.102Z</time>
      </trkpt>
      <trkpt lat="46.48155" lon="8.2691">
        <ele>1342</ele>
        <time>2020-10-24T12:35:59.102Z</time>
      </trkpt>
      <trkpt lat="46.48154" lon="8.26908">
        <ele>1342</ele>
        <time>2020-10-24T12:36:00.102Z</time>
      </trkpt>
      <trkpt lat="46.48153" lon="8.26908">
        <ele>1342</ele>
        <time>2020-10-24T12:36:01.102Z</time>
      </trkpt>
      <trkpt lat="46.48152" lon="8.26907">
        <ele>1343</ele>
        <time>2020-10-24T12:36:02.102Z</time>
      </trkpt>
      <trkpt lat="46.4815" lon="8.26906">
        <ele>1343</ele>
        <time>2020-10-24T12:36:03.102Z</time>
      </trkpt>
      <trkpt lat="46.48148" lon="8.26905">
        <ele>1342</ele>
        <time>2020-10-24T12:36:04.102Z</time>
      </trkpt>
      <trkpt lat="46.48148" lon="8.26903">
        <ele>1342</ele>
        <time>2020-10-24T12:36:05.102Z</time>
      </trkpt>
      <trkpt lat="46.48146" lon="8.26901">
        <ele>1342</ele>
        <time>2020-10-24T12:36:06.102Z</time>
      </trkpt>
      <trkpt lat="46.48145" lon="8.26898">
        <ele>1342</ele>
        <time>2020-10-24T12:36:07.101Z</time>
      </trkpt>
      <trkpt lat="46.48144" lon="8.26895">
        <ele>1342</ele>
        <time>2020-10-24T12:36:08.102Z</time>
      </trkpt>
      <trkpt lat="46.48143" lon="8.26893">
        <ele>1341</ele>
        <time>2020-10-24T12:36:09.102Z</time>
      </trkpt>
      <trkpt lat="46.48142" lon="8.26892">
        <ele>1341</ele>
        <time>2020-10-24T12:36:10.101Z</time>
      </trkpt>
      <trkpt lat="46.48141" lon="8.2689">
        <ele>1341</ele>
        <time>2020-10-24T12:36:11.102Z</time>
      </trkpt>
      <trkpt lat="46.4814" lon="8.26888">
        <ele>1340</ele>
        <time>2020-10-24T12:36:12.102Z</time>
      </trkpt>
      <trkpt lat="46.4814" lon="8.26886">
        <ele>1341</ele>
        <time>2020-10-24T12:36:13.102Z</time>
      </trkpt>
      <trkpt lat="46.48139" lon="8.26884">
        <ele>1341</ele>
        <time>2020-10-24T12:36:14.101Z</time>
      </trkpt>
      <trkpt lat="46.48138" lon="8.26882">
        <ele>1340</ele>
        <time>2020-10-24T12:36:15.102Z</time>
      </trkpt>
      <trkpt lat="46.48137" lon="8.26881">
        <ele>1340</ele>
        <time>2020-10-24T12:36:16.101Z</time>
      </trkpt>
      <trkpt lat="46.48136" lon="8.26879">
        <ele>1341</ele>
        <time>2020-10-24T12:36:17.101Z</time>
      </trkpt>
      <trkpt lat="46.48135" lon="8.26877">
        <ele>1341</ele>
        <time>2020-10-24T12:36:18.102Z</time>
      </trkpt>
      <trkpt lat="46.48134" lon="8.26876">
        <ele>1341</ele>
        <time>2020-10-24T12:36:19.101Z</time>
      </trkpt>
      <trkpt lat="46.48133" lon="8.26875">
        <ele>1342</ele>
        <time>2020-10-24T12:36:20.101Z</time>
      </trkpt>
      <trkpt lat="46.48133" lon="8.26874">
        <ele>1343</ele>
        <time>2020-10-24T12:36:21.102Z</time>
      </trkpt>
      <trkpt lat="46.48132" lon="8.26873">
        <ele>1344</ele>
        <time>2020-10-24T12:36:22.102Z</time>
      </trkpt>
      <trkpt lat="46.48132" lon="8.26873">
        <ele>1345</ele>
        <time>2020-10-24T12:36:23.101Z</time>
      </trkpt>
      <trkpt lat="46.48132" lon="8.26872">
        <ele>1345</ele>
        <time>2020-10-24T12:36:24.102Z</time>
      </trkpt>
      <trkpt lat="46.48133" lon="8.26873">
        <ele>1347</ele>
        <time>2020-10-24T12:36:25.102Z</time>
      </trkpt>
      <trkpt lat="46.48135" lon="8.26875">
        <ele>1348</ele>
        <time>2020-10-24T12:36:26.102Z</time>
      </trkpt>
      <trkpt lat="46.48136" lon="8.26877">
        <ele>1349</ele>
        <time>2020-10-24T12:36:27.102Z</time>
      </trkpt>
      <trkpt lat="46.48136" lon="8.26878">
        <ele>1349</ele>
        <time>2020-10-24T12:36:28.102Z</time>
      </trkpt>
      <trkpt lat="46.48135" lon="8.26877">
        <ele>1350</ele>
        <time>2020-10-24T12:36:29.102Z</time>
      </trkpt>
      <trkpt lat="46.48133" lon="8.26877">
        <ele>1351</ele>
        <time>2020-10-24T12:36:30.101Z</time>
      </trkpt>
      <trkpt lat="46.48133" lon="8.26877">
        <ele>1351</ele>
        <time>2020-10-24T12:36:31.102Z</time>
      </trkpt>
      <trkpt lat="46.48133" lon="8.26878">
        <ele>1352</ele>
        <time>2020-10-24T12:36:32.101Z</time>
      </trkpt>
      <trkpt lat="46.48133" lon="8.26878">
        <ele>1353</ele>
        <time>2020-10-24T12:36:33.101Z</time>
      </trkpt>
      <trkpt lat="46.48133" lon="8.26878">
        <ele>1354</ele>
        <time>2020-10-24T12:36:34.101Z</time>
      </trkpt>
      <trkpt lat="46.48131" lon="8.26877">
        <ele>1354</ele>
        <time>2020-10-24T12:36:35.102Z</time>
      </trkpt>
      <trkpt lat="46.48129" lon="8.26876">
        <ele>1354</ele>
        <time>2020-10-24T12:36:36.102Z</time>
      </trkpt>
      <trkpt lat="46.48128" lon="8.26876">
        <ele>1354</ele>
        <time>2020-10-24T12:36:37.101Z</time>
      </trkpt>
      <trkpt lat="46.48127" lon="8.26876">
        <ele>1354</ele>
        <time>2020-10-24T12:36:38.101Z</time>
      </trkpt>
      <trkpt lat="46.48126" lon="8.26874">
        <ele>1354</ele>
        <time>2020-10-24T12:36:39.101Z</time>
      </trkpt>
      <trkpt lat="46.48124" lon="8.26873">
        <ele>1354</ele>
        <time>2020-10-24T12:36:40.102Z</time>
      </trkpt>
      <trkpt lat="46.48122" lon="8.26873">
        <ele>1355</ele>
        <time>2020-10-24T12:36:41.102Z</time>
      </trkpt>
      <trkpt lat="46.48121" lon="8.26873">
        <ele>1355</ele>
        <time>2020-10-24T12:36:42.102Z</time>
      </trkpt>
      <trkpt lat="46.4812" lon="8.26872">
        <ele>1356</ele>
        <time>2020-10-24T12:36:43.102Z</time>
      </trkpt>
      <trkpt lat="46.48119" lon="8.26872">
        <ele>1357</ele>
        <time>2020-10-24T12:36:44.102Z</time>
      </trkpt>
      <trkpt lat="46.48118" lon="8.26872">
        <ele>1357</ele>
        <time>2020-10-24T12:36:45.102Z</time>
      </trkpt>
      <trkpt lat="46.48117" lon="8.26871">
        <ele>1358</ele>
        <time>2020-10-24T12:36:46.101Z</time>
      </trkpt>
      <trkpt lat="46.48117" lon="8.26871">
        <ele>1359</ele>
        <time>2020-10-24T12:36:47.102Z</time>
      </trkpt>
      <trkpt lat="46.48117" lon="8.26871">
        <ele>1359</ele>
        <time>2020-10-24T12:36:48.102Z</time>
      </trkpt>
      <trkpt lat="46.48116" lon="8.2687">
        <ele>1359</ele>
        <time>2020-10-24T12:36:49.101Z</time>
      </trkpt>
      <trkpt lat="46.48116" lon="8.26871">
        <ele>1359</ele>
        <time>2020-10-24T12:36:50.102Z</time>
      </trkpt>
      <trkpt lat="46.48117" lon="8.26871">
        <ele>1359</ele>
        <time>2020-10-24T12:36:51.101Z</time>
      </trkpt>
      <trkpt lat="46.48116" lon="8.26872">
        <ele>1359</ele>
        <time>2020-10-24T12:36:52.102Z</time>
      </trkpt>
      <trkpt lat="46.48115" lon="8.26871">
        <ele>1359</ele>
        <time>2020-10-24T12:36:53.101Z</time>
      </trkpt>
      <trkpt lat="46.48115" lon="8.26871">
        <ele>1358</ele>
        <time>2020-10-24T12:36:54.101Z</time>
      </trkpt>
      <trkpt lat="46.48116" lon="8.26872">
        <ele>1358</ele>
        <time>2020-10-24T12:36:55.101Z</time>
      </trkpt>
      <trkpt lat="46.48116" lon="8.2687">
        <ele>1357</ele>
        <time>2020-10-24T12:36:56.102Z</time>
      </trkpt>
      <trkpt lat="46.48116" lon="8.26868">
        <ele>1356</ele>
        <time>2020-10-24T12:36:57.102Z</time>
      </trkpt>
      <trkpt lat="46.48116" lon="8.26867">
        <ele>1355</ele>
        <time>2020-10-24T12:36:58.102Z</time>
      </trkpt>
      <trkpt lat="46.48115" lon="8.26866">
        <ele>1355</ele>
        <time>2020-10-24T12:36:59.102Z</time>
      </trkpt>
      <trkpt lat="46.48114" lon="8.26865">
        <ele>1355</ele>
        <time>2020-10-24T12:37:00.102Z</time>
      </trkpt>
      <trkpt lat="46.48113" lon="8.26865">
        <ele>1355</ele>
        <time>2020-10-24T12:37:01.102Z</time>
      </trkpt>
      <trkpt lat="46.48113" lon="8.26864">
        <ele>1355</ele>
        <time>2020-10-24T12:37:02.102Z</time>
      </trkpt>
      <trkpt lat="46.48112" lon="8.26863">
        <ele>1355</ele>
        <time>2020-10-24T12:37:03.102Z</time>
      </trkpt>
      <trkpt lat="46.48112" lon="8.26862">
        <ele>1355</ele>
        <time>2020-10-24T12:37:04.101Z</time>
      </trkpt>
      <trkpt lat="46.48111" lon="8.2686">
        <ele>1354</ele>
        <time>2020-10-24T12:37:05.102Z</time>
      </trkpt>
      <trkpt lat="46.48111" lon="8.2686">
        <ele>1354</ele>
        <time>2020-10-24T12:37:06.102Z</time>
      </trkpt>
      <trkpt lat="46.4811" lon="8.26859">
        <ele>1354</ele>
        <time>2020-10-24T12:37:07.102Z</time>
      </trkpt>
      <trkpt lat="46.48109" lon="8.26859">
        <ele>1354</ele>
        <time>2020-10-24T12:37:08.102Z</time>
      </trkpt>
      <trkpt lat="46.48108" lon="8.26859">
        <ele>1353</ele>
        <time>2020-10-24T12:37:09.101Z</time>
      </trkpt>
      <trkpt lat="46.48107" lon="8.26857">
        <ele>1353</ele>
        <time>2020-10-24T12:37:10.102Z</time>
      </trkpt>
      <trkpt lat="46.48106" lon="8.26855">
        <ele>1352</ele>
        <time>2020-10-24T12:37:11.101Z</time>
      </trkpt>
      <trkpt lat="46.48104" lon="8.26854">
        <ele>1352</ele>
        <time>2020-10-24T12:37:12.102Z</time>
      </trkpt>
      <trkpt lat="46.48103" lon="8.26854">
        <ele>1352</ele>
        <time>2020-10-24T12:37:13.102Z</time>
      </trkpt>
      <trkpt lat="46.48103" lon="8.26854">
        <ele>1352</ele>
        <time>2020-10-24T12:37:14.101Z</time>
      </trkpt>
      <trkpt lat="46.48102" lon="8.26854">
        <ele>1352</ele>
        <time>2020-10-24T12:37:15.101Z</time>
      </trkpt>
      <trkpt lat="46.48102" lon="8.26853">
        <ele>1352</ele>
        <time>2020-10-24T12:37:16.101Z</time>
      </trkpt>
      <trkpt lat="46.48101" lon="8.26853">
        <ele>1353</ele>
        <time>2020-10-24T12:37:17.102Z</time>
      </trkpt>
      <trkpt lat="46.48099" lon="8.26853">
        <ele>1353</ele>
        <time>2020-10-24T12:37:18.102Z</time>
      </trkpt>
      <trkpt lat="46.48098" lon="8.26854">
        <ele>1354</ele>
        <time>2020-10-24T12:37:19.101Z</time>
      </trkpt>
      <trkpt lat="46.48097" lon="8.26854">
        <ele>1354</ele>
        <time>2020-10-24T12:37:20.101Z</time>
      </trkpt>
      <trkpt lat="46.48097" lon="8.26854">
        <ele>1354</ele>
        <time>2020-10-24T12:37:21.101Z</time>
      </trkpt>
      <trkpt lat="46.48095" lon="8.26853">
        <ele>1354</ele>
        <time>2020-10-24T12:37:22.102Z</time>
      </trkpt>
      <trkpt lat="46.48094" lon="8.26852">
        <ele>1354</ele>
        <time>2020-10-24T12:37:23.102Z</time>
      </trkpt>
      <trkpt lat="46.48094" lon="8.26852">
        <ele>1354</ele>
        <time>2020-10-24T12:37:24.101Z</time>
      </trkpt>
      <trkpt lat="46.48094" lon="8.26851">
        <ele>1355</ele>
        <time>2020-10-24T12:37:25.102Z</time>
      </trkpt>
      <trkpt lat="46.48094" lon="8.26849">
        <ele>1355</ele>
        <time>2020-10-24T12:37:26.102Z</time>
      </trkpt>
      <trkpt lat="46.48093" lon="8.26847">
        <ele>1356</ele>
        <time>2020-10-24T12:37:27.101Z</time>
      </trkpt>
      <trkpt lat="46.48093" lon="8.26845">
        <ele>1356</ele>
        <time>2020-10-24T12:37:28.102Z</time>
      </trkpt>
      <trkpt lat="46.48093" lon="8.26844">
        <ele>1357</ele>
        <time>2020-10-24T12:37:29.101Z</time>
      </trkpt>
      <trkpt lat="46.48092" lon="8.26842">
        <ele>1358</ele>
        <time>2020-10-24T12:37:30.101Z</time>
      </trkpt>
      <trkpt lat="46.48092" lon="8.26841">
        <ele>1358</ele>
        <time>2020-10-24T12:37:31.102Z</time>
      </trkpt>
      <trkpt lat="46.48091" lon="8.2684">
        <ele>1359</ele>
        <time>2020-10-24T12:37:32.102Z</time>
      </trkpt>
      <trkpt lat="46.4809" lon="8.2684">
        <ele>1359</ele>
        <time>2020-10-24T12:37:33.101Z</time>
      </trkpt>
      <trkpt lat="46.4809" lon="8.26839">
        <ele>1359</ele>
        <time>2020-10-24T12:37:34.102Z</time>
      </trkpt>
      <trkpt lat="46.48089" lon="8.26838">
        <ele>1359</ele>
        <time>2020-10-24T12:37:35.101Z</time>
      </trkpt>
      <trkpt lat="46.48089" lon="8.26836">
        <ele>1360</ele>
        <time>2020-10-24T12:37:36.102Z</time>
      </trkpt>
      <trkpt lat="46.48088" lon="8.26836">
        <ele>1360</ele>
        <time>2020-10-24T12:37:37.102Z</time>
      </trkpt>
      <trkpt lat="46.48087" lon="8.26836">
        <ele>1361</ele>
        <time>2020-10-24T12:37:38.101Z</time>
      </trkpt>
      <trkpt lat="46.48085" lon="8.26835">
        <ele>1360</ele>
        <time>2020-10-24T12:37:39.101Z</time>
      </trkpt>
      <trkpt lat="46.48085" lon="8.26834">
        <ele>1360</ele>
        <time>2020-10-24T12:37:40.102Z</time>
      </trkpt>
      <trkpt lat="46.48084" lon="8.26833">
        <ele>1360</ele>
        <time>2020-10-24T12:37:41.102Z</time>
      </trkpt>
      <trkpt lat="46.48083" lon="8.26832">
        <ele>1360</ele>
        <time>2020-10-24T12:37:42.102Z</time>
      </trkpt>
      <trkpt lat="46.48083" lon="8.26831">
        <ele>1360</ele>
        <time>2020-10-24T12:37:43.101Z</time>
      </trkpt>
      <trkpt lat="46.48082" lon="8.26829">
        <ele>1360</ele>
        <time>2020-10-24T12:37:44.101Z</time>
      </trkpt>
      <trkpt lat="46.48081" lon="8.26828">
        <ele>1361</ele>
        <time>2020-10-24T12:37:45.101Z</time>
      </trkpt>
      <trkpt lat="46.48081" lon="8.26827">
        <ele>1362</ele>
        <time>2020-10-24T12:37:46.101Z</time>
      </trkpt>
      <trkpt lat="46.4808" lon="8.26827">
        <ele>1362</ele>
        <time>2020-10-24T12:37:47.101Z</time>
      </trkpt>
      <trkpt lat="46.48079" lon="8.26826">
        <ele>1362</ele>
        <time>2020-10-24T12:37:48.102Z</time>
      </trkpt>
      <trkpt lat="46.48078" lon="8.26825">
        <ele>1362</ele>
        <time>2020-10-24T12:37:49.101Z</time>
      </trkpt>
      <trkpt lat="46.48078" lon="8.26824">
        <ele>1361</ele>
        <time>2020-10-24T12:37:50.101Z</time>
      </trkpt>
      <trkpt lat="46.48078" lon="8.26824">
        <ele>1361</ele>
        <time>2020-10-24T12:37:51.102Z</time>
      </trkpt>
      <trkpt lat="46.48078" lon="8.26822">
        <ele>1361</ele>
        <time>2020-10-24T12:37:52.101Z</time>
      </trkpt>
      <trkpt lat="46.48077" lon="8.2682">
        <ele>1361</ele>
        <time>2020-10-24T12:37:53.101Z</time>
      </trkpt>
      <trkpt lat="46.48077" lon="8.26818">
        <ele>1361</ele>
        <time>2020-10-24T12:37:54.101Z</time>
      </trkpt>
      <trkpt lat="46.48076" lon="8.26817">
        <ele>1361</ele>
        <time>2020-10-24T12:37:55.101Z</time>
      </trkpt>
      <trkpt lat="46.48076" lon="8.26815">
        <ele>1362</ele>
        <time>2020-10-24T12:37:56.102Z</time>
      </trkpt>
      <trkpt lat="46.48075" lon="8.26814">
        <ele>1362</ele>
        <time>2020-10-24T12:37:57.102Z</time>
      </trkpt>
      <trkpt lat="46.48073" lon="8.26812">
        <ele>1362</ele>
        <time>2020-10-24T12:37:58.102Z</time>
      </trkpt>
      <trkpt lat="46.48072" lon="8.26811">
        <ele>1362</ele>
        <time>2020-10-24T12:37:59.101Z</time>
      </trkpt>
      <trkpt lat="46.48071" lon="8.26809">
        <ele>1362</ele>
        <time>2020-10-24T12:38:00.101Z</time>
      </trkpt>
      <trkpt lat="46.4807" lon="8.26808">
        <ele>1362</ele>
        <time>2020-10-24T12:38:01.101Z</time>
      </trkpt>
      <trkpt lat="46.48069" lon="8.26807">
        <ele>1362</ele>
        <time>2020-10-24T12:38:02.101Z</time>
      </trkpt>
      <trkpt lat="46.48068" lon="8.26806">
        <ele>1362</ele>
        <time>2020-10-24T12:38:03.102Z</time>
      </trkpt>
      <trkpt lat="46.48067" lon="8.26805">
        <ele>1362</ele>
        <time>2020-10-24T12:38:04.101Z</time>
      </trkpt>
      <trkpt lat="46.48067" lon="8.26803">
        <ele>1362</ele>
        <time>2020-10-24T12:38:05.101Z</time>
      </trkpt>
      <trkpt lat="46.48066" lon="8.26803">
        <ele>1362</ele>
        <time>2020-10-24T12:38:06.101Z</time>
      </trkpt>
      <trkpt lat="46.48066" lon="8.26803">
        <ele>1361</ele>
        <time>2020-10-24T12:38:07.102Z</time>
      </trkpt>
      <trkpt lat="46.48066" lon="8.26802">
        <ele>1361</ele>
        <time>2020-10-24T12:38:08.102Z</time>
      </trkpt>
      <trkpt lat="46.48065" lon="8.26801">
        <ele>1361</ele>
        <time>2020-10-24T12:38:09.101Z</time>
      </trkpt>
      <trkpt lat="46.48065" lon="8.26799">
        <ele>1361</ele>
        <time>2020-10-24T12:38:10.101Z</time>
      </trkpt>
      <trkpt lat="46.48064" lon="8.26797">
        <ele>1361</ele>
        <time>2020-10-24T12:38:11.101Z</time>
      </trkpt>
      <trkpt lat="46.48064" lon="8.26798">
        <ele>1361</ele>
        <time>2020-10-24T12:38:12.102Z</time>
      </trkpt>
      <trkpt lat="46.48063" lon="8.26797">
        <ele>1360</ele>
        <time>2020-10-24T12:38:13.101Z</time>
      </trkpt>
      <trkpt lat="46.48063" lon="8.26796">
        <ele>1360</ele>
        <time>2020-10-24T12:38:14.102Z</time>
      </trkpt>
      <trkpt lat="46.48062" lon="8.26794">
        <ele>1360</ele>
        <time>2020-10-24T12:38:15.101Z</time>
      </trkpt>
      <trkpt lat="46.48061" lon="8.26793">
        <ele>1360</ele>
        <time>2020-10-24T12:38:16.101Z</time>
      </trkpt>
      <trkpt lat="46.4806" lon="8.26792">
        <ele>1360</ele>
        <time>2020-10-24T12:38:17.102Z</time>
      </trkpt>
      <trkpt lat="46.48059" lon="8.26791">
        <ele>1360</ele>
        <time>2020-10-24T12:38:18.102Z</time>
      </trkpt>
      <trkpt lat="46.48058" lon="8.26791">
        <ele>1360</ele>
        <time>2020-10-24T12:38:19.102Z</time>
      </trkpt>
      <trkpt lat="46.48058" lon="8.26791">
        <ele>1360</ele>
        <time>2020-10-24T12:38:20.101Z</time>
      </trkpt>
      <trkpt lat="46.48057" lon="8.26791">
        <ele>1360</ele>
        <time>2020-10-24T12:38:21.101Z</time>
      </trkpt>
      <trkpt lat="46.48057" lon="8.26792">
        <ele>1360</ele>
        <time>2020-10-24T12:38:22.102Z</time>
      </trkpt>
      <trkpt lat="46.48056" lon="8.26791">
        <ele>1360</ele>
        <time>2020-10-24T12:38:23.102Z</time>
      </trkpt>
      <trkpt lat="46.48056" lon="8.2679">
        <ele>1360</ele>
        <time>2020-10-24T12:38:24.102Z</time>
      </trkpt>
      <trkpt lat="46.48055" lon="8.26789">
        <ele>1360</ele>
        <time>2020-10-24T12:38:25.101Z</time>
      </trkpt>
      <trkpt lat="46.48054" lon="8.26789">
        <ele>1361</ele>
        <time>2020-10-24T12:38:26.101Z</time>
      </trkpt>
      <trkpt lat="46.48053" lon="8.26789">
        <ele>1362</ele>
        <time>2020-10-24T12:38:27.102Z</time>
      </trkpt>
      <trkpt lat="46.48053" lon="8.26791">
        <ele>1362</ele>
        <time>2020-10-24T12:38:28.102Z</time>
      </trkpt>
      <trkpt lat="46.48053" lon="8.26791">
        <ele>1362</ele>
        <time>2020-10-24T12:38:29.101Z</time>
      </trkpt>
      <trkpt lat="46.48053" lon="8.2679">
        <ele>1362</ele>
        <time>2020-10-24T12:38:30.101Z</time>
      </trkpt>
      <trkpt lat="46.48052" lon="8.2679">
        <ele>1362</ele>
        <time>2020-10-24T12:38:31.101Z</time>
      </trkpt>
      <trkpt lat="46.4805" lon="8.26788">
        <ele>1362</ele>
        <time>2020-10-24T12:38:32.101Z</time>
      </trkpt>
      <trkpt lat="46.48049" lon="8.26788">
        <ele>1363</ele>
        <time>2020-10-24T12:38:33.102Z</time>
      </trkpt>
      <trkpt lat="46.48048" lon="8.26787">
        <ele>1363</ele>
        <time>2020-10-24T12:38:34.101Z</time>
      </trkpt>
      <trkpt lat="46.48047" lon="8.26787">
        <ele>1363</ele>
        <time>2020-10-24T12:38:35.101Z</time>
      </trkpt>
      <trkpt lat="46.48046" lon="8.26787">
        <ele>1363</ele>
        <time>2020-10-24T12:38:36.101Z</time>
      </trkpt>
      <trkpt lat="46.48046" lon="8.26787">
        <ele>1363</ele>
        <time>2020-10-24T12:38:37.101Z</time>
      </trkpt>
      <trkpt lat="46.48045" lon="8.26786">
        <ele>1362</ele>
        <time>2020-10-24T12:38:38.101Z</time>
      </trkpt>
      <trkpt lat="46.48044" lon="8.26785">
        <ele>1362</ele>
        <time>2020-10-24T12:38:39.101Z</time>
      </trkpt>
      <trkpt lat="46.48044" lon="8.26784">
        <ele>1362</ele>
        <time>2020-10-24T12:38:40.101Z</time>
      </trkpt>
      <trkpt lat="46.48043" lon="8.26783">
        <ele>1362</ele>
        <time>2020-10-24T12:38:41.101Z</time>
      </trkpt>
      <trkpt lat="46.48042" lon="8.26782">
        <ele>1362</ele>
        <time>2020-10-24T12:38:42.101Z</time>
      </trkpt>
      <trkpt lat="46.48042" lon="8.2678">
        <ele>1361</ele>
        <time>2020-10-24T12:38:43.101Z</time>
      </trkpt>
      <trkpt lat="46.48041" lon="8.2678">
        <ele>1361</ele>
        <time>2020-10-24T12:38:44.101Z</time>
      </trkpt>
      <trkpt lat="46.4804" lon="8.26778">
        <ele>1362</ele>
        <time>2020-10-24T12:38:45.102Z</time>
      </trkpt>
      <trkpt lat="46.48039" lon="8.26777">
        <ele>1362</ele>
        <time>2020-10-24T12:38:46.101Z</time>
      </trkpt>
      <trkpt lat="46.48038" lon="8.26775">
        <ele>1362</ele>
        <time>2020-10-24T12:38:47.101Z</time>
      </trkpt>
      <trkpt lat="46.48036" lon="8.26773">
        <ele>1362</ele>
        <time>2020-10-24T12:38:48.101Z</time>
      </trkpt>
      <trkpt lat="46.48035" lon="8.26772">
        <ele>1363</ele>
        <time>2020-10-24T12:38:49.101Z</time>
      </trkpt>
      <trkpt lat="46.48035" lon="8.26771">
        <ele>1363</ele>
        <time>2020-10-24T12:38:50.102Z</time>
      </trkpt>
      <trkpt lat="46.48034" lon="8.2677">
        <ele>1364</ele>
        <time>2020-10-24T12:38:51.102Z</time>
      </trkpt>
      <trkpt lat="46.48033" lon="8.2677">
        <ele>1364</ele>
        <time>2020-10-24T12:38:52.101Z</time>
      </trkpt>
      <trkpt lat="46.48033" lon="8.26769">
        <ele>1364</ele>
        <time>2020-10-24T12:38:53.102Z</time>
      </trkpt>
      <trkpt lat="46.48032" lon="8.26768">
        <ele>1364</ele>
        <time>2020-10-24T12:38:54.102Z</time>
      </trkpt>
      <trkpt lat="46.48031" lon="8.26768">
        <ele>1364</ele>
        <time>2020-10-24T12:38:55.101Z</time>
      </trkpt>
      <trkpt lat="46.4803" lon="8.26768">
        <ele>1364</ele>
        <time>2020-10-24T12:38:56.101Z</time>
      </trkpt>
      <trkpt lat="46.4803" lon="8.26768">
        <ele>1364</ele>
        <time>2020-10-24T12:38:57.102Z</time>
      </trkpt>
      <trkpt lat="46.48029" lon="8.26766">
        <ele>1364</ele>
        <time>2020-10-24T12:38:58.102Z</time>
      </trkpt>
      <trkpt lat="46.48028" lon="8.26767">
        <ele>1363</ele>
        <time>2020-10-24T12:38:59.102Z</time>
      </trkpt>
      <trkpt lat="46.48027" lon="8.26766">
        <ele>1363</ele>
        <time>2020-10-24T12:39:00.102Z</time>
      </trkpt>
      <trkpt lat="46.48026" lon="8.26765">
        <ele>1362</ele>
        <time>2020-10-24T12:39:01.101Z</time>
      </trkpt>
      <trkpt lat="46.48025" lon="8.26764">
        <ele>1361</ele>
        <time>2020-10-24T12:39:02.102Z</time>
      </trkpt>
      <trkpt lat="46.48025" lon="8.26763">
        <ele>1361</ele>
        <time>2020-10-24T12:39:03.101Z</time>
      </trkpt>
      <trkpt lat="46.48024" lon="8.26762">
        <ele>1361</ele>
        <time>2020-10-24T12:39:04.102Z</time>
      </trkpt>
      <trkpt lat="46.48023" lon="8.26761">
        <ele>1360</ele>
        <time>2020-10-24T12:39:05.101Z</time>
      </trkpt>
      <trkpt lat="46.48022" lon="8.26759">
        <ele>1360</ele>
        <time>2020-10-24T12:39:06.102Z</time>
      </trkpt>
      <trkpt lat="46.48022" lon="8.26759">
        <ele>1360</ele>
        <time>2020-10-24T12:39:07.101Z</time>
      </trkpt>
      <trkpt lat="46.4802" lon="8.26759">
        <ele>1359</ele>
        <time>2020-10-24T12:39:08.102Z</time>
      </trkpt>
      <trkpt lat="46.48019" lon="8.26758">
        <ele>1359</ele>
        <time>2020-10-24T12:39:09.102Z</time>
      </trkpt>
      <trkpt lat="46.48018" lon="8.26757">
        <ele>1359</ele>
        <time>2020-10-24T12:39:10.101Z</time>
      </trkpt>
      <trkpt lat="46.48016" lon="8.26755">
        <ele>1359</ele>
        <time>2020-10-24T12:39:11.102Z</time>
      </trkpt>
      <trkpt lat="46.48014" lon="8.26754">
        <ele>1358</ele>
        <time>2020-10-24T12:39:12.101Z</time>
      </trkpt>
      <trkpt lat="46.48014" lon="8.26752">
        <ele>1358</ele>
        <time>2020-10-24T12:39:13.101Z</time>
      </trkpt>
      <trkpt lat="46.48013" lon="8.26751">
        <ele>1358</ele>
        <time>2020-10-24T12:39:14.102Z</time>
      </trkpt>
      <trkpt lat="46.48013" lon="8.26751">
        <ele>1358</ele>
        <time>2020-10-24T12:39:15.101Z</time>
      </trkpt>
      <trkpt lat="46.48013" lon="8.2675">
        <ele>1358</ele>
        <time>2020-10-24T12:39:16.102Z</time>
      </trkpt>
      <trkpt lat="46.48013" lon="8.26751">
        <ele>1359</ele>
        <time>2020-10-24T12:39:17.101Z</time>
      </trkpt>
      <trkpt lat="46.48012" lon="8.26756">
        <ele>1359</ele>
        <time>2020-10-24T12:39:18.101Z</time>
      </trkpt>
      <trkpt lat="46.48011" lon="8.2676">
        <ele>1360</ele>
        <time>2020-10-24T12:39:19.102Z</time>
      </trkpt>
      <trkpt lat="46.48011" lon="8.26761">
        <ele>1360</ele>
        <time>2020-10-24T12:39:20.101Z</time>
      </trkpt>
      <trkpt lat="46.4801" lon="8.26762">
        <ele>1361</ele>
        <time>2020-10-24T12:39:21.101Z</time>
      </trkpt>
      <trkpt lat="46.4801" lon="8.26763">
        <ele>1363</ele>
        <time>2020-10-24T12:39:22.103Z</time>
      </trkpt>
      <trkpt lat="46.4801" lon="8.26764">
        <ele>1363</ele>
        <time>2020-10-24T12:39:23.103Z</time>
      </trkpt>
      <trkpt lat="46.4801" lon="8.26765">
        <ele>1363</ele>
        <time>2020-10-24T12:39:24.102Z</time>
      </trkpt>
      <trkpt lat="46.48011" lon="8.26765">
        <ele>1364</ele>
        <time>2020-10-24T12:39:25.103Z</time>
      </trkpt>
      <trkpt lat="46.48011" lon="8.26763">
        <ele>1364</ele>
        <time>2020-10-24T12:39:26.102Z</time>
      </trkpt>
      <trkpt lat="46.48011" lon="8.26762">
        <ele>1365</ele>
        <time>2020-10-24T12:39:27.102Z</time>
      </trkpt>
      <trkpt lat="46.48011" lon="8.26762">
        <ele>1366</ele>
        <time>2020-10-24T12:39:28.103Z</time>
      </trkpt>
      <trkpt lat="46.48011" lon="8.26762">
        <ele>1366</ele>
        <time>2020-10-24T12:39:29.103Z</time>
      </trkpt>
      <trkpt lat="46.48011" lon="8.26761">
        <ele>1366</ele>
        <time>2020-10-24T12:39:30.103Z</time>
      </trkpt>
      <trkpt lat="46.4801" lon="8.26759">
        <ele>1366</ele>
        <time>2020-10-24T12:39:31.102Z</time>
      </trkpt>
      <trkpt lat="46.48011" lon="8.26755">
        <ele>1367</ele>
        <time>2020-10-24T12:39:32.102Z</time>
      </trkpt>
      <trkpt lat="46.48011" lon="8.26756">
        <ele>1367</ele>
        <time>2020-10-24T12:39:33.103Z</time>
      </trkpt>
      <trkpt lat="46.48011" lon="8.26756">
        <ele>1367</ele>
        <time>2020-10-24T12:39:34.103Z</time>
      </trkpt>
      <trkpt lat="46.48011" lon="8.26757">
        <ele>1366</ele>
        <time>2020-10-24T12:39:35.102Z</time>
      </trkpt>
      <trkpt lat="46.48011" lon="8.26757">
        <ele>1367</ele>
        <time>2020-10-24T12:39:36.103Z</time>
      </trkpt>
      <trkpt lat="46.48011" lon="8.26757">
        <ele>1367</ele>
        <time>2020-10-24T12:39:37.103Z</time>
      </trkpt>
      <trkpt lat="46.48013" lon="8.2676">
        <ele>1377</ele>
        <time>2020-10-24T12:39:38.102Z</time>
      </trkpt>
      <trkpt lat="46.48013" lon="8.2676">
        <ele>1377</ele>
        <time>2020-10-24T12:39:39.102Z</time>
      </trkpt>
      <trkpt lat="46.48013" lon="8.2676">
        <ele>1377</ele>
        <time>2020-10-24T12:39:40.103Z</time>
      </trkpt>
      <trkpt lat="46.48014" lon="8.2676">
        <ele>1377</ele>
        <time>2020-10-24T12:39:41.103Z</time>
      </trkpt>
      <trkpt lat="46.48014" lon="8.26761">
        <ele>1376</ele>
        <time>2020-10-24T12:39:42.103Z</time>
      </trkpt>
      <trkpt lat="46.48014" lon="8.26761">
        <ele>1375</ele>
        <time>2020-10-24T12:39:43.103Z</time>
      </trkpt>
      <trkpt lat="46.48015" lon="8.26761">
        <ele>1375</ele>
        <time>2020-10-24T12:39:44.103Z</time>
      </trkpt>
      <trkpt lat="46.48015" lon="8.26761">
        <ele>1374</ele>
        <time>2020-10-24T12:39:45.103Z</time>
      </trkpt>
      <trkpt lat="46.48018" lon="8.26761">
        <ele>1374</ele>
        <time>2020-10-24T12:39:46.103Z</time>
      </trkpt>
      <trkpt lat="46.48019" lon="8.26761">
        <ele>1373</ele>
        <time>2020-10-24T12:39:47.102Z</time>
      </trkpt>
      <trkpt lat="46.48018" lon="8.2676">
        <ele>1372</ele>
        <time>2020-10-24T12:39:48.103Z</time>
      </trkpt>
      <trkpt lat="46.48017" lon="8.26758">
        <ele>1372</ele>
        <time>2020-10-24T12:39:49.103Z</time>
      </trkpt>
      <trkpt lat="46.48016" lon="8.26757">
        <ele>1371</ele>
        <time>2020-10-24T12:39:50.103Z</time>
      </trkpt>
      <trkpt lat="46.48016" lon="8.26758">
        <ele>1371</ele>
        <time>2020-10-24T12:39:51.103Z</time>
      </trkpt>
      <trkpt lat="46.48019" lon="8.26762">
        <ele>1370</ele>
        <time>2020-10-24T12:39:52.102Z</time>
      </trkpt>
      <trkpt lat="46.48022" lon="8.26764">
        <ele>1370</ele>
        <time>2020-10-24T12:39:53.103Z</time>
      </trkpt>
      <trkpt lat="46.48021" lon="8.26764">
        <ele>1370</ele>
        <time>2020-10-24T12:39:54.102Z</time>
      </trkpt>
      <trkpt lat="46.48021" lon="8.26764">
        <ele>1371</ele>
        <time>2020-10-24T12:39:55.103Z</time>
      </trkpt>
      <trkpt lat="46.4802" lon="8.26763">
        <ele>1372</ele>
        <time>2020-10-24T12:39:56.102Z</time>
      </trkpt>
      <trkpt lat="46.48019" lon="8.26762">
        <ele>1371</ele>
        <time>2020-10-24T12:39:57.102Z</time>
      </trkpt>
      <trkpt lat="46.48019" lon="8.26761">
        <ele>1371</ele>
        <time>2020-10-24T12:39:58.103Z</time>
      </trkpt>
      <trkpt lat="46.48018" lon="8.2676">
        <ele>1371</ele>
        <time>2020-10-24T12:39:59.103Z</time>
      </trkpt>
      <trkpt lat="46.48018" lon="8.26759">
        <ele>1370</ele>
        <time>2020-10-24T12:40:00.102Z</time>
      </trkpt>
      <trkpt lat="46.48017" lon="8.26758">
        <ele>1369</ele>
        <time>2020-10-24T12:40:01.102Z</time>
      </trkpt>
      <trkpt lat="46.48017" lon="8.26757">
        <ele>1369</ele>
        <time>2020-10-24T12:40:02.102Z</time>
      </trkpt>
      <trkpt lat="46.48016" lon="8.26756">
        <ele>1368</ele>
        <time>2020-10-24T12:40:03.102Z</time>
      </trkpt>
      <trkpt lat="46.48016" lon="8.26755">
        <ele>1368</ele>
        <time>2020-10-24T12:40:04.103Z</time>
      </trkpt>
      <trkpt lat="46.48015" lon="8.26754">
        <ele>1367</ele>
        <time>2020-10-24T12:40:05.102Z</time>
      </trkpt>
      <trkpt lat="46.48015" lon="8.26754">
        <ele>1367</ele>
        <time>2020-10-24T12:40:06.103Z</time>
      </trkpt>
      <trkpt lat="46.48014" lon="8.26753">
        <ele>1366</ele>
        <time>2020-10-24T12:40:07.102Z</time>
      </trkpt>
      <trkpt lat="46.48013" lon="8.26752">
        <ele>1366</ele>
        <time>2020-10-24T12:40:08.102Z</time>
      </trkpt>
      <trkpt lat="46.48012" lon="8.26752">
        <ele>1365</ele>
        <time>2020-10-24T12:40:09.103Z</time>
      </trkpt>
      <trkpt lat="46.48012" lon="8.26751">
        <ele>1364</ele>
        <time>2020-10-24T12:40:10.103Z</time>
      </trkpt>
      <trkpt lat="46.48011" lon="8.2675">
        <ele>1364</ele>
        <time>2020-10-24T12:40:11.102Z</time>
      </trkpt>
      <trkpt lat="46.4801" lon="8.26749">
        <ele>1363</ele>
        <time>2020-10-24T12:40:12.103Z</time>
      </trkpt>
      <trkpt lat="46.48009" lon="8.26748">
        <ele>1363</ele>
        <time>2020-10-24T12:40:13.102Z</time>
      </trkpt>
      <trkpt lat="46.48008" lon="8.26747">
        <ele>1363</ele>
        <time>2020-10-24T12:40:14.102Z</time>
      </trkpt>
      <trkpt lat="46.48006" lon="8.26747">
        <ele>1363</ele>
        <time>2020-10-24T12:40:15.102Z</time>
      </trkpt>
      <trkpt lat="46.48005" lon="8.26745">
        <ele>1363</ele>
        <time>2020-10-24T12:40:16.102Z</time>
      </trkpt>
      <trkpt lat="46.48003" lon="8.26743">
        <ele>1363</ele>
        <time>2020-10-24T12:40:17.102Z</time>
      </trkpt>
      <trkpt lat="46.48001" lon="8.26742">
        <ele>1363</ele>
        <time>2020-10-24T12:40:18.102Z</time>
      </trkpt>
      <trkpt lat="46.47999" lon="8.2674">
        <ele>1364</ele>
        <time>2020-10-24T12:40:19.103Z</time>
      </trkpt>
      <trkpt lat="46.47998" lon="8.26738">
        <ele>1364</ele>
        <time>2020-10-24T12:40:20.103Z</time>
      </trkpt>
      <trkpt lat="46.47995" lon="8.26735">
        <ele>1365</ele>
        <time>2020-10-24T12:40:21.102Z</time>
      </trkpt>
      <trkpt lat="46.47994" lon="8.26734">
        <ele>1365</ele>
        <time>2020-10-24T12:40:22.103Z</time>
      </trkpt>
      <trkpt lat="46.47993" lon="8.26732">
        <ele>1366</ele>
        <time>2020-10-24T12:40:23.103Z</time>
      </trkpt>
      <trkpt lat="46.47991" lon="8.26731">
        <ele>1367</ele>
        <time>2020-10-24T12:40:24.102Z</time>
      </trkpt>
      <trkpt lat="46.47989" lon="8.26731">
        <ele>1367</ele>
        <time>2020-10-24T12:40:25.102Z</time>
      </trkpt>
      <trkpt lat="46.47988" lon="8.26729">
        <ele>1368</ele>
        <time>2020-10-24T12:40:26.103Z</time>
      </trkpt>
      <trkpt lat="46.47986" lon="8.26727">
        <ele>1368</ele>
        <time>2020-10-24T12:40:27.102Z</time>
      </trkpt>
      <trkpt lat="46.47985" lon="8.26726">
        <ele>1369</ele>
        <time>2020-10-24T12:40:28.102Z</time>
      </trkpt>
      <trkpt lat="46.47984" lon="8.26724">
        <ele>1369</ele>
        <time>2020-10-24T12:40:29.103Z</time>
      </trkpt>
      <trkpt lat="46.47983" lon="8.26721">
        <ele>1370</ele>
        <time>2020-10-24T12:40:30.103Z</time>
      </trkpt>
      <trkpt lat="46.47982" lon="8.26719">
        <ele>1371</ele>
        <time>2020-10-24T12:40:31.102Z</time>
      </trkpt>
      <trkpt lat="46.47981" lon="8.26716">
        <ele>1372</ele>
        <time>2020-10-24T12:40:32.102Z</time>
      </trkpt>
      <trkpt lat="46.4798" lon="8.26714">
        <ele>1373</ele>
        <time>2020-10-24T12:40:33.103Z</time>
      </trkpt>
      <trkpt lat="46.47979" lon="8.26712">
        <ele>1374</ele>
        <time>2020-10-24T12:40:34.103Z</time>
      </trkpt>
      <trkpt lat="46.47979" lon="8.26711">
        <ele>1375</ele>
        <time>2020-10-24T12:40:35.103Z</time>
      </trkpt>
      <trkpt lat="46.47978" lon="8.26709">
        <ele>1376</ele>
        <time>2020-10-24T12:40:36.103Z</time>
      </trkpt>
      <trkpt lat="46.47977" lon="8.26706">
        <ele>1377</ele>
        <time>2020-10-24T12:40:37.102Z</time>
      </trkpt>
      <trkpt lat="46.47976" lon="8.26703">
        <ele>1378</ele>
        <time>2020-10-24T12:40:38.102Z</time>
      </trkpt>
      <trkpt lat="46.47975" lon="8.267">
        <ele>1378</ele>
        <time>2020-10-24T12:40:39.102Z</time>
      </trkpt>
      <trkpt lat="46.47974" lon="8.26697">
        <ele>1379</ele>
        <time>2020-10-24T12:40:40.103Z</time>
      </trkpt>
      <trkpt lat="46.47973" lon="8.26695">
        <ele>1379</ele>
        <time>2020-10-24T12:40:41.103Z</time>
      </trkpt>
      <trkpt lat="46.47973" lon="8.26694">
        <ele>1379</ele>
        <time>2020-10-24T12:40:42.103Z</time>
      </trkpt>
      <trkpt lat="46.47973" lon="8.26693">
        <ele>1379</ele>
        <time>2020-10-24T12:40:43.103Z</time>
      </trkpt>
      <trkpt lat="46.47973" lon="8.26692">
        <ele>1379</ele>
        <time>2020-10-24T12:40:44.103Z</time>
      </trkpt>
      <trkpt lat="46.47973" lon="8.26692">
        <ele>1378</ele>
        <time>2020-10-24T12:40:45.103Z</time>
      </trkpt>
      <trkpt lat="46.47972" lon="8.26692">
        <ele>1378</ele>
        <time>2020-10-24T12:40:46.102Z</time>
      </trkpt>
      <trkpt lat="46.47972" lon="8.26693">
        <ele>1377</ele>
        <time>2020-10-24T12:40:47.102Z</time>
      </trkpt>
      <trkpt lat="46.47973" lon="8.26694">
        <ele>1376</ele>
        <time>2020-10-24T12:40:48.103Z</time>
      </trkpt>
      <trkpt lat="46.47973" lon="8.26696">
        <ele>1376</ele>
        <time>2020-10-24T12:40:49.103Z</time>
      </trkpt>
      <trkpt lat="46.47974" lon="8.26698">
        <ele>1375</ele>
        <time>2020-10-24T12:40:50.103Z</time>
      </trkpt>
      <trkpt lat="46.47974" lon="8.26698">
        <ele>1374</ele>
        <time>2020-10-24T12:40:51.102Z</time>
      </trkpt>
      <trkpt lat="46.47974" lon="8.26697">
        <ele>1374</ele>
        <time>2020-10-24T12:40:52.102Z</time>
      </trkpt>
      <trkpt lat="46.47974" lon="8.26696">
        <ele>1373</ele>
        <time>2020-10-24T12:40:53.103Z</time>
      </trkpt>
      <trkpt lat="46.47973" lon="8.26695">
        <ele>1372</ele>
        <time>2020-10-24T12:40:54.102Z</time>
      </trkpt>
      <trkpt lat="46.47973" lon="8.26695">
        <ele>1371</ele>
        <time>2020-10-24T12:40:55.103Z</time>
      </trkpt>
      <trkpt lat="46.47973" lon="8.26694">
        <ele>1370</ele>
        <time>2020-10-24T12:40:56.102Z</time>
      </trkpt>
      <trkpt lat="46.47972" lon="8.26695">
        <ele>1370</ele>
        <time>2020-10-24T12:40:57.102Z</time>
      </trkpt>
      <trkpt lat="46.47972" lon="8.26694">
        <ele>1369</ele>
        <time>2020-10-24T12:40:58.102Z</time>
      </trkpt>
      <trkpt lat="46.47972" lon="8.26694">
        <ele>1369</ele>
        <time>2020-10-24T12:40:59.103Z</time>
      </trkpt>
      <trkpt lat="46.47973" lon="8.26695">
        <ele>1369</ele>
        <time>2020-10-24T12:41:00.103Z</time>
      </trkpt>
      <trkpt lat="46.47974" lon="8.26696">
        <ele>1369</ele>
        <time>2020-10-24T12:41:01.102Z</time>
      </trkpt>
      <trkpt lat="46.47974" lon="8.26696">
        <ele>1369</ele>
        <time>2020-10-24T12:41:02.102Z</time>
      </trkpt>
      <trkpt lat="46.47974" lon="8.26696">
        <ele>1369</ele>
        <time>2020-10-24T12:41:03.103Z</time>
      </trkpt>
      <trkpt lat="46.47973" lon="8.26695">
        <ele>1369</ele>
        <time>2020-10-24T12:41:04.103Z</time>
      </trkpt>
      <trkpt lat="46.47973" lon="8.26692">
        <ele>1370</ele>
        <time>2020-10-24T12:41:05.103Z</time>
      </trkpt>
      <trkpt lat="46.47972" lon="8.2669">
        <ele>1370</ele>
        <time>2020-10-24T12:41:06.102Z</time>
      </trkpt>
      <trkpt lat="46.47972" lon="8.26688">
        <ele>1370</ele>
        <time>2020-10-24T12:41:07.102Z</time>
      </trkpt>
      <trkpt lat="46.47971" lon="8.26688">
        <ele>1370</ele>
        <time>2020-10-24T12:41:08.102Z</time>
      </trkpt>
      <trkpt lat="46.47971" lon="8.26688">
        <ele>1370</ele>
        <time>2020-10-24T12:41:09.102Z</time>
      </trkpt>
      <trkpt lat="46.47971" lon="8.26688">
        <ele>1369</ele>
        <time>2020-10-24T12:41:10.102Z</time>
      </trkpt>
      <trkpt lat="46.47971" lon="8.26687">
        <ele>1369</ele>
        <time>2020-10-24T12:41:11.102Z</time>
      </trkpt>
      <trkpt lat="46.47971" lon="8.26686">
        <ele>1370</ele>
        <time>2020-10-24T12:41:12.103Z</time>
      </trkpt>
      <trkpt lat="46.47971" lon="8.26686">
        <ele>1371</ele>
        <time>2020-10-24T12:41:13.103Z</time>
      </trkpt>
      <trkpt lat="46.47971" lon="8.26685">
        <ele>1371</ele>
        <time>2020-10-24T12:41:14.102Z</time>
      </trkpt>
      <trkpt lat="46.4797" lon="8.26685">
        <ele>1372</ele>
        <time>2020-10-24T12:41:15.102Z</time>
      </trkpt>
      <trkpt lat="46.4797" lon="8.26684">
        <ele>1371</ele>
        <time>2020-10-24T12:41:16.102Z</time>
      </trkpt>
      <trkpt lat="46.47969" lon="8.26683">
        <ele>1371</ele>
        <time>2020-10-24T12:41:17.102Z</time>
      </trkpt>
      <trkpt lat="46.47969" lon="8.26683">
        <ele>1370</ele>
        <time>2020-10-24T12:41:18.102Z</time>
      </trkpt>
      <trkpt lat="46.47968" lon="8.26684">
        <ele>1369</ele>
        <time>2020-10-24T12:41:19.102Z</time>
      </trkpt>
      <trkpt lat="46.47967" lon="8.26684">
        <ele>1369</ele>
        <time>2020-10-24T12:41:20.102Z</time>
      </trkpt>
      <trkpt lat="46.47967" lon="8.26684">
        <ele>1368</ele>
        <time>2020-10-24T12:41:21.102Z</time>
      </trkpt>
      <trkpt lat="46.47965" lon="8.26685">
        <ele>1367</ele>
        <time>2020-10-24T12:41:22.102Z</time>
      </trkpt>
      <trkpt lat="46.47963" lon="8.26685">
        <ele>1367</ele>
        <time>2020-10-24T12:41:23.102Z</time>
      </trkpt>
      <trkpt lat="46.47961" lon="8.26686">
        <ele>1366</ele>
        <time>2020-10-24T12:41:24.102Z</time>
      </trkpt>
      <trkpt lat="46.4796" lon="8.26686">
        <ele>1365</ele>
        <time>2020-10-24T12:41:25.102Z</time>
      </trkpt>
      <trkpt lat="46.4796" lon="8.26686">
        <ele>1364</ele>
        <time>2020-10-24T12:41:26.102Z</time>
      </trkpt>
      <trkpt lat="46.47959" lon="8.26686">
        <ele>1364</ele>
        <time>2020-10-24T12:41:27.102Z</time>
      </trkpt>
      <trkpt lat="46.47959" lon="8.26686">
        <ele>1363</ele>
        <time>2020-10-24T12:41:28.102Z</time>
      </trkpt>
      <trkpt lat="46.47958" lon="8.26686">
        <ele>1362</ele>
        <time>2020-10-24T12:41:29.102Z</time>
      </trkpt>
      <trkpt lat="46.47957" lon="8.26686">
        <ele>1361</ele>
        <time>2020-10-24T12:41:30.103Z</time>
      </trkpt>
      <trkpt lat="46.47956" lon="8.26686">
        <ele>1360</ele>
        <time>2020-10-24T12:41:31.102Z</time>
      </trkpt>
      <trkpt lat="46.47956" lon="8.26686">
        <ele>1359</ele>
        <time>2020-10-24T12:41:32.103Z</time>
      </trkpt>
      <trkpt lat="46.47955" lon="8.26686">
        <ele>1358</ele>
        <time>2020-10-24T12:41:33.102Z</time>
      </trkpt>
      <trkpt lat="46.47954" lon="8.26685">
        <ele>1357</ele>
        <time>2020-10-24T12:41:34.103Z</time>
      </trkpt>
      <trkpt lat="46.47953" lon="8.26684">
        <ele>1357</ele>
        <time>2020-10-24T12:41:35.102Z</time>
      </trkpt>
      <trkpt lat="46.47953" lon="8.26682">
        <ele>1357</ele>
        <time>2020-10-24T12:41:36.103Z</time>
      </trkpt>
      <trkpt lat="46.47953" lon="8.26681">
        <ele>1357</ele>
        <time>2020-10-24T12:41:37.103Z</time>
      </trkpt>
      <trkpt lat="46.47952" lon="8.26679">
        <ele>1358</ele>
        <time>2020-10-24T12:41:38.103Z</time>
      </trkpt>
      <trkpt lat="46.47951" lon="8.26677">
        <ele>1358</ele>
        <time>2020-10-24T12:41:39.103Z</time>
      </trkpt>
      <trkpt lat="46.4795" lon="8.26676">
        <ele>1358</ele>
        <time>2020-10-24T12:41:40.103Z</time>
      </trkpt>
      <trkpt lat="46.47949" lon="8.26674">
        <ele>1358</ele>
        <time>2020-10-24T12:41:41.103Z</time>
      </trkpt>
      <trkpt lat="46.47948" lon="8.26672">
        <ele>1359</ele>
        <time>2020-10-24T12:41:42.103Z</time>
      </trkpt>
      <trkpt lat="46.47946" lon="8.2667">
        <ele>1359</ele>
        <time>2020-10-24T12:41:43.103Z</time>
      </trkpt>
      <trkpt lat="46.47944" lon="8.26668">
        <ele>1359</ele>
        <time>2020-10-24T12:41:44.103Z</time>
      </trkpt>
      <trkpt lat="46.47943" lon="8.26667">
        <ele>1359</ele>
        <time>2020-10-24T12:41:45.102Z</time>
      </trkpt>
      <trkpt lat="46.47941" lon="8.26666">
        <ele>1359</ele>
        <time>2020-10-24T12:41:46.103Z</time>
      </trkpt>
      <trkpt lat="46.47939" lon="8.26665">
        <ele>1360</ele>
        <time>2020-10-24T12:41:47.103Z</time>
      </trkpt>
      <trkpt lat="46.47936" lon="8.26664">
        <ele>1361</ele>
        <time>2020-10-24T12:41:48.103Z</time>
      </trkpt>
      <trkpt lat="46.47934" lon="8.26664">
        <ele>1361</ele>
        <time>2020-10-24T12:41:49.102Z</time>
      </trkpt>
      <trkpt lat="46.47933" lon="8.26663">
        <ele>1362</ele>
        <time>2020-10-24T12:41:50.102Z</time>
      </trkpt>
      <trkpt lat="46.47932" lon="8.26659">
        <ele>1363</ele>
        <time>2020-10-24T12:41:51.102Z</time>
      </trkpt>
      <trkpt lat="46.47931" lon="8.26654">
        <ele>1364</ele>
        <time>2020-10-24T12:41:52.103Z</time>
      </trkpt>
      <trkpt lat="46.47929" lon="8.26649">
        <ele>1365</ele>
        <time>2020-10-24T12:41:53.103Z</time>
      </trkpt>
      <trkpt lat="46.47929" lon="8.26646">
        <ele>1366</ele>
        <time>2020-10-24T12:41:54.103Z</time>
      </trkpt>
      <trkpt lat="46.47928" lon="8.26644">
        <ele>1367</ele>
        <time>2020-10-24T12:41:55.103Z</time>
      </trkpt>
      <trkpt lat="46.47929" lon="8.26643">
        <ele>1368</ele>
        <time>2020-10-24T12:41:56.102Z</time>
      </trkpt>
      <trkpt lat="46.47929" lon="8.26642">
        <ele>1369</ele>
        <time>2020-10-24T12:41:57.103Z</time>
      </trkpt>
      <trkpt lat="46.47929" lon="8.26641">
        <ele>1370</ele>
        <time>2020-10-24T12:41:58.103Z</time>
      </trkpt>
      <trkpt lat="46.47929" lon="8.26639">
        <ele>1371</ele>
        <time>2020-10-24T12:41:59.102Z</time>
      </trkpt>
      <trkpt lat="46.47927" lon="8.26638">
        <ele>1372</ele>
        <time>2020-10-24T12:42:00.103Z</time>
      </trkpt>
      <trkpt lat="46.47926" lon="8.26637">
        <ele>1372</ele>
        <time>2020-10-24T12:42:01.102Z</time>
      </trkpt>
      <trkpt lat="46.47925" lon="8.26636">
        <ele>1373</ele>
        <time>2020-10-24T12:42:02.103Z</time>
      </trkpt>
      <trkpt lat="46.47923" lon="8.26636">
        <ele>1373</ele>
        <time>2020-10-24T12:42:03.102Z</time>
      </trkpt>
      <trkpt lat="46.47922" lon="8.26637">
        <ele>1373</ele>
        <time>2020-10-24T12:42:04.103Z</time>
      </trkpt>
      <trkpt lat="46.47921" lon="8.26638">
        <ele>1373</ele>
        <time>2020-10-24T12:42:05.103Z</time>
      </trkpt>
      <trkpt lat="46.4792" lon="8.26638">
        <ele>1373</ele>
        <time>2020-10-24T12:42:06.103Z</time>
      </trkpt>
      <trkpt lat="46.47919" lon="8.26638">
        <ele>1374</ele>
        <time>2020-10-24T12:42:07.103Z</time>
      </trkpt>
      <trkpt lat="46.47918" lon="8.26639">
        <ele>1374</ele>
        <time>2020-10-24T12:42:08.102Z</time>
      </trkpt>
      <trkpt lat="46.47917" lon="8.26637">
        <ele>1374</ele>
        <time>2020-10-24T12:42:09.103Z</time>
      </trkpt>
      <trkpt lat="46.47916" lon="8.26637">
        <ele>1375</ele>
        <time>2020-10-24T12:42:10.103Z</time>
      </trkpt>
      <trkpt lat="46.47913" lon="8.26636">
        <ele>1375</ele>
        <time>2020-10-24T12:42:11.103Z</time>
      </trkpt>
      <trkpt lat="46.47912" lon="8.26634">
        <ele>1375</ele>
        <time>2020-10-24T12:42:12.102Z</time>
      </trkpt>
      <trkpt lat="46.47909" lon="8.26633">
        <ele>1375</ele>
        <time>2020-10-24T12:42:13.103Z</time>
      </trkpt>
      <trkpt lat="46.47908" lon="8.26631">
        <ele>1374</ele>
        <time>2020-10-24T12:42:14.103Z</time>
      </trkpt>
      <trkpt lat="46.47907" lon="8.26631">
        <ele>1374</ele>
        <time>2020-10-24T12:42:15.103Z</time>
      </trkpt>
      <trkpt lat="46.47907" lon="8.26631">
        <ele>1374</ele>
        <time>2020-10-24T12:42:16.103Z</time>
      </trkpt>
      <trkpt lat="46.47906" lon="8.26632">
        <ele>1374</ele>
        <time>2020-10-24T12:42:17.103Z</time>
      </trkpt>
      <trkpt lat="46.47905" lon="8.26632">
        <ele>1374</ele>
        <time>2020-10-24T12:42:18.103Z</time>
      </trkpt>
      <trkpt lat="46.47904" lon="8.26631">
        <ele>1375</ele>
        <time>2020-10-24T12:42:19.103Z</time>
      </trkpt>
      <trkpt lat="46.47902" lon="8.26629">
        <ele>1374</ele>
        <time>2020-10-24T12:42:20.103Z</time>
      </trkpt>
      <trkpt lat="46.47901" lon="8.26629">
        <ele>1374</ele>
        <time>2020-10-24T12:42:21.102Z</time>
      </trkpt>
      <trkpt lat="46.479" lon="8.26629">
        <ele>1374</ele>
        <time>2020-10-24T12:42:22.103Z</time>
      </trkpt>
      <trkpt lat="46.47899" lon="8.26629">
        <ele>1374</ele>
        <time>2020-10-24T12:42:23.103Z</time>
      </trkpt>
      <trkpt lat="46.47899" lon="8.26629">
        <ele>1374</ele>
        <time>2020-10-24T12:42:24.103Z</time>
      </trkpt>
      <trkpt lat="46.47898" lon="8.26629">
        <ele>1374</ele>
        <time>2020-10-24T12:42:25.103Z</time>
      </trkpt>
      <trkpt lat="46.47898" lon="8.26629">
        <ele>1374</ele>
        <time>2020-10-24T12:42:26.102Z</time>
      </trkpt>
      <trkpt lat="46.47899" lon="8.26631">
        <ele>1374</ele>
        <time>2020-10-24T12:42:27.103Z</time>
      </trkpt>
      <trkpt lat="46.47899" lon="8.26632">
        <ele>1374</ele>
        <time>2020-10-24T12:42:28.103Z</time>
      </trkpt>
      <trkpt lat="46.47899" lon="8.26632">
        <ele>1374</ele>
        <time>2020-10-24T12:42:29.103Z</time>
      </trkpt>
      <trkpt lat="46.47899" lon="8.26632">
        <ele>1374</ele>
        <time>2020-10-24T12:42:30.102Z</time>
      </trkpt>
      <trkpt lat="46.47898" lon="8.26631">
        <ele>1374</ele>
        <time>2020-10-24T12:42:31.103Z</time>
      </trkpt>
      <trkpt lat="46.47897" lon="8.26629">
        <ele>1374</ele>
        <time>2020-10-24T12:42:32.102Z</time>
      </trkpt>
      <trkpt lat="46.47896" lon="8.26627">
        <ele>1375</ele>
        <time>2020-10-24T12:42:33.102Z</time>
      </trkpt>
      <trkpt lat="46.47895" lon="8.26625">
        <ele>1375</ele>
        <time>2020-10-24T12:42:34.103Z</time>
      </trkpt>
      <trkpt lat="46.47893" lon="8.26624">
        <ele>1375</ele>
        <time>2020-10-24T12:42:35.102Z</time>
      </trkpt>
      <trkpt lat="46.47892" lon="8.26623">
        <ele>1376</ele>
        <time>2020-10-24T12:42:36.102Z</time>
      </trkpt>
      <trkpt lat="46.4789" lon="8.26621">
        <ele>1376</ele>
        <time>2020-10-24T12:42:37.103Z</time>
      </trkpt>
      <trkpt lat="46.47889" lon="8.26621">
        <ele>1376</ele>
        <time>2020-10-24T12:42:38.103Z</time>
      </trkpt>
      <trkpt lat="46.47888" lon="8.2662">
        <ele>1376</ele>
        <time>2020-10-24T12:42:39.103Z</time>
      </trkpt>
      <trkpt lat="46.47887" lon="8.26621">
        <ele>1376</ele>
        <time>2020-10-24T12:42:40.103Z</time>
      </trkpt>
      <trkpt lat="46.47886" lon="8.26621">
        <ele>1377</ele>
        <time>2020-10-24T12:42:41.103Z</time>
      </trkpt>
      <trkpt lat="46.47885" lon="8.26621">
        <ele>1377</ele>
        <time>2020-10-24T12:42:42.103Z</time>
      </trkpt>
      <trkpt lat="46.47884" lon="8.26621">
        <ele>1377</ele>
        <time>2020-10-24T12:42:43.102Z</time>
      </trkpt>
      <trkpt lat="46.47883" lon="8.26621">
        <ele>1377</ele>
        <time>2020-10-24T12:42:44.103Z</time>
      </trkpt>
      <trkpt lat="46.47882" lon="8.2662">
        <ele>1378</ele>
        <time>2020-10-24T12:42:45.102Z</time>
      </trkpt>
      <trkpt lat="46.47881" lon="8.26618">
        <ele>1378</ele>
        <time>2020-10-24T12:42:46.103Z</time>
      </trkpt>
      <trkpt lat="46.4788" lon="8.26617">
        <ele>1378</ele>
        <time>2020-10-24T12:42:47.103Z</time>
      </trkpt>
      <trkpt lat="46.47879" lon="8.26616">
        <ele>1378</ele>
        <time>2020-10-24T12:42:48.103Z</time>
      </trkpt>
      <trkpt lat="46.47878" lon="8.26616">
        <ele>1378</ele>
        <time>2020-10-24T12:42:49.103Z</time>
      </trkpt>
      <trkpt lat="46.47877" lon="8.26616">
        <ele>1378</ele>
        <time>2020-10-24T12:42:50.102Z</time>
      </trkpt>
      <trkpt lat="46.47876" lon="8.26615">
        <ele>1378</ele>
        <time>2020-10-24T12:42:51.102Z</time>
      </trkpt>
      <trkpt lat="46.47876" lon="8.26614">
        <ele>1377</ele>
        <time>2020-10-24T12:42:52.103Z</time>
      </trkpt>
      <trkpt lat="46.47876" lon="8.26611">
        <ele>1377</ele>
        <time>2020-10-24T12:42:53.103Z</time>
      </trkpt>
      <trkpt lat="46.47875" lon="8.2661">
        <ele>1377</ele>
        <time>2020-10-24T12:42:54.102Z</time>
      </trkpt>
      <trkpt lat="46.47874" lon="8.2661">
        <ele>1377</ele>
        <time>2020-10-24T12:42:55.103Z</time>
      </trkpt>
      <trkpt lat="46.47873" lon="8.2661">
        <ele>1377</ele>
        <time>2020-10-24T12:42:56.103Z</time>
      </trkpt>
      <trkpt lat="46.47872" lon="8.2661">
        <ele>1376</ele>
        <time>2020-10-24T12:42:57.103Z</time>
      </trkpt>
      <trkpt lat="46.47871" lon="8.2661">
        <ele>1375</ele>
        <time>2020-10-24T12:42:58.102Z</time>
      </trkpt>
      <trkpt lat="46.4787" lon="8.2661">
        <ele>1374</ele>
        <time>2020-10-24T12:42:59.103Z</time>
      </trkpt>
      <trkpt lat="46.47869" lon="8.2661">
        <ele>1374</ele>
        <time>2020-10-24T12:43:00.103Z</time>
      </trkpt>
      <trkpt lat="46.47868" lon="8.26609">
        <ele>1373</ele>
        <time>2020-10-24T12:43:01.102Z</time>
      </trkpt>
      <trkpt lat="46.47867" lon="8.26609">
        <ele>1373</ele>
        <time>2020-10-24T12:43:02.102Z</time>
      </trkpt>
      <trkpt lat="46.47865" lon="8.26608">
        <ele>1373</ele>
        <time>2020-10-24T12:43:03.102Z</time>
      </trkpt>
      <trkpt lat="46.47864" lon="8.26608">
        <ele>1373</ele>
        <time>2020-10-24T12:43:04.103Z</time>
      </trkpt>
      <trkpt lat="46.47864" lon="8.26606">
        <ele>1372</ele>
        <time>2020-10-24T12:43:05.103Z</time>
      </trkpt>
      <trkpt lat="46.47863" lon="8.26606">
        <ele>1372</ele>
        <time>2020-10-24T12:43:06.103Z</time>
      </trkpt>
      <trkpt lat="46.47863" lon="8.26606">
        <ele>1372</ele>
        <time>2020-10-24T12:43:07.102Z</time>
      </trkpt>
      <trkpt lat="46.47863" lon="8.26605">
        <ele>1372</ele>
        <time>2020-10-24T12:43:08.103Z</time>
      </trkpt>
      <trkpt lat="46.47861" lon="8.26604">
        <ele>1372</ele>
        <time>2020-10-24T12:43:09.102Z</time>
      </trkpt>
      <trkpt lat="46.4786" lon="8.26603">
        <ele>1372</ele>
        <time>2020-10-24T12:43:10.103Z</time>
      </trkpt>
      <trkpt lat="46.47859" lon="8.26601">
        <ele>1372</ele>
        <time>2020-10-24T12:43:11.103Z</time>
      </trkpt>
      <trkpt lat="46.47857" lon="8.26598">
        <ele>1372</ele>
        <time>2020-10-24T12:43:12.103Z</time>
      </trkpt>
      <trkpt lat="46.47856" lon="8.26596">
        <ele>1372</ele>
        <time>2020-10-24T12:43:13.103Z</time>
      </trkpt>
      <trkpt lat="46.47855" lon="8.26594">
        <ele>1372</ele>
        <time>2020-10-24T12:43:14.103Z</time>
      </trkpt>
      <trkpt lat="46.47854" lon="8.26593">
        <ele>1372</ele>
        <time>2020-10-24T12:43:15.102Z</time>
      </trkpt>
      <trkpt lat="46.47854" lon="8.26592">
        <ele>1372</ele>
        <time>2020-10-24T12:43:16.102Z</time>
      </trkpt>
      <trkpt lat="46.47852" lon="8.26591">
        <ele>1373</ele>
        <time>2020-10-24T12:43:17.103Z</time>
      </trkpt>
      <trkpt lat="46.47852" lon="8.2659">
        <ele>1373</ele>
        <time>2020-10-24T12:43:18.103Z</time>
      </trkpt>
      <trkpt lat="46.47852" lon="8.26589">
        <ele>1374</ele>
        <time>2020-10-24T12:43:19.102Z</time>
      </trkpt>
      <trkpt lat="46.47852" lon="8.26588">
        <ele>1375</ele>
        <time>2020-10-24T12:43:20.102Z</time>
      </trkpt>
      <trkpt lat="46.47852" lon="8.26587">
        <ele>1375</ele>
        <time>2020-10-24T12:43:21.103Z</time>
      </trkpt>
      <trkpt lat="46.47851" lon="8.26587">
        <ele>1375</ele>
        <time>2020-10-24T12:43:22.103Z</time>
      </trkpt>
      <trkpt lat="46.47851" lon="8.26587">
        <ele>1375</ele>
        <time>2020-10-24T12:43:23.102Z</time>
      </trkpt>
      <trkpt lat="46.4785" lon="8.26586">
        <ele>1375</ele>
        <time>2020-10-24T12:43:24.103Z</time>
      </trkpt>
      <trkpt lat="46.4785" lon="8.26584">
        <ele>1375</ele>
        <time>2020-10-24T12:43:25.103Z</time>
      </trkpt>
      <trkpt lat="46.47849" lon="8.26582">
        <ele>1375</ele>
        <time>2020-10-24T12:43:26.103Z</time>
      </trkpt>
      <trkpt lat="46.47849" lon="8.26581">
        <ele>1375</ele>
        <time>2020-10-24T12:43:27.103Z</time>
      </trkpt>
      <trkpt lat="46.47848" lon="8.26579">
        <ele>1375</ele>
        <time>2020-10-24T12:43:28.103Z</time>
      </trkpt>
      <trkpt lat="46.47846" lon="8.26577">
        <ele>1376</ele>
        <time>2020-10-24T12:43:29.102Z</time>
      </trkpt>
      <trkpt lat="46.47845" lon="8.26575">
        <ele>1376</ele>
        <time>2020-10-24T12:43:30.103Z</time>
      </trkpt>
      <trkpt lat="46.47844" lon="8.26573">
        <ele>1376</ele>
        <time>2020-10-24T12:43:31.103Z</time>
      </trkpt>
      <trkpt lat="46.47843" lon="8.26571">
        <ele>1376</ele>
        <time>2020-10-24T12:43:32.103Z</time>
      </trkpt>
      <trkpt lat="46.47843" lon="8.2657">
        <ele>1376</ele>
        <time>2020-10-24T12:43:33.102Z</time>
      </trkpt>
      <trkpt lat="46.47842" lon="8.2657">
        <ele>1377</ele>
        <time>2020-10-24T12:43:34.103Z</time>
      </trkpt>
      <trkpt lat="46.47842" lon="8.26571">
        <ele>1377</ele>
        <time>2020-10-24T12:43:35.103Z</time>
      </trkpt>
      <trkpt lat="46.47841" lon="8.2657">
        <ele>1377</ele>
        <time>2020-10-24T12:43:36.103Z</time>
      </trkpt>
      <trkpt lat="46.4784" lon="8.26568">
        <ele>1377</ele>
        <time>2020-10-24T12:43:37.103Z</time>
      </trkpt>
      <trkpt lat="46.4784" lon="8.26568">
        <ele>1377</ele>
        <time>2020-10-24T12:43:38.103Z</time>
      </trkpt>
      <trkpt lat="46.47839" lon="8.26567">
        <ele>1377</ele>
        <time>2020-10-24T12:43:39.103Z</time>
      </trkpt>
      <trkpt lat="46.47838" lon="8.26566">
        <ele>1378</ele>
        <time>2020-10-24T12:43:40.102Z</time>
      </trkpt>
      <trkpt lat="46.47836" lon="8.26565">
        <ele>1378</ele>
        <time>2020-10-24T12:43:41.102Z</time>
      </trkpt>
      <trkpt lat="46.47835" lon="8.26564">
        <ele>1378</ele>
        <time>2020-10-24T12:43:42.102Z</time>
      </trkpt>
      <trkpt lat="46.47834" lon="8.26563">
        <ele>1378</ele>
        <time>2020-10-24T12:43:43.102Z</time>
      </trkpt>
      <trkpt lat="46.47833" lon="8.26563">
        <ele>1377</ele>
        <time>2020-10-24T12:43:44.102Z</time>
      </trkpt>
      <trkpt lat="46.47832" lon="8.26563">
        <ele>1377</ele>
        <time>2020-10-24T12:43:45.103Z</time>
      </trkpt>
      <trkpt lat="46.47832" lon="8.26562">
        <ele>1376</ele>
        <time>2020-10-24T12:43:46.103Z</time>
      </trkpt>
      <trkpt lat="46.47832" lon="8.26561">
        <ele>1375</ele>
        <time>2020-10-24T12:43:47.103Z</time>
      </trkpt>
      <trkpt lat="46.47833" lon="8.2656">
        <ele>1375</ele>
        <time>2020-10-24T12:43:48.103Z</time>
      </trkpt>
      <trkpt lat="46.47834" lon="8.26559">
        <ele>1374</ele>
        <time>2020-10-24T12:43:49.103Z</time>
      </trkpt>
      <trkpt lat="46.47834" lon="8.26558">
        <ele>1373</ele>
        <time>2020-10-24T12:43:50.103Z</time>
      </trkpt>
      <trkpt lat="46.47834" lon="8.26557">
        <ele>1372</ele>
        <time>2020-10-24T12:43:51.103Z</time>
      </trkpt>
      <trkpt lat="46.47833" lon="8.26556">
        <ele>1371</ele>
        <time>2020-10-24T12:43:52.102Z</time>
      </trkpt>
      <trkpt lat="46.47833" lon="8.26555">
        <ele>1371</ele>
        <time>2020-10-24T12:43:53.102Z</time>
      </trkpt>
      <trkpt lat="46.47833" lon="8.26554">
        <ele>1370</ele>
        <time>2020-10-24T12:43:54.103Z</time>
      </trkpt>
      <trkpt lat="46.47833" lon="8.26553">
        <ele>1369</ele>
        <time>2020-10-24T12:43:55.103Z</time>
      </trkpt>
      <trkpt lat="46.47832" lon="8.26551">
        <ele>1368</ele>
        <time>2020-10-24T12:43:56.102Z</time>
      </trkpt>
      <trkpt lat="46.4783" lon="8.26549">
        <ele>1368</ele>
        <time>2020-10-24T12:43:57.103Z</time>
      </trkpt>
      <trkpt lat="46.4783" lon="8.26548">
        <ele>1368</ele>
        <time>2020-10-24T12:43:58.103Z</time>
      </trkpt>
      <trkpt lat="46.47828" lon="8.26547">
        <ele>1368</ele>
        <time>2020-10-24T12:43:59.102Z</time>
      </trkpt>
      <trkpt lat="46.47827" lon="8.26545">
        <ele>1368</ele>
        <time>2020-10-24T12:44:00.103Z</time>
      </trkpt>
      <trkpt lat="46.47827" lon="8.26544">
        <ele>1367</ele>
        <time>2020-10-24T12:44:01.103Z</time>
      </trkpt>
      <trkpt lat="46.47826" lon="8.26542">
        <ele>1367</ele>
        <time>2020-10-24T12:44:02.103Z</time>
      </trkpt>
      <trkpt lat="46.47824" lon="8.2654">
        <ele>1367</ele>
        <time>2020-10-24T12:44:03.103Z</time>
      </trkpt>
      <trkpt lat="46.47823" lon="8.26539">
        <ele>1367</ele>
        <time>2020-10-24T12:44:04.103Z</time>
      </trkpt>
      <trkpt lat="46.47822" lon="8.26537">
        <ele>1366</ele>
        <time>2020-10-24T12:44:05.103Z</time>
      </trkpt>
      <trkpt lat="46.47821" lon="8.26535">
        <ele>1367</ele>
        <time>2020-10-24T12:44:06.103Z</time>
      </trkpt>
      <trkpt lat="46.47819" lon="8.26533">
        <ele>1367</ele>
        <time>2020-10-24T12:44:07.103Z</time>
      </trkpt>
      <trkpt lat="46.47818" lon="8.26531">
        <ele>1367</ele>
        <time>2020-10-24T12:44:08.102Z</time>
      </trkpt>
      <trkpt lat="46.47816" lon="8.26529">
        <ele>1367</ele>
        <time>2020-10-24T12:44:09.102Z</time>
      </trkpt>
      <trkpt lat="46.47815" lon="8.26529">
        <ele>1368</ele>
        <time>2020-10-24T12:44:10.103Z</time>
      </trkpt>
      <trkpt lat="46.47815" lon="8.26528">
        <ele>1368</ele>
        <time>2020-10-24T12:44:11.102Z</time>
      </trkpt>
      <trkpt lat="46.47815" lon="8.26527">
        <ele>1368</ele>
        <time>2020-10-24T12:44:12.103Z</time>
      </trkpt>
      <trkpt lat="46.47815" lon="8.26527">
        <ele>1369</ele>
        <time>2020-10-24T12:44:13.103Z</time>
      </trkpt>
      <trkpt lat="46.47813" lon="8.26526">
        <ele>1370</ele>
        <time>2020-10-24T12:44:14.102Z</time>
      </trkpt>
      <trkpt lat="46.47812" lon="8.26525">
        <ele>1370</ele>
        <time>2020-10-24T12:44:15.103Z</time>
      </trkpt>
      <trkpt lat="46.47811" lon="8.26525">
        <ele>1371</ele>
        <time>2020-10-24T12:44:16.103Z</time>
      </trkpt>
      <trkpt lat="46.47812" lon="8.26526">
        <ele>1371</ele>
        <time>2020-10-24T12:44:17.102Z</time>
      </trkpt>
      <trkpt lat="46.47812" lon="8.26526">
        <ele>1372</ele>
        <time>2020-10-24T12:44:18.102Z</time>
      </trkpt>
      <trkpt lat="46.47813" lon="8.26527">
        <ele>1372</ele>
        <time>2020-10-24T12:44:19.103Z</time>
      </trkpt>
      <trkpt lat="46.47813" lon="8.26527">
        <ele>1373</ele>
        <time>2020-10-24T12:44:20.103Z</time>
      </trkpt>
      <trkpt lat="46.47816" lon="8.26529">
        <ele>1380</ele>
        <time>2020-10-24T12:44:21.104Z</time>
      </trkpt>
      <trkpt lat="46.47818" lon="8.2653">
        <ele>1380</ele>
        <time>2020-10-24T12:44:22.103Z</time>
      </trkpt>
      <trkpt lat="46.47822" lon="8.26533">
        <ele>1384</ele>
        <time>2020-10-24T12:44:23.105Z</time>
      </trkpt>
      <trkpt lat="46.47824" lon="8.26533">
        <ele>1385</ele>
        <time>2020-10-24T12:44:24.104Z</time>
      </trkpt>
      <trkpt lat="46.47826" lon="8.26533">
        <ele>1385</ele>
        <time>2020-10-24T12:44:25.104Z</time>
      </trkpt>
      <trkpt lat="46.47827" lon="8.26533">
        <ele>1385</ele>
        <time>2020-10-24T12:44:26.105Z</time>
      </trkpt>
      <trkpt lat="46.47828" lon="8.26532">
        <ele>1386</ele>
        <time>2020-10-24T12:44:27.104Z</time>
      </trkpt>
      <trkpt lat="46.47827" lon="8.26531">
        <ele>1386</ele>
        <time>2020-10-24T12:44:28.105Z</time>
      </trkpt>
      <trkpt lat="46.47826" lon="8.26531">
        <ele>1387</ele>
        <time>2020-10-24T12:44:29.104Z</time>
      </trkpt>
      <trkpt lat="46.47825" lon="8.26531">
        <ele>1388</ele>
        <time>2020-10-24T12:44:30.105Z</time>
      </trkpt>
      <trkpt lat="46.47824" lon="8.2653">
        <ele>1389</ele>
        <time>2020-10-24T12:44:31.104Z</time>
      </trkpt>
      <trkpt lat="46.47823" lon="8.2653">
        <ele>1389</ele>
        <time>2020-10-24T12:44:32.105Z</time>
      </trkpt>
      <trkpt lat="46.47823" lon="8.26529">
        <ele>1390</ele>
        <time>2020-10-24T12:44:33.104Z</time>
      </trkpt>
      <trkpt lat="46.47821" lon="8.26528">
        <ele>1390</ele>
        <time>2020-10-24T12:44:34.104Z</time>
      </trkpt>
      <trkpt lat="46.47821" lon="8.26527">
        <ele>1390</ele>
        <time>2020-10-24T12:44:35.104Z</time>
      </trkpt>
      <trkpt lat="46.4782" lon="8.26526">
        <ele>1389</ele>
        <time>2020-10-24T12:44:36.105Z</time>
      </trkpt>
      <trkpt lat="46.4782" lon="8.26525">
        <ele>1389</ele>
        <time>2020-10-24T12:44:37.104Z</time>
      </trkpt>
      <trkpt lat="46.47819" lon="8.26524">
        <ele>1389</ele>
        <time>2020-10-24T12:44:38.105Z</time>
      </trkpt>
      <trkpt lat="46.47819" lon="8.26523">
        <ele>1389</ele>
        <time>2020-10-24T12:44:39.105Z</time>
      </trkpt>
      <trkpt lat="46.47819" lon="8.26522">
        <ele>1389</ele>
        <time>2020-10-24T12:44:40.104Z</time>
      </trkpt>
      <trkpt lat="46.47818" lon="8.26521">
        <ele>1388</ele>
        <time>2020-10-24T12:44:41.105Z</time>
      </trkpt>
      <trkpt lat="46.47818" lon="8.26519">
        <ele>1388</ele>
        <time>2020-10-24T12:44:42.104Z</time>
      </trkpt>
      <trkpt lat="46.47817" lon="8.26518">
        <ele>1388</ele>
        <time>2020-10-24T12:44:43.104Z</time>
      </trkpt>
      <trkpt lat="46.47815" lon="8.26517">
        <ele>1388</ele>
        <time>2020-10-24T12:44:44.105Z</time>
      </trkpt>
      <trkpt lat="46.47814" lon="8.26515">
        <ele>1387</ele>
        <time>2020-10-24T12:44:45.105Z</time>
      </trkpt>
      <trkpt lat="46.47814" lon="8.26513">
        <ele>1387</ele>
        <time>2020-10-24T12:44:46.105Z</time>
      </trkpt>
      <trkpt lat="46.47815" lon="8.26511">
        <ele>1387</ele>
        <time>2020-10-24T12:44:47.104Z</time>
      </trkpt>
      <trkpt lat="46.47815" lon="8.26509">
        <ele>1386</ele>
        <time>2020-10-24T12:44:48.104Z</time>
      </trkpt>
      <trkpt lat="46.47815" lon="8.26508">
        <ele>1386</ele>
        <time>2020-10-24T12:44:49.105Z</time>
      </trkpt>
      <trkpt lat="46.47814" lon="8.26507">
        <ele>1386</ele>
        <time>2020-10-24T12:44:50.105Z</time>
      </trkpt>
      <trkpt lat="46.47813" lon="8.26506">
        <ele>1385</ele>
        <time>2020-10-24T12:44:51.105Z</time>
      </trkpt>
      <trkpt lat="46.47812" lon="8.26505">
        <ele>1385</ele>
        <time>2020-10-24T12:44:52.104Z</time>
      </trkpt>
      <trkpt lat="46.47811" lon="8.26503">
        <ele>1384</ele>
        <time>2020-10-24T12:44:53.105Z</time>
      </trkpt>
      <trkpt lat="46.4781" lon="8.26502">
        <ele>1383</ele>
        <time>2020-10-24T12:44:54.104Z</time>
      </trkpt>
      <trkpt lat="46.47809" lon="8.26501">
        <ele>1382</ele>
        <time>2020-10-24T12:44:55.105Z</time>
      </trkpt>
      <trkpt lat="46.47808" lon="8.26501">
        <ele>1382</ele>
        <time>2020-10-24T12:44:56.104Z</time>
      </trkpt>
      <trkpt lat="46.47807" lon="8.265">
        <ele>1382</ele>
        <time>2020-10-24T12:44:57.105Z</time>
      </trkpt>
      <trkpt lat="46.47806" lon="8.26499">
        <ele>1382</ele>
        <time>2020-10-24T12:44:58.105Z</time>
      </trkpt>
      <trkpt lat="46.47805" lon="8.26498">
        <ele>1381</ele>
        <time>2020-10-24T12:44:59.104Z</time>
      </trkpt>
      <trkpt lat="46.47804" lon="8.26497">
        <ele>1381</ele>
        <time>2020-10-24T12:45:00.104Z</time>
      </trkpt>
      <trkpt lat="46.47803" lon="8.26496">
        <ele>1381</ele>
        <time>2020-10-24T12:45:01.105Z</time>
      </trkpt>
      <trkpt lat="46.47801" lon="8.26495">
        <ele>1381</ele>
        <time>2020-10-24T12:45:02.105Z</time>
      </trkpt>
      <trkpt lat="46.478" lon="8.26493">
        <ele>1380</ele>
        <time>2020-10-24T12:45:03.105Z</time>
      </trkpt>
      <trkpt lat="46.47799" lon="8.26492">
        <ele>1380</ele>
        <time>2020-10-24T12:45:04.105Z</time>
      </trkpt>
      <trkpt lat="46.47799" lon="8.26491">
        <ele>1380</ele>
        <time>2020-10-24T12:45:05.105Z</time>
      </trkpt>
      <trkpt lat="46.47798" lon="8.26489">
        <ele>1379</ele>
        <time>2020-10-24T12:45:06.105Z</time>
      </trkpt>
      <trkpt lat="46.47797" lon="8.26488">
        <ele>1379</ele>
        <time>2020-10-24T12:45:07.104Z</time>
      </trkpt>
      <trkpt lat="46.47796" lon="8.26486">
        <ele>1379</ele>
        <time>2020-10-24T12:45:08.104Z</time>
      </trkpt>
      <trkpt lat="46.47796" lon="8.26485">
        <ele>1379</ele>
        <time>2020-10-24T12:45:09.104Z</time>
      </trkpt>
      <trkpt lat="46.47796" lon="8.26483">
        <ele>1380</ele>
        <time>2020-10-24T12:45:10.104Z</time>
      </trkpt>
      <trkpt lat="46.47796" lon="8.26482">
        <ele>1380</ele>
        <time>2020-10-24T12:45:11.105Z</time>
      </trkpt>
      <trkpt lat="46.47795" lon="8.26481">
        <ele>1380</ele>
        <time>2020-10-24T12:45:12.105Z</time>
      </trkpt>
      <trkpt lat="46.47794" lon="8.26479">
        <ele>1380</ele>
        <time>2020-10-24T12:45:13.104Z</time>
      </trkpt>
      <trkpt lat="46.47793" lon="8.26478">
        <ele>1380</ele>
        <time>2020-10-24T12:45:14.104Z</time>
      </trkpt>
      <trkpt lat="46.47793" lon="8.26478">
        <ele>1380</ele>
        <time>2020-10-24T12:45:15.104Z</time>
      </trkpt>
      <trkpt lat="46.47792" lon="8.26477">
        <ele>1379</ele>
        <time>2020-10-24T12:45:16.104Z</time>
      </trkpt>
      <trkpt lat="46.47792" lon="8.26476">
        <ele>1379</ele>
        <time>2020-10-24T12:45:17.104Z</time>
      </trkpt>
      <trkpt lat="46.47791" lon="8.26475">
        <ele>1379</ele>
        <time>2020-10-24T12:45:18.104Z</time>
      </trkpt>
      <trkpt lat="46.4779" lon="8.26473">
        <ele>1379</ele>
        <time>2020-10-24T12:45:19.104Z</time>
      </trkpt>
      <trkpt lat="46.47789" lon="8.26471">
        <ele>1379</ele>
        <time>2020-10-24T12:45:20.105Z</time>
      </trkpt>
      <trkpt lat="46.47788" lon="8.2647">
        <ele>1378</ele>
        <time>2020-10-24T12:45:21.105Z</time>
      </trkpt>
      <trkpt lat="46.47787" lon="8.26469">
        <ele>1378</ele>
        <time>2020-10-24T12:45:22.105Z</time>
      </trkpt>
      <trkpt lat="46.47786" lon="8.26468">
        <ele>1377</ele>
        <time>2020-10-24T12:45:23.104Z</time>
      </trkpt>
      <trkpt lat="46.47785" lon="8.26466">
        <ele>1376</ele>
        <time>2020-10-24T12:45:24.104Z</time>
      </trkpt>
      <trkpt lat="46.47784" lon="8.26465">
        <ele>1375</ele>
        <time>2020-10-24T12:45:25.104Z</time>
      </trkpt>
      <trkpt lat="46.47783" lon="8.26464">
        <ele>1374</ele>
        <time>2020-10-24T12:45:26.105Z</time>
      </trkpt>
      <trkpt lat="46.47782" lon="8.26463">
        <ele>1374</ele>
        <time>2020-10-24T12:45:27.104Z</time>
      </trkpt>
      <trkpt lat="46.47781" lon="8.26462">
        <ele>1373</ele>
        <time>2020-10-24T12:45:28.104Z</time>
      </trkpt>
      <trkpt lat="46.4778" lon="8.26461">
        <ele>1372</ele>
        <time>2020-10-24T12:45:29.105Z</time>
      </trkpt>
      <trkpt lat="46.4778" lon="8.2646">
        <ele>1372</ele>
        <time>2020-10-24T12:45:30.104Z</time>
      </trkpt>
      <trkpt lat="46.47779" lon="8.26459">
        <ele>1371</ele>
        <time>2020-10-24T12:45:31.104Z</time>
      </trkpt>
      <trkpt lat="46.47778" lon="8.26459">
        <ele>1371</ele>
        <time>2020-10-24T12:45:32.104Z</time>
      </trkpt>
      <trkpt lat="46.47778" lon="8.26458">
        <ele>1370</ele>
        <time>2020-10-24T12:45:33.104Z</time>
      </trkpt>
      <trkpt lat="46.47777" lon="8.26457">
        <ele>1370</ele>
        <time>2020-10-24T12:45:34.104Z</time>
      </trkpt>
      <trkpt lat="46.47777" lon="8.26456">
        <ele>1369</ele>
        <time>2020-10-24T12:45:35.104Z</time>
      </trkpt>
      <trkpt lat="46.47777" lon="8.26455">
        <ele>1369</ele>
        <time>2020-10-24T12:45:36.105Z</time>
      </trkpt>
      <trkpt lat="46.47776" lon="8.26454">
        <ele>1368</ele>
        <time>2020-10-24T12:45:37.104Z</time>
      </trkpt>
      <trkpt lat="46.47775" lon="8.26453">
        <ele>1368</ele>
        <time>2020-10-24T12:45:38.104Z</time>
      </trkpt>
      <trkpt lat="46.47775" lon="8.26452">
        <ele>1368</ele>
        <time>2020-10-24T12:45:39.104Z</time>
      </trkpt>
      <trkpt lat="46.47774" lon="8.26451">
        <ele>1368</ele>
        <time>2020-10-24T12:45:40.104Z</time>
      </trkpt>
      <trkpt lat="46.47773" lon="8.2645">
        <ele>1367</ele>
        <time>2020-10-24T12:45:41.104Z</time>
      </trkpt>
      <trkpt lat="46.47773" lon="8.26449">
        <ele>1367</ele>
        <time>2020-10-24T12:45:42.105Z</time>
      </trkpt>
      <trkpt lat="46.47772" lon="8.26448">
        <ele>1365</ele>
        <time>2020-10-24T12:45:43.105Z</time>
      </trkpt>
      <trkpt lat="46.47772" lon="8.26447">
        <ele>1364</ele>
        <time>2020-10-24T12:45:44.105Z</time>
      </trkpt>
      <trkpt lat="46.47772" lon="8.26446">
        <ele>1364</ele>
        <time>2020-10-24T12:45:45.105Z</time>
      </trkpt>
      <trkpt lat="46.47771" lon="8.26445">
        <ele>1364</ele>
        <time>2020-10-24T12:45:46.105Z</time>
      </trkpt>
      <trkpt lat="46.4777" lon="8.26444">
        <ele>1363</ele>
        <time>2020-10-24T12:45:47.105Z</time>
      </trkpt>
      <trkpt lat="46.47769" lon="8.26443">
        <ele>1362</ele>
        <time>2020-10-24T12:45:48.104Z</time>
      </trkpt>
      <trkpt lat="46.47768" lon="8.26441">
        <ele>1362</ele>
        <time>2020-10-24T12:45:49.105Z</time>
      </trkpt>
      <trkpt lat="46.47767" lon="8.2644">
        <ele>1361</ele>
        <time>2020-10-24T12:45:50.105Z</time>
      </trkpt>
      <trkpt lat="46.47766" lon="8.2644">
        <ele>1360</ele>
        <time>2020-10-24T12:45:51.104Z</time>
      </trkpt>
      <trkpt lat="46.47765" lon="8.26439">
        <ele>1359</ele>
        <time>2020-10-24T12:45:52.104Z</time>
      </trkpt>
      <trkpt lat="46.47764" lon="8.26438">
        <ele>1359</ele>
        <time>2020-10-24T12:45:53.105Z</time>
      </trkpt>
      <trkpt lat="46.47763" lon="8.26438">
        <ele>1359</ele>
        <time>2020-10-24T12:45:54.104Z</time>
      </trkpt>
      <trkpt lat="46.47761" lon="8.26437">
        <ele>1359</ele>
        <time>2020-10-24T12:45:55.105Z</time>
      </trkpt>
      <trkpt lat="46.4776" lon="8.26437">
        <ele>1359</ele>
        <time>2020-10-24T12:45:56.105Z</time>
      </trkpt>
      <trkpt lat="46.47759" lon="8.26437">
        <ele>1359</ele>
        <time>2020-10-24T12:45:57.105Z</time>
      </trkpt>
      <trkpt lat="46.47758" lon="8.26437">
        <ele>1359</ele>
        <time>2020-10-24T12:45:58.105Z</time>
      </trkpt>
      <trkpt lat="46.47755" lon="8.26435">
        <ele>1358</ele>
        <time>2020-10-24T12:45:59.105Z</time>
      </trkpt>
      <trkpt lat="46.47753" lon="8.26435">
        <ele>1358</ele>
        <time>2020-10-24T12:46:00.104Z</time>
      </trkpt>
      <trkpt lat="46.47752" lon="8.26435">
        <ele>1357</ele>
        <time>2020-10-24T12:46:01.104Z</time>
      </trkpt>
      <trkpt lat="46.47751" lon="8.26434">
        <ele>1357</ele>
        <time>2020-10-24T12:46:02.105Z</time>
      </trkpt>
      <trkpt lat="46.47751" lon="8.26435">
        <ele>1357</ele>
        <time>2020-10-24T12:46:03.104Z</time>
      </trkpt>
      <trkpt lat="46.4775" lon="8.26436">
        <ele>1357</ele>
        <time>2020-10-24T12:46:04.104Z</time>
      </trkpt>
      <trkpt lat="46.4775" lon="8.26437">
        <ele>1357</ele>
        <time>2020-10-24T12:46:05.105Z</time>
      </trkpt>
      <trkpt lat="46.47749" lon="8.26438">
        <ele>1358</ele>
        <time>2020-10-24T12:46:06.104Z</time>
      </trkpt>
      <trkpt lat="46.47747" lon="8.26438">
        <ele>1358</ele>
        <time>2020-10-24T12:46:07.105Z</time>
      </trkpt>
      <trkpt lat="46.47746" lon="8.26439">
        <ele>1358</ele>
        <time>2020-10-24T12:46:08.105Z</time>
      </trkpt>
      <trkpt lat="46.47745" lon="8.26439">
        <ele>1358</ele>
        <time>2020-10-24T12:46:09.105Z</time>
      </trkpt>
      <trkpt lat="46.47744" lon="8.26439">
        <ele>1358</ele>
        <time>2020-10-24T12:46:10.105Z</time>
      </trkpt>
      <trkpt lat="46.47742" lon="8.26439">
        <ele>1358</ele>
        <time>2020-10-24T12:46:11.105Z</time>
      </trkpt>
      <trkpt lat="46.47742" lon="8.26439">
        <ele>1359</ele>
        <time>2020-10-24T12:46:12.105Z</time>
      </trkpt>
      <trkpt lat="46.47741" lon="8.26438">
        <ele>1358</ele>
        <time>2020-10-24T12:46:13.104Z</time>
      </trkpt>
      <trkpt lat="46.4774" lon="8.26437">
        <ele>1358</ele>
        <time>2020-10-24T12:46:14.105Z</time>
      </trkpt>
      <trkpt lat="46.47739" lon="8.26436">
        <ele>1357</ele>
        <time>2020-10-24T12:46:15.105Z</time>
      </trkpt>
      <trkpt lat="46.47739" lon="8.26435">
        <ele>1357</ele>
        <time>2020-10-24T12:46:16.105Z</time>
      </trkpt>
      <trkpt lat="46.47738" lon="8.26433">
        <ele>1356</ele>
        <time>2020-10-24T12:46:17.105Z</time>
      </trkpt>
      <trkpt lat="46.47738" lon="8.26432">
        <ele>1356</ele>
        <time>2020-10-24T12:46:18.105Z</time>
      </trkpt>
      <trkpt lat="46.47737" lon="8.2643">
        <ele>1356</ele>
        <time>2020-10-24T12:46:19.105Z</time>
      </trkpt>
      <trkpt lat="46.47737" lon="8.26429">
        <ele>1356</ele>
        <time>2020-10-24T12:46:20.105Z</time>
      </trkpt>
      <trkpt lat="46.47736" lon="8.26427">
        <ele>1356</ele>
        <time>2020-10-24T12:46:21.105Z</time>
      </trkpt>
      <trkpt lat="46.47735" lon="8.26425">
        <ele>1355</ele>
        <time>2020-10-24T12:46:22.105Z</time>
      </trkpt>
      <trkpt lat="46.47735" lon="8.26424">
        <ele>1355</ele>
        <time>2020-10-24T12:46:23.105Z</time>
      </trkpt>
      <trkpt lat="46.47734" lon="8.26423">
        <ele>1355</ele>
        <time>2020-10-24T12:46:24.105Z</time>
      </trkpt>
      <trkpt lat="46.47734" lon="8.26422">
        <ele>1355</ele>
        <time>2020-10-24T12:46:25.105Z</time>
      </trkpt>
      <trkpt lat="46.47733" lon="8.26421">
        <ele>1355</ele>
        <time>2020-10-24T12:46:26.104Z</time>
      </trkpt>
      <trkpt lat="46.47733" lon="8.26419">
        <ele>1355</ele>
        <time>2020-10-24T12:46:27.105Z</time>
      </trkpt>
      <trkpt lat="46.47733" lon="8.26418">
        <ele>1355</ele>
        <time>2020-10-24T12:46:28.104Z</time>
      </trkpt>
      <trkpt lat="46.47733" lon="8.26416">
        <ele>1356</ele>
        <time>2020-10-24T12:46:29.104Z</time>
      </trkpt>
      <trkpt lat="46.47734" lon="8.26415">
        <ele>1355</ele>
        <time>2020-10-24T12:46:30.105Z</time>
      </trkpt>
      <trkpt lat="46.47734" lon="8.26414">
        <ele>1355</ele>
        <time>2020-10-24T12:46:31.105Z</time>
      </trkpt>
      <trkpt lat="46.47734" lon="8.26413">
        <ele>1355</ele>
        <time>2020-10-24T12:46:32.104Z</time>
      </trkpt>
      <trkpt lat="46.47734" lon="8.26411">
        <ele>1355</ele>
        <time>2020-10-24T12:46:33.105Z</time>
      </trkpt>
      <trkpt lat="46.47734" lon="8.2641">
        <ele>1355</ele>
        <time>2020-10-24T12:46:34.104Z</time>
      </trkpt>
      <trkpt lat="46.47734" lon="8.26408">
        <ele>1354</ele>
        <time>2020-10-24T12:46:35.105Z</time>
      </trkpt>
      <trkpt lat="46.47734" lon="8.26407">
        <ele>1354</ele>
        <time>2020-10-24T12:46:36.105Z</time>
      </trkpt>
      <trkpt lat="46.47735" lon="8.26405">
        <ele>1355</ele>
        <time>2020-10-24T12:46:37.105Z</time>
      </trkpt>
      <trkpt lat="46.47735" lon="8.26403">
        <ele>1355</ele>
        <time>2020-10-24T12:46:38.104Z</time>
      </trkpt>
      <trkpt lat="46.47735" lon="8.26403">
        <ele>1355</ele>
        <time>2020-10-24T12:46:39.105Z</time>
      </trkpt>
      <trkpt lat="46.47735" lon="8.26401">
        <ele>1355</ele>
        <time>2020-10-24T12:46:40.105Z</time>
      </trkpt>
      <trkpt lat="46.47735" lon="8.264">
        <ele>1355</ele>
        <time>2020-10-24T12:46:41.104Z</time>
      </trkpt>
      <trkpt lat="46.47736" lon="8.26399">
        <ele>1355</ele>
        <time>2020-10-24T12:46:42.105Z</time>
      </trkpt>
      <trkpt lat="46.47736" lon="8.26397">
        <ele>1355</ele>
        <time>2020-10-24T12:46:43.105Z</time>
      </trkpt>
      <trkpt lat="46.47736" lon="8.26396">
        <ele>1355</ele>
        <time>2020-10-24T12:46:44.105Z</time>
      </trkpt>
      <trkpt lat="46.47735" lon="8.26394">
        <ele>1355</ele>
        <time>2020-10-24T12:46:45.104Z</time>
      </trkpt>
      <trkpt lat="46.47735" lon="8.26393">
        <ele>1355</ele>
        <time>2020-10-24T12:46:46.105Z</time>
      </trkpt>
      <trkpt lat="46.47735" lon="8.26391">
        <ele>1354</ele>
        <time>2020-10-24T12:46:47.105Z</time>
      </trkpt>
      <trkpt lat="46.47734" lon="8.2639">
        <ele>1354</ele>
        <time>2020-10-24T12:46:48.105Z</time>
      </trkpt>
      <trkpt lat="46.47734" lon="8.26388">
        <ele>1353</ele>
        <time>2020-10-24T12:46:49.105Z</time>
      </trkpt>
      <trkpt lat="46.47733" lon="8.26387">
        <ele>1353</ele>
        <time>2020-10-24T12:46:50.105Z</time>
      </trkpt>
      <trkpt lat="46.47732" lon="8.26387">
        <ele>1352</ele>
        <time>2020-10-24T12:46:51.105Z</time>
      </trkpt>
      <trkpt lat="46.47732" lon="8.26387">
        <ele>1351</ele>
        <time>2020-10-24T12:46:52.104Z</time>
      </trkpt>
      <trkpt lat="46.47732" lon="8.26386">
        <ele>1350</ele>
        <time>2020-10-24T12:46:53.104Z</time>
      </trkpt>
      <trkpt lat="46.47733" lon="8.26386">
        <ele>1350</ele>
        <time>2020-10-24T12:46:54.104Z</time>
      </trkpt>
      <trkpt lat="46.47734" lon="8.26385">
        <ele>1349</ele>
        <time>2020-10-24T12:46:55.104Z</time>
      </trkpt>
      <trkpt lat="46.47734" lon="8.26384">
        <ele>1348</ele>
        <time>2020-10-24T12:46:56.105Z</time>
      </trkpt>
      <trkpt lat="46.47734" lon="8.26383">
        <ele>1348</ele>
        <time>2020-10-24T12:46:57.105Z</time>
      </trkpt>
      <trkpt lat="46.47733" lon="8.26383">
        <ele>1347</ele>
        <time>2020-10-24T12:46:58.105Z</time>
      </trkpt>
      <trkpt lat="46.47734" lon="8.26383">
        <ele>1346</ele>
        <time>2020-10-24T12:46:59.105Z</time>
      </trkpt>
      <trkpt lat="46.47734" lon="8.26383">
        <ele>1346</ele>
        <time>2020-10-24T12:47:00.104Z</time>
      </trkpt>
      <trkpt lat="46.47736" lon="8.26381">
        <ele>1348</ele>
        <time>2020-10-24T12:47:01.105Z</time>
      </trkpt>
      <trkpt lat="46.47736" lon="8.26381">
        <ele>1350</ele>
        <time>2020-10-24T12:47:02.105Z</time>
      </trkpt>
      <trkpt lat="46.47735" lon="8.26381">
        <ele>1350</ele>
        <time>2020-10-24T12:47:03.106Z</time>
      </trkpt>
      <trkpt lat="46.47735" lon="8.26381">
        <ele>1350</ele>
        <time>2020-10-24T12:47:04.105Z</time>
      </trkpt>
      <trkpt lat="46.47735" lon="8.26381">
        <ele>1350</ele>
        <time>2020-10-24T12:47:05.105Z</time>
      </trkpt>
      <trkpt lat="46.47737" lon="8.26383">
        <ele>1350</ele>
        <time>2020-10-24T12:47:06.107Z</time>
      </trkpt>
      <trkpt lat="46.47737" lon="8.26382">
        <ele>1350</ele>
        <time>2020-10-24T12:47:07.107Z</time>
      </trkpt>
      <trkpt lat="46.47736" lon="8.26382">
        <ele>1350</ele>
        <time>2020-10-24T12:47:08.106Z</time>
      </trkpt>
      <trkpt lat="46.47736" lon="8.26382">
        <ele>1354</ele>
        <time>2020-10-24T12:47:09.108Z</time>
      </trkpt>
      <trkpt lat="46.47735" lon="8.26381">
        <ele>1354</ele>
        <time>2020-10-24T12:47:10.108Z</time>
      </trkpt>
      <trkpt lat="46.47735" lon="8.26381">
        <ele>1355</ele>
        <time>2020-10-24T12:47:11.107Z</time>
      </trkpt>
      <trkpt lat="46.47734" lon="8.2638">
        <ele>1355</ele>
        <time>2020-10-24T12:47:12.108Z</time>
      </trkpt>
      <trkpt lat="46.47733" lon="8.2638">
        <ele>1356</ele>
        <time>2020-10-24T12:47:13.108Z</time>
      </trkpt>
      <trkpt lat="46.47732" lon="8.26379">
        <ele>1357</ele>
        <time>2020-10-24T12:47:14.108Z</time>
      </trkpt>
      <trkpt lat="46.47732" lon="8.26378">
        <ele>1357</ele>
        <time>2020-10-24T12:47:15.107Z</time>
      </trkpt>
      <trkpt lat="46.47731" lon="8.26378">
        <ele>1358</ele>
        <time>2020-10-24T12:47:16.108Z</time>
      </trkpt>
      <trkpt lat="46.4773" lon="8.26378">
        <ele>1358</ele>
        <time>2020-10-24T12:47:17.108Z</time>
      </trkpt>
      <trkpt lat="46.47729" lon="8.26377">
        <ele>1359</ele>
        <time>2020-10-24T12:47:18.108Z</time>
      </trkpt>
      <trkpt lat="46.47728" lon="8.26376">
        <ele>1359</ele>
        <time>2020-10-24T12:47:19.108Z</time>
      </trkpt>
      <trkpt lat="46.47726" lon="8.26376">
        <ele>1359</ele>
        <time>2020-10-24T12:47:20.107Z</time>
      </trkpt>
      <trkpt lat="46.47725" lon="8.26375">
        <ele>1359</ele>
        <time>2020-10-24T12:47:21.108Z</time>
      </trkpt>
      <trkpt lat="46.47724" lon="8.26374">
        <ele>1360</ele>
        <time>2020-10-24T12:47:22.108Z</time>
      </trkpt>
      <trkpt lat="46.47723" lon="8.26374">
        <ele>1360</ele>
        <time>2020-10-24T12:47:23.108Z</time>
      </trkpt>
      <trkpt lat="46.47722" lon="8.26374">
        <ele>1360</ele>
        <time>2020-10-24T12:47:24.108Z</time>
      </trkpt>
      <trkpt lat="46.47721" lon="8.26374">
        <ele>1360</ele>
        <time>2020-10-24T12:47:25.107Z</time>
      </trkpt>
      <trkpt lat="46.4772" lon="8.26373">
        <ele>1361</ele>
        <time>2020-10-24T12:47:26.108Z</time>
      </trkpt>
      <trkpt lat="46.4772" lon="8.26373">
        <ele>1361</ele>
        <time>2020-10-24T12:47:27.108Z</time>
      </trkpt>
      <trkpt lat="46.47719" lon="8.26372">
        <ele>1361</ele>
        <time>2020-10-24T12:47:28.108Z</time>
      </trkpt>
      <trkpt lat="46.47718" lon="8.26371">
        <ele>1361</ele>
        <time>2020-10-24T12:47:29.108Z</time>
      </trkpt>
      <trkpt lat="46.47717" lon="8.2637">
        <ele>1361</ele>
        <time>2020-10-24T12:47:30.108Z</time>
      </trkpt>
      <trkpt lat="46.47716" lon="8.2637">
        <ele>1362</ele>
        <time>2020-10-24T12:47:31.108Z</time>
      </trkpt>
      <trkpt lat="46.47715" lon="8.26371">
        <ele>1362</ele>
        <time>2020-10-24T12:47:32.108Z</time>
      </trkpt>
      <trkpt lat="46.47714" lon="8.26371">
        <ele>1362</ele>
        <time>2020-10-24T12:47:33.108Z</time>
      </trkpt>
      <trkpt lat="46.47713" lon="8.2637">
        <ele>1363</ele>
        <time>2020-10-24T12:47:34.107Z</time>
      </trkpt>
      <trkpt lat="46.47712" lon="8.2637">
        <ele>1363</ele>
        <time>2020-10-24T12:47:35.108Z</time>
      </trkpt>
      <trkpt lat="46.47712" lon="8.26369">
        <ele>1363</ele>
        <time>2020-10-24T12:47:36.108Z</time>
      </trkpt>
      <trkpt lat="46.47712" lon="8.26369">
        <ele>1363</ele>
        <time>2020-10-24T12:47:37.108Z</time>
      </trkpt>
      <trkpt lat="46.47712" lon="8.26369">
        <ele>1364</ele>
        <time>2020-10-24T12:47:38.107Z</time>
      </trkpt>
      <trkpt lat="46.47712" lon="8.26368">
        <ele>1364</ele>
        <time>2020-10-24T12:47:39.108Z</time>
      </trkpt>
      <trkpt lat="46.47712" lon="8.26368">
        <ele>1364</ele>
        <time>2020-10-24T12:47:40.107Z</time>
      </trkpt>
      <trkpt lat="46.47712" lon="8.26367">
        <ele>1364</ele>
        <time>2020-10-24T12:47:41.107Z</time>
      </trkpt>
      <trkpt lat="46.47712" lon="8.26366">
        <ele>1365</ele>
        <time>2020-10-24T12:47:42.108Z</time>
      </trkpt>
      <trkpt lat="46.47713" lon="8.26365">
        <ele>1365</ele>
        <time>2020-10-24T12:47:43.108Z</time>
      </trkpt>
      <trkpt lat="46.47713" lon="8.26364">
        <ele>1365</ele>
        <time>2020-10-24T12:47:44.108Z</time>
      </trkpt>
      <trkpt lat="46.47713" lon="8.26362">
        <ele>1366</ele>
        <time>2020-10-24T12:47:45.108Z</time>
      </trkpt>
      <trkpt lat="46.47714" lon="8.26361">
        <ele>1366</ele>
        <time>2020-10-24T12:47:46.107Z</time>
      </trkpt>
      <trkpt lat="46.47714" lon="8.2636">
        <ele>1367</ele>
        <time>2020-10-24T12:47:47.107Z</time>
      </trkpt>
      <trkpt lat="46.47715" lon="8.26358">
        <ele>1367</ele>
        <time>2020-10-24T12:47:48.107Z</time>
      </trkpt>
      <trkpt lat="46.47715" lon="8.26357">
        <ele>1367</ele>
        <time>2020-10-24T12:47:49.108Z</time>
      </trkpt>
      <trkpt lat="46.47715" lon="8.26355">
        <ele>1367</ele>
        <time>2020-10-24T12:47:50.107Z</time>
      </trkpt>
      <trkpt lat="46.47715" lon="8.26354">
        <ele>1368</ele>
        <time>2020-10-24T12:47:51.107Z</time>
      </trkpt>
      <trkpt lat="46.47714" lon="8.26353">
        <ele>1368</ele>
        <time>2020-10-24T12:47:52.108Z</time>
      </trkpt>
      <trkpt lat="46.47714" lon="8.26351">
        <ele>1368</ele>
        <time>2020-10-24T12:47:53.108Z</time>
      </trkpt>
      <trkpt lat="46.47714" lon="8.2635">
        <ele>1368</ele>
        <time>2020-10-24T12:47:54.108Z</time>
      </trkpt>
      <trkpt lat="46.47714" lon="8.26348">
        <ele>1368</ele>
        <time>2020-10-24T12:47:55.108Z</time>
      </trkpt>
      <trkpt lat="46.47713" lon="8.26347">
        <ele>1368</ele>
        <time>2020-10-24T12:47:56.107Z</time>
      </trkpt>
      <trkpt lat="46.47713" lon="8.26345">
        <ele>1368</ele>
        <time>2020-10-24T12:47:57.108Z</time>
      </trkpt>
      <trkpt lat="46.47713" lon="8.26343">
        <ele>1367</ele>
        <time>2020-10-24T12:47:58.107Z</time>
      </trkpt>
      <trkpt lat="46.47713" lon="8.26342">
        <ele>1367</ele>
        <time>2020-10-24T12:47:59.107Z</time>
      </trkpt>
      <trkpt lat="46.47712" lon="8.2634">
        <ele>1366</ele>
        <time>2020-10-24T12:48:00.108Z</time>
      </trkpt>
      <trkpt lat="46.47712" lon="8.26339">
        <ele>1366</ele>
        <time>2020-10-24T12:48:01.108Z</time>
      </trkpt>
      <trkpt lat="46.47712" lon="8.26337">
        <ele>1365</ele>
        <time>2020-10-24T12:48:02.108Z</time>
      </trkpt>
      <trkpt lat="46.47712" lon="8.26336">
        <ele>1365</ele>
        <time>2020-10-24T12:48:03.108Z</time>
      </trkpt>
      <trkpt lat="46.47711" lon="8.26335">
        <ele>1364</ele>
        <time>2020-10-24T12:48:04.108Z</time>
      </trkpt>
      <trkpt lat="46.47711" lon="8.26333">
        <ele>1364</ele>
        <time>2020-10-24T12:48:05.108Z</time>
      </trkpt>
      <trkpt lat="46.4771" lon="8.26332">
        <ele>1363</ele>
        <time>2020-10-24T12:48:06.107Z</time>
      </trkpt>
      <trkpt lat="46.47711" lon="8.2633">
        <ele>1363</ele>
        <time>2020-10-24T12:48:07.108Z</time>
      </trkpt>
      <trkpt lat="46.4771" lon="8.26329">
        <ele>1362</ele>
        <time>2020-10-24T12:48:08.108Z</time>
      </trkpt>
      <trkpt lat="46.4771" lon="8.26327">
        <ele>1362</ele>
        <time>2020-10-24T12:48:09.107Z</time>
      </trkpt>
      <trkpt lat="46.4771" lon="8.26326">
        <ele>1362</ele>
        <time>2020-10-24T12:48:10.108Z</time>
      </trkpt>
      <trkpt lat="46.4771" lon="8.26324">
        <ele>1362</ele>
        <time>2020-10-24T12:48:11.108Z</time>
      </trkpt>
      <trkpt lat="46.4771" lon="8.26323">
        <ele>1363</ele>
        <time>2020-10-24T12:48:12.108Z</time>
      </trkpt>
      <trkpt lat="46.4771" lon="8.26322">
        <ele>1363</ele>
        <time>2020-10-24T12:48:13.107Z</time>
      </trkpt>
      <trkpt lat="46.4771" lon="8.26321">
        <ele>1363</ele>
        <time>2020-10-24T12:48:14.108Z</time>
      </trkpt>
      <trkpt lat="46.47709" lon="8.2632">
        <ele>1363</ele>
        <time>2020-10-24T12:48:15.107Z</time>
      </trkpt>
      <trkpt lat="46.47708" lon="8.26319">
        <ele>1363</ele>
        <time>2020-10-24T12:48:16.108Z</time>
      </trkpt>
      <trkpt lat="46.47707" lon="8.26319">
        <ele>1362</ele>
        <time>2020-10-24T12:48:17.108Z</time>
      </trkpt>
      <trkpt lat="46.47706" lon="8.26318">
        <ele>1362</ele>
        <time>2020-10-24T12:48:18.107Z</time>
      </trkpt>
      <trkpt lat="46.47705" lon="8.26318">
        <ele>1362</ele>
        <time>2020-10-24T12:48:19.108Z</time>
      </trkpt>
      <trkpt lat="46.47704" lon="8.26317">
        <ele>1361</ele>
        <time>2020-10-24T12:48:20.108Z</time>
      </trkpt>
      <trkpt lat="46.47704" lon="8.26316">
        <ele>1361</ele>
        <time>2020-10-24T12:48:21.108Z</time>
      </trkpt>
      <trkpt lat="46.47703" lon="8.26316">
        <ele>1361</ele>
        <time>2020-10-24T12:48:22.108Z</time>
      </trkpt>
      <trkpt lat="46.47702" lon="8.26316">
        <ele>1361</ele>
        <time>2020-10-24T12:48:23.107Z</time>
      </trkpt>
      <trkpt lat="46.47701" lon="8.26315">
        <ele>1360</ele>
        <time>2020-10-24T12:48:24.107Z</time>
      </trkpt>
      <trkpt lat="46.47701" lon="8.26313">
        <ele>1360</ele>
        <time>2020-10-24T12:48:25.108Z</time>
      </trkpt>
      <trkpt lat="46.477" lon="8.26312">
        <ele>1360</ele>
        <time>2020-10-24T12:48:26.107Z</time>
      </trkpt>
      <trkpt lat="46.47699" lon="8.26311">
        <ele>1359</ele>
        <time>2020-10-24T12:48:27.108Z</time>
      </trkpt>
      <trkpt lat="46.47697" lon="8.26311">
        <ele>1359</ele>
        <time>2020-10-24T12:48:28.108Z</time>
      </trkpt>
      <trkpt lat="46.47696" lon="8.26311">
        <ele>1358</ele>
        <time>2020-10-24T12:48:29.107Z</time>
      </trkpt>
      <trkpt lat="46.47695" lon="8.26311">
        <ele>1356</ele>
        <time>2020-10-24T12:48:30.107Z</time>
      </trkpt>
      <trkpt lat="46.47694" lon="8.26311">
        <ele>1356</ele>
        <time>2020-10-24T12:48:31.107Z</time>
      </trkpt>
      <trkpt lat="46.47693" lon="8.26311">
        <ele>1355</ele>
        <time>2020-10-24T12:48:32.107Z</time>
      </trkpt>
      <trkpt lat="46.47692" lon="8.2631">
        <ele>1354</ele>
        <time>2020-10-24T12:48:33.108Z</time>
      </trkpt>
      <trkpt lat="46.47692" lon="8.2631">
        <ele>1354</ele>
        <time>2020-10-24T12:48:34.107Z</time>
      </trkpt>
      <trkpt lat="46.47691" lon="8.26309">
        <ele>1353</ele>
        <time>2020-10-24T12:48:35.108Z</time>
      </trkpt>
      <trkpt lat="46.47691" lon="8.26309">
        <ele>1353</ele>
        <time>2020-10-24T12:48:36.108Z</time>
      </trkpt>
      <trkpt lat="46.4769" lon="8.26309">
        <ele>1353</ele>
        <time>2020-10-24T12:48:37.108Z</time>
      </trkpt>
      <trkpt lat="46.47689" lon="8.26308">
        <ele>1353</ele>
        <time>2020-10-24T12:48:38.107Z</time>
      </trkpt>
      <trkpt lat="46.47689" lon="8.26308">
        <ele>1353</ele>
        <time>2020-10-24T12:48:39.107Z</time>
      </trkpt>
      <trkpt lat="46.47688" lon="8.26307">
        <ele>1354</ele>
        <time>2020-10-24T12:48:40.108Z</time>
      </trkpt>
      <trkpt lat="46.47687" lon="8.26307">
        <ele>1354</ele>
        <time>2020-10-24T12:48:41.108Z</time>
      </trkpt>
      <trkpt lat="46.47687" lon="8.26307">
        <ele>1354</ele>
        <time>2020-10-24T12:48:42.108Z</time>
      </trkpt>
      <trkpt lat="46.47686" lon="8.26306">
        <ele>1354</ele>
        <time>2020-10-24T12:48:43.108Z</time>
      </trkpt>
      <trkpt lat="46.47686" lon="8.26306">
        <ele>1354</ele>
        <time>2020-10-24T12:48:44.108Z</time>
      </trkpt>
      <trkpt lat="46.47685" lon="8.26305">
        <ele>1354</ele>
        <time>2020-10-24T12:48:45.107Z</time>
      </trkpt>
      <trkpt lat="46.47685" lon="8.26305">
        <ele>1354</ele>
        <time>2020-10-24T12:48:46.107Z</time>
      </trkpt>
      <trkpt lat="46.47684" lon="8.26304">
        <ele>1354</ele>
        <time>2020-10-24T12:48:47.108Z</time>
      </trkpt>
      <trkpt lat="46.47683" lon="8.26303">
        <ele>1353</ele>
        <time>2020-10-24T12:48:48.108Z</time>
      </trkpt>
      <trkpt lat="46.47683" lon="8.26302">
        <ele>1353</ele>
        <time>2020-10-24T12:48:49.108Z</time>
      </trkpt>
      <trkpt lat="46.47682" lon="8.26301">
        <ele>1353</ele>
        <time>2020-10-24T12:48:50.107Z</time>
      </trkpt>
      <trkpt lat="46.47682" lon="8.263">
        <ele>1353</ele>
        <time>2020-10-24T12:48:51.107Z</time>
      </trkpt>
      <trkpt lat="46.47682" lon="8.263">
        <ele>1353</ele>
        <time>2020-10-24T12:48:52.108Z</time>
      </trkpt>
      <trkpt lat="46.47681" lon="8.26299">
        <ele>1353</ele>
        <time>2020-10-24T12:48:53.107Z</time>
      </trkpt>
      <trkpt lat="46.47681" lon="8.26299">
        <ele>1353</ele>
        <time>2020-10-24T12:48:54.108Z</time>
      </trkpt>
      <trkpt lat="46.4768" lon="8.26299">
        <ele>1353</ele>
        <time>2020-10-24T12:48:55.107Z</time>
      </trkpt>
      <trkpt lat="46.47679" lon="8.26298">
        <ele>1353</ele>
        <time>2020-10-24T12:48:56.107Z</time>
      </trkpt>
      <trkpt lat="46.47679" lon="8.26298">
        <ele>1353</ele>
        <time>2020-10-24T12:48:57.107Z</time>
      </trkpt>
      <trkpt lat="46.47678" lon="8.26297">
        <ele>1353</ele>
        <time>2020-10-24T12:48:58.108Z</time>
      </trkpt>
      <trkpt lat="46.47677" lon="8.26296">
        <ele>1354</ele>
        <time>2020-10-24T12:48:59.108Z</time>
      </trkpt>
      <trkpt lat="46.47676" lon="8.26295">
        <ele>1354</ele>
        <time>2020-10-24T12:49:00.108Z</time>
      </trkpt>
      <trkpt lat="46.47675" lon="8.26294">
        <ele>1355</ele>
        <time>2020-10-24T12:49:01.108Z</time>
      </trkpt>
      <trkpt lat="46.47674" lon="8.26294">
        <ele>1355</ele>
        <time>2020-10-24T12:49:02.107Z</time>
      </trkpt>
      <trkpt lat="46.47674" lon="8.26293">
        <ele>1355</ele>
        <time>2020-10-24T12:49:03.107Z</time>
      </trkpt>
      <trkpt lat="46.47673" lon="8.26292">
        <ele>1355</ele>
        <time>2020-10-24T12:49:04.108Z</time>
      </trkpt>
      <trkpt lat="46.47672" lon="8.26292">
        <ele>1356</ele>
        <time>2020-10-24T12:49:05.107Z</time>
      </trkpt>
      <trkpt lat="46.47672" lon="8.26291">
        <ele>1356</ele>
        <time>2020-10-24T12:49:06.108Z</time>
      </trkpt>
      <trkpt lat="46.47671" lon="8.26291">
        <ele>1356</ele>
        <time>2020-10-24T12:49:07.108Z</time>
      </trkpt>
      <trkpt lat="46.4767" lon="8.2629">
        <ele>1356</ele>
        <time>2020-10-24T12:49:08.108Z</time>
      </trkpt>
      <trkpt lat="46.4767" lon="8.26292">
        <ele>1356</ele>
        <time>2020-10-24T12:49:09.108Z</time>
      </trkpt>
      <trkpt lat="46.47668" lon="8.26291">
        <ele>1356</ele>
        <time>2020-10-24T12:49:10.107Z</time>
      </trkpt>
      <trkpt lat="46.47666" lon="8.26288">
        <ele>1355</ele>
        <time>2020-10-24T12:49:11.108Z</time>
      </trkpt>
      <trkpt lat="46.47664" lon="8.26286">
        <ele>1355</ele>
        <time>2020-10-24T12:49:12.108Z</time>
      </trkpt>
      <trkpt lat="46.4766" lon="8.26284">
        <ele>1354</ele>
        <time>2020-10-24T12:49:13.108Z</time>
      </trkpt>
      <trkpt lat="46.4766" lon="8.26285">
        <ele>1354</ele>
        <time>2020-10-24T12:49:14.107Z</time>
      </trkpt>
      <trkpt lat="46.4766" lon="8.26285">
        <ele>1353</ele>
        <time>2020-10-24T12:49:15.108Z</time>
      </trkpt>
      <trkpt lat="46.47659" lon="8.26284">
        <ele>1353</ele>
        <time>2020-10-24T12:49:16.108Z</time>
      </trkpt>
      <trkpt lat="46.47658" lon="8.26282">
        <ele>1353</ele>
        <time>2020-10-24T12:49:17.108Z</time>
      </trkpt>
      <trkpt lat="46.47657" lon="8.26283">
        <ele>1353</ele>
        <time>2020-10-24T12:49:18.107Z</time>
      </trkpt>
      <trkpt lat="46.47657" lon="8.26282">
        <ele>1353</ele>
        <time>2020-10-24T12:49:19.108Z</time>
      </trkpt>
      <trkpt lat="46.47656" lon="8.26281">
        <ele>1353</ele>
        <time>2020-10-24T12:49:20.107Z</time>
      </trkpt>
      <trkpt lat="46.47656" lon="8.2628">
        <ele>1353</ele>
        <time>2020-10-24T12:49:21.108Z</time>
      </trkpt>
      <trkpt lat="46.47656" lon="8.26279">
        <ele>1353</ele>
        <time>2020-10-24T12:49:22.107Z</time>
      </trkpt>
      <trkpt lat="46.47655" lon="8.26279">
        <ele>1353</ele>
        <time>2020-10-24T12:49:23.108Z</time>
      </trkpt>
      <trkpt lat="46.47655" lon="8.26278">
        <ele>1353</ele>
        <time>2020-10-24T12:49:24.107Z</time>
      </trkpt>
      <trkpt lat="46.47654" lon="8.26278">
        <ele>1353</ele>
        <time>2020-10-24T12:49:25.108Z</time>
      </trkpt>
      <trkpt lat="46.47653" lon="8.26277">
        <ele>1353</ele>
        <time>2020-10-24T12:49:26.108Z</time>
      </trkpt>
      <trkpt lat="46.47652" lon="8.26276">
        <ele>1353</ele>
        <time>2020-10-24T12:49:27.108Z</time>
      </trkpt>
      <trkpt lat="46.47651" lon="8.26275">
        <ele>1353</ele>
        <time>2020-10-24T12:49:28.107Z</time>
      </trkpt>
      <trkpt lat="46.47651" lon="8.26275">
        <ele>1353</ele>
        <time>2020-10-24T12:49:29.107Z</time>
      </trkpt>
      <trkpt lat="46.4765" lon="8.26274">
        <ele>1353</ele>
        <time>2020-10-24T12:49:30.108Z</time>
      </trkpt>
      <trkpt lat="46.4765" lon="8.26274">
        <ele>1353</ele>
        <time>2020-10-24T12:49:31.107Z</time>
      </trkpt>
      <trkpt lat="46.47649" lon="8.26275">
        <ele>1353</ele>
        <time>2020-10-24T12:49:32.108Z</time>
      </trkpt>
      <trkpt lat="46.47649" lon="8.26274">
        <ele>1352</ele>
        <time>2020-10-24T12:49:33.108Z</time>
      </trkpt>
      <trkpt lat="46.47648" lon="8.26274">
        <ele>1352</ele>
        <time>2020-10-24T12:49:34.108Z</time>
      </trkpt>
      <trkpt lat="46.47647" lon="8.26273">
        <ele>1352</ele>
        <time>2020-10-24T12:49:35.108Z</time>
      </trkpt>
      <trkpt lat="46.47647" lon="8.26272">
        <ele>1352</ele>
        <time>2020-10-24T12:49:36.108Z</time>
      </trkpt>
      <trkpt lat="46.47646" lon="8.26271">
        <ele>1353</ele>
        <time>2020-10-24T12:49:37.107Z</time>
      </trkpt>
      <trkpt lat="46.47645" lon="8.2627">
        <ele>1353</ele>
        <time>2020-10-24T12:49:38.108Z</time>
      </trkpt>
      <trkpt lat="46.47644" lon="8.2627">
        <ele>1353</ele>
        <time>2020-10-24T12:49:39.108Z</time>
      </trkpt>
      <trkpt lat="46.47644" lon="8.26268">
        <ele>1353</ele>
        <time>2020-10-24T12:49:40.107Z</time>
      </trkpt>
      <trkpt lat="46.47644" lon="8.26267">
        <ele>1354</ele>
        <time>2020-10-24T12:49:41.108Z</time>
      </trkpt>
      <trkpt lat="46.47643" lon="8.26267">
        <ele>1354</ele>
        <time>2020-10-24T12:49:42.107Z</time>
      </trkpt>
      <trkpt lat="46.47642" lon="8.26267">
        <ele>1354</ele>
        <time>2020-10-24T12:49:43.108Z</time>
      </trkpt>
      <trkpt lat="46.47641" lon="8.26267">
        <ele>1353</ele>
        <time>2020-10-24T12:49:44.107Z</time>
      </trkpt>
      <trkpt lat="46.4764" lon="8.26266">
        <ele>1353</ele>
        <time>2020-10-24T12:49:45.107Z</time>
      </trkpt>
      <trkpt lat="46.47639" lon="8.26266">
        <ele>1353</ele>
        <time>2020-10-24T12:49:46.108Z</time>
      </trkpt>
      <trkpt lat="46.47638" lon="8.26266">
        <ele>1353</ele>
        <time>2020-10-24T12:49:47.107Z</time>
      </trkpt>
      <trkpt lat="46.47638" lon="8.26265">
        <ele>1354</ele>
        <time>2020-10-24T12:49:48.108Z</time>
      </trkpt>
      <trkpt lat="46.47637" lon="8.26264">
        <ele>1354</ele>
        <time>2020-10-24T12:49:49.108Z</time>
      </trkpt>
      <trkpt lat="46.47636" lon="8.26263">
        <ele>1354</ele>
        <time>2020-10-24T12:49:50.108Z</time>
      </trkpt>
      <trkpt lat="46.47635" lon="8.26263">
        <ele>1354</ele>
        <time>2020-10-24T12:49:51.108Z</time>
      </trkpt>
      <trkpt lat="46.47634" lon="8.26263">
        <ele>1354</ele>
        <time>2020-10-24T12:49:52.107Z</time>
      </trkpt>
      <trkpt lat="46.47633" lon="8.26263">
        <ele>1353</ele>
        <time>2020-10-24T12:49:53.108Z</time>
      </trkpt>
      <trkpt lat="46.47632" lon="8.26263">
        <ele>1353</ele>
        <time>2020-10-24T12:49:54.107Z</time>
      </trkpt>
      <trkpt lat="46.47631" lon="8.26264">
        <ele>1353</ele>
        <time>2020-10-24T12:49:55.107Z</time>
      </trkpt>
      <trkpt lat="46.47629" lon="8.26264">
        <ele>1353</ele>
        <time>2020-10-24T12:49:56.108Z</time>
      </trkpt>
      <trkpt lat="46.47629" lon="8.26264">
        <ele>1352</ele>
        <time>2020-10-24T12:49:57.107Z</time>
      </trkpt>
      <trkpt lat="46.47628" lon="8.26264">
        <ele>1352</ele>
        <time>2020-10-24T12:49:58.107Z</time>
      </trkpt>
      <trkpt lat="46.47627" lon="8.26265">
        <ele>1352</ele>
        <time>2020-10-24T12:49:59.108Z</time>
      </trkpt>
      <trkpt lat="46.47626" lon="8.26266">
        <ele>1351</ele>
        <time>2020-10-24T12:50:00.108Z</time>
      </trkpt>
      <trkpt lat="46.47625" lon="8.26266">
        <ele>1351</ele>
        <time>2020-10-24T12:50:01.108Z</time>
      </trkpt>
      <trkpt lat="46.47624" lon="8.26266">
        <ele>1350</ele>
        <time>2020-10-24T12:50:02.108Z</time>
      </trkpt>
      <trkpt lat="46.47624" lon="8.26266">
        <ele>1350</ele>
        <time>2020-10-24T12:50:03.108Z</time>
      </trkpt>
      <trkpt lat="46.47623" lon="8.26266">
        <ele>1350</ele>
        <time>2020-10-24T12:50:04.108Z</time>
      </trkpt>
      <trkpt lat="46.47622" lon="8.26266">
        <ele>1350</ele>
        <time>2020-10-24T12:50:05.108Z</time>
      </trkpt>
      <trkpt lat="46.47621" lon="8.26266">
        <ele>1350</ele>
        <time>2020-10-24T12:50:06.108Z</time>
      </trkpt>
      <trkpt lat="46.47621" lon="8.26266">
        <ele>1350</ele>
        <time>2020-10-24T12:50:07.108Z</time>
      </trkpt>
      <trkpt lat="46.4762" lon="8.26265">
        <ele>1350</ele>
        <time>2020-10-24T12:50:08.108Z</time>
      </trkpt>
      <trkpt lat="46.47619" lon="8.26265">
        <ele>1350</ele>
        <time>2020-10-24T12:50:09.108Z</time>
      </trkpt>
      <trkpt lat="46.47618" lon="8.26265">
        <ele>1350</ele>
        <time>2020-10-24T12:50:10.107Z</time>
      </trkpt>
      <trkpt lat="46.47617" lon="8.26265">
        <ele>1349</ele>
        <time>2020-10-24T12:50:11.107Z</time>
      </trkpt>
      <trkpt lat="46.47617" lon="8.26265">
        <ele>1349</ele>
        <time>2020-10-24T12:50:12.107Z</time>
      </trkpt>
      <trkpt lat="46.47616" lon="8.26265">
        <ele>1350</ele>
        <time>2020-10-24T12:50:13.107Z</time>
      </trkpt>
      <trkpt lat="46.47615" lon="8.26266">
        <ele>1350</ele>
        <time>2020-10-24T12:50:14.108Z</time>
      </trkpt>
      <trkpt lat="46.47615" lon="8.26266">
        <ele>1350</ele>
        <time>2020-10-24T12:50:15.108Z</time>
      </trkpt>
      <trkpt lat="46.47614" lon="8.26266">
        <ele>1350</ele>
        <time>2020-10-24T12:50:16.107Z</time>
      </trkpt>
      <trkpt lat="46.47613" lon="8.26265">
        <ele>1351</ele>
        <time>2020-10-24T12:50:17.107Z</time>
      </trkpt>
      <trkpt lat="46.47612" lon="8.26265">
        <ele>1351</ele>
        <time>2020-10-24T12:50:18.107Z</time>
      </trkpt>
      <trkpt lat="46.47611" lon="8.26264">
        <ele>1352</ele>
        <time>2020-10-24T12:50:19.107Z</time>
      </trkpt>
      <trkpt lat="46.47611" lon="8.26264">
        <ele>1352</ele>
        <time>2020-10-24T12:50:20.108Z</time>
      </trkpt>
      <trkpt lat="46.4761" lon="8.26264">
        <ele>1352</ele>
        <time>2020-10-24T12:50:21.108Z</time>
      </trkpt>
      <trkpt lat="46.47609" lon="8.26264">
        <ele>1353</ele>
        <time>2020-10-24T12:50:22.108Z</time>
      </trkpt>
      <trkpt lat="46.47608" lon="8.26264">
        <ele>1354</ele>
        <time>2020-10-24T12:50:23.107Z</time>
      </trkpt>
      <trkpt lat="46.47608" lon="8.26264">
        <ele>1355</ele>
        <time>2020-10-24T12:50:24.107Z</time>
      </trkpt>
      <trkpt lat="46.47607" lon="8.26263">
        <ele>1355</ele>
        <time>2020-10-24T12:50:25.108Z</time>
      </trkpt>
      <trkpt lat="46.47607" lon="8.26263">
        <ele>1356</ele>
        <time>2020-10-24T12:50:26.108Z</time>
      </trkpt>
      <trkpt lat="46.47606" lon="8.26263">
        <ele>1357</ele>
        <time>2020-10-24T12:50:27.108Z</time>
      </trkpt>
      <trkpt lat="46.47605" lon="8.26262">
        <ele>1358</ele>
        <time>2020-10-24T12:50:28.108Z</time>
      </trkpt>
      <trkpt lat="46.47604" lon="8.26262">
        <ele>1358</ele>
        <time>2020-10-24T12:50:29.108Z</time>
      </trkpt>
      <trkpt lat="46.47604" lon="8.26261">
        <ele>1359</ele>
        <time>2020-10-24T12:50:30.107Z</time>
      </trkpt>
      <trkpt lat="46.47603" lon="8.2626">
        <ele>1359</ele>
        <time>2020-10-24T12:50:31.108Z</time>
      </trkpt>
      <trkpt lat="46.47603" lon="8.2626">
        <ele>1359</ele>
        <time>2020-10-24T12:50:32.108Z</time>
      </trkpt>
      <trkpt lat="46.47602" lon="8.2626">
        <ele>1359</ele>
        <time>2020-10-24T12:50:33.108Z</time>
      </trkpt>
      <trkpt lat="46.47602" lon="8.2626">
        <ele>1360</ele>
        <time>2020-10-24T12:50:34.107Z</time>
      </trkpt>
      <trkpt lat="46.47602" lon="8.26256">
        <ele>1364</ele>
        <time>2020-10-24T12:50:35.110Z</time>
      </trkpt>
      <trkpt lat="46.47602" lon="8.26256">
        <ele>1366</ele>
        <time>2020-10-24T12:50:36.109Z</time>
      </trkpt>
      <trkpt lat="46.47602" lon="8.26255">
        <ele>1366</ele>
        <time>2020-10-24T12:50:37.109Z</time>
      </trkpt>
      <trkpt lat="46.47601" lon="8.26255">
        <ele>1367</ele>
        <time>2020-10-24T12:50:38.110Z</time>
      </trkpt>
      <trkpt lat="46.47601" lon="8.26254">
        <ele>1367</ele>
        <time>2020-10-24T12:50:39.109Z</time>
      </trkpt>
      <trkpt lat="46.476" lon="8.26254">
        <ele>1368</ele>
        <time>2020-10-24T12:50:40.110Z</time>
      </trkpt>
      <trkpt lat="46.476" lon="8.26253">
        <ele>1368</ele>
        <time>2020-10-24T12:50:41.110Z</time>
      </trkpt>
      <trkpt lat="46.47599" lon="8.26252">
        <ele>1368</ele>
        <time>2020-10-24T12:50:42.110Z</time>
      </trkpt>
      <trkpt lat="46.47599" lon="8.2625">
        <ele>1367</ele>
        <time>2020-10-24T12:50:43.110Z</time>
      </trkpt>
      <trkpt lat="46.47599" lon="8.26249">
        <ele>1367</ele>
        <time>2020-10-24T12:50:44.110Z</time>
      </trkpt>
      <trkpt lat="46.47598" lon="8.26247">
        <ele>1367</ele>
        <time>2020-10-24T12:50:45.109Z</time>
      </trkpt>
      <trkpt lat="46.47598" lon="8.26246">
        <ele>1367</ele>
        <time>2020-10-24T12:50:46.109Z</time>
      </trkpt>
      <trkpt lat="46.47598" lon="8.26245">
        <ele>1367</ele>
        <time>2020-10-24T12:50:47.110Z</time>
      </trkpt>
      <trkpt lat="46.47597" lon="8.26244">
        <ele>1367</ele>
        <time>2020-10-24T12:50:48.110Z</time>
      </trkpt>
      <trkpt lat="46.47597" lon="8.26243">
        <ele>1368</ele>
        <time>2020-10-24T12:50:49.109Z</time>
      </trkpt>
      <trkpt lat="46.47596" lon="8.26243">
        <ele>1368</ele>
        <time>2020-10-24T12:50:50.110Z</time>
      </trkpt>
      <trkpt lat="46.47596" lon="8.26242">
        <ele>1368</ele>
        <time>2020-10-24T12:50:51.110Z</time>
      </trkpt>
      <trkpt lat="46.47595" lon="8.26242">
        <ele>1368</ele>
        <time>2020-10-24T12:50:52.109Z</time>
      </trkpt>
      <trkpt lat="46.47594" lon="8.26241">
        <ele>1368</ele>
        <time>2020-10-24T12:50:53.110Z</time>
      </trkpt>
      <trkpt lat="46.47594" lon="8.26241">
        <ele>1368</ele>
        <time>2020-10-24T12:50:54.110Z</time>
      </trkpt>
      <trkpt lat="46.47593" lon="8.2624">
        <ele>1368</ele>
        <time>2020-10-24T12:50:55.109Z</time>
      </trkpt>
      <trkpt lat="46.47592" lon="8.2624">
        <ele>1369</ele>
        <time>2020-10-24T12:50:56.109Z</time>
      </trkpt>
      <trkpt lat="46.47592" lon="8.2624">
        <ele>1369</ele>
        <time>2020-10-24T12:50:57.109Z</time>
      </trkpt>
      <trkpt lat="46.47591" lon="8.26239">
        <ele>1369</ele>
        <time>2020-10-24T12:50:58.110Z</time>
      </trkpt>
      <trkpt lat="46.47591" lon="8.26238">
        <ele>1369</ele>
        <time>2020-10-24T12:50:59.110Z</time>
      </trkpt>
      <trkpt lat="46.4759" lon="8.26238">
        <ele>1369</ele>
        <time>2020-10-24T12:51:00.110Z</time>
      </trkpt>
      <trkpt lat="46.47589" lon="8.26237">
        <ele>1368</ele>
        <time>2020-10-24T12:51:01.110Z</time>
      </trkpt>
      <trkpt lat="46.47589" lon="8.26237">
        <ele>1368</ele>
        <time>2020-10-24T12:51:02.110Z</time>
      </trkpt>
      <trkpt lat="46.47588" lon="8.26236">
        <ele>1367</ele>
        <time>2020-10-24T12:51:03.110Z</time>
      </trkpt>
      <trkpt lat="46.47587" lon="8.26235">
        <ele>1366</ele>
        <time>2020-10-24T12:51:04.110Z</time>
      </trkpt>
      <trkpt lat="46.47586" lon="8.26234">
        <ele>1365</ele>
        <time>2020-10-24T12:51:05.110Z</time>
      </trkpt>
      <trkpt lat="46.47585" lon="8.26233">
        <ele>1364</ele>
        <time>2020-10-24T12:51:06.109Z</time>
      </trkpt>
      <trkpt lat="46.47585" lon="8.26231">
        <ele>1364</ele>
        <time>2020-10-24T12:51:07.110Z</time>
      </trkpt>
      <trkpt lat="46.47584" lon="8.2623">
        <ele>1364</ele>
        <time>2020-10-24T12:51:08.110Z</time>
      </trkpt>
      <trkpt lat="46.47584" lon="8.26231">
        <ele>1364</ele>
        <time>2020-10-24T12:51:09.110Z</time>
      </trkpt>
      <trkpt lat="46.47584" lon="8.2623">
        <ele>1364</ele>
        <time>2020-10-24T12:51:10.110Z</time>
      </trkpt>
      <trkpt lat="46.47583" lon="8.26229">
        <ele>1363</ele>
        <time>2020-10-24T12:51:11.110Z</time>
      </trkpt>
      <trkpt lat="46.47583" lon="8.26229">
        <ele>1363</ele>
        <time>2020-10-24T12:51:12.110Z</time>
      </trkpt>
      <trkpt lat="46.47582" lon="8.26228">
        <ele>1362</ele>
        <time>2020-10-24T12:51:13.110Z</time>
      </trkpt>
      <trkpt lat="46.47581" lon="8.26228">
        <ele>1362</ele>
        <time>2020-10-24T12:51:14.109Z</time>
      </trkpt>
      <trkpt lat="46.4758" lon="8.26227">
        <ele>1362</ele>
        <time>2020-10-24T12:51:15.110Z</time>
      </trkpt>
      <trkpt lat="46.47579" lon="8.26226">
        <ele>1362</ele>
        <time>2020-10-24T12:51:16.109Z</time>
      </trkpt>
      <trkpt lat="46.47578" lon="8.26225">
        <ele>1362</ele>
        <time>2020-10-24T12:51:17.109Z</time>
      </trkpt>
      <trkpt lat="46.47577" lon="8.26225">
        <ele>1362</ele>
        <time>2020-10-24T12:51:18.109Z</time>
      </trkpt>
      <trkpt lat="46.47576" lon="8.26224">
        <ele>1363</ele>
        <time>2020-10-24T12:51:19.109Z</time>
      </trkpt>
      <trkpt lat="46.47576" lon="8.26223">
        <ele>1363</ele>
        <time>2020-10-24T12:51:20.110Z</time>
      </trkpt>
      <trkpt lat="46.47575" lon="8.26223">
        <ele>1363</ele>
        <time>2020-10-24T12:51:21.109Z</time>
      </trkpt>
      <trkpt lat="46.47574" lon="8.26222">
        <ele>1364</ele>
        <time>2020-10-24T12:51:22.109Z</time>
      </trkpt>
      <trkpt lat="46.47573" lon="8.26222">
        <ele>1364</ele>
        <time>2020-10-24T12:51:23.109Z</time>
      </trkpt>
      <trkpt lat="46.47572" lon="8.26222">
        <ele>1364</ele>
        <time>2020-10-24T12:51:24.109Z</time>
      </trkpt>
      <trkpt lat="46.47571" lon="8.26222">
        <ele>1364</ele>
        <time>2020-10-24T12:51:25.110Z</time>
      </trkpt>
      <trkpt lat="46.4757" lon="8.26221">
        <ele>1364</ele>
        <time>2020-10-24T12:51:26.110Z</time>
      </trkpt>
      <trkpt lat="46.4757" lon="8.26221">
        <ele>1364</ele>
        <time>2020-10-24T12:51:27.110Z</time>
      </trkpt>
      <trkpt lat="46.47569" lon="8.26221">
        <ele>1364</ele>
        <time>2020-10-24T12:51:28.109Z</time>
      </trkpt>
      <trkpt lat="46.47567" lon="8.2622">
        <ele>1364</ele>
        <time>2020-10-24T12:51:29.110Z</time>
      </trkpt>
      <trkpt lat="46.47566" lon="8.26219">
        <ele>1363</ele>
        <time>2020-10-24T12:51:30.109Z</time>
      </trkpt>
      <trkpt lat="46.47565" lon="8.26219">
        <ele>1363</ele>
        <time>2020-10-24T12:51:31.110Z</time>
      </trkpt>
      <trkpt lat="46.47564" lon="8.26219">
        <ele>1363</ele>
        <time>2020-10-24T12:51:32.110Z</time>
      </trkpt>
      <trkpt lat="46.47564" lon="8.26218">
        <ele>1362</ele>
        <time>2020-10-24T12:51:33.109Z</time>
      </trkpt>
      <trkpt lat="46.47563" lon="8.26218">
        <ele>1362</ele>
        <time>2020-10-24T12:51:34.109Z</time>
      </trkpt>
      <trkpt lat="46.47561" lon="8.26216">
        <ele>1362</ele>
        <time>2020-10-24T12:51:35.110Z</time>
      </trkpt>
      <trkpt lat="46.4756" lon="8.26215">
        <ele>1362</ele>
        <time>2020-10-24T12:51:36.110Z</time>
      </trkpt>
      <trkpt lat="46.4756" lon="8.26214">
        <ele>1362</ele>
        <time>2020-10-24T12:51:37.110Z</time>
      </trkpt>
      <trkpt lat="46.4756" lon="8.26214">
        <ele>1362</ele>
        <time>2020-10-24T12:51:38.109Z</time>
      </trkpt>
      <trkpt lat="46.47559" lon="8.26214">
        <ele>1362</ele>
        <time>2020-10-24T12:51:39.110Z</time>
      </trkpt>
      <trkpt lat="46.47559" lon="8.26213">
        <ele>1363</ele>
        <time>2020-10-24T12:51:40.110Z</time>
      </trkpt>
      <trkpt lat="46.47558" lon="8.26213">
        <ele>1363</ele>
        <time>2020-10-24T12:51:41.109Z</time>
      </trkpt>
      <trkpt lat="46.47557" lon="8.26211">
        <ele>1363</ele>
        <time>2020-10-24T12:51:42.110Z</time>
      </trkpt>
      <trkpt lat="46.47556" lon="8.2621">
        <ele>1363</ele>
        <time>2020-10-24T12:51:43.109Z</time>
      </trkpt>
      <trkpt lat="46.47555" lon="8.26209">
        <ele>1363</ele>
        <time>2020-10-24T12:51:44.109Z</time>
      </trkpt>
      <trkpt lat="46.47554" lon="8.26208">
        <ele>1363</ele>
        <time>2020-10-24T12:51:45.110Z</time>
      </trkpt>
      <trkpt lat="46.47553" lon="8.26207">
        <ele>1364</ele>
        <time>2020-10-24T12:51:46.110Z</time>
      </trkpt>
      <trkpt lat="46.47553" lon="8.26208">
        <ele>1364</ele>
        <time>2020-10-24T12:51:47.110Z</time>
      </trkpt>
      <trkpt lat="46.47552" lon="8.26208">
        <ele>1365</ele>
        <time>2020-10-24T12:51:48.109Z</time>
      </trkpt>
      <trkpt lat="46.47552" lon="8.26208">
        <ele>1365</ele>
        <time>2020-10-24T12:51:49.110Z</time>
      </trkpt>
      <trkpt lat="46.47551" lon="8.26207">
        <ele>1366</ele>
        <time>2020-10-24T12:51:50.110Z</time>
      </trkpt>
      <trkpt lat="46.4755" lon="8.26206">
        <ele>1367</ele>
        <time>2020-10-24T12:51:51.109Z</time>
      </trkpt>
      <trkpt lat="46.47549" lon="8.26204">
        <ele>1368</ele>
        <time>2020-10-24T12:51:52.110Z</time>
      </trkpt>
      <trkpt lat="46.47547" lon="8.26202">
        <ele>1368</ele>
        <time>2020-10-24T12:51:53.110Z</time>
      </trkpt>
      <trkpt lat="46.47545" lon="8.26199">
        <ele>1368</ele>
        <time>2020-10-24T12:51:54.110Z</time>
      </trkpt>
      <trkpt lat="46.47545" lon="8.26198">
        <ele>1369</ele>
        <time>2020-10-24T12:51:55.110Z</time>
      </trkpt>
      <trkpt lat="46.47544" lon="8.26197">
        <ele>1369</ele>
        <time>2020-10-24T12:51:56.110Z</time>
      </trkpt>
      <trkpt lat="46.47543" lon="8.26196">
        <ele>1369</ele>
        <time>2020-10-24T12:51:57.110Z</time>
      </trkpt>
      <trkpt lat="46.47542" lon="8.26195">
        <ele>1370</ele>
        <time>2020-10-24T12:51:58.110Z</time>
      </trkpt>
      <trkpt lat="46.47541" lon="8.26195">
        <ele>1370</ele>
        <time>2020-10-24T12:51:59.109Z</time>
      </trkpt>
      <trkpt lat="46.4754" lon="8.26195">
        <ele>1370</ele>
        <time>2020-10-24T12:52:00.110Z</time>
      </trkpt>
      <trkpt lat="46.47539" lon="8.26196">
        <ele>1371</ele>
        <time>2020-10-24T12:52:01.110Z</time>
      </trkpt>
      <trkpt lat="46.47538" lon="8.26196">
        <ele>1371</ele>
        <time>2020-10-24T12:52:02.110Z</time>
      </trkpt>
      <trkpt lat="46.47537" lon="8.26195">
        <ele>1371</ele>
        <time>2020-10-24T12:52:03.110Z</time>
      </trkpt>
      <trkpt lat="46.47536" lon="8.26195">
        <ele>1372</ele>
        <time>2020-10-24T12:52:04.109Z</time>
      </trkpt>
      <trkpt lat="46.47535" lon="8.26195">
        <ele>1372</ele>
        <time>2020-10-24T12:52:05.110Z</time>
      </trkpt>
      <trkpt lat="46.47534" lon="8.26195">
        <ele>1372</ele>
        <time>2020-10-24T12:52:06.109Z</time>
      </trkpt>
      <trkpt lat="46.47533" lon="8.26193">
        <ele>1372</ele>
        <time>2020-10-24T12:52:07.109Z</time>
      </trkpt>
      <trkpt lat="46.47532" lon="8.26193">
        <ele>1372</ele>
        <time>2020-10-24T12:52:08.109Z</time>
      </trkpt>
      <trkpt lat="46.47531" lon="8.26193">
        <ele>1372</ele>
        <time>2020-10-24T12:52:09.109Z</time>
      </trkpt>
      <trkpt lat="46.47531" lon="8.26192">
        <ele>1372</ele>
        <time>2020-10-24T12:52:10.110Z</time>
      </trkpt>
      <trkpt lat="46.4753" lon="8.26194">
        <ele>1372</ele>
        <time>2020-10-24T12:52:11.110Z</time>
      </trkpt>
      <trkpt lat="46.47529" lon="8.26194">
        <ele>1372</ele>
        <time>2020-10-24T12:52:12.110Z</time>
      </trkpt>
      <trkpt lat="46.47528" lon="8.26194">
        <ele>1372</ele>
        <time>2020-10-24T12:52:13.110Z</time>
      </trkpt>
      <trkpt lat="46.47528" lon="8.26194">
        <ele>1373</ele>
        <time>2020-10-24T12:52:14.110Z</time>
      </trkpt>
      <trkpt lat="46.47527" lon="8.26194">
        <ele>1373</ele>
        <time>2020-10-24T12:52:15.110Z</time>
      </trkpt>
      <trkpt lat="46.47526" lon="8.26195">
        <ele>1373</ele>
        <time>2020-10-24T12:52:16.109Z</time>
      </trkpt>
      <trkpt lat="46.47526" lon="8.26196">
        <ele>1373</ele>
        <time>2020-10-24T12:52:17.109Z</time>
      </trkpt>
      <trkpt lat="46.47525" lon="8.26196">
        <ele>1373</ele>
        <time>2020-10-24T12:52:18.110Z</time>
      </trkpt>
      <trkpt lat="46.47525" lon="8.26196">
        <ele>1373</ele>
        <time>2020-10-24T12:52:19.110Z</time>
      </trkpt>
      <trkpt lat="46.47524" lon="8.26197">
        <ele>1373</ele>
        <time>2020-10-24T12:52:20.109Z</time>
      </trkpt>
      <trkpt lat="46.47524" lon="8.26197">
        <ele>1373</ele>
        <time>2020-10-24T12:52:21.110Z</time>
      </trkpt>
      <trkpt lat="46.47523" lon="8.26197">
        <ele>1372</ele>
        <time>2020-10-24T12:52:22.110Z</time>
      </trkpt>
      <trkpt lat="46.47523" lon="8.26198">
        <ele>1372</ele>
        <time>2020-10-24T12:52:23.110Z</time>
      </trkpt>
      <trkpt lat="46.47524" lon="8.26199">
        <ele>1372</ele>
        <time>2020-10-24T12:52:24.110Z</time>
      </trkpt>
      <trkpt lat="46.47524" lon="8.26202">
        <ele>1371</ele>
        <time>2020-10-24T12:52:25.110Z</time>
      </trkpt>
      <trkpt lat="46.47523" lon="8.26203">
        <ele>1371</ele>
        <time>2020-10-24T12:52:26.110Z</time>
      </trkpt>
      <trkpt lat="46.47522" lon="8.26202">
        <ele>1370</ele>
        <time>2020-10-24T12:52:27.110Z</time>
      </trkpt>
      <trkpt lat="46.47521" lon="8.26201">
        <ele>1369</ele>
        <time>2020-10-24T12:52:28.109Z</time>
      </trkpt>
      <trkpt lat="46.47519" lon="8.262">
        <ele>1369</ele>
        <time>2020-10-24T12:52:29.110Z</time>
      </trkpt>
      <trkpt lat="46.47518" lon="8.26201">
        <ele>1368</ele>
        <time>2020-10-24T12:52:30.110Z</time>
      </trkpt>
      <trkpt lat="46.47517" lon="8.26201">
        <ele>1367</ele>
        <time>2020-10-24T12:52:31.110Z</time>
      </trkpt>
      <trkpt lat="46.47516" lon="8.262">
        <ele>1367</ele>
        <time>2020-10-24T12:52:32.109Z</time>
      </trkpt>
      <trkpt lat="46.47515" lon="8.26199">
        <ele>1367</ele>
        <time>2020-10-24T12:52:33.110Z</time>
      </trkpt>
      <trkpt lat="46.47514" lon="8.26199">
        <ele>1367</ele>
        <time>2020-10-24T12:52:34.109Z</time>
      </trkpt>
      <trkpt lat="46.47513" lon="8.26199">
        <ele>1367</ele>
        <time>2020-10-24T12:52:35.110Z</time>
      </trkpt>
      <trkpt lat="46.47512" lon="8.26198">
        <ele>1367</ele>
        <time>2020-10-24T12:52:36.110Z</time>
      </trkpt>
      <trkpt lat="46.47511" lon="8.26198">
        <ele>1367</ele>
        <time>2020-10-24T12:52:37.110Z</time>
      </trkpt>
      <trkpt lat="46.47511" lon="8.262">
        <ele>1366</ele>
        <time>2020-10-24T12:52:38.110Z</time>
      </trkpt>
      <trkpt lat="46.4751" lon="8.262">
        <ele>1366</ele>
        <time>2020-10-24T12:52:39.110Z</time>
      </trkpt>
      <trkpt lat="46.47509" lon="8.26199">
        <ele>1366</ele>
        <time>2020-10-24T12:52:40.110Z</time>
      </trkpt>
      <trkpt lat="46.47508" lon="8.26199">
        <ele>1366</ele>
        <time>2020-10-24T12:52:41.109Z</time>
      </trkpt>
      <trkpt lat="46.47508" lon="8.26199">
        <ele>1366</ele>
        <time>2020-10-24T12:52:42.109Z</time>
      </trkpt>
      <trkpt lat="46.47507" lon="8.262">
        <ele>1366</ele>
        <time>2020-10-24T12:52:43.110Z</time>
      </trkpt>
      <trkpt lat="46.47507" lon="8.26201">
        <ele>1366</ele>
        <time>2020-10-24T12:52:44.110Z</time>
      </trkpt>
      <trkpt lat="46.47507" lon="8.26203">
        <ele>1366</ele>
        <time>2020-10-24T12:52:45.110Z</time>
      </trkpt>
      <trkpt lat="46.47508" lon="8.26205">
        <ele>1366</ele>
        <time>2020-10-24T12:52:46.109Z</time>
      </trkpt>
      <trkpt lat="46.47507" lon="8.26205">
        <ele>1366</ele>
        <time>2020-10-24T12:52:47.110Z</time>
      </trkpt>
      <trkpt lat="46.47507" lon="8.26205">
        <ele>1367</ele>
        <time>2020-10-24T12:52:48.109Z</time>
      </trkpt>
      <trkpt lat="46.47506" lon="8.26203">
        <ele>1367</ele>
        <time>2020-10-24T12:52:49.109Z</time>
      </trkpt>
      <trkpt lat="46.47504" lon="8.26201">
        <ele>1368</ele>
        <time>2020-10-24T12:52:50.110Z</time>
      </trkpt>
      <trkpt lat="46.47503" lon="8.26201">
        <ele>1369</ele>
        <time>2020-10-24T12:52:51.110Z</time>
      </trkpt>
      <trkpt lat="46.47502" lon="8.262">
        <ele>1369</ele>
        <time>2020-10-24T12:52:52.110Z</time>
      </trkpt>
      <trkpt lat="46.47501" lon="8.26199">
        <ele>1370</ele>
        <time>2020-10-24T12:52:53.110Z</time>
      </trkpt>
      <trkpt lat="46.475" lon="8.26198">
        <ele>1371</ele>
        <time>2020-10-24T12:52:54.109Z</time>
      </trkpt>
      <trkpt lat="46.47499" lon="8.26198">
        <ele>1372</ele>
        <time>2020-10-24T12:52:55.109Z</time>
      </trkpt>
      <trkpt lat="46.47499" lon="8.26198">
        <ele>1372</ele>
        <time>2020-10-24T12:52:56.109Z</time>
      </trkpt>
      <trkpt lat="46.47498" lon="8.26198">
        <ele>1373</ele>
        <time>2020-10-24T12:52:57.109Z</time>
      </trkpt>
      <trkpt lat="46.47497" lon="8.26197">
        <ele>1374</ele>
        <time>2020-10-24T12:52:58.109Z</time>
      </trkpt>
      <trkpt lat="46.47496" lon="8.26198">
        <ele>1374</ele>
        <time>2020-10-24T12:52:59.110Z</time>
      </trkpt>
      <trkpt lat="46.47495" lon="8.26198">
        <ele>1374</ele>
        <time>2020-10-24T12:53:00.109Z</time>
      </trkpt>
      <trkpt lat="46.47493" lon="8.26199">
        <ele>1374</ele>
        <time>2020-10-24T12:53:01.110Z</time>
      </trkpt>
      <trkpt lat="46.47492" lon="8.26199">
        <ele>1374</ele>
        <time>2020-10-24T12:53:02.109Z</time>
      </trkpt>
      <trkpt lat="46.47491" lon="8.26199">
        <ele>1374</ele>
        <time>2020-10-24T12:53:03.109Z</time>
      </trkpt>
      <trkpt lat="46.47489" lon="8.262">
        <ele>1374</ele>
        <time>2020-10-24T12:53:04.110Z</time>
      </trkpt>
      <trkpt lat="46.47488" lon="8.26201">
        <ele>1373</ele>
        <time>2020-10-24T12:53:05.110Z</time>
      </trkpt>
      <trkpt lat="46.47487" lon="8.26202">
        <ele>1373</ele>
        <time>2020-10-24T12:53:06.109Z</time>
      </trkpt>
      <trkpt lat="46.47486" lon="8.26202">
        <ele>1373</ele>
        <time>2020-10-24T12:53:07.109Z</time>
      </trkpt>
      <trkpt lat="46.47485" lon="8.26203">
        <ele>1372</ele>
        <time>2020-10-24T12:53:08.110Z</time>
      </trkpt>
      <trkpt lat="46.47484" lon="8.26204">
        <ele>1372</ele>
        <time>2020-10-24T12:53:09.110Z</time>
      </trkpt>
      <trkpt lat="46.47483" lon="8.26205">
        <ele>1372</ele>
        <time>2020-10-24T12:53:10.109Z</time>
      </trkpt>
      <trkpt lat="46.47482" lon="8.26206">
        <ele>1371</ele>
        <time>2020-10-24T12:53:11.110Z</time>
      </trkpt>
      <trkpt lat="46.47481" lon="8.26207">
        <ele>1371</ele>
        <time>2020-10-24T12:53:12.109Z</time>
      </trkpt>
      <trkpt lat="46.4748" lon="8.26207">
        <ele>1370</ele>
        <time>2020-10-24T12:53:13.109Z</time>
      </trkpt>
      <trkpt lat="46.47478" lon="8.26207">
        <ele>1370</ele>
        <time>2020-10-24T12:53:14.110Z</time>
      </trkpt>
      <trkpt lat="46.47477" lon="8.26208">
        <ele>1370</ele>
        <time>2020-10-24T12:53:15.109Z</time>
      </trkpt>
      <trkpt lat="46.47475" lon="8.26208">
        <ele>1370</ele>
        <time>2020-10-24T12:53:16.110Z</time>
      </trkpt>
      <trkpt lat="46.47473" lon="8.26208">
        <ele>1369</ele>
        <time>2020-10-24T12:53:17.110Z</time>
      </trkpt>
      <trkpt lat="46.47472" lon="8.26208">
        <ele>1369</ele>
        <time>2020-10-24T12:53:18.110Z</time>
      </trkpt>
      <trkpt lat="46.47471" lon="8.26209">
        <ele>1369</ele>
        <time>2020-10-24T12:53:19.110Z</time>
      </trkpt>
      <trkpt lat="46.4747" lon="8.2621">
        <ele>1369</ele>
        <time>2020-10-24T12:53:20.110Z</time>
      </trkpt>
      <trkpt lat="46.47469" lon="8.26211">
        <ele>1369</ele>
        <time>2020-10-24T12:53:21.110Z</time>
      </trkpt>
      <trkpt lat="46.47468" lon="8.26212">
        <ele>1369</ele>
        <time>2020-10-24T12:53:22.109Z</time>
      </trkpt>
      <trkpt lat="46.47466" lon="8.26212">
        <ele>1369</ele>
        <time>2020-10-24T12:53:23.109Z</time>
      </trkpt>
      <trkpt lat="46.47465" lon="8.26213">
        <ele>1369</ele>
        <time>2020-10-24T12:53:24.109Z</time>
      </trkpt>
      <trkpt lat="46.47463" lon="8.26213">
        <ele>1369</ele>
        <time>2020-10-24T12:53:25.109Z</time>
      </trkpt>
      <trkpt lat="46.47462" lon="8.26214">
        <ele>1369</ele>
        <time>2020-10-24T12:53:26.109Z</time>
      </trkpt>
      <trkpt lat="46.47462" lon="8.26215">
        <ele>1369</ele>
        <time>2020-10-24T12:53:27.109Z</time>
      </trkpt>
      <trkpt lat="46.47461" lon="8.26216">
        <ele>1369</ele>
        <time>2020-10-24T12:53:28.109Z</time>
      </trkpt>
      <trkpt lat="46.4746" lon="8.26218">
        <ele>1368</ele>
        <time>2020-10-24T12:53:29.109Z</time>
      </trkpt>
      <trkpt lat="46.4746" lon="8.26219">
        <ele>1368</ele>
        <time>2020-10-24T12:53:30.109Z</time>
      </trkpt>
      <trkpt lat="46.47458" lon="8.2622">
        <ele>1367</ele>
        <time>2020-10-24T12:53:31.110Z</time>
      </trkpt>
      <trkpt lat="46.47457" lon="8.26222">
        <ele>1367</ele>
        <time>2020-10-24T12:53:32.109Z</time>
      </trkpt>
      <trkpt lat="46.47458" lon="8.26223">
        <ele>1367</ele>
        <time>2020-10-24T12:53:33.109Z</time>
      </trkpt>
      <trkpt lat="46.47457" lon="8.26224">
        <ele>1367</ele>
        <time>2020-10-24T12:53:34.109Z</time>
      </trkpt>
      <trkpt lat="46.47455" lon="8.26224">
        <ele>1367</ele>
        <time>2020-10-24T12:53:35.109Z</time>
      </trkpt>
      <trkpt lat="46.47454" lon="8.26225">
        <ele>1367</ele>
        <time>2020-10-24T12:53:36.110Z</time>
      </trkpt>
      <trkpt lat="46.47453" lon="8.26226">
        <ele>1367</ele>
        <time>2020-10-24T12:53:37.110Z</time>
      </trkpt>
      <trkpt lat="46.47452" lon="8.26226">
        <ele>1367</ele>
        <time>2020-10-24T12:53:38.110Z</time>
      </trkpt>
      <trkpt lat="46.47451" lon="8.26226">
        <ele>1368</ele>
        <time>2020-10-24T12:53:39.110Z</time>
      </trkpt>
      <trkpt lat="46.4745" lon="8.26226">
        <ele>1369</ele>
        <time>2020-10-24T12:53:40.110Z</time>
      </trkpt>
      <trkpt lat="46.4745" lon="8.26227">
        <ele>1369</ele>
        <time>2020-10-24T12:53:41.110Z</time>
      </trkpt>
      <trkpt lat="46.47449" lon="8.26228">
        <ele>1370</ele>
        <time>2020-10-24T12:53:42.110Z</time>
      </trkpt>
      <trkpt lat="46.47448" lon="8.26229">
        <ele>1371</ele>
        <time>2020-10-24T12:53:43.109Z</time>
      </trkpt>
      <trkpt lat="46.47447" lon="8.2623">
        <ele>1371</ele>
        <time>2020-10-24T12:53:44.110Z</time>
      </trkpt>
      <trkpt lat="46.47447" lon="8.26232">
        <ele>1371</ele>
        <time>2020-10-24T12:53:45.109Z</time>
      </trkpt>
      <trkpt lat="46.47446" lon="8.26233">
        <ele>1371</ele>
        <time>2020-10-24T12:53:46.110Z</time>
      </trkpt>
      <trkpt lat="46.47445" lon="8.26233">
        <ele>1372</ele>
        <time>2020-10-24T12:53:47.109Z</time>
      </trkpt>
      <trkpt lat="46.47444" lon="8.26234">
        <ele>1372</ele>
        <time>2020-10-24T12:53:48.110Z</time>
      </trkpt>
      <trkpt lat="46.47443" lon="8.26234">
        <ele>1372</ele>
        <time>2020-10-24T12:53:49.110Z</time>
      </trkpt>
      <trkpt lat="46.47442" lon="8.26234">
        <ele>1373</ele>
        <time>2020-10-24T12:53:50.110Z</time>
      </trkpt>
      <trkpt lat="46.47442" lon="8.26234">
        <ele>1373</ele>
        <time>2020-10-24T12:53:51.110Z</time>
      </trkpt>
      <trkpt lat="46.47441" lon="8.26232">
        <ele>1374</ele>
        <time>2020-10-24T12:53:52.110Z</time>
      </trkpt>
      <trkpt lat="46.4744" lon="8.2623">
        <ele>1375</ele>
        <time>2020-10-24T12:53:53.110Z</time>
      </trkpt>
      <trkpt lat="46.47439" lon="8.26229">
        <ele>1376</ele>
        <time>2020-10-24T12:53:54.110Z</time>
      </trkpt>
      <trkpt lat="46.47438" lon="8.26227">
        <ele>1377</ele>
        <time>2020-10-24T12:53:55.110Z</time>
      </trkpt>
      <trkpt lat="46.47438" lon="8.26225">
        <ele>1377</ele>
        <time>2020-10-24T12:53:56.109Z</time>
      </trkpt>
      <trkpt lat="46.47437" lon="8.26223">
        <ele>1378</ele>
        <time>2020-10-24T12:53:57.110Z</time>
      </trkpt>
      <trkpt lat="46.47438" lon="8.26222">
        <ele>1379</ele>
        <time>2020-10-24T12:53:58.110Z</time>
      </trkpt>
      <trkpt lat="46.47439" lon="8.26222">
        <ele>1379</ele>
        <time>2020-10-24T12:53:59.110Z</time>
      </trkpt>
      <trkpt lat="46.47439" lon="8.26222">
        <ele>1380</ele>
        <time>2020-10-24T12:54:00.110Z</time>
      </trkpt>
      <trkpt lat="46.4744" lon="8.26223">
        <ele>1379</ele>
        <time>2020-10-24T12:54:01.110Z</time>
      </trkpt>
      <trkpt lat="46.47439" lon="8.26223">
        <ele>1378</ele>
        <time>2020-10-24T12:54:02.110Z</time>
      </trkpt>
      <trkpt lat="46.47439" lon="8.26223">
        <ele>1377</ele>
        <time>2020-10-24T12:54:03.109Z</time>
      </trkpt>
      <trkpt lat="46.4744" lon="8.26223">
        <ele>1376</ele>
        <time>2020-10-24T12:54:04.110Z</time>
      </trkpt>
      <trkpt lat="46.4744" lon="8.26222">
        <ele>1375</ele>
        <time>2020-10-24T12:54:05.110Z</time>
      </trkpt>
      <trkpt lat="46.4744" lon="8.26221">
        <ele>1375</ele>
        <time>2020-10-24T12:54:06.110Z</time>
      </trkpt>
      <trkpt lat="46.4744" lon="8.2622">
        <ele>1375</ele>
        <time>2020-10-24T12:54:07.110Z</time>
      </trkpt>
      <trkpt lat="46.4744" lon="8.26218">
        <ele>1375</ele>
        <time>2020-10-24T12:54:08.110Z</time>
      </trkpt>
      <trkpt lat="46.4744" lon="8.26216">
        <ele>1375</ele>
        <time>2020-10-24T12:54:09.109Z</time>
      </trkpt>
      <trkpt lat="46.4744" lon="8.26215">
        <ele>1375</ele>
        <time>2020-10-24T12:54:10.109Z</time>
      </trkpt>
      <trkpt lat="46.47439" lon="8.26214">
        <ele>1375</ele>
        <time>2020-10-24T12:54:11.110Z</time>
      </trkpt>
      <trkpt lat="46.47438" lon="8.26213">
        <ele>1376</ele>
        <time>2020-10-24T12:54:12.109Z</time>
      </trkpt>
      <trkpt lat="46.47438" lon="8.26211">
        <ele>1376</ele>
        <time>2020-10-24T12:54:13.110Z</time>
      </trkpt>
      <trkpt lat="46.47438" lon="8.2621">
        <ele>1377</ele>
        <time>2020-10-24T12:54:14.109Z</time>
      </trkpt>
      <trkpt lat="46.47438" lon="8.26209">
        <ele>1377</ele>
        <time>2020-10-24T12:54:15.109Z</time>
      </trkpt>
      <trkpt lat="46.47439" lon="8.26208">
        <ele>1377</ele>
        <time>2020-10-24T12:54:16.110Z</time>
      </trkpt>
      <trkpt lat="46.4744" lon="8.26207">
        <ele>1378</ele>
        <time>2020-10-24T12:54:17.110Z</time>
      </trkpt>
      <trkpt lat="46.4744" lon="8.26206">
        <ele>1378</ele>
        <time>2020-10-24T12:54:18.110Z</time>
      </trkpt>
      <trkpt lat="46.47441" lon="8.26205">
        <ele>1379</ele>
        <time>2020-10-24T12:54:19.109Z</time>
      </trkpt>
      <trkpt lat="46.47441" lon="8.26204">
        <ele>1379</ele>
        <time>2020-10-24T12:54:20.109Z</time>
      </trkpt>
      <trkpt lat="46.47441" lon="8.26202">
        <ele>1379</ele>
        <time>2020-10-24T12:54:21.109Z</time>
      </trkpt>
      <trkpt lat="46.47441" lon="8.26201">
        <ele>1379</ele>
        <time>2020-10-24T12:54:22.110Z</time>
      </trkpt>
      <trkpt lat="46.4744" lon="8.26201">
        <ele>1378</ele>
        <time>2020-10-24T12:54:23.110Z</time>
      </trkpt>
      <trkpt lat="46.4744" lon="8.26201">
        <ele>1378</ele>
        <time>2020-10-24T12:54:24.110Z</time>
      </trkpt>
      <trkpt lat="46.4744" lon="8.26201">
        <ele>1378</ele>
        <time>2020-10-24T12:54:25.110Z</time>
      </trkpt>
      <trkpt lat="46.47441" lon="8.26202">
        <ele>1378</ele>
        <time>2020-10-24T12:54:26.110Z</time>
      </trkpt>
      <trkpt lat="46.47441" lon="8.26201">
        <ele>1378</ele>
        <time>2020-10-24T12:54:27.110Z</time>
      </trkpt>
      <trkpt lat="46.47442" lon="8.262">
        <ele>1379</ele>
        <time>2020-10-24T12:54:28.110Z</time>
      </trkpt>
      <trkpt lat="46.47442" lon="8.26199">
        <ele>1380</ele>
        <time>2020-10-24T12:54:29.110Z</time>
      </trkpt>
      <trkpt lat="46.47442" lon="8.26199">
        <ele>1381</ele>
        <time>2020-10-24T12:54:30.110Z</time>
      </trkpt>
      <trkpt lat="46.47442" lon="8.26198">
        <ele>1382</ele>
        <time>2020-10-24T12:54:31.109Z</time>
      </trkpt>
      <trkpt lat="46.47442" lon="8.26198">
        <ele>1383</ele>
        <time>2020-10-24T12:54:32.110Z</time>
      </trkpt>
      <trkpt lat="46.47442" lon="8.26197">
        <ele>1384</ele>
        <time>2020-10-24T12:54:33.110Z</time>
      </trkpt>
      <trkpt lat="46.47443" lon="8.26197">
        <ele>1385</ele>
        <time>2020-10-24T12:54:34.109Z</time>
      </trkpt>
      <trkpt lat="46.47444" lon="8.26196">
        <ele>1386</ele>
        <time>2020-10-24T12:54:35.110Z</time>
      </trkpt>
      <trkpt lat="46.47445" lon="8.26196">
        <ele>1387</ele>
        <time>2020-10-24T12:54:36.110Z</time>
      </trkpt>
      <trkpt lat="46.47445" lon="8.26196">
        <ele>1388</ele>
        <time>2020-10-24T12:54:37.110Z</time>
      </trkpt>
      <trkpt lat="46.47446" lon="8.26196">
        <ele>1389</ele>
        <time>2020-10-24T12:54:38.110Z</time>
      </trkpt>
      <trkpt lat="46.47446" lon="8.26196">
        <ele>1389</ele>
        <time>2020-10-24T12:54:39.110Z</time>
      </trkpt>
      <trkpt lat="46.47446" lon="8.26196">
        <ele>1390</ele>
        <time>2020-10-24T12:54:40.110Z</time>
      </trkpt>
      <trkpt lat="46.47447" lon="8.26197">
        <ele>1391</ele>
        <time>2020-10-24T12:54:41.110Z</time>
      </trkpt>
      <trkpt lat="46.4745" lon="8.26199">
        <ele>1396</ele>
        <time>2020-10-24T12:54:42.109Z</time>
      </trkpt>
      <trkpt lat="46.47453" lon="8.26199">
        <ele>1397</ele>
        <time>2020-10-24T12:54:43.109Z</time>
      </trkpt>
      <trkpt lat="46.47455" lon="8.26198">
        <ele>1398</ele>
        <time>2020-10-24T12:54:44.109Z</time>
      </trkpt>
      <trkpt lat="46.47459" lon="8.26196">
        <ele>1410</ele>
        <time>2020-10-24T12:54:45.110Z</time>
      </trkpt>
      <trkpt lat="46.47459" lon="8.26197">
        <ele>1410</ele>
        <time>2020-10-24T12:54:46.110Z</time>
      </trkpt>
      <trkpt lat="46.47459" lon="8.26197">
        <ele>1411</ele>
        <time>2020-10-24T12:54:47.111Z</time>
      </trkpt>
      <trkpt lat="46.47459" lon="8.26197">
        <ele>1411</ele>
        <time>2020-10-24T12:54:48.111Z</time>
      </trkpt>
      <trkpt lat="46.47459" lon="8.26197">
        <ele>1411</ele>
        <time>2020-10-24T12:54:49.110Z</time>
      </trkpt>
      <trkpt lat="46.4746" lon="8.26197">
        <ele>1411</ele>
        <time>2020-10-24T12:54:50.110Z</time>
      </trkpt>
      <trkpt lat="46.47461" lon="8.26197">
        <ele>1411</ele>
        <time>2020-10-24T12:54:51.110Z</time>
      </trkpt>
      <trkpt lat="46.47466" lon="8.26196">
        <ele>1409</ele>
        <time>2020-10-24T12:54:52.111Z</time>
      </trkpt>
      <trkpt lat="46.47469" lon="8.26196">
        <ele>1409</ele>
        <time>2020-10-24T12:54:53.112Z</time>
      </trkpt>
      <trkpt lat="46.47471" lon="8.26196">
        <ele>1409</ele>
        <time>2020-10-24T12:54:54.111Z</time>
      </trkpt>
      <trkpt lat="46.47473" lon="8.26196">
        <ele>1409</ele>
        <time>2020-10-24T12:54:55.112Z</time>
      </trkpt>
      <trkpt lat="46.47476" lon="8.26195">
        <ele>1409</ele>
        <time>2020-10-24T12:54:56.112Z</time>
      </trkpt>
      <trkpt lat="46.47479" lon="8.26195">
        <ele>1409</ele>
        <time>2020-10-24T12:54:57.111Z</time>
      </trkpt>
      <trkpt lat="46.47481" lon="8.26195">
        <ele>1409</ele>
        <time>2020-10-24T12:54:58.111Z</time>
      </trkpt>
      <trkpt lat="46.47482" lon="8.26194">
        <ele>1410</ele>
        <time>2020-10-24T12:54:59.112Z</time>
      </trkpt>
      <trkpt lat="46.47484" lon="8.26194">
        <ele>1410</ele>
        <time>2020-10-24T12:55:00.111Z</time>
      </trkpt>
      <trkpt lat="46.47485" lon="8.26193">
        <ele>1410</ele>
        <time>2020-10-24T12:55:01.111Z</time>
      </trkpt>
      <trkpt lat="46.47487" lon="8.26193">
        <ele>1411</ele>
        <time>2020-10-24T12:55:02.112Z</time>
      </trkpt>
      <trkpt lat="46.47488" lon="8.26193">
        <ele>1411</ele>
        <time>2020-10-24T12:55:03.111Z</time>
      </trkpt>
      <trkpt lat="46.4749" lon="8.26192">
        <ele>1412</ele>
        <time>2020-10-24T12:55:04.112Z</time>
      </trkpt>
      <trkpt lat="46.47492" lon="8.26191">
        <ele>1412</ele>
        <time>2020-10-24T12:55:05.112Z</time>
      </trkpt>
      <trkpt lat="46.47493" lon="8.26191">
        <ele>1412</ele>
        <time>2020-10-24T12:55:06.111Z</time>
      </trkpt>
      <trkpt lat="46.47494" lon="8.26191">
        <ele>1413</ele>
        <time>2020-10-24T12:55:07.111Z</time>
      </trkpt>
      <trkpt lat="46.47496" lon="8.26191">
        <ele>1413</ele>
        <time>2020-10-24T12:55:08.112Z</time>
      </trkpt>
      <trkpt lat="46.47498" lon="8.26191">
        <ele>1414</ele>
        <time>2020-10-24T12:55:09.112Z</time>
      </trkpt>
      <trkpt lat="46.475" lon="8.26191">
        <ele>1414</ele>
        <time>2020-10-24T12:55:10.112Z</time>
      </trkpt>
      <trkpt lat="46.47502" lon="8.26191">
        <ele>1414</ele>
        <time>2020-10-24T12:55:11.112Z</time>
      </trkpt>
      <trkpt lat="46.47505" lon="8.2619">
        <ele>1414</ele>
        <time>2020-10-24T12:55:12.111Z</time>
      </trkpt>
      <trkpt lat="46.47508" lon="8.2619">
        <ele>1414</ele>
        <time>2020-10-24T12:55:13.112Z</time>
      </trkpt>
      <trkpt lat="46.4751" lon="8.2619">
        <ele>1414</ele>
        <time>2020-10-24T12:55:14.111Z</time>
      </trkpt>
      <trkpt lat="46.47513" lon="8.26189">
        <ele>1414</ele>
        <time>2020-10-24T12:55:15.111Z</time>
      </trkpt>
      <trkpt lat="46.47516" lon="8.26189">
        <ele>1414</ele>
        <time>2020-10-24T12:55:16.112Z</time>
      </trkpt>
      <trkpt lat="46.47519" lon="8.26188">
        <ele>1414</ele>
        <time>2020-10-24T12:55:17.112Z</time>
      </trkpt>
      <trkpt lat="46.47523" lon="8.26188">
        <ele>1413</ele>
        <time>2020-10-24T12:55:18.112Z</time>
      </trkpt>
      <trkpt lat="46.47527" lon="8.26188">
        <ele>1413</ele>
        <time>2020-10-24T12:55:19.112Z</time>
      </trkpt>
      <trkpt lat="46.47529" lon="8.26188">
        <ele>1413</ele>
        <time>2020-10-24T12:55:20.112Z</time>
      </trkpt>
      <trkpt lat="46.47531" lon="8.26189">
        <ele>1412</ele>
        <time>2020-10-24T12:55:21.112Z</time>
      </trkpt>
      <trkpt lat="46.47533" lon="8.26189">
        <ele>1412</ele>
        <time>2020-10-24T12:55:22.111Z</time>
      </trkpt>
      <trkpt lat="46.47536" lon="8.26189">
        <ele>1411</ele>
        <time>2020-10-24T12:55:23.111Z</time>
      </trkpt>
      <trkpt lat="46.4754" lon="8.26189">
        <ele>1410</ele>
        <time>2020-10-24T12:55:24.112Z</time>
      </trkpt>
      <trkpt lat="46.47543" lon="8.26189">
        <ele>1409</ele>
        <time>2020-10-24T12:55:25.112Z</time>
      </trkpt>
      <trkpt lat="46.47547" lon="8.26188">
        <ele>1408</ele>
        <time>2020-10-24T12:55:26.111Z</time>
      </trkpt>
      <trkpt lat="46.47551" lon="8.26187">
        <ele>1407</ele>
        <time>2020-10-24T12:55:27.112Z</time>
      </trkpt>
      <trkpt lat="46.47556" lon="8.26186">
        <ele>1406</ele>
        <time>2020-10-24T12:55:28.112Z</time>
      </trkpt>
      <trkpt lat="46.4756" lon="8.26185">
        <ele>1405</ele>
        <time>2020-10-24T12:55:29.112Z</time>
      </trkpt>
      <trkpt lat="46.47563" lon="8.26184">
        <ele>1405</ele>
        <time>2020-10-24T12:55:30.111Z</time>
      </trkpt>
      <trkpt lat="46.47567" lon="8.26183">
        <ele>1404</ele>
        <time>2020-10-24T12:55:31.111Z</time>
      </trkpt>
      <trkpt lat="46.47569" lon="8.26183">
        <ele>1403</ele>
        <time>2020-10-24T12:55:32.111Z</time>
      </trkpt>
      <trkpt lat="46.47569" lon="8.26184">
        <ele>1402</ele>
        <time>2020-10-24T12:55:33.112Z</time>
      </trkpt>
      <trkpt lat="46.47567" lon="8.26184">
        <ele>1401</ele>
        <time>2020-10-24T12:55:34.112Z</time>
      </trkpt>
      <trkpt lat="46.47563" lon="8.26185">
        <ele>1400</ele>
        <time>2020-10-24T12:55:35.112Z</time>
      </trkpt>
      <trkpt lat="46.47558" lon="8.26186">
        <ele>1400</ele>
        <time>2020-10-24T12:55:36.112Z</time>
      </trkpt>
      <trkpt lat="46.47552" lon="8.26186">
        <ele>1399</ele>
        <time>2020-10-24T12:55:37.112Z</time>
      </trkpt>
      <trkpt lat="46.47545" lon="8.26187">
        <ele>1398</ele>
        <time>2020-10-24T12:55:38.112Z</time>
      </trkpt>
      <trkpt lat="46.47537" lon="8.26188">
        <ele>1397</ele>
        <time>2020-10-24T12:55:39.112Z</time>
      </trkpt>
      <trkpt lat="46.47529" lon="8.26188">
        <ele>1396</ele>
        <time>2020-10-24T12:55:40.111Z</time>
      </trkpt>
      <trkpt lat="46.47492" lon="8.26191">
        <ele>1388</ele>
        <time>2020-10-24T12:55:41.112Z</time>
      </trkpt>
      <trkpt lat="46.47491" lon="8.26191">
        <ele>1388</ele>
        <time>2020-10-24T12:55:42.111Z</time>
      </trkpt>
      <trkpt lat="46.47491" lon="8.2619">
        <ele>1388</ele>
        <time>2020-10-24T12:55:43.112Z</time>
      </trkpt>
      <trkpt lat="46.4749" lon="8.26189">
        <ele>1388</ele>
        <time>2020-10-24T12:55:44.111Z</time>
      </trkpt>
      <trkpt lat="46.47488" lon="8.26188">
        <ele>1387</ele>
        <time>2020-10-24T12:55:45.112Z</time>
      </trkpt>
      <trkpt lat="46.47486" lon="8.26188">
        <ele>1387</ele>
        <time>2020-10-24T12:55:46.112Z</time>
      </trkpt>
      <trkpt lat="46.47482" lon="8.26188">
        <ele>1386</ele>
        <time>2020-10-24T12:55:47.111Z</time>
      </trkpt>
      <trkpt lat="46.47469" lon="8.2619">
        <ele>1385</ele>
        <time>2020-10-24T12:55:48.112Z</time>
      </trkpt>
      <trkpt lat="46.47468" lon="8.26189">
        <ele>1384</ele>
        <time>2020-10-24T12:55:49.112Z</time>
      </trkpt>
      <trkpt lat="46.47467" lon="8.26189">
        <ele>1384</ele>
        <time>2020-10-24T12:55:50.111Z</time>
      </trkpt>
      <trkpt lat="46.47467" lon="8.26189">
        <ele>1383</ele>
        <time>2020-10-24T12:55:51.111Z</time>
      </trkpt>
      <trkpt lat="46.47467" lon="8.26188">
        <ele>1383</ele>
        <time>2020-10-24T12:55:52.112Z</time>
      </trkpt>
      <trkpt lat="46.47468" lon="8.26187">
        <ele>1382</ele>
        <time>2020-10-24T12:55:53.112Z</time>
      </trkpt>
      <trkpt lat="46.47469" lon="8.26187">
        <ele>1383</ele>
        <time>2020-10-24T12:55:54.112Z</time>
      </trkpt>
      <trkpt lat="46.4747" lon="8.26186">
        <ele>1383</ele>
        <time>2020-10-24T12:55:55.112Z</time>
      </trkpt>
      <trkpt lat="46.47471" lon="8.26185">
        <ele>1383</ele>
        <time>2020-10-24T12:55:56.112Z</time>
      </trkpt>
      <trkpt lat="46.47472" lon="8.26184">
        <ele>1384</ele>
        <time>2020-10-24T12:55:57.112Z</time>
      </trkpt>
      <trkpt lat="46.47474" lon="8.26183">
        <ele>1385</ele>
        <time>2020-10-24T12:55:58.112Z</time>
      </trkpt>
      <trkpt lat="46.47475" lon="8.26182">
        <ele>1386</ele>
        <time>2020-10-24T12:55:59.111Z</time>
      </trkpt>
      <trkpt lat="46.47477" lon="8.26181">
        <ele>1387</ele>
        <time>2020-10-24T12:56:00.112Z</time>
      </trkpt>
      <trkpt lat="46.47478" lon="8.2618">
        <ele>1388</ele>
        <time>2020-10-24T12:56:01.111Z</time>
      </trkpt>
      <trkpt lat="46.47479" lon="8.26179">
        <ele>1389</ele>
        <time>2020-10-24T12:56:02.111Z</time>
      </trkpt>
      <trkpt lat="46.47479" lon="8.26178">
        <ele>1390</ele>
        <time>2020-10-24T12:56:03.112Z</time>
      </trkpt>
      <trkpt lat="46.47479" lon="8.26177">
        <ele>1390</ele>
        <time>2020-10-24T12:56:04.112Z</time>
      </trkpt>
      <trkpt lat="46.47479" lon="8.26176">
        <ele>1391</ele>
        <time>2020-10-24T12:56:05.111Z</time>
      </trkpt>
      <trkpt lat="46.4748" lon="8.26176">
        <ele>1391</ele>
        <time>2020-10-24T12:56:06.111Z</time>
      </trkpt>
      <trkpt lat="46.47481" lon="8.26175">
        <ele>1391</ele>
        <time>2020-10-24T12:56:07.112Z</time>
      </trkpt>
      <trkpt lat="46.47482" lon="8.26173">
        <ele>1392</ele>
        <time>2020-10-24T12:56:08.111Z</time>
      </trkpt>
      <trkpt lat="46.47483" lon="8.26172">
        <ele>1392</ele>
        <time>2020-10-24T12:56:09.112Z</time>
      </trkpt>
      <trkpt lat="46.47485" lon="8.26171">
        <ele>1392</ele>
        <time>2020-10-24T12:56:10.111Z</time>
      </trkpt>
      <trkpt lat="46.47487" lon="8.26169">
        <ele>1393</ele>
        <time>2020-10-24T12:56:11.111Z</time>
      </trkpt>
      <trkpt lat="46.47486" lon="8.26167">
        <ele>1394</ele>
        <time>2020-10-24T12:56:12.112Z</time>
      </trkpt>
      <trkpt lat="46.47485" lon="8.26165">
        <ele>1394</ele>
        <time>2020-10-24T12:56:13.111Z</time>
      </trkpt>
      <trkpt lat="46.47485" lon="8.26163">
        <ele>1395</ele>
        <time>2020-10-24T12:56:14.112Z</time>
      </trkpt>
      <trkpt lat="46.47484" lon="8.26162">
        <ele>1395</ele>
        <time>2020-10-24T12:56:15.112Z</time>
      </trkpt>
      <trkpt lat="46.47484" lon="8.26161">
        <ele>1395</ele>
        <time>2020-10-24T12:56:16.111Z</time>
      </trkpt>
      <trkpt lat="46.47484" lon="8.2616">
        <ele>1395</ele>
        <time>2020-10-24T12:56:17.112Z</time>
      </trkpt>
      <trkpt lat="46.47483" lon="8.26158">
        <ele>1395</ele>
        <time>2020-10-24T12:56:18.111Z</time>
      </trkpt>
      <trkpt lat="46.47482" lon="8.26157">
        <ele>1394</ele>
        <time>2020-10-24T12:56:19.112Z</time>
      </trkpt>
      <trkpt lat="46.47481" lon="8.26155">
        <ele>1393</ele>
        <time>2020-10-24T12:56:20.112Z</time>
      </trkpt>
      <trkpt lat="46.47481" lon="8.26154">
        <ele>1393</ele>
        <time>2020-10-24T12:56:21.111Z</time>
      </trkpt>
      <trkpt lat="46.4748" lon="8.26152">
        <ele>1392</ele>
        <time>2020-10-24T12:56:22.111Z</time>
      </trkpt>
      <trkpt lat="46.4748" lon="8.2615">
        <ele>1391</ele>
        <time>2020-10-24T12:56:23.111Z</time>
      </trkpt>
      <trkpt lat="46.47479" lon="8.26149">
        <ele>1391</ele>
        <time>2020-10-24T12:56:24.112Z</time>
      </trkpt>
      <trkpt lat="46.47478" lon="8.26147">
        <ele>1390</ele>
        <time>2020-10-24T12:56:25.111Z</time>
      </trkpt>
      <trkpt lat="46.47478" lon="8.26146">
        <ele>1389</ele>
        <time>2020-10-24T12:56:26.111Z</time>
      </trkpt>
      <trkpt lat="46.47477" lon="8.26145">
        <ele>1389</ele>
        <time>2020-10-24T12:56:27.112Z</time>
      </trkpt>
      <trkpt lat="46.47476" lon="8.26143">
        <ele>1388</ele>
        <time>2020-10-24T12:56:28.111Z</time>
      </trkpt>
      <trkpt lat="46.47476" lon="8.26142">
        <ele>1387</ele>
        <time>2020-10-24T12:56:29.112Z</time>
      </trkpt>
      <trkpt lat="46.47475" lon="8.2614">
        <ele>1387</ele>
        <time>2020-10-24T12:56:30.112Z</time>
      </trkpt>
      <trkpt lat="46.47474" lon="8.26139">
        <ele>1386</ele>
        <time>2020-10-24T12:56:31.111Z</time>
      </trkpt>
      <trkpt lat="46.47473" lon="8.26138">
        <ele>1385</ele>
        <time>2020-10-24T12:56:32.111Z</time>
      </trkpt>
      <trkpt lat="46.47471" lon="8.26137">
        <ele>1384</ele>
        <time>2020-10-24T12:56:33.111Z</time>
      </trkpt>
      <trkpt lat="46.47469" lon="8.26137">
        <ele>1383</ele>
        <time>2020-10-24T12:56:34.111Z</time>
      </trkpt>
      <trkpt lat="46.47467" lon="8.26136">
        <ele>1382</ele>
        <time>2020-10-24T12:56:35.112Z</time>
      </trkpt>
      <trkpt lat="46.47469" lon="8.26138">
        <ele>1381</ele>
        <time>2020-10-24T12:56:36.111Z</time>
      </trkpt>
      <trkpt lat="46.47469" lon="8.26139">
        <ele>1380</ele>
        <time>2020-10-24T12:56:37.111Z</time>
      </trkpt>
      <trkpt lat="46.4747" lon="8.26139">
        <ele>1379</ele>
        <time>2020-10-24T12:56:38.111Z</time>
      </trkpt>
      <trkpt lat="46.47469" lon="8.26139">
        <ele>1378</ele>
        <time>2020-10-24T12:56:39.112Z</time>
      </trkpt>
      <trkpt lat="46.47466" lon="8.26138">
        <ele>1363</ele>
        <time>2020-10-24T12:56:40.112Z</time>
      </trkpt>
      <trkpt lat="46.47465" lon="8.26137">
        <ele>1362</ele>
        <time>2020-10-24T12:56:41.111Z</time>
      </trkpt>
      <trkpt lat="46.47465" lon="8.26137">
        <ele>1361</ele>
        <time>2020-10-24T12:56:42.111Z</time>
      </trkpt>
      <trkpt lat="46.47465" lon="8.26136">
        <ele>1361</ele>
        <time>2020-10-24T12:56:43.111Z</time>
      </trkpt>
      <trkpt lat="46.47464" lon="8.26134">
        <ele>1361</ele>
        <time>2020-10-24T12:56:44.111Z</time>
      </trkpt>
      <trkpt lat="46.47463" lon="8.26133">
        <ele>1361</ele>
        <time>2020-10-24T12:56:45.111Z</time>
      </trkpt>
      <trkpt lat="46.47463" lon="8.26132">
        <ele>1361</ele>
        <time>2020-10-24T12:56:46.111Z</time>
      </trkpt>
      <trkpt lat="46.47463" lon="8.26131">
        <ele>1361</ele>
        <time>2020-10-24T12:56:47.111Z</time>
      </trkpt>
      <trkpt lat="46.47462" lon="8.2613">
        <ele>1361</ele>
        <time>2020-10-24T12:56:48.111Z</time>
      </trkpt>
      <trkpt lat="46.47461" lon="8.26128">
        <ele>1361</ele>
        <time>2020-10-24T12:56:49.111Z</time>
      </trkpt>
      <trkpt lat="46.47461" lon="8.26127">
        <ele>1362</ele>
        <time>2020-10-24T12:56:50.112Z</time>
      </trkpt>
      <trkpt lat="46.4746" lon="8.26126">
        <ele>1362</ele>
        <time>2020-10-24T12:56:51.111Z</time>
      </trkpt>
      <trkpt lat="46.47459" lon="8.26124">
        <ele>1362</ele>
        <time>2020-10-24T12:56:52.111Z</time>
      </trkpt>
      <trkpt lat="46.47459" lon="8.26123">
        <ele>1362</ele>
        <time>2020-10-24T12:56:53.112Z</time>
      </trkpt>
      <trkpt lat="46.47459" lon="8.26121">
        <ele>1362</ele>
        <time>2020-10-24T12:56:54.112Z</time>
      </trkpt>
      <trkpt lat="46.47461" lon="8.2612">
        <ele>1362</ele>
        <time>2020-10-24T12:56:55.112Z</time>
      </trkpt>
      <trkpt lat="46.47463" lon="8.26119">
        <ele>1361</ele>
        <time>2020-10-24T12:56:56.112Z</time>
      </trkpt>
      <trkpt lat="46.47463" lon="8.26117">
        <ele>1361</ele>
        <time>2020-10-24T12:56:57.112Z</time>
      </trkpt>
      <trkpt lat="46.47464" lon="8.26116">
        <ele>1361</ele>
        <time>2020-10-24T12:56:58.112Z</time>
      </trkpt>
      <trkpt lat="46.47464" lon="8.26114">
        <ele>1361</ele>
        <time>2020-10-24T12:56:59.112Z</time>
      </trkpt>
      <trkpt lat="46.47464" lon="8.26112">
        <ele>1360</ele>
        <time>2020-10-24T12:57:00.112Z</time>
      </trkpt>
      <trkpt lat="46.47464" lon="8.26111">
        <ele>1360</ele>
        <time>2020-10-24T12:57:01.112Z</time>
      </trkpt>
      <trkpt lat="46.47464" lon="8.26109">
        <ele>1360</ele>
        <time>2020-10-24T12:57:02.112Z</time>
      </trkpt>
      <trkpt lat="46.47464" lon="8.26108">
        <ele>1360</ele>
        <time>2020-10-24T12:57:03.112Z</time>
      </trkpt>
      <trkpt lat="46.47464" lon="8.26107">
        <ele>1361</ele>
        <time>2020-10-24T12:57:04.112Z</time>
      </trkpt>
      <trkpt lat="46.47464" lon="8.26106">
        <ele>1361</ele>
        <time>2020-10-24T12:57:05.112Z</time>
      </trkpt>
      <trkpt lat="46.47464" lon="8.26105">
        <ele>1362</ele>
        <time>2020-10-24T12:57:06.111Z</time>
      </trkpt>
      <trkpt lat="46.47464" lon="8.26104">
        <ele>1362</ele>
        <time>2020-10-24T12:57:07.112Z</time>
      </trkpt>
      <trkpt lat="46.47463" lon="8.26104">
        <ele>1362</ele>
        <time>2020-10-24T12:57:08.112Z</time>
      </trkpt>
      <trkpt lat="46.47463" lon="8.26104">
        <ele>1363</ele>
        <time>2020-10-24T12:57:09.112Z</time>
      </trkpt>
      <trkpt lat="46.47463" lon="8.26102">
        <ele>1363</ele>
        <time>2020-10-24T12:57:10.111Z</time>
      </trkpt>
      <trkpt lat="46.47462" lon="8.26102">
        <ele>1363</ele>
        <time>2020-10-24T12:57:11.112Z</time>
      </trkpt>
      <trkpt lat="46.47458" lon="8.26102">
        <ele>1363</ele>
        <time>2020-10-24T12:57:12.112Z</time>
      </trkpt>
      <trkpt lat="46.47454" lon="8.26102">
        <ele>1362</ele>
        <time>2020-10-24T12:57:13.111Z</time>
      </trkpt>
      <trkpt lat="46.47452" lon="8.26102">
        <ele>1362</ele>
        <time>2020-10-24T12:57:14.112Z</time>
      </trkpt>
      <trkpt lat="46.4745" lon="8.26102">
        <ele>1361</ele>
        <time>2020-10-24T12:57:15.112Z</time>
      </trkpt>
      <trkpt lat="46.47448" lon="8.26101">
        <ele>1360</ele>
        <time>2020-10-24T12:57:16.111Z</time>
      </trkpt>
      <trkpt lat="46.47447" lon="8.26101">
        <ele>1358</ele>
        <time>2020-10-24T12:57:17.112Z</time>
      </trkpt>
      <trkpt lat="46.47446" lon="8.26101">
        <ele>1357</ele>
        <time>2020-10-24T12:57:18.112Z</time>
      </trkpt>
      <trkpt lat="46.47445" lon="8.26101">
        <ele>1356</ele>
        <time>2020-10-24T12:57:19.112Z</time>
      </trkpt>
      <trkpt lat="46.47444" lon="8.26101">
        <ele>1354</ele>
        <time>2020-10-24T12:57:20.112Z</time>
      </trkpt>
      <trkpt lat="46.47444" lon="8.26101">
        <ele>1353</ele>
        <time>2020-10-24T12:57:21.111Z</time>
      </trkpt>
      <trkpt lat="46.47445" lon="8.261">
        <ele>1352</ele>
        <time>2020-10-24T12:57:22.112Z</time>
      </trkpt>
      <trkpt lat="46.47445" lon="8.261">
        <ele>1352</ele>
        <time>2020-10-24T12:57:23.112Z</time>
      </trkpt>
      <trkpt lat="46.47445" lon="8.26098">
        <ele>1351</ele>
        <time>2020-10-24T12:57:24.111Z</time>
      </trkpt>
      <trkpt lat="46.47445" lon="8.26097">
        <ele>1351</ele>
        <time>2020-10-24T12:57:25.112Z</time>
      </trkpt>
      <trkpt lat="46.47445" lon="8.26096">
        <ele>1351</ele>
        <time>2020-10-24T12:57:26.112Z</time>
      </trkpt>
      <trkpt lat="46.47444" lon="8.26095">
        <ele>1351</ele>
        <time>2020-10-24T12:57:27.111Z</time>
      </trkpt>
      <trkpt lat="46.47444" lon="8.26094">
        <ele>1351</ele>
        <time>2020-10-24T12:57:28.112Z</time>
      </trkpt>
      <trkpt lat="46.47443" lon="8.26093">
        <ele>1351</ele>
        <time>2020-10-24T12:57:29.112Z</time>
      </trkpt>
      <trkpt lat="46.47442" lon="8.26092">
        <ele>1350</ele>
        <time>2020-10-24T12:57:30.111Z</time>
      </trkpt>
      <trkpt lat="46.47442" lon="8.26091">
        <ele>1350</ele>
        <time>2020-10-24T12:57:31.111Z</time>
      </trkpt>
      <trkpt lat="46.47441" lon="8.2609">
        <ele>1350</ele>
        <time>2020-10-24T12:57:32.112Z</time>
      </trkpt>
      <trkpt lat="46.47441" lon="8.26089">
        <ele>1350</ele>
        <time>2020-10-24T12:57:33.112Z</time>
      </trkpt>
      <trkpt lat="46.4744" lon="8.26088">
        <ele>1351</ele>
        <time>2020-10-24T12:57:34.112Z</time>
      </trkpt>
      <trkpt lat="46.4744" lon="8.26087">
        <ele>1351</ele>
        <time>2020-10-24T12:57:35.112Z</time>
      </trkpt>
      <trkpt lat="46.4744" lon="8.26086">
        <ele>1352</ele>
        <time>2020-10-24T12:57:36.112Z</time>
      </trkpt>
      <trkpt lat="46.47439" lon="8.26084">
        <ele>1353</ele>
        <time>2020-10-24T12:57:37.111Z</time>
      </trkpt>
      <trkpt lat="46.47439" lon="8.26083">
        <ele>1354</ele>
        <time>2020-10-24T12:57:38.112Z</time>
      </trkpt>
      <trkpt lat="46.47438" lon="8.26081">
        <ele>1354</ele>
        <time>2020-10-24T12:57:39.112Z</time>
      </trkpt>
      <trkpt lat="46.47437" lon="8.26079">
        <ele>1355</ele>
        <time>2020-10-24T12:57:40.112Z</time>
      </trkpt>
      <trkpt lat="46.47437" lon="8.26078">
        <ele>1356</ele>
        <time>2020-10-24T12:57:41.111Z</time>
      </trkpt>
      <trkpt lat="46.47436" lon="8.26077">
        <ele>1357</ele>
        <time>2020-10-24T12:57:42.111Z</time>
      </trkpt>
      <trkpt lat="46.47435" lon="8.26076">
        <ele>1358</ele>
        <time>2020-10-24T12:57:43.112Z</time>
      </trkpt>
      <trkpt lat="46.47434" lon="8.26074">
        <ele>1358</ele>
        <time>2020-10-24T12:57:44.112Z</time>
      </trkpt>
      <trkpt lat="46.47432" lon="8.26071">
        <ele>1359</ele>
        <time>2020-10-24T12:57:45.111Z</time>
      </trkpt>
      <trkpt lat="46.47431" lon="8.26069">
        <ele>1359</ele>
        <time>2020-10-24T12:57:46.112Z</time>
      </trkpt>
      <trkpt lat="46.4743" lon="8.26067">
        <ele>1360</ele>
        <time>2020-10-24T12:57:47.112Z</time>
      </trkpt>
      <trkpt lat="46.47429" lon="8.26066">
        <ele>1361</ele>
        <time>2020-10-24T12:57:48.111Z</time>
      </trkpt>
      <trkpt lat="46.47428" lon="8.26065">
        <ele>1362</ele>
        <time>2020-10-24T12:57:49.111Z</time>
      </trkpt>
      <trkpt lat="46.47427" lon="8.26064">
        <ele>1363</ele>
        <time>2020-10-24T12:57:50.112Z</time>
      </trkpt>
      <trkpt lat="46.47426" lon="8.26063">
        <ele>1363</ele>
        <time>2020-10-24T12:57:51.111Z</time>
      </trkpt>
      <trkpt lat="46.47426" lon="8.26063">
        <ele>1364</ele>
        <time>2020-10-24T12:57:52.111Z</time>
      </trkpt>
      <trkpt lat="46.47426" lon="8.26062">
        <ele>1365</ele>
        <time>2020-10-24T12:57:53.111Z</time>
      </trkpt>
      <trkpt lat="46.47425" lon="8.2606">
        <ele>1365</ele>
        <time>2020-10-24T12:57:54.111Z</time>
      </trkpt>
      <trkpt lat="46.47424" lon="8.26058">
        <ele>1366</ele>
        <time>2020-10-24T12:57:55.111Z</time>
      </trkpt>
      <trkpt lat="46.47422" lon="8.26057">
        <ele>1367</ele>
        <time>2020-10-24T12:57:56.112Z</time>
      </trkpt>
      <trkpt lat="46.47422" lon="8.26055">
        <ele>1367</ele>
        <time>2020-10-24T12:57:57.111Z</time>
      </trkpt>
      <trkpt lat="46.47421" lon="8.26054">
        <ele>1368</ele>
        <time>2020-10-24T12:57:58.111Z</time>
      </trkpt>
      <trkpt lat="46.4742" lon="8.26053">
        <ele>1369</ele>
        <time>2020-10-24T12:57:59.112Z</time>
      </trkpt>
      <trkpt lat="46.4742" lon="8.26052">
        <ele>1370</ele>
        <time>2020-10-24T12:58:00.112Z</time>
      </trkpt>
      <trkpt lat="46.47419" lon="8.26051">
        <ele>1370</ele>
        <time>2020-10-24T12:58:01.112Z</time>
      </trkpt>
      <trkpt lat="46.47419" lon="8.26051">
        <ele>1371</ele>
        <time>2020-10-24T12:58:02.112Z</time>
      </trkpt>
      <trkpt lat="46.47418" lon="8.2605">
        <ele>1372</ele>
        <time>2020-10-24T12:58:03.113Z</time>
      </trkpt>
      <trkpt lat="46.47418" lon="8.2605">
        <ele>1372</ele>
        <time>2020-10-24T12:58:04.113Z</time>
      </trkpt>
      <trkpt lat="46.47418" lon="8.2605">
        <ele>1371</ele>
        <time>2020-10-24T12:58:05.113Z</time>
      </trkpt>
      <trkpt lat="46.47417" lon="8.26051">
        <ele>1371</ele>
        <time>2020-10-24T12:58:06.113Z</time>
      </trkpt>
      <trkpt lat="46.47416" lon="8.2605">
        <ele>1370</ele>
        <time>2020-10-24T12:58:07.113Z</time>
      </trkpt>
      <trkpt lat="46.47416" lon="8.26051">
        <ele>1370</ele>
        <time>2020-10-24T12:58:08.113Z</time>
      </trkpt>
      <trkpt lat="46.47415" lon="8.26049">
        <ele>1369</ele>
        <time>2020-10-24T12:58:09.112Z</time>
      </trkpt>
      <trkpt lat="46.47415" lon="8.26048">
        <ele>1369</ele>
        <time>2020-10-24T12:58:10.113Z</time>
      </trkpt>
      <trkpt lat="46.47414" lon="8.26046">
        <ele>1369</ele>
        <time>2020-10-24T12:58:11.113Z</time>
      </trkpt>
      <trkpt lat="46.47413" lon="8.26045">
        <ele>1368</ele>
        <time>2020-10-24T12:58:12.112Z</time>
      </trkpt>
      <trkpt lat="46.47413" lon="8.26044">
        <ele>1368</ele>
        <time>2020-10-24T12:58:13.113Z</time>
      </trkpt>
      <trkpt lat="46.47411" lon="8.26043">
        <ele>1369</ele>
        <time>2020-10-24T12:58:14.113Z</time>
      </trkpt>
      <trkpt lat="46.4741" lon="8.2604">
        <ele>1370</ele>
        <time>2020-10-24T12:58:15.113Z</time>
      </trkpt>
      <trkpt lat="46.47409" lon="8.26038">
        <ele>1371</ele>
        <time>2020-10-24T12:58:16.113Z</time>
      </trkpt>
      <trkpt lat="46.47408" lon="8.26037">
        <ele>1371</ele>
        <time>2020-10-24T12:58:17.112Z</time>
      </trkpt>
      <trkpt lat="46.47406" lon="8.26036">
        <ele>1372</ele>
        <time>2020-10-24T12:58:18.112Z</time>
      </trkpt>
      <trkpt lat="46.47405" lon="8.26036">
        <ele>1373</ele>
        <time>2020-10-24T12:58:19.113Z</time>
      </trkpt>
      <trkpt lat="46.47404" lon="8.26036">
        <ele>1373</ele>
        <time>2020-10-24T12:58:20.113Z</time>
      </trkpt>
      <trkpt lat="46.47402" lon="8.26036">
        <ele>1373</ele>
        <time>2020-10-24T12:58:21.113Z</time>
      </trkpt>
      <trkpt lat="46.47401" lon="8.26036">
        <ele>1374</ele>
        <time>2020-10-24T12:58:22.112Z</time>
      </trkpt>
      <trkpt lat="46.474" lon="8.26035">
        <ele>1373</ele>
        <time>2020-10-24T12:58:23.113Z</time>
      </trkpt>
      <trkpt lat="46.47398" lon="8.26035">
        <ele>1373</ele>
        <time>2020-10-24T12:58:24.113Z</time>
      </trkpt>
      <trkpt lat="46.47397" lon="8.26034">
        <ele>1373</ele>
        <time>2020-10-24T12:58:25.113Z</time>
      </trkpt>
      <trkpt lat="46.47396" lon="8.26034">
        <ele>1372</ele>
        <time>2020-10-24T12:58:26.113Z</time>
      </trkpt>
      <trkpt lat="46.47395" lon="8.26034">
        <ele>1372</ele>
        <time>2020-10-24T12:58:27.112Z</time>
      </trkpt>
      <trkpt lat="46.47394" lon="8.26033">
        <ele>1371</ele>
        <time>2020-10-24T12:58:28.113Z</time>
      </trkpt>
      <trkpt lat="46.47392" lon="8.26033">
        <ele>1371</ele>
        <time>2020-10-24T12:58:29.113Z</time>
      </trkpt>
      <trkpt lat="46.47391" lon="8.26031">
        <ele>1370</ele>
        <time>2020-10-24T12:58:30.113Z</time>
      </trkpt>
      <trkpt lat="46.47389" lon="8.2603">
        <ele>1370</ele>
        <time>2020-10-24T12:58:31.113Z</time>
      </trkpt>
      <trkpt lat="46.47387" lon="8.26029">
        <ele>1370</ele>
        <time>2020-10-24T12:58:32.112Z</time>
      </trkpt>
      <trkpt lat="46.47386" lon="8.26028">
        <ele>1370</ele>
        <time>2020-10-24T12:58:33.112Z</time>
      </trkpt>
      <trkpt lat="46.47384" lon="8.26028">
        <ele>1369</ele>
        <time>2020-10-24T12:58:34.112Z</time>
      </trkpt>
      <trkpt lat="46.47383" lon="8.26028">
        <ele>1369</ele>
        <time>2020-10-24T12:58:35.112Z</time>
      </trkpt>
      <trkpt lat="46.47381" lon="8.26028">
        <ele>1368</ele>
        <time>2020-10-24T12:58:36.113Z</time>
      </trkpt>
      <trkpt lat="46.4738" lon="8.26028">
        <ele>1367</ele>
        <time>2020-10-24T12:58:37.113Z</time>
      </trkpt>
      <trkpt lat="46.47379" lon="8.26027">
        <ele>1367</ele>
        <time>2020-10-24T12:58:38.113Z</time>
      </trkpt>
      <trkpt lat="46.47378" lon="8.26027">
        <ele>1366</ele>
        <time>2020-10-24T12:58:39.113Z</time>
      </trkpt>
      <trkpt lat="46.47376" lon="8.26026">
        <ele>1366</ele>
        <time>2020-10-24T12:58:40.112Z</time>
      </trkpt>
      <trkpt lat="46.47375" lon="8.26026">
        <ele>1366</ele>
        <time>2020-10-24T12:58:41.113Z</time>
      </trkpt>
      <trkpt lat="46.47375" lon="8.26025">
        <ele>1365</ele>
        <time>2020-10-24T12:58:42.112Z</time>
      </trkpt>
      <trkpt lat="46.47374" lon="8.26025">
        <ele>1365</ele>
        <time>2020-10-24T12:58:43.113Z</time>
      </trkpt>
      <trkpt lat="46.47374" lon="8.26024">
        <ele>1364</ele>
        <time>2020-10-24T12:58:44.112Z</time>
      </trkpt>
      <trkpt lat="46.47373" lon="8.26023">
        <ele>1363</ele>
        <time>2020-10-24T12:58:45.113Z</time>
      </trkpt>
      <trkpt lat="46.47373" lon="8.26022">
        <ele>1363</ele>
        <time>2020-10-24T12:58:46.113Z</time>
      </trkpt>
      <trkpt lat="46.47373" lon="8.2602">
        <ele>1362</ele>
        <time>2020-10-24T12:58:47.113Z</time>
      </trkpt>
      <trkpt lat="46.47373" lon="8.26019">
        <ele>1362</ele>
        <time>2020-10-24T12:58:48.113Z</time>
      </trkpt>
      <trkpt lat="46.47373" lon="8.26017">
        <ele>1362</ele>
        <time>2020-10-24T12:58:49.112Z</time>
      </trkpt>
      <trkpt lat="46.47373" lon="8.26015">
        <ele>1362</ele>
        <time>2020-10-24T12:58:50.113Z</time>
      </trkpt>
      <trkpt lat="46.47373" lon="8.26014">
        <ele>1362</ele>
        <time>2020-10-24T12:58:51.113Z</time>
      </trkpt>
      <trkpt lat="46.47374" lon="8.26013">
        <ele>1362</ele>
        <time>2020-10-24T12:58:52.113Z</time>
      </trkpt>
      <trkpt lat="46.47374" lon="8.26011">
        <ele>1362</ele>
        <time>2020-10-24T12:58:53.113Z</time>
      </trkpt>
      <trkpt lat="46.47375" lon="8.2601">
        <ele>1362</ele>
        <time>2020-10-24T12:58:54.113Z</time>
      </trkpt>
      <trkpt lat="46.47376" lon="8.26009">
        <ele>1363</ele>
        <time>2020-10-24T12:58:55.112Z</time>
      </trkpt>
      <trkpt lat="46.47376" lon="8.26008">
        <ele>1363</ele>
        <time>2020-10-24T12:58:56.113Z</time>
      </trkpt>
      <trkpt lat="46.47377" lon="8.26008">
        <ele>1362</ele>
        <time>2020-10-24T12:58:57.113Z</time>
      </trkpt>
      <trkpt lat="46.47378" lon="8.26007">
        <ele>1362</ele>
        <time>2020-10-24T12:58:58.112Z</time>
      </trkpt>
      <trkpt lat="46.47378" lon="8.26006">
        <ele>1361</ele>
        <time>2020-10-24T12:58:59.112Z</time>
      </trkpt>
      <trkpt lat="46.47379" lon="8.26004">
        <ele>1361</ele>
        <time>2020-10-24T12:59:00.113Z</time>
      </trkpt>
      <trkpt lat="46.47379" lon="8.26003">
        <ele>1360</ele>
        <time>2020-10-24T12:59:01.112Z</time>
      </trkpt>
      <trkpt lat="46.47379" lon="8.26002">
        <ele>1360</ele>
        <time>2020-10-24T12:59:02.112Z</time>
      </trkpt>
      <trkpt lat="46.47381" lon="8.26002">
        <ele>1359</ele>
        <time>2020-10-24T12:59:03.113Z</time>
      </trkpt>
      <trkpt lat="46.47381" lon="8.26001">
        <ele>1359</ele>
        <time>2020-10-24T12:59:04.113Z</time>
      </trkpt>
      <trkpt lat="46.47382" lon="8.26">
        <ele>1359</ele>
        <time>2020-10-24T12:59:05.113Z</time>
      </trkpt>
      <trkpt lat="46.47382" lon="8.25998">
        <ele>1359</ele>
        <time>2020-10-24T12:59:06.113Z</time>
      </trkpt>
      <trkpt lat="46.47383" lon="8.25997">
        <ele>1358</ele>
        <time>2020-10-24T12:59:07.112Z</time>
      </trkpt>
      <trkpt lat="46.47384" lon="8.25996">
        <ele>1358</ele>
        <time>2020-10-24T12:59:08.113Z</time>
      </trkpt>
      <trkpt lat="46.47385" lon="8.25995">
        <ele>1358</ele>
        <time>2020-10-24T12:59:09.113Z</time>
      </trkpt>
      <trkpt lat="46.47386" lon="8.25993">
        <ele>1358</ele>
        <time>2020-10-24T12:59:10.113Z</time>
      </trkpt>
      <trkpt lat="46.47386" lon="8.25992">
        <ele>1357</ele>
        <time>2020-10-24T12:59:11.112Z</time>
      </trkpt>
      <trkpt lat="46.47386" lon="8.2599">
        <ele>1356</ele>
        <time>2020-10-24T12:59:12.112Z</time>
      </trkpt>
      <trkpt lat="46.47386" lon="8.25989">
        <ele>1356</ele>
        <time>2020-10-24T12:59:13.112Z</time>
      </trkpt>
      <trkpt lat="46.47387" lon="8.25988">
        <ele>1355</ele>
        <time>2020-10-24T12:59:14.113Z</time>
      </trkpt>
      <trkpt lat="46.47387" lon="8.25986">
        <ele>1355</ele>
        <time>2020-10-24T12:59:15.113Z</time>
      </trkpt>
      <trkpt lat="46.47387" lon="8.25985">
        <ele>1354</ele>
        <time>2020-10-24T12:59:16.113Z</time>
      </trkpt>
      <trkpt lat="46.47388" lon="8.25983">
        <ele>1354</ele>
        <time>2020-10-24T12:59:17.112Z</time>
      </trkpt>
      <trkpt lat="46.47389" lon="8.25982">
        <ele>1353</ele>
        <time>2020-10-24T12:59:18.113Z</time>
      </trkpt>
      <trkpt lat="46.47389" lon="8.2598">
        <ele>1353</ele>
        <time>2020-10-24T12:59:19.113Z</time>
      </trkpt>
      <trkpt lat="46.4739" lon="8.25979">
        <ele>1353</ele>
        <time>2020-10-24T12:59:20.112Z</time>
      </trkpt>
      <trkpt lat="46.47392" lon="8.25977">
        <ele>1352</ele>
        <time>2020-10-24T12:59:21.112Z</time>
      </trkpt>
      <trkpt lat="46.47391" lon="8.25976">
        <ele>1352</ele>
        <time>2020-10-24T12:59:22.113Z</time>
      </trkpt>
      <trkpt lat="46.4739" lon="8.25974">
        <ele>1351</ele>
        <time>2020-10-24T12:59:23.113Z</time>
      </trkpt>
      <trkpt lat="46.47389" lon="8.25972">
        <ele>1351</ele>
        <time>2020-10-24T12:59:24.113Z</time>
      </trkpt>
      <trkpt lat="46.47388" lon="8.25971">
        <ele>1350</ele>
        <time>2020-10-24T12:59:25.113Z</time>
      </trkpt>
      <trkpt lat="46.47388" lon="8.25969">
        <ele>1350</ele>
        <time>2020-10-24T12:59:26.113Z</time>
      </trkpt>
      <trkpt lat="46.47388" lon="8.25967">
        <ele>1349</ele>
        <time>2020-10-24T12:59:27.113Z</time>
      </trkpt>
      <trkpt lat="46.47387" lon="8.25966">
        <ele>1349</ele>
        <time>2020-10-24T12:59:28.112Z</time>
      </trkpt>
      <trkpt lat="46.47387" lon="8.25964">
        <ele>1349</ele>
        <time>2020-10-24T12:59:29.113Z</time>
      </trkpt>
      <trkpt lat="46.47386" lon="8.25963">
        <ele>1348</ele>
        <time>2020-10-24T12:59:30.113Z</time>
      </trkpt>
      <trkpt lat="46.47386" lon="8.25961">
        <ele>1348</ele>
        <time>2020-10-24T12:59:31.113Z</time>
      </trkpt>
      <trkpt lat="46.47386" lon="8.2596">
        <ele>1348</ele>
        <time>2020-10-24T12:59:32.113Z</time>
      </trkpt>
      <trkpt lat="46.47385" lon="8.25958">
        <ele>1347</ele>
        <time>2020-10-24T12:59:33.113Z</time>
      </trkpt>
      <trkpt lat="46.47384" lon="8.25957">
        <ele>1347</ele>
        <time>2020-10-24T12:59:34.112Z</time>
      </trkpt>
      <trkpt lat="46.47384" lon="8.25955">
        <ele>1347</ele>
        <time>2020-10-24T12:59:35.113Z</time>
      </trkpt>
      <trkpt lat="46.47383" lon="8.25953">
        <ele>1346</ele>
        <time>2020-10-24T12:59:36.112Z</time>
      </trkpt>
      <trkpt lat="46.47382" lon="8.25952">
        <ele>1345</ele>
        <time>2020-10-24T12:59:37.112Z</time>
      </trkpt>
      <trkpt lat="46.47381" lon="8.2595">
        <ele>1345</ele>
        <time>2020-10-24T12:59:38.112Z</time>
      </trkpt>
      <trkpt lat="46.47381" lon="8.25948">
        <ele>1344</ele>
        <time>2020-10-24T12:59:39.113Z</time>
      </trkpt>
      <trkpt lat="46.47381" lon="8.25946">
        <ele>1344</ele>
        <time>2020-10-24T12:59:40.112Z</time>
      </trkpt>
      <trkpt lat="46.47382" lon="8.25944">
        <ele>1343</ele>
        <time>2020-10-24T12:59:41.112Z</time>
      </trkpt>
      <trkpt lat="46.47381" lon="8.25942">
        <ele>1342</ele>
        <time>2020-10-24T12:59:42.112Z</time>
      </trkpt>
      <trkpt lat="46.47381" lon="8.2594">
        <ele>1342</ele>
        <time>2020-10-24T12:59:43.113Z</time>
      </trkpt>
      <trkpt lat="46.47381" lon="8.25939">
        <ele>1341</ele>
        <time>2020-10-24T12:59:44.113Z</time>
      </trkpt>
      <trkpt lat="46.47381" lon="8.25937">
        <ele>1341</ele>
        <time>2020-10-24T12:59:45.112Z</time>
      </trkpt>
      <trkpt lat="46.47381" lon="8.25935">
        <ele>1341</ele>
        <time>2020-10-24T12:59:46.113Z</time>
      </trkpt>
      <trkpt lat="46.47382" lon="8.25934">
        <ele>1340</ele>
        <time>2020-10-24T12:59:47.112Z</time>
      </trkpt>
      <trkpt lat="46.47382" lon="8.25932">
        <ele>1340</ele>
        <time>2020-10-24T12:59:48.112Z</time>
      </trkpt>
      <trkpt lat="46.47382" lon="8.25931">
        <ele>1340</ele>
        <time>2020-10-24T12:59:49.112Z</time>
      </trkpt>
      <trkpt lat="46.47382" lon="8.2593">
        <ele>1340</ele>
        <time>2020-10-24T12:59:50.112Z</time>
      </trkpt>
      <trkpt lat="46.47381" lon="8.25929">
        <ele>1340</ele>
        <time>2020-10-24T12:59:51.112Z</time>
      </trkpt>
      <trkpt lat="46.47381" lon="8.25928">
        <ele>1340</ele>
        <time>2020-10-24T12:59:52.112Z</time>
      </trkpt>
      <trkpt lat="46.4738" lon="8.25928">
        <ele>1340</ele>
        <time>2020-10-24T12:59:53.112Z</time>
      </trkpt>
      <trkpt lat="46.4738" lon="8.25926">
        <ele>1340</ele>
        <time>2020-10-24T12:59:54.113Z</time>
      </trkpt>
      <trkpt lat="46.47381" lon="8.25925">
        <ele>1340</ele>
        <time>2020-10-24T12:59:55.113Z</time>
      </trkpt>
      <trkpt lat="46.47381" lon="8.25925">
        <ele>1340</ele>
        <time>2020-10-24T12:59:56.112Z</time>
      </trkpt>
      <trkpt lat="46.47381" lon="8.25924">
        <ele>1340</ele>
        <time>2020-10-24T12:59:57.112Z</time>
      </trkpt>
      <trkpt lat="46.47381" lon="8.25924">
        <ele>1340</ele>
        <time>2020-10-24T12:59:58.113Z</time>
      </trkpt>
      <trkpt lat="46.47382" lon="8.25923">
        <ele>1340</ele>
        <time>2020-10-24T12:59:59.112Z</time>
      </trkpt>
      <trkpt lat="46.47383" lon="8.25923">
        <ele>1340</ele>
        <time>2020-10-24T13:00:00.112Z</time>
      </trkpt>
      <trkpt lat="46.47384" lon="8.25921">
        <ele>1340</ele>
        <time>2020-10-24T13:00:01.113Z</time>
      </trkpt>
      <trkpt lat="46.47386" lon="8.2592">
        <ele>1340</ele>
        <time>2020-10-24T13:00:02.112Z</time>
      </trkpt>
      <trkpt lat="46.47388" lon="8.25919">
        <ele>1340</ele>
        <time>2020-10-24T13:00:03.113Z</time>
      </trkpt>
      <trkpt lat="46.47391" lon="8.25918">
        <ele>1340</ele>
        <time>2020-10-24T13:00:04.113Z</time>
      </trkpt>
      <trkpt lat="46.47393" lon="8.25917">
        <ele>1339</ele>
        <time>2020-10-24T13:00:05.113Z</time>
      </trkpt>
      <trkpt lat="46.47397" lon="8.25915">
        <ele>1339</ele>
        <time>2020-10-24T13:00:06.112Z</time>
      </trkpt>
      <trkpt lat="46.47399" lon="8.25913">
        <ele>1339</ele>
        <time>2020-10-24T13:00:07.113Z</time>
      </trkpt>
      <trkpt lat="46.47401" lon="8.2591">
        <ele>1339</ele>
        <time>2020-10-24T13:00:08.113Z</time>
      </trkpt>
      <trkpt lat="46.47403" lon="8.25909">
        <ele>1339</ele>
        <time>2020-10-24T13:00:09.113Z</time>
      </trkpt>
      <trkpt lat="46.47404" lon="8.25908">
        <ele>1339</ele>
        <time>2020-10-24T13:00:10.113Z</time>
      </trkpt>
      <trkpt lat="46.47404" lon="8.25906">
        <ele>1338</ele>
        <time>2020-10-24T13:00:11.112Z</time>
      </trkpt>
      <trkpt lat="46.47404" lon="8.25904">
        <ele>1338</ele>
        <time>2020-10-24T13:00:12.112Z</time>
      </trkpt>
      <trkpt lat="46.47403" lon="8.25903">
        <ele>1337</ele>
        <time>2020-10-24T13:00:13.112Z</time>
      </trkpt>
      <trkpt lat="46.47403" lon="8.25902">
        <ele>1337</ele>
        <time>2020-10-24T13:00:14.112Z</time>
      </trkpt>
      <trkpt lat="46.474" lon="8.259">
        <ele>1336</ele>
        <time>2020-10-24T13:00:15.113Z</time>
      </trkpt>
      <trkpt lat="46.47399" lon="8.25898">
        <ele>1336</ele>
        <time>2020-10-24T13:00:16.113Z</time>
      </trkpt>
      <trkpt lat="46.47398" lon="8.25897">
        <ele>1336</ele>
        <time>2020-10-24T13:00:17.112Z</time>
      </trkpt>
      <trkpt lat="46.47399" lon="8.25897">
        <ele>1336</ele>
        <time>2020-10-24T13:00:18.113Z</time>
      </trkpt>
      <trkpt lat="46.47399" lon="8.25896">
        <ele>1336</ele>
        <time>2020-10-24T13:00:19.113Z</time>
      </trkpt>
      <trkpt lat="46.47399" lon="8.25896">
        <ele>1335</ele>
        <time>2020-10-24T13:00:20.113Z</time>
      </trkpt>
      <trkpt lat="46.47399" lon="8.25895">
        <ele>1335</ele>
        <time>2020-10-24T13:00:21.113Z</time>
      </trkpt>
      <trkpt lat="46.47398" lon="8.25895">
        <ele>1335</ele>
        <time>2020-10-24T13:00:22.112Z</time>
      </trkpt>
      <trkpt lat="46.47398" lon="8.25895">
        <ele>1335</ele>
        <time>2020-10-24T13:00:23.112Z</time>
      </trkpt>
      <trkpt lat="46.47399" lon="8.25895">
        <ele>1335</ele>
        <time>2020-10-24T13:00:24.112Z</time>
      </trkpt>
      <trkpt lat="46.47399" lon="8.25895">
        <ele>1334</ele>
        <time>2020-10-24T13:00:25.113Z</time>
      </trkpt>
      <trkpt lat="46.474" lon="8.25895">
        <ele>1333</ele>
        <time>2020-10-24T13:00:26.113Z</time>
      </trkpt>
      <trkpt lat="46.47401" lon="8.25893">
        <ele>1333</ele>
        <time>2020-10-24T13:00:27.112Z</time>
      </trkpt>
      <trkpt lat="46.47401" lon="8.25892">
        <ele>1332</ele>
        <time>2020-10-24T13:00:28.113Z</time>
      </trkpt>
      <trkpt lat="46.47402" lon="8.2589">
        <ele>1332</ele>
        <time>2020-10-24T13:00:29.112Z</time>
      </trkpt>
      <trkpt lat="46.47401" lon="8.25888">
        <ele>1331</ele>
        <time>2020-10-24T13:00:30.113Z</time>
      </trkpt>
      <trkpt lat="46.474" lon="8.25886">
        <ele>1330</ele>
        <time>2020-10-24T13:00:31.113Z</time>
      </trkpt>
      <trkpt lat="46.47398" lon="8.25885">
        <ele>1330</ele>
        <time>2020-10-24T13:00:32.113Z</time>
      </trkpt>
      <trkpt lat="46.47399" lon="8.25884">
        <ele>1330</ele>
        <time>2020-10-24T13:00:33.113Z</time>
      </trkpt>
      <trkpt lat="46.47399" lon="8.25882">
        <ele>1330</ele>
        <time>2020-10-24T13:00:34.113Z</time>
      </trkpt>
      <trkpt lat="46.474" lon="8.2588">
        <ele>1330</ele>
        <time>2020-10-24T13:00:35.112Z</time>
      </trkpt>
      <trkpt lat="46.474" lon="8.25879">
        <ele>1331</ele>
        <time>2020-10-24T13:00:36.113Z</time>
      </trkpt>
      <trkpt lat="46.47399" lon="8.25878">
        <ele>1331</ele>
        <time>2020-10-24T13:00:37.113Z</time>
      </trkpt>
      <trkpt lat="46.47399" lon="8.25878">
        <ele>1331</ele>
        <time>2020-10-24T13:00:38.112Z</time>
      </trkpt>
      <trkpt lat="46.47399" lon="8.25877">
        <ele>1331</ele>
        <time>2020-10-24T13:00:39.113Z</time>
      </trkpt>
      <trkpt lat="46.47399" lon="8.25877">
        <ele>1330</ele>
        <time>2020-10-24T13:00:40.112Z</time>
      </trkpt>
      <trkpt lat="46.47399" lon="8.25877">
        <ele>1330</ele>
        <time>2020-10-24T13:00:41.113Z</time>
      </trkpt>
      <trkpt lat="46.47399" lon="8.25876">
        <ele>1330</ele>
        <time>2020-10-24T13:00:42.113Z</time>
      </trkpt>
      <trkpt lat="46.474" lon="8.25875">
        <ele>1330</ele>
        <time>2020-10-24T13:00:43.112Z</time>
      </trkpt>
      <trkpt lat="46.474" lon="8.25874">
        <ele>1329</ele>
        <time>2020-10-24T13:00:44.112Z</time>
      </trkpt>
      <trkpt lat="46.474" lon="8.25873">
        <ele>1329</ele>
        <time>2020-10-24T13:00:45.112Z</time>
      </trkpt>
      <trkpt lat="46.47401" lon="8.25871">
        <ele>1329</ele>
        <time>2020-10-24T13:00:46.112Z</time>
      </trkpt>
      <trkpt lat="46.47401" lon="8.25869">
        <ele>1329</ele>
        <time>2020-10-24T13:00:47.112Z</time>
      </trkpt>
      <trkpt lat="46.47403" lon="8.25868">
        <ele>1328</ele>
        <time>2020-10-24T13:00:48.112Z</time>
      </trkpt>
      <trkpt lat="46.47404" lon="8.25867">
        <ele>1328</ele>
        <time>2020-10-24T13:00:49.112Z</time>
      </trkpt>
      <trkpt lat="46.47406" lon="8.25865">
        <ele>1329</ele>
        <time>2020-10-24T13:00:50.113Z</time>
      </trkpt>
      <trkpt lat="46.47408" lon="8.25864">
        <ele>1329</ele>
        <time>2020-10-24T13:00:51.112Z</time>
      </trkpt>
      <trkpt lat="46.47409" lon="8.25862">
        <ele>1329</ele>
        <time>2020-10-24T13:00:52.113Z</time>
      </trkpt>
      <trkpt lat="46.47411" lon="8.2586">
        <ele>1329</ele>
        <time>2020-10-24T13:00:53.112Z</time>
      </trkpt>
      <trkpt lat="46.47412" lon="8.25858">
        <ele>1330</ele>
        <time>2020-10-24T13:00:54.113Z</time>
      </trkpt>
      <trkpt lat="46.47412" lon="8.25856">
        <ele>1331</ele>
        <time>2020-10-24T13:00:55.112Z</time>
      </trkpt>
      <trkpt lat="46.47411" lon="8.25855">
        <ele>1331</ele>
        <time>2020-10-24T13:00:56.112Z</time>
      </trkpt>
      <trkpt lat="46.4741" lon="8.25853">
        <ele>1331</ele>
        <time>2020-10-24T13:00:57.112Z</time>
      </trkpt>
      <trkpt lat="46.47409" lon="8.25851">
        <ele>1331</ele>
        <time>2020-10-24T13:00:58.113Z</time>
      </trkpt>
      <trkpt lat="46.47409" lon="8.2585">
        <ele>1332</ele>
        <time>2020-10-24T13:00:59.113Z</time>
      </trkpt>
      <trkpt lat="46.47409" lon="8.25849">
        <ele>1332</ele>
        <time>2020-10-24T13:01:00.113Z</time>
      </trkpt>
      <trkpt lat="46.47409" lon="8.25848">
        <ele>1333</ele>
        <time>2020-10-24T13:01:01.113Z</time>
      </trkpt>
      <trkpt lat="46.47409" lon="8.25847">
        <ele>1333</ele>
        <time>2020-10-24T13:01:02.113Z</time>
      </trkpt>
      <trkpt lat="46.4741" lon="8.25845">
        <ele>1334</ele>
        <time>2020-10-24T13:01:03.112Z</time>
      </trkpt>
      <trkpt lat="46.4741" lon="8.25844">
        <ele>1335</ele>
        <time>2020-10-24T13:01:04.113Z</time>
      </trkpt>
      <trkpt lat="46.47408" lon="8.25843">
        <ele>1335</ele>
        <time>2020-10-24T13:01:05.113Z</time>
      </trkpt>
      <trkpt lat="46.47408" lon="8.25842">
        <ele>1335</ele>
        <time>2020-10-24T13:01:06.113Z</time>
      </trkpt>
      <trkpt lat="46.47408" lon="8.25841">
        <ele>1334</ele>
        <time>2020-10-24T13:01:07.113Z</time>
      </trkpt>
      <trkpt lat="46.47411" lon="8.2584">
        <ele>1334</ele>
        <time>2020-10-24T13:01:08.113Z</time>
      </trkpt>
      <trkpt lat="46.4741" lon="8.25838">
        <ele>1334</ele>
        <time>2020-10-24T13:01:09.113Z</time>
      </trkpt>
      <trkpt lat="46.47409" lon="8.25836">
        <ele>1334</ele>
        <time>2020-10-24T13:01:10.113Z</time>
      </trkpt>
      <trkpt lat="46.47409" lon="8.25835">
        <ele>1334</ele>
        <time>2020-10-24T13:01:11.113Z</time>
      </trkpt>
      <trkpt lat="46.4741" lon="8.25834">
        <ele>1334</ele>
        <time>2020-10-24T13:01:12.112Z</time>
      </trkpt>
      <trkpt lat="46.4741" lon="8.25832">
        <ele>1334</ele>
        <time>2020-10-24T13:01:13.113Z</time>
      </trkpt>
      <trkpt lat="46.4741" lon="8.25831">
        <ele>1335</ele>
        <time>2020-10-24T13:01:14.113Z</time>
      </trkpt>
      <trkpt lat="46.4741" lon="8.25829">
        <ele>1335</ele>
        <time>2020-10-24T13:01:15.113Z</time>
      </trkpt>
      <trkpt lat="46.47411" lon="8.25826">
        <ele>1334</ele>
        <time>2020-10-24T13:01:16.113Z</time>
      </trkpt>
      <trkpt lat="46.47412" lon="8.25824">
        <ele>1334</ele>
        <time>2020-10-24T13:01:17.112Z</time>
      </trkpt>
      <trkpt lat="46.47414" lon="8.25823">
        <ele>1334</ele>
        <time>2020-10-24T13:01:18.113Z</time>
      </trkpt>
      <trkpt lat="46.47415" lon="8.25821">
        <ele>1333</ele>
        <time>2020-10-24T13:01:19.112Z</time>
      </trkpt>
      <trkpt lat="46.47415" lon="8.25819">
        <ele>1333</ele>
        <time>2020-10-24T13:01:20.112Z</time>
      </trkpt>
      <trkpt lat="46.47415" lon="8.25818">
        <ele>1334</ele>
        <time>2020-10-24T13:01:21.113Z</time>
      </trkpt>
      <trkpt lat="46.47414" lon="8.25817">
        <ele>1334</ele>
        <time>2020-10-24T13:01:22.113Z</time>
      </trkpt>
      <trkpt lat="46.47413" lon="8.25816">
        <ele>1334</ele>
        <time>2020-10-24T13:01:23.112Z</time>
      </trkpt>
      <trkpt lat="46.47412" lon="8.25815">
        <ele>1334</ele>
        <time>2020-10-24T13:01:24.113Z</time>
      </trkpt>
      <trkpt lat="46.47412" lon="8.25814">
        <ele>1333</ele>
        <time>2020-10-24T13:01:25.113Z</time>
      </trkpt>
      <trkpt lat="46.47411" lon="8.25812">
        <ele>1332</ele>
        <time>2020-10-24T13:01:26.113Z</time>
      </trkpt>
      <trkpt lat="46.47411" lon="8.2581">
        <ele>1332</ele>
        <time>2020-10-24T13:01:27.113Z</time>
      </trkpt>
      <trkpt lat="46.4741" lon="8.25808">
        <ele>1332</ele>
        <time>2020-10-24T13:01:28.113Z</time>
      </trkpt>
      <trkpt lat="46.4741" lon="8.25807">
        <ele>1331</ele>
        <time>2020-10-24T13:01:29.113Z</time>
      </trkpt>
      <trkpt lat="46.47409" lon="8.25806">
        <ele>1331</ele>
        <time>2020-10-24T13:01:30.113Z</time>
      </trkpt>
      <trkpt lat="46.47408" lon="8.25805">
        <ele>1330</ele>
        <time>2020-10-24T13:01:31.113Z</time>
      </trkpt>
      <trkpt lat="46.47408" lon="8.25803">
        <ele>1330</ele>
        <time>2020-10-24T13:01:32.113Z</time>
      </trkpt>
      <trkpt lat="46.47408" lon="8.25801">
        <ele>1330</ele>
        <time>2020-10-24T13:01:33.113Z</time>
      </trkpt>
      <trkpt lat="46.47408" lon="8.25799">
        <ele>1329</ele>
        <time>2020-10-24T13:01:34.113Z</time>
      </trkpt>
      <trkpt lat="46.47408" lon="8.25797">
        <ele>1329</ele>
        <time>2020-10-24T13:01:35.112Z</time>
      </trkpt>
      <trkpt lat="46.47407" lon="8.25795">
        <ele>1329</ele>
        <time>2020-10-24T13:01:36.113Z</time>
      </trkpt>
      <trkpt lat="46.47407" lon="8.25794">
        <ele>1330</ele>
        <time>2020-10-24T13:01:37.113Z</time>
      </trkpt>
      <trkpt lat="46.47406" lon="8.25792">
        <ele>1330</ele>
        <time>2020-10-24T13:01:38.112Z</time>
      </trkpt>
      <trkpt lat="46.47407" lon="8.25791">
        <ele>1331</ele>
        <time>2020-10-24T13:01:39.113Z</time>
      </trkpt>
      <trkpt lat="46.47406" lon="8.2579">
        <ele>1331</ele>
        <time>2020-10-24T13:01:40.113Z</time>
      </trkpt>
      <trkpt lat="46.47406" lon="8.25789">
        <ele>1331</ele>
        <time>2020-10-24T13:01:41.113Z</time>
      </trkpt>
      <trkpt lat="46.47406" lon="8.25787">
        <ele>1332</ele>
        <time>2020-10-24T13:01:42.113Z</time>
      </trkpt>
      <trkpt lat="46.47406" lon="8.25786">
        <ele>1332</ele>
        <time>2020-10-24T13:01:43.112Z</time>
      </trkpt>
      <trkpt lat="46.47407" lon="8.25785">
        <ele>1333</ele>
        <time>2020-10-24T13:01:44.112Z</time>
      </trkpt>
      <trkpt lat="46.47408" lon="8.25785">
        <ele>1334</ele>
        <time>2020-10-24T13:01:45.113Z</time>
      </trkpt>
      <trkpt lat="46.47408" lon="8.25784">
        <ele>1335</ele>
        <time>2020-10-24T13:01:46.113Z</time>
      </trkpt>
      <trkpt lat="46.47407" lon="8.25782">
        <ele>1335</ele>
        <time>2020-10-24T13:01:47.113Z</time>
      </trkpt>
      <trkpt lat="46.47408" lon="8.25779">
        <ele>1336</ele>
        <time>2020-10-24T13:01:48.113Z</time>
      </trkpt>
      <trkpt lat="46.47408" lon="8.25779">
        <ele>1336</ele>
        <time>2020-10-24T13:01:49.112Z</time>
      </trkpt>
      <trkpt lat="46.47406" lon="8.25778">
        <ele>1336</ele>
        <time>2020-10-24T13:01:50.112Z</time>
      </trkpt>
      <trkpt lat="46.47406" lon="8.25777">
        <ele>1335</ele>
        <time>2020-10-24T13:01:51.112Z</time>
      </trkpt>
      <trkpt lat="46.47406" lon="8.25776">
        <ele>1334</ele>
        <time>2020-10-24T13:01:52.112Z</time>
      </trkpt>
      <trkpt lat="46.47406" lon="8.25774">
        <ele>1333</ele>
        <time>2020-10-24T13:01:53.113Z</time>
      </trkpt>
      <trkpt lat="46.47406" lon="8.25773">
        <ele>1333</ele>
        <time>2020-10-24T13:01:54.113Z</time>
      </trkpt>
      <trkpt lat="46.47406" lon="8.25772">
        <ele>1331</ele>
        <time>2020-10-24T13:01:55.112Z</time>
      </trkpt>
      <trkpt lat="46.47406" lon="8.25771">
        <ele>1331</ele>
        <time>2020-10-24T13:01:56.113Z</time>
      </trkpt>
      <trkpt lat="46.47406" lon="8.2577">
        <ele>1330</ele>
        <time>2020-10-24T13:01:57.113Z</time>
      </trkpt>
      <trkpt lat="46.47407" lon="8.25768">
        <ele>1330</ele>
        <time>2020-10-24T13:01:58.113Z</time>
      </trkpt>
      <trkpt lat="46.47407" lon="8.25767">
        <ele>1329</ele>
        <time>2020-10-24T13:01:59.113Z</time>
      </trkpt>
      <trkpt lat="46.47409" lon="8.25765">
        <ele>1329</ele>
        <time>2020-10-24T13:02:00.112Z</time>
      </trkpt>
      <trkpt lat="46.4741" lon="8.25763">
        <ele>1330</ele>
        <time>2020-10-24T13:02:01.113Z</time>
      </trkpt>
      <trkpt lat="46.47411" lon="8.25761">
        <ele>1330</ele>
        <time>2020-10-24T13:02:02.113Z</time>
      </trkpt>
      <trkpt lat="46.47412" lon="8.25761">
        <ele>1331</ele>
        <time>2020-10-24T13:02:03.113Z</time>
      </trkpt>
      <trkpt lat="46.47413" lon="8.2576">
        <ele>1331</ele>
        <time>2020-10-24T13:02:04.113Z</time>
      </trkpt>
      <trkpt lat="46.47413" lon="8.25758">
        <ele>1332</ele>
        <time>2020-10-24T13:02:05.112Z</time>
      </trkpt>
      <trkpt lat="46.47412" lon="8.25757">
        <ele>1333</ele>
        <time>2020-10-24T13:02:06.113Z</time>
      </trkpt>
      <trkpt lat="46.47412" lon="8.25754">
        <ele>1335</ele>
        <time>2020-10-24T13:02:07.113Z</time>
      </trkpt>
      <trkpt lat="46.47414" lon="8.25752">
        <ele>1336</ele>
        <time>2020-10-24T13:02:08.112Z</time>
      </trkpt>
      <trkpt lat="46.47414" lon="8.2575">
        <ele>1337</ele>
        <time>2020-10-24T13:02:09.113Z</time>
      </trkpt>
      <trkpt lat="46.47414" lon="8.25749">
        <ele>1338</ele>
        <time>2020-10-24T13:02:10.112Z</time>
      </trkpt>
      <trkpt lat="46.47414" lon="8.25748">
        <ele>1339</ele>
        <time>2020-10-24T13:02:11.113Z</time>
      </trkpt>
      <trkpt lat="46.47414" lon="8.25748">
        <ele>1339</ele>
        <time>2020-10-24T13:02:12.113Z</time>
      </trkpt>
      <trkpt lat="46.47414" lon="8.25747">
        <ele>1339</ele>
        <time>2020-10-24T13:02:13.112Z</time>
      </trkpt>
      <trkpt lat="46.47413" lon="8.25747">
        <ele>1339</ele>
        <time>2020-10-24T13:02:14.112Z</time>
      </trkpt>
      <trkpt lat="46.47412" lon="8.25746">
        <ele>1339</ele>
        <time>2020-10-24T13:02:15.112Z</time>
      </trkpt>
      <trkpt lat="46.47411" lon="8.25746">
        <ele>1339</ele>
        <time>2020-10-24T13:02:16.113Z</time>
      </trkpt>
      <trkpt lat="46.47411" lon="8.25745">
        <ele>1339</ele>
        <time>2020-10-24T13:02:17.113Z</time>
      </trkpt>
      <trkpt lat="46.4741" lon="8.25746">
        <ele>1339</ele>
        <time>2020-10-24T13:02:18.113Z</time>
      </trkpt>
      <trkpt lat="46.47409" lon="8.25747">
        <ele>1339</ele>
        <time>2020-10-24T13:02:19.113Z</time>
      </trkpt>
      <trkpt lat="46.47409" lon="8.25748">
        <ele>1339</ele>
        <time>2020-10-24T13:02:20.113Z</time>
      </trkpt>
      <trkpt lat="46.47408" lon="8.25745">
        <ele>1333</ele>
        <time>2020-10-24T13:02:21.113Z</time>
      </trkpt>
      <trkpt lat="46.47408" lon="8.25743">
        <ele>1332</ele>
        <time>2020-10-24T13:02:22.113Z</time>
      </trkpt>
      <trkpt lat="46.47408" lon="8.2574">
        <ele>1332</ele>
        <time>2020-10-24T13:02:23.112Z</time>
      </trkpt>
      <trkpt lat="46.47408" lon="8.25739">
        <ele>1331</ele>
        <time>2020-10-24T13:02:24.112Z</time>
      </trkpt>
      <trkpt lat="46.47408" lon="8.25737">
        <ele>1331</ele>
        <time>2020-10-24T13:02:25.113Z</time>
      </trkpt>
      <trkpt lat="46.47408" lon="8.25735">
        <ele>1330</ele>
        <time>2020-10-24T13:02:26.112Z</time>
      </trkpt>
      <trkpt lat="46.47408" lon="8.25734">
        <ele>1330</ele>
        <time>2020-10-24T13:02:27.113Z</time>
      </trkpt>
      <trkpt lat="46.47408" lon="8.25733">
        <ele>1330</ele>
        <time>2020-10-24T13:02:28.112Z</time>
      </trkpt>
      <trkpt lat="46.47407" lon="8.25732">
        <ele>1330</ele>
        <time>2020-10-24T13:02:29.112Z</time>
      </trkpt>
      <trkpt lat="46.47406" lon="8.25731">
        <ele>1331</ele>
        <time>2020-10-24T13:02:30.112Z</time>
      </trkpt>
      <trkpt lat="46.47406" lon="8.2573">
        <ele>1332</ele>
        <time>2020-10-24T13:02:31.113Z</time>
      </trkpt>
      <trkpt lat="46.47405" lon="8.25728">
        <ele>1333</ele>
        <time>2020-10-24T13:02:32.113Z</time>
      </trkpt>
      <trkpt lat="46.47404" lon="8.25727">
        <ele>1333</ele>
        <time>2020-10-24T13:02:33.112Z</time>
      </trkpt>
      <trkpt lat="46.47402" lon="8.25725">
        <ele>1335</ele>
        <time>2020-10-24T13:02:34.112Z</time>
      </trkpt>
      <trkpt lat="46.474" lon="8.25723">
        <ele>1336</ele>
        <time>2020-10-24T13:02:35.112Z</time>
      </trkpt>
      <trkpt lat="46.474" lon="8.25721">
        <ele>1336</ele>
        <time>2020-10-24T13:02:36.112Z</time>
      </trkpt>
      <trkpt lat="46.47398" lon="8.25719">
        <ele>1337</ele>
        <time>2020-10-24T13:02:37.112Z</time>
      </trkpt>
      <trkpt lat="46.47398" lon="8.25717">
        <ele>1338</ele>
        <time>2020-10-24T13:02:38.112Z</time>
      </trkpt>
      <trkpt lat="46.47398" lon="8.25716">
        <ele>1338</ele>
        <time>2020-10-24T13:02:39.112Z</time>
      </trkpt>
      <trkpt lat="46.47397" lon="8.25716">
        <ele>1339</ele>
        <time>2020-10-24T13:02:40.112Z</time>
      </trkpt>
      <trkpt lat="46.47397" lon="8.25713">
        <ele>1340</ele>
        <time>2020-10-24T13:02:41.112Z</time>
      </trkpt>
      <trkpt lat="46.47397" lon="8.25712">
        <ele>1341</ele>
        <time>2020-10-24T13:02:42.112Z</time>
      </trkpt>
      <trkpt lat="46.47397" lon="8.2571">
        <ele>1342</ele>
        <time>2020-10-24T13:02:43.112Z</time>
      </trkpt>
      <trkpt lat="46.47397" lon="8.25709">
        <ele>1342</ele>
        <time>2020-10-24T13:02:44.112Z</time>
      </trkpt>
      <trkpt lat="46.47396" lon="8.25708">
        <ele>1342</ele>
        <time>2020-10-24T13:02:45.112Z</time>
      </trkpt>
      <trkpt lat="46.47396" lon="8.25708">
        <ele>1342</ele>
        <time>2020-10-24T13:02:46.113Z</time>
      </trkpt>
      <trkpt lat="46.47395" lon="8.25706">
        <ele>1341</ele>
        <time>2020-10-24T13:02:47.112Z</time>
      </trkpt>
      <trkpt lat="46.47394" lon="8.25705">
        <ele>1341</ele>
        <time>2020-10-24T13:02:48.113Z</time>
      </trkpt>
      <trkpt lat="46.47393" lon="8.25704">
        <ele>1340</ele>
        <time>2020-10-24T13:02:49.113Z</time>
      </trkpt>
      <trkpt lat="46.47392" lon="8.25704">
        <ele>1340</ele>
        <time>2020-10-24T13:02:50.112Z</time>
      </trkpt>
      <trkpt lat="46.47391" lon="8.25703">
        <ele>1340</ele>
        <time>2020-10-24T13:02:51.113Z</time>
      </trkpt>
      <trkpt lat="46.4739" lon="8.25702">
        <ele>1339</ele>
        <time>2020-10-24T13:02:52.113Z</time>
      </trkpt>
      <trkpt lat="46.47389" lon="8.25701">
        <ele>1339</ele>
        <time>2020-10-24T13:02:53.113Z</time>
      </trkpt>
      <trkpt lat="46.47387" lon="8.25701">
        <ele>1339</ele>
        <time>2020-10-24T13:02:54.112Z</time>
      </trkpt>
      <trkpt lat="46.47385" lon="8.25701">
        <ele>1338</ele>
        <time>2020-10-24T13:02:55.113Z</time>
      </trkpt>
      <trkpt lat="46.47384" lon="8.257">
        <ele>1338</ele>
        <time>2020-10-24T13:02:56.113Z</time>
      </trkpt>
      <trkpt lat="46.47383" lon="8.257">
        <ele>1338</ele>
        <time>2020-10-24T13:02:57.112Z</time>
      </trkpt>
      <trkpt lat="46.47383" lon="8.257">
        <ele>1338</ele>
        <time>2020-10-24T13:02:58.113Z</time>
      </trkpt>
      <trkpt lat="46.47382" lon="8.25699">
        <ele>1339</ele>
        <time>2020-10-24T13:02:59.113Z</time>
      </trkpt>
      <trkpt lat="46.47381" lon="8.25699">
        <ele>1339</ele>
        <time>2020-10-24T13:03:00.113Z</time>
      </trkpt>
      <trkpt lat="46.4738" lon="8.25698">
        <ele>1339</ele>
        <time>2020-10-24T13:03:01.112Z</time>
      </trkpt>
      <trkpt lat="46.4738" lon="8.25697">
        <ele>1339</ele>
        <time>2020-10-24T13:03:02.113Z</time>
      </trkpt>
      <trkpt lat="46.4738" lon="8.25697">
        <ele>1339</ele>
        <time>2020-10-24T13:03:03.112Z</time>
      </trkpt>
      <trkpt lat="46.47379" lon="8.25698">
        <ele>1339</ele>
        <time>2020-10-24T13:03:04.113Z</time>
      </trkpt>
      <trkpt lat="46.47378" lon="8.25698">
        <ele>1340</ele>
        <time>2020-10-24T13:03:05.113Z</time>
      </trkpt>
      <trkpt lat="46.47377" lon="8.25698">
        <ele>1340</ele>
        <time>2020-10-24T13:03:06.113Z</time>
      </trkpt>
      <trkpt lat="46.47375" lon="8.25695">
        <ele>1339</ele>
        <time>2020-10-24T13:03:07.113Z</time>
      </trkpt>
      <trkpt lat="46.47373" lon="8.25692">
        <ele>1339</ele>
        <time>2020-10-24T13:03:08.113Z</time>
      </trkpt>
      <trkpt lat="46.47371" lon="8.25691">
        <ele>1338</ele>
        <time>2020-10-24T13:03:09.112Z</time>
      </trkpt>
      <trkpt lat="46.47371" lon="8.25689">
        <ele>1337</ele>
        <time>2020-10-24T13:03:10.113Z</time>
      </trkpt>
      <trkpt lat="46.4737" lon="8.25688">
        <ele>1336</ele>
        <time>2020-10-24T13:03:11.113Z</time>
      </trkpt>
      <trkpt lat="46.4737" lon="8.25688">
        <ele>1335</ele>
        <time>2020-10-24T13:03:12.113Z</time>
      </trkpt>
      <trkpt lat="46.4737" lon="8.25687">
        <ele>1334</ele>
        <time>2020-10-24T13:03:13.112Z</time>
      </trkpt>
      <trkpt lat="46.4737" lon="8.25687">
        <ele>1333</ele>
        <time>2020-10-24T13:03:14.112Z</time>
      </trkpt>
      <trkpt lat="46.4737" lon="8.25686">
        <ele>1332</ele>
        <time>2020-10-24T13:03:15.113Z</time>
      </trkpt>
      <trkpt lat="46.47369" lon="8.25685">
        <ele>1331</ele>
        <time>2020-10-24T13:03:16.112Z</time>
      </trkpt>
      <trkpt lat="46.47369" lon="8.25684">
        <ele>1330</ele>
        <time>2020-10-24T13:03:17.113Z</time>
      </trkpt>
      <trkpt lat="46.47368" lon="8.25683">
        <ele>1329</ele>
        <time>2020-10-24T13:03:18.112Z</time>
      </trkpt>
      <trkpt lat="46.47367" lon="8.25681">
        <ele>1328</ele>
        <time>2020-10-24T13:03:19.112Z</time>
      </trkpt>
      <trkpt lat="46.47366" lon="8.25681">
        <ele>1328</ele>
        <time>2020-10-24T13:03:20.113Z</time>
      </trkpt>
      <trkpt lat="46.47365" lon="8.2568">
        <ele>1327</ele>
        <time>2020-10-24T13:03:21.112Z</time>
      </trkpt>
      <trkpt lat="46.47364" lon="8.2568">
        <ele>1327</ele>
        <time>2020-10-24T13:03:22.112Z</time>
      </trkpt>
      <trkpt lat="46.47363" lon="8.25679">
        <ele>1327</ele>
        <time>2020-10-24T13:03:23.113Z</time>
      </trkpt>
      <trkpt lat="46.47362" lon="8.2568">
        <ele>1326</ele>
        <time>2020-10-24T13:03:24.112Z</time>
      </trkpt>
      <trkpt lat="46.47361" lon="8.2568">
        <ele>1326</ele>
        <time>2020-10-24T13:03:25.113Z</time>
      </trkpt>
      <trkpt lat="46.4736" lon="8.2568">
        <ele>1326</ele>
        <time>2020-10-24T13:03:26.112Z</time>
      </trkpt>
      <trkpt lat="46.47359" lon="8.2568">
        <ele>1325</ele>
        <time>2020-10-24T13:03:27.112Z</time>
      </trkpt>
      <trkpt lat="46.47358" lon="8.25679">
        <ele>1325</ele>
        <time>2020-10-24T13:03:28.112Z</time>
      </trkpt>
      <trkpt lat="46.47356" lon="8.25679">
        <ele>1326</ele>
        <time>2020-10-24T13:03:29.112Z</time>
      </trkpt>
      <trkpt lat="46.47355" lon="8.25679">
        <ele>1326</ele>
        <time>2020-10-24T13:03:30.113Z</time>
      </trkpt>
      <trkpt lat="46.47354" lon="8.25679">
        <ele>1326</ele>
        <time>2020-10-24T13:03:31.112Z</time>
      </trkpt>
      <trkpt lat="46.47354" lon="8.25679">
        <ele>1326</ele>
        <time>2020-10-24T13:03:32.113Z</time>
      </trkpt>
      <trkpt lat="46.47353" lon="8.25679">
        <ele>1326</ele>
        <time>2020-10-24T13:03:33.113Z</time>
      </trkpt>
      <trkpt lat="46.47351" lon="8.25678">
        <ele>1327</ele>
        <time>2020-10-24T13:03:34.113Z</time>
      </trkpt>
      <trkpt lat="46.47351" lon="8.25678">
        <ele>1327</ele>
        <time>2020-10-24T13:03:35.112Z</time>
      </trkpt>
      <trkpt lat="46.4735" lon="8.25679">
        <ele>1328</ele>
        <time>2020-10-24T13:03:36.113Z</time>
      </trkpt>
      <trkpt lat="46.47349" lon="8.2568">
        <ele>1328</ele>
        <time>2020-10-24T13:03:37.113Z</time>
      </trkpt>
      <trkpt lat="46.47348" lon="8.2568">
        <ele>1328</ele>
        <time>2020-10-24T13:03:38.113Z</time>
      </trkpt>
      <trkpt lat="46.47347" lon="8.25679">
        <ele>1329</ele>
        <time>2020-10-24T13:03:39.112Z</time>
      </trkpt>
      <trkpt lat="46.47346" lon="8.25678">
        <ele>1329</ele>
        <time>2020-10-24T13:03:40.112Z</time>
      </trkpt>
      <trkpt lat="46.47346" lon="8.25679">
        <ele>1329</ele>
        <time>2020-10-24T13:03:41.113Z</time>
      </trkpt>
      <trkpt lat="46.47344" lon="8.2568">
        <ele>1329</ele>
        <time>2020-10-24T13:03:42.113Z</time>
      </trkpt>
      <trkpt lat="46.47344" lon="8.2568">
        <ele>1330</ele>
        <time>2020-10-24T13:03:43.113Z</time>
      </trkpt>
      <trkpt lat="46.47343" lon="8.25681">
        <ele>1330</ele>
        <time>2020-10-24T13:03:44.112Z</time>
      </trkpt>
      <trkpt lat="46.47342" lon="8.25681">
        <ele>1330</ele>
        <time>2020-10-24T13:03:45.112Z</time>
      </trkpt>
      <trkpt lat="46.47341" lon="8.25681">
        <ele>1331</ele>
        <time>2020-10-24T13:03:46.113Z</time>
      </trkpt>
      <trkpt lat="46.47341" lon="8.25681">
        <ele>1331</ele>
        <time>2020-10-24T13:03:47.113Z</time>
      </trkpt>
      <trkpt lat="46.4734" lon="8.25682">
        <ele>1331</ele>
        <time>2020-10-24T13:03:48.113Z</time>
      </trkpt>
      <trkpt lat="46.47339" lon="8.25682">
        <ele>1331</ele>
        <time>2020-10-24T13:03:49.113Z</time>
      </trkpt>
      <trkpt lat="46.47338" lon="8.25682">
        <ele>1331</ele>
        <time>2020-10-24T13:03:50.113Z</time>
      </trkpt>
      <trkpt lat="46.47338" lon="8.25683">
        <ele>1330</ele>
        <time>2020-10-24T13:03:51.112Z</time>
      </trkpt>
      <trkpt lat="46.47337" lon="8.25683">
        <ele>1330</ele>
        <time>2020-10-24T13:03:52.113Z</time>
      </trkpt>
      <trkpt lat="46.47337" lon="8.25683">
        <ele>1330</ele>
        <time>2020-10-24T13:03:53.113Z</time>
      </trkpt>
      <trkpt lat="46.47337" lon="8.25683">
        <ele>1330</ele>
        <time>2020-10-24T13:03:54.112Z</time>
      </trkpt>
      <trkpt lat="46.47336" lon="8.25683">
        <ele>1330</ele>
        <time>2020-10-24T13:03:55.113Z</time>
      </trkpt>
      <trkpt lat="46.47334" lon="8.25681">
        <ele>1328</ele>
        <time>2020-10-24T13:03:56.112Z</time>
      </trkpt>
      <trkpt lat="46.47334" lon="8.25681">
        <ele>1327</ele>
        <time>2020-10-24T13:03:57.112Z</time>
      </trkpt>
      <trkpt lat="46.47333" lon="8.25681">
        <ele>1326</ele>
        <time>2020-10-24T13:03:58.112Z</time>
      </trkpt>
      <trkpt lat="46.47332" lon="8.2568">
        <ele>1325</ele>
        <time>2020-10-24T13:03:59.113Z</time>
      </trkpt>
      <trkpt lat="46.47332" lon="8.25679">
        <ele>1324</ele>
        <time>2020-10-24T13:04:00.113Z</time>
      </trkpt>
      <trkpt lat="46.47333" lon="8.25679">
        <ele>1324</ele>
        <time>2020-10-24T13:04:01.113Z</time>
      </trkpt>
      <trkpt lat="46.47333" lon="8.2568">
        <ele>1323</ele>
        <time>2020-10-24T13:04:02.113Z</time>
      </trkpt>
      <trkpt lat="46.47338" lon="8.25683">
        <ele>1318</ele>
        <time>2020-10-24T13:04:03.113Z</time>
      </trkpt>
      <trkpt lat="46.47338" lon="8.25683">
        <ele>1318</ele>
        <time>2020-10-24T13:04:04.113Z</time>
      </trkpt>
      <trkpt lat="46.47338" lon="8.25682">
        <ele>1318</ele>
        <time>2020-10-24T13:04:05.113Z</time>
      </trkpt>
      <trkpt lat="46.47338" lon="8.25681">
        <ele>1318</ele>
        <time>2020-10-24T13:04:06.113Z</time>
      </trkpt>
      <trkpt lat="46.47338" lon="8.25681">
        <ele>1317</ele>
        <time>2020-10-24T13:04:07.114Z</time>
      </trkpt>
      <trkpt lat="46.47338" lon="8.2568">
        <ele>1317</ele>
        <time>2020-10-24T13:04:08.113Z</time>
      </trkpt>
      <trkpt lat="46.47338" lon="8.25681">
        <ele>1317</ele>
        <time>2020-10-24T13:04:09.113Z</time>
      </trkpt>
      <trkpt lat="46.47338" lon="8.25681">
        <ele>1317</ele>
        <time>2020-10-24T13:04:10.114Z</time>
      </trkpt>
      <trkpt lat="46.47341" lon="8.25684">
        <ele>1329</ele>
        <time>2020-10-24T13:04:11.115Z</time>
      </trkpt>
      <trkpt lat="46.4734" lon="8.25684">
        <ele>1330</ele>
        <time>2020-10-24T13:04:12.115Z</time>
      </trkpt>
      <trkpt lat="46.4734" lon="8.25686">
        <ele>1336</ele>
        <time>2020-10-24T13:04:13.116Z</time>
      </trkpt>
      <trkpt lat="46.47341" lon="8.25686">
        <ele>1336</ele>
        <time>2020-10-24T13:04:14.116Z</time>
      </trkpt>
      <trkpt lat="46.47342" lon="8.25686">
        <ele>1337</ele>
        <time>2020-10-24T13:04:15.115Z</time>
      </trkpt>
      <trkpt lat="46.47343" lon="8.25687">
        <ele>1337</ele>
        <time>2020-10-24T13:04:16.116Z</time>
      </trkpt>
      <trkpt lat="46.47344" lon="8.25687">
        <ele>1337</ele>
        <time>2020-10-24T13:04:17.116Z</time>
      </trkpt>
      <trkpt lat="46.47345" lon="8.25687">
        <ele>1338</ele>
        <time>2020-10-24T13:04:18.116Z</time>
      </trkpt>
      <trkpt lat="46.47346" lon="8.25687">
        <ele>1338</ele>
        <time>2020-10-24T13:04:19.116Z</time>
      </trkpt>
      <trkpt lat="46.47347" lon="8.25687">
        <ele>1338</ele>
        <time>2020-10-24T13:04:20.116Z</time>
      </trkpt>
      <trkpt lat="46.47347" lon="8.25687">
        <ele>1338</ele>
        <time>2020-10-24T13:04:21.116Z</time>
      </trkpt>
      <trkpt lat="46.47348" lon="8.25688">
        <ele>1339</ele>
        <time>2020-10-24T13:04:22.116Z</time>
      </trkpt>
      <trkpt lat="46.47349" lon="8.25688">
        <ele>1339</ele>
        <time>2020-10-24T13:04:23.115Z</time>
      </trkpt>
      <trkpt lat="46.4735" lon="8.25688">
        <ele>1339</ele>
        <time>2020-10-24T13:04:24.115Z</time>
      </trkpt>
      <trkpt lat="46.47351" lon="8.25688">
        <ele>1339</ele>
        <time>2020-10-24T13:04:25.115Z</time>
      </trkpt>
      <trkpt lat="46.47352" lon="8.25688">
        <ele>1338</ele>
        <time>2020-10-24T13:04:26.115Z</time>
      </trkpt>
      <trkpt lat="46.47352" lon="8.25688">
        <ele>1338</ele>
        <time>2020-10-24T13:04:27.116Z</time>
      </trkpt>
      <trkpt lat="46.47354" lon="8.25688">
        <ele>1338</ele>
        <time>2020-10-24T13:04:28.116Z</time>
      </trkpt>
      <trkpt lat="46.47355" lon="8.25687">
        <ele>1337</ele>
        <time>2020-10-24T13:04:29.116Z</time>
      </trkpt>
      <trkpt lat="46.47356" lon="8.25687">
        <ele>1337</ele>
        <time>2020-10-24T13:04:30.116Z</time>
      </trkpt>
      <trkpt lat="46.47357" lon="8.25687">
        <ele>1337</ele>
        <time>2020-10-24T13:04:31.115Z</time>
      </trkpt>
      <trkpt lat="46.47358" lon="8.25686">
        <ele>1337</ele>
        <time>2020-10-24T13:04:32.115Z</time>
      </trkpt>
      <trkpt lat="46.47359" lon="8.25686">
        <ele>1338</ele>
        <time>2020-10-24T13:04:33.116Z</time>
      </trkpt>
      <trkpt lat="46.4736" lon="8.25686">
        <ele>1338</ele>
        <time>2020-10-24T13:04:34.116Z</time>
      </trkpt>
      <trkpt lat="46.47361" lon="8.25686">
        <ele>1338</ele>
        <time>2020-10-24T13:04:35.116Z</time>
      </trkpt>
      <trkpt lat="46.47362" lon="8.25685">
        <ele>1338</ele>
        <time>2020-10-24T13:04:36.116Z</time>
      </trkpt>
      <trkpt lat="46.47364" lon="8.25685">
        <ele>1338</ele>
        <time>2020-10-24T13:04:37.115Z</time>
      </trkpt>
      <trkpt lat="46.47365" lon="8.25685">
        <ele>1338</ele>
        <time>2020-10-24T13:04:38.116Z</time>
      </trkpt>
      <trkpt lat="46.47366" lon="8.25684">
        <ele>1338</ele>
        <time>2020-10-24T13:04:39.115Z</time>
      </trkpt>
      <trkpt lat="46.47367" lon="8.25684">
        <ele>1339</ele>
        <time>2020-10-24T13:04:40.116Z</time>
      </trkpt>
      <trkpt lat="46.47368" lon="8.25683">
        <ele>1339</ele>
        <time>2020-10-24T13:04:41.116Z</time>
      </trkpt>
      <trkpt lat="46.47369" lon="8.25682">
        <ele>1339</ele>
        <time>2020-10-24T13:04:42.116Z</time>
      </trkpt>
      <trkpt lat="46.4737" lon="8.25681">
        <ele>1339</ele>
        <time>2020-10-24T13:04:43.116Z</time>
      </trkpt>
      <trkpt lat="46.47371" lon="8.25681">
        <ele>1339</ele>
        <time>2020-10-24T13:04:44.116Z</time>
      </trkpt>
      <trkpt lat="46.47372" lon="8.2568">
        <ele>1338</ele>
        <time>2020-10-24T13:04:45.116Z</time>
      </trkpt>
      <trkpt lat="46.47373" lon="8.2568">
        <ele>1338</ele>
        <time>2020-10-24T13:04:46.116Z</time>
      </trkpt>
      <trkpt lat="46.47375" lon="8.2568">
        <ele>1337</ele>
        <time>2020-10-24T13:04:47.116Z</time>
      </trkpt>
      <trkpt lat="46.47377" lon="8.2568">
        <ele>1337</ele>
        <time>2020-10-24T13:04:48.116Z</time>
      </trkpt>
      <trkpt lat="46.47378" lon="8.2568">
        <ele>1337</ele>
        <time>2020-10-24T13:04:49.116Z</time>
      </trkpt>
      <trkpt lat="46.47379" lon="8.2568">
        <ele>1336</ele>
        <time>2020-10-24T13:04:50.116Z</time>
      </trkpt>
      <trkpt lat="46.4738" lon="8.25679">
        <ele>1336</ele>
        <time>2020-10-24T13:04:51.116Z</time>
      </trkpt>
      <trkpt lat="46.47382" lon="8.25678">
        <ele>1335</ele>
        <time>2020-10-24T13:04:52.116Z</time>
      </trkpt>
      <trkpt lat="46.47383" lon="8.25678">
        <ele>1335</ele>
        <time>2020-10-24T13:04:53.115Z</time>
      </trkpt>
      <trkpt lat="46.47384" lon="8.25678">
        <ele>1335</ele>
        <time>2020-10-24T13:04:54.115Z</time>
      </trkpt>
      <trkpt lat="46.47385" lon="8.25678">
        <ele>1334</ele>
        <time>2020-10-24T13:04:55.116Z</time>
      </trkpt>
      <trkpt lat="46.47387" lon="8.25679">
        <ele>1334</ele>
        <time>2020-10-24T13:04:56.116Z</time>
      </trkpt>
      <trkpt lat="46.47387" lon="8.25679">
        <ele>1334</ele>
        <time>2020-10-24T13:04:57.115Z</time>
      </trkpt>
      <trkpt lat="46.47388" lon="8.25679">
        <ele>1334</ele>
        <time>2020-10-24T13:04:58.116Z</time>
      </trkpt>
      <trkpt lat="46.47389" lon="8.25678">
        <ele>1333</ele>
        <time>2020-10-24T13:04:59.116Z</time>
      </trkpt>
      <trkpt lat="46.4739" lon="8.25678">
        <ele>1333</ele>
        <time>2020-10-24T13:05:00.116Z</time>
      </trkpt>
      <trkpt lat="46.47391" lon="8.25678">
        <ele>1332</ele>
        <time>2020-10-24T13:05:01.115Z</time>
      </trkpt>
      <trkpt lat="46.47392" lon="8.25678">
        <ele>1331</ele>
        <time>2020-10-24T13:05:02.116Z</time>
      </trkpt>
      <trkpt lat="46.47392" lon="8.25679">
        <ele>1331</ele>
        <time>2020-10-24T13:05:03.115Z</time>
      </trkpt>
      <trkpt lat="46.47393" lon="8.25679">
        <ele>1330</ele>
        <time>2020-10-24T13:05:04.116Z</time>
      </trkpt>
      <trkpt lat="46.47393" lon="8.25679">
        <ele>1330</ele>
        <time>2020-10-24T13:05:05.116Z</time>
      </trkpt>
      <trkpt lat="46.47394" lon="8.2568">
        <ele>1329</ele>
        <time>2020-10-24T13:05:06.115Z</time>
      </trkpt>
      <trkpt lat="46.47395" lon="8.2568">
        <ele>1329</ele>
        <time>2020-10-24T13:05:07.116Z</time>
      </trkpt>
      <trkpt lat="46.47397" lon="8.2568">
        <ele>1329</ele>
        <time>2020-10-24T13:05:08.115Z</time>
      </trkpt>
      <trkpt lat="46.47398" lon="8.2568">
        <ele>1329</ele>
        <time>2020-10-24T13:05:09.115Z</time>
      </trkpt>
      <trkpt lat="46.47398" lon="8.25679">
        <ele>1330</ele>
        <time>2020-10-24T13:05:10.116Z</time>
      </trkpt>
      <trkpt lat="46.47399" lon="8.25679">
        <ele>1330</ele>
        <time>2020-10-24T13:05:11.116Z</time>
      </trkpt>
      <trkpt lat="46.47399" lon="8.2568">
        <ele>1331</ele>
        <time>2020-10-24T13:05:12.116Z</time>
      </trkpt>
      <trkpt lat="46.474" lon="8.2568">
        <ele>1331</ele>
        <time>2020-10-24T13:05:13.116Z</time>
      </trkpt>
      <trkpt lat="46.47402" lon="8.25679">
        <ele>1332</ele>
        <time>2020-10-24T13:05:14.115Z</time>
      </trkpt>
      <trkpt lat="46.47403" lon="8.25678">
        <ele>1332</ele>
        <time>2020-10-24T13:05:15.116Z</time>
      </trkpt>
      <trkpt lat="46.47405" lon="8.25678">
        <ele>1333</ele>
        <time>2020-10-24T13:05:16.116Z</time>
      </trkpt>
      <trkpt lat="46.47406" lon="8.25677">
        <ele>1334</ele>
        <time>2020-10-24T13:05:17.116Z</time>
      </trkpt>
      <trkpt lat="46.47407" lon="8.25677">
        <ele>1335</ele>
        <time>2020-10-24T13:05:18.115Z</time>
      </trkpt>
      <trkpt lat="46.47408" lon="8.25676">
        <ele>1335</ele>
        <time>2020-10-24T13:05:19.116Z</time>
      </trkpt>
      <trkpt lat="46.47409" lon="8.25675">
        <ele>1335</ele>
        <time>2020-10-24T13:05:20.116Z</time>
      </trkpt>
      <trkpt lat="46.4741" lon="8.25674">
        <ele>1336</ele>
        <time>2020-10-24T13:05:21.116Z</time>
      </trkpt>
      <trkpt lat="46.47411" lon="8.25672">
        <ele>1336</ele>
        <time>2020-10-24T13:05:22.116Z</time>
      </trkpt>
      <trkpt lat="46.47412" lon="8.2567">
        <ele>1336</ele>
        <time>2020-10-24T13:05:23.116Z</time>
      </trkpt>
      <trkpt lat="46.47413" lon="8.25669">
        <ele>1336</ele>
        <time>2020-10-24T13:05:24.116Z</time>
      </trkpt>
      <trkpt lat="46.47413" lon="8.25668">
        <ele>1336</ele>
        <time>2020-10-24T13:05:25.116Z</time>
      </trkpt>
      <trkpt lat="46.47414" lon="8.25666">
        <ele>1336</ele>
        <time>2020-10-24T13:05:26.116Z</time>
      </trkpt>
      <trkpt lat="46.47414" lon="8.25664">
        <ele>1335</ele>
        <time>2020-10-24T13:05:27.115Z</time>
      </trkpt>
      <trkpt lat="46.47414" lon="8.25662">
        <ele>1335</ele>
        <time>2020-10-24T13:05:28.116Z</time>
      </trkpt>
      <trkpt lat="46.47414" lon="8.25659">
        <ele>1335</ele>
        <time>2020-10-24T13:05:29.115Z</time>
      </trkpt>
      <trkpt lat="46.47415" lon="8.25656">
        <ele>1335</ele>
        <time>2020-10-24T13:05:30.116Z</time>
      </trkpt>
      <trkpt lat="46.47415" lon="8.25653">
        <ele>1336</ele>
        <time>2020-10-24T13:05:31.115Z</time>
      </trkpt>
      <trkpt lat="46.47414" lon="8.25651">
        <ele>1336</ele>
        <time>2020-10-24T13:05:32.116Z</time>
      </trkpt>
      <trkpt lat="46.47414" lon="8.25648">
        <ele>1336</ele>
        <time>2020-10-24T13:05:33.116Z</time>
      </trkpt>
      <trkpt lat="46.47413" lon="8.25647">
        <ele>1336</ele>
        <time>2020-10-24T13:05:34.116Z</time>
      </trkpt>
      <trkpt lat="46.47413" lon="8.25645">
        <ele>1335</ele>
        <time>2020-10-24T13:05:35.116Z</time>
      </trkpt>
      <trkpt lat="46.47413" lon="8.25643">
        <ele>1335</ele>
        <time>2020-10-24T13:05:36.115Z</time>
      </trkpt>
      <trkpt lat="46.47413" lon="8.25642">
        <ele>1334</ele>
        <time>2020-10-24T13:05:37.116Z</time>
      </trkpt>
      <trkpt lat="46.47413" lon="8.25641">
        <ele>1333</ele>
        <time>2020-10-24T13:05:38.116Z</time>
      </trkpt>
      <trkpt lat="46.47412" lon="8.25639">
        <ele>1333</ele>
        <time>2020-10-24T13:05:39.116Z</time>
      </trkpt>
      <trkpt lat="46.47411" lon="8.25637">
        <ele>1333</ele>
        <time>2020-10-24T13:05:40.116Z</time>
      </trkpt>
      <trkpt lat="46.47409" lon="8.25636">
        <ele>1332</ele>
        <time>2020-10-24T13:05:41.115Z</time>
      </trkpt>
      <trkpt lat="46.47409" lon="8.25635">
        <ele>1332</ele>
        <time>2020-10-24T13:05:42.116Z</time>
      </trkpt>
      <trkpt lat="46.47409" lon="8.25633">
        <ele>1332</ele>
        <time>2020-10-24T13:05:43.116Z</time>
      </trkpt>
      <trkpt lat="46.47409" lon="8.25631">
        <ele>1332</ele>
        <time>2020-10-24T13:05:44.116Z</time>
      </trkpt>
      <trkpt lat="46.47409" lon="8.25629">
        <ele>1332</ele>
        <time>2020-10-24T13:05:45.115Z</time>
      </trkpt>
      <trkpt lat="46.47409" lon="8.25628">
        <ele>1331</ele>
        <time>2020-10-24T13:05:46.116Z</time>
      </trkpt>
      <trkpt lat="46.47409" lon="8.25626">
        <ele>1331</ele>
        <time>2020-10-24T13:05:47.116Z</time>
      </trkpt>
      <trkpt lat="46.4741" lon="8.25624">
        <ele>1331</ele>
        <time>2020-10-24T13:05:48.116Z</time>
      </trkpt>
      <trkpt lat="46.47409" lon="8.25622">
        <ele>1331</ele>
        <time>2020-10-24T13:05:49.115Z</time>
      </trkpt>
      <trkpt lat="46.47409" lon="8.2562">
        <ele>1331</ele>
        <time>2020-10-24T13:05:50.116Z</time>
      </trkpt>
      <trkpt lat="46.47409" lon="8.25619">
        <ele>1331</ele>
        <time>2020-10-24T13:05:51.115Z</time>
      </trkpt>
      <trkpt lat="46.47408" lon="8.25617">
        <ele>1330</ele>
        <time>2020-10-24T13:05:52.115Z</time>
      </trkpt>
      <trkpt lat="46.47408" lon="8.25616">
        <ele>1330</ele>
        <time>2020-10-24T13:05:53.116Z</time>
      </trkpt>
      <trkpt lat="46.47408" lon="8.25614">
        <ele>1329</ele>
        <time>2020-10-24T13:05:54.116Z</time>
      </trkpt>
      <trkpt lat="46.47407" lon="8.25613">
        <ele>1329</ele>
        <time>2020-10-24T13:05:55.115Z</time>
      </trkpt>
      <trkpt lat="46.47407" lon="8.25611">
        <ele>1329</ele>
        <time>2020-10-24T13:05:56.115Z</time>
      </trkpt>
      <trkpt lat="46.47406" lon="8.2561">
        <ele>1328</ele>
        <time>2020-10-24T13:05:57.116Z</time>
      </trkpt>
      <trkpt lat="46.47406" lon="8.25608">
        <ele>1328</ele>
        <time>2020-10-24T13:05:58.116Z</time>
      </trkpt>
      <trkpt lat="46.47405" lon="8.25606">
        <ele>1327</ele>
        <time>2020-10-24T13:05:59.116Z</time>
      </trkpt>
      <trkpt lat="46.47405" lon="8.25604">
        <ele>1327</ele>
        <time>2020-10-24T13:06:00.116Z</time>
      </trkpt>
      <trkpt lat="46.47404" lon="8.25603">
        <ele>1326</ele>
        <time>2020-10-24T13:06:01.116Z</time>
      </trkpt>
      <trkpt lat="46.47404" lon="8.25602">
        <ele>1326</ele>
        <time>2020-10-24T13:06:02.115Z</time>
      </trkpt>
      <trkpt lat="46.47404" lon="8.256">
        <ele>1326</ele>
        <time>2020-10-24T13:06:03.115Z</time>
      </trkpt>
      <trkpt lat="46.47403" lon="8.25599">
        <ele>1325</ele>
        <time>2020-10-24T13:06:04.116Z</time>
      </trkpt>
      <trkpt lat="46.47402" lon="8.25597">
        <ele>1324</ele>
        <time>2020-10-24T13:06:05.116Z</time>
      </trkpt>
      <trkpt lat="46.47402" lon="8.25596">
        <ele>1324</ele>
        <time>2020-10-24T13:06:06.116Z</time>
      </trkpt>
      <trkpt lat="46.47401" lon="8.25594">
        <ele>1323</ele>
        <time>2020-10-24T13:06:07.115Z</time>
      </trkpt>
      <trkpt lat="46.474" lon="8.25593">
        <ele>1323</ele>
        <time>2020-10-24T13:06:08.115Z</time>
      </trkpt>
      <trkpt lat="46.47399" lon="8.25591">
        <ele>1323</ele>
        <time>2020-10-24T13:06:09.116Z</time>
      </trkpt>
      <trkpt lat="46.47399" lon="8.2559">
        <ele>1323</ele>
        <time>2020-10-24T13:06:10.116Z</time>
      </trkpt>
      <trkpt lat="46.47398" lon="8.25589">
        <ele>1323</ele>
        <time>2020-10-24T13:06:11.116Z</time>
      </trkpt>
      <trkpt lat="46.47397" lon="8.25588">
        <ele>1324</ele>
        <time>2020-10-24T13:06:12.115Z</time>
      </trkpt>
      <trkpt lat="46.47396" lon="8.25587">
        <ele>1324</ele>
        <time>2020-10-24T13:06:13.115Z</time>
      </trkpt>
      <trkpt lat="46.47395" lon="8.25586">
        <ele>1325</ele>
        <time>2020-10-24T13:06:14.116Z</time>
      </trkpt>
      <trkpt lat="46.47394" lon="8.25585">
        <ele>1325</ele>
        <time>2020-10-24T13:06:15.116Z</time>
      </trkpt>
      <trkpt lat="46.47394" lon="8.25585">
        <ele>1325</ele>
        <time>2020-10-24T13:06:16.116Z</time>
      </trkpt>
      <trkpt lat="46.47394" lon="8.25584">
        <ele>1325</ele>
        <time>2020-10-24T13:06:17.116Z</time>
      </trkpt>
      <trkpt lat="46.47393" lon="8.25582">
        <ele>1325</ele>
        <time>2020-10-24T13:06:18.116Z</time>
      </trkpt>
      <trkpt lat="46.47392" lon="8.25581">
        <ele>1325</ele>
        <time>2020-10-24T13:06:19.116Z</time>
      </trkpt>
      <trkpt lat="46.47391" lon="8.2558">
        <ele>1324</ele>
        <time>2020-10-24T13:06:20.116Z</time>
      </trkpt>
      <trkpt lat="46.47391" lon="8.25579">
        <ele>1324</ele>
        <time>2020-10-24T13:06:21.116Z</time>
      </trkpt>
      <trkpt lat="46.4739" lon="8.25578">
        <ele>1325</ele>
        <time>2020-10-24T13:06:22.116Z</time>
      </trkpt>
      <trkpt lat="46.4739" lon="8.25577">
        <ele>1325</ele>
        <time>2020-10-24T13:06:23.115Z</time>
      </trkpt>
      <trkpt lat="46.47389" lon="8.25576">
        <ele>1325</ele>
        <time>2020-10-24T13:06:24.116Z</time>
      </trkpt>
      <trkpt lat="46.47388" lon="8.25574">
        <ele>1325</ele>
        <time>2020-10-24T13:06:25.116Z</time>
      </trkpt>
      <trkpt lat="46.47387" lon="8.25573">
        <ele>1325</ele>
        <time>2020-10-24T13:06:26.116Z</time>
      </trkpt>
      <trkpt lat="46.47387" lon="8.25572">
        <ele>1325</ele>
        <time>2020-10-24T13:06:27.116Z</time>
      </trkpt>
      <trkpt lat="46.47386" lon="8.25571">
        <ele>1325</ele>
        <time>2020-10-24T13:06:28.116Z</time>
      </trkpt>
      <trkpt lat="46.47385" lon="8.25569">
        <ele>1325</ele>
        <time>2020-10-24T13:06:29.116Z</time>
      </trkpt>
      <trkpt lat="46.47384" lon="8.25568">
        <ele>1325</ele>
        <time>2020-10-24T13:06:30.116Z</time>
      </trkpt>
      <trkpt lat="46.47384" lon="8.25566">
        <ele>1326</ele>
        <time>2020-10-24T13:06:31.115Z</time>
      </trkpt>
      <trkpt lat="46.47383" lon="8.25565">
        <ele>1326</ele>
        <time>2020-10-24T13:06:32.116Z</time>
      </trkpt>
      <trkpt lat="46.47383" lon="8.25564">
        <ele>1326</ele>
        <time>2020-10-24T13:06:33.116Z</time>
      </trkpt>
      <trkpt lat="46.47382" lon="8.25563">
        <ele>1326</ele>
        <time>2020-10-24T13:06:34.115Z</time>
      </trkpt>
      <trkpt lat="46.47382" lon="8.25562">
        <ele>1327</ele>
        <time>2020-10-24T13:06:35.116Z</time>
      </trkpt>
      <trkpt lat="46.47381" lon="8.2556">
        <ele>1327</ele>
        <time>2020-10-24T13:06:36.116Z</time>
      </trkpt>
      <trkpt lat="46.4738" lon="8.2556">
        <ele>1328</ele>
        <time>2020-10-24T13:06:37.115Z</time>
      </trkpt>
      <trkpt lat="46.47379" lon="8.25559">
        <ele>1328</ele>
        <time>2020-10-24T13:06:38.116Z</time>
      </trkpt>
      <trkpt lat="46.47378" lon="8.25559">
        <ele>1329</ele>
        <time>2020-10-24T13:06:39.115Z</time>
      </trkpt>
      <trkpt lat="46.47378" lon="8.25558">
        <ele>1330</ele>
        <time>2020-10-24T13:06:40.116Z</time>
      </trkpt>
      <trkpt lat="46.47377" lon="8.25557">
        <ele>1331</ele>
        <time>2020-10-24T13:06:41.116Z</time>
      </trkpt>
      <trkpt lat="46.47376" lon="8.25556">
        <ele>1332</ele>
        <time>2020-10-24T13:06:42.115Z</time>
      </trkpt>
      <trkpt lat="46.47375" lon="8.25555">
        <ele>1332</ele>
        <time>2020-10-24T13:06:43.116Z</time>
      </trkpt>
      <trkpt lat="46.47375" lon="8.25554">
        <ele>1333</ele>
        <time>2020-10-24T13:06:44.115Z</time>
      </trkpt>
      <trkpt lat="46.47374" lon="8.25553">
        <ele>1333</ele>
        <time>2020-10-24T13:06:45.116Z</time>
      </trkpt>
      <trkpt lat="46.47373" lon="8.25552">
        <ele>1332</ele>
        <time>2020-10-24T13:06:46.115Z</time>
      </trkpt>
      <trkpt lat="46.47372" lon="8.25552">
        <ele>1332</ele>
        <time>2020-10-24T13:06:47.116Z</time>
      </trkpt>
      <trkpt lat="46.47372" lon="8.25551">
        <ele>1331</ele>
        <time>2020-10-24T13:06:48.116Z</time>
      </trkpt>
      <trkpt lat="46.47371" lon="8.2555">
        <ele>1331</ele>
        <time>2020-10-24T13:06:49.116Z</time>
      </trkpt>
      <trkpt lat="46.4737" lon="8.2555">
        <ele>1331</ele>
        <time>2020-10-24T13:06:50.115Z</time>
      </trkpt>
      <trkpt lat="46.47369" lon="8.25548">
        <ele>1330</ele>
        <time>2020-10-24T13:06:51.115Z</time>
      </trkpt>
      <trkpt lat="46.47369" lon="8.25548">
        <ele>1330</ele>
        <time>2020-10-24T13:06:52.115Z</time>
      </trkpt>
      <trkpt lat="46.47368" lon="8.25546">
        <ele>1330</ele>
        <time>2020-10-24T13:06:53.115Z</time>
      </trkpt>
      <trkpt lat="46.47367" lon="8.25545">
        <ele>1330</ele>
        <time>2020-10-24T13:06:54.115Z</time>
      </trkpt>
      <trkpt lat="46.47367" lon="8.25544">
        <ele>1330</ele>
        <time>2020-10-24T13:06:55.115Z</time>
      </trkpt>
      <trkpt lat="46.47366" lon="8.25543">
        <ele>1330</ele>
        <time>2020-10-24T13:06:56.115Z</time>
      </trkpt>
      <trkpt lat="46.47365" lon="8.25542">
        <ele>1330</ele>
        <time>2020-10-24T13:06:57.116Z</time>
      </trkpt>
      <trkpt lat="46.47364" lon="8.25541">
        <ele>1329</ele>
        <time>2020-10-24T13:06:58.116Z</time>
      </trkpt>
      <trkpt lat="46.47364" lon="8.2554">
        <ele>1329</ele>
        <time>2020-10-24T13:06:59.116Z</time>
      </trkpt>
      <trkpt lat="46.47363" lon="8.25539">
        <ele>1329</ele>
        <time>2020-10-24T13:07:00.116Z</time>
      </trkpt>
      <trkpt lat="46.47363" lon="8.25539">
        <ele>1329</ele>
        <time>2020-10-24T13:07:01.116Z</time>
      </trkpt>
      <trkpt lat="46.47362" lon="8.25538">
        <ele>1329</ele>
        <time>2020-10-24T13:07:02.116Z</time>
      </trkpt>
      <trkpt lat="46.47361" lon="8.25538">
        <ele>1328</ele>
        <time>2020-10-24T13:07:03.116Z</time>
      </trkpt>
      <trkpt lat="46.47361" lon="8.25538">
        <ele>1328</ele>
        <time>2020-10-24T13:07:04.116Z</time>
      </trkpt>
      <trkpt lat="46.4736" lon="8.25537">
        <ele>1329</ele>
        <time>2020-10-24T13:07:05.116Z</time>
      </trkpt>
      <trkpt lat="46.47359" lon="8.25536">
        <ele>1329</ele>
        <time>2020-10-24T13:07:06.116Z</time>
      </trkpt>
      <trkpt lat="46.47358" lon="8.25535">
        <ele>1329</ele>
        <time>2020-10-24T13:07:07.116Z</time>
      </trkpt>
      <trkpt lat="46.47358" lon="8.25534">
        <ele>1329</ele>
        <time>2020-10-24T13:07:08.116Z</time>
      </trkpt>
      <trkpt lat="46.47357" lon="8.25533">
        <ele>1329</ele>
        <time>2020-10-24T13:07:09.116Z</time>
      </trkpt>
      <trkpt lat="46.47357" lon="8.25532">
        <ele>1328</ele>
        <time>2020-10-24T13:07:10.115Z</time>
      </trkpt>
      <trkpt lat="46.47356" lon="8.25532">
        <ele>1328</ele>
        <time>2020-10-24T13:07:11.115Z</time>
      </trkpt>
      <trkpt lat="46.47355" lon="8.25531">
        <ele>1328</ele>
        <time>2020-10-24T13:07:12.115Z</time>
      </trkpt>
      <trkpt lat="46.47354" lon="8.2553">
        <ele>1327</ele>
        <time>2020-10-24T13:07:13.116Z</time>
      </trkpt>
      <trkpt lat="46.47353" lon="8.25529">
        <ele>1327</ele>
        <time>2020-10-24T13:07:14.115Z</time>
      </trkpt>
      <trkpt lat="46.47353" lon="8.25528">
        <ele>1327</ele>
        <time>2020-10-24T13:07:15.116Z</time>
      </trkpt>
      <trkpt lat="46.47352" lon="8.25527">
        <ele>1328</ele>
        <time>2020-10-24T13:07:16.116Z</time>
      </trkpt>
      <trkpt lat="46.47351" lon="8.25525">
        <ele>1327</ele>
        <time>2020-10-24T13:07:17.115Z</time>
      </trkpt>
      <trkpt lat="46.47351" lon="8.25524">
        <ele>1327</ele>
        <time>2020-10-24T13:07:18.116Z</time>
      </trkpt>
      <trkpt lat="46.4735" lon="8.25523">
        <ele>1327</ele>
        <time>2020-10-24T13:07:19.116Z</time>
      </trkpt>
      <trkpt lat="46.4735" lon="8.25524">
        <ele>1327</ele>
        <time>2020-10-24T13:07:20.116Z</time>
      </trkpt>
      <trkpt lat="46.4735" lon="8.25523">
        <ele>1327</ele>
        <time>2020-10-24T13:07:21.116Z</time>
      </trkpt>
      <trkpt lat="46.47349" lon="8.25523">
        <ele>1327</ele>
        <time>2020-10-24T13:07:22.116Z</time>
      </trkpt>
      <trkpt lat="46.47349" lon="8.25522">
        <ele>1327</ele>
        <time>2020-10-24T13:07:23.116Z</time>
      </trkpt>
      <trkpt lat="46.47348" lon="8.2552">
        <ele>1328</ele>
        <time>2020-10-24T13:07:24.116Z</time>
      </trkpt>
      <trkpt lat="46.47347" lon="8.25518">
        <ele>1328</ele>
        <time>2020-10-24T13:07:25.116Z</time>
      </trkpt>
      <trkpt lat="46.47346" lon="8.25518">
        <ele>1328</ele>
        <time>2020-10-24T13:07:26.115Z</time>
      </trkpt>
      <trkpt lat="46.47346" lon="8.25517">
        <ele>1328</ele>
        <time>2020-10-24T13:07:27.116Z</time>
      </trkpt>
      <trkpt lat="46.47344" lon="8.25517">
        <ele>1328</ele>
        <time>2020-10-24T13:07:28.116Z</time>
      </trkpt>
      <trkpt lat="46.47343" lon="8.25515">
        <ele>1328</ele>
        <time>2020-10-24T13:07:29.116Z</time>
      </trkpt>
      <trkpt lat="46.47342" lon="8.25513">
        <ele>1327</ele>
        <time>2020-10-24T13:07:30.116Z</time>
      </trkpt>
      <trkpt lat="46.47341" lon="8.25512">
        <ele>1326</ele>
        <time>2020-10-24T13:07:31.115Z</time>
      </trkpt>
      <trkpt lat="46.4734" lon="8.25511">
        <ele>1326</ele>
        <time>2020-10-24T13:07:32.116Z</time>
      </trkpt>
      <trkpt lat="46.47339" lon="8.2551">
        <ele>1325</ele>
        <time>2020-10-24T13:07:33.116Z</time>
      </trkpt>
      <trkpt lat="46.47339" lon="8.25509">
        <ele>1325</ele>
        <time>2020-10-24T13:07:34.116Z</time>
      </trkpt>
      <trkpt lat="46.47338" lon="8.25508">
        <ele>1325</ele>
        <time>2020-10-24T13:07:35.116Z</time>
      </trkpt>
      <trkpt lat="46.47338" lon="8.25507">
        <ele>1326</ele>
        <time>2020-10-24T13:07:36.115Z</time>
      </trkpt>
      <trkpt lat="46.47337" lon="8.25506">
        <ele>1326</ele>
        <time>2020-10-24T13:07:37.116Z</time>
      </trkpt>
      <trkpt lat="46.47336" lon="8.25505">
        <ele>1326</ele>
        <time>2020-10-24T13:07:38.115Z</time>
      </trkpt>
      <trkpt lat="46.47335" lon="8.25504">
        <ele>1326</ele>
        <time>2020-10-24T13:07:39.116Z</time>
      </trkpt>
      <trkpt lat="46.47335" lon="8.25503">
        <ele>1326</ele>
        <time>2020-10-24T13:07:40.115Z</time>
      </trkpt>
      <trkpt lat="46.47334" lon="8.25502">
        <ele>1326</ele>
        <time>2020-10-24T13:07:41.115Z</time>
      </trkpt>
      <trkpt lat="46.47333" lon="8.25501">
        <ele>1326</ele>
        <time>2020-10-24T13:07:42.115Z</time>
      </trkpt>
      <trkpt lat="46.47332" lon="8.25501">
        <ele>1326</ele>
        <time>2020-10-24T13:07:43.115Z</time>
      </trkpt>
      <trkpt lat="46.47332" lon="8.255">
        <ele>1326</ele>
        <time>2020-10-24T13:07:44.116Z</time>
      </trkpt>
      <trkpt lat="46.47331" lon="8.25499">
        <ele>1325</ele>
        <time>2020-10-24T13:07:45.116Z</time>
      </trkpt>
      <trkpt lat="46.4733" lon="8.25499">
        <ele>1325</ele>
        <time>2020-10-24T13:07:46.115Z</time>
      </trkpt>
      <trkpt lat="46.47329" lon="8.25498">
        <ele>1325</ele>
        <time>2020-10-24T13:07:47.115Z</time>
      </trkpt>
      <trkpt lat="46.47328" lon="8.25497">
        <ele>1325</ele>
        <time>2020-10-24T13:07:48.116Z</time>
      </trkpt>
      <trkpt lat="46.47327" lon="8.25497">
        <ele>1325</ele>
        <time>2020-10-24T13:07:49.116Z</time>
      </trkpt>
      <trkpt lat="46.47327" lon="8.25496">
        <ele>1324</ele>
        <time>2020-10-24T13:07:50.115Z</time>
      </trkpt>
      <trkpt lat="46.47325" lon="8.25496">
        <ele>1324</ele>
        <time>2020-10-24T13:07:51.116Z</time>
      </trkpt>
      <trkpt lat="46.47325" lon="8.25495">
        <ele>1324</ele>
        <time>2020-10-24T13:07:52.115Z</time>
      </trkpt>
      <trkpt lat="46.47324" lon="8.25494">
        <ele>1324</ele>
        <time>2020-10-24T13:07:53.115Z</time>
      </trkpt>
      <trkpt lat="46.47323" lon="8.25494">
        <ele>1324</ele>
        <time>2020-10-24T13:07:54.115Z</time>
      </trkpt>
      <trkpt lat="46.47322" lon="8.25493">
        <ele>1324</ele>
        <time>2020-10-24T13:07:55.115Z</time>
      </trkpt>
      <trkpt lat="46.47321" lon="8.25493">
        <ele>1324</ele>
        <time>2020-10-24T13:07:56.116Z</time>
      </trkpt>
      <trkpt lat="46.4732" lon="8.25492">
        <ele>1324</ele>
        <time>2020-10-24T13:07:57.115Z</time>
      </trkpt>
      <trkpt lat="46.47319" lon="8.25491">
        <ele>1324</ele>
        <time>2020-10-24T13:07:58.116Z</time>
      </trkpt>
      <trkpt lat="46.47318" lon="8.2549">
        <ele>1324</ele>
        <time>2020-10-24T13:07:59.116Z</time>
      </trkpt>
      <trkpt lat="46.47317" lon="8.2549">
        <ele>1324</ele>
        <time>2020-10-24T13:08:00.116Z</time>
      </trkpt>
      <trkpt lat="46.47316" lon="8.25489">
        <ele>1323</ele>
        <time>2020-10-24T13:08:01.115Z</time>
      </trkpt>
      <trkpt lat="46.47315" lon="8.25488">
        <ele>1323</ele>
        <time>2020-10-24T13:08:02.116Z</time>
      </trkpt>
      <trkpt lat="46.47314" lon="8.25488">
        <ele>1324</ele>
        <time>2020-10-24T13:08:03.116Z</time>
      </trkpt>
      <trkpt lat="46.47313" lon="8.25488">
        <ele>1324</ele>
        <time>2020-10-24T13:08:04.115Z</time>
      </trkpt>
      <trkpt lat="46.47313" lon="8.25487">
        <ele>1324</ele>
        <time>2020-10-24T13:08:05.116Z</time>
      </trkpt>
      <trkpt lat="46.47312" lon="8.25487">
        <ele>1324</ele>
        <time>2020-10-24T13:08:06.116Z</time>
      </trkpt>
      <trkpt lat="46.47311" lon="8.25487">
        <ele>1324</ele>
        <time>2020-10-24T13:08:07.116Z</time>
      </trkpt>
      <trkpt lat="46.4731" lon="8.25486">
        <ele>1324</ele>
        <time>2020-10-24T13:08:08.115Z</time>
      </trkpt>
      <trkpt lat="46.47309" lon="8.25485">
        <ele>1325</ele>
        <time>2020-10-24T13:08:09.115Z</time>
      </trkpt>
      <trkpt lat="46.47308" lon="8.25485">
        <ele>1325</ele>
        <time>2020-10-24T13:08:10.115Z</time>
      </trkpt>
      <trkpt lat="46.47308" lon="8.25485">
        <ele>1326</ele>
        <time>2020-10-24T13:08:11.115Z</time>
      </trkpt>
      <trkpt lat="46.47307" lon="8.25484">
        <ele>1326</ele>
        <time>2020-10-24T13:08:12.116Z</time>
      </trkpt>
      <trkpt lat="46.47306" lon="8.25484">
        <ele>1326</ele>
        <time>2020-10-24T13:08:13.115Z</time>
      </trkpt>
      <trkpt lat="46.47304" lon="8.25483">
        <ele>1326</ele>
        <time>2020-10-24T13:08:14.116Z</time>
      </trkpt>
      <trkpt lat="46.47303" lon="8.25483">
        <ele>1326</ele>
        <time>2020-10-24T13:08:15.115Z</time>
      </trkpt>
      <trkpt lat="46.47302" lon="8.25482">
        <ele>1326</ele>
        <time>2020-10-24T13:08:16.115Z</time>
      </trkpt>
      <trkpt lat="46.47302" lon="8.25482">
        <ele>1326</ele>
        <time>2020-10-24T13:08:17.115Z</time>
      </trkpt>
      <trkpt lat="46.47301" lon="8.25481">
        <ele>1327</ele>
        <time>2020-10-24T13:08:18.115Z</time>
      </trkpt>
      <trkpt lat="46.473" lon="8.25481">
        <ele>1327</ele>
        <time>2020-10-24T13:08:19.115Z</time>
      </trkpt>
      <trkpt lat="46.47299" lon="8.2548">
        <ele>1326</ele>
        <time>2020-10-24T13:08:20.115Z</time>
      </trkpt>
      <trkpt lat="46.47298" lon="8.2548">
        <ele>1326</ele>
        <time>2020-10-24T13:08:21.115Z</time>
      </trkpt>
      <trkpt lat="46.47297" lon="8.25479">
        <ele>1325</ele>
        <time>2020-10-24T13:08:22.115Z</time>
      </trkpt>
      <trkpt lat="46.47296" lon="8.25479">
        <ele>1324</ele>
        <time>2020-10-24T13:08:23.116Z</time>
      </trkpt>
      <trkpt lat="46.47295" lon="8.25479">
        <ele>1323</ele>
        <time>2020-10-24T13:08:24.116Z</time>
      </trkpt>
      <trkpt lat="46.47295" lon="8.25479">
        <ele>1322</ele>
        <time>2020-10-24T13:08:25.115Z</time>
      </trkpt>
      <trkpt lat="46.47294" lon="8.25479">
        <ele>1322</ele>
        <time>2020-10-24T13:08:26.116Z</time>
      </trkpt>
      <trkpt lat="46.47293" lon="8.25479">
        <ele>1322</ele>
        <time>2020-10-24T13:08:27.116Z</time>
      </trkpt>
      <trkpt lat="46.47291" lon="8.25479">
        <ele>1321</ele>
        <time>2020-10-24T13:08:28.115Z</time>
      </trkpt>
      <trkpt lat="46.47291" lon="8.25479">
        <ele>1321</ele>
        <time>2020-10-24T13:08:29.116Z</time>
      </trkpt>
      <trkpt lat="46.4729" lon="8.25479">
        <ele>1321</ele>
        <time>2020-10-24T13:08:30.116Z</time>
      </trkpt>
      <trkpt lat="46.47289" lon="8.25479">
        <ele>1321</ele>
        <time>2020-10-24T13:08:31.116Z</time>
      </trkpt>
      <trkpt lat="46.47288" lon="8.25479">
        <ele>1320</ele>
        <time>2020-10-24T13:08:32.116Z</time>
      </trkpt>
      <trkpt lat="46.47287" lon="8.25478">
        <ele>1320</ele>
        <time>2020-10-24T13:08:33.116Z</time>
      </trkpt>
      <trkpt lat="46.47285" lon="8.25478">
        <ele>1320</ele>
        <time>2020-10-24T13:08:34.116Z</time>
      </trkpt>
      <trkpt lat="46.47284" lon="8.25477">
        <ele>1320</ele>
        <time>2020-10-24T13:08:35.116Z</time>
      </trkpt>
      <trkpt lat="46.47283" lon="8.25477">
        <ele>1320</ele>
        <time>2020-10-24T13:08:36.115Z</time>
      </trkpt>
      <trkpt lat="46.47281" lon="8.25476">
        <ele>1320</ele>
        <time>2020-10-24T13:08:37.116Z</time>
      </trkpt>
      <trkpt lat="46.47281" lon="8.25476">
        <ele>1320</ele>
        <time>2020-10-24T13:08:38.116Z</time>
      </trkpt>
      <trkpt lat="46.47279" lon="8.25475">
        <ele>1320</ele>
        <time>2020-10-24T13:08:39.116Z</time>
      </trkpt>
      <trkpt lat="46.47278" lon="8.25474">
        <ele>1321</ele>
        <time>2020-10-24T13:08:40.115Z</time>
      </trkpt>
      <trkpt lat="46.47277" lon="8.25474">
        <ele>1321</ele>
        <time>2020-10-24T13:08:41.116Z</time>
      </trkpt>
      <trkpt lat="46.47276" lon="8.25475">
        <ele>1321</ele>
        <time>2020-10-24T13:08:42.116Z</time>
      </trkpt>
      <trkpt lat="46.47275" lon="8.25475">
        <ele>1320</ele>
        <time>2020-10-24T13:08:43.116Z</time>
      </trkpt>
      <trkpt lat="46.47273" lon="8.25475">
        <ele>1320</ele>
        <time>2020-10-24T13:08:44.116Z</time>
      </trkpt>
      <trkpt lat="46.47272" lon="8.25475">
        <ele>1320</ele>
        <time>2020-10-24T13:08:45.116Z</time>
      </trkpt>
      <trkpt lat="46.47271" lon="8.25474">
        <ele>1320</ele>
        <time>2020-10-24T13:08:46.116Z</time>
      </trkpt>
      <trkpt lat="46.4727" lon="8.25473">
        <ele>1321</ele>
        <time>2020-10-24T13:08:47.116Z</time>
      </trkpt>
      <trkpt lat="46.47269" lon="8.25473">
        <ele>1321</ele>
        <time>2020-10-24T13:08:48.115Z</time>
      </trkpt>
      <trkpt lat="46.47268" lon="8.25473">
        <ele>1322</ele>
        <time>2020-10-24T13:08:49.116Z</time>
      </trkpt>
      <trkpt lat="46.47267" lon="8.25472">
        <ele>1322</ele>
        <time>2020-10-24T13:08:50.116Z</time>
      </trkpt>
      <trkpt lat="46.47266" lon="8.25471">
        <ele>1323</ele>
        <time>2020-10-24T13:08:51.116Z</time>
      </trkpt>
      <trkpt lat="46.47265" lon="8.25471">
        <ele>1323</ele>
        <time>2020-10-24T13:08:52.116Z</time>
      </trkpt>
      <trkpt lat="46.47264" lon="8.25471">
        <ele>1324</ele>
        <time>2020-10-24T13:08:53.115Z</time>
      </trkpt>
      <trkpt lat="46.47263" lon="8.2547">
        <ele>1324</ele>
        <time>2020-10-24T13:08:54.116Z</time>
      </trkpt>
      <trkpt lat="46.47262" lon="8.2547">
        <ele>1324</ele>
        <time>2020-10-24T13:08:55.116Z</time>
      </trkpt>
      <trkpt lat="46.47261" lon="8.2547">
        <ele>1325</ele>
        <time>2020-10-24T13:08:56.116Z</time>
      </trkpt>
      <trkpt lat="46.4726" lon="8.2547">
        <ele>1325</ele>
        <time>2020-10-24T13:08:57.116Z</time>
      </trkpt>
      <trkpt lat="46.47258" lon="8.25469">
        <ele>1325</ele>
        <time>2020-10-24T13:08:58.116Z</time>
      </trkpt>
      <trkpt lat="46.47257" lon="8.25468">
        <ele>1325</ele>
        <time>2020-10-24T13:08:59.116Z</time>
      </trkpt>
      <trkpt lat="46.47256" lon="8.25467">
        <ele>1325</ele>
        <time>2020-10-24T13:09:00.116Z</time>
      </trkpt>
      <trkpt lat="46.47255" lon="8.25467">
        <ele>1326</ele>
        <time>2020-10-24T13:09:01.116Z</time>
      </trkpt>
      <trkpt lat="46.47254" lon="8.25467">
        <ele>1327</ele>
        <time>2020-10-24T13:09:02.115Z</time>
      </trkpt>
      <trkpt lat="46.47253" lon="8.25466">
        <ele>1328</ele>
        <time>2020-10-24T13:09:03.116Z</time>
      </trkpt>
      <trkpt lat="46.47253" lon="8.25466">
        <ele>1329</ele>
        <time>2020-10-24T13:09:04.116Z</time>
      </trkpt>
      <trkpt lat="46.47252" lon="8.25466">
        <ele>1330</ele>
        <time>2020-10-24T13:09:05.116Z</time>
      </trkpt>
      <trkpt lat="46.47251" lon="8.25466">
        <ele>1330</ele>
        <time>2020-10-24T13:09:06.116Z</time>
      </trkpt>
      <trkpt lat="46.4725" lon="8.25466">
        <ele>1330</ele>
        <time>2020-10-24T13:09:07.116Z</time>
      </trkpt>
      <trkpt lat="46.47249" lon="8.25466">
        <ele>1330</ele>
        <time>2020-10-24T13:09:08.115Z</time>
      </trkpt>
      <trkpt lat="46.47248" lon="8.25465">
        <ele>1329</ele>
        <time>2020-10-24T13:09:09.115Z</time>
      </trkpt>
      <trkpt lat="46.47246" lon="8.25465">
        <ele>1329</ele>
        <time>2020-10-24T13:09:10.116Z</time>
      </trkpt>
      <trkpt lat="46.47245" lon="8.25464">
        <ele>1329</ele>
        <time>2020-10-24T13:09:11.115Z</time>
      </trkpt>
      <trkpt lat="46.47244" lon="8.25464">
        <ele>1329</ele>
        <time>2020-10-24T13:09:12.115Z</time>
      </trkpt>
      <trkpt lat="46.47243" lon="8.25464">
        <ele>1328</ele>
        <time>2020-10-24T13:09:13.115Z</time>
      </trkpt>
      <trkpt lat="46.47242" lon="8.25464">
        <ele>1328</ele>
        <time>2020-10-24T13:09:14.115Z</time>
      </trkpt>
      <trkpt lat="46.47241" lon="8.25463">
        <ele>1328</ele>
        <time>2020-10-24T13:09:15.116Z</time>
      </trkpt>
      <trkpt lat="46.4724" lon="8.25463">
        <ele>1328</ele>
        <time>2020-10-24T13:09:16.116Z</time>
      </trkpt>
      <trkpt lat="46.47239" lon="8.25462">
        <ele>1329</ele>
        <time>2020-10-24T13:09:17.115Z</time>
      </trkpt>
      <trkpt lat="46.47238" lon="8.25462">
        <ele>1329</ele>
        <time>2020-10-24T13:09:18.115Z</time>
      </trkpt>
      <trkpt lat="46.47236" lon="8.25461">
        <ele>1330</ele>
        <time>2020-10-24T13:09:19.115Z</time>
      </trkpt>
      <trkpt lat="46.47235" lon="8.2546">
        <ele>1331</ele>
        <time>2020-10-24T13:09:20.116Z</time>
      </trkpt>
      <trkpt lat="46.47234" lon="8.2546">
        <ele>1332</ele>
        <time>2020-10-24T13:09:21.116Z</time>
      </trkpt>
      <trkpt lat="46.47233" lon="8.25459">
        <ele>1332</ele>
        <time>2020-10-24T13:09:22.116Z</time>
      </trkpt>
      <trkpt lat="46.47232" lon="8.25459">
        <ele>1332</ele>
        <time>2020-10-24T13:09:23.116Z</time>
      </trkpt>
      <trkpt lat="46.47231" lon="8.25459">
        <ele>1332</ele>
        <time>2020-10-24T13:09:24.116Z</time>
      </trkpt>
      <trkpt lat="46.4723" lon="8.25458">
        <ele>1332</ele>
        <time>2020-10-24T13:09:25.116Z</time>
      </trkpt>
      <trkpt lat="46.47229" lon="8.25458">
        <ele>1332</ele>
        <time>2020-10-24T13:09:26.116Z</time>
      </trkpt>
      <trkpt lat="46.47228" lon="8.25457">
        <ele>1332</ele>
        <time>2020-10-24T13:09:27.116Z</time>
      </trkpt>
      <trkpt lat="46.47227" lon="8.25457">
        <ele>1332</ele>
        <time>2020-10-24T13:09:28.115Z</time>
      </trkpt>
      <trkpt lat="46.47226" lon="8.25457">
        <ele>1332</ele>
        <time>2020-10-24T13:09:29.116Z</time>
      </trkpt>
      <trkpt lat="46.47225" lon="8.25457">
        <ele>1331</ele>
        <time>2020-10-24T13:09:30.116Z</time>
      </trkpt>
      <trkpt lat="46.47224" lon="8.25457">
        <ele>1330</ele>
        <time>2020-10-24T13:09:31.116Z</time>
      </trkpt>
      <trkpt lat="46.47223" lon="8.25457">
        <ele>1330</ele>
        <time>2020-10-24T13:09:32.116Z</time>
      </trkpt>
      <trkpt lat="46.47222" lon="8.25456">
        <ele>1329</ele>
        <time>2020-10-24T13:09:33.116Z</time>
      </trkpt>
      <trkpt lat="46.4722" lon="8.25456">
        <ele>1329</ele>
        <time>2020-10-24T13:09:34.116Z</time>
      </trkpt>
      <trkpt lat="46.47219" lon="8.25456">
        <ele>1328</ele>
        <time>2020-10-24T13:09:35.116Z</time>
      </trkpt>
      <trkpt lat="46.47218" lon="8.25456">
        <ele>1328</ele>
        <time>2020-10-24T13:09:36.116Z</time>
      </trkpt>
      <trkpt lat="46.47217" lon="8.25455">
        <ele>1327</ele>
        <time>2020-10-24T13:09:37.116Z</time>
      </trkpt>
      <trkpt lat="46.47216" lon="8.25455">
        <ele>1326</ele>
        <time>2020-10-24T13:09:38.115Z</time>
      </trkpt>
      <trkpt lat="46.47215" lon="8.25454">
        <ele>1326</ele>
        <time>2020-10-24T13:09:39.116Z</time>
      </trkpt>
      <trkpt lat="46.47214" lon="8.25454">
        <ele>1325</ele>
        <time>2020-10-24T13:09:40.116Z</time>
      </trkpt>
      <trkpt lat="46.47213" lon="8.25454">
        <ele>1325</ele>
        <time>2020-10-24T13:09:41.115Z</time>
      </trkpt>
      <trkpt lat="46.47211" lon="8.25454">
        <ele>1325</ele>
        <time>2020-10-24T13:09:42.116Z</time>
      </trkpt>
      <trkpt lat="46.4721" lon="8.25454">
        <ele>1325</ele>
        <time>2020-10-24T13:09:43.116Z</time>
      </trkpt>
      <trkpt lat="46.47209" lon="8.25453">
        <ele>1325</ele>
        <time>2020-10-24T13:09:44.116Z</time>
      </trkpt>
      <trkpt lat="46.47208" lon="8.25453">
        <ele>1325</ele>
        <time>2020-10-24T13:09:45.116Z</time>
      </trkpt>
      <trkpt lat="46.47207" lon="8.25453">
        <ele>1325</ele>
        <time>2020-10-24T13:09:46.115Z</time>
      </trkpt>
      <trkpt lat="46.47206" lon="8.25452">
        <ele>1325</ele>
        <time>2020-10-24T13:09:47.115Z</time>
      </trkpt>
      <trkpt lat="46.47205" lon="8.25452">
        <ele>1325</ele>
        <time>2020-10-24T13:09:48.116Z</time>
      </trkpt>
      <trkpt lat="46.47204" lon="8.25451">
        <ele>1325</ele>
        <time>2020-10-24T13:09:49.115Z</time>
      </trkpt>
      <trkpt lat="46.47203" lon="8.2545">
        <ele>1325</ele>
        <time>2020-10-24T13:09:50.116Z</time>
      </trkpt>
      <trkpt lat="46.47202" lon="8.2545">
        <ele>1326</ele>
        <time>2020-10-24T13:09:51.116Z</time>
      </trkpt>
      <trkpt lat="46.47201" lon="8.25451">
        <ele>1326</ele>
        <time>2020-10-24T13:09:52.116Z</time>
      </trkpt>
      <trkpt lat="46.47201" lon="8.25451">
        <ele>1326</ele>
        <time>2020-10-24T13:09:53.116Z</time>
      </trkpt>
      <trkpt lat="46.47201" lon="8.25451">
        <ele>1326</ele>
        <time>2020-10-24T13:09:54.116Z</time>
      </trkpt>
      <trkpt lat="46.47201" lon="8.25455">
        <ele>1325</ele>
        <time>2020-10-24T13:09:55.116Z</time>
      </trkpt>
      <trkpt lat="46.47201" lon="8.25454">
        <ele>1326</ele>
        <time>2020-10-24T13:09:56.115Z</time>
      </trkpt>
      <trkpt lat="46.47201" lon="8.25453">
        <ele>1325</ele>
        <time>2020-10-24T13:09:57.115Z</time>
      </trkpt>
      <trkpt lat="46.47201" lon="8.25454">
        <ele>1324</ele>
        <time>2020-10-24T13:09:58.115Z</time>
      </trkpt>
      <trkpt lat="46.47202" lon="8.25454">
        <ele>1324</ele>
        <time>2020-10-24T13:09:59.115Z</time>
      </trkpt>
      <trkpt lat="46.47203" lon="8.25454">
        <ele>1324</ele>
        <time>2020-10-24T13:10:00.116Z</time>
      </trkpt>
      <trkpt lat="46.47204" lon="8.25454">
        <ele>1324</ele>
        <time>2020-10-24T13:10:01.115Z</time>
      </trkpt>
      <trkpt lat="46.47204" lon="8.25454">
        <ele>1324</ele>
        <time>2020-10-24T13:10:02.115Z</time>
      </trkpt>
      <trkpt lat="46.47205" lon="8.25455">
        <ele>1324</ele>
        <time>2020-10-24T13:10:03.116Z</time>
      </trkpt>
      <trkpt lat="46.47206" lon="8.25455">
        <ele>1324</ele>
        <time>2020-10-24T13:10:04.116Z</time>
      </trkpt>
      <trkpt lat="46.47206" lon="8.25455">
        <ele>1324</ele>
        <time>2020-10-24T13:10:05.115Z</time>
      </trkpt>
      <trkpt lat="46.47207" lon="8.25455">
        <ele>1325</ele>
        <time>2020-10-24T13:10:06.116Z</time>
      </trkpt>
      <trkpt lat="46.47208" lon="8.25456">
        <ele>1325</ele>
        <time>2020-10-24T13:10:07.115Z</time>
      </trkpt>
      <trkpt lat="46.47208" lon="8.25456">
        <ele>1325</ele>
        <time>2020-10-24T13:10:08.115Z</time>
      </trkpt>
      <trkpt lat="46.47209" lon="8.25457">
        <ele>1325</ele>
        <time>2020-10-24T13:10:09.115Z</time>
      </trkpt>
      <trkpt lat="46.47211" lon="8.25456">
        <ele>1325</ele>
        <time>2020-10-24T13:10:10.116Z</time>
      </trkpt>
      <trkpt lat="46.47211" lon="8.25456">
        <ele>1325</ele>
        <time>2020-10-24T13:10:11.116Z</time>
      </trkpt>
      <trkpt lat="46.4721" lon="8.25456">
        <ele>1326</ele>
        <time>2020-10-24T13:10:12.115Z</time>
      </trkpt>
      <trkpt lat="46.47212" lon="8.25456">
        <ele>1326</ele>
        <time>2020-10-24T13:10:13.116Z</time>
      </trkpt>
      <trkpt lat="46.47212" lon="8.25455">
        <ele>1326</ele>
        <time>2020-10-24T13:10:14.115Z</time>
      </trkpt>
      <trkpt lat="46.47211" lon="8.25454">
        <ele>1320</ele>
        <time>2020-10-24T13:10:15.117Z</time>
      </trkpt>
      <trkpt lat="46.47211" lon="8.25454">
        <ele>1319</ele>
        <time>2020-10-24T13:10:16.116Z</time>
      </trkpt>
      <trkpt lat="46.47213" lon="8.25454">
        <ele>1317</ele>
        <time>2020-10-24T13:10:17.117Z</time>
      </trkpt>
      <trkpt lat="46.47213" lon="8.25454">
        <ele>1318</ele>
        <time>2020-10-24T13:10:18.117Z</time>
      </trkpt>
      <trkpt lat="46.47209" lon="8.25455">
        <ele>1327</ele>
        <time>2020-10-24T13:10:19.118Z</time>
      </trkpt>
      <trkpt lat="46.47209" lon="8.25456">
        <ele>1327</ele>
        <time>2020-10-24T13:10:20.117Z</time>
      </trkpt>
      <trkpt lat="46.47209" lon="8.25456">
        <ele>1328</ele>
        <time>2020-10-24T13:10:21.117Z</time>
      </trkpt>
      <trkpt lat="46.47208" lon="8.25456">
        <ele>1328</ele>
        <time>2020-10-24T13:10:22.117Z</time>
      </trkpt>
      <trkpt lat="46.47209" lon="8.25455">
        <ele>1331</ele>
        <time>2020-10-24T13:10:23.120Z</time>
      </trkpt>
      <trkpt lat="46.47208" lon="8.25456">
        <ele>1330</ele>
        <time>2020-10-24T13:10:24.120Z</time>
      </trkpt>
      <trkpt lat="46.47208" lon="8.25455">
        <ele>1329</ele>
        <time>2020-10-24T13:10:25.119Z</time>
      </trkpt>
      <trkpt lat="46.4721" lon="8.25452">
        <ele>1327</ele>
        <time>2020-10-24T13:10:26.121Z</time>
      </trkpt>
      <trkpt lat="46.47209" lon="8.25452">
        <ele>1327</ele>
        <time>2020-10-24T13:10:27.121Z</time>
      </trkpt>
      <trkpt lat="46.47209" lon="8.25451">
        <ele>1326</ele>
        <time>2020-10-24T13:10:28.120Z</time>
      </trkpt>
      <trkpt lat="46.47209" lon="8.25453">
        <ele>1330</ele>
        <time>2020-10-24T13:10:29.121Z</time>
      </trkpt>
      <trkpt lat="46.4721" lon="8.25452">
        <ele>1330</ele>
        <time>2020-10-24T13:10:30.122Z</time>
      </trkpt>
      <trkpt lat="46.47203" lon="8.2546">
        <ele>1328</ele>
        <time>2020-10-24T13:10:31.122Z</time>
      </trkpt>
      <trkpt lat="46.47203" lon="8.2546">
        <ele>1328</ele>
        <time>2020-10-24T13:10:32.122Z</time>
      </trkpt>
      <trkpt lat="46.47206" lon="8.25458">
        <ele>1325</ele>
        <time>2020-10-24T13:10:33.121Z</time>
      </trkpt>
      <trkpt lat="46.47207" lon="8.25458">
        <ele>1325</ele>
        <time>2020-10-24T13:10:34.121Z</time>
      </trkpt>
      <trkpt lat="46.47208" lon="8.25457">
        <ele>1324</ele>
        <time>2020-10-24T13:10:35.121Z</time>
      </trkpt>
      <trkpt lat="46.47208" lon="8.25456">
        <ele>1323</ele>
        <time>2020-10-24T13:10:36.121Z</time>
      </trkpt>
      <trkpt lat="46.47209" lon="8.25455">
        <ele>1323</ele>
        <time>2020-10-24T13:10:37.121Z</time>
      </trkpt>
      <trkpt lat="46.4721" lon="8.25454">
        <ele>1321</ele>
        <time>2020-10-24T13:10:38.123Z</time>
      </trkpt>
      <trkpt lat="46.47212" lon="8.25453">
        <ele>1321</ele>
        <time>2020-10-24T13:10:39.122Z</time>
      </trkpt>
      <trkpt lat="46.47213" lon="8.25454">
        <ele>1321</ele>
        <time>2020-10-24T13:10:40.122Z</time>
      </trkpt>
      <trkpt lat="46.47214" lon="8.25454">
        <ele>1321</ele>
        <time>2020-10-24T13:10:41.123Z</time>
      </trkpt>
      <trkpt lat="46.47216" lon="8.25454">
        <ele>1322</ele>
        <time>2020-10-24T13:10:42.123Z</time>
      </trkpt>
      <trkpt lat="46.47217" lon="8.25454">
        <ele>1322</ele>
        <time>2020-10-24T13:10:43.122Z</time>
      </trkpt>
      <trkpt lat="46.47218" lon="8.25454">
        <ele>1322</ele>
        <time>2020-10-24T13:10:44.123Z</time>
      </trkpt>
      <trkpt lat="46.47218" lon="8.25455">
        <ele>1322</ele>
        <time>2020-10-24T13:10:45.122Z</time>
      </trkpt>
      <trkpt lat="46.47217" lon="8.25454">
        <ele>1321</ele>
        <time>2020-10-24T13:10:46.123Z</time>
      </trkpt>
      <trkpt lat="46.47216" lon="8.25454">
        <ele>1321</ele>
        <time>2020-10-24T13:10:47.123Z</time>
      </trkpt>
      <trkpt lat="46.47216" lon="8.25452">
        <ele>1320</ele>
        <time>2020-10-24T13:10:48.123Z</time>
      </trkpt>
      <trkpt lat="46.47213" lon="8.25449">
        <ele>1318</ele>
        <time>2020-10-24T13:10:49.122Z</time>
      </trkpt>
      <trkpt lat="46.47213" lon="8.25448">
        <ele>1318</ele>
        <time>2020-10-24T13:10:50.123Z</time>
      </trkpt>
      <trkpt lat="46.47212" lon="8.25448">
        <ele>1318</ele>
        <time>2020-10-24T13:10:51.122Z</time>
      </trkpt>
      <trkpt lat="46.47212" lon="8.25447">
        <ele>1319</ele>
        <time>2020-10-24T13:10:52.122Z</time>
      </trkpt>
      <trkpt lat="46.4721" lon="8.25448">
        <ele>1319</ele>
        <time>2020-10-24T13:10:53.123Z</time>
      </trkpt>
      <trkpt lat="46.4721" lon="8.25445">
        <ele>1320</ele>
        <time>2020-10-24T13:10:54.123Z</time>
      </trkpt>
      <trkpt lat="46.47211" lon="8.25444">
        <ele>1321</ele>
        <time>2020-10-24T13:10:55.123Z</time>
      </trkpt>
      <trkpt lat="46.47211" lon="8.25444">
        <ele>1322</ele>
        <time>2020-10-24T13:10:56.122Z</time>
      </trkpt>
      <trkpt lat="46.47211" lon="8.25444">
        <ele>1323</ele>
        <time>2020-10-24T13:10:57.122Z</time>
      </trkpt>
      <trkpt lat="46.47205" lon="8.2545">
        <ele>1327</ele>
        <time>2020-10-24T13:10:58.123Z</time>
      </trkpt>
      <trkpt lat="46.47205" lon="8.2545">
        <ele>1327</ele>
        <time>2020-10-24T13:10:59.122Z</time>
      </trkpt>
      <trkpt lat="46.47205" lon="8.2545">
        <ele>1327</ele>
        <time>2020-10-24T13:11:00.122Z</time>
      </trkpt>
      <trkpt lat="46.47204" lon="8.25451">
        <ele>1327</ele>
        <time>2020-10-24T13:11:01.122Z</time>
      </trkpt>
      <trkpt lat="46.47207" lon="8.2545">
        <ele>1321</ele>
        <time>2020-10-24T13:11:02.123Z</time>
      </trkpt>
      <trkpt lat="46.47207" lon="8.2545">
        <ele>1322</ele>
        <time>2020-10-24T13:11:03.122Z</time>
      </trkpt>
      <trkpt lat="46.47206" lon="8.25451">
        <ele>1323</ele>
        <time>2020-10-24T13:11:04.123Z</time>
      </trkpt>
      <trkpt lat="46.47204" lon="8.25452">
        <ele>1323</ele>
        <time>2020-10-24T13:11:05.123Z</time>
      </trkpt>
      <trkpt lat="46.47204" lon="8.25452">
        <ele>1324</ele>
        <time>2020-10-24T13:11:06.123Z</time>
      </trkpt>
      <trkpt lat="46.47204" lon="8.25453">
        <ele>1324</ele>
        <time>2020-10-24T13:11:07.123Z</time>
      </trkpt>
      <trkpt lat="46.47204" lon="8.25453">
        <ele>1325</ele>
        <time>2020-10-24T13:11:08.123Z</time>
      </trkpt>
      <trkpt lat="46.47204" lon="8.25455">
        <ele>1332</ele>
        <time>2020-10-24T13:11:09.123Z</time>
      </trkpt>
      <trkpt lat="46.47204" lon="8.25455">
        <ele>1332</ele>
        <time>2020-10-24T13:11:10.123Z</time>
      </trkpt>
      <trkpt lat="46.47206" lon="8.25454">
        <ele>1335</ele>
        <time>2020-10-24T13:11:11.123Z</time>
      </trkpt>
      <trkpt lat="46.47207" lon="8.25453">
        <ele>1335</ele>
        <time>2020-10-24T13:11:12.123Z</time>
      </trkpt>
      <trkpt lat="46.47207" lon="8.25454">
        <ele>1335</ele>
        <time>2020-10-24T13:11:13.122Z</time>
      </trkpt>
      <trkpt lat="46.47207" lon="8.25454">
        <ele>1335</ele>
        <time>2020-10-24T13:11:14.122Z</time>
      </trkpt>
      <trkpt lat="46.47207" lon="8.25453">
        <ele>1336</ele>
        <time>2020-10-24T13:11:15.123Z</time>
      </trkpt>
      <trkpt lat="46.4721" lon="8.25455">
        <ele>1345</ele>
        <time>2020-10-24T13:11:16.122Z</time>
      </trkpt>
      <trkpt lat="46.4721" lon="8.25455">
        <ele>1345</ele>
        <time>2020-10-24T13:11:17.123Z</time>
      </trkpt>
      <trkpt lat="46.4721" lon="8.25455">
        <ele>1345</ele>
        <time>2020-10-24T13:11:18.122Z</time>
      </trkpt>
      <trkpt lat="46.47208" lon="8.25454">
        <ele>1345</ele>
        <time>2020-10-24T13:11:19.123Z</time>
      </trkpt>
      <trkpt lat="46.47207" lon="8.25453">
        <ele>1344</ele>
        <time>2020-10-24T13:11:20.122Z</time>
      </trkpt>
      <trkpt lat="46.47206" lon="8.25452">
        <ele>1344</ele>
        <time>2020-10-24T13:11:21.123Z</time>
      </trkpt>
      <trkpt lat="46.47208" lon="8.25453">
        <ele>1344</ele>
        <time>2020-10-24T13:11:22.123Z</time>
      </trkpt>
      <trkpt lat="46.4721" lon="8.25453">
        <ele>1344</ele>
        <time>2020-10-24T13:11:23.123Z</time>
      </trkpt>
      <trkpt lat="46.47211" lon="8.25453">
        <ele>1344</ele>
        <time>2020-10-24T13:11:24.123Z</time>
      </trkpt>
      <trkpt lat="46.47211" lon="8.25453">
        <ele>1344</ele>
        <time>2020-10-24T13:11:25.123Z</time>
      </trkpt>
      <trkpt lat="46.47211" lon="8.25455">
        <ele>1340</ele>
        <time>2020-10-24T13:11:26.123Z</time>
      </trkpt>
      <trkpt lat="46.47211" lon="8.25455">
        <ele>1340</ele>
        <time>2020-10-24T13:11:27.123Z</time>
      </trkpt>
      <trkpt lat="46.47212" lon="8.25455">
        <ele>1340</ele>
        <time>2020-10-24T13:11:28.122Z</time>
      </trkpt>
      <trkpt lat="46.47213" lon="8.25455">
        <ele>1340</ele>
        <time>2020-10-24T13:11:29.122Z</time>
      </trkpt>
      <trkpt lat="46.47212" lon="8.25455">
        <ele>1340</ele>
        <time>2020-10-24T13:11:30.122Z</time>
      </trkpt>
      <trkpt lat="46.47211" lon="8.25456">
        <ele>1352</ele>
        <time>2020-10-24T13:11:31.123Z</time>
      </trkpt>
      <trkpt lat="46.47208" lon="8.25454">
        <ele>1353</ele>
        <time>2020-10-24T13:11:32.122Z</time>
      </trkpt>
      <trkpt lat="46.47209" lon="8.25455">
        <ele>1350</ele>
        <time>2020-10-24T13:11:33.123Z</time>
      </trkpt>
      <trkpt lat="46.47208" lon="8.25456">
        <ele>1349</ele>
        <time>2020-10-24T13:11:34.123Z</time>
      </trkpt>
      <trkpt lat="46.47208" lon="8.25456">
        <ele>1348</ele>
        <time>2020-10-24T13:11:35.122Z</time>
      </trkpt>
      <trkpt lat="46.47208" lon="8.25455">
        <ele>1346</ele>
        <time>2020-10-24T13:11:36.123Z</time>
      </trkpt>
      <trkpt lat="46.47208" lon="8.25454">
        <ele>1345</ele>
        <time>2020-10-24T13:11:37.123Z</time>
      </trkpt>
      <trkpt lat="46.47208" lon="8.25454">
        <ele>1346</ele>
        <time>2020-10-24T13:11:38.123Z</time>
      </trkpt>
      <trkpt lat="46.47209" lon="8.25454">
        <ele>1346</ele>
        <time>2020-10-24T13:11:39.122Z</time>
      </trkpt>
      <trkpt lat="46.47209" lon="8.25454">
        <ele>1346</ele>
        <time>2020-10-24T13:11:40.122Z</time>
      </trkpt>
      <trkpt lat="46.47209" lon="8.25454">
        <ele>1346</ele>
        <time>2020-10-24T13:11:41.122Z</time>
      </trkpt>
      <trkpt lat="46.4721" lon="8.25454">
        <ele>1346</ele>
        <time>2020-10-24T13:11:42.123Z</time>
      </trkpt>
      <trkpt lat="46.4721" lon="8.25454">
        <ele>1346</ele>
        <time>2020-10-24T13:11:43.123Z</time>
      </trkpt>
      <trkpt lat="46.4721" lon="8.25454">
        <ele>1346</ele>
        <time>2020-10-24T13:11:44.122Z</time>
      </trkpt>
      <trkpt lat="46.47211" lon="8.25454">
        <ele>1346</ele>
        <time>2020-10-24T13:11:45.123Z</time>
      </trkpt>
      <trkpt lat="46.47211" lon="8.25454">
        <ele>1345</ele>
        <time>2020-10-24T13:11:46.123Z</time>
      </trkpt>
      <trkpt lat="46.47211" lon="8.25453">
        <ele>1345</ele>
        <time>2020-10-24T13:11:47.123Z</time>
      </trkpt>
      <trkpt lat="46.47212" lon="8.25452">
        <ele>1344</ele>
        <time>2020-10-24T13:11:48.122Z</time>
      </trkpt>
      <trkpt lat="46.47212" lon="8.25451">
        <ele>1342</ele>
        <time>2020-10-24T13:11:49.122Z</time>
      </trkpt>
      <trkpt lat="46.47212" lon="8.2545">
        <ele>1340</ele>
        <time>2020-10-24T13:11:50.123Z</time>
      </trkpt>
      <trkpt lat="46.47212" lon="8.25449">
        <ele>1336</ele>
        <time>2020-10-24T13:11:51.123Z</time>
      </trkpt>
      <trkpt lat="46.47213" lon="8.25449">
        <ele>1334</ele>
        <time>2020-10-24T13:11:52.123Z</time>
      </trkpt>
      <trkpt lat="46.47213" lon="8.25449">
        <ele>1333</ele>
        <time>2020-10-24T13:11:53.122Z</time>
      </trkpt>
      <trkpt lat="46.47213" lon="8.25449">
        <ele>1332</ele>
        <time>2020-10-24T13:11:54.123Z</time>
      </trkpt>
      <trkpt lat="46.47212" lon="8.25447">
        <ele>1327</ele>
        <time>2020-10-24T13:11:55.123Z</time>
      </trkpt>
      <trkpt lat="46.47212" lon="8.25447">
        <ele>1327</ele>
        <time>2020-10-24T13:11:56.122Z</time>
      </trkpt>
      <trkpt lat="46.47213" lon="8.25447">
        <ele>1327</ele>
        <time>2020-10-24T13:11:57.122Z</time>
      </trkpt>
      <trkpt lat="46.47213" lon="8.25448">
        <ele>1326</ele>
        <time>2020-10-24T13:11:58.122Z</time>
      </trkpt>
      <trkpt lat="46.47212" lon="8.25448">
        <ele>1326</ele>
        <time>2020-10-24T13:11:59.122Z</time>
      </trkpt>
      <trkpt lat="46.47213" lon="8.25448">
        <ele>1327</ele>
        <time>2020-10-24T13:12:00.123Z</time>
      </trkpt>
      <trkpt lat="46.47213" lon="8.25448">
        <ele>1327</ele>
        <time>2020-10-24T13:12:01.122Z</time>
      </trkpt>
      <trkpt lat="46.47212" lon="8.25447">
        <ele>1323</ele>
        <time>2020-10-24T13:12:02.123Z</time>
      </trkpt>
      <trkpt lat="46.47212" lon="8.25447">
        <ele>1322</ele>
        <time>2020-10-24T13:12:03.123Z</time>
      </trkpt>
      <trkpt lat="46.47212" lon="8.25447">
        <ele>1322</ele>
        <time>2020-10-24T13:12:04.122Z</time>
      </trkpt>
      <trkpt lat="46.47212" lon="8.25447">
        <ele>1317</ele>
        <time>2020-10-24T13:12:05.124Z</time>
      </trkpt>
      <trkpt lat="46.47214" lon="8.2545">
        <ele>1324</ele>
        <time>2020-10-24T13:12:06.125Z</time>
      </trkpt>
      <trkpt lat="46.47215" lon="8.2545">
        <ele>1324</ele>
        <time>2020-10-24T13:12:07.124Z</time>
      </trkpt>
      <trkpt lat="46.47212" lon="8.25449">
        <ele>1321</ele>
        <time>2020-10-24T13:12:08.125Z</time>
      </trkpt>
      <trkpt lat="46.47212" lon="8.25448">
        <ele>1321</ele>
        <time>2020-10-24T13:12:09.125Z</time>
      </trkpt>
      <trkpt lat="46.47211" lon="8.25448">
        <ele>1321</ele>
        <time>2020-10-24T13:12:10.124Z</time>
      </trkpt>
      <trkpt lat="46.47211" lon="8.25447">
        <ele>1321</ele>
        <time>2020-10-24T13:12:11.125Z</time>
      </trkpt>
      <trkpt lat="46.4721" lon="8.25448">
        <ele>1321</ele>
        <time>2020-10-24T13:12:12.125Z</time>
      </trkpt>
      <trkpt lat="46.4721" lon="8.25448">
        <ele>1323</ele>
        <time>2020-10-24T13:12:13.125Z</time>
      </trkpt>
      <trkpt lat="46.4721" lon="8.25449">
        <ele>1325</ele>
        <time>2020-10-24T13:12:14.125Z</time>
      </trkpt>
      <trkpt lat="46.4721" lon="8.2545">
        <ele>1327</ele>
        <time>2020-10-24T13:12:15.124Z</time>
      </trkpt>
      <trkpt lat="46.47211" lon="8.25451">
        <ele>1328</ele>
        <time>2020-10-24T13:12:16.125Z</time>
      </trkpt>
      <trkpt lat="46.47211" lon="8.25451">
        <ele>1329</ele>
        <time>2020-10-24T13:12:17.125Z</time>
      </trkpt>
      <trkpt lat="46.47211" lon="8.25451">
        <ele>1330</ele>
        <time>2020-10-24T13:12:18.124Z</time>
      </trkpt>
      <trkpt lat="46.47211" lon="8.25452">
        <ele>1332</ele>
        <time>2020-10-24T13:12:19.124Z</time>
      </trkpt>
      <trkpt lat="46.47212" lon="8.25451">
        <ele>1330</ele>
        <time>2020-10-24T13:12:20.125Z</time>
      </trkpt>
      <trkpt lat="46.47207" lon="8.25461">
        <ele>1331</ele>
        <time>2020-10-24T13:12:21.125Z</time>
      </trkpt>
      <trkpt lat="46.47207" lon="8.25461">
        <ele>1330</ele>
        <time>2020-10-24T13:12:22.126Z</time>
      </trkpt>
      <trkpt lat="46.47211" lon="8.25454">
        <ele>1327</ele>
        <time>2020-10-24T13:12:23.126Z</time>
      </trkpt>
      <trkpt lat="46.4721" lon="8.25454">
        <ele>1326</ele>
        <time>2020-10-24T13:12:24.126Z</time>
      </trkpt>
      <trkpt lat="46.4721" lon="8.25453">
        <ele>1325</ele>
        <time>2020-10-24T13:12:25.125Z</time>
      </trkpt>
      <trkpt lat="46.4721" lon="8.25454">
        <ele>1325</ele>
        <time>2020-10-24T13:12:26.125Z</time>
      </trkpt>
      <trkpt lat="46.4721" lon="8.25454">
        <ele>1324</ele>
        <time>2020-10-24T13:12:27.126Z</time>
      </trkpt>
      <trkpt lat="46.4721" lon="8.25455">
        <ele>1323</ele>
        <time>2020-10-24T13:12:28.125Z</time>
      </trkpt>
      <trkpt lat="46.47209" lon="8.25455">
        <ele>1323</ele>
        <time>2020-10-24T13:12:29.125Z</time>
      </trkpt>
      <trkpt lat="46.47209" lon="8.25455">
        <ele>1322</ele>
        <time>2020-10-24T13:12:30.126Z</time>
      </trkpt>
      <trkpt lat="46.47209" lon="8.25455">
        <ele>1321</ele>
        <time>2020-10-24T13:12:31.125Z</time>
      </trkpt>
      <trkpt lat="46.47209" lon="8.25456">
        <ele>1321</ele>
        <time>2020-10-24T13:12:32.127Z</time>
      </trkpt>
      <trkpt lat="46.47209" lon="8.25456">
        <ele>1320</ele>
        <time>2020-10-24T13:12:33.126Z</time>
      </trkpt>
      <trkpt lat="46.47208" lon="8.25455">
        <ele>1321</ele>
        <time>2020-10-24T13:12:34.127Z</time>
      </trkpt>
      <trkpt lat="46.47207" lon="8.25455">
        <ele>1322</ele>
        <time>2020-10-24T13:12:35.126Z</time>
      </trkpt>
      <trkpt lat="46.47208" lon="8.25454">
        <ele>1322</ele>
        <time>2020-10-24T13:12:36.127Z</time>
      </trkpt>
      <trkpt lat="46.47207" lon="8.25454">
        <ele>1323</ele>
        <time>2020-10-24T13:12:37.126Z</time>
      </trkpt>
      <trkpt lat="46.47207" lon="8.25454">
        <ele>1324</ele>
        <time>2020-10-24T13:12:38.127Z</time>
      </trkpt>
      <trkpt lat="46.47208" lon="8.25452">
        <ele>1325</ele>
        <time>2020-10-24T13:12:39.127Z</time>
      </trkpt>
      <trkpt lat="46.47209" lon="8.25452">
        <ele>1325</ele>
        <time>2020-10-24T13:12:40.128Z</time>
      </trkpt>
      <trkpt lat="46.4721" lon="8.25451">
        <ele>1325</ele>
        <time>2020-10-24T13:12:41.127Z</time>
      </trkpt>
      <trkpt lat="46.4721" lon="8.25451">
        <ele>1325</ele>
        <time>2020-10-24T13:12:42.128Z</time>
      </trkpt>
      <trkpt lat="46.4721" lon="8.25451">
        <ele>1325</ele>
        <time>2020-10-24T13:12:43.127Z</time>
      </trkpt>
      <trkpt lat="46.4721" lon="8.25452">
        <ele>1325</ele>
        <time>2020-10-24T13:12:44.128Z</time>
      </trkpt>
      <trkpt lat="46.4721" lon="8.25452">
        <ele>1325</ele>
        <time>2020-10-24T13:12:45.128Z</time>
      </trkpt>
      <trkpt lat="46.47212" lon="8.25452">
        <ele>1328</ele>
        <time>2020-10-24T13:12:46.128Z</time>
      </trkpt>
      <trkpt lat="46.47212" lon="8.25451">
        <ele>1328</ele>
        <time>2020-10-24T13:12:47.128Z</time>
      </trkpt>
      <trkpt lat="46.47213" lon="8.25451">
        <ele>1329</ele>
        <time>2020-10-24T13:12:48.127Z</time>
      </trkpt>
      <trkpt lat="46.47214" lon="8.2545">
        <ele>1329</ele>
        <time>2020-10-24T13:12:49.128Z</time>
      </trkpt>
      <trkpt lat="46.47214" lon="8.25449">
        <ele>1329</ele>
        <time>2020-10-24T13:12:50.127Z</time>
      </trkpt>
      <trkpt lat="46.47209" lon="8.25454">
        <ele>1329</ele>
        <time>2020-10-24T13:12:51.130Z</time>
      </trkpt>
      <trkpt lat="46.47208" lon="8.25453">
        <ele>1329</ele>
        <time>2020-10-24T13:12:52.130Z</time>
      </trkpt>
      <trkpt lat="46.47208" lon="8.25453">
        <ele>1328</ele>
        <time>2020-10-24T13:12:53.129Z</time>
      </trkpt>
      <trkpt lat="46.47208" lon="8.25452">
        <ele>1328</ele>
        <time>2020-10-24T13:12:54.130Z</time>
      </trkpt>
      <trkpt lat="46.47207" lon="8.25452">
        <ele>1329</ele>
        <time>2020-10-24T13:12:55.131Z</time>
      </trkpt>
      <trkpt lat="46.47207" lon="8.25452">
        <ele>1329</ele>
        <time>2020-10-24T13:12:56.130Z</time>
      </trkpt>
      <trkpt lat="46.47205" lon="8.25455">
        <ele>1328</ele>
        <time>2020-10-24T13:12:57.130Z</time>
      </trkpt>
      <trkpt lat="46.47204" lon="8.25461">
        <ele>1329</ele>
        <time>2020-10-24T13:12:58.132Z</time>
      </trkpt>
      <trkpt lat="46.47202" lon="8.25462">
        <ele>1329</ele>
        <time>2020-10-24T13:12:59.131Z</time>
      </trkpt>
      <trkpt lat="46.47202" lon="8.25462">
        <ele>1330</ele>
        <time>2020-10-24T13:13:00.131Z</time>
      </trkpt>
      <trkpt lat="46.47201" lon="8.25463">
        <ele>1330</ele>
        <time>2020-10-24T13:13:01.132Z</time>
      </trkpt>
      <trkpt lat="46.47199" lon="8.25464">
        <ele>1330</ele>
        <time>2020-10-24T13:13:02.132Z</time>
      </trkpt>
      <trkpt lat="46.47199" lon="8.25464">
        <ele>1330</ele>
        <time>2020-10-24T13:13:03.132Z</time>
      </trkpt>
      <trkpt lat="46.47199" lon="8.25464">
        <ele>1330</ele>
        <time>2020-10-24T13:13:04.132Z</time>
      </trkpt>
      <trkpt lat="46.472" lon="8.25463">
        <ele>1330</ele>
        <time>2020-10-24T13:13:05.132Z</time>
      </trkpt>
      <trkpt lat="46.472" lon="8.25463">
        <ele>1329</ele>
        <time>2020-10-24T13:13:06.132Z</time>
      </trkpt>
      <trkpt lat="46.47201" lon="8.25464">
        <ele>1331</ele>
        <time>2020-10-24T13:13:07.131Z</time>
      </trkpt>
      <trkpt lat="46.47205" lon="8.25465">
        <ele>1333</ele>
        <time>2020-10-24T13:13:09.132Z</time>
      </trkpt>
      <trkpt lat="46.47206" lon="8.25465">
        <ele>1334</ele>
        <time>2020-10-24T13:13:10.132Z</time>
      </trkpt>
      <trkpt lat="46.47206" lon="8.25466">
        <ele>1335</ele>
        <time>2020-10-24T13:13:11.132Z</time>
      </trkpt>
      <trkpt lat="46.47206" lon="8.25467">
        <ele>1335</ele>
        <time>2020-10-24T13:13:12.133Z</time>
      </trkpt>
      <trkpt lat="46.47205" lon="8.25468">
        <ele>1336</ele>
        <time>2020-10-24T13:13:13.133Z</time>
      </trkpt>
      <trkpt lat="46.47205" lon="8.2547">
        <ele>1337</ele>
        <time>2020-10-24T13:13:14.132Z</time>
      </trkpt>
      <trkpt lat="46.47205" lon="8.2547">
        <ele>1338</ele>
        <time>2020-10-24T13:13:15.132Z</time>
      </trkpt>
      <trkpt lat="46.47204" lon="8.25466">
        <ele>1340</ele>
        <time>2020-10-24T13:13:16.133Z</time>
      </trkpt>
      <trkpt lat="46.47204" lon="8.25466">
        <ele>1340</ele>
        <time>2020-10-24T13:13:17.133Z</time>
      </trkpt>
      <trkpt lat="46.47204" lon="8.25465">
        <ele>1339</ele>
        <time>2020-10-24T13:13:18.133Z</time>
      </trkpt>
      <trkpt lat="46.47203" lon="8.25464">
        <ele>1338</ele>
        <time>2020-10-24T13:13:19.134Z</time>
      </trkpt>
      <trkpt lat="46.47203" lon="8.25464">
        <ele>1338</ele>
        <time>2020-10-24T13:13:20.133Z</time>
      </trkpt>
      <trkpt lat="46.47208" lon="8.25458">
        <ele>1335</ele>
        <time>2020-10-24T13:13:21.135Z</time>
      </trkpt>
      <trkpt lat="46.47207" lon="8.25457">
        <ele>1335</ele>
        <time>2020-10-24T13:13:22.135Z</time>
      </trkpt>
      <trkpt lat="46.47206" lon="8.25457">
        <ele>1334</ele>
        <time>2020-10-24T13:13:23.134Z</time>
      </trkpt>
      <trkpt lat="46.47204" lon="8.25456">
        <ele>1334</ele>
        <time>2020-10-24T13:13:24.135Z</time>
      </trkpt>
      <trkpt lat="46.47203" lon="8.25455">
        <ele>1333</ele>
        <time>2020-10-24T13:13:25.135Z</time>
      </trkpt>
      <trkpt lat="46.47201" lon="8.25454">
        <ele>1332</ele>
        <time>2020-10-24T13:13:26.134Z</time>
      </trkpt>
      <trkpt lat="46.472" lon="8.25453">
        <ele>1332</ele>
        <time>2020-10-24T13:13:27.135Z</time>
      </trkpt>
      <trkpt lat="46.472" lon="8.25451">
        <ele>1331</ele>
        <time>2020-10-24T13:13:28.134Z</time>
      </trkpt>
      <trkpt lat="46.47199" lon="8.25451">
        <ele>1331</ele>
        <time>2020-10-24T13:13:29.135Z</time>
      </trkpt>
      <trkpt lat="46.47198" lon="8.2545">
        <ele>1331</ele>
        <time>2020-10-24T13:13:30.134Z</time>
      </trkpt>
      <trkpt lat="46.47196" lon="8.25448">
        <ele>1331</ele>
        <time>2020-10-24T13:13:31.135Z</time>
      </trkpt>
      <trkpt lat="46.47195" lon="8.25447">
        <ele>1331</ele>
        <time>2020-10-24T13:13:32.135Z</time>
      </trkpt>
      <trkpt lat="46.47194" lon="8.25446">
        <ele>1331</ele>
        <time>2020-10-24T13:13:33.134Z</time>
      </trkpt>
      <trkpt lat="46.47192" lon="8.25446">
        <ele>1331</ele>
        <time>2020-10-24T13:13:34.134Z</time>
      </trkpt>
      <trkpt lat="46.47192" lon="8.25445">
        <ele>1330</ele>
        <time>2020-10-24T13:13:35.135Z</time>
      </trkpt>
      <trkpt lat="46.47191" lon="8.25445">
        <ele>1329</ele>
        <time>2020-10-24T13:13:36.134Z</time>
      </trkpt>
      <trkpt lat="46.4719" lon="8.25445">
        <ele>1329</ele>
        <time>2020-10-24T13:13:37.135Z</time>
      </trkpt>
      <trkpt lat="46.47189" lon="8.25444">
        <ele>1329</ele>
        <time>2020-10-24T13:13:38.134Z</time>
      </trkpt>
      <trkpt lat="46.47189" lon="8.25444">
        <ele>1329</ele>
        <time>2020-10-24T13:13:39.135Z</time>
      </trkpt>
      <trkpt lat="46.47189" lon="8.25444">
        <ele>1329</ele>
        <time>2020-10-24T13:13:40.135Z</time>
      </trkpt>
      <trkpt lat="46.47188" lon="8.25444">
        <ele>1328</ele>
        <time>2020-10-24T13:13:41.135Z</time>
      </trkpt>
      <trkpt lat="46.47187" lon="8.25443">
        <ele>1328</ele>
        <time>2020-10-24T13:13:42.135Z</time>
      </trkpt>
      <trkpt lat="46.47186" lon="8.25443">
        <ele>1329</ele>
        <time>2020-10-24T13:13:43.134Z</time>
      </trkpt>
      <trkpt lat="46.47186" lon="8.25442">
        <ele>1329</ele>
        <time>2020-10-24T13:13:44.135Z</time>
      </trkpt>
      <trkpt lat="46.47185" lon="8.25441">
        <ele>1329</ele>
        <time>2020-10-24T13:13:45.134Z</time>
      </trkpt>
      <trkpt lat="46.47184" lon="8.25441">
        <ele>1329</ele>
        <time>2020-10-24T13:13:46.135Z</time>
      </trkpt>
      <trkpt lat="46.47183" lon="8.2544">
        <ele>1328</ele>
        <time>2020-10-24T13:13:47.135Z</time>
      </trkpt>
      <trkpt lat="46.47183" lon="8.2544">
        <ele>1328</ele>
        <time>2020-10-24T13:13:48.135Z</time>
      </trkpt>
      <trkpt lat="46.47182" lon="8.2544">
        <ele>1327</ele>
        <time>2020-10-24T13:13:49.134Z</time>
      </trkpt>
      <trkpt lat="46.47181" lon="8.2544">
        <ele>1327</ele>
        <time>2020-10-24T13:13:50.135Z</time>
      </trkpt>
      <trkpt lat="46.4718" lon="8.2544">
        <ele>1328</ele>
        <time>2020-10-24T13:13:51.134Z</time>
      </trkpt>
      <trkpt lat="46.47179" lon="8.2544">
        <ele>1328</ele>
        <time>2020-10-24T13:13:52.134Z</time>
      </trkpt>
      <trkpt lat="46.47178" lon="8.25439">
        <ele>1328</ele>
        <time>2020-10-24T13:13:53.134Z</time>
      </trkpt>
      <trkpt lat="46.47178" lon="8.25439">
        <ele>1328</ele>
        <time>2020-10-24T13:13:54.134Z</time>
      </trkpt>
      <trkpt lat="46.47177" lon="8.25439">
        <ele>1328</ele>
        <time>2020-10-24T13:13:55.135Z</time>
      </trkpt>
      <trkpt lat="46.47177" lon="8.25439">
        <ele>1328</ele>
        <time>2020-10-24T13:13:56.134Z</time>
      </trkpt>
      <trkpt lat="46.47176" lon="8.25438">
        <ele>1327</ele>
        <time>2020-10-24T13:13:57.135Z</time>
      </trkpt>
      <trkpt lat="46.47175" lon="8.25438">
        <ele>1327</ele>
        <time>2020-10-24T13:13:58.135Z</time>
      </trkpt>
      <trkpt lat="46.47174" lon="8.25437">
        <ele>1326</ele>
        <time>2020-10-24T13:13:59.134Z</time>
      </trkpt>
      <trkpt lat="46.47173" lon="8.25437">
        <ele>1326</ele>
        <time>2020-10-24T13:14:00.135Z</time>
      </trkpt>
      <trkpt lat="46.47172" lon="8.25436">
        <ele>1325</ele>
        <time>2020-10-24T13:14:01.134Z</time>
      </trkpt>
      <trkpt lat="46.47172" lon="8.25436">
        <ele>1325</ele>
        <time>2020-10-24T13:14:02.134Z</time>
      </trkpt>
      <trkpt lat="46.47171" lon="8.25435">
        <ele>1324</ele>
        <time>2020-10-24T13:14:03.135Z</time>
      </trkpt>
      <trkpt lat="46.4717" lon="8.25434">
        <ele>1324</ele>
        <time>2020-10-24T13:14:04.135Z</time>
      </trkpt>
      <trkpt lat="46.47169" lon="8.25434">
        <ele>1324</ele>
        <time>2020-10-24T13:14:05.134Z</time>
      </trkpt>
      <trkpt lat="46.47168" lon="8.25433">
        <ele>1325</ele>
        <time>2020-10-24T13:14:06.134Z</time>
      </trkpt>
      <trkpt lat="46.47167" lon="8.25432">
        <ele>1325</ele>
        <time>2020-10-24T13:14:07.135Z</time>
      </trkpt>
      <trkpt lat="46.47166" lon="8.25432">
        <ele>1325</ele>
        <time>2020-10-24T13:14:08.134Z</time>
      </trkpt>
      <trkpt lat="46.47165" lon="8.25433">
        <ele>1325</ele>
        <time>2020-10-24T13:14:09.135Z</time>
      </trkpt>
      <trkpt lat="46.47164" lon="8.25433">
        <ele>1325</ele>
        <time>2020-10-24T13:14:10.134Z</time>
      </trkpt>
      <trkpt lat="46.47164" lon="8.25433">
        <ele>1324</ele>
        <time>2020-10-24T13:14:11.135Z</time>
      </trkpt>
      <trkpt lat="46.47163" lon="8.25432">
        <ele>1324</ele>
        <time>2020-10-24T13:14:12.135Z</time>
      </trkpt>
      <trkpt lat="46.47162" lon="8.25431">
        <ele>1324</ele>
        <time>2020-10-24T13:14:13.135Z</time>
      </trkpt>
      <trkpt lat="46.47161" lon="8.25431">
        <ele>1324</ele>
        <time>2020-10-24T13:14:14.134Z</time>
      </trkpt>
      <trkpt lat="46.4716" lon="8.2543">
        <ele>1324</ele>
        <time>2020-10-24T13:14:15.134Z</time>
      </trkpt>
      <trkpt lat="46.47159" lon="8.2543">
        <ele>1324</ele>
        <time>2020-10-24T13:14:16.135Z</time>
      </trkpt>
      <trkpt lat="46.47158" lon="8.25429">
        <ele>1324</ele>
        <time>2020-10-24T13:14:17.134Z</time>
      </trkpt>
      <trkpt lat="46.47157" lon="8.25428">
        <ele>1324</ele>
        <time>2020-10-24T13:14:18.134Z</time>
      </trkpt>
      <trkpt lat="46.47157" lon="8.25427">
        <ele>1324</ele>
        <time>2020-10-24T13:14:19.134Z</time>
      </trkpt>
      <trkpt lat="46.47156" lon="8.25426">
        <ele>1324</ele>
        <time>2020-10-24T13:14:20.135Z</time>
      </trkpt>
      <trkpt lat="46.47155" lon="8.25424">
        <ele>1324</ele>
        <time>2020-10-24T13:14:21.135Z</time>
      </trkpt>
      <trkpt lat="46.47155" lon="8.25423">
        <ele>1324</ele>
        <time>2020-10-24T13:14:22.135Z</time>
      </trkpt>
      <trkpt lat="46.47154" lon="8.25423">
        <ele>1325</ele>
        <time>2020-10-24T13:14:23.135Z</time>
      </trkpt>
      <trkpt lat="46.47153" lon="8.25421">
        <ele>1325</ele>
        <time>2020-10-24T13:14:24.134Z</time>
      </trkpt>
      <trkpt lat="46.4715" lon="8.25419">
        <ele>1325</ele>
        <time>2020-10-24T13:14:25.135Z</time>
      </trkpt>
      <trkpt lat="46.47149" lon="8.25417">
        <ele>1326</ele>
        <time>2020-10-24T13:14:26.135Z</time>
      </trkpt>
      <trkpt lat="46.47148" lon="8.25416">
        <ele>1326</ele>
        <time>2020-10-24T13:14:27.134Z</time>
      </trkpt>
      <trkpt lat="46.47147" lon="8.25416">
        <ele>1326</ele>
        <time>2020-10-24T13:14:28.134Z</time>
      </trkpt>
      <trkpt lat="46.47145" lon="8.25415">
        <ele>1327</ele>
        <time>2020-10-24T13:14:29.135Z</time>
      </trkpt>
      <trkpt lat="46.47144" lon="8.25414">
        <ele>1327</ele>
        <time>2020-10-24T13:14:30.135Z</time>
      </trkpt>
      <trkpt lat="46.47143" lon="8.25413">
        <ele>1327</ele>
        <time>2020-10-24T13:14:31.135Z</time>
      </trkpt>
      <trkpt lat="46.47142" lon="8.25412">
        <ele>1327</ele>
        <time>2020-10-24T13:14:32.135Z</time>
      </trkpt>
      <trkpt lat="46.47141" lon="8.25412">
        <ele>1327</ele>
        <time>2020-10-24T13:14:33.135Z</time>
      </trkpt>
      <trkpt lat="46.4714" lon="8.25411">
        <ele>1327</ele>
        <time>2020-10-24T13:14:34.135Z</time>
      </trkpt>
      <trkpt lat="46.47139" lon="8.25409">
        <ele>1326</ele>
        <time>2020-10-24T13:14:35.134Z</time>
      </trkpt>
      <trkpt lat="46.47138" lon="8.25409">
        <ele>1326</ele>
        <time>2020-10-24T13:14:36.134Z</time>
      </trkpt>
      <trkpt lat="46.47137" lon="8.25408">
        <ele>1326</ele>
        <time>2020-10-24T13:14:37.135Z</time>
      </trkpt>
      <trkpt lat="46.47136" lon="8.25408">
        <ele>1326</ele>
        <time>2020-10-24T13:14:38.135Z</time>
      </trkpt>
      <trkpt lat="46.47135" lon="8.25407">
        <ele>1326</ele>
        <time>2020-10-24T13:14:39.135Z</time>
      </trkpt>
      <trkpt lat="46.47134" lon="8.25406">
        <ele>1326</ele>
        <time>2020-10-24T13:14:40.134Z</time>
      </trkpt>
      <trkpt lat="46.47133" lon="8.25406">
        <ele>1325</ele>
        <time>2020-10-24T13:14:41.134Z</time>
      </trkpt>
      <trkpt lat="46.47132" lon="8.25406">
        <ele>1325</ele>
        <time>2020-10-24T13:14:42.134Z</time>
      </trkpt>
      <trkpt lat="46.47131" lon="8.25405">
        <ele>1325</ele>
        <time>2020-10-24T13:14:43.135Z</time>
      </trkpt>
      <trkpt lat="46.47131" lon="8.25405">
        <ele>1324</ele>
        <time>2020-10-24T13:14:44.135Z</time>
      </trkpt>
      <trkpt lat="46.47129" lon="8.25404">
        <ele>1324</ele>
        <time>2020-10-24T13:14:45.134Z</time>
      </trkpt>
      <trkpt lat="46.47128" lon="8.25404">
        <ele>1324</ele>
        <time>2020-10-24T13:14:46.134Z</time>
      </trkpt>
      <trkpt lat="46.47127" lon="8.25403">
        <ele>1324</ele>
        <time>2020-10-24T13:14:47.135Z</time>
      </trkpt>
      <trkpt lat="46.47126" lon="8.25402">
        <ele>1324</ele>
        <time>2020-10-24T13:14:48.135Z</time>
      </trkpt>
      <trkpt lat="46.47125" lon="8.25401">
        <ele>1324</ele>
        <time>2020-10-24T13:14:49.134Z</time>
      </trkpt>
      <trkpt lat="46.47124" lon="8.254">
        <ele>1324</ele>
        <time>2020-10-24T13:14:50.134Z</time>
      </trkpt>
      <trkpt lat="46.47123" lon="8.254">
        <ele>1324</ele>
        <time>2020-10-24T13:14:51.135Z</time>
      </trkpt>
      <trkpt lat="46.47122" lon="8.25399">
        <ele>1324</ele>
        <time>2020-10-24T13:14:52.135Z</time>
      </trkpt>
      <trkpt lat="46.47121" lon="8.25399">
        <ele>1324</ele>
        <time>2020-10-24T13:14:53.135Z</time>
      </trkpt>
      <trkpt lat="46.4712" lon="8.25399">
        <ele>1325</ele>
        <time>2020-10-24T13:14:54.135Z</time>
      </trkpt>
      <trkpt lat="46.47119" lon="8.25398">
        <ele>1325</ele>
        <time>2020-10-24T13:14:55.135Z</time>
      </trkpt>
      <trkpt lat="46.47118" lon="8.25397">
        <ele>1325</ele>
        <time>2020-10-24T13:14:56.135Z</time>
      </trkpt>
      <trkpt lat="46.47117" lon="8.25396">
        <ele>1325</ele>
        <time>2020-10-24T13:14:57.135Z</time>
      </trkpt>
      <trkpt lat="46.47117" lon="8.25395">
        <ele>1325</ele>
        <time>2020-10-24T13:14:58.135Z</time>
      </trkpt>
      <trkpt lat="46.47116" lon="8.25394">
        <ele>1325</ele>
        <time>2020-10-24T13:14:59.135Z</time>
      </trkpt>
      <trkpt lat="46.47115" lon="8.25394">
        <ele>1324</ele>
        <time>2020-10-24T13:15:00.134Z</time>
      </trkpt>
      <trkpt lat="46.47114" lon="8.25394">
        <ele>1324</ele>
        <time>2020-10-24T13:15:01.135Z</time>
      </trkpt>
      <trkpt lat="46.47113" lon="8.25395">
        <ele>1323</ele>
        <time>2020-10-24T13:15:02.134Z</time>
      </trkpt>
      <trkpt lat="46.47113" lon="8.25395">
        <ele>1323</ele>
        <time>2020-10-24T13:15:03.135Z</time>
      </trkpt>
      <trkpt lat="46.47112" lon="8.25395">
        <ele>1323</ele>
        <time>2020-10-24T13:15:04.135Z</time>
      </trkpt>
      <trkpt lat="46.47112" lon="8.25395">
        <ele>1323</ele>
        <time>2020-10-24T13:15:05.135Z</time>
      </trkpt>
      <trkpt lat="46.47111" lon="8.25394">
        <ele>1322</ele>
        <time>2020-10-24T13:15:06.135Z</time>
      </trkpt>
      <trkpt lat="46.47111" lon="8.25394">
        <ele>1322</ele>
        <time>2020-10-24T13:15:07.134Z</time>
      </trkpt>
      <trkpt lat="46.47111" lon="8.25394">
        <ele>1322</ele>
        <time>2020-10-24T13:15:08.135Z</time>
      </trkpt>
      <trkpt lat="46.4711" lon="8.25394">
        <ele>1322</ele>
        <time>2020-10-24T13:15:09.135Z</time>
      </trkpt>
      <trkpt lat="46.47109" lon="8.25395">
        <ele>1322</ele>
        <time>2020-10-24T13:15:10.134Z</time>
      </trkpt>
      <trkpt lat="46.47108" lon="8.25395">
        <ele>1322</ele>
        <time>2020-10-24T13:15:11.134Z</time>
      </trkpt>
      <trkpt lat="46.47107" lon="8.25394">
        <ele>1322</ele>
        <time>2020-10-24T13:15:12.134Z</time>
      </trkpt>
      <trkpt lat="46.47106" lon="8.25393">
        <ele>1322</ele>
        <time>2020-10-24T13:15:13.134Z</time>
      </trkpt>
      <trkpt lat="46.47105" lon="8.25392">
        <ele>1322</ele>
        <time>2020-10-24T13:15:14.134Z</time>
      </trkpt>
      <trkpt lat="46.47105" lon="8.25391">
        <ele>1322</ele>
        <time>2020-10-24T13:15:15.135Z</time>
      </trkpt>
      <trkpt lat="46.47104" lon="8.2539">
        <ele>1321</ele>
        <time>2020-10-24T13:15:16.135Z</time>
      </trkpt>
      <trkpt lat="46.47103" lon="8.2539">
        <ele>1321</ele>
        <time>2020-10-24T13:15:17.135Z</time>
      </trkpt>
      <trkpt lat="46.47102" lon="8.25389">
        <ele>1321</ele>
        <time>2020-10-24T13:15:18.135Z</time>
      </trkpt>
      <trkpt lat="46.47101" lon="8.25388">
        <ele>1321</ele>
        <time>2020-10-24T13:15:19.134Z</time>
      </trkpt>
      <trkpt lat="46.471" lon="8.25388">
        <ele>1321</ele>
        <time>2020-10-24T13:15:20.135Z</time>
      </trkpt>
      <trkpt lat="46.47099" lon="8.25387">
        <ele>1320</ele>
        <time>2020-10-24T13:15:21.135Z</time>
      </trkpt>
      <trkpt lat="46.47098" lon="8.25386">
        <ele>1320</ele>
        <time>2020-10-24T13:15:22.134Z</time>
      </trkpt>
      <trkpt lat="46.47097" lon="8.25386">
        <ele>1320</ele>
        <time>2020-10-24T13:15:23.134Z</time>
      </trkpt>
      <trkpt lat="46.47097" lon="8.25385">
        <ele>1319</ele>
        <time>2020-10-24T13:15:24.134Z</time>
      </trkpt>
      <trkpt lat="46.47096" lon="8.25384">
        <ele>1319</ele>
        <time>2020-10-24T13:15:25.135Z</time>
      </trkpt>
      <trkpt lat="46.47095" lon="8.25384">
        <ele>1319</ele>
        <time>2020-10-24T13:15:26.135Z</time>
      </trkpt>
      <trkpt lat="46.47094" lon="8.25383">
        <ele>1319</ele>
        <time>2020-10-24T13:15:27.134Z</time>
      </trkpt>
      <trkpt lat="46.47093" lon="8.25382">
        <ele>1319</ele>
        <time>2020-10-24T13:15:28.134Z</time>
      </trkpt>
      <trkpt lat="46.47092" lon="8.25381">
        <ele>1319</ele>
        <time>2020-10-24T13:15:29.135Z</time>
      </trkpt>
      <trkpt lat="46.47092" lon="8.2538">
        <ele>1319</ele>
        <time>2020-10-24T13:15:30.135Z</time>
      </trkpt>
      <trkpt lat="46.47091" lon="8.25379">
        <ele>1319</ele>
        <time>2020-10-24T13:15:31.135Z</time>
      </trkpt>
      <trkpt lat="46.4709" lon="8.25378">
        <ele>1319</ele>
        <time>2020-10-24T13:15:32.135Z</time>
      </trkpt>
      <trkpt lat="46.4709" lon="8.25377">
        <ele>1319</ele>
        <time>2020-10-24T13:15:33.135Z</time>
      </trkpt>
      <trkpt lat="46.47089" lon="8.25377">
        <ele>1319</ele>
        <time>2020-10-24T13:15:34.135Z</time>
      </trkpt>
      <trkpt lat="46.47088" lon="8.25376">
        <ele>1319</ele>
        <time>2020-10-24T13:15:35.134Z</time>
      </trkpt>
      <trkpt lat="46.47087" lon="8.25375">
        <ele>1319</ele>
        <time>2020-10-24T13:15:36.135Z</time>
      </trkpt>
      <trkpt lat="46.47087" lon="8.25374">
        <ele>1319</ele>
        <time>2020-10-24T13:15:37.135Z</time>
      </trkpt>
      <trkpt lat="46.47087" lon="8.25373">
        <ele>1319</ele>
        <time>2020-10-24T13:15:38.135Z</time>
      </trkpt>
      <trkpt lat="46.47087" lon="8.25372">
        <ele>1319</ele>
        <time>2020-10-24T13:15:39.135Z</time>
      </trkpt>
      <trkpt lat="46.47086" lon="8.25371">
        <ele>1319</ele>
        <time>2020-10-24T13:15:40.135Z</time>
      </trkpt>
      <trkpt lat="46.47086" lon="8.2537">
        <ele>1320</ele>
        <time>2020-10-24T13:15:41.134Z</time>
      </trkpt>
      <trkpt lat="46.47085" lon="8.25369">
        <ele>1320</ele>
        <time>2020-10-24T13:15:42.135Z</time>
      </trkpt>
      <trkpt lat="46.47084" lon="8.25369">
        <ele>1320</ele>
        <time>2020-10-24T13:15:43.135Z</time>
      </trkpt>
      <trkpt lat="46.47083" lon="8.25368">
        <ele>1320</ele>
        <time>2020-10-24T13:15:44.135Z</time>
      </trkpt>
      <trkpt lat="46.47082" lon="8.25367">
        <ele>1321</ele>
        <time>2020-10-24T13:15:45.135Z</time>
      </trkpt>
      <trkpt lat="46.47081" lon="8.25366">
        <ele>1321</ele>
        <time>2020-10-24T13:15:46.134Z</time>
      </trkpt>
      <trkpt lat="46.47081" lon="8.25364">
        <ele>1321</ele>
        <time>2020-10-24T13:15:47.135Z</time>
      </trkpt>
      <trkpt lat="46.4708" lon="8.25363">
        <ele>1321</ele>
        <time>2020-10-24T13:15:48.135Z</time>
      </trkpt>
      <trkpt lat="46.47079" lon="8.25362">
        <ele>1321</ele>
        <time>2020-10-24T13:15:49.135Z</time>
      </trkpt>
      <trkpt lat="46.47079" lon="8.25361">
        <ele>1321</ele>
        <time>2020-10-24T13:15:50.134Z</time>
      </trkpt>
      <trkpt lat="46.47078" lon="8.2536">
        <ele>1321</ele>
        <time>2020-10-24T13:15:51.135Z</time>
      </trkpt>
      <trkpt lat="46.47077" lon="8.25359">
        <ele>1321</ele>
        <time>2020-10-24T13:15:52.135Z</time>
      </trkpt>
      <trkpt lat="46.47077" lon="8.25357">
        <ele>1322</ele>
        <time>2020-10-24T13:15:53.134Z</time>
      </trkpt>
      <trkpt lat="46.47076" lon="8.25355">
        <ele>1322</ele>
        <time>2020-10-24T13:15:54.135Z</time>
      </trkpt>
      <trkpt lat="46.47076" lon="8.25354">
        <ele>1323</ele>
        <time>2020-10-24T13:15:55.135Z</time>
      </trkpt>
      <trkpt lat="46.47076" lon="8.25353">
        <ele>1323</ele>
        <time>2020-10-24T13:15:56.135Z</time>
      </trkpt>
      <trkpt lat="46.47075" lon="8.25351">
        <ele>1323</ele>
        <time>2020-10-24T13:15:57.135Z</time>
      </trkpt>
      <trkpt lat="46.47075" lon="8.2535">
        <ele>1323</ele>
        <time>2020-10-24T13:15:58.135Z</time>
      </trkpt>
      <trkpt lat="46.47075" lon="8.25348">
        <ele>1323</ele>
        <time>2020-10-24T13:15:59.134Z</time>
      </trkpt>
      <trkpt lat="46.47075" lon="8.25347">
        <ele>1323</ele>
        <time>2020-10-24T13:16:00.135Z</time>
      </trkpt>
      <trkpt lat="46.47075" lon="8.25346">
        <ele>1323</ele>
        <time>2020-10-24T13:16:01.135Z</time>
      </trkpt>
      <trkpt lat="46.47075" lon="8.25344">
        <ele>1323</ele>
        <time>2020-10-24T13:16:02.135Z</time>
      </trkpt>
      <trkpt lat="46.47075" lon="8.25343">
        <ele>1322</ele>
        <time>2020-10-24T13:16:03.135Z</time>
      </trkpt>
      <trkpt lat="46.47075" lon="8.25341">
        <ele>1322</ele>
        <time>2020-10-24T13:16:04.135Z</time>
      </trkpt>
      <trkpt lat="46.47075" lon="8.25339">
        <ele>1322</ele>
        <time>2020-10-24T13:16:05.134Z</time>
      </trkpt>
      <trkpt lat="46.47075" lon="8.25337">
        <ele>1321</ele>
        <time>2020-10-24T13:16:06.134Z</time>
      </trkpt>
      <trkpt lat="46.47074" lon="8.25336">
        <ele>1321</ele>
        <time>2020-10-24T13:16:07.135Z</time>
      </trkpt>
      <trkpt lat="46.47074" lon="8.25334">
        <ele>1321</ele>
        <time>2020-10-24T13:16:08.135Z</time>
      </trkpt>
      <trkpt lat="46.47074" lon="8.25333">
        <ele>1321</ele>
        <time>2020-10-24T13:16:09.135Z</time>
      </trkpt>
      <trkpt lat="46.47074" lon="8.25331">
        <ele>1320</ele>
        <time>2020-10-24T13:16:10.135Z</time>
      </trkpt>
      <trkpt lat="46.47074" lon="8.2533">
        <ele>1320</ele>
        <time>2020-10-24T13:16:11.134Z</time>
      </trkpt>
      <trkpt lat="46.47074" lon="8.25328">
        <ele>1320</ele>
        <time>2020-10-24T13:16:12.135Z</time>
      </trkpt>
      <trkpt lat="46.47074" lon="8.25327">
        <ele>1320</ele>
        <time>2020-10-24T13:16:13.135Z</time>
      </trkpt>
      <trkpt lat="46.47073" lon="8.25326">
        <ele>1320</ele>
        <time>2020-10-24T13:16:14.135Z</time>
      </trkpt>
      <trkpt lat="46.47073" lon="8.25324">
        <ele>1320</ele>
        <time>2020-10-24T13:16:15.134Z</time>
      </trkpt>
      <trkpt lat="46.47072" lon="8.25322">
        <ele>1320</ele>
        <time>2020-10-24T13:16:16.135Z</time>
      </trkpt>
      <trkpt lat="46.47072" lon="8.2532">
        <ele>1320</ele>
        <time>2020-10-24T13:16:17.135Z</time>
      </trkpt>
      <trkpt lat="46.47071" lon="8.25319">
        <ele>1321</ele>
        <time>2020-10-24T13:16:18.135Z</time>
      </trkpt>
      <trkpt lat="46.47071" lon="8.25318">
        <ele>1321</ele>
        <time>2020-10-24T13:16:19.135Z</time>
      </trkpt>
      <trkpt lat="46.4707" lon="8.25317">
        <ele>1320</ele>
        <time>2020-10-24T13:16:20.134Z</time>
      </trkpt>
      <trkpt lat="46.4707" lon="8.25315">
        <ele>1320</ele>
        <time>2020-10-24T13:16:21.134Z</time>
      </trkpt>
      <trkpt lat="46.47069" lon="8.25314">
        <ele>1320</ele>
        <time>2020-10-24T13:16:22.135Z</time>
      </trkpt>
      <trkpt lat="46.47069" lon="8.25312">
        <ele>1320</ele>
        <time>2020-10-24T13:16:23.135Z</time>
      </trkpt>
      <trkpt lat="46.47069" lon="8.25311">
        <ele>1320</ele>
        <time>2020-10-24T13:16:24.135Z</time>
      </trkpt>
      <trkpt lat="46.47068" lon="8.25309">
        <ele>1320</ele>
        <time>2020-10-24T13:16:25.134Z</time>
      </trkpt>
      <trkpt lat="46.47068" lon="8.25308">
        <ele>1320</ele>
        <time>2020-10-24T13:16:26.135Z</time>
      </trkpt>
      <trkpt lat="46.47068" lon="8.25306">
        <ele>1320</ele>
        <time>2020-10-24T13:16:27.135Z</time>
      </trkpt>
      <trkpt lat="46.47068" lon="8.25305">
        <ele>1321</ele>
        <time>2020-10-24T13:16:28.135Z</time>
      </trkpt>
      <trkpt lat="46.47068" lon="8.25303">
        <ele>1321</ele>
        <time>2020-10-24T13:16:29.135Z</time>
      </trkpt>
      <trkpt lat="46.47067" lon="8.25302">
        <ele>1321</ele>
        <time>2020-10-24T13:16:30.135Z</time>
      </trkpt>
      <trkpt lat="46.47067" lon="8.253">
        <ele>1321</ele>
        <time>2020-10-24T13:16:31.135Z</time>
      </trkpt>
      <trkpt lat="46.47067" lon="8.25298">
        <ele>1321</ele>
        <time>2020-10-24T13:16:32.134Z</time>
      </trkpt>
      <trkpt lat="46.47067" lon="8.25297">
        <ele>1321</ele>
        <time>2020-10-24T13:16:33.135Z</time>
      </trkpt>
      <trkpt lat="46.47066" lon="8.25296">
        <ele>1321</ele>
        <time>2020-10-24T13:16:34.135Z</time>
      </trkpt>
      <trkpt lat="46.47066" lon="8.25295">
        <ele>1322</ele>
        <time>2020-10-24T13:16:35.135Z</time>
      </trkpt>
      <trkpt lat="46.47066" lon="8.25293">
        <ele>1322</ele>
        <time>2020-10-24T13:16:36.135Z</time>
      </trkpt>
      <trkpt lat="46.47066" lon="8.25291">
        <ele>1323</ele>
        <time>2020-10-24T13:16:37.135Z</time>
      </trkpt>
      <trkpt lat="46.47065" lon="8.25289">
        <ele>1323</ele>
        <time>2020-10-24T13:16:38.135Z</time>
      </trkpt>
      <trkpt lat="46.47065" lon="8.25288">
        <ele>1324</ele>
        <time>2020-10-24T13:16:39.135Z</time>
      </trkpt>
      <trkpt lat="46.47065" lon="8.25287">
        <ele>1324</ele>
        <time>2020-10-24T13:16:40.135Z</time>
      </trkpt>
      <trkpt lat="46.47066" lon="8.25285">
        <ele>1324</ele>
        <time>2020-10-24T13:16:41.134Z</time>
      </trkpt>
      <trkpt lat="46.47067" lon="8.25284">
        <ele>1325</ele>
        <time>2020-10-24T13:16:42.135Z</time>
      </trkpt>
      <trkpt lat="46.47067" lon="8.25282">
        <ele>1325</ele>
        <time>2020-10-24T13:16:43.135Z</time>
      </trkpt>
      <trkpt lat="46.47067" lon="8.2528">
        <ele>1325</ele>
        <time>2020-10-24T13:16:44.134Z</time>
      </trkpt>
      <trkpt lat="46.47068" lon="8.25279">
        <ele>1325</ele>
        <time>2020-10-24T13:16:45.134Z</time>
      </trkpt>
      <trkpt lat="46.47068" lon="8.25277">
        <ele>1325</ele>
        <time>2020-10-24T13:16:46.135Z</time>
      </trkpt>
      <trkpt lat="46.47069" lon="8.25276">
        <ele>1326</ele>
        <time>2020-10-24T13:16:47.135Z</time>
      </trkpt>
      <trkpt lat="46.47069" lon="8.25274">
        <ele>1325</ele>
        <time>2020-10-24T13:16:48.135Z</time>
      </trkpt>
      <trkpt lat="46.4707" lon="8.25273">
        <ele>1325</ele>
        <time>2020-10-24T13:16:49.135Z</time>
      </trkpt>
      <trkpt lat="46.4707" lon="8.25272">
        <ele>1325</ele>
        <time>2020-10-24T13:16:50.135Z</time>
      </trkpt>
      <trkpt lat="46.47071" lon="8.2527">
        <ele>1325</ele>
        <time>2020-10-24T13:16:51.135Z</time>
      </trkpt>
      <trkpt lat="46.47071" lon="8.25269">
        <ele>1325</ele>
        <time>2020-10-24T13:16:52.134Z</time>
      </trkpt>
      <trkpt lat="46.47071" lon="8.25267">
        <ele>1325</ele>
        <time>2020-10-24T13:16:53.135Z</time>
      </trkpt>
      <trkpt lat="46.47072" lon="8.25266">
        <ele>1325</ele>
        <time>2020-10-24T13:16:54.135Z</time>
      </trkpt>
      <trkpt lat="46.47073" lon="8.25264">
        <ele>1325</ele>
        <time>2020-10-24T13:16:55.135Z</time>
      </trkpt>
      <trkpt lat="46.47073" lon="8.25262">
        <ele>1325</ele>
        <time>2020-10-24T13:16:56.135Z</time>
      </trkpt>
      <trkpt lat="46.47074" lon="8.25261">
        <ele>1325</ele>
        <time>2020-10-24T13:16:57.135Z</time>
      </trkpt>
      <trkpt lat="46.47075" lon="8.2526">
        <ele>1324</ele>
        <time>2020-10-24T13:16:58.135Z</time>
      </trkpt>
      <trkpt lat="46.47075" lon="8.25258">
        <ele>1323</ele>
        <time>2020-10-24T13:16:59.135Z</time>
      </trkpt>
      <trkpt lat="46.47076" lon="8.25257">
        <ele>1323</ele>
        <time>2020-10-24T13:17:00.134Z</time>
      </trkpt>
      <trkpt lat="46.47076" lon="8.25255">
        <ele>1322</ele>
        <time>2020-10-24T13:17:01.135Z</time>
      </trkpt>
      <trkpt lat="46.47076" lon="8.25253">
        <ele>1322</ele>
        <time>2020-10-24T13:17:02.134Z</time>
      </trkpt>
      <trkpt lat="46.47077" lon="8.25251">
        <ele>1322</ele>
        <time>2020-10-24T13:17:03.135Z</time>
      </trkpt>
      <trkpt lat="46.47078" lon="8.25249">
        <ele>1323</ele>
        <time>2020-10-24T13:17:04.135Z</time>
      </trkpt>
      <trkpt lat="46.47079" lon="8.25248">
        <ele>1323</ele>
        <time>2020-10-24T13:17:05.135Z</time>
      </trkpt>
      <trkpt lat="46.47079" lon="8.25246">
        <ele>1323</ele>
        <time>2020-10-24T13:17:06.135Z</time>
      </trkpt>
      <trkpt lat="46.47079" lon="8.25244">
        <ele>1324</ele>
        <time>2020-10-24T13:17:07.134Z</time>
      </trkpt>
      <trkpt lat="46.4708" lon="8.25242">
        <ele>1324</ele>
        <time>2020-10-24T13:17:08.135Z</time>
      </trkpt>
      <trkpt lat="46.47081" lon="8.2524">
        <ele>1324</ele>
        <time>2020-10-24T13:17:09.135Z</time>
      </trkpt>
      <trkpt lat="46.47081" lon="8.25238">
        <ele>1324</ele>
        <time>2020-10-24T13:17:10.135Z</time>
      </trkpt>
      <trkpt lat="46.47082" lon="8.25236">
        <ele>1324</ele>
        <time>2020-10-24T13:17:11.135Z</time>
      </trkpt>
      <trkpt lat="46.47082" lon="8.25235">
        <ele>1324</ele>
        <time>2020-10-24T13:17:12.134Z</time>
      </trkpt>
      <trkpt lat="46.47082" lon="8.25233">
        <ele>1324</ele>
        <time>2020-10-24T13:17:13.134Z</time>
      </trkpt>
      <trkpt lat="46.47082" lon="8.25232">
        <ele>1324</ele>
        <time>2020-10-24T13:17:14.134Z</time>
      </trkpt>
      <trkpt lat="46.47082" lon="8.2523">
        <ele>1323</ele>
        <time>2020-10-24T13:17:15.135Z</time>
      </trkpt>
      <trkpt lat="46.47082" lon="8.25229">
        <ele>1323</ele>
        <time>2020-10-24T13:17:16.135Z</time>
      </trkpt>
      <trkpt lat="46.47082" lon="8.25227">
        <ele>1323</ele>
        <time>2020-10-24T13:17:17.135Z</time>
      </trkpt>
      <trkpt lat="46.47082" lon="8.25225">
        <ele>1322</ele>
        <time>2020-10-24T13:17:18.134Z</time>
      </trkpt>
      <trkpt lat="46.47082" lon="8.25223">
        <ele>1322</ele>
        <time>2020-10-24T13:17:19.134Z</time>
      </trkpt>
      <trkpt lat="46.47082" lon="8.25221">
        <ele>1322</ele>
        <time>2020-10-24T13:17:20.135Z</time>
      </trkpt>
      <trkpt lat="46.47082" lon="8.25219">
        <ele>1321</ele>
        <time>2020-10-24T13:17:21.135Z</time>
      </trkpt>
      <trkpt lat="46.47082" lon="8.25217">
        <ele>1321</ele>
        <time>2020-10-24T13:17:22.134Z</time>
      </trkpt>
      <trkpt lat="46.47081" lon="8.25216">
        <ele>1321</ele>
        <time>2020-10-24T13:17:23.135Z</time>
      </trkpt>
      <trkpt lat="46.47081" lon="8.25214">
        <ele>1321</ele>
        <time>2020-10-24T13:17:24.135Z</time>
      </trkpt>
      <trkpt lat="46.47081" lon="8.25212">
        <ele>1322</ele>
        <time>2020-10-24T13:17:25.134Z</time>
      </trkpt>
      <trkpt lat="46.47081" lon="8.2521">
        <ele>1322</ele>
        <time>2020-10-24T13:17:26.135Z</time>
      </trkpt>
      <trkpt lat="46.47081" lon="8.25209">
        <ele>1323</ele>
        <time>2020-10-24T13:17:27.135Z</time>
      </trkpt>
      <trkpt lat="46.47081" lon="8.25207">
        <ele>1324</ele>
        <time>2020-10-24T13:17:28.135Z</time>
      </trkpt>
      <trkpt lat="46.47081" lon="8.25206">
        <ele>1324</ele>
        <time>2020-10-24T13:17:29.135Z</time>
      </trkpt>
      <trkpt lat="46.47081" lon="8.25204">
        <ele>1325</ele>
        <time>2020-10-24T13:17:30.135Z</time>
      </trkpt>
      <trkpt lat="46.47081" lon="8.25202">
        <ele>1324</ele>
        <time>2020-10-24T13:17:31.135Z</time>
      </trkpt>
      <trkpt lat="46.4708" lon="8.252">
        <ele>1324</ele>
        <time>2020-10-24T13:17:32.135Z</time>
      </trkpt>
      <trkpt lat="46.47079" lon="8.25198">
        <ele>1324</ele>
        <time>2020-10-24T13:17:33.135Z</time>
      </trkpt>
      <trkpt lat="46.47079" lon="8.25197">
        <ele>1325</ele>
        <time>2020-10-24T13:17:34.135Z</time>
      </trkpt>
      <trkpt lat="46.47079" lon="8.25195">
        <ele>1325</ele>
        <time>2020-10-24T13:17:35.135Z</time>
      </trkpt>
      <trkpt lat="46.47079" lon="8.25193">
        <ele>1325</ele>
        <time>2020-10-24T13:17:36.135Z</time>
      </trkpt>
      <trkpt lat="46.47079" lon="8.25191">
        <ele>1325</ele>
        <time>2020-10-24T13:17:37.135Z</time>
      </trkpt>
      <trkpt lat="46.47078" lon="8.2519">
        <ele>1325</ele>
        <time>2020-10-24T13:17:38.135Z</time>
      </trkpt>
      <trkpt lat="46.47078" lon="8.25188">
        <ele>1325</ele>
        <time>2020-10-24T13:17:39.135Z</time>
      </trkpt>
      <trkpt lat="46.47078" lon="8.25187">
        <ele>1324</ele>
        <time>2020-10-24T13:17:40.135Z</time>
      </trkpt>
      <trkpt lat="46.47078" lon="8.25185">
        <ele>1323</ele>
        <time>2020-10-24T13:17:41.135Z</time>
      </trkpt>
      <trkpt lat="46.47077" lon="8.25184">
        <ele>1322</ele>
        <time>2020-10-24T13:17:42.135Z</time>
      </trkpt>
      <trkpt lat="46.47077" lon="8.25182">
        <ele>1322</ele>
        <time>2020-10-24T13:17:43.135Z</time>
      </trkpt>
      <trkpt lat="46.47077" lon="8.2518">
        <ele>1322</ele>
        <time>2020-10-24T13:17:44.135Z</time>
      </trkpt>
      <trkpt lat="46.47077" lon="8.25179">
        <ele>1322</ele>
        <time>2020-10-24T13:17:45.134Z</time>
      </trkpt>
      <trkpt lat="46.47077" lon="8.25177">
        <ele>1322</ele>
        <time>2020-10-24T13:17:46.135Z</time>
      </trkpt>
      <trkpt lat="46.47076" lon="8.25176">
        <ele>1322</ele>
        <time>2020-10-24T13:17:47.135Z</time>
      </trkpt>
      <trkpt lat="46.47076" lon="8.25174">
        <ele>1323</ele>
        <time>2020-10-24T13:17:48.135Z</time>
      </trkpt>
      <trkpt lat="46.47076" lon="8.25172">
        <ele>1323</ele>
        <time>2020-10-24T13:17:49.135Z</time>
      </trkpt>
      <trkpt lat="46.47075" lon="8.2517">
        <ele>1323</ele>
        <time>2020-10-24T13:17:50.135Z</time>
      </trkpt>
      <trkpt lat="46.47075" lon="8.25168">
        <ele>1323</ele>
        <time>2020-10-24T13:17:51.134Z</time>
      </trkpt>
      <trkpt lat="46.47075" lon="8.25166">
        <ele>1322</ele>
        <time>2020-10-24T13:17:52.135Z</time>
      </trkpt>
      <trkpt lat="46.47075" lon="8.25165">
        <ele>1322</ele>
        <time>2020-10-24T13:17:53.134Z</time>
      </trkpt>
      <trkpt lat="46.47075" lon="8.25164">
        <ele>1322</ele>
        <time>2020-10-24T13:17:54.135Z</time>
      </trkpt>
      <trkpt lat="46.47074" lon="8.25162">
        <ele>1322</ele>
        <time>2020-10-24T13:17:55.134Z</time>
      </trkpt>
      <trkpt lat="46.47074" lon="8.2516">
        <ele>1322</ele>
        <time>2020-10-24T13:17:56.135Z</time>
      </trkpt>
      <trkpt lat="46.47074" lon="8.25158">
        <ele>1322</ele>
        <time>2020-10-24T13:17:57.135Z</time>
      </trkpt>
      <trkpt lat="46.47074" lon="8.25157">
        <ele>1322</ele>
        <time>2020-10-24T13:17:58.135Z</time>
      </trkpt>
      <trkpt lat="46.47074" lon="8.25155">
        <ele>1322</ele>
        <time>2020-10-24T13:17:59.135Z</time>
      </trkpt>
      <trkpt lat="46.47073" lon="8.25154">
        <ele>1322</ele>
        <time>2020-10-24T13:18:00.134Z</time>
      </trkpt>
      <trkpt lat="46.47073" lon="8.25152">
        <ele>1322</ele>
        <time>2020-10-24T13:18:01.135Z</time>
      </trkpt>
      <trkpt lat="46.47073" lon="8.2515">
        <ele>1322</ele>
        <time>2020-10-24T13:18:02.135Z</time>
      </trkpt>
      <trkpt lat="46.47073" lon="8.25149">
        <ele>1323</ele>
        <time>2020-10-24T13:18:03.135Z</time>
      </trkpt>
      <trkpt lat="46.47073" lon="8.25147">
        <ele>1323</ele>
        <time>2020-10-24T13:18:04.134Z</time>
      </trkpt>
      <trkpt lat="46.47073" lon="8.25145">
        <ele>1324</ele>
        <time>2020-10-24T13:18:05.134Z</time>
      </trkpt>
      <trkpt lat="46.47073" lon="8.25144">
        <ele>1325</ele>
        <time>2020-10-24T13:18:06.135Z</time>
      </trkpt>
      <trkpt lat="46.47072" lon="8.25142">
        <ele>1325</ele>
        <time>2020-10-24T13:18:07.135Z</time>
      </trkpt>
      <trkpt lat="46.47072" lon="8.25141">
        <ele>1325</ele>
        <time>2020-10-24T13:18:08.135Z</time>
      </trkpt>
      <trkpt lat="46.47072" lon="8.25138">
        <ele>1326</ele>
        <time>2020-10-24T13:18:09.134Z</time>
      </trkpt>
      <trkpt lat="46.47073" lon="8.25136">
        <ele>1326</ele>
        <time>2020-10-24T13:18:10.135Z</time>
      </trkpt>
      <trkpt lat="46.47073" lon="8.25135">
        <ele>1326</ele>
        <time>2020-10-24T13:18:11.135Z</time>
      </trkpt>
      <trkpt lat="46.47073" lon="8.25133">
        <ele>1325</ele>
        <time>2020-10-24T13:18:12.135Z</time>
      </trkpt>
      <trkpt lat="46.47074" lon="8.25131">
        <ele>1325</ele>
        <time>2020-10-24T13:18:13.134Z</time>
      </trkpt>
      <trkpt lat="46.47075" lon="8.25128">
        <ele>1326</ele>
        <time>2020-10-24T13:18:14.134Z</time>
      </trkpt>
      <trkpt lat="46.47075" lon="8.25127">
        <ele>1326</ele>
        <time>2020-10-24T13:18:15.135Z</time>
      </trkpt>
      <trkpt lat="46.47075" lon="8.25126">
        <ele>1326</ele>
        <time>2020-10-24T13:18:16.134Z</time>
      </trkpt>
      <trkpt lat="46.47075" lon="8.25124">
        <ele>1326</ele>
        <time>2020-10-24T13:18:17.135Z</time>
      </trkpt>
      <trkpt lat="46.47075" lon="8.25122">
        <ele>1326</ele>
        <time>2020-10-24T13:18:18.134Z</time>
      </trkpt>
      <trkpt lat="46.47075" lon="8.25121">
        <ele>1327</ele>
        <time>2020-10-24T13:18:19.135Z</time>
      </trkpt>
      <trkpt lat="46.47075" lon="8.25119">
        <ele>1327</ele>
        <time>2020-10-24T13:18:20.135Z</time>
      </trkpt>
      <trkpt lat="46.47075" lon="8.25117">
        <ele>1327</ele>
        <time>2020-10-24T13:18:21.135Z</time>
      </trkpt>
      <trkpt lat="46.47075" lon="8.25115">
        <ele>1327</ele>
        <time>2020-10-24T13:18:22.135Z</time>
      </trkpt>
      <trkpt lat="46.47075" lon="8.25114">
        <ele>1328</ele>
        <time>2020-10-24T13:18:23.135Z</time>
      </trkpt>
      <trkpt lat="46.47075" lon="8.25112">
        <ele>1328</ele>
        <time>2020-10-24T13:18:24.135Z</time>
      </trkpt>
      <trkpt lat="46.47075" lon="8.2511">
        <ele>1329</ele>
        <time>2020-10-24T13:18:25.135Z</time>
      </trkpt>
      <trkpt lat="46.47075" lon="8.25108">
        <ele>1329</ele>
        <time>2020-10-24T13:18:26.135Z</time>
      </trkpt>
      <trkpt lat="46.47075" lon="8.25107">
        <ele>1329</ele>
        <time>2020-10-24T13:18:27.135Z</time>
      </trkpt>
      <trkpt lat="46.47075" lon="8.25105">
        <ele>1329</ele>
        <time>2020-10-24T13:18:28.134Z</time>
      </trkpt>
      <trkpt lat="46.47076" lon="8.25104">
        <ele>1329</ele>
        <time>2020-10-24T13:18:29.134Z</time>
      </trkpt>
      <trkpt lat="46.47076" lon="8.25103">
        <ele>1329</ele>
        <time>2020-10-24T13:18:30.134Z</time>
      </trkpt>
      <trkpt lat="46.47076" lon="8.251">
        <ele>1329</ele>
        <time>2020-10-24T13:18:31.134Z</time>
      </trkpt>
      <trkpt lat="46.47077" lon="8.25099">
        <ele>1328</ele>
        <time>2020-10-24T13:18:32.134Z</time>
      </trkpt>
      <trkpt lat="46.47077" lon="8.25097">
        <ele>1328</ele>
        <time>2020-10-24T13:18:33.135Z</time>
      </trkpt>
      <trkpt lat="46.47078" lon="8.25095">
        <ele>1327</ele>
        <time>2020-10-24T13:18:34.135Z</time>
      </trkpt>
      <trkpt lat="46.47079" lon="8.25093">
        <ele>1326</ele>
        <time>2020-10-24T13:18:35.135Z</time>
      </trkpt>
      <trkpt lat="46.47079" lon="8.25091">
        <ele>1326</ele>
        <time>2020-10-24T13:18:36.135Z</time>
      </trkpt>
      <trkpt lat="46.47079" lon="8.2509">
        <ele>1326</ele>
        <time>2020-10-24T13:18:37.135Z</time>
      </trkpt>
      <trkpt lat="46.47079" lon="8.25088">
        <ele>1325</ele>
        <time>2020-10-24T13:18:38.134Z</time>
      </trkpt>
      <trkpt lat="46.4708" lon="8.25085">
        <ele>1325</ele>
        <time>2020-10-24T13:18:39.135Z</time>
      </trkpt>
      <trkpt lat="46.4708" lon="8.25083">
        <ele>1324</ele>
        <time>2020-10-24T13:18:40.135Z</time>
      </trkpt>
      <trkpt lat="46.4708" lon="8.25082">
        <ele>1324</ele>
        <time>2020-10-24T13:18:41.135Z</time>
      </trkpt>
      <trkpt lat="46.4708" lon="8.25081">
        <ele>1325</ele>
        <time>2020-10-24T13:18:42.135Z</time>
      </trkpt>
      <trkpt lat="46.4708" lon="8.25079">
        <ele>1325</ele>
        <time>2020-10-24T13:18:43.135Z</time>
      </trkpt>
      <trkpt lat="46.4708" lon="8.25077">
        <ele>1325</ele>
        <time>2020-10-24T13:18:44.135Z</time>
      </trkpt>
      <trkpt lat="46.4708" lon="8.25076">
        <ele>1325</ele>
        <time>2020-10-24T13:18:45.134Z</time>
      </trkpt>
      <trkpt lat="46.47079" lon="8.25074">
        <ele>1324</ele>
        <time>2020-10-24T13:18:46.135Z</time>
      </trkpt>
      <trkpt lat="46.4708" lon="8.25072">
        <ele>1324</ele>
        <time>2020-10-24T13:18:47.135Z</time>
      </trkpt>
      <trkpt lat="46.4708" lon="8.25071">
        <ele>1323</ele>
        <time>2020-10-24T13:18:48.135Z</time>
      </trkpt>
      <trkpt lat="46.4708" lon="8.25069">
        <ele>1323</ele>
        <time>2020-10-24T13:18:49.135Z</time>
      </trkpt>
      <trkpt lat="46.4708" lon="8.25067">
        <ele>1323</ele>
        <time>2020-10-24T13:18:50.135Z</time>
      </trkpt>
      <trkpt lat="46.4708" lon="8.25066">
        <ele>1323</ele>
        <time>2020-10-24T13:18:51.134Z</time>
      </trkpt>
      <trkpt lat="46.4708" lon="8.25064">
        <ele>1323</ele>
        <time>2020-10-24T13:18:52.135Z</time>
      </trkpt>
      <trkpt lat="46.4708" lon="8.25062">
        <ele>1323</ele>
        <time>2020-10-24T13:18:53.134Z</time>
      </trkpt>
      <trkpt lat="46.4708" lon="8.2506">
        <ele>1324</ele>
        <time>2020-10-24T13:18:54.135Z</time>
      </trkpt>
      <trkpt lat="46.4708" lon="8.25058">
        <ele>1324</ele>
        <time>2020-10-24T13:18:55.135Z</time>
      </trkpt>
      <trkpt lat="46.4708" lon="8.25056">
        <ele>1324</ele>
        <time>2020-10-24T13:18:56.134Z</time>
      </trkpt>
      <trkpt lat="46.4708" lon="8.25054">
        <ele>1324</ele>
        <time>2020-10-24T13:18:57.135Z</time>
      </trkpt>
      <trkpt lat="46.4708" lon="8.25053">
        <ele>1324</ele>
        <time>2020-10-24T13:18:58.135Z</time>
      </trkpt>
      <trkpt lat="46.4708" lon="8.25051">
        <ele>1325</ele>
        <time>2020-10-24T13:18:59.135Z</time>
      </trkpt>
      <trkpt lat="46.4708" lon="8.25049">
        <ele>1325</ele>
        <time>2020-10-24T13:19:00.134Z</time>
      </trkpt>
      <trkpt lat="46.4708" lon="8.25048">
        <ele>1326</ele>
        <time>2020-10-24T13:19:01.135Z</time>
      </trkpt>
      <trkpt lat="46.4708" lon="8.25046">
        <ele>1327</ele>
        <time>2020-10-24T13:19:02.135Z</time>
      </trkpt>
      <trkpt lat="46.4708" lon="8.25044">
        <ele>1327</ele>
        <time>2020-10-24T13:19:03.135Z</time>
      </trkpt>
      <trkpt lat="46.4708" lon="8.25042">
        <ele>1327</ele>
        <time>2020-10-24T13:19:04.134Z</time>
      </trkpt>
      <trkpt lat="46.47079" lon="8.2504">
        <ele>1327</ele>
        <time>2020-10-24T13:19:05.135Z</time>
      </trkpt>
      <trkpt lat="46.47079" lon="8.25038">
        <ele>1327</ele>
        <time>2020-10-24T13:19:06.135Z</time>
      </trkpt>
      <trkpt lat="46.47079" lon="8.25037">
        <ele>1328</ele>
        <time>2020-10-24T13:19:07.134Z</time>
      </trkpt>
      <trkpt lat="46.47079" lon="8.25036">
        <ele>1328</ele>
        <time>2020-10-24T13:19:08.135Z</time>
      </trkpt>
      <trkpt lat="46.47079" lon="8.25034">
        <ele>1328</ele>
        <time>2020-10-24T13:19:09.134Z</time>
      </trkpt>
      <trkpt lat="46.47078" lon="8.25032">
        <ele>1328</ele>
        <time>2020-10-24T13:19:10.134Z</time>
      </trkpt>
      <trkpt lat="46.47078" lon="8.25031">
        <ele>1328</ele>
        <time>2020-10-24T13:19:11.134Z</time>
      </trkpt>
      <trkpt lat="46.47078" lon="8.25029">
        <ele>1327</ele>
        <time>2020-10-24T13:19:12.134Z</time>
      </trkpt>
      <trkpt lat="46.47078" lon="8.25028">
        <ele>1327</ele>
        <time>2020-10-24T13:19:13.134Z</time>
      </trkpt>
      <trkpt lat="46.47079" lon="8.25026">
        <ele>1326</ele>
        <time>2020-10-24T13:19:14.135Z</time>
      </trkpt>
      <trkpt lat="46.47079" lon="8.25024">
        <ele>1326</ele>
        <time>2020-10-24T13:19:15.135Z</time>
      </trkpt>
      <trkpt lat="46.47079" lon="8.25023">
        <ele>1325</ele>
        <time>2020-10-24T13:19:16.135Z</time>
      </trkpt>
      <trkpt lat="46.47079" lon="8.25022">
        <ele>1325</ele>
        <time>2020-10-24T13:19:17.134Z</time>
      </trkpt>
      <trkpt lat="46.4708" lon="8.2502">
        <ele>1325</ele>
        <time>2020-10-24T13:19:18.135Z</time>
      </trkpt>
      <trkpt lat="46.4708" lon="8.25018">
        <ele>1325</ele>
        <time>2020-10-24T13:19:19.135Z</time>
      </trkpt>
      <trkpt lat="46.4708" lon="8.25017">
        <ele>1324</ele>
        <time>2020-10-24T13:19:20.135Z</time>
      </trkpt>
      <trkpt lat="46.4708" lon="8.25016">
        <ele>1324</ele>
        <time>2020-10-24T13:19:21.135Z</time>
      </trkpt>
      <trkpt lat="46.4708" lon="8.25014">
        <ele>1323</ele>
        <time>2020-10-24T13:19:22.135Z</time>
      </trkpt>
      <trkpt lat="46.4708" lon="8.25013">
        <ele>1323</ele>
        <time>2020-10-24T13:19:23.135Z</time>
      </trkpt>
      <trkpt lat="46.47079" lon="8.25012">
        <ele>1323</ele>
        <time>2020-10-24T13:19:24.135Z</time>
      </trkpt>
      <trkpt lat="46.47079" lon="8.25011">
        <ele>1324</ele>
        <time>2020-10-24T13:19:25.135Z</time>
      </trkpt>
      <trkpt lat="46.47079" lon="8.25009">
        <ele>1323</ele>
        <time>2020-10-24T13:19:26.135Z</time>
      </trkpt>
      <trkpt lat="46.4708" lon="8.25007">
        <ele>1323</ele>
        <time>2020-10-24T13:19:27.134Z</time>
      </trkpt>
      <trkpt lat="46.4708" lon="8.25005">
        <ele>1324</ele>
        <time>2020-10-24T13:19:28.135Z</time>
      </trkpt>
      <trkpt lat="46.47081" lon="8.25004">
        <ele>1324</ele>
        <time>2020-10-24T13:19:29.135Z</time>
      </trkpt>
      <trkpt lat="46.47082" lon="8.25002">
        <ele>1324</ele>
        <time>2020-10-24T13:19:30.135Z</time>
      </trkpt>
      <trkpt lat="46.47082" lon="8.25">
        <ele>1325</ele>
        <time>2020-10-24T13:19:31.135Z</time>
      </trkpt>
      <trkpt lat="46.47082" lon="8.24999">
        <ele>1325</ele>
        <time>2020-10-24T13:19:32.134Z</time>
      </trkpt>
      <trkpt lat="46.47082" lon="8.24997">
        <ele>1325</ele>
        <time>2020-10-24T13:19:33.134Z</time>
      </trkpt>
      <trkpt lat="46.47082" lon="8.24996">
        <ele>1325</ele>
        <time>2020-10-24T13:19:34.135Z</time>
      </trkpt>
      <trkpt lat="46.47081" lon="8.24995">
        <ele>1325</ele>
        <time>2020-10-24T13:19:35.135Z</time>
      </trkpt>
      <trkpt lat="46.47081" lon="8.24993">
        <ele>1325</ele>
        <time>2020-10-24T13:19:36.135Z</time>
      </trkpt>
      <trkpt lat="46.47081" lon="8.24992">
        <ele>1325</ele>
        <time>2020-10-24T13:19:37.135Z</time>
      </trkpt>
      <trkpt lat="46.4708" lon="8.2499">
        <ele>1324</ele>
        <time>2020-10-24T13:19:38.135Z</time>
      </trkpt>
      <trkpt lat="46.4708" lon="8.24989">
        <ele>1324</ele>
        <time>2020-10-24T13:19:39.134Z</time>
      </trkpt>
      <trkpt lat="46.47079" lon="8.24987">
        <ele>1324</ele>
        <time>2020-10-24T13:19:40.134Z</time>
      </trkpt>
      <trkpt lat="46.47079" lon="8.24986">
        <ele>1324</ele>
        <time>2020-10-24T13:19:41.135Z</time>
      </trkpt>
      <trkpt lat="46.47078" lon="8.24984">
        <ele>1324</ele>
        <time>2020-10-24T13:19:42.134Z</time>
      </trkpt>
      <trkpt lat="46.47078" lon="8.24982">
        <ele>1325</ele>
        <time>2020-10-24T13:19:43.134Z</time>
      </trkpt>
      <trkpt lat="46.47078" lon="8.24981">
        <ele>1325</ele>
        <time>2020-10-24T13:19:44.134Z</time>
      </trkpt>
      <trkpt lat="46.47077" lon="8.24979">
        <ele>1325</ele>
        <time>2020-10-24T13:19:45.135Z</time>
      </trkpt>
      <trkpt lat="46.47077" lon="8.24977">
        <ele>1326</ele>
        <time>2020-10-24T13:19:46.135Z</time>
      </trkpt>
      <trkpt lat="46.47077" lon="8.24976">
        <ele>1326</ele>
        <time>2020-10-24T13:19:47.135Z</time>
      </trkpt>
      <trkpt lat="46.47077" lon="8.24974">
        <ele>1326</ele>
        <time>2020-10-24T13:19:48.134Z</time>
      </trkpt>
      <trkpt lat="46.47077" lon="8.24972">
        <ele>1326</ele>
        <time>2020-10-24T13:19:49.135Z</time>
      </trkpt>
      <trkpt lat="46.47077" lon="8.24971">
        <ele>1327</ele>
        <time>2020-10-24T13:19:50.135Z</time>
      </trkpt>
      <trkpt lat="46.47077" lon="8.24969">
        <ele>1327</ele>
        <time>2020-10-24T13:19:51.134Z</time>
      </trkpt>
      <trkpt lat="46.47076" lon="8.24967">
        <ele>1327</ele>
        <time>2020-10-24T13:19:52.135Z</time>
      </trkpt>
      <trkpt lat="46.47076" lon="8.24967">
        <ele>1327</ele>
        <time>2020-10-24T13:19:53.134Z</time>
      </trkpt>
      <trkpt lat="46.47076" lon="8.24965">
        <ele>1327</ele>
        <time>2020-10-24T13:19:54.134Z</time>
      </trkpt>
      <trkpt lat="46.47076" lon="8.24964">
        <ele>1327</ele>
        <time>2020-10-24T13:19:55.134Z</time>
      </trkpt>
      <trkpt lat="46.47076" lon="8.24962">
        <ele>1328</ele>
        <time>2020-10-24T13:19:56.134Z</time>
      </trkpt>
      <trkpt lat="46.47076" lon="8.24961">
        <ele>1328</ele>
        <time>2020-10-24T13:19:57.135Z</time>
      </trkpt>
      <trkpt lat="46.47076" lon="8.2496">
        <ele>1328</ele>
        <time>2020-10-24T13:19:58.135Z</time>
      </trkpt>
      <trkpt lat="46.47076" lon="8.24957">
        <ele>1328</ele>
        <time>2020-10-24T13:19:59.135Z</time>
      </trkpt>
      <trkpt lat="46.47077" lon="8.24956">
        <ele>1328</ele>
        <time>2020-10-24T13:20:00.134Z</time>
      </trkpt>
      <trkpt lat="46.47077" lon="8.24954">
        <ele>1328</ele>
        <time>2020-10-24T13:20:01.134Z</time>
      </trkpt>
      <trkpt lat="46.47076" lon="8.24953">
        <ele>1328</ele>
        <time>2020-10-24T13:20:02.135Z</time>
      </trkpt>
      <trkpt lat="46.47075" lon="8.24951">
        <ele>1327</ele>
        <time>2020-10-24T13:20:03.135Z</time>
      </trkpt>
      <trkpt lat="46.47075" lon="8.24949">
        <ele>1327</ele>
        <time>2020-10-24T13:20:04.135Z</time>
      </trkpt>
      <trkpt lat="46.47074" lon="8.24947">
        <ele>1326</ele>
        <time>2020-10-24T13:20:05.135Z</time>
      </trkpt>
      <trkpt lat="46.47074" lon="8.24946">
        <ele>1326</ele>
        <time>2020-10-24T13:20:06.135Z</time>
      </trkpt>
      <trkpt lat="46.47074" lon="8.24944">
        <ele>1325</ele>
        <time>2020-10-24T13:20:07.135Z</time>
      </trkpt>
      <trkpt lat="46.47074" lon="8.24942">
        <ele>1325</ele>
        <time>2020-10-24T13:20:08.134Z</time>
      </trkpt>
      <trkpt lat="46.47074" lon="8.2494">
        <ele>1325</ele>
        <time>2020-10-24T13:20:09.135Z</time>
      </trkpt>
      <trkpt lat="46.47074" lon="8.24938">
        <ele>1325</ele>
        <time>2020-10-24T13:20:10.134Z</time>
      </trkpt>
      <trkpt lat="46.47074" lon="8.24937">
        <ele>1325</ele>
        <time>2020-10-24T13:20:11.135Z</time>
      </trkpt>
      <trkpt lat="46.47073" lon="8.24935">
        <ele>1324</ele>
        <time>2020-10-24T13:20:12.134Z</time>
      </trkpt>
      <trkpt lat="46.47073" lon="8.24934">
        <ele>1324</ele>
        <time>2020-10-24T13:20:13.135Z</time>
      </trkpt>
      <trkpt lat="46.47073" lon="8.24932">
        <ele>1323</ele>
        <time>2020-10-24T13:20:14.134Z</time>
      </trkpt>
      <trkpt lat="46.47073" lon="8.24931">
        <ele>1322</ele>
        <time>2020-10-24T13:20:15.135Z</time>
      </trkpt>
      <trkpt lat="46.47073" lon="8.2493">
        <ele>1322</ele>
        <time>2020-10-24T13:20:16.134Z</time>
      </trkpt>
      <trkpt lat="46.47073" lon="8.24928">
        <ele>1322</ele>
        <time>2020-10-24T13:20:17.135Z</time>
      </trkpt>
      <trkpt lat="46.47073" lon="8.24927">
        <ele>1321</ele>
        <time>2020-10-24T13:20:18.135Z</time>
      </trkpt>
      <trkpt lat="46.47073" lon="8.24926">
        <ele>1322</ele>
        <time>2020-10-24T13:20:19.134Z</time>
      </trkpt>
      <trkpt lat="46.47074" lon="8.24924">
        <ele>1322</ele>
        <time>2020-10-24T13:20:20.134Z</time>
      </trkpt>
      <trkpt lat="46.47073" lon="8.24923">
        <ele>1322</ele>
        <time>2020-10-24T13:20:21.135Z</time>
      </trkpt>
      <trkpt lat="46.47073" lon="8.24921">
        <ele>1322</ele>
        <time>2020-10-24T13:20:22.135Z</time>
      </trkpt>
      <trkpt lat="46.47073" lon="8.2492">
        <ele>1322</ele>
        <time>2020-10-24T13:20:23.135Z</time>
      </trkpt>
      <trkpt lat="46.47074" lon="8.24918">
        <ele>1322</ele>
        <time>2020-10-24T13:20:24.135Z</time>
      </trkpt>
      <trkpt lat="46.47074" lon="8.24917">
        <ele>1323</ele>
        <time>2020-10-24T13:20:25.135Z</time>
      </trkpt>
      <trkpt lat="46.47073" lon="8.24915">
        <ele>1323</ele>
        <time>2020-10-24T13:20:26.135Z</time>
      </trkpt>
      <trkpt lat="46.47073" lon="8.24914">
        <ele>1323</ele>
        <time>2020-10-24T13:20:27.134Z</time>
      </trkpt>
      <trkpt lat="46.47073" lon="8.24912">
        <ele>1323</ele>
        <time>2020-10-24T13:20:28.134Z</time>
      </trkpt>
      <trkpt lat="46.47072" lon="8.24911">
        <ele>1323</ele>
        <time>2020-10-24T13:20:29.134Z</time>
      </trkpt>
      <trkpt lat="46.47072" lon="8.24909">
        <ele>1323</ele>
        <time>2020-10-24T13:20:30.135Z</time>
      </trkpt>
      <trkpt lat="46.47072" lon="8.24908">
        <ele>1323</ele>
        <time>2020-10-24T13:20:31.134Z</time>
      </trkpt>
      <trkpt lat="46.47071" lon="8.24906">
        <ele>1323</ele>
        <time>2020-10-24T13:20:32.135Z</time>
      </trkpt>
      <trkpt lat="46.47072" lon="8.24905">
        <ele>1323</ele>
        <time>2020-10-24T13:20:33.134Z</time>
      </trkpt>
      <trkpt lat="46.47072" lon="8.24904">
        <ele>1324</ele>
        <time>2020-10-24T13:20:34.134Z</time>
      </trkpt>
      <trkpt lat="46.47072" lon="8.24903">
        <ele>1324</ele>
        <time>2020-10-24T13:20:35.135Z</time>
      </trkpt>
      <trkpt lat="46.47072" lon="8.24902">
        <ele>1324</ele>
        <time>2020-10-24T13:20:36.134Z</time>
      </trkpt>
      <trkpt lat="46.47072" lon="8.24902">
        <ele>1323</ele>
        <time>2020-10-24T13:20:37.134Z</time>
      </trkpt>
      <trkpt lat="46.47072" lon="8.24901">
        <ele>1323</ele>
        <time>2020-10-24T13:20:38.134Z</time>
      </trkpt>
      <trkpt lat="46.4707" lon="8.24899">
        <ele>1318</ele>
        <time>2020-10-24T13:20:39.136Z</time>
      </trkpt>
      <trkpt lat="46.47069" lon="8.24898">
        <ele>1318</ele>
        <time>2020-10-24T13:20:40.136Z</time>
      </trkpt>
      <trkpt lat="46.47069" lon="8.24897">
        <ele>1318</ele>
        <time>2020-10-24T13:20:41.135Z</time>
      </trkpt>
      <trkpt lat="46.4707" lon="8.24896">
        <ele>1318</ele>
        <time>2020-10-24T13:20:42.136Z</time>
      </trkpt>
      <trkpt lat="46.4707" lon="8.24894">
        <ele>1319</ele>
        <time>2020-10-24T13:20:43.135Z</time>
      </trkpt>
      <trkpt lat="46.47069" lon="8.24892">
        <ele>1320</ele>
        <time>2020-10-24T13:20:44.135Z</time>
      </trkpt>
      <trkpt lat="46.47068" lon="8.24891">
        <ele>1321</ele>
        <time>2020-10-24T13:20:45.135Z</time>
      </trkpt>
      <trkpt lat="46.47067" lon="8.2489">
        <ele>1322</ele>
        <time>2020-10-24T13:20:46.135Z</time>
      </trkpt>
      <trkpt lat="46.47066" lon="8.24889">
        <ele>1322</ele>
        <time>2020-10-24T13:20:47.136Z</time>
      </trkpt>
      <trkpt lat="46.47066" lon="8.24888">
        <ele>1323</ele>
        <time>2020-10-24T13:20:48.136Z</time>
      </trkpt>
      <trkpt lat="46.47065" lon="8.24887">
        <ele>1323</ele>
        <time>2020-10-24T13:20:49.135Z</time>
      </trkpt>
      <trkpt lat="46.47066" lon="8.24886">
        <ele>1322</ele>
        <time>2020-10-24T13:20:50.136Z</time>
      </trkpt>
      <trkpt lat="46.47066" lon="8.24885">
        <ele>1322</ele>
        <time>2020-10-24T13:20:51.136Z</time>
      </trkpt>
      <trkpt lat="46.47066" lon="8.24883">
        <ele>1322</ele>
        <time>2020-10-24T13:20:52.136Z</time>
      </trkpt>
      <trkpt lat="46.47066" lon="8.24882">
        <ele>1323</ele>
        <time>2020-10-24T13:20:53.135Z</time>
      </trkpt>
      <trkpt lat="46.47065" lon="8.24881">
        <ele>1323</ele>
        <time>2020-10-24T13:20:54.136Z</time>
      </trkpt>
      <trkpt lat="46.47065" lon="8.2488">
        <ele>1323</ele>
        <time>2020-10-24T13:20:55.136Z</time>
      </trkpt>
      <trkpt lat="46.47065" lon="8.24878">
        <ele>1324</ele>
        <time>2020-10-24T13:20:56.136Z</time>
      </trkpt>
      <trkpt lat="46.47065" lon="8.24877">
        <ele>1324</ele>
        <time>2020-10-24T13:20:57.135Z</time>
      </trkpt>
      <trkpt lat="46.47065" lon="8.24877">
        <ele>1325</ele>
        <time>2020-10-24T13:20:58.135Z</time>
      </trkpt>
      <trkpt lat="46.47065" lon="8.24876">
        <ele>1325</ele>
        <time>2020-10-24T13:20:59.136Z</time>
      </trkpt>
      <trkpt lat="46.47065" lon="8.24876">
        <ele>1326</ele>
        <time>2020-10-24T13:21:00.136Z</time>
      </trkpt>
      <trkpt lat="46.47066" lon="8.24876">
        <ele>1326</ele>
        <time>2020-10-24T13:21:01.136Z</time>
      </trkpt>
      <trkpt lat="46.47066" lon="8.24877">
        <ele>1327</ele>
        <time>2020-10-24T13:21:02.136Z</time>
      </trkpt>
      <trkpt lat="46.47062" lon="8.24882">
        <ele>1324</ele>
        <time>2020-10-24T13:21:03.137Z</time>
      </trkpt>
      <trkpt lat="46.47062" lon="8.24882">
        <ele>1323</ele>
        <time>2020-10-24T13:21:04.137Z</time>
      </trkpt>
      <trkpt lat="46.47062" lon="8.24882">
        <ele>1323</ele>
        <time>2020-10-24T13:21:05.137Z</time>
      </trkpt>
      <trkpt lat="46.47062" lon="8.24882">
        <ele>1322</ele>
        <time>2020-10-24T13:21:06.137Z</time>
      </trkpt>
      <trkpt lat="46.47062" lon="8.24883">
        <ele>1322</ele>
        <time>2020-10-24T13:21:07.136Z</time>
      </trkpt>
      <trkpt lat="46.47062" lon="8.24885">
        <ele>1316</ele>
        <time>2020-10-24T13:21:08.137Z</time>
      </trkpt>
      <trkpt lat="46.47062" lon="8.24885">
        <ele>1317</ele>
        <time>2020-10-24T13:21:09.136Z</time>
      </trkpt>
      <trkpt lat="46.47062" lon="8.24886">
        <ele>1317</ele>
        <time>2020-10-24T13:21:10.136Z</time>
      </trkpt>
      <trkpt lat="46.47062" lon="8.24887">
        <ele>1317</ele>
        <time>2020-10-24T13:21:11.136Z</time>
      </trkpt>
      <trkpt lat="46.47063" lon="8.24887">
        <ele>1318</ele>
        <time>2020-10-24T13:21:12.137Z</time>
      </trkpt>
      <trkpt lat="46.47064" lon="8.24888">
        <ele>1320</ele>
        <time>2020-10-24T13:21:13.137Z</time>
      </trkpt>
      <trkpt lat="46.47064" lon="8.24888">
        <ele>1320</ele>
        <time>2020-10-24T13:21:14.138Z</time>
      </trkpt>
      <trkpt lat="46.47063" lon="8.24886">
        <ele>1323</ele>
        <time>2020-10-24T13:21:15.138Z</time>
      </trkpt>
      <trkpt lat="46.47063" lon="8.24885">
        <ele>1322</ele>
        <time>2020-10-24T13:21:16.138Z</time>
      </trkpt>
      <trkpt lat="46.47063" lon="8.24884">
        <ele>1322</ele>
        <time>2020-10-24T13:21:17.137Z</time>
      </trkpt>
      <trkpt lat="46.47064" lon="8.24882">
        <ele>1322</ele>
        <time>2020-10-24T13:21:18.137Z</time>
      </trkpt>
      <trkpt lat="46.47064" lon="8.2488">
        <ele>1322</ele>
        <time>2020-10-24T13:21:19.138Z</time>
      </trkpt>
      <trkpt lat="46.47064" lon="8.24879">
        <ele>1323</ele>
        <time>2020-10-24T13:21:20.137Z</time>
      </trkpt>
      <trkpt lat="46.47064" lon="8.24878">
        <ele>1323</ele>
        <time>2020-10-24T13:21:21.138Z</time>
      </trkpt>
      <trkpt lat="46.47065" lon="8.24876">
        <ele>1323</ele>
        <time>2020-10-24T13:21:22.137Z</time>
      </trkpt>
      <trkpt lat="46.47064" lon="8.24875">
        <ele>1322</ele>
        <time>2020-10-24T13:21:23.137Z</time>
      </trkpt>
      <trkpt lat="46.47063" lon="8.24874">
        <ele>1321</ele>
        <time>2020-10-24T13:21:24.138Z</time>
      </trkpt>
      <trkpt lat="46.47062" lon="8.24872">
        <ele>1320</ele>
        <time>2020-10-24T13:21:25.138Z</time>
      </trkpt>
      <trkpt lat="46.47062" lon="8.24871">
        <ele>1319</ele>
        <time>2020-10-24T13:21:26.138Z</time>
      </trkpt>
      <trkpt lat="46.47062" lon="8.2487">
        <ele>1318</ele>
        <time>2020-10-24T13:21:27.138Z</time>
      </trkpt>
      <trkpt lat="46.47062" lon="8.24869">
        <ele>1317</ele>
        <time>2020-10-24T13:21:28.137Z</time>
      </trkpt>
      <trkpt lat="46.47062" lon="8.24867">
        <ele>1317</ele>
        <time>2020-10-24T13:21:29.137Z</time>
      </trkpt>
      <trkpt lat="46.47061" lon="8.24866">
        <ele>1317</ele>
        <time>2020-10-24T13:21:30.138Z</time>
      </trkpt>
      <trkpt lat="46.47061" lon="8.24864">
        <ele>1317</ele>
        <time>2020-10-24T13:21:31.138Z</time>
      </trkpt>
      <trkpt lat="46.4706" lon="8.24862">
        <ele>1317</ele>
        <time>2020-10-24T13:21:32.138Z</time>
      </trkpt>
      <trkpt lat="46.47059" lon="8.24861">
        <ele>1317</ele>
        <time>2020-10-24T13:21:33.137Z</time>
      </trkpt>
      <trkpt lat="46.47059" lon="8.24859">
        <ele>1317</ele>
        <time>2020-10-24T13:21:34.137Z</time>
      </trkpt>
      <trkpt lat="46.47058" lon="8.24856">
        <ele>1317</ele>
        <time>2020-10-24T13:21:35.138Z</time>
      </trkpt>
      <trkpt lat="46.47058" lon="8.24855">
        <ele>1318</ele>
        <time>2020-10-24T13:21:36.137Z</time>
      </trkpt>
      <trkpt lat="46.47058" lon="8.24853">
        <ele>1318</ele>
        <time>2020-10-24T13:21:37.138Z</time>
      </trkpt>
      <trkpt lat="46.47058" lon="8.24852">
        <ele>1318</ele>
        <time>2020-10-24T13:21:38.137Z</time>
      </trkpt>
      <trkpt lat="46.47057" lon="8.2485">
        <ele>1318</ele>
        <time>2020-10-24T13:21:39.137Z</time>
      </trkpt>
      <trkpt lat="46.47057" lon="8.24849">
        <ele>1318</ele>
        <time>2020-10-24T13:21:40.137Z</time>
      </trkpt>
      <trkpt lat="46.47057" lon="8.24848">
        <ele>1319</ele>
        <time>2020-10-24T13:21:41.138Z</time>
      </trkpt>
      <trkpt lat="46.47057" lon="8.24846">
        <ele>1320</ele>
        <time>2020-10-24T13:21:42.137Z</time>
      </trkpt>
      <trkpt lat="46.47058" lon="8.24845">
        <ele>1322</ele>
        <time>2020-10-24T13:21:43.138Z</time>
      </trkpt>
      <trkpt lat="46.47057" lon="8.24843">
        <ele>1323</ele>
        <time>2020-10-24T13:21:44.138Z</time>
      </trkpt>
      <trkpt lat="46.47057" lon="8.24842">
        <ele>1323</ele>
        <time>2020-10-24T13:21:45.137Z</time>
      </trkpt>
      <trkpt lat="46.47057" lon="8.24842">
        <ele>1323</ele>
        <time>2020-10-24T13:21:46.138Z</time>
      </trkpt>
      <trkpt lat="46.47057" lon="8.24841">
        <ele>1323</ele>
        <time>2020-10-24T13:21:47.138Z</time>
      </trkpt>
      <trkpt lat="46.47056" lon="8.24841">
        <ele>1324</ele>
        <time>2020-10-24T13:21:48.138Z</time>
      </trkpt>
      <trkpt lat="46.47056" lon="8.2484">
        <ele>1324</ele>
        <time>2020-10-24T13:21:49.137Z</time>
      </trkpt>
      <trkpt lat="46.47056" lon="8.24839">
        <ele>1324</ele>
        <time>2020-10-24T13:21:50.138Z</time>
      </trkpt>
      <trkpt lat="46.47056" lon="8.24838">
        <ele>1324</ele>
        <time>2020-10-24T13:21:51.137Z</time>
      </trkpt>
      <trkpt lat="46.47056" lon="8.24837">
        <ele>1324</ele>
        <time>2020-10-24T13:21:52.138Z</time>
      </trkpt>
      <trkpt lat="46.47056" lon="8.24836">
        <ele>1324</ele>
        <time>2020-10-24T13:21:53.138Z</time>
      </trkpt>
      <trkpt lat="46.47056" lon="8.24834">
        <ele>1323</ele>
        <time>2020-10-24T13:21:54.138Z</time>
      </trkpt>
      <trkpt lat="46.47056" lon="8.24833">
        <ele>1323</ele>
        <time>2020-10-24T13:21:55.137Z</time>
      </trkpt>
      <trkpt lat="46.47056" lon="8.24832">
        <ele>1323</ele>
        <time>2020-10-24T13:21:56.137Z</time>
      </trkpt>
      <trkpt lat="46.47056" lon="8.24832">
        <ele>1323</ele>
        <time>2020-10-24T13:21:57.138Z</time>
      </trkpt>
      <trkpt lat="46.47055" lon="8.24832">
        <ele>1323</ele>
        <time>2020-10-24T13:21:58.138Z</time>
      </trkpt>
      <trkpt lat="46.47055" lon="8.24832">
        <ele>1323</ele>
        <time>2020-10-24T13:21:59.137Z</time>
      </trkpt>
      <trkpt lat="46.47054" lon="8.24827">
        <ele>1322</ele>
        <time>2020-10-24T13:22:00.138Z</time>
      </trkpt>
      <trkpt lat="46.47054" lon="8.24827">
        <ele>1321</ele>
        <time>2020-10-24T13:22:01.138Z</time>
      </trkpt>
      <trkpt lat="46.47054" lon="8.24825">
        <ele>1320</ele>
        <time>2020-10-24T13:22:02.137Z</time>
      </trkpt>
      <trkpt lat="46.47054" lon="8.24824">
        <ele>1320</ele>
        <time>2020-10-24T13:22:03.137Z</time>
      </trkpt>
      <trkpt lat="46.47054" lon="8.24823">
        <ele>1320</ele>
        <time>2020-10-24T13:22:04.138Z</time>
      </trkpt>
      <trkpt lat="46.47054" lon="8.24821">
        <ele>1320</ele>
        <time>2020-10-24T13:22:05.137Z</time>
      </trkpt>
      <trkpt lat="46.47053" lon="8.2482">
        <ele>1320</ele>
        <time>2020-10-24T13:22:06.138Z</time>
      </trkpt>
      <trkpt lat="46.47053" lon="8.24819">
        <ele>1320</ele>
        <time>2020-10-24T13:22:07.138Z</time>
      </trkpt>
      <trkpt lat="46.47053" lon="8.24819">
        <ele>1320</ele>
        <time>2020-10-24T13:22:08.137Z</time>
      </trkpt>
      <trkpt lat="46.47053" lon="8.24818">
        <ele>1321</ele>
        <time>2020-10-24T13:22:09.138Z</time>
      </trkpt>
      <trkpt lat="46.47052" lon="8.24816">
        <ele>1321</ele>
        <time>2020-10-24T13:22:10.137Z</time>
      </trkpt>
      <trkpt lat="46.47052" lon="8.24815">
        <ele>1322</ele>
        <time>2020-10-24T13:22:11.137Z</time>
      </trkpt>
      <trkpt lat="46.47052" lon="8.24814">
        <ele>1322</ele>
        <time>2020-10-24T13:22:12.138Z</time>
      </trkpt>
      <trkpt lat="46.47051" lon="8.24813">
        <ele>1322</ele>
        <time>2020-10-24T13:22:13.137Z</time>
      </trkpt>
      <trkpt lat="46.47051" lon="8.24812">
        <ele>1322</ele>
        <time>2020-10-24T13:22:14.138Z</time>
      </trkpt>
      <trkpt lat="46.4705" lon="8.2481">
        <ele>1322</ele>
        <time>2020-10-24T13:22:15.137Z</time>
      </trkpt>
      <trkpt lat="46.47049" lon="8.24809">
        <ele>1321</ele>
        <time>2020-10-24T13:22:16.138Z</time>
      </trkpt>
      <trkpt lat="46.47049" lon="8.24807">
        <ele>1321</ele>
        <time>2020-10-24T13:22:17.138Z</time>
      </trkpt>
      <trkpt lat="46.47048" lon="8.24806">
        <ele>1321</ele>
        <time>2020-10-24T13:22:18.138Z</time>
      </trkpt>
      <trkpt lat="46.47047" lon="8.24804">
        <ele>1321</ele>
        <time>2020-10-24T13:22:19.138Z</time>
      </trkpt>
      <trkpt lat="46.47047" lon="8.24803">
        <ele>1321</ele>
        <time>2020-10-24T13:22:20.137Z</time>
      </trkpt>
      <trkpt lat="46.47047" lon="8.24801">
        <ele>1321</ele>
        <time>2020-10-24T13:22:21.138Z</time>
      </trkpt>
      <trkpt lat="46.47046" lon="8.248">
        <ele>1321</ele>
        <time>2020-10-24T13:22:22.137Z</time>
      </trkpt>
      <trkpt lat="46.47046" lon="8.24798">
        <ele>1321</ele>
        <time>2020-10-24T13:22:23.138Z</time>
      </trkpt>
      <trkpt lat="46.47046" lon="8.24797">
        <ele>1322</ele>
        <time>2020-10-24T13:22:24.138Z</time>
      </trkpt>
      <trkpt lat="46.47046" lon="8.24795">
        <ele>1322</ele>
        <time>2020-10-24T13:22:25.138Z</time>
      </trkpt>
      <trkpt lat="46.47045" lon="8.24794">
        <ele>1323</ele>
        <time>2020-10-24T13:22:26.137Z</time>
      </trkpt>
      <trkpt lat="46.47044" lon="8.24792">
        <ele>1323</ele>
        <time>2020-10-24T13:22:27.137Z</time>
      </trkpt>
      <trkpt lat="46.47043" lon="8.2479">
        <ele>1323</ele>
        <time>2020-10-24T13:22:28.138Z</time>
      </trkpt>
      <trkpt lat="46.47043" lon="8.24789">
        <ele>1323</ele>
        <time>2020-10-24T13:22:29.137Z</time>
      </trkpt>
      <trkpt lat="46.47042" lon="8.24788">
        <ele>1323</ele>
        <time>2020-10-24T13:22:30.138Z</time>
      </trkpt>
      <trkpt lat="46.47041" lon="8.24786">
        <ele>1323</ele>
        <time>2020-10-24T13:22:31.138Z</time>
      </trkpt>
      <trkpt lat="46.47041" lon="8.24784">
        <ele>1323</ele>
        <time>2020-10-24T13:22:32.138Z</time>
      </trkpt>
      <trkpt lat="46.4704" lon="8.24783">
        <ele>1323</ele>
        <time>2020-10-24T13:22:33.138Z</time>
      </trkpt>
      <trkpt lat="46.47039" lon="8.24781">
        <ele>1324</ele>
        <time>2020-10-24T13:22:34.137Z</time>
      </trkpt>
      <trkpt lat="46.47038" lon="8.24779">
        <ele>1324</ele>
        <time>2020-10-24T13:22:35.138Z</time>
      </trkpt>
      <trkpt lat="46.47038" lon="8.24777">
        <ele>1324</ele>
        <time>2020-10-24T13:22:36.138Z</time>
      </trkpt>
      <trkpt lat="46.47037" lon="8.24776">
        <ele>1324</ele>
        <time>2020-10-24T13:22:37.137Z</time>
      </trkpt>
      <trkpt lat="46.47037" lon="8.24774">
        <ele>1323</ele>
        <time>2020-10-24T13:22:38.137Z</time>
      </trkpt>
      <trkpt lat="46.47036" lon="8.24773">
        <ele>1323</ele>
        <time>2020-10-24T13:22:39.138Z</time>
      </trkpt>
      <trkpt lat="46.47035" lon="8.24772">
        <ele>1323</ele>
        <time>2020-10-24T13:22:40.137Z</time>
      </trkpt>
      <trkpt lat="46.47035" lon="8.2477">
        <ele>1322</ele>
        <time>2020-10-24T13:22:41.137Z</time>
      </trkpt>
      <trkpt lat="46.47034" lon="8.24769">
        <ele>1321</ele>
        <time>2020-10-24T13:22:42.138Z</time>
      </trkpt>
      <trkpt lat="46.47033" lon="8.24768">
        <ele>1320</ele>
        <time>2020-10-24T13:22:43.138Z</time>
      </trkpt>
      <trkpt lat="46.47032" lon="8.24766">
        <ele>1319</ele>
        <time>2020-10-24T13:22:44.138Z</time>
      </trkpt>
      <trkpt lat="46.47031" lon="8.24764">
        <ele>1319</ele>
        <time>2020-10-24T13:22:45.138Z</time>
      </trkpt>
      <trkpt lat="46.4703" lon="8.24762">
        <ele>1318</ele>
        <time>2020-10-24T13:22:46.138Z</time>
      </trkpt>
      <trkpt lat="46.4703" lon="8.2476">
        <ele>1317</ele>
        <time>2020-10-24T13:22:47.137Z</time>
      </trkpt>
      <trkpt lat="46.47029" lon="8.24759">
        <ele>1317</ele>
        <time>2020-10-24T13:22:48.137Z</time>
      </trkpt>
      <trkpt lat="46.47029" lon="8.24757">
        <ele>1317</ele>
        <time>2020-10-24T13:22:49.138Z</time>
      </trkpt>
      <trkpt lat="46.47028" lon="8.24755">
        <ele>1317</ele>
        <time>2020-10-24T13:22:50.138Z</time>
      </trkpt>
      <trkpt lat="46.47028" lon="8.24753">
        <ele>1318</ele>
        <time>2020-10-24T13:22:51.137Z</time>
      </trkpt>
      <trkpt lat="46.47027" lon="8.2475">
        <ele>1318</ele>
        <time>2020-10-24T13:22:52.137Z</time>
      </trkpt>
      <trkpt lat="46.47026" lon="8.24749">
        <ele>1318</ele>
        <time>2020-10-24T13:22:53.138Z</time>
      </trkpt>
      <trkpt lat="46.47025" lon="8.24748">
        <ele>1319</ele>
        <time>2020-10-24T13:22:54.138Z</time>
      </trkpt>
      <trkpt lat="46.47025" lon="8.24746">
        <ele>1319</ele>
        <time>2020-10-24T13:22:55.138Z</time>
      </trkpt>
      <trkpt lat="46.47024" lon="8.24745">
        <ele>1318</ele>
        <time>2020-10-24T13:22:56.138Z</time>
      </trkpt>
      <trkpt lat="46.47023" lon="8.24744">
        <ele>1317</ele>
        <time>2020-10-24T13:22:57.138Z</time>
      </trkpt>
      <trkpt lat="46.47022" lon="8.24742">
        <ele>1317</ele>
        <time>2020-10-24T13:22:58.138Z</time>
      </trkpt>
      <trkpt lat="46.47021" lon="8.2474">
        <ele>1316</ele>
        <time>2020-10-24T13:22:59.137Z</time>
      </trkpt>
      <trkpt lat="46.4702" lon="8.24738">
        <ele>1315</ele>
        <time>2020-10-24T13:23:00.137Z</time>
      </trkpt>
      <trkpt lat="46.4702" lon="8.24735">
        <ele>1314</ele>
        <time>2020-10-24T13:23:01.138Z</time>
      </trkpt>
      <trkpt lat="46.47019" lon="8.24733">
        <ele>1314</ele>
        <time>2020-10-24T13:23:02.137Z</time>
      </trkpt>
      <trkpt lat="46.47018" lon="8.2473">
        <ele>1314</ele>
        <time>2020-10-24T13:23:03.138Z</time>
      </trkpt>
      <trkpt lat="46.47017" lon="8.24728">
        <ele>1313</ele>
        <time>2020-10-24T13:23:04.137Z</time>
      </trkpt>
      <trkpt lat="46.47016" lon="8.24726">
        <ele>1313</ele>
        <time>2020-10-24T13:23:05.137Z</time>
      </trkpt>
      <trkpt lat="46.47015" lon="8.24724">
        <ele>1313</ele>
        <time>2020-10-24T13:23:06.138Z</time>
      </trkpt>
      <trkpt lat="46.47015" lon="8.24723">
        <ele>1313</ele>
        <time>2020-10-24T13:23:07.137Z</time>
      </trkpt>
      <trkpt lat="46.47014" lon="8.24721">
        <ele>1312</ele>
        <time>2020-10-24T13:23:08.138Z</time>
      </trkpt>
      <trkpt lat="46.47014" lon="8.2472">
        <ele>1312</ele>
        <time>2020-10-24T13:23:09.138Z</time>
      </trkpt>
      <trkpt lat="46.47014" lon="8.2472">
        <ele>1312</ele>
        <time>2020-10-24T13:23:10.138Z</time>
      </trkpt>
      <trkpt lat="46.47014" lon="8.2472">
        <ele>1312</ele>
        <time>2020-10-24T13:23:11.138Z</time>
      </trkpt>
      <trkpt lat="46.47014" lon="8.24719">
        <ele>1313</ele>
        <time>2020-10-24T13:23:12.137Z</time>
      </trkpt>
      <trkpt lat="46.47014" lon="8.24719">
        <ele>1313</ele>
        <time>2020-10-24T13:23:13.138Z</time>
      </trkpt>
      <trkpt lat="46.47014" lon="8.24717">
        <ele>1314</ele>
        <time>2020-10-24T13:23:14.137Z</time>
      </trkpt>
      <trkpt lat="46.47014" lon="8.24717">
        <ele>1314</ele>
        <time>2020-10-24T13:23:15.137Z</time>
      </trkpt>
      <trkpt lat="46.47014" lon="8.24716">
        <ele>1315</ele>
        <time>2020-10-24T13:23:16.138Z</time>
      </trkpt>
      <trkpt lat="46.47014" lon="8.24716">
        <ele>1315</ele>
        <time>2020-10-24T13:23:17.138Z</time>
      </trkpt>
      <trkpt lat="46.47014" lon="8.24715">
        <ele>1315</ele>
        <time>2020-10-24T13:23:18.138Z</time>
      </trkpt>
      <trkpt lat="46.47013" lon="8.24714">
        <ele>1315</ele>
        <time>2020-10-24T13:23:19.138Z</time>
      </trkpt>
      <trkpt lat="46.47013" lon="8.24713">
        <ele>1315</ele>
        <time>2020-10-24T13:23:20.138Z</time>
      </trkpt>
      <trkpt lat="46.47012" lon="8.24712">
        <ele>1316</ele>
        <time>2020-10-24T13:23:21.138Z</time>
      </trkpt>
      <trkpt lat="46.47012" lon="8.24711">
        <ele>1316</ele>
        <time>2020-10-24T13:23:22.138Z</time>
      </trkpt>
      <trkpt lat="46.47011" lon="8.24709">
        <ele>1316</ele>
        <time>2020-10-24T13:23:23.138Z</time>
      </trkpt>
      <trkpt lat="46.47011" lon="8.24708">
        <ele>1317</ele>
        <time>2020-10-24T13:23:24.137Z</time>
      </trkpt>
      <trkpt lat="46.4701" lon="8.24707">
        <ele>1318</ele>
        <time>2020-10-24T13:23:25.138Z</time>
      </trkpt>
      <trkpt lat="46.4701" lon="8.24705">
        <ele>1318</ele>
        <time>2020-10-24T13:23:26.137Z</time>
      </trkpt>
      <trkpt lat="46.47009" lon="8.24704">
        <ele>1319</ele>
        <time>2020-10-24T13:23:27.137Z</time>
      </trkpt>
      <trkpt lat="46.47009" lon="8.24703">
        <ele>1319</ele>
        <time>2020-10-24T13:23:28.137Z</time>
      </trkpt>
      <trkpt lat="46.47008" lon="8.24701">
        <ele>1319</ele>
        <time>2020-10-24T13:23:29.138Z</time>
      </trkpt>
      <trkpt lat="46.47008" lon="8.24699">
        <ele>1319</ele>
        <time>2020-10-24T13:23:30.137Z</time>
      </trkpt>
      <trkpt lat="46.47007" lon="8.24698">
        <ele>1319</ele>
        <time>2020-10-24T13:23:31.137Z</time>
      </trkpt>
      <trkpt lat="46.47006" lon="8.24697">
        <ele>1319</ele>
        <time>2020-10-24T13:23:32.138Z</time>
      </trkpt>
      <trkpt lat="46.47006" lon="8.24696">
        <ele>1320</ele>
        <time>2020-10-24T13:23:33.138Z</time>
      </trkpt>
      <trkpt lat="46.47005" lon="8.24695">
        <ele>1320</ele>
        <time>2020-10-24T13:23:34.138Z</time>
      </trkpt>
      <trkpt lat="46.47005" lon="8.24694">
        <ele>1321</ele>
        <time>2020-10-24T13:23:35.137Z</time>
      </trkpt>
      <trkpt lat="46.47004" lon="8.24692">
        <ele>1321</ele>
        <time>2020-10-24T13:23:36.137Z</time>
      </trkpt>
      <trkpt lat="46.47004" lon="8.24691">
        <ele>1322</ele>
        <time>2020-10-24T13:23:37.138Z</time>
      </trkpt>
      <trkpt lat="46.47003" lon="8.2469">
        <ele>1322</ele>
        <time>2020-10-24T13:23:38.138Z</time>
      </trkpt>
      <trkpt lat="46.47003" lon="8.24688">
        <ele>1322</ele>
        <time>2020-10-24T13:23:39.138Z</time>
      </trkpt>
      <trkpt lat="46.47003" lon="8.24687">
        <ele>1322</ele>
        <time>2020-10-24T13:23:40.137Z</time>
      </trkpt>
      <trkpt lat="46.47002" lon="8.24685">
        <ele>1323</ele>
        <time>2020-10-24T13:23:41.138Z</time>
      </trkpt>
      <trkpt lat="46.47002" lon="8.24683">
        <ele>1323</ele>
        <time>2020-10-24T13:23:42.138Z</time>
      </trkpt>
      <trkpt lat="46.47001" lon="8.24682">
        <ele>1323</ele>
        <time>2020-10-24T13:23:43.137Z</time>
      </trkpt>
      <trkpt lat="46.47" lon="8.24681">
        <ele>1323</ele>
        <time>2020-10-24T13:23:44.138Z</time>
      </trkpt>
      <trkpt lat="46.47" lon="8.24679">
        <ele>1323</ele>
        <time>2020-10-24T13:23:45.137Z</time>
      </trkpt>
      <trkpt lat="46.46999" lon="8.24678">
        <ele>1323</ele>
        <time>2020-10-24T13:23:46.138Z</time>
      </trkpt>
      <trkpt lat="46.46999" lon="8.24677">
        <ele>1322</ele>
        <time>2020-10-24T13:23:47.138Z</time>
      </trkpt>
      <trkpt lat="46.46998" lon="8.24676">
        <ele>1321</ele>
        <time>2020-10-24T13:23:48.138Z</time>
      </trkpt>
      <trkpt lat="46.46998" lon="8.24675">
        <ele>1321</ele>
        <time>2020-10-24T13:23:49.138Z</time>
      </trkpt>
      <trkpt lat="46.46997" lon="8.24673">
        <ele>1321</ele>
        <time>2020-10-24T13:23:50.138Z</time>
      </trkpt>
      <trkpt lat="46.46997" lon="8.24672">
        <ele>1321</ele>
        <time>2020-10-24T13:23:51.138Z</time>
      </trkpt>
      <trkpt lat="46.46997" lon="8.24671">
        <ele>1321</ele>
        <time>2020-10-24T13:23:52.138Z</time>
      </trkpt>
      <trkpt lat="46.46996" lon="8.24669">
        <ele>1322</ele>
        <time>2020-10-24T13:23:53.137Z</time>
      </trkpt>
      <trkpt lat="46.46996" lon="8.24668">
        <ele>1322</ele>
        <time>2020-10-24T13:23:54.137Z</time>
      </trkpt>
      <trkpt lat="46.46995" lon="8.24666">
        <ele>1322</ele>
        <time>2020-10-24T13:23:55.138Z</time>
      </trkpt>
      <trkpt lat="46.46994" lon="8.24665">
        <ele>1323</ele>
        <time>2020-10-24T13:23:56.138Z</time>
      </trkpt>
      <trkpt lat="46.46993" lon="8.24663">
        <ele>1323</ele>
        <time>2020-10-24T13:23:57.138Z</time>
      </trkpt>
      <trkpt lat="46.46993" lon="8.24661">
        <ele>1323</ele>
        <time>2020-10-24T13:23:58.138Z</time>
      </trkpt>
      <trkpt lat="46.46992" lon="8.24659">
        <ele>1324</ele>
        <time>2020-10-24T13:23:59.138Z</time>
      </trkpt>
      <trkpt lat="46.46992" lon="8.24658">
        <ele>1324</ele>
        <time>2020-10-24T13:24:00.138Z</time>
      </trkpt>
      <trkpt lat="46.46991" lon="8.24656">
        <ele>1324</ele>
        <time>2020-10-24T13:24:01.137Z</time>
      </trkpt>
      <trkpt lat="46.46991" lon="8.24654">
        <ele>1324</ele>
        <time>2020-10-24T13:24:02.138Z</time>
      </trkpt>
      <trkpt lat="46.4699" lon="8.24653">
        <ele>1324</ele>
        <time>2020-10-24T13:24:03.138Z</time>
      </trkpt>
      <trkpt lat="46.46988" lon="8.24653">
        <ele>1324</ele>
        <time>2020-10-24T13:24:04.137Z</time>
      </trkpt>
      <trkpt lat="46.46988" lon="8.24651">
        <ele>1323</ele>
        <time>2020-10-24T13:24:05.137Z</time>
      </trkpt>
      <trkpt lat="46.46986" lon="8.24651">
        <ele>1323</ele>
        <time>2020-10-24T13:24:06.137Z</time>
      </trkpt>
      <trkpt lat="46.46985" lon="8.24649">
        <ele>1323</ele>
        <time>2020-10-24T13:24:07.138Z</time>
      </trkpt>
      <trkpt lat="46.46985" lon="8.24648">
        <ele>1323</ele>
        <time>2020-10-24T13:24:08.138Z</time>
      </trkpt>
      <trkpt lat="46.46985" lon="8.24647">
        <ele>1323</ele>
        <time>2020-10-24T13:24:09.138Z</time>
      </trkpt>
      <trkpt lat="46.46985" lon="8.24646">
        <ele>1323</ele>
        <time>2020-10-24T13:24:10.138Z</time>
      </trkpt>
      <trkpt lat="46.46984" lon="8.24645">
        <ele>1322</ele>
        <time>2020-10-24T13:24:11.138Z</time>
      </trkpt>
      <trkpt lat="46.46983" lon="8.24644">
        <ele>1321</ele>
        <time>2020-10-24T13:24:12.137Z</time>
      </trkpt>
      <trkpt lat="46.46982" lon="8.24643">
        <ele>1321</ele>
        <time>2020-10-24T13:24:13.138Z</time>
      </trkpt>
      <trkpt lat="46.46981" lon="8.24642">
        <ele>1320</ele>
        <time>2020-10-24T13:24:14.138Z</time>
      </trkpt>
      <trkpt lat="46.4698" lon="8.24641">
        <ele>1319</ele>
        <time>2020-10-24T13:24:15.138Z</time>
      </trkpt>
      <trkpt lat="46.4698" lon="8.24639">
        <ele>1319</ele>
        <time>2020-10-24T13:24:16.138Z</time>
      </trkpt>
      <trkpt lat="46.46979" lon="8.24637">
        <ele>1319</ele>
        <time>2020-10-24T13:24:17.137Z</time>
      </trkpt>
      <trkpt lat="46.46979" lon="8.24635">
        <ele>1319</ele>
        <time>2020-10-24T13:24:18.138Z</time>
      </trkpt>
      <trkpt lat="46.46978" lon="8.24634">
        <ele>1319</ele>
        <time>2020-10-24T13:24:19.138Z</time>
      </trkpt>
      <trkpt lat="46.46978" lon="8.24633">
        <ele>1320</ele>
        <time>2020-10-24T13:24:20.138Z</time>
      </trkpt>
      <trkpt lat="46.46977" lon="8.24631">
        <ele>1320</ele>
        <time>2020-10-24T13:24:21.138Z</time>
      </trkpt>
      <trkpt lat="46.46977" lon="8.2463">
        <ele>1320</ele>
        <time>2020-10-24T13:24:22.138Z</time>
      </trkpt>
      <trkpt lat="46.46977" lon="8.24628">
        <ele>1320</ele>
        <time>2020-10-24T13:24:23.138Z</time>
      </trkpt>
      <trkpt lat="46.46976" lon="8.24626">
        <ele>1320</ele>
        <time>2020-10-24T13:24:24.138Z</time>
      </trkpt>
      <trkpt lat="46.46976" lon="8.24624">
        <ele>1321</ele>
        <time>2020-10-24T13:24:25.138Z</time>
      </trkpt>
      <trkpt lat="46.46975" lon="8.24623">
        <ele>1321</ele>
        <time>2020-10-24T13:24:26.138Z</time>
      </trkpt>
      <trkpt lat="46.46975" lon="8.24621">
        <ele>1320</ele>
        <time>2020-10-24T13:24:27.138Z</time>
      </trkpt>
      <trkpt lat="46.46974" lon="8.24619">
        <ele>1320</ele>
        <time>2020-10-24T13:24:28.138Z</time>
      </trkpt>
      <trkpt lat="46.46973" lon="8.24617">
        <ele>1319</ele>
        <time>2020-10-24T13:24:29.137Z</time>
      </trkpt>
      <trkpt lat="46.46973" lon="8.24615">
        <ele>1319</ele>
        <time>2020-10-24T13:24:30.138Z</time>
      </trkpt>
      <trkpt lat="46.46973" lon="8.24613">
        <ele>1318</ele>
        <time>2020-10-24T13:24:31.137Z</time>
      </trkpt>
      <trkpt lat="46.46973" lon="8.24612">
        <ele>1318</ele>
        <time>2020-10-24T13:24:32.137Z</time>
      </trkpt>
      <trkpt lat="46.46973" lon="8.2461">
        <ele>1318</ele>
        <time>2020-10-24T13:24:33.137Z</time>
      </trkpt>
      <trkpt lat="46.46973" lon="8.24608">
        <ele>1318</ele>
        <time>2020-10-24T13:24:34.138Z</time>
      </trkpt>
      <trkpt lat="46.46973" lon="8.24606">
        <ele>1318</ele>
        <time>2020-10-24T13:24:35.137Z</time>
      </trkpt>
      <trkpt lat="46.46973" lon="8.24604">
        <ele>1318</ele>
        <time>2020-10-24T13:24:36.137Z</time>
      </trkpt>
      <trkpt lat="46.46972" lon="8.24602">
        <ele>1319</ele>
        <time>2020-10-24T13:24:37.138Z</time>
      </trkpt>
      <trkpt lat="46.46972" lon="8.24601">
        <ele>1319</ele>
        <time>2020-10-24T13:24:38.138Z</time>
      </trkpt>
      <trkpt lat="46.46971" lon="8.24602">
        <ele>1320</ele>
        <time>2020-10-24T13:24:39.137Z</time>
      </trkpt>
      <trkpt lat="46.4697" lon="8.24601">
        <ele>1320</ele>
        <time>2020-10-24T13:24:40.138Z</time>
      </trkpt>
      <trkpt lat="46.46969" lon="8.24601">
        <ele>1320</ele>
        <time>2020-10-24T13:24:41.138Z</time>
      </trkpt>
      <trkpt lat="46.46969" lon="8.246">
        <ele>1319</ele>
        <time>2020-10-24T13:24:42.138Z</time>
      </trkpt>
      <trkpt lat="46.46968" lon="8.24599">
        <ele>1319</ele>
        <time>2020-10-24T13:24:43.138Z</time>
      </trkpt>
      <trkpt lat="46.46967" lon="8.24598">
        <ele>1319</ele>
        <time>2020-10-24T13:24:44.138Z</time>
      </trkpt>
      <trkpt lat="46.46967" lon="8.24595">
        <ele>1319</ele>
        <time>2020-10-24T13:24:45.138Z</time>
      </trkpt>
      <trkpt lat="46.46967" lon="8.24593">
        <ele>1320</ele>
        <time>2020-10-24T13:24:46.137Z</time>
      </trkpt>
      <trkpt lat="46.46967" lon="8.2459">
        <ele>1320</ele>
        <time>2020-10-24T13:24:47.138Z</time>
      </trkpt>
      <trkpt lat="46.46967" lon="8.24588">
        <ele>1320</ele>
        <time>2020-10-24T13:24:48.138Z</time>
      </trkpt>
      <trkpt lat="46.46967" lon="8.24585">
        <ele>1320</ele>
        <time>2020-10-24T13:24:49.137Z</time>
      </trkpt>
      <trkpt lat="46.46967" lon="8.24583">
        <ele>1320</ele>
        <time>2020-10-24T13:24:50.138Z</time>
      </trkpt>
      <trkpt lat="46.46967" lon="8.2458">
        <ele>1320</ele>
        <time>2020-10-24T13:24:51.138Z</time>
      </trkpt>
      <trkpt lat="46.46968" lon="8.24578">
        <ele>1320</ele>
        <time>2020-10-24T13:24:52.137Z</time>
      </trkpt>
      <trkpt lat="46.46968" lon="8.24576">
        <ele>1319</ele>
        <time>2020-10-24T13:24:53.137Z</time>
      </trkpt>
      <trkpt lat="46.46967" lon="8.24574">
        <ele>1319</ele>
        <time>2020-10-24T13:24:54.138Z</time>
      </trkpt>
      <trkpt lat="46.46967" lon="8.24573">
        <ele>1319</ele>
        <time>2020-10-24T13:24:55.138Z</time>
      </trkpt>
      <trkpt lat="46.46967" lon="8.24571">
        <ele>1318</ele>
        <time>2020-10-24T13:24:56.137Z</time>
      </trkpt>
      <trkpt lat="46.46966" lon="8.2457">
        <ele>1318</ele>
        <time>2020-10-24T13:24:57.138Z</time>
      </trkpt>
      <trkpt lat="46.46966" lon="8.24568">
        <ele>1317</ele>
        <time>2020-10-24T13:24:58.138Z</time>
      </trkpt>
      <trkpt lat="46.46966" lon="8.24567">
        <ele>1317</ele>
        <time>2020-10-24T13:24:59.138Z</time>
      </trkpt>
      <trkpt lat="46.46965" lon="8.24565">
        <ele>1317</ele>
        <time>2020-10-24T13:25:00.138Z</time>
      </trkpt>
      <trkpt lat="46.46965" lon="8.24563">
        <ele>1317</ele>
        <time>2020-10-24T13:25:01.137Z</time>
      </trkpt>
      <trkpt lat="46.46964" lon="8.24563">
        <ele>1317</ele>
        <time>2020-10-24T13:25:02.137Z</time>
      </trkpt>
      <trkpt lat="46.46964" lon="8.24562">
        <ele>1317</ele>
        <time>2020-10-24T13:25:03.137Z</time>
      </trkpt>
      <trkpt lat="46.46963" lon="8.2456">
        <ele>1318</ele>
        <time>2020-10-24T13:25:04.137Z</time>
      </trkpt>
      <trkpt lat="46.46962" lon="8.24559">
        <ele>1318</ele>
        <time>2020-10-24T13:25:05.138Z</time>
      </trkpt>
      <trkpt lat="46.46962" lon="8.24556">
        <ele>1318</ele>
        <time>2020-10-24T13:25:06.137Z</time>
      </trkpt>
      <trkpt lat="46.46962" lon="8.24553">
        <ele>1318</ele>
        <time>2020-10-24T13:25:07.137Z</time>
      </trkpt>
      <trkpt lat="46.46962" lon="8.24551">
        <ele>1318</ele>
        <time>2020-10-24T13:25:08.138Z</time>
      </trkpt>
      <trkpt lat="46.46963" lon="8.24548">
        <ele>1318</ele>
        <time>2020-10-24T13:25:09.138Z</time>
      </trkpt>
      <trkpt lat="46.46962" lon="8.24546">
        <ele>1318</ele>
        <time>2020-10-24T13:25:10.137Z</time>
      </trkpt>
      <trkpt lat="46.46962" lon="8.24544">
        <ele>1318</ele>
        <time>2020-10-24T13:25:11.137Z</time>
      </trkpt>
      <trkpt lat="46.46962" lon="8.24543">
        <ele>1317</ele>
        <time>2020-10-24T13:25:12.138Z</time>
      </trkpt>
      <trkpt lat="46.46961" lon="8.24541">
        <ele>1317</ele>
        <time>2020-10-24T13:25:13.137Z</time>
      </trkpt>
      <trkpt lat="46.46961" lon="8.24539">
        <ele>1317</ele>
        <time>2020-10-24T13:25:14.137Z</time>
      </trkpt>
      <trkpt lat="46.46961" lon="8.24538">
        <ele>1317</ele>
        <time>2020-10-24T13:25:15.138Z</time>
      </trkpt>
      <trkpt lat="46.4696" lon="8.24536">
        <ele>1317</ele>
        <time>2020-10-24T13:25:16.137Z</time>
      </trkpt>
      <trkpt lat="46.4696" lon="8.24534">
        <ele>1317</ele>
        <time>2020-10-24T13:25:17.137Z</time>
      </trkpt>
      <trkpt lat="46.46959" lon="8.24533">
        <ele>1317</ele>
        <time>2020-10-24T13:25:18.137Z</time>
      </trkpt>
      <trkpt lat="46.46959" lon="8.24531">
        <ele>1316</ele>
        <time>2020-10-24T13:25:19.138Z</time>
      </trkpt>
      <trkpt lat="46.46959" lon="8.24529">
        <ele>1316</ele>
        <time>2020-10-24T13:25:20.138Z</time>
      </trkpt>
      <trkpt lat="46.46959" lon="8.24528">
        <ele>1317</ele>
        <time>2020-10-24T13:25:21.137Z</time>
      </trkpt>
      <trkpt lat="46.46958" lon="8.24526">
        <ele>1317</ele>
        <time>2020-10-24T13:25:22.138Z</time>
      </trkpt>
      <trkpt lat="46.46958" lon="8.24525">
        <ele>1317</ele>
        <time>2020-10-24T13:25:23.137Z</time>
      </trkpt>
      <trkpt lat="46.46957" lon="8.24524">
        <ele>1318</ele>
        <time>2020-10-24T13:25:24.138Z</time>
      </trkpt>
      <trkpt lat="46.46957" lon="8.24522">
        <ele>1318</ele>
        <time>2020-10-24T13:25:25.138Z</time>
      </trkpt>
      <trkpt lat="46.46956" lon="8.24521">
        <ele>1318</ele>
        <time>2020-10-24T13:25:26.138Z</time>
      </trkpt>
      <trkpt lat="46.46956" lon="8.24519">
        <ele>1319</ele>
        <time>2020-10-24T13:25:27.138Z</time>
      </trkpt>
      <trkpt lat="46.46956" lon="8.24517">
        <ele>1319</ele>
        <time>2020-10-24T13:25:28.137Z</time>
      </trkpt>
      <trkpt lat="46.46956" lon="8.24516">
        <ele>1319</ele>
        <time>2020-10-24T13:25:29.138Z</time>
      </trkpt>
      <trkpt lat="46.46956" lon="8.24514">
        <ele>1319</ele>
        <time>2020-10-24T13:25:30.138Z</time>
      </trkpt>
      <trkpt lat="46.46955" lon="8.24512">
        <ele>1318</ele>
        <time>2020-10-24T13:25:31.137Z</time>
      </trkpt>
      <trkpt lat="46.46955" lon="8.2451">
        <ele>1318</ele>
        <time>2020-10-24T13:25:32.138Z</time>
      </trkpt>
      <trkpt lat="46.46954" lon="8.24508">
        <ele>1318</ele>
        <time>2020-10-24T13:25:33.137Z</time>
      </trkpt>
      <trkpt lat="46.46954" lon="8.24507">
        <ele>1318</ele>
        <time>2020-10-24T13:25:34.137Z</time>
      </trkpt>
      <trkpt lat="46.46954" lon="8.24505">
        <ele>1319</ele>
        <time>2020-10-24T13:25:35.137Z</time>
      </trkpt>
      <trkpt lat="46.46953" lon="8.24502">
        <ele>1319</ele>
        <time>2020-10-24T13:25:36.137Z</time>
      </trkpt>
      <trkpt lat="46.46953" lon="8.245">
        <ele>1319</ele>
        <time>2020-10-24T13:25:37.138Z</time>
      </trkpt>
      <trkpt lat="46.46953" lon="8.24499">
        <ele>1319</ele>
        <time>2020-10-24T13:25:38.137Z</time>
      </trkpt>
      <trkpt lat="46.46953" lon="8.24498">
        <ele>1320</ele>
        <time>2020-10-24T13:25:39.137Z</time>
      </trkpt>
      <trkpt lat="46.46954" lon="8.24496">
        <ele>1320</ele>
        <time>2020-10-24T13:25:40.138Z</time>
      </trkpt>
      <trkpt lat="46.46954" lon="8.24495">
        <ele>1320</ele>
        <time>2020-10-24T13:25:41.137Z</time>
      </trkpt>
      <trkpt lat="46.46955" lon="8.24494">
        <ele>1320</ele>
        <time>2020-10-24T13:25:42.137Z</time>
      </trkpt>
      <trkpt lat="46.46956" lon="8.24493">
        <ele>1320</ele>
        <time>2020-10-24T13:25:43.137Z</time>
      </trkpt>
      <trkpt lat="46.46956" lon="8.24493">
        <ele>1320</ele>
        <time>2020-10-24T13:25:44.138Z</time>
      </trkpt>
      <trkpt lat="46.46957" lon="8.24492">
        <ele>1320</ele>
        <time>2020-10-24T13:25:45.138Z</time>
      </trkpt>
      <trkpt lat="46.46957" lon="8.24491">
        <ele>1320</ele>
        <time>2020-10-24T13:25:46.138Z</time>
      </trkpt>
      <trkpt lat="46.46957" lon="8.24489">
        <ele>1320</ele>
        <time>2020-10-24T13:25:47.138Z</time>
      </trkpt>
      <trkpt lat="46.46957" lon="8.24488">
        <ele>1320</ele>
        <time>2020-10-24T13:25:48.138Z</time>
      </trkpt>
      <trkpt lat="46.46958" lon="8.24486">
        <ele>1320</ele>
        <time>2020-10-24T13:25:49.138Z</time>
      </trkpt>
      <trkpt lat="46.46958" lon="8.24485">
        <ele>1320</ele>
        <time>2020-10-24T13:25:50.138Z</time>
      </trkpt>
      <trkpt lat="46.46958" lon="8.24484">
        <ele>1320</ele>
        <time>2020-10-24T13:25:51.138Z</time>
      </trkpt>
      <trkpt lat="46.46957" lon="8.24483">
        <ele>1319</ele>
        <time>2020-10-24T13:25:52.138Z</time>
      </trkpt>
      <trkpt lat="46.46957" lon="8.2448">
        <ele>1319</ele>
        <time>2020-10-24T13:25:53.138Z</time>
      </trkpt>
      <trkpt lat="46.46956" lon="8.24478">
        <ele>1318</ele>
        <time>2020-10-24T13:25:54.138Z</time>
      </trkpt>
      <trkpt lat="46.46957" lon="8.24475">
        <ele>1318</ele>
        <time>2020-10-24T13:25:55.138Z</time>
      </trkpt>
      <trkpt lat="46.46958" lon="8.24474">
        <ele>1318</ele>
        <time>2020-10-24T13:25:56.138Z</time>
      </trkpt>
      <trkpt lat="46.46958" lon="8.24471">
        <ele>1318</ele>
        <time>2020-10-24T13:25:57.138Z</time>
      </trkpt>
      <trkpt lat="46.46958" lon="8.24469">
        <ele>1317</ele>
        <time>2020-10-24T13:25:58.138Z</time>
      </trkpt>
      <trkpt lat="46.46958" lon="8.24467">
        <ele>1318</ele>
        <time>2020-10-24T13:25:59.138Z</time>
      </trkpt>
      <trkpt lat="46.46957" lon="8.24465">
        <ele>1317</ele>
        <time>2020-10-24T13:26:00.138Z</time>
      </trkpt>
      <trkpt lat="46.46957" lon="8.24463">
        <ele>1317</ele>
        <time>2020-10-24T13:26:01.137Z</time>
      </trkpt>
      <trkpt lat="46.46956" lon="8.24461">
        <ele>1318</ele>
        <time>2020-10-24T13:26:02.137Z</time>
      </trkpt>
      <trkpt lat="46.46956" lon="8.24458">
        <ele>1318</ele>
        <time>2020-10-24T13:26:03.138Z</time>
      </trkpt>
      <trkpt lat="46.46955" lon="8.24456">
        <ele>1318</ele>
        <time>2020-10-24T13:26:04.138Z</time>
      </trkpt>
      <trkpt lat="46.46954" lon="8.24455">
        <ele>1318</ele>
        <time>2020-10-24T13:26:05.138Z</time>
      </trkpt>
      <trkpt lat="46.46953" lon="8.24454">
        <ele>1318</ele>
        <time>2020-10-24T13:26:06.137Z</time>
      </trkpt>
      <trkpt lat="46.46952" lon="8.24452">
        <ele>1319</ele>
        <time>2020-10-24T13:26:07.138Z</time>
      </trkpt>
      <trkpt lat="46.46952" lon="8.2445">
        <ele>1319</ele>
        <time>2020-10-24T13:26:08.137Z</time>
      </trkpt>
      <trkpt lat="46.46951" lon="8.24449">
        <ele>1319</ele>
        <time>2020-10-24T13:26:09.138Z</time>
      </trkpt>
      <trkpt lat="46.46951" lon="8.24447">
        <ele>1319</ele>
        <time>2020-10-24T13:26:10.138Z</time>
      </trkpt>
      <trkpt lat="46.46951" lon="8.24446">
        <ele>1319</ele>
        <time>2020-10-24T13:26:11.138Z</time>
      </trkpt>
      <trkpt lat="46.46951" lon="8.24444">
        <ele>1319</ele>
        <time>2020-10-24T13:26:12.137Z</time>
      </trkpt>
      <trkpt lat="46.4695" lon="8.24442">
        <ele>1319</ele>
        <time>2020-10-24T13:26:13.138Z</time>
      </trkpt>
      <trkpt lat="46.4695" lon="8.24439">
        <ele>1320</ele>
        <time>2020-10-24T13:26:14.138Z</time>
      </trkpt>
      <trkpt lat="46.46949" lon="8.24437">
        <ele>1320</ele>
        <time>2020-10-24T13:26:15.138Z</time>
      </trkpt>
      <trkpt lat="46.46949" lon="8.24436">
        <ele>1320</ele>
        <time>2020-10-24T13:26:16.138Z</time>
      </trkpt>
      <trkpt lat="46.46949" lon="8.24434">
        <ele>1319</ele>
        <time>2020-10-24T13:26:17.138Z</time>
      </trkpt>
      <trkpt lat="46.46948" lon="8.24432">
        <ele>1318</ele>
        <time>2020-10-24T13:26:18.137Z</time>
      </trkpt>
      <trkpt lat="46.46947" lon="8.24431">
        <ele>1318</ele>
        <time>2020-10-24T13:26:19.138Z</time>
      </trkpt>
      <trkpt lat="46.46946" lon="8.24429">
        <ele>1317</ele>
        <time>2020-10-24T13:26:20.138Z</time>
      </trkpt>
      <trkpt lat="46.46945" lon="8.24428">
        <ele>1317</ele>
        <time>2020-10-24T13:26:21.138Z</time>
      </trkpt>
      <trkpt lat="46.46945" lon="8.24427">
        <ele>1316</ele>
        <time>2020-10-24T13:26:22.138Z</time>
      </trkpt>
      <trkpt lat="46.46944" lon="8.24426">
        <ele>1316</ele>
        <time>2020-10-24T13:26:23.138Z</time>
      </trkpt>
      <trkpt lat="46.46943" lon="8.24424">
        <ele>1316</ele>
        <time>2020-10-24T13:26:24.137Z</time>
      </trkpt>
      <trkpt lat="46.46943" lon="8.24423">
        <ele>1316</ele>
        <time>2020-10-24T13:26:25.138Z</time>
      </trkpt>
      <trkpt lat="46.46942" lon="8.24422">
        <ele>1316</ele>
        <time>2020-10-24T13:26:26.137Z</time>
      </trkpt>
      <trkpt lat="46.46941" lon="8.24421">
        <ele>1316</ele>
        <time>2020-10-24T13:26:27.138Z</time>
      </trkpt>
      <trkpt lat="46.46941" lon="8.24418">
        <ele>1316</ele>
        <time>2020-10-24T13:26:28.138Z</time>
      </trkpt>
      <trkpt lat="46.46941" lon="8.24417">
        <ele>1316</ele>
        <time>2020-10-24T13:26:29.138Z</time>
      </trkpt>
      <trkpt lat="46.4694" lon="8.24415">
        <ele>1316</ele>
        <time>2020-10-24T13:26:30.138Z</time>
      </trkpt>
      <trkpt lat="46.46939" lon="8.24414">
        <ele>1316</ele>
        <time>2020-10-24T13:26:31.137Z</time>
      </trkpt>
      <trkpt lat="46.46939" lon="8.24412">
        <ele>1316</ele>
        <time>2020-10-24T13:26:32.138Z</time>
      </trkpt>
      <trkpt lat="46.46939" lon="8.24411">
        <ele>1315</ele>
        <time>2020-10-24T13:26:33.138Z</time>
      </trkpt>
      <trkpt lat="46.46938" lon="8.24409">
        <ele>1315</ele>
        <time>2020-10-24T13:26:34.138Z</time>
      </trkpt>
      <trkpt lat="46.46938" lon="8.24408">
        <ele>1315</ele>
        <time>2020-10-24T13:26:35.138Z</time>
      </trkpt>
      <trkpt lat="46.46937" lon="8.24406">
        <ele>1315</ele>
        <time>2020-10-24T13:26:36.137Z</time>
      </trkpt>
      <trkpt lat="46.46937" lon="8.24404">
        <ele>1316</ele>
        <time>2020-10-24T13:26:37.137Z</time>
      </trkpt>
      <trkpt lat="46.46936" lon="8.24403">
        <ele>1316</ele>
        <time>2020-10-24T13:26:38.138Z</time>
      </trkpt>
      <trkpt lat="46.46936" lon="8.24401">
        <ele>1316</ele>
        <time>2020-10-24T13:26:39.138Z</time>
      </trkpt>
      <trkpt lat="46.46936" lon="8.244">
        <ele>1317</ele>
        <time>2020-10-24T13:26:40.138Z</time>
      </trkpt>
      <trkpt lat="46.46935" lon="8.24398">
        <ele>1317</ele>
        <time>2020-10-24T13:26:41.138Z</time>
      </trkpt>
      <trkpt lat="46.46935" lon="8.24397">
        <ele>1317</ele>
        <time>2020-10-24T13:26:42.138Z</time>
      </trkpt>
      <trkpt lat="46.46934" lon="8.24395">
        <ele>1317</ele>
        <time>2020-10-24T13:26:43.138Z</time>
      </trkpt>
      <trkpt lat="46.46934" lon="8.24393">
        <ele>1318</ele>
        <time>2020-10-24T13:26:44.138Z</time>
      </trkpt>
      <trkpt lat="46.46933" lon="8.24392">
        <ele>1318</ele>
        <time>2020-10-24T13:26:45.138Z</time>
      </trkpt>
      <trkpt lat="46.46932" lon="8.2439">
        <ele>1319</ele>
        <time>2020-10-24T13:26:46.138Z</time>
      </trkpt>
      <trkpt lat="46.46932" lon="8.24388">
        <ele>1319</ele>
        <time>2020-10-24T13:26:47.138Z</time>
      </trkpt>
      <trkpt lat="46.46931" lon="8.24387">
        <ele>1319</ele>
        <time>2020-10-24T13:26:48.138Z</time>
      </trkpt>
      <trkpt lat="46.46931" lon="8.24385">
        <ele>1320</ele>
        <time>2020-10-24T13:26:49.137Z</time>
      </trkpt>
      <trkpt lat="46.4693" lon="8.24384">
        <ele>1320</ele>
        <time>2020-10-24T13:26:50.137Z</time>
      </trkpt>
      <trkpt lat="46.4693" lon="8.24383">
        <ele>1320</ele>
        <time>2020-10-24T13:26:51.138Z</time>
      </trkpt>
      <trkpt lat="46.46929" lon="8.24381">
        <ele>1320</ele>
        <time>2020-10-24T13:26:52.138Z</time>
      </trkpt>
      <trkpt lat="46.46928" lon="8.24379">
        <ele>1319</ele>
        <time>2020-10-24T13:26:53.138Z</time>
      </trkpt>
      <trkpt lat="46.46928" lon="8.24378">
        <ele>1319</ele>
        <time>2020-10-24T13:26:54.138Z</time>
      </trkpt>
      <trkpt lat="46.46927" lon="8.24376">
        <ele>1318</ele>
        <time>2020-10-24T13:26:55.138Z</time>
      </trkpt>
      <trkpt lat="46.46927" lon="8.24374">
        <ele>1318</ele>
        <time>2020-10-24T13:26:56.138Z</time>
      </trkpt>
      <trkpt lat="46.46927" lon="8.24373">
        <ele>1317</ele>
        <time>2020-10-24T13:26:57.138Z</time>
      </trkpt>
      <trkpt lat="46.46926" lon="8.24371">
        <ele>1317</ele>
        <time>2020-10-24T13:26:58.138Z</time>
      </trkpt>
      <trkpt lat="46.46926" lon="8.24369">
        <ele>1317</ele>
        <time>2020-10-24T13:26:59.138Z</time>
      </trkpt>
      <trkpt lat="46.46927" lon="8.24368">
        <ele>1317</ele>
        <time>2020-10-24T13:27:00.137Z</time>
      </trkpt>
      <trkpt lat="46.46927" lon="8.24366">
        <ele>1317</ele>
        <time>2020-10-24T13:27:01.138Z</time>
      </trkpt>
      <trkpt lat="46.46927" lon="8.24365">
        <ele>1317</ele>
        <time>2020-10-24T13:27:02.138Z</time>
      </trkpt>
      <trkpt lat="46.46927" lon="8.24363">
        <ele>1317</ele>
        <time>2020-10-24T13:27:03.138Z</time>
      </trkpt>
      <trkpt lat="46.46927" lon="8.24362">
        <ele>1317</ele>
        <time>2020-10-24T13:27:04.138Z</time>
      </trkpt>
      <trkpt lat="46.46927" lon="8.2436">
        <ele>1317</ele>
        <time>2020-10-24T13:27:05.138Z</time>
      </trkpt>
      <trkpt lat="46.46928" lon="8.24358">
        <ele>1317</ele>
        <time>2020-10-24T13:27:06.137Z</time>
      </trkpt>
      <trkpt lat="46.46929" lon="8.24356">
        <ele>1318</ele>
        <time>2020-10-24T13:27:07.137Z</time>
      </trkpt>
      <trkpt lat="46.46929" lon="8.24354">
        <ele>1318</ele>
        <time>2020-10-24T13:27:08.137Z</time>
      </trkpt>
      <trkpt lat="46.4693" lon="8.24352">
        <ele>1319</ele>
        <time>2020-10-24T13:27:09.138Z</time>
      </trkpt>
      <trkpt lat="46.4693" lon="8.24351">
        <ele>1320</ele>
        <time>2020-10-24T13:27:10.138Z</time>
      </trkpt>
      <trkpt lat="46.46931" lon="8.24349">
        <ele>1321</ele>
        <time>2020-10-24T13:27:11.138Z</time>
      </trkpt>
      <trkpt lat="46.46932" lon="8.24348">
        <ele>1321</ele>
        <time>2020-10-24T13:27:12.137Z</time>
      </trkpt>
      <trkpt lat="46.46932" lon="8.24346">
        <ele>1322</ele>
        <time>2020-10-24T13:27:13.138Z</time>
      </trkpt>
      <trkpt lat="46.46932" lon="8.24345">
        <ele>1322</ele>
        <time>2020-10-24T13:27:14.138Z</time>
      </trkpt>
      <trkpt lat="46.46933" lon="8.24343">
        <ele>1322</ele>
        <time>2020-10-24T13:27:15.138Z</time>
      </trkpt>
      <trkpt lat="46.46935" lon="8.24341">
        <ele>1322</ele>
        <time>2020-10-24T13:27:16.138Z</time>
      </trkpt>
      <trkpt lat="46.46935" lon="8.2434">
        <ele>1322</ele>
        <time>2020-10-24T13:27:17.137Z</time>
      </trkpt>
      <trkpt lat="46.46936" lon="8.24338">
        <ele>1322</ele>
        <time>2020-10-24T13:27:18.138Z</time>
      </trkpt>
      <trkpt lat="46.46936" lon="8.24337">
        <ele>1322</ele>
        <time>2020-10-24T13:27:19.137Z</time>
      </trkpt>
      <trkpt lat="46.46937" lon="8.24336">
        <ele>1323</ele>
        <time>2020-10-24T13:27:20.137Z</time>
      </trkpt>
      <trkpt lat="46.46937" lon="8.24334">
        <ele>1323</ele>
        <time>2020-10-24T13:27:21.137Z</time>
      </trkpt>
      <trkpt lat="46.46938" lon="8.24333">
        <ele>1323</ele>
        <time>2020-10-24T13:27:22.138Z</time>
      </trkpt>
      <trkpt lat="46.46938" lon="8.24332">
        <ele>1323</ele>
        <time>2020-10-24T13:27:23.137Z</time>
      </trkpt>
      <trkpt lat="46.46938" lon="8.24331">
        <ele>1323</ele>
        <time>2020-10-24T13:27:24.137Z</time>
      </trkpt>
      <trkpt lat="46.46939" lon="8.2433">
        <ele>1323</ele>
        <time>2020-10-24T13:27:25.137Z</time>
      </trkpt>
      <trkpt lat="46.46939" lon="8.24329">
        <ele>1323</ele>
        <time>2020-10-24T13:27:26.138Z</time>
      </trkpt>
      <trkpt lat="46.4694" lon="8.24328">
        <ele>1323</ele>
        <time>2020-10-24T13:27:27.138Z</time>
      </trkpt>
      <trkpt lat="46.4694" lon="8.24326">
        <ele>1322</ele>
        <time>2020-10-24T13:27:28.138Z</time>
      </trkpt>
      <trkpt lat="46.46941" lon="8.24324">
        <ele>1322</ele>
        <time>2020-10-24T13:27:29.138Z</time>
      </trkpt>
      <trkpt lat="46.46941" lon="8.24323">
        <ele>1321</ele>
        <time>2020-10-24T13:27:30.137Z</time>
      </trkpt>
      <trkpt lat="46.46941" lon="8.24322">
        <ele>1321</ele>
        <time>2020-10-24T13:27:31.138Z</time>
      </trkpt>
      <trkpt lat="46.46941" lon="8.24321">
        <ele>1321</ele>
        <time>2020-10-24T13:27:32.138Z</time>
      </trkpt>
      <trkpt lat="46.46942" lon="8.24319">
        <ele>1321</ele>
        <time>2020-10-24T13:27:33.138Z</time>
      </trkpt>
      <trkpt lat="46.46942" lon="8.24318">
        <ele>1321</ele>
        <time>2020-10-24T13:27:34.138Z</time>
      </trkpt>
      <trkpt lat="46.46942" lon="8.24317">
        <ele>1321</ele>
        <time>2020-10-24T13:27:35.137Z</time>
      </trkpt>
      <trkpt lat="46.46943" lon="8.24315">
        <ele>1321</ele>
        <time>2020-10-24T13:27:36.138Z</time>
      </trkpt>
      <trkpt lat="46.46943" lon="8.24313">
        <ele>1322</ele>
        <time>2020-10-24T13:27:37.137Z</time>
      </trkpt>
      <trkpt lat="46.46943" lon="8.24311">
        <ele>1322</ele>
        <time>2020-10-24T13:27:38.138Z</time>
      </trkpt>
      <trkpt lat="46.46943" lon="8.24309">
        <ele>1322</ele>
        <time>2020-10-24T13:27:39.138Z</time>
      </trkpt>
      <trkpt lat="46.46943" lon="8.24308">
        <ele>1322</ele>
        <time>2020-10-24T13:27:40.138Z</time>
      </trkpt>
      <trkpt lat="46.46943" lon="8.24306">
        <ele>1322</ele>
        <time>2020-10-24T13:27:41.138Z</time>
      </trkpt>
      <trkpt lat="46.46942" lon="8.24305">
        <ele>1322</ele>
        <time>2020-10-24T13:27:42.137Z</time>
      </trkpt>
      <trkpt lat="46.46942" lon="8.24303">
        <ele>1322</ele>
        <time>2020-10-24T13:27:43.137Z</time>
      </trkpt>
      <trkpt lat="46.46942" lon="8.24302">
        <ele>1321</ele>
        <time>2020-10-24T13:27:44.138Z</time>
      </trkpt>
      <trkpt lat="46.46942" lon="8.24301">
        <ele>1321</ele>
        <time>2020-10-24T13:27:45.138Z</time>
      </trkpt>
      <trkpt lat="46.46942" lon="8.243">
        <ele>1321</ele>
        <time>2020-10-24T13:27:46.138Z</time>
      </trkpt>
      <trkpt lat="46.46942" lon="8.24299">
        <ele>1322</ele>
        <time>2020-10-24T13:27:47.137Z</time>
      </trkpt>
      <trkpt lat="46.46942" lon="8.24298">
        <ele>1322</ele>
        <time>2020-10-24T13:27:48.138Z</time>
      </trkpt>
      <trkpt lat="46.46943" lon="8.24296">
        <ele>1322</ele>
        <time>2020-10-24T13:27:49.138Z</time>
      </trkpt>
      <trkpt lat="46.46944" lon="8.24295">
        <ele>1322</ele>
        <time>2020-10-24T13:27:50.138Z</time>
      </trkpt>
      <trkpt lat="46.46944" lon="8.24293">
        <ele>1322</ele>
        <time>2020-10-24T13:27:51.138Z</time>
      </trkpt>
      <trkpt lat="46.46944" lon="8.24292">
        <ele>1322</ele>
        <time>2020-10-24T13:27:52.138Z</time>
      </trkpt>
      <trkpt lat="46.46944" lon="8.24291">
        <ele>1323</ele>
        <time>2020-10-24T13:27:53.138Z</time>
      </trkpt>
      <trkpt lat="46.46945" lon="8.24289">
        <ele>1323</ele>
        <time>2020-10-24T13:27:54.138Z</time>
      </trkpt>
      <trkpt lat="46.46945" lon="8.24288">
        <ele>1323</ele>
        <time>2020-10-24T13:27:55.138Z</time>
      </trkpt>
      <trkpt lat="46.46946" lon="8.24286">
        <ele>1324</ele>
        <time>2020-10-24T13:27:56.137Z</time>
      </trkpt>
      <trkpt lat="46.46946" lon="8.24284">
        <ele>1324</ele>
        <time>2020-10-24T13:27:57.138Z</time>
      </trkpt>
      <trkpt lat="46.46947" lon="8.24282">
        <ele>1325</ele>
        <time>2020-10-24T13:27:58.138Z</time>
      </trkpt>
      <trkpt lat="46.46947" lon="8.2428">
        <ele>1325</ele>
        <time>2020-10-24T13:27:59.138Z</time>
      </trkpt>
      <trkpt lat="46.46948" lon="8.24278">
        <ele>1325</ele>
        <time>2020-10-24T13:28:00.138Z</time>
      </trkpt>
      <trkpt lat="46.46948" lon="8.24276">
        <ele>1326</ele>
        <time>2020-10-24T13:28:01.138Z</time>
      </trkpt>
      <trkpt lat="46.46949" lon="8.24275">
        <ele>1327</ele>
        <time>2020-10-24T13:28:02.137Z</time>
      </trkpt>
      <trkpt lat="46.46949" lon="8.24273">
        <ele>1328</ele>
        <time>2020-10-24T13:28:03.138Z</time>
      </trkpt>
      <trkpt lat="46.46949" lon="8.24272">
        <ele>1329</ele>
        <time>2020-10-24T13:28:04.138Z</time>
      </trkpt>
      <trkpt lat="46.46949" lon="8.2427">
        <ele>1330</ele>
        <time>2020-10-24T13:28:05.138Z</time>
      </trkpt>
      <trkpt lat="46.46949" lon="8.24269">
        <ele>1331</ele>
        <time>2020-10-24T13:28:06.138Z</time>
      </trkpt>
      <trkpt lat="46.46948" lon="8.24267">
        <ele>1332</ele>
        <time>2020-10-24T13:28:07.137Z</time>
      </trkpt>
      <trkpt lat="46.46947" lon="8.24266">
        <ele>1332</ele>
        <time>2020-10-24T13:28:08.137Z</time>
      </trkpt>
      <trkpt lat="46.46946" lon="8.24264">
        <ele>1331</ele>
        <time>2020-10-24T13:28:09.138Z</time>
      </trkpt>
      <trkpt lat="46.46945" lon="8.24263">
        <ele>1331</ele>
        <time>2020-10-24T13:28:10.138Z</time>
      </trkpt>
      <trkpt lat="46.46944" lon="8.24262">
        <ele>1330</ele>
        <time>2020-10-24T13:28:11.138Z</time>
      </trkpt>
      <trkpt lat="46.46944" lon="8.2426">
        <ele>1330</ele>
        <time>2020-10-24T13:28:12.138Z</time>
      </trkpt>
      <trkpt lat="46.46943" lon="8.24259">
        <ele>1330</ele>
        <time>2020-10-24T13:28:13.138Z</time>
      </trkpt>
      <trkpt lat="46.46943" lon="8.24258">
        <ele>1329</ele>
        <time>2020-10-24T13:28:14.138Z</time>
      </trkpt>
      <trkpt lat="46.46943" lon="8.24257">
        <ele>1329</ele>
        <time>2020-10-24T13:28:15.137Z</time>
      </trkpt>
      <trkpt lat="46.46943" lon="8.24255">
        <ele>1329</ele>
        <time>2020-10-24T13:28:16.138Z</time>
      </trkpt>
      <trkpt lat="46.46943" lon="8.24253">
        <ele>1329</ele>
        <time>2020-10-24T13:28:17.138Z</time>
      </trkpt>
      <trkpt lat="46.46943" lon="8.24251">
        <ele>1330</ele>
        <time>2020-10-24T13:28:18.137Z</time>
      </trkpt>
      <trkpt lat="46.46943" lon="8.2425">
        <ele>1330</ele>
        <time>2020-10-24T13:28:19.137Z</time>
      </trkpt>
      <trkpt lat="46.46943" lon="8.24249">
        <ele>1330</ele>
        <time>2020-10-24T13:28:20.137Z</time>
      </trkpt>
      <trkpt lat="46.46944" lon="8.24247">
        <ele>1330</ele>
        <time>2020-10-24T13:28:21.137Z</time>
      </trkpt>
      <trkpt lat="46.46944" lon="8.24246">
        <ele>1331</ele>
        <time>2020-10-24T13:28:22.138Z</time>
      </trkpt>
      <trkpt lat="46.46944" lon="8.24244">
        <ele>1331</ele>
        <time>2020-10-24T13:28:23.138Z</time>
      </trkpt>
      <trkpt lat="46.46945" lon="8.24243">
        <ele>1331</ele>
        <time>2020-10-24T13:28:24.138Z</time>
      </trkpt>
      <trkpt lat="46.46945" lon="8.24242">
        <ele>1331</ele>
        <time>2020-10-24T13:28:25.137Z</time>
      </trkpt>
      <trkpt lat="46.46945" lon="8.2424">
        <ele>1331</ele>
        <time>2020-10-24T13:28:26.137Z</time>
      </trkpt>
      <trkpt lat="46.46945" lon="8.24238">
        <ele>1330</ele>
        <time>2020-10-24T13:28:27.137Z</time>
      </trkpt>
      <trkpt lat="46.46945" lon="8.24237">
        <ele>1330</ele>
        <time>2020-10-24T13:28:28.137Z</time>
      </trkpt>
      <trkpt lat="46.46945" lon="8.24235">
        <ele>1329</ele>
        <time>2020-10-24T13:28:29.137Z</time>
      </trkpt>
      <trkpt lat="46.46945" lon="8.24234">
        <ele>1329</ele>
        <time>2020-10-24T13:28:30.138Z</time>
      </trkpt>
      <trkpt lat="46.46944" lon="8.24232">
        <ele>1329</ele>
        <time>2020-10-24T13:28:31.137Z</time>
      </trkpt>
      <trkpt lat="46.46944" lon="8.24231">
        <ele>1329</ele>
        <time>2020-10-24T13:28:32.137Z</time>
      </trkpt>
      <trkpt lat="46.46943" lon="8.2423">
        <ele>1329</ele>
        <time>2020-10-24T13:28:33.138Z</time>
      </trkpt>
      <trkpt lat="46.46943" lon="8.24228">
        <ele>1329</ele>
        <time>2020-10-24T13:28:34.137Z</time>
      </trkpt>
      <trkpt lat="46.46944" lon="8.24227">
        <ele>1329</ele>
        <time>2020-10-24T13:28:35.137Z</time>
      </trkpt>
      <trkpt lat="46.46943" lon="8.24225">
        <ele>1329</ele>
        <time>2020-10-24T13:28:36.137Z</time>
      </trkpt>
      <trkpt lat="46.46942" lon="8.24224">
        <ele>1329</ele>
        <time>2020-10-24T13:28:37.138Z</time>
      </trkpt>
      <trkpt lat="46.46941" lon="8.24223">
        <ele>1329</ele>
        <time>2020-10-24T13:28:38.138Z</time>
      </trkpt>
      <trkpt lat="46.4694" lon="8.24221">
        <ele>1329</ele>
        <time>2020-10-24T13:28:39.138Z</time>
      </trkpt>
      <trkpt lat="46.46938" lon="8.24219">
        <ele>1328</ele>
        <time>2020-10-24T13:28:40.138Z</time>
      </trkpt>
      <trkpt lat="46.46937" lon="8.24216">
        <ele>1328</ele>
        <time>2020-10-24T13:28:41.137Z</time>
      </trkpt>
      <trkpt lat="46.46936" lon="8.24215">
        <ele>1328</ele>
        <time>2020-10-24T13:28:42.138Z</time>
      </trkpt>
      <trkpt lat="46.46936" lon="8.24214">
        <ele>1328</ele>
        <time>2020-10-24T13:28:43.138Z</time>
      </trkpt>
      <trkpt lat="46.46935" lon="8.24213">
        <ele>1328</ele>
        <time>2020-10-24T13:28:44.138Z</time>
      </trkpt>
      <trkpt lat="46.46935" lon="8.24212">
        <ele>1328</ele>
        <time>2020-10-24T13:28:45.137Z</time>
      </trkpt>
      <trkpt lat="46.46935" lon="8.2421">
        <ele>1328</ele>
        <time>2020-10-24T13:28:46.137Z</time>
      </trkpt>
      <trkpt lat="46.46936" lon="8.24209">
        <ele>1328</ele>
        <time>2020-10-24T13:28:47.138Z</time>
      </trkpt>
      <trkpt lat="46.46937" lon="8.24207">
        <ele>1328</ele>
        <time>2020-10-24T13:28:48.138Z</time>
      </trkpt>
      <trkpt lat="46.46937" lon="8.24206">
        <ele>1328</ele>
        <time>2020-10-24T13:28:49.138Z</time>
      </trkpt>
      <trkpt lat="46.46937" lon="8.24204">
        <ele>1329</ele>
        <time>2020-10-24T13:28:50.137Z</time>
      </trkpt>
      <trkpt lat="46.46938" lon="8.24202">
        <ele>1330</ele>
        <time>2020-10-24T13:28:51.137Z</time>
      </trkpt>
      <trkpt lat="46.46939" lon="8.24201">
        <ele>1331</ele>
        <time>2020-10-24T13:28:52.137Z</time>
      </trkpt>
      <trkpt lat="46.4694" lon="8.24199">
        <ele>1331</ele>
        <time>2020-10-24T13:28:53.138Z</time>
      </trkpt>
      <trkpt lat="46.4694" lon="8.24199">
        <ele>1332</ele>
        <time>2020-10-24T13:28:54.138Z</time>
      </trkpt>
      <trkpt lat="46.4694" lon="8.24197">
        <ele>1332</ele>
        <time>2020-10-24T13:28:55.138Z</time>
      </trkpt>
      <trkpt lat="46.4694" lon="8.24196">
        <ele>1333</ele>
        <time>2020-10-24T13:28:56.138Z</time>
      </trkpt>
      <trkpt lat="46.4694" lon="8.24195">
        <ele>1333</ele>
        <time>2020-10-24T13:28:57.138Z</time>
      </trkpt>
      <trkpt lat="46.4694" lon="8.24193">
        <ele>1334</ele>
        <time>2020-10-24T13:28:58.138Z</time>
      </trkpt>
      <trkpt lat="46.4694" lon="8.24192">
        <ele>1334</ele>
        <time>2020-10-24T13:28:59.138Z</time>
      </trkpt>
      <trkpt lat="46.4694" lon="8.2419">
        <ele>1334</ele>
        <time>2020-10-24T13:29:00.137Z</time>
      </trkpt>
      <trkpt lat="46.4694" lon="8.24188">
        <ele>1335</ele>
        <time>2020-10-24T13:29:01.138Z</time>
      </trkpt>
      <trkpt lat="46.4694" lon="8.24187">
        <ele>1336</ele>
        <time>2020-10-24T13:29:02.138Z</time>
      </trkpt>
      <trkpt lat="46.46939" lon="8.24185">
        <ele>1336</ele>
        <time>2020-10-24T13:29:03.137Z</time>
      </trkpt>
      <trkpt lat="46.46939" lon="8.24183">
        <ele>1337</ele>
        <time>2020-10-24T13:29:04.138Z</time>
      </trkpt>
      <trkpt lat="46.46938" lon="8.24181">
        <ele>1337</ele>
        <time>2020-10-24T13:29:05.138Z</time>
      </trkpt>
      <trkpt lat="46.46937" lon="8.24179">
        <ele>1338</ele>
        <time>2020-10-24T13:29:06.138Z</time>
      </trkpt>
      <trkpt lat="46.46937" lon="8.24177">
        <ele>1338</ele>
        <time>2020-10-24T13:29:07.137Z</time>
      </trkpt>
      <trkpt lat="46.46936" lon="8.24175">
        <ele>1338</ele>
        <time>2020-10-24T13:29:08.138Z</time>
      </trkpt>
      <trkpt lat="46.46934" lon="8.24174">
        <ele>1338</ele>
        <time>2020-10-24T13:29:09.138Z</time>
      </trkpt>
      <trkpt lat="46.46932" lon="8.24173">
        <ele>1337</ele>
        <time>2020-10-24T13:29:10.137Z</time>
      </trkpt>
      <trkpt lat="46.46931" lon="8.24172">
        <ele>1335</ele>
        <time>2020-10-24T13:29:11.138Z</time>
      </trkpt>
      <trkpt lat="46.4693" lon="8.24171">
        <ele>1335</ele>
        <time>2020-10-24T13:29:12.138Z</time>
      </trkpt>
      <trkpt lat="46.4693" lon="8.24169">
        <ele>1334</ele>
        <time>2020-10-24T13:29:13.138Z</time>
      </trkpt>
      <trkpt lat="46.46929" lon="8.24168">
        <ele>1334</ele>
        <time>2020-10-24T13:29:14.138Z</time>
      </trkpt>
      <trkpt lat="46.46928" lon="8.24167">
        <ele>1333</ele>
        <time>2020-10-24T13:29:15.138Z</time>
      </trkpt>
      <trkpt lat="46.46927" lon="8.24166">
        <ele>1332</ele>
        <time>2020-10-24T13:29:16.137Z</time>
      </trkpt>
      <trkpt lat="46.46927" lon="8.24165">
        <ele>1332</ele>
        <time>2020-10-24T13:29:17.138Z</time>
      </trkpt>
      <trkpt lat="46.46926" lon="8.24165">
        <ele>1331</ele>
        <time>2020-10-24T13:29:18.138Z</time>
      </trkpt>
      <trkpt lat="46.46925" lon="8.24164">
        <ele>1331</ele>
        <time>2020-10-24T13:29:19.138Z</time>
      </trkpt>
      <trkpt lat="46.46924" lon="8.24163">
        <ele>1331</ele>
        <time>2020-10-24T13:29:20.138Z</time>
      </trkpt>
      <trkpt lat="46.46924" lon="8.24162">
        <ele>1331</ele>
        <time>2020-10-24T13:29:21.138Z</time>
      </trkpt>
      <trkpt lat="46.46923" lon="8.24161">
        <ele>1331</ele>
        <time>2020-10-24T13:29:22.138Z</time>
      </trkpt>
      <trkpt lat="46.46921" lon="8.2416">
        <ele>1331</ele>
        <time>2020-10-24T13:29:23.138Z</time>
      </trkpt>
      <trkpt lat="46.4692" lon="8.24159">
        <ele>1331</ele>
        <time>2020-10-24T13:29:24.138Z</time>
      </trkpt>
      <trkpt lat="46.46919" lon="8.24158">
        <ele>1331</ele>
        <time>2020-10-24T13:29:25.138Z</time>
      </trkpt>
      <trkpt lat="46.46918" lon="8.24158">
        <ele>1331</ele>
        <time>2020-10-24T13:29:26.138Z</time>
      </trkpt>
      <trkpt lat="46.46917" lon="8.24158">
        <ele>1331</ele>
        <time>2020-10-24T13:29:27.137Z</time>
      </trkpt>
      <trkpt lat="46.46916" lon="8.24157">
        <ele>1330</ele>
        <time>2020-10-24T13:29:28.137Z</time>
      </trkpt>
      <trkpt lat="46.46916" lon="8.24157">
        <ele>1330</ele>
        <time>2020-10-24T13:29:29.137Z</time>
      </trkpt>
      <trkpt lat="46.46915" lon="8.24156">
        <ele>1330</ele>
        <time>2020-10-24T13:29:30.137Z</time>
      </trkpt>
      <trkpt lat="46.46915" lon="8.24156">
        <ele>1331</ele>
        <time>2020-10-24T13:29:31.137Z</time>
      </trkpt>
      <trkpt lat="46.46915" lon="8.24157">
        <ele>1332</ele>
        <time>2020-10-24T13:29:32.138Z</time>
      </trkpt>
      <trkpt lat="46.46915" lon="8.24158">
        <ele>1328</ele>
        <time>2020-10-24T13:29:33.138Z</time>
      </trkpt>
      <trkpt lat="46.46915" lon="8.24158">
        <ele>1328</ele>
        <time>2020-10-24T13:29:34.138Z</time>
      </trkpt>
      <trkpt lat="46.46915" lon="8.24157">
        <ele>1328</ele>
        <time>2020-10-24T13:29:35.137Z</time>
      </trkpt>
      <trkpt lat="46.46914" lon="8.24156">
        <ele>1328</ele>
        <time>2020-10-24T13:29:36.138Z</time>
      </trkpt>
      <trkpt lat="46.46913" lon="8.24155">
        <ele>1327</ele>
        <time>2020-10-24T13:29:37.138Z</time>
      </trkpt>
      <trkpt lat="46.46913" lon="8.24155">
        <ele>1327</ele>
        <time>2020-10-24T13:29:38.138Z</time>
      </trkpt>
      <trkpt lat="46.46912" lon="8.24156">
        <ele>1327</ele>
        <time>2020-10-24T13:29:39.137Z</time>
      </trkpt>
      <trkpt lat="46.46911" lon="8.24156">
        <ele>1327</ele>
        <time>2020-10-24T13:29:40.137Z</time>
      </trkpt>
      <trkpt lat="46.4691" lon="8.24155">
        <ele>1327</ele>
        <time>2020-10-24T13:29:41.138Z</time>
      </trkpt>
      <trkpt lat="46.46909" lon="8.24155">
        <ele>1327</ele>
        <time>2020-10-24T13:29:42.138Z</time>
      </trkpt>
      <trkpt lat="46.46909" lon="8.24152">
        <ele>1328</ele>
        <time>2020-10-24T13:29:43.138Z</time>
      </trkpt>
      <trkpt lat="46.46908" lon="8.24147">
        <ele>1328</ele>
        <time>2020-10-24T13:29:44.137Z</time>
      </trkpt>
      <trkpt lat="46.46908" lon="8.24141">
        <ele>1328</ele>
        <time>2020-10-24T13:29:45.138Z</time>
      </trkpt>
      <trkpt lat="46.46907" lon="8.24136">
        <ele>1328</ele>
        <time>2020-10-24T13:29:46.138Z</time>
      </trkpt>
      <trkpt lat="46.46906" lon="8.24135">
        <ele>1328</ele>
        <time>2020-10-24T13:29:47.138Z</time>
      </trkpt>
      <trkpt lat="46.46905" lon="8.24135">
        <ele>1328</ele>
        <time>2020-10-24T13:29:48.138Z</time>
      </trkpt>
      <trkpt lat="46.46902" lon="8.24137">
        <ele>1328</ele>
        <time>2020-10-24T13:29:49.137Z</time>
      </trkpt>
      <trkpt lat="46.46901" lon="8.24138">
        <ele>1328</ele>
        <time>2020-10-24T13:29:50.138Z</time>
      </trkpt>
      <trkpt lat="46.46902" lon="8.24137">
        <ele>1329</ele>
        <time>2020-10-24T13:29:51.138Z</time>
      </trkpt>
      <trkpt lat="46.46903" lon="8.24137">
        <ele>1328</ele>
        <time>2020-10-24T13:29:52.138Z</time>
      </trkpt>
      <trkpt lat="46.46904" lon="8.24136">
        <ele>1328</ele>
        <time>2020-10-24T13:29:53.138Z</time>
      </trkpt>
      <trkpt lat="46.46905" lon="8.24137">
        <ele>1327</ele>
        <time>2020-10-24T13:29:54.138Z</time>
      </trkpt>
      <trkpt lat="46.46903" lon="8.24137">
        <ele>1327</ele>
        <time>2020-10-24T13:29:55.137Z</time>
      </trkpt>
      <trkpt lat="46.46903" lon="8.24137">
        <ele>1326</ele>
        <time>2020-10-24T13:29:56.137Z</time>
      </trkpt>
      <trkpt lat="46.46904" lon="8.24137">
        <ele>1325</ele>
        <time>2020-10-24T13:29:57.137Z</time>
      </trkpt>
      <trkpt lat="46.46905" lon="8.24136">
        <ele>1325</ele>
        <time>2020-10-24T13:29:58.137Z</time>
      </trkpt>
      <trkpt lat="46.46906" lon="8.24135">
        <ele>1325</ele>
        <time>2020-10-24T13:29:59.138Z</time>
      </trkpt>
      <trkpt lat="46.46907" lon="8.24134">
        <ele>1325</ele>
        <time>2020-10-24T13:30:00.138Z</time>
      </trkpt>
      <trkpt lat="46.46908" lon="8.24134">
        <ele>1325</ele>
        <time>2020-10-24T13:30:01.138Z</time>
      </trkpt>
      <trkpt lat="46.46908" lon="8.24136">
        <ele>1325</ele>
        <time>2020-10-24T13:30:02.137Z</time>
      </trkpt>
      <trkpt lat="46.46909" lon="8.24137">
        <ele>1326</ele>
        <time>2020-10-24T13:30:03.138Z</time>
      </trkpt>
      <trkpt lat="46.4691" lon="8.24137">
        <ele>1326</ele>
        <time>2020-10-24T13:30:04.138Z</time>
      </trkpt>
      <trkpt lat="46.46911" lon="8.24139">
        <ele>1327</ele>
        <time>2020-10-24T13:30:05.138Z</time>
      </trkpt>
      <trkpt lat="46.46911" lon="8.2414">
        <ele>1328</ele>
        <time>2020-10-24T13:30:06.137Z</time>
      </trkpt>
      <trkpt lat="46.46913" lon="8.24141">
        <ele>1332</ele>
        <time>2020-10-24T13:30:07.137Z</time>
      </trkpt>
      <trkpt lat="46.46913" lon="8.24141">
        <ele>1334</ele>
        <time>2020-10-24T13:30:08.138Z</time>
      </trkpt>
      <trkpt lat="46.46913" lon="8.24142">
        <ele>1335</ele>
        <time>2020-10-24T13:30:09.137Z</time>
      </trkpt>
      <trkpt lat="46.46912" lon="8.24143">
        <ele>1336</ele>
        <time>2020-10-24T13:30:10.137Z</time>
      </trkpt>
      <trkpt lat="46.46912" lon="8.24143">
        <ele>1337</ele>
        <time>2020-10-24T13:30:11.137Z</time>
      </trkpt>
      <trkpt lat="46.46911" lon="8.24144">
        <ele>1338</ele>
        <time>2020-10-24T13:30:12.138Z</time>
      </trkpt>
      <trkpt lat="46.46914" lon="8.24153">
        <ele>1341</ele>
        <time>2020-10-24T13:30:13.137Z</time>
      </trkpt>
      <trkpt lat="46.46915" lon="8.24154">
        <ele>1340</ele>
        <time>2020-10-24T13:30:14.138Z</time>
      </trkpt>
      <trkpt lat="46.46915" lon="8.24154">
        <ele>1340</ele>
        <time>2020-10-24T13:30:15.137Z</time>
      </trkpt>
      <trkpt lat="46.46914" lon="8.24155">
        <ele>1339</ele>
        <time>2020-10-24T13:30:16.138Z</time>
      </trkpt>
      <trkpt lat="46.46914" lon="8.24155">
        <ele>1339</ele>
        <time>2020-10-24T13:30:17.137Z</time>
      </trkpt>
      <trkpt lat="46.46913" lon="8.24155">
        <ele>1338</ele>
        <time>2020-10-24T13:30:18.140Z</time>
      </trkpt>
      <trkpt lat="46.46913" lon="8.24155">
        <ele>1337</ele>
        <time>2020-10-24T13:30:19.140Z</time>
      </trkpt>
      <trkpt lat="46.46914" lon="8.24153">
        <ele>1340</ele>
        <time>2020-10-24T13:30:20.140Z</time>
      </trkpt>
      <trkpt lat="46.46914" lon="8.24154">
        <ele>1340</ele>
        <time>2020-10-24T13:30:21.140Z</time>
      </trkpt>
      <trkpt lat="46.46914" lon="8.24154">
        <ele>1340</ele>
        <time>2020-10-24T13:30:22.139Z</time>
      </trkpt>
      <trkpt lat="46.46914" lon="8.24154">
        <ele>1339</ele>
        <time>2020-10-24T13:30:23.140Z</time>
      </trkpt>
      <trkpt lat="46.46913" lon="8.24155">
        <ele>1339</ele>
        <time>2020-10-24T13:30:24.140Z</time>
      </trkpt>
      <trkpt lat="46.46913" lon="8.24155">
        <ele>1338</ele>
        <time>2020-10-24T13:30:25.139Z</time>
      </trkpt>
      <trkpt lat="46.46913" lon="8.24155">
        <ele>1337</ele>
        <time>2020-10-24T13:30:26.139Z</time>
      </trkpt>
      <trkpt lat="46.46913" lon="8.24155">
        <ele>1336</ele>
        <time>2020-10-24T13:30:27.139Z</time>
      </trkpt>
      <trkpt lat="46.46912" lon="8.24157">
        <ele>1330</ele>
        <time>2020-10-24T13:30:28.139Z</time>
      </trkpt>
      <trkpt lat="46.46912" lon="8.24158">
        <ele>1330</ele>
        <time>2020-10-24T13:30:29.140Z</time>
      </trkpt>
      <trkpt lat="46.46913" lon="8.24159">
        <ele>1329</ele>
        <time>2020-10-24T13:30:30.139Z</time>
      </trkpt>
      <trkpt lat="46.46912" lon="8.24159">
        <ele>1328</ele>
        <time>2020-10-24T13:30:31.139Z</time>
      </trkpt>
      <trkpt lat="46.46913" lon="8.24159">
        <ele>1328</ele>
        <time>2020-10-24T13:30:32.139Z</time>
      </trkpt>
      <trkpt lat="46.46913" lon="8.24159">
        <ele>1329</ele>
        <time>2020-10-24T13:30:33.139Z</time>
      </trkpt>
      <trkpt lat="46.46913" lon="8.24159">
        <ele>1329</ele>
        <time>2020-10-24T13:30:34.139Z</time>
      </trkpt>
      <trkpt lat="46.46913" lon="8.24159">
        <ele>1329</ele>
        <time>2020-10-24T13:30:35.139Z</time>
      </trkpt>
      <trkpt lat="46.46912" lon="8.2416">
        <ele>1330</ele>
        <time>2020-10-24T13:30:36.140Z</time>
      </trkpt>
      <trkpt lat="46.46913" lon="8.2416">
        <ele>1331</ele>
        <time>2020-10-24T13:30:37.139Z</time>
      </trkpt>
      <trkpt lat="46.46913" lon="8.24161">
        <ele>1332</ele>
        <time>2020-10-24T13:30:38.140Z</time>
      </trkpt>
      <trkpt lat="46.46914" lon="8.2416">
        <ele>1333</ele>
        <time>2020-10-24T13:30:39.139Z</time>
      </trkpt>
      <trkpt lat="46.46918" lon="8.2416">
        <ele>1336</ele>
        <time>2020-10-24T13:30:40.139Z</time>
      </trkpt>
      <trkpt lat="46.46918" lon="8.24159">
        <ele>1337</ele>
        <time>2020-10-24T13:30:41.139Z</time>
      </trkpt>
      <trkpt lat="46.46915" lon="8.24156">
        <ele>1338</ele>
        <time>2020-10-24T13:30:42.139Z</time>
      </trkpt>
      <trkpt lat="46.46916" lon="8.24153">
        <ele>1338</ele>
        <time>2020-10-24T13:30:43.140Z</time>
      </trkpt>
      <trkpt lat="46.46918" lon="8.2415">
        <ele>1339</ele>
        <time>2020-10-24T13:30:44.140Z</time>
      </trkpt>
      <trkpt lat="46.46918" lon="8.2415">
        <ele>1341</ele>
        <time>2020-10-24T13:30:52.139Z</time>
      </trkpt>
      <trkpt lat="46.46916" lon="8.24151">
        <ele>1341</ele>
        <time>2020-10-24T13:30:53.140Z</time>
      </trkpt>
      <trkpt lat="46.46914" lon="8.24149">
        <ele>1341</ele>
        <time>2020-10-24T13:30:54.139Z</time>
      </trkpt>
      <trkpt lat="46.46913" lon="8.24145">
        <ele>1341</ele>
        <time>2020-10-24T13:30:55.139Z</time>
      </trkpt>
      <trkpt lat="46.46913" lon="8.24143">
        <ele>1341</ele>
        <time>2020-10-24T13:30:56.139Z</time>
      </trkpt>
      <trkpt lat="46.46912" lon="8.24142">
        <ele>1341</ele>
        <time>2020-10-24T13:30:57.139Z</time>
      </trkpt>
      <trkpt lat="46.46912" lon="8.24137">
        <ele>1341</ele>
        <time>2020-10-24T13:30:58.139Z</time>
      </trkpt>
      <trkpt lat="46.4691" lon="8.2413">
        <ele>1341</ele>
        <time>2020-10-24T13:30:59.139Z</time>
      </trkpt>
      <trkpt lat="46.4691" lon="8.24127">
        <ele>1341</ele>
        <time>2020-10-24T13:31:00.139Z</time>
      </trkpt>
      <trkpt lat="46.4691" lon="8.24122">
        <ele>1341</ele>
        <time>2020-10-24T13:31:01.140Z</time>
      </trkpt>
      <trkpt lat="46.46908" lon="8.24116">
        <ele>1340</ele>
        <time>2020-10-24T13:31:03.139Z</time>
      </trkpt>
      <trkpt lat="46.46908" lon="8.24113">
        <ele>1340</ele>
        <time>2020-10-24T13:31:04.139Z</time>
      </trkpt>
      <trkpt lat="46.46905" lon="8.24107">
        <ele>1340</ele>
        <time>2020-10-24T13:31:06.140Z</time>
      </trkpt>
      <trkpt lat="46.46905" lon="8.24108">
        <ele>1340</ele>
        <time>2020-10-24T13:31:08.139Z</time>
      </trkpt>
      <trkpt lat="46.4691" lon="8.24199">
        <ele>1332</ele>
        <time>2020-10-24T13:35:54.140Z</time>
      </trkpt>
      <trkpt lat="46.46911" lon="8.24196">
        <ele>1333</ele>
        <time>2020-10-24T13:35:56.139Z</time>
      </trkpt>
      <trkpt lat="46.46912" lon="8.24197">
        <ele>1335</ele>
        <time>2020-10-24T13:36:05.139Z</time>
      </trkpt>
      <trkpt lat="46.46913" lon="8.24199">
        <ele>1335</ele>
        <time>2020-10-24T13:36:07.139Z</time>
      </trkpt>
      <trkpt lat="46.46918" lon="8.24198">
        <ele>1330</ele>
        <time>2020-10-24T13:36:20.139Z</time>
      </trkpt>
      <trkpt lat="46.46918" lon="8.24197">
        <ele>1328</ele>
        <time>2020-10-24T13:36:21.140Z</time>
      </trkpt>
      <trkpt lat="46.46921" lon="8.24196">
        <ele>1319</ele>
        <time>2020-10-24T13:36:32.140Z</time>
      </trkpt>
      <trkpt lat="46.46909" lon="8.2418">
        <ele>1313</ele>
        <time>2020-10-24T13:36:46.139Z</time>
      </trkpt>
      <trkpt lat="46.46909" lon="8.24182">
        <ele>1313</ele>
        <time>2020-10-24T13:36:47.139Z</time>
      </trkpt>
      <trkpt lat="46.46909" lon="8.24183">
        <ele>1313</ele>
        <time>2020-10-24T13:36:48.140Z</time>
      </trkpt>
      <trkpt lat="46.46909" lon="8.24183">
        <ele>1313</ele>
        <time>2020-10-24T13:36:49.140Z</time>
      </trkpt>
      <trkpt lat="46.46909" lon="8.24184">
        <ele>1313</ele>
        <time>2020-10-24T13:36:50.139Z</time>
      </trkpt>
      <trkpt lat="46.46909" lon="8.24186">
        <ele>1313</ele>
        <time>2020-10-24T13:36:51.140Z</time>
      </trkpt>
      <trkpt lat="46.46909" lon="8.24186">
        <ele>1313</ele>
        <time>2020-10-24T13:36:52.140Z</time>
      </trkpt>
      <trkpt lat="46.46908" lon="8.24185">
        <ele>1313</ele>
        <time>2020-10-24T13:36:53.139Z</time>
      </trkpt>
      <trkpt lat="46.46908" lon="8.24184">
        <ele>1314</ele>
        <time>2020-10-24T13:36:54.140Z</time>
      </trkpt>
      <trkpt lat="46.46901" lon="8.24147">
        <ele>1315</ele>
        <time>2020-10-24T13:37:28.140Z</time>
      </trkpt>
      <trkpt lat="46.46899" lon="8.24143">
        <ele>1315</ele>
        <time>2020-10-24T13:37:29.139Z</time>
      </trkpt>
      <trkpt lat="46.469" lon="8.24151">
        <ele>1316</ele>
        <time>2020-10-24T13:37:30.140Z</time>
      </trkpt>
      <trkpt lat="46.46899" lon="8.2415">
        <ele>1317</ele>
        <time>2020-10-24T13:37:31.139Z</time>
      </trkpt>
      <trkpt lat="46.46898" lon="8.24152">
        <ele>1318</ele>
        <time>2020-10-24T13:37:32.140Z</time>
      </trkpt>
      <trkpt lat="46.46894" lon="8.24149">
        <ele>1321</ele>
        <time>2020-10-24T13:37:36.140Z</time>
      </trkpt>
      <trkpt lat="46.46896" lon="8.24151">
        <ele>1322</ele>
        <time>2020-10-24T13:37:37.139Z</time>
      </trkpt>
      <trkpt lat="46.46894" lon="8.24152">
        <ele>1323</ele>
        <time>2020-10-24T13:37:41.139Z</time>
      </trkpt>
      <trkpt lat="46.46893" lon="8.24148">
        <ele>1324</ele>
        <time>2020-10-24T13:37:42.140Z</time>
      </trkpt>
      <trkpt lat="46.46896" lon="8.24153">
        <ele>1325</ele>
        <time>2020-10-24T13:37:43.140Z</time>
      </trkpt>
      <trkpt lat="46.46895" lon="8.24153">
        <ele>1326</ele>
        <time>2020-10-24T13:37:44.139Z</time>
      </trkpt>
      <trkpt lat="46.46895" lon="8.24137">
        <ele>1327</ele>
        <time>2020-10-24T13:38:32.140Z</time>
      </trkpt>
      <trkpt lat="46.46918" lon="8.24193">
        <ele>1329</ele>
        <time>2020-10-24T13:38:35.140Z</time>
      </trkpt>
      <trkpt lat="46.46911" lon="8.24173">
        <ele>1331</ele>
        <time>2020-10-24T13:38:36.140Z</time>
      </trkpt>
      <trkpt lat="46.46908" lon="8.24164">
        <ele>1332</ele>
        <time>2020-10-24T13:38:37.139Z</time>
      </trkpt>
      <trkpt lat="46.46905" lon="8.24159">
        <ele>1334</ele>
        <time>2020-10-24T13:38:40.140Z</time>
      </trkpt>
      <trkpt lat="46.46905" lon="8.24159">
        <ele>1334</ele>
        <time>2020-10-24T13:38:41.140Z</time>
      </trkpt>
      <trkpt lat="46.46909" lon="8.24165">
        <ele>1336</ele>
        <time>2020-10-24T13:38:43.139Z</time>
      </trkpt>
      <trkpt lat="46.46909" lon="8.24166">
        <ele>1336</ele>
        <time>2020-10-24T13:38:44.140Z</time>
      </trkpt>
      <trkpt lat="46.46909" lon="8.24167">
        <ele>1337</ele>
        <time>2020-10-24T13:38:45.139Z</time>
      </trkpt>
      <trkpt lat="46.46909" lon="8.24166">
        <ele>1338</ele>
        <time>2020-10-24T13:38:46.140Z</time>
      </trkpt>
      <trkpt lat="46.46908" lon="8.24167">
        <ele>1339</ele>
        <time>2020-10-24T13:38:48.140Z</time>
      </trkpt>
      <trkpt lat="46.46907" lon="8.24166">
        <ele>1339</ele>
        <time>2020-10-24T13:38:49.140Z</time>
      </trkpt>
      <trkpt lat="46.46907" lon="8.24166">
        <ele>1340</ele>
        <time>2020-10-24T13:38:50.139Z</time>
      </trkpt>
      <trkpt lat="46.46895" lon="8.24131">
        <ele>1342</ele>
        <time>2020-10-24T13:39:10.140Z</time>
      </trkpt>
      <trkpt lat="46.46895" lon="8.24128">
        <ele>1343</ele>
        <time>2020-10-24T13:39:11.139Z</time>
      </trkpt>
      <trkpt lat="46.46894" lon="8.24122">
        <ele>1344</ele>
        <time>2020-10-24T13:39:12.140Z</time>
      </trkpt>
      <trkpt lat="46.46894" lon="8.24122">
        <ele>1344</ele>
        <time>2020-10-24T13:39:13.140Z</time>
      </trkpt>
      <trkpt lat="46.46895" lon="8.24125">
        <ele>1345</ele>
        <time>2020-10-24T13:39:14.140Z</time>
      </trkpt>
      <trkpt lat="46.46896" lon="8.24128">
        <ele>1345</ele>
        <time>2020-10-24T13:39:15.140Z</time>
      </trkpt>
      <trkpt lat="46.46897" lon="8.24129">
        <ele>1346</ele>
        <time>2020-10-24T13:39:16.139Z</time>
      </trkpt>
      <trkpt lat="46.46899" lon="8.24131">
        <ele>1346</ele>
        <time>2020-10-24T13:39:17.139Z</time>
      </trkpt>
      <trkpt lat="46.469" lon="8.24133">
        <ele>1346</ele>
        <time>2020-10-24T13:39:18.140Z</time>
      </trkpt>
      <trkpt lat="46.46902" lon="8.24135">
        <ele>1347</ele>
        <time>2020-10-24T13:39:19.139Z</time>
      </trkpt>
      <trkpt lat="46.46906" lon="8.24143">
        <ele>1347</ele>
        <time>2020-10-24T13:39:22.140Z</time>
      </trkpt>
      <trkpt lat="46.46909" lon="8.2415">
        <ele>1347</ele>
        <time>2020-10-24T13:39:26.140Z</time>
      </trkpt>
      <trkpt lat="46.46909" lon="8.24149">
        <ele>1347</ele>
        <time>2020-10-24T13:39:29.139Z</time>
      </trkpt>
      <trkpt lat="46.4691" lon="8.24152">
        <ele>1346</ele>
        <time>2020-10-24T13:39:30.140Z</time>
      </trkpt>
      <trkpt lat="46.4691" lon="8.24152">
        <ele>1346</ele>
        <time>2020-10-24T13:39:31.140Z</time>
      </trkpt>
      <trkpt lat="46.4691" lon="8.24154">
        <ele>1346</ele>
        <time>2020-10-24T13:39:32.140Z</time>
      </trkpt>
      <trkpt lat="46.4691" lon="8.24155">
        <ele>1346</ele>
        <time>2020-10-24T13:39:33.140Z</time>
      </trkpt>
      <trkpt lat="46.46909" lon="8.24155">
        <ele>1346</ele>
        <time>2020-10-24T13:39:34.140Z</time>
      </trkpt>
      <trkpt lat="46.46909" lon="8.24155">
        <ele>1346</ele>
        <time>2020-10-24T13:39:35.140Z</time>
      </trkpt>
      <trkpt lat="46.46908" lon="8.24154">
        <ele>1346</ele>
        <time>2020-10-24T13:39:36.140Z</time>
      </trkpt>
      <trkpt lat="46.46908" lon="8.24154">
        <ele>1346</ele>
        <time>2020-10-24T13:39:37.139Z</time>
      </trkpt>
      <trkpt lat="46.46908" lon="8.24153">
        <ele>1346</ele>
        <time>2020-10-24T13:39:38.139Z</time>
      </trkpt>
      <trkpt lat="46.46908" lon="8.24153">
        <ele>1346</ele>
        <time>2020-10-24T13:39:39.140Z</time>
      </trkpt>
      <trkpt lat="46.46908" lon="8.24155">
        <ele>1347</ele>
        <time>2020-10-24T13:39:40.139Z</time>
      </trkpt>
      <trkpt lat="46.46909" lon="8.24156">
        <ele>1347</ele>
        <time>2020-10-24T13:39:41.139Z</time>
      </trkpt>
      <trkpt lat="46.4691" lon="8.24157">
        <ele>1346</ele>
        <time>2020-10-24T13:39:42.139Z</time>
      </trkpt>
      <trkpt lat="46.4691" lon="8.24157">
        <ele>1346</ele>
        <time>2020-10-24T13:39:43.140Z</time>
      </trkpt>
      <trkpt lat="46.4691" lon="8.24157">
        <ele>1346</ele>
        <time>2020-10-24T13:39:44.140Z</time>
      </trkpt>
      <trkpt lat="46.4691" lon="8.24157">
        <ele>1346</ele>
        <time>2020-10-24T13:39:45.140Z</time>
      </trkpt>
      <trkpt lat="46.46911" lon="8.24157">
        <ele>1346</ele>
        <time>2020-10-24T13:39:46.140Z</time>
      </trkpt>
      <trkpt lat="46.46911" lon="8.24158">
        <ele>1346</ele>
        <time>2020-10-24T13:39:47.140Z</time>
      </trkpt>
      <trkpt lat="46.46912" lon="8.24159">
        <ele>1346</ele>
        <time>2020-10-24T13:39:48.139Z</time>
      </trkpt>
      <trkpt lat="46.4692" lon="8.24172">
        <ele>1350</ele>
        <time>2020-10-24T13:39:49.141Z</time>
      </trkpt>
      <trkpt lat="46.46921" lon="8.24173">
        <ele>1350</ele>
        <time>2020-10-24T13:39:50.141Z</time>
      </trkpt>
      <trkpt lat="46.4692" lon="8.24173">
        <ele>1351</ele>
        <time>2020-10-24T13:39:51.140Z</time>
      </trkpt>
      <trkpt lat="46.46915" lon="8.24161">
        <ele>1353</ele>
        <time>2020-10-24T13:39:52.141Z</time>
      </trkpt>
      <trkpt lat="46.46915" lon="8.24161">
        <ele>1352</ele>
        <time>2020-10-24T13:39:53.141Z</time>
      </trkpt>
      <trkpt lat="46.46916" lon="8.24162">
        <ele>1351</ele>
        <time>2020-10-24T13:39:54.141Z</time>
      </trkpt>
      <trkpt lat="46.46916" lon="8.24161">
        <ele>1351</ele>
        <time>2020-10-24T13:39:55.140Z</time>
      </trkpt>
      <trkpt lat="46.46916" lon="8.24161">
        <ele>1350</ele>
        <time>2020-10-24T13:39:56.141Z</time>
      </trkpt>
      <trkpt lat="46.46912" lon="8.24158">
        <ele>1345</ele>
        <time>2020-10-24T13:39:57.142Z</time>
      </trkpt>
      <trkpt lat="46.46912" lon="8.24157">
        <ele>1344</ele>
        <time>2020-10-24T13:39:58.142Z</time>
      </trkpt>
      <trkpt lat="46.46911" lon="8.24156">
        <ele>1344</ele>
        <time>2020-10-24T13:39:59.141Z</time>
      </trkpt>
      <trkpt lat="46.4691" lon="8.24155">
        <ele>1344</ele>
        <time>2020-10-24T13:40:00.141Z</time>
      </trkpt>
      <trkpt lat="46.46909" lon="8.24147">
        <ele>1344</ele>
        <time>2020-10-24T13:40:01.142Z</time>
      </trkpt>
      <trkpt lat="46.46909" lon="8.24146">
        <ele>1344</ele>
        <time>2020-10-24T13:40:02.142Z</time>
      </trkpt>
      <trkpt lat="46.46909" lon="8.24146">
        <ele>1344</ele>
        <time>2020-10-24T13:40:03.141Z</time>
      </trkpt>
      <trkpt lat="46.46909" lon="8.24146">
        <ele>1344</ele>
        <time>2020-10-24T13:40:04.142Z</time>
      </trkpt>
      <trkpt lat="46.46908" lon="8.24147">
        <ele>1345</ele>
        <time>2020-10-24T13:40:05.142Z</time>
      </trkpt>
      <trkpt lat="46.46908" lon="8.24147">
        <ele>1346</ele>
        <time>2020-10-24T13:40:06.142Z</time>
      </trkpt>
      <trkpt lat="46.46908" lon="8.24146">
        <ele>1346</ele>
        <time>2020-10-24T13:40:07.141Z</time>
      </trkpt>
      <trkpt lat="46.46909" lon="8.24143">
        <ele>1349</ele>
        <time>2020-10-24T13:40:08.141Z</time>
      </trkpt>
      <trkpt lat="46.46909" lon="8.24143">
        <ele>1349</ele>
        <time>2020-10-24T13:40:09.141Z</time>
      </trkpt>
      <trkpt lat="46.46912" lon="8.24145">
        <ele>1355</ele>
        <time>2020-10-24T13:40:10.141Z</time>
      </trkpt>
      <trkpt lat="46.46912" lon="8.24144">
        <ele>1355</ele>
        <time>2020-10-24T13:40:11.141Z</time>
      </trkpt>
      <trkpt lat="46.46912" lon="8.24143">
        <ele>1356</ele>
        <time>2020-10-24T13:40:12.141Z</time>
      </trkpt>
      <trkpt lat="46.46912" lon="8.24143">
        <ele>1357</ele>
        <time>2020-10-24T13:40:13.142Z</time>
      </trkpt>
      <trkpt lat="46.46914" lon="8.24141">
        <ele>1361</ele>
        <time>2020-10-24T13:40:14.141Z</time>
      </trkpt>
      <trkpt lat="46.46914" lon="8.2414">
        <ele>1362</ele>
        <time>2020-10-24T13:40:15.142Z</time>
      </trkpt>
      <trkpt lat="46.46914" lon="8.24139">
        <ele>1362</ele>
        <time>2020-10-24T13:40:16.141Z</time>
      </trkpt>
      <trkpt lat="46.46913" lon="8.24138">
        <ele>1363</ele>
        <time>2020-10-24T13:40:17.141Z</time>
      </trkpt>
      <trkpt lat="46.46913" lon="8.24136">
        <ele>1363</ele>
        <time>2020-10-24T13:40:18.142Z</time>
      </trkpt>
      <trkpt lat="46.46912" lon="8.24134">
        <ele>1364</ele>
        <time>2020-10-24T13:40:19.142Z</time>
      </trkpt>
      <trkpt lat="46.46911" lon="8.24132">
        <ele>1364</ele>
        <time>2020-10-24T13:40:20.142Z</time>
      </trkpt>
      <trkpt lat="46.4691" lon="8.24131">
        <ele>1364</ele>
        <time>2020-10-24T13:40:21.142Z</time>
      </trkpt>
      <trkpt lat="46.46909" lon="8.2413">
        <ele>1364</ele>
        <time>2020-10-24T13:40:22.141Z</time>
      </trkpt>
      <trkpt lat="46.46909" lon="8.2413">
        <ele>1363</ele>
        <time>2020-10-24T13:40:23.141Z</time>
      </trkpt>
      <trkpt lat="46.46908" lon="8.2413">
        <ele>1361</ele>
        <time>2020-10-24T13:40:24.142Z</time>
      </trkpt>
      <trkpt lat="46.46907" lon="8.24129">
        <ele>1359</ele>
        <time>2020-10-24T13:40:25.142Z</time>
      </trkpt>
      <trkpt lat="46.46906" lon="8.24128">
        <ele>1358</ele>
        <time>2020-10-24T13:40:26.142Z</time>
      </trkpt>
      <trkpt lat="46.46905" lon="8.24127">
        <ele>1357</ele>
        <time>2020-10-24T13:40:27.141Z</time>
      </trkpt>
      <trkpt lat="46.46904" lon="8.24126">
        <ele>1356</ele>
        <time>2020-10-24T13:40:28.141Z</time>
      </trkpt>
      <trkpt lat="46.46903" lon="8.24125">
        <ele>1355</ele>
        <time>2020-10-24T13:40:29.142Z</time>
      </trkpt>
      <trkpt lat="46.46902" lon="8.24124">
        <ele>1354</ele>
        <time>2020-10-24T13:40:30.141Z</time>
      </trkpt>
      <trkpt lat="46.46902" lon="8.24123">
        <ele>1353</ele>
        <time>2020-10-24T13:40:31.142Z</time>
      </trkpt>
      <trkpt lat="46.46901" lon="8.24121">
        <ele>1352</ele>
        <time>2020-10-24T13:40:32.141Z</time>
      </trkpt>
      <trkpt lat="46.469" lon="8.2412">
        <ele>1351</ele>
        <time>2020-10-24T13:40:33.142Z</time>
      </trkpt>
      <trkpt lat="46.469" lon="8.24119">
        <ele>1350</ele>
        <time>2020-10-24T13:40:34.142Z</time>
      </trkpt>
      <trkpt lat="46.46898" lon="8.24117">
        <ele>1349</ele>
        <time>2020-10-24T13:40:35.142Z</time>
      </trkpt>
      <trkpt lat="46.46897" lon="8.24116">
        <ele>1348</ele>
        <time>2020-10-24T13:40:36.142Z</time>
      </trkpt>
      <trkpt lat="46.46896" lon="8.24115">
        <ele>1347</ele>
        <time>2020-10-24T13:40:37.141Z</time>
      </trkpt>
      <trkpt lat="46.46895" lon="8.24116">
        <ele>1345</ele>
        <time>2020-10-24T13:40:38.142Z</time>
      </trkpt>
      <trkpt lat="46.46894" lon="8.24115">
        <ele>1344</ele>
        <time>2020-10-24T13:40:39.141Z</time>
      </trkpt>
      <trkpt lat="46.46892" lon="8.24114">
        <ele>1343</ele>
        <time>2020-10-24T13:40:40.142Z</time>
      </trkpt>
      <trkpt lat="46.46891" lon="8.24113">
        <ele>1342</ele>
        <time>2020-10-24T13:40:41.142Z</time>
      </trkpt>
      <trkpt lat="46.4689" lon="8.24113">
        <ele>1342</ele>
        <time>2020-10-24T13:40:42.141Z</time>
      </trkpt>
      <trkpt lat="46.46889" lon="8.24113">
        <ele>1341</ele>
        <time>2020-10-24T13:40:43.142Z</time>
      </trkpt>
      <trkpt lat="46.46888" lon="8.24113">
        <ele>1340</ele>
        <time>2020-10-24T13:40:44.142Z</time>
      </trkpt>
      <trkpt lat="46.46887" lon="8.24113">
        <ele>1340</ele>
        <time>2020-10-24T13:40:45.142Z</time>
      </trkpt>
      <trkpt lat="46.46887" lon="8.24113">
        <ele>1340</ele>
        <time>2020-10-24T13:40:46.141Z</time>
      </trkpt>
      <trkpt lat="46.46886" lon="8.24113">
        <ele>1339</ele>
        <time>2020-10-24T13:40:47.142Z</time>
      </trkpt>
      <trkpt lat="46.46886" lon="8.24112">
        <ele>1339</ele>
        <time>2020-10-24T13:40:48.142Z</time>
      </trkpt>
      <trkpt lat="46.46886" lon="8.2411">
        <ele>1339</ele>
        <time>2020-10-24T13:40:49.142Z</time>
      </trkpt>
      <trkpt lat="46.46885" lon="8.24106">
        <ele>1338</ele>
        <time>2020-10-24T13:40:50.142Z</time>
      </trkpt>
      <trkpt lat="46.46884" lon="8.24102">
        <ele>1338</ele>
        <time>2020-10-24T13:40:51.141Z</time>
      </trkpt>
      <trkpt lat="46.46884" lon="8.241">
        <ele>1337</ele>
        <time>2020-10-24T13:40:52.142Z</time>
      </trkpt>
      <trkpt lat="46.46883" lon="8.241">
        <ele>1336</ele>
        <time>2020-10-24T13:40:53.142Z</time>
      </trkpt>
      <trkpt lat="46.46882" lon="8.241">
        <ele>1335</ele>
        <time>2020-10-24T13:40:54.142Z</time>
      </trkpt>
      <trkpt lat="46.46881" lon="8.241">
        <ele>1335</ele>
        <time>2020-10-24T13:40:55.142Z</time>
      </trkpt>
      <trkpt lat="46.46879" lon="8.241">
        <ele>1334</ele>
        <time>2020-10-24T13:40:56.141Z</time>
      </trkpt>
      <trkpt lat="46.46879" lon="8.241">
        <ele>1334</ele>
        <time>2020-10-24T13:40:57.142Z</time>
      </trkpt>
      <trkpt lat="46.46879" lon="8.24099">
        <ele>1333</ele>
        <time>2020-10-24T13:40:58.141Z</time>
      </trkpt>
      <trkpt lat="46.46879" lon="8.24099">
        <ele>1333</ele>
        <time>2020-10-24T13:40:59.141Z</time>
      </trkpt>
      <trkpt lat="46.46879" lon="8.241">
        <ele>1332</ele>
        <time>2020-10-24T13:41:00.141Z</time>
      </trkpt>
      <trkpt lat="46.46878" lon="8.241">
        <ele>1332</ele>
        <time>2020-10-24T13:41:01.141Z</time>
      </trkpt>
      <trkpt lat="46.46879" lon="8.241">
        <ele>1331</ele>
        <time>2020-10-24T13:41:02.142Z</time>
      </trkpt>
      <trkpt lat="46.4688" lon="8.241">
        <ele>1331</ele>
        <time>2020-10-24T13:41:03.141Z</time>
      </trkpt>
      <trkpt lat="46.4688" lon="8.241">
        <ele>1331</ele>
        <time>2020-10-24T13:41:04.141Z</time>
      </trkpt>
      <trkpt lat="46.46881" lon="8.24101">
        <ele>1331</ele>
        <time>2020-10-24T13:41:05.141Z</time>
      </trkpt>
      <trkpt lat="46.46882" lon="8.24102">
        <ele>1331</ele>
        <time>2020-10-24T13:41:06.141Z</time>
      </trkpt>
      <trkpt lat="46.46882" lon="8.24103">
        <ele>1331</ele>
        <time>2020-10-24T13:41:07.141Z</time>
      </trkpt>
      <trkpt lat="46.4689" lon="8.24108">
        <ele>1330</ele>
        <time>2020-10-24T13:41:10.143Z</time>
      </trkpt>
      <trkpt lat="46.46889" lon="8.24107">
        <ele>1329</ele>
        <time>2020-10-24T13:41:11.143Z</time>
      </trkpt>
      <trkpt lat="46.46887" lon="8.24106">
        <ele>1329</ele>
        <time>2020-10-24T13:41:12.142Z</time>
      </trkpt>
      <trkpt lat="46.46886" lon="8.24105">
        <ele>1329</ele>
        <time>2020-10-24T13:41:13.143Z</time>
      </trkpt>
      <trkpt lat="46.46886" lon="8.24105">
        <ele>1328</ele>
        <time>2020-10-24T13:41:15.143Z</time>
      </trkpt>
      <trkpt lat="46.46886" lon="8.24105">
        <ele>1327</ele>
        <time>2020-10-24T13:41:16.143Z</time>
      </trkpt>
      <trkpt lat="46.46886" lon="8.24105">
        <ele>1327</ele>
        <time>2020-10-24T13:41:17.143Z</time>
      </trkpt>
      <trkpt lat="46.46888" lon="8.24106">
        <ele>1327</ele>
        <time>2020-10-24T13:41:18.142Z</time>
      </trkpt>
      <trkpt lat="46.4689" lon="8.24107">
        <ele>1327</ele>
        <time>2020-10-24T13:41:19.143Z</time>
      </trkpt>
      <trkpt lat="46.46891" lon="8.24108">
        <ele>1327</ele>
        <time>2020-10-24T13:41:20.143Z</time>
      </trkpt>
      <trkpt lat="46.46892" lon="8.24109">
        <ele>1327</ele>
        <time>2020-10-24T13:41:21.143Z</time>
      </trkpt>
      <trkpt lat="46.46892" lon="8.24109">
        <ele>1327</ele>
        <time>2020-10-24T13:41:22.143Z</time>
      </trkpt>
      <trkpt lat="46.46892" lon="8.24111">
        <ele>1327</ele>
        <time>2020-10-24T13:41:23.143Z</time>
      </trkpt>
      <trkpt lat="46.46893" lon="8.24113">
        <ele>1327</ele>
        <time>2020-10-24T13:41:24.143Z</time>
      </trkpt>
      <trkpt lat="46.46894" lon="8.24114">
        <ele>1327</ele>
        <time>2020-10-24T13:41:25.142Z</time>
      </trkpt>
      <trkpt lat="46.46894" lon="8.24115">
        <ele>1327</ele>
        <time>2020-10-24T13:41:26.142Z</time>
      </trkpt>
      <trkpt lat="46.46895" lon="8.24116">
        <ele>1327</ele>
        <time>2020-10-24T13:41:27.143Z</time>
      </trkpt>
      <trkpt lat="46.46896" lon="8.24117">
        <ele>1328</ele>
        <time>2020-10-24T13:41:28.143Z</time>
      </trkpt>
      <trkpt lat="46.46897" lon="8.24118">
        <ele>1328</ele>
        <time>2020-10-24T13:41:29.142Z</time>
      </trkpt>
      <trkpt lat="46.46898" lon="8.24119">
        <ele>1328</ele>
        <time>2020-10-24T13:41:30.143Z</time>
      </trkpt>
      <trkpt lat="46.46899" lon="8.2412">
        <ele>1328</ele>
        <time>2020-10-24T13:41:31.142Z</time>
      </trkpt>
      <trkpt lat="46.469" lon="8.2412">
        <ele>1328</ele>
        <time>2020-10-24T13:41:32.143Z</time>
      </trkpt>
      <trkpt lat="46.46901" lon="8.24121">
        <ele>1328</ele>
        <time>2020-10-24T13:41:33.143Z</time>
      </trkpt>
      <trkpt lat="46.46902" lon="8.24121">
        <ele>1328</ele>
        <time>2020-10-24T13:41:34.143Z</time>
      </trkpt>
      <trkpt lat="46.46903" lon="8.24122">
        <ele>1328</ele>
        <time>2020-10-24T13:41:35.142Z</time>
      </trkpt>
      <trkpt lat="46.46906" lon="8.24123">
        <ele>1328</ele>
        <time>2020-10-24T13:41:36.143Z</time>
      </trkpt>
      <trkpt lat="46.46908" lon="8.24125">
        <ele>1328</ele>
        <time>2020-10-24T13:41:37.143Z</time>
      </trkpt>
      <trkpt lat="46.4691" lon="8.24127">
        <ele>1328</ele>
        <time>2020-10-24T13:41:38.142Z</time>
      </trkpt>
      <trkpt lat="46.46912" lon="8.2413">
        <ele>1328</ele>
        <time>2020-10-24T13:41:39.142Z</time>
      </trkpt>
      <trkpt lat="46.46914" lon="8.24131">
        <ele>1327</ele>
        <time>2020-10-24T13:41:40.142Z</time>
      </trkpt>
      <trkpt lat="46.46916" lon="8.24132">
        <ele>1327</ele>
        <time>2020-10-24T13:41:41.142Z</time>
      </trkpt>
      <trkpt lat="46.46917" lon="8.24132">
        <ele>1327</ele>
        <time>2020-10-24T13:41:42.143Z</time>
      </trkpt>
      <trkpt lat="46.46916" lon="8.24131">
        <ele>1327</ele>
        <time>2020-10-24T13:41:43.142Z</time>
      </trkpt>
      <trkpt lat="46.46914" lon="8.24132">
        <ele>1327</ele>
        <time>2020-10-24T13:41:44.142Z</time>
      </trkpt>
      <trkpt lat="46.46913" lon="8.24132">
        <ele>1327</ele>
        <time>2020-10-24T13:41:45.143Z</time>
      </trkpt>
      <trkpt lat="46.46914" lon="8.24132">
        <ele>1328</ele>
        <time>2020-10-24T13:41:46.142Z</time>
      </trkpt>
      <trkpt lat="46.46914" lon="8.24133">
        <ele>1329</ele>
        <time>2020-10-24T13:41:47.143Z</time>
      </trkpt>
      <trkpt lat="46.46915" lon="8.24133">
        <ele>1331</ele>
        <time>2020-10-24T13:41:48.143Z</time>
      </trkpt>
      <trkpt lat="46.46916" lon="8.24133">
        <ele>1332</ele>
        <time>2020-10-24T13:41:49.143Z</time>
      </trkpt>
      <trkpt lat="46.46917" lon="8.24134">
        <ele>1332</ele>
        <time>2020-10-24T13:41:50.142Z</time>
      </trkpt>
      <trkpt lat="46.46918" lon="8.24134">
        <ele>1333</ele>
        <time>2020-10-24T13:41:51.143Z</time>
      </trkpt>
      <trkpt lat="46.46918" lon="8.24135">
        <ele>1333</ele>
        <time>2020-10-24T13:41:52.142Z</time>
      </trkpt>
      <trkpt lat="46.46919" lon="8.24136">
        <ele>1333</ele>
        <time>2020-10-24T13:41:53.143Z</time>
      </trkpt>
      <trkpt lat="46.46921" lon="8.24136">
        <ele>1333</ele>
        <time>2020-10-24T13:41:54.143Z</time>
      </trkpt>
      <trkpt lat="46.46922" lon="8.24137">
        <ele>1333</ele>
        <time>2020-10-24T13:41:55.143Z</time>
      </trkpt>
      <trkpt lat="46.46923" lon="8.24138">
        <ele>1333</ele>
        <time>2020-10-24T13:41:56.143Z</time>
      </trkpt>
      <trkpt lat="46.46924" lon="8.24138">
        <ele>1333</ele>
        <time>2020-10-24T13:41:57.143Z</time>
      </trkpt>
      <trkpt lat="46.46925" lon="8.24139">
        <ele>1333</ele>
        <time>2020-10-24T13:41:58.143Z</time>
      </trkpt>
      <trkpt lat="46.46925" lon="8.2414">
        <ele>1333</ele>
        <time>2020-10-24T13:41:59.142Z</time>
      </trkpt>
      <trkpt lat="46.46925" lon="8.24141">
        <ele>1333</ele>
        <time>2020-10-24T13:42:00.143Z</time>
      </trkpt>
      <trkpt lat="46.46926" lon="8.24141">
        <ele>1334</ele>
        <time>2020-10-24T13:42:01.142Z</time>
      </trkpt>
      <trkpt lat="46.46925" lon="8.24142">
        <ele>1334</ele>
        <time>2020-10-24T13:42:02.143Z</time>
      </trkpt>
      <trkpt lat="46.46925" lon="8.24143">
        <ele>1334</ele>
        <time>2020-10-24T13:42:03.142Z</time>
      </trkpt>
      <trkpt lat="46.46926" lon="8.24144">
        <ele>1334</ele>
        <time>2020-10-24T13:42:04.142Z</time>
      </trkpt>
      <trkpt lat="46.46927" lon="8.24146">
        <ele>1334</ele>
        <time>2020-10-24T13:42:05.142Z</time>
      </trkpt>
      <trkpt lat="46.46928" lon="8.24146">
        <ele>1334</ele>
        <time>2020-10-24T13:42:06.142Z</time>
      </trkpt>
      <trkpt lat="46.46929" lon="8.24147">
        <ele>1334</ele>
        <time>2020-10-24T13:42:07.143Z</time>
      </trkpt>
      <trkpt lat="46.4693" lon="8.24147">
        <ele>1335</ele>
        <time>2020-10-24T13:42:08.143Z</time>
      </trkpt>
      <trkpt lat="46.46931" lon="8.24148">
        <ele>1335</ele>
        <time>2020-10-24T13:42:09.142Z</time>
      </trkpt>
      <trkpt lat="46.46932" lon="8.24149">
        <ele>1335</ele>
        <time>2020-10-24T13:42:10.142Z</time>
      </trkpt>
      <trkpt lat="46.46934" lon="8.2415">
        <ele>1336</ele>
        <time>2020-10-24T13:42:11.142Z</time>
      </trkpt>
      <trkpt lat="46.46935" lon="8.24151">
        <ele>1336</ele>
        <time>2020-10-24T13:42:12.143Z</time>
      </trkpt>
      <trkpt lat="46.46935" lon="8.24152">
        <ele>1336</ele>
        <time>2020-10-24T13:42:13.142Z</time>
      </trkpt>
      <trkpt lat="46.46936" lon="8.24152">
        <ele>1336</ele>
        <time>2020-10-24T13:42:14.142Z</time>
      </trkpt>
      <trkpt lat="46.46937" lon="8.24152">
        <ele>1335</ele>
        <time>2020-10-24T13:42:15.143Z</time>
      </trkpt>
      <trkpt lat="46.46938" lon="8.24153">
        <ele>1335</ele>
        <time>2020-10-24T13:42:16.142Z</time>
      </trkpt>
      <trkpt lat="46.46938" lon="8.24154">
        <ele>1334</ele>
        <time>2020-10-24T13:42:17.142Z</time>
      </trkpt>
      <trkpt lat="46.46939" lon="8.24156">
        <ele>1333</ele>
        <time>2020-10-24T13:42:18.143Z</time>
      </trkpt>
      <trkpt lat="46.46939" lon="8.24157">
        <ele>1333</ele>
        <time>2020-10-24T13:42:19.142Z</time>
      </trkpt>
      <trkpt lat="46.46939" lon="8.24159">
        <ele>1332</ele>
        <time>2020-10-24T13:42:20.142Z</time>
      </trkpt>
      <trkpt lat="46.46939" lon="8.2416">
        <ele>1331</ele>
        <time>2020-10-24T13:42:21.142Z</time>
      </trkpt>
      <trkpt lat="46.4694" lon="8.24162">
        <ele>1331</ele>
        <time>2020-10-24T13:42:22.142Z</time>
      </trkpt>
      <trkpt lat="46.46941" lon="8.24163">
        <ele>1331</ele>
        <time>2020-10-24T13:42:23.142Z</time>
      </trkpt>
      <trkpt lat="46.46941" lon="8.24164">
        <ele>1331</ele>
        <time>2020-10-24T13:42:24.142Z</time>
      </trkpt>
      <trkpt lat="46.46942" lon="8.24165">
        <ele>1330</ele>
        <time>2020-10-24T13:42:25.142Z</time>
      </trkpt>
      <trkpt lat="46.46942" lon="8.24167">
        <ele>1330</ele>
        <time>2020-10-24T13:42:26.143Z</time>
      </trkpt>
      <trkpt lat="46.46943" lon="8.24168">
        <ele>1330</ele>
        <time>2020-10-24T13:42:27.142Z</time>
      </trkpt>
      <trkpt lat="46.46943" lon="8.2417">
        <ele>1329</ele>
        <time>2020-10-24T13:42:28.142Z</time>
      </trkpt>
      <trkpt lat="46.46944" lon="8.2417">
        <ele>1329</ele>
        <time>2020-10-24T13:42:29.142Z</time>
      </trkpt>
      <trkpt lat="46.46946" lon="8.24171">
        <ele>1329</ele>
        <time>2020-10-24T13:42:30.142Z</time>
      </trkpt>
      <trkpt lat="46.46946" lon="8.24172">
        <ele>1328</ele>
        <time>2020-10-24T13:42:31.142Z</time>
      </trkpt>
      <trkpt lat="46.46947" lon="8.24173">
        <ele>1328</ele>
        <time>2020-10-24T13:42:32.143Z</time>
      </trkpt>
      <trkpt lat="46.46947" lon="8.24174">
        <ele>1327</ele>
        <time>2020-10-24T13:42:33.142Z</time>
      </trkpt>
      <trkpt lat="46.46947" lon="8.24176">
        <ele>1327</ele>
        <time>2020-10-24T13:42:34.142Z</time>
      </trkpt>
      <trkpt lat="46.46948" lon="8.24177">
        <ele>1326</ele>
        <time>2020-10-24T13:42:35.142Z</time>
      </trkpt>
      <trkpt lat="46.46949" lon="8.24178">
        <ele>1325</ele>
        <time>2020-10-24T13:42:36.142Z</time>
      </trkpt>
      <trkpt lat="46.46949" lon="8.24178">
        <ele>1325</ele>
        <time>2020-10-24T13:42:37.143Z</time>
      </trkpt>
      <trkpt lat="46.4695" lon="8.24177">
        <ele>1325</ele>
        <time>2020-10-24T13:42:38.143Z</time>
      </trkpt>
      <trkpt lat="46.4695" lon="8.24177">
        <ele>1325</ele>
        <time>2020-10-24T13:42:39.142Z</time>
      </trkpt>
      <trkpt lat="46.46951" lon="8.24176">
        <ele>1325</ele>
        <time>2020-10-24T13:42:40.142Z</time>
      </trkpt>
      <trkpt lat="46.46951" lon="8.24179">
        <ele>1324</ele>
        <time>2020-10-24T13:42:41.142Z</time>
      </trkpt>
      <trkpt lat="46.46951" lon="8.2418">
        <ele>1324</ele>
        <time>2020-10-24T13:42:42.142Z</time>
      </trkpt>
      <trkpt lat="46.46951" lon="8.24182">
        <ele>1324</ele>
        <time>2020-10-24T13:42:43.143Z</time>
      </trkpt>
      <trkpt lat="46.46951" lon="8.24182">
        <ele>1324</ele>
        <time>2020-10-24T13:42:44.142Z</time>
      </trkpt>
      <trkpt lat="46.46951" lon="8.24183">
        <ele>1324</ele>
        <time>2020-10-24T13:42:45.142Z</time>
      </trkpt>
      <trkpt lat="46.46952" lon="8.24184">
        <ele>1324</ele>
        <time>2020-10-24T13:42:46.142Z</time>
      </trkpt>
      <trkpt lat="46.46952" lon="8.24186">
        <ele>1325</ele>
        <time>2020-10-24T13:42:47.143Z</time>
      </trkpt>
      <trkpt lat="46.46952" lon="8.24187">
        <ele>1325</ele>
        <time>2020-10-24T13:42:48.143Z</time>
      </trkpt>
      <trkpt lat="46.46952" lon="8.24189">
        <ele>1325</ele>
        <time>2020-10-24T13:42:49.142Z</time>
      </trkpt>
      <trkpt lat="46.46953" lon="8.2419">
        <ele>1325</ele>
        <time>2020-10-24T13:42:50.142Z</time>
      </trkpt>
      <trkpt lat="46.46954" lon="8.24191">
        <ele>1325</ele>
        <time>2020-10-24T13:42:51.142Z</time>
      </trkpt>
      <trkpt lat="46.46955" lon="8.24192">
        <ele>1325</ele>
        <time>2020-10-24T13:42:52.142Z</time>
      </trkpt>
      <trkpt lat="46.46956" lon="8.24193">
        <ele>1325</ele>
        <time>2020-10-24T13:42:53.142Z</time>
      </trkpt>
      <trkpt lat="46.46956" lon="8.24194">
        <ele>1325</ele>
        <time>2020-10-24T13:42:54.142Z</time>
      </trkpt>
      <trkpt lat="46.46957" lon="8.24194">
        <ele>1325</ele>
        <time>2020-10-24T13:42:55.142Z</time>
      </trkpt>
      <trkpt lat="46.46958" lon="8.24195">
        <ele>1325</ele>
        <time>2020-10-24T13:42:56.142Z</time>
      </trkpt>
      <trkpt lat="46.46959" lon="8.24194">
        <ele>1325</ele>
        <time>2020-10-24T13:42:57.142Z</time>
      </trkpt>
      <trkpt lat="46.4696" lon="8.24194">
        <ele>1325</ele>
        <time>2020-10-24T13:42:58.142Z</time>
      </trkpt>
      <trkpt lat="46.46961" lon="8.24193">
        <ele>1325</ele>
        <time>2020-10-24T13:42:59.142Z</time>
      </trkpt>
      <trkpt lat="46.46962" lon="8.24192">
        <ele>1325</ele>
        <time>2020-10-24T13:43:00.142Z</time>
      </trkpt>
      <trkpt lat="46.46964" lon="8.24192">
        <ele>1326</ele>
        <time>2020-10-24T13:43:01.142Z</time>
      </trkpt>
      <trkpt lat="46.46965" lon="8.24191">
        <ele>1326</ele>
        <time>2020-10-24T13:43:02.142Z</time>
      </trkpt>
      <trkpt lat="46.46965" lon="8.2419">
        <ele>1327</ele>
        <time>2020-10-24T13:43:03.143Z</time>
      </trkpt>
      <trkpt lat="46.46965" lon="8.2419">
        <ele>1327</ele>
        <time>2020-10-24T13:43:04.143Z</time>
      </trkpt>
      <trkpt lat="46.46965" lon="8.2419">
        <ele>1327</ele>
        <time>2020-10-24T13:43:05.142Z</time>
      </trkpt>
      <trkpt lat="46.46966" lon="8.24189">
        <ele>1327</ele>
        <time>2020-10-24T13:43:06.142Z</time>
      </trkpt>
      <trkpt lat="46.46965" lon="8.24187">
        <ele>1328</ele>
        <time>2020-10-24T13:43:07.143Z</time>
      </trkpt>
      <trkpt lat="46.46965" lon="8.24187">
        <ele>1328</ele>
        <time>2020-10-24T13:43:08.143Z</time>
      </trkpt>
      <trkpt lat="46.46966" lon="8.24187">
        <ele>1326</ele>
        <time>2020-10-24T13:43:09.144Z</time>
      </trkpt>
      <trkpt lat="46.46966" lon="8.24189">
        <ele>1325</ele>
        <time>2020-10-24T13:43:10.144Z</time>
      </trkpt>
      <trkpt lat="46.46967" lon="8.24189">
        <ele>1326</ele>
        <time>2020-10-24T13:43:11.144Z</time>
      </trkpt>
      <trkpt lat="46.46967" lon="8.24189">
        <ele>1326</ele>
        <time>2020-10-24T13:43:12.144Z</time>
      </trkpt>
      <trkpt lat="46.46968" lon="8.24189">
        <ele>1327</ele>
        <time>2020-10-24T13:43:13.144Z</time>
      </trkpt>
      <trkpt lat="46.46968" lon="8.24189">
        <ele>1327</ele>
        <time>2020-10-24T13:43:14.145Z</time>
      </trkpt>
      <trkpt lat="46.46968" lon="8.24189">
        <ele>1328</ele>
        <time>2020-10-24T13:43:15.145Z</time>
      </trkpt>
      <trkpt lat="46.46969" lon="8.24188">
        <ele>1329</ele>
        <time>2020-10-24T13:43:16.145Z</time>
      </trkpt>
      <trkpt lat="46.46969" lon="8.24188">
        <ele>1330</ele>
        <time>2020-10-24T13:43:17.145Z</time>
      </trkpt>
      <trkpt lat="46.4697" lon="8.24187">
        <ele>1331</ele>
        <time>2020-10-24T13:43:18.145Z</time>
      </trkpt>
      <trkpt lat="46.46971" lon="8.24187">
        <ele>1331</ele>
        <time>2020-10-24T13:43:19.145Z</time>
      </trkpt>
      <trkpt lat="46.46972" lon="8.24186">
        <ele>1332</ele>
        <time>2020-10-24T13:43:20.145Z</time>
      </trkpt>
      <trkpt lat="46.46973" lon="8.24186">
        <ele>1333</ele>
        <time>2020-10-24T13:43:21.145Z</time>
      </trkpt>
      <trkpt lat="46.46974" lon="8.24186">
        <ele>1333</ele>
        <time>2020-10-24T13:43:22.144Z</time>
      </trkpt>
      <trkpt lat="46.46975" lon="8.24186">
        <ele>1333</ele>
        <time>2020-10-24T13:43:23.145Z</time>
      </trkpt>
      <trkpt lat="46.46976" lon="8.24186">
        <ele>1334</ele>
        <time>2020-10-24T13:43:24.144Z</time>
      </trkpt>
      <trkpt lat="46.46977" lon="8.24186">
        <ele>1334</ele>
        <time>2020-10-24T13:43:25.145Z</time>
      </trkpt>
      <trkpt lat="46.46977" lon="8.24185">
        <ele>1334</ele>
        <time>2020-10-24T13:43:26.145Z</time>
      </trkpt>
      <trkpt lat="46.46978" lon="8.24183">
        <ele>1334</ele>
        <time>2020-10-24T13:43:27.145Z</time>
      </trkpt>
      <trkpt lat="46.46978" lon="8.24183">
        <ele>1334</ele>
        <time>2020-10-24T13:43:28.144Z</time>
      </trkpt>
      <trkpt lat="46.4698" lon="8.24182">
        <ele>1334</ele>
        <time>2020-10-24T13:43:29.145Z</time>
      </trkpt>
      <trkpt lat="46.46981" lon="8.24182">
        <ele>1334</ele>
        <time>2020-10-24T13:43:30.145Z</time>
      </trkpt>
      <trkpt lat="46.46981" lon="8.24182">
        <ele>1334</ele>
        <time>2020-10-24T13:43:31.145Z</time>
      </trkpt>
      <trkpt lat="46.46982" lon="8.24181">
        <ele>1334</ele>
        <time>2020-10-24T13:43:32.144Z</time>
      </trkpt>
      <trkpt lat="46.46982" lon="8.24181">
        <ele>1335</ele>
        <time>2020-10-24T13:43:33.145Z</time>
      </trkpt>
      <trkpt lat="46.46983" lon="8.24181">
        <ele>1337</ele>
        <time>2020-10-24T13:43:34.144Z</time>
      </trkpt>
      <trkpt lat="46.46983" lon="8.24181">
        <ele>1338</ele>
        <time>2020-10-24T13:43:35.145Z</time>
      </trkpt>
      <trkpt lat="46.46986" lon="8.24172">
        <ele>1340</ele>
        <time>2020-10-24T13:43:36.144Z</time>
      </trkpt>
      <trkpt lat="46.46986" lon="8.24172">
        <ele>1342</ele>
        <time>2020-10-24T13:43:37.144Z</time>
      </trkpt>
      <trkpt lat="46.46985" lon="8.24172">
        <ele>1343</ele>
        <time>2020-10-24T13:43:38.144Z</time>
      </trkpt>
      <trkpt lat="46.46984" lon="8.24173">
        <ele>1342</ele>
        <time>2020-10-24T13:43:39.145Z</time>
      </trkpt>
      <trkpt lat="46.46986" lon="8.24174">
        <ele>1333</ele>
        <time>2020-10-24T13:43:40.145Z</time>
      </trkpt>
      <trkpt lat="46.46987" lon="8.24173">
        <ele>1334</ele>
        <time>2020-10-24T13:43:41.145Z</time>
      </trkpt>
      <trkpt lat="46.46988" lon="8.24173">
        <ele>1334</ele>
        <time>2020-10-24T13:43:42.145Z</time>
      </trkpt>
      <trkpt lat="46.4699" lon="8.24173">
        <ele>1334</ele>
        <time>2020-10-24T13:43:43.145Z</time>
      </trkpt>
      <trkpt lat="46.46991" lon="8.24172">
        <ele>1334</ele>
        <time>2020-10-24T13:43:44.145Z</time>
      </trkpt>
      <trkpt lat="46.46992" lon="8.24172">
        <ele>1334</ele>
        <time>2020-10-24T13:43:45.145Z</time>
      </trkpt>
      <trkpt lat="46.46992" lon="8.24171">
        <ele>1334</ele>
        <time>2020-10-24T13:43:46.146Z</time>
      </trkpt>
      <trkpt lat="46.46992" lon="8.2417">
        <ele>1334</ele>
        <time>2020-10-24T13:43:47.146Z</time>
      </trkpt>
      <trkpt lat="46.46992" lon="8.2417">
        <ele>1334</ele>
        <time>2020-10-24T13:43:48.146Z</time>
      </trkpt>
      <trkpt lat="46.46992" lon="8.24171">
        <ele>1335</ele>
        <time>2020-10-24T13:43:49.146Z</time>
      </trkpt>
      <trkpt lat="46.46993" lon="8.24171">
        <ele>1335</ele>
        <time>2020-10-24T13:43:50.145Z</time>
      </trkpt>
      <trkpt lat="46.46993" lon="8.24171">
        <ele>1335</ele>
        <time>2020-10-24T13:43:51.146Z</time>
      </trkpt>
      <trkpt lat="46.46994" lon="8.24171">
        <ele>1335</ele>
        <time>2020-10-24T13:43:52.146Z</time>
      </trkpt>
      <trkpt lat="46.46995" lon="8.24171">
        <ele>1335</ele>
        <time>2020-10-24T13:43:53.146Z</time>
      </trkpt>
      <trkpt lat="46.46995" lon="8.2417">
        <ele>1336</ele>
        <time>2020-10-24T13:43:54.145Z</time>
      </trkpt>
      <trkpt lat="46.46996" lon="8.24169">
        <ele>1336</ele>
        <time>2020-10-24T13:43:55.145Z</time>
      </trkpt>
      <trkpt lat="46.46997" lon="8.24168">
        <ele>1336</ele>
        <time>2020-10-24T13:43:56.146Z</time>
      </trkpt>
      <trkpt lat="46.46998" lon="8.24167">
        <ele>1337</ele>
        <time>2020-10-24T13:43:57.145Z</time>
      </trkpt>
      <trkpt lat="46.46999" lon="8.24165">
        <ele>1337</ele>
        <time>2020-10-24T13:43:58.146Z</time>
      </trkpt>
      <trkpt lat="46.46999" lon="8.24165">
        <ele>1338</ele>
        <time>2020-10-24T13:43:59.145Z</time>
      </trkpt>
      <trkpt lat="46.47001" lon="8.24165">
        <ele>1338</ele>
        <time>2020-10-24T13:44:00.146Z</time>
      </trkpt>
      <trkpt lat="46.47002" lon="8.24164">
        <ele>1338</ele>
        <time>2020-10-24T13:44:01.146Z</time>
      </trkpt>
      <trkpt lat="46.47003" lon="8.24164">
        <ele>1338</ele>
        <time>2020-10-24T13:44:02.146Z</time>
      </trkpt>
      <trkpt lat="46.47003" lon="8.24165">
        <ele>1338</ele>
        <time>2020-10-24T13:44:03.145Z</time>
      </trkpt>
      <trkpt lat="46.47004" lon="8.24165">
        <ele>1338</ele>
        <time>2020-10-24T13:44:04.146Z</time>
      </trkpt>
      <trkpt lat="46.47004" lon="8.24165">
        <ele>1338</ele>
        <time>2020-10-24T13:44:05.146Z</time>
      </trkpt>
      <trkpt lat="46.47005" lon="8.24165">
        <ele>1338</ele>
        <time>2020-10-24T13:44:06.146Z</time>
      </trkpt>
      <trkpt lat="46.47006" lon="8.24165">
        <ele>1338</ele>
        <time>2020-10-24T13:44:07.146Z</time>
      </trkpt>
      <trkpt lat="46.47007" lon="8.24165">
        <ele>1338</ele>
        <time>2020-10-24T13:44:08.145Z</time>
      </trkpt>
      <trkpt lat="46.47008" lon="8.24164">
        <ele>1338</ele>
        <time>2020-10-24T13:44:09.146Z</time>
      </trkpt>
      <trkpt lat="46.47009" lon="8.24164">
        <ele>1338</ele>
        <time>2020-10-24T13:44:10.145Z</time>
      </trkpt>
      <trkpt lat="46.4701" lon="8.24164">
        <ele>1338</ele>
        <time>2020-10-24T13:44:11.146Z</time>
      </trkpt>
      <trkpt lat="46.47011" lon="8.24164">
        <ele>1338</ele>
        <time>2020-10-24T13:44:12.145Z</time>
      </trkpt>
      <trkpt lat="46.47012" lon="8.24164">
        <ele>1338</ele>
        <time>2020-10-24T13:44:13.146Z</time>
      </trkpt>
      <trkpt lat="46.47013" lon="8.24164">
        <ele>1338</ele>
        <time>2020-10-24T13:44:14.145Z</time>
      </trkpt>
      <trkpt lat="46.47013" lon="8.24164">
        <ele>1338</ele>
        <time>2020-10-24T13:44:15.146Z</time>
      </trkpt>
      <trkpt lat="46.47014" lon="8.24164">
        <ele>1338</ele>
        <time>2020-10-24T13:44:16.146Z</time>
      </trkpt>
      <trkpt lat="46.47015" lon="8.24164">
        <ele>1339</ele>
        <time>2020-10-24T13:44:17.146Z</time>
      </trkpt>
      <trkpt lat="46.47016" lon="8.24164">
        <ele>1339</ele>
        <time>2020-10-24T13:44:18.146Z</time>
      </trkpt>
      <trkpt lat="46.47017" lon="8.24163">
        <ele>1340</ele>
        <time>2020-10-24T13:44:19.146Z</time>
      </trkpt>
      <trkpt lat="46.47018" lon="8.24163">
        <ele>1341</ele>
        <time>2020-10-24T13:44:20.146Z</time>
      </trkpt>
      <trkpt lat="46.47019" lon="8.24163">
        <ele>1341</ele>
        <time>2020-10-24T13:44:21.146Z</time>
      </trkpt>
      <trkpt lat="46.4702" lon="8.24163">
        <ele>1342</ele>
        <time>2020-10-24T13:44:22.145Z</time>
      </trkpt>
      <trkpt lat="46.47022" lon="8.24162">
        <ele>1342</ele>
        <time>2020-10-24T13:44:23.146Z</time>
      </trkpt>
      <trkpt lat="46.47023" lon="8.24161">
        <ele>1343</ele>
        <time>2020-10-24T13:44:24.145Z</time>
      </trkpt>
      <trkpt lat="46.47024" lon="8.24161">
        <ele>1343</ele>
        <time>2020-10-24T13:44:25.145Z</time>
      </trkpt>
      <trkpt lat="46.47025" lon="8.2416">
        <ele>1343</ele>
        <time>2020-10-24T13:44:26.146Z</time>
      </trkpt>
      <trkpt lat="46.47026" lon="8.24159">
        <ele>1344</ele>
        <time>2020-10-24T13:44:27.145Z</time>
      </trkpt>
      <trkpt lat="46.47027" lon="8.24159">
        <ele>1345</ele>
        <time>2020-10-24T13:44:28.145Z</time>
      </trkpt>
      <trkpt lat="46.47028" lon="8.24159">
        <ele>1345</ele>
        <time>2020-10-24T13:44:29.145Z</time>
      </trkpt>
      <trkpt lat="46.47029" lon="8.24158">
        <ele>1345</ele>
        <time>2020-10-24T13:44:30.145Z</time>
      </trkpt>
      <trkpt lat="46.47031" lon="8.24158">
        <ele>1346</ele>
        <time>2020-10-24T13:44:31.145Z</time>
      </trkpt>
      <trkpt lat="46.47032" lon="8.24157">
        <ele>1346</ele>
        <time>2020-10-24T13:44:32.146Z</time>
      </trkpt>
      <trkpt lat="46.47032" lon="8.24157">
        <ele>1346</ele>
        <time>2020-10-24T13:44:33.145Z</time>
      </trkpt>
      <trkpt lat="46.47033" lon="8.24157">
        <ele>1346</ele>
        <time>2020-10-24T13:44:34.145Z</time>
      </trkpt>
      <trkpt lat="46.47034" lon="8.24156">
        <ele>1346</ele>
        <time>2020-10-24T13:44:35.146Z</time>
      </trkpt>
      <trkpt lat="46.47034" lon="8.24156">
        <ele>1345</ele>
        <time>2020-10-24T13:44:36.146Z</time>
      </trkpt>
      <trkpt lat="46.47035" lon="8.24156">
        <ele>1344</ele>
        <time>2020-10-24T13:44:37.146Z</time>
      </trkpt>
      <trkpt lat="46.47035" lon="8.24155">
        <ele>1343</ele>
        <time>2020-10-24T13:44:38.145Z</time>
      </trkpt>
      <trkpt lat="46.47036" lon="8.24154">
        <ele>1342</ele>
        <time>2020-10-24T13:44:39.146Z</time>
      </trkpt>
      <trkpt lat="46.47037" lon="8.24154">
        <ele>1342</ele>
        <time>2020-10-24T13:44:40.146Z</time>
      </trkpt>
      <trkpt lat="46.47038" lon="8.24154">
        <ele>1341</ele>
        <time>2020-10-24T13:44:41.146Z</time>
      </trkpt>
      <trkpt lat="46.47039" lon="8.24153">
        <ele>1341</ele>
        <time>2020-10-24T13:44:42.146Z</time>
      </trkpt>
      <trkpt lat="46.47039" lon="8.24153">
        <ele>1341</ele>
        <time>2020-10-24T13:44:43.145Z</time>
      </trkpt>
      <trkpt lat="46.4704" lon="8.24152">
        <ele>1341</ele>
        <time>2020-10-24T13:44:44.146Z</time>
      </trkpt>
      <trkpt lat="46.47041" lon="8.24152">
        <ele>1341</ele>
        <time>2020-10-24T13:44:45.146Z</time>
      </trkpt>
      <trkpt lat="46.47042" lon="8.24152">
        <ele>1341</ele>
        <time>2020-10-24T13:44:46.146Z</time>
      </trkpt>
      <trkpt lat="46.47043" lon="8.24151">
        <ele>1341</ele>
        <time>2020-10-24T13:44:47.146Z</time>
      </trkpt>
      <trkpt lat="46.47043" lon="8.2415">
        <ele>1341</ele>
        <time>2020-10-24T13:44:48.145Z</time>
      </trkpt>
      <trkpt lat="46.47043" lon="8.24148">
        <ele>1342</ele>
        <time>2020-10-24T13:44:49.146Z</time>
      </trkpt>
      <trkpt lat="46.47044" lon="8.24148">
        <ele>1342</ele>
        <time>2020-10-24T13:44:50.146Z</time>
      </trkpt>
      <trkpt lat="46.47045" lon="8.24149">
        <ele>1342</ele>
        <time>2020-10-24T13:44:51.145Z</time>
      </trkpt>
      <trkpt lat="46.47046" lon="8.24149">
        <ele>1342</ele>
        <time>2020-10-24T13:44:52.145Z</time>
      </trkpt>
      <trkpt lat="46.47048" lon="8.24149">
        <ele>1342</ele>
        <time>2020-10-24T13:44:53.146Z</time>
      </trkpt>
      <trkpt lat="46.47049" lon="8.24149">
        <ele>1343</ele>
        <time>2020-10-24T13:44:54.146Z</time>
      </trkpt>
      <trkpt lat="46.4705" lon="8.2415">
        <ele>1343</ele>
        <time>2020-10-24T13:44:55.146Z</time>
      </trkpt>
      <trkpt lat="46.47051" lon="8.2415">
        <ele>1343</ele>
        <time>2020-10-24T13:44:56.146Z</time>
      </trkpt>
      <trkpt lat="46.47053" lon="8.2415">
        <ele>1343</ele>
        <time>2020-10-24T13:44:57.146Z</time>
      </trkpt>
      <trkpt lat="46.47054" lon="8.2415">
        <ele>1343</ele>
        <time>2020-10-24T13:44:58.146Z</time>
      </trkpt>
      <trkpt lat="46.47055" lon="8.2415">
        <ele>1343</ele>
        <time>2020-10-24T13:44:59.146Z</time>
      </trkpt>
      <trkpt lat="46.47055" lon="8.2415">
        <ele>1343</ele>
        <time>2020-10-24T13:45:00.145Z</time>
      </trkpt>
      <trkpt lat="46.47056" lon="8.2415">
        <ele>1342</ele>
        <time>2020-10-24T13:45:01.146Z</time>
      </trkpt>
      <trkpt lat="46.47057" lon="8.24151">
        <ele>1342</ele>
        <time>2020-10-24T13:45:02.145Z</time>
      </trkpt>
      <trkpt lat="46.47058" lon="8.24151">
        <ele>1342</ele>
        <time>2020-10-24T13:45:03.146Z</time>
      </trkpt>
      <trkpt lat="46.47059" lon="8.2415">
        <ele>1341</ele>
        <time>2020-10-24T13:45:04.146Z</time>
      </trkpt>
      <trkpt lat="46.4706" lon="8.24149">
        <ele>1341</ele>
        <time>2020-10-24T13:45:05.146Z</time>
      </trkpt>
      <trkpt lat="46.47061" lon="8.24148">
        <ele>1341</ele>
        <time>2020-10-24T13:45:06.145Z</time>
      </trkpt>
      <trkpt lat="46.47062" lon="8.24147">
        <ele>1340</ele>
        <time>2020-10-24T13:45:07.146Z</time>
      </trkpt>
      <trkpt lat="46.47063" lon="8.24147">
        <ele>1340</ele>
        <time>2020-10-24T13:45:08.146Z</time>
      </trkpt>
      <trkpt lat="46.47064" lon="8.24146">
        <ele>1340</ele>
        <time>2020-10-24T13:45:09.145Z</time>
      </trkpt>
      <trkpt lat="46.47065" lon="8.24146">
        <ele>1340</ele>
        <time>2020-10-24T13:45:10.145Z</time>
      </trkpt>
      <trkpt lat="46.47066" lon="8.24145">
        <ele>1339</ele>
        <time>2020-10-24T13:45:11.146Z</time>
      </trkpt>
      <trkpt lat="46.47067" lon="8.24145">
        <ele>1339</ele>
        <time>2020-10-24T13:45:12.145Z</time>
      </trkpt>
      <trkpt lat="46.47067" lon="8.24145">
        <ele>1339</ele>
        <time>2020-10-24T13:45:13.146Z</time>
      </trkpt>
      <trkpt lat="46.47068" lon="8.24146">
        <ele>1339</ele>
        <time>2020-10-24T13:45:14.146Z</time>
      </trkpt>
      <trkpt lat="46.47068" lon="8.24145">
        <ele>1339</ele>
        <time>2020-10-24T13:45:15.146Z</time>
      </trkpt>
      <trkpt lat="46.47069" lon="8.24144">
        <ele>1339</ele>
        <time>2020-10-24T13:45:16.146Z</time>
      </trkpt>
      <trkpt lat="46.4707" lon="8.24144">
        <ele>1339</ele>
        <time>2020-10-24T13:45:17.146Z</time>
      </trkpt>
      <trkpt lat="46.47071" lon="8.24143">
        <ele>1340</ele>
        <time>2020-10-24T13:45:18.145Z</time>
      </trkpt>
      <trkpt lat="46.47073" lon="8.24143">
        <ele>1340</ele>
        <time>2020-10-24T13:45:19.146Z</time>
      </trkpt>
      <trkpt lat="46.47074" lon="8.24143">
        <ele>1341</ele>
        <time>2020-10-24T13:45:20.146Z</time>
      </trkpt>
      <trkpt lat="46.47074" lon="8.24142">
        <ele>1341</ele>
        <time>2020-10-24T13:45:21.145Z</time>
      </trkpt>
      <trkpt lat="46.47075" lon="8.24142">
        <ele>1342</ele>
        <time>2020-10-24T13:45:22.145Z</time>
      </trkpt>
      <trkpt lat="46.47075" lon="8.24142">
        <ele>1343</ele>
        <time>2020-10-24T13:45:23.146Z</time>
      </trkpt>
      <trkpt lat="46.47075" lon="8.24143">
        <ele>1344</ele>
        <time>2020-10-24T13:45:24.145Z</time>
      </trkpt>
      <trkpt lat="46.47075" lon="8.24143">
        <ele>1344</ele>
        <time>2020-10-24T13:45:25.146Z</time>
      </trkpt>
      <trkpt lat="46.47076" lon="8.24143">
        <ele>1345</ele>
        <time>2020-10-24T13:45:26.145Z</time>
      </trkpt>
      <trkpt lat="46.47076" lon="8.24142">
        <ele>1346</ele>
        <time>2020-10-24T13:45:27.146Z</time>
      </trkpt>
      <trkpt lat="46.47076" lon="8.24141">
        <ele>1347</ele>
        <time>2020-10-24T13:45:28.146Z</time>
      </trkpt>
      <trkpt lat="46.47077" lon="8.24141">
        <ele>1347</ele>
        <time>2020-10-24T13:45:29.145Z</time>
      </trkpt>
      <trkpt lat="46.47078" lon="8.24141">
        <ele>1348</ele>
        <time>2020-10-24T13:45:30.146Z</time>
      </trkpt>
      <trkpt lat="46.47079" lon="8.2414">
        <ele>1349</ele>
        <time>2020-10-24T13:45:31.145Z</time>
      </trkpt>
      <trkpt lat="46.4708" lon="8.24139">
        <ele>1350</ele>
        <time>2020-10-24T13:45:32.146Z</time>
      </trkpt>
      <trkpt lat="46.47081" lon="8.24139">
        <ele>1351</ele>
        <time>2020-10-24T13:45:33.146Z</time>
      </trkpt>
      <trkpt lat="46.47081" lon="8.24139">
        <ele>1353</ele>
        <time>2020-10-24T13:45:34.146Z</time>
      </trkpt>
      <trkpt lat="46.47082" lon="8.2414">
        <ele>1354</ele>
        <time>2020-10-24T13:45:35.146Z</time>
      </trkpt>
      <trkpt lat="46.47083" lon="8.2414">
        <ele>1355</ele>
        <time>2020-10-24T13:45:36.146Z</time>
      </trkpt>
      <trkpt lat="46.47084" lon="8.2414">
        <ele>1356</ele>
        <time>2020-10-24T13:45:37.146Z</time>
      </trkpt>
      <trkpt lat="46.47085" lon="8.2414">
        <ele>1356</ele>
        <time>2020-10-24T13:45:38.145Z</time>
      </trkpt>
      <trkpt lat="46.47085" lon="8.2414">
        <ele>1356</ele>
        <time>2020-10-24T13:45:39.145Z</time>
      </trkpt>
      <trkpt lat="46.47086" lon="8.24141">
        <ele>1356</ele>
        <time>2020-10-24T13:45:40.146Z</time>
      </trkpt>
      <trkpt lat="46.47087" lon="8.24141">
        <ele>1356</ele>
        <time>2020-10-24T13:45:41.145Z</time>
      </trkpt>
      <trkpt lat="46.47088" lon="8.24141">
        <ele>1356</ele>
        <time>2020-10-24T13:45:42.146Z</time>
      </trkpt>
      <trkpt lat="46.47089" lon="8.24141">
        <ele>1356</ele>
        <time>2020-10-24T13:45:43.146Z</time>
      </trkpt>
      <trkpt lat="46.4709" lon="8.24141">
        <ele>1356</ele>
        <time>2020-10-24T13:45:44.145Z</time>
      </trkpt>
      <trkpt lat="46.47091" lon="8.24141">
        <ele>1356</ele>
        <time>2020-10-24T13:45:45.146Z</time>
      </trkpt>
      <trkpt lat="46.47093" lon="8.24141">
        <ele>1356</ele>
        <time>2020-10-24T13:45:46.146Z</time>
      </trkpt>
      <trkpt lat="46.47094" lon="8.24141">
        <ele>1356</ele>
        <time>2020-10-24T13:45:47.145Z</time>
      </trkpt>
      <trkpt lat="46.47095" lon="8.24141">
        <ele>1355</ele>
        <time>2020-10-24T13:45:48.145Z</time>
      </trkpt>
      <trkpt lat="46.47095" lon="8.24142">
        <ele>1355</ele>
        <time>2020-10-24T13:45:49.146Z</time>
      </trkpt>
      <trkpt lat="46.47096" lon="8.24143">
        <ele>1354</ele>
        <time>2020-10-24T13:45:50.146Z</time>
      </trkpt>
      <trkpt lat="46.47096" lon="8.24144">
        <ele>1354</ele>
        <time>2020-10-24T13:45:51.146Z</time>
      </trkpt>
      <trkpt lat="46.47097" lon="8.24144">
        <ele>1354</ele>
        <time>2020-10-24T13:45:52.146Z</time>
      </trkpt>
      <trkpt lat="46.47098" lon="8.24145">
        <ele>1353</ele>
        <time>2020-10-24T13:45:53.145Z</time>
      </trkpt>
      <trkpt lat="46.47099" lon="8.24146">
        <ele>1353</ele>
        <time>2020-10-24T13:45:54.145Z</time>
      </trkpt>
      <trkpt lat="46.471" lon="8.24146">
        <ele>1353</ele>
        <time>2020-10-24T13:45:55.146Z</time>
      </trkpt>
      <trkpt lat="46.47101" lon="8.24146">
        <ele>1354</ele>
        <time>2020-10-24T13:45:56.146Z</time>
      </trkpt>
      <trkpt lat="46.47103" lon="8.24146">
        <ele>1355</ele>
        <time>2020-10-24T13:45:57.146Z</time>
      </trkpt>
      <trkpt lat="46.47104" lon="8.24146">
        <ele>1356</ele>
        <time>2020-10-24T13:45:58.146Z</time>
      </trkpt>
      <trkpt lat="46.47104" lon="8.24146">
        <ele>1356</ele>
        <time>2020-10-24T13:45:59.145Z</time>
      </trkpt>
      <trkpt lat="46.47104" lon="8.24145">
        <ele>1356</ele>
        <time>2020-10-24T13:46:00.145Z</time>
      </trkpt>
      <trkpt lat="46.47105" lon="8.24145">
        <ele>1357</ele>
        <time>2020-10-24T13:46:01.146Z</time>
      </trkpt>
      <trkpt lat="46.47105" lon="8.24145">
        <ele>1357</ele>
        <time>2020-10-24T13:46:02.146Z</time>
      </trkpt>
      <trkpt lat="46.47106" lon="8.24144">
        <ele>1357</ele>
        <time>2020-10-24T13:46:03.146Z</time>
      </trkpt>
      <trkpt lat="46.47105" lon="8.24144">
        <ele>1357</ele>
        <time>2020-10-24T13:46:04.145Z</time>
      </trkpt>
      <trkpt lat="46.47106" lon="8.24144">
        <ele>1357</ele>
        <time>2020-10-24T13:46:05.145Z</time>
      </trkpt>
      <trkpt lat="46.47105" lon="8.24144">
        <ele>1357</ele>
        <time>2020-10-24T13:46:06.146Z</time>
      </trkpt>
      <trkpt lat="46.47106" lon="8.24143">
        <ele>1357</ele>
        <time>2020-10-24T13:46:07.146Z</time>
      </trkpt>
      <trkpt lat="46.47107" lon="8.24143">
        <ele>1357</ele>
        <time>2020-10-24T13:46:08.145Z</time>
      </trkpt>
      <trkpt lat="46.47107" lon="8.24143">
        <ele>1357</ele>
        <time>2020-10-24T13:46:09.146Z</time>
      </trkpt>
      <trkpt lat="46.47108" lon="8.24143">
        <ele>1356</ele>
        <time>2020-10-24T13:46:10.146Z</time>
      </trkpt>
      <trkpt lat="46.47109" lon="8.24143">
        <ele>1356</ele>
        <time>2020-10-24T13:46:11.146Z</time>
      </trkpt>
      <trkpt lat="46.4711" lon="8.24143">
        <ele>1356</ele>
        <time>2020-10-24T13:46:12.145Z</time>
      </trkpt>
      <trkpt lat="46.47111" lon="8.24143">
        <ele>1356</ele>
        <time>2020-10-24T13:46:13.146Z</time>
      </trkpt>
      <trkpt lat="46.47112" lon="8.24142">
        <ele>1355</ele>
        <time>2020-10-24T13:46:14.146Z</time>
      </trkpt>
      <trkpt lat="46.47113" lon="8.24141">
        <ele>1354</ele>
        <time>2020-10-24T13:46:15.145Z</time>
      </trkpt>
      <trkpt lat="46.47114" lon="8.24141">
        <ele>1354</ele>
        <time>2020-10-24T13:46:16.146Z</time>
      </trkpt>
      <trkpt lat="46.47115" lon="8.24141">
        <ele>1353</ele>
        <time>2020-10-24T13:46:17.146Z</time>
      </trkpt>
      <trkpt lat="46.47116" lon="8.24141">
        <ele>1353</ele>
        <time>2020-10-24T13:46:18.145Z</time>
      </trkpt>
      <trkpt lat="46.47116" lon="8.24142">
        <ele>1352</ele>
        <time>2020-10-24T13:46:19.146Z</time>
      </trkpt>
      <trkpt lat="46.47116" lon="8.24142">
        <ele>1351</ele>
        <time>2020-10-24T13:46:20.145Z</time>
      </trkpt>
      <trkpt lat="46.47115" lon="8.24143">
        <ele>1351</ele>
        <time>2020-10-24T13:46:21.146Z</time>
      </trkpt>
      <trkpt lat="46.47115" lon="8.24143">
        <ele>1350</ele>
        <time>2020-10-24T13:46:22.146Z</time>
      </trkpt>
      <trkpt lat="46.47114" lon="8.24144">
        <ele>1350</ele>
        <time>2020-10-24T13:46:23.145Z</time>
      </trkpt>
      <trkpt lat="46.47115" lon="8.24145">
        <ele>1349</ele>
        <time>2020-10-24T13:46:24.146Z</time>
      </trkpt>
      <trkpt lat="46.47115" lon="8.24146">
        <ele>1348</ele>
        <time>2020-10-24T13:46:25.146Z</time>
      </trkpt>
      <trkpt lat="46.47115" lon="8.24147">
        <ele>1347</ele>
        <time>2020-10-24T13:46:26.145Z</time>
      </trkpt>
      <trkpt lat="46.47115" lon="8.24148">
        <ele>1347</ele>
        <time>2020-10-24T13:46:27.146Z</time>
      </trkpt>
      <trkpt lat="46.47115" lon="8.24148">
        <ele>1347</ele>
        <time>2020-10-24T13:46:28.146Z</time>
      </trkpt>
      <trkpt lat="46.47115" lon="8.24147">
        <ele>1348</ele>
        <time>2020-10-24T13:46:29.146Z</time>
      </trkpt>
      <trkpt lat="46.47117" lon="8.24146">
        <ele>1348</ele>
        <time>2020-10-24T13:46:30.146Z</time>
      </trkpt>
      <trkpt lat="46.47118" lon="8.24145">
        <ele>1349</ele>
        <time>2020-10-24T13:46:31.145Z</time>
      </trkpt>
      <trkpt lat="46.47119" lon="8.24145">
        <ele>1350</ele>
        <time>2020-10-24T13:46:32.146Z</time>
      </trkpt>
      <trkpt lat="46.4712" lon="8.24144">
        <ele>1351</ele>
        <time>2020-10-24T13:46:33.146Z</time>
      </trkpt>
      <trkpt lat="46.47122" lon="8.24143">
        <ele>1352</ele>
        <time>2020-10-24T13:46:34.146Z</time>
      </trkpt>
      <trkpt lat="46.47123" lon="8.24142">
        <ele>1353</ele>
        <time>2020-10-24T13:46:35.145Z</time>
      </trkpt>
      <trkpt lat="46.47123" lon="8.24142">
        <ele>1354</ele>
        <time>2020-10-24T13:46:36.145Z</time>
      </trkpt>
      <trkpt lat="46.47124" lon="8.24142">
        <ele>1354</ele>
        <time>2020-10-24T13:46:37.145Z</time>
      </trkpt>
      <trkpt lat="46.47124" lon="8.24141">
        <ele>1355</ele>
        <time>2020-10-24T13:46:38.145Z</time>
      </trkpt>
      <trkpt lat="46.47124" lon="8.24141">
        <ele>1356</ele>
        <time>2020-10-24T13:46:39.145Z</time>
      </trkpt>
      <trkpt lat="46.47125" lon="8.2414">
        <ele>1357</ele>
        <time>2020-10-24T13:46:40.146Z</time>
      </trkpt>
      <trkpt lat="46.47126" lon="8.24139">
        <ele>1358</ele>
        <time>2020-10-24T13:46:41.146Z</time>
      </trkpt>
      <trkpt lat="46.47126" lon="8.24138">
        <ele>1359</ele>
        <time>2020-10-24T13:46:42.145Z</time>
      </trkpt>
      <trkpt lat="46.47127" lon="8.24137">
        <ele>1360</ele>
        <time>2020-10-24T13:46:43.146Z</time>
      </trkpt>
      <trkpt lat="46.47127" lon="8.24136">
        <ele>1361</ele>
        <time>2020-10-24T13:46:44.146Z</time>
      </trkpt>
      <trkpt lat="46.47128" lon="8.24135">
        <ele>1361</ele>
        <time>2020-10-24T13:46:45.146Z</time>
      </trkpt>
      <trkpt lat="46.47128" lon="8.24134">
        <ele>1361</ele>
        <time>2020-10-24T13:46:46.146Z</time>
      </trkpt>
      <trkpt lat="46.47129" lon="8.24132">
        <ele>1361</ele>
        <time>2020-10-24T13:46:47.145Z</time>
      </trkpt>
      <trkpt lat="46.47129" lon="8.24131">
        <ele>1361</ele>
        <time>2020-10-24T13:46:48.146Z</time>
      </trkpt>
      <trkpt lat="46.4713" lon="8.24129">
        <ele>1361</ele>
        <time>2020-10-24T13:46:49.145Z</time>
      </trkpt>
      <trkpt lat="46.47131" lon="8.24128">
        <ele>1362</ele>
        <time>2020-10-24T13:46:50.146Z</time>
      </trkpt>
      <trkpt lat="46.47132" lon="8.24127">
        <ele>1362</ele>
        <time>2020-10-24T13:46:51.146Z</time>
      </trkpt>
      <trkpt lat="46.47132" lon="8.24126">
        <ele>1362</ele>
        <time>2020-10-24T13:46:52.145Z</time>
      </trkpt>
      <trkpt lat="46.47133" lon="8.24124">
        <ele>1362</ele>
        <time>2020-10-24T13:46:53.146Z</time>
      </trkpt>
      <trkpt lat="46.47134" lon="8.24123">
        <ele>1363</ele>
        <time>2020-10-24T13:46:54.145Z</time>
      </trkpt>
      <trkpt lat="46.47135" lon="8.24122">
        <ele>1363</ele>
        <time>2020-10-24T13:46:55.146Z</time>
      </trkpt>
      <trkpt lat="46.47136" lon="8.2412">
        <ele>1362</ele>
        <time>2020-10-24T13:46:56.145Z</time>
      </trkpt>
      <trkpt lat="46.47137" lon="8.24119">
        <ele>1362</ele>
        <time>2020-10-24T13:46:57.146Z</time>
      </trkpt>
      <trkpt lat="46.47138" lon="8.24118">
        <ele>1362</ele>
        <time>2020-10-24T13:46:58.146Z</time>
      </trkpt>
      <trkpt lat="46.47138" lon="8.24117">
        <ele>1361</ele>
        <time>2020-10-24T13:46:59.146Z</time>
      </trkpt>
      <trkpt lat="46.47139" lon="8.24117">
        <ele>1360</ele>
        <time>2020-10-24T13:47:00.146Z</time>
      </trkpt>
      <trkpt lat="46.4714" lon="8.24117">
        <ele>1360</ele>
        <time>2020-10-24T13:47:01.146Z</time>
      </trkpt>
      <trkpt lat="46.4714" lon="8.24118">
        <ele>1359</ele>
        <time>2020-10-24T13:47:02.145Z</time>
      </trkpt>
      <trkpt lat="46.4714" lon="8.24118">
        <ele>1359</ele>
        <time>2020-10-24T13:47:03.146Z</time>
      </trkpt>
      <trkpt lat="46.47142" lon="8.24116">
        <ele>1359</ele>
        <time>2020-10-24T13:47:04.145Z</time>
      </trkpt>
      <trkpt lat="46.47144" lon="8.24114">
        <ele>1358</ele>
        <time>2020-10-24T13:47:05.145Z</time>
      </trkpt>
      <trkpt lat="46.47145" lon="8.24114">
        <ele>1358</ele>
        <time>2020-10-24T13:47:06.145Z</time>
      </trkpt>
      <trkpt lat="46.47145" lon="8.24113">
        <ele>1358</ele>
        <time>2020-10-24T13:47:07.146Z</time>
      </trkpt>
      <trkpt lat="46.47146" lon="8.24114">
        <ele>1358</ele>
        <time>2020-10-24T13:47:08.146Z</time>
      </trkpt>
      <trkpt lat="46.47146" lon="8.24114">
        <ele>1358</ele>
        <time>2020-10-24T13:47:09.146Z</time>
      </trkpt>
      <trkpt lat="46.47146" lon="8.24115">
        <ele>1359</ele>
        <time>2020-10-24T13:47:10.146Z</time>
      </trkpt>
      <trkpt lat="46.47147" lon="8.24115">
        <ele>1359</ele>
        <time>2020-10-24T13:47:11.146Z</time>
      </trkpt>
      <trkpt lat="46.47147" lon="8.24116">
        <ele>1359</ele>
        <time>2020-10-24T13:47:12.145Z</time>
      </trkpt>
      <trkpt lat="46.47147" lon="8.24116">
        <ele>1359</ele>
        <time>2020-10-24T13:47:13.146Z</time>
      </trkpt>
      <trkpt lat="46.47147" lon="8.24115">
        <ele>1359</ele>
        <time>2020-10-24T13:47:14.146Z</time>
      </trkpt>
      <trkpt lat="46.47148" lon="8.24115">
        <ele>1359</ele>
        <time>2020-10-24T13:47:15.146Z</time>
      </trkpt>
      <trkpt lat="46.47148" lon="8.24115">
        <ele>1359</ele>
        <time>2020-10-24T13:47:16.145Z</time>
      </trkpt>
      <trkpt lat="46.47148" lon="8.24114">
        <ele>1359</ele>
        <time>2020-10-24T13:47:17.145Z</time>
      </trkpt>
      <trkpt lat="46.47148" lon="8.24113">
        <ele>1359</ele>
        <time>2020-10-24T13:47:18.146Z</time>
      </trkpt>
      <trkpt lat="46.47148" lon="8.24112">
        <ele>1359</ele>
        <time>2020-10-24T13:47:19.146Z</time>
      </trkpt>
      <trkpt lat="46.47149" lon="8.24112">
        <ele>1359</ele>
        <time>2020-10-24T13:47:20.145Z</time>
      </trkpt>
      <trkpt lat="46.4715" lon="8.24111">
        <ele>1360</ele>
        <time>2020-10-24T13:47:21.145Z</time>
      </trkpt>
      <trkpt lat="46.47151" lon="8.24112">
        <ele>1360</ele>
        <time>2020-10-24T13:47:22.146Z</time>
      </trkpt>
      <trkpt lat="46.47152" lon="8.24113">
        <ele>1360</ele>
        <time>2020-10-24T13:47:23.145Z</time>
      </trkpt>
      <trkpt lat="46.47152" lon="8.24113">
        <ele>1360</ele>
        <time>2020-10-24T13:47:24.146Z</time>
      </trkpt>
      <trkpt lat="46.47152" lon="8.24114">
        <ele>1360</ele>
        <time>2020-10-24T13:47:25.145Z</time>
      </trkpt>
      <trkpt lat="46.47153" lon="8.24115">
        <ele>1360</ele>
        <time>2020-10-24T13:47:26.146Z</time>
      </trkpt>
      <trkpt lat="46.47153" lon="8.24116">
        <ele>1360</ele>
        <time>2020-10-24T13:47:27.146Z</time>
      </trkpt>
      <trkpt lat="46.47154" lon="8.24117">
        <ele>1360</ele>
        <time>2020-10-24T13:47:28.146Z</time>
      </trkpt>
      <trkpt lat="46.47155" lon="8.24118">
        <ele>1360</ele>
        <time>2020-10-24T13:47:29.145Z</time>
      </trkpt>
      <trkpt lat="46.47156" lon="8.24118">
        <ele>1359</ele>
        <time>2020-10-24T13:47:30.145Z</time>
      </trkpt>
      <trkpt lat="46.47157" lon="8.24119">
        <ele>1359</ele>
        <time>2020-10-24T13:47:31.146Z</time>
      </trkpt>
      <trkpt lat="46.47158" lon="8.24119">
        <ele>1359</ele>
        <time>2020-10-24T13:47:32.146Z</time>
      </trkpt>
      <trkpt lat="46.47159" lon="8.24118">
        <ele>1359</ele>
        <time>2020-10-24T13:47:33.146Z</time>
      </trkpt>
      <trkpt lat="46.4716" lon="8.24119">
        <ele>1359</ele>
        <time>2020-10-24T13:47:34.146Z</time>
      </trkpt>
      <trkpt lat="46.47161" lon="8.24119">
        <ele>1359</ele>
        <time>2020-10-24T13:47:35.145Z</time>
      </trkpt>
      <trkpt lat="46.47161" lon="8.24119">
        <ele>1358</ele>
        <time>2020-10-24T13:47:36.146Z</time>
      </trkpt>
      <trkpt lat="46.47162" lon="8.24119">
        <ele>1358</ele>
        <time>2020-10-24T13:47:37.146Z</time>
      </trkpt>
      <trkpt lat="46.47163" lon="8.24119">
        <ele>1357</ele>
        <time>2020-10-24T13:47:38.145Z</time>
      </trkpt>
      <trkpt lat="46.47164" lon="8.24118">
        <ele>1357</ele>
        <time>2020-10-24T13:47:39.146Z</time>
      </trkpt>
      <trkpt lat="46.47165" lon="8.24118">
        <ele>1357</ele>
        <time>2020-10-24T13:47:40.145Z</time>
      </trkpt>
      <trkpt lat="46.47165" lon="8.24118">
        <ele>1356</ele>
        <time>2020-10-24T13:47:41.146Z</time>
      </trkpt>
      <trkpt lat="46.47165" lon="8.24117">
        <ele>1356</ele>
        <time>2020-10-24T13:47:42.146Z</time>
      </trkpt>
      <trkpt lat="46.47166" lon="8.24117">
        <ele>1356</ele>
        <time>2020-10-24T13:47:43.146Z</time>
      </trkpt>
      <trkpt lat="46.47167" lon="8.24119">
        <ele>1356</ele>
        <time>2020-10-24T13:47:44.146Z</time>
      </trkpt>
      <trkpt lat="46.47168" lon="8.24119">
        <ele>1356</ele>
        <time>2020-10-24T13:47:45.146Z</time>
      </trkpt>
      <trkpt lat="46.47168" lon="8.24119">
        <ele>1355</ele>
        <time>2020-10-24T13:47:46.145Z</time>
      </trkpt>
      <trkpt lat="46.47168" lon="8.2412">
        <ele>1355</ele>
        <time>2020-10-24T13:47:47.145Z</time>
      </trkpt>
      <trkpt lat="46.47169" lon="8.24121">
        <ele>1355</ele>
        <time>2020-10-24T13:47:48.146Z</time>
      </trkpt>
      <trkpt lat="46.47169" lon="8.24122">
        <ele>1355</ele>
        <time>2020-10-24T13:47:49.146Z</time>
      </trkpt>
      <trkpt lat="46.47169" lon="8.24123">
        <ele>1355</ele>
        <time>2020-10-24T13:47:50.145Z</time>
      </trkpt>
      <trkpt lat="46.4717" lon="8.24124">
        <ele>1355</ele>
        <time>2020-10-24T13:47:51.146Z</time>
      </trkpt>
      <trkpt lat="46.4717" lon="8.24125">
        <ele>1355</ele>
        <time>2020-10-24T13:47:52.146Z</time>
      </trkpt>
      <trkpt lat="46.47171" lon="8.24125">
        <ele>1355</ele>
        <time>2020-10-24T13:47:53.146Z</time>
      </trkpt>
      <trkpt lat="46.47173" lon="8.24125">
        <ele>1354</ele>
        <time>2020-10-24T13:47:54.146Z</time>
      </trkpt>
      <trkpt lat="46.47173" lon="8.24124">
        <ele>1354</ele>
        <time>2020-10-24T13:47:55.145Z</time>
      </trkpt>
      <trkpt lat="46.47174" lon="8.24124">
        <ele>1354</ele>
        <time>2020-10-24T13:47:56.145Z</time>
      </trkpt>
      <trkpt lat="46.47174" lon="8.24125">
        <ele>1354</ele>
        <time>2020-10-24T13:47:57.146Z</time>
      </trkpt>
      <trkpt lat="46.47175" lon="8.24125">
        <ele>1353</ele>
        <time>2020-10-24T13:47:58.145Z</time>
      </trkpt>
      <trkpt lat="46.47175" lon="8.24125">
        <ele>1353</ele>
        <time>2020-10-24T13:47:59.145Z</time>
      </trkpt>
      <trkpt lat="46.47176" lon="8.24126">
        <ele>1353</ele>
        <time>2020-10-24T13:48:00.145Z</time>
      </trkpt>
      <trkpt lat="46.47176" lon="8.24125">
        <ele>1352</ele>
        <time>2020-10-24T13:48:01.145Z</time>
      </trkpt>
      <trkpt lat="46.47177" lon="8.24125">
        <ele>1352</ele>
        <time>2020-10-24T13:48:02.146Z</time>
      </trkpt>
      <trkpt lat="46.47177" lon="8.24124">
        <ele>1352</ele>
        <time>2020-10-24T13:48:03.146Z</time>
      </trkpt>
      <trkpt lat="46.47178" lon="8.24123">
        <ele>1352</ele>
        <time>2020-10-24T13:48:04.145Z</time>
      </trkpt>
      <trkpt lat="46.47179" lon="8.24122">
        <ele>1352</ele>
        <time>2020-10-24T13:48:05.145Z</time>
      </trkpt>
      <trkpt lat="46.4718" lon="8.24121">
        <ele>1353</ele>
        <time>2020-10-24T13:48:06.146Z</time>
      </trkpt>
      <trkpt lat="46.47181" lon="8.24121">
        <ele>1353</ele>
        <time>2020-10-24T13:48:07.146Z</time>
      </trkpt>
      <trkpt lat="46.47181" lon="8.2412">
        <ele>1353</ele>
        <time>2020-10-24T13:48:08.146Z</time>
      </trkpt>
      <trkpt lat="46.47181" lon="8.24121">
        <ele>1354</ele>
        <time>2020-10-24T13:48:09.146Z</time>
      </trkpt>
      <trkpt lat="46.47182" lon="8.24121">
        <ele>1355</ele>
        <time>2020-10-24T13:48:10.145Z</time>
      </trkpt>
      <trkpt lat="46.47182" lon="8.24121">
        <ele>1355</ele>
        <time>2020-10-24T13:48:11.145Z</time>
      </trkpt>
      <trkpt lat="46.47183" lon="8.24121">
        <ele>1355</ele>
        <time>2020-10-24T13:48:12.146Z</time>
      </trkpt>
      <trkpt lat="46.47184" lon="8.24121">
        <ele>1355</ele>
        <time>2020-10-24T13:48:13.146Z</time>
      </trkpt>
      <trkpt lat="46.47184" lon="8.24121">
        <ele>1355</ele>
        <time>2020-10-24T13:48:14.146Z</time>
      </trkpt>
      <trkpt lat="46.47185" lon="8.24122">
        <ele>1355</ele>
        <time>2020-10-24T13:48:15.146Z</time>
      </trkpt>
      <trkpt lat="46.47186" lon="8.24122">
        <ele>1356</ele>
        <time>2020-10-24T13:48:16.146Z</time>
      </trkpt>
      <trkpt lat="46.47188" lon="8.24122">
        <ele>1357</ele>
        <time>2020-10-24T13:48:17.145Z</time>
      </trkpt>
      <trkpt lat="46.47189" lon="8.24122">
        <ele>1358</ele>
        <time>2020-10-24T13:48:18.145Z</time>
      </trkpt>
      <trkpt lat="46.47189" lon="8.24123">
        <ele>1359</ele>
        <time>2020-10-24T13:48:19.145Z</time>
      </trkpt>
      <trkpt lat="46.47189" lon="8.24123">
        <ele>1360</ele>
        <time>2020-10-24T13:48:20.146Z</time>
      </trkpt>
      <trkpt lat="46.47189" lon="8.24124">
        <ele>1360</ele>
        <time>2020-10-24T13:48:21.145Z</time>
      </trkpt>
      <trkpt lat="46.47189" lon="8.24125">
        <ele>1361</ele>
        <time>2020-10-24T13:48:22.146Z</time>
      </trkpt>
      <trkpt lat="46.4719" lon="8.24125">
        <ele>1362</ele>
        <time>2020-10-24T13:48:23.146Z</time>
      </trkpt>
      <trkpt lat="46.47191" lon="8.24125">
        <ele>1362</ele>
        <time>2020-10-24T13:48:24.145Z</time>
      </trkpt>
      <trkpt lat="46.47192" lon="8.24126">
        <ele>1363</ele>
        <time>2020-10-24T13:48:25.145Z</time>
      </trkpt>
      <trkpt lat="46.47193" lon="8.24126">
        <ele>1363</ele>
        <time>2020-10-24T13:48:26.146Z</time>
      </trkpt>
      <trkpt lat="46.47193" lon="8.24127">
        <ele>1364</ele>
        <time>2020-10-24T13:48:27.146Z</time>
      </trkpt>
      <trkpt lat="46.47194" lon="8.24127">
        <ele>1365</ele>
        <time>2020-10-24T13:48:28.146Z</time>
      </trkpt>
      <trkpt lat="46.47195" lon="8.24128">
        <ele>1365</ele>
        <time>2020-10-24T13:48:29.145Z</time>
      </trkpt>
      <trkpt lat="46.47196" lon="8.24128">
        <ele>1366</ele>
        <time>2020-10-24T13:48:30.146Z</time>
      </trkpt>
      <trkpt lat="46.47197" lon="8.24128">
        <ele>1366</ele>
        <time>2020-10-24T13:48:31.146Z</time>
      </trkpt>
      <trkpt lat="46.47197" lon="8.24129">
        <ele>1367</ele>
        <time>2020-10-24T13:48:32.146Z</time>
      </trkpt>
      <trkpt lat="46.47198" lon="8.24131">
        <ele>1367</ele>
        <time>2020-10-24T13:48:33.146Z</time>
      </trkpt>
      <trkpt lat="46.47198" lon="8.24132">
        <ele>1368</ele>
        <time>2020-10-24T13:48:34.145Z</time>
      </trkpt>
      <trkpt lat="46.47197" lon="8.24133">
        <ele>1368</ele>
        <time>2020-10-24T13:48:35.145Z</time>
      </trkpt>
      <trkpt lat="46.47198" lon="8.24134">
        <ele>1368</ele>
        <time>2020-10-24T13:48:36.145Z</time>
      </trkpt>
      <trkpt lat="46.47198" lon="8.24135">
        <ele>1369</ele>
        <time>2020-10-24T13:48:37.145Z</time>
      </trkpt>
      <trkpt lat="46.47198" lon="8.24137">
        <ele>1369</ele>
        <time>2020-10-24T13:48:38.146Z</time>
      </trkpt>
      <trkpt lat="46.47198" lon="8.24138">
        <ele>1369</ele>
        <time>2020-10-24T13:48:39.145Z</time>
      </trkpt>
      <trkpt lat="46.47197" lon="8.2414">
        <ele>1369</ele>
        <time>2020-10-24T13:48:40.146Z</time>
      </trkpt>
      <trkpt lat="46.47196" lon="8.24142">
        <ele>1370</ele>
        <time>2020-10-24T13:48:41.146Z</time>
      </trkpt>
      <trkpt lat="46.47195" lon="8.24144">
        <ele>1370</ele>
        <time>2020-10-24T13:48:42.145Z</time>
      </trkpt>
      <trkpt lat="46.47195" lon="8.24144">
        <ele>1370</ele>
        <time>2020-10-24T13:48:43.146Z</time>
      </trkpt>
      <trkpt lat="46.47196" lon="8.24144">
        <ele>1371</ele>
        <time>2020-10-24T13:48:44.145Z</time>
      </trkpt>
      <trkpt lat="46.47197" lon="8.24143">
        <ele>1371</ele>
        <time>2020-10-24T13:48:45.145Z</time>
      </trkpt>
      <trkpt lat="46.47198" lon="8.24142">
        <ele>1371</ele>
        <time>2020-10-24T13:48:46.145Z</time>
      </trkpt>
      <trkpt lat="46.47199" lon="8.24143">
        <ele>1371</ele>
        <time>2020-10-24T13:48:47.145Z</time>
      </trkpt>
      <trkpt lat="46.472" lon="8.24142">
        <ele>1372</ele>
        <time>2020-10-24T13:48:48.145Z</time>
      </trkpt>
      <trkpt lat="46.472" lon="8.24142">
        <ele>1372</ele>
        <time>2020-10-24T13:48:49.146Z</time>
      </trkpt>
      <trkpt lat="46.47201" lon="8.24142">
        <ele>1372</ele>
        <time>2020-10-24T13:48:50.145Z</time>
      </trkpt>
      <trkpt lat="46.47202" lon="8.24142">
        <ele>1372</ele>
        <time>2020-10-24T13:48:51.146Z</time>
      </trkpt>
      <trkpt lat="46.47203" lon="8.24142">
        <ele>1371</ele>
        <time>2020-10-24T13:48:52.146Z</time>
      </trkpt>
      <trkpt lat="46.47204" lon="8.24142">
        <ele>1371</ele>
        <time>2020-10-24T13:48:53.146Z</time>
      </trkpt>
      <trkpt lat="46.47204" lon="8.24142">
        <ele>1371</ele>
        <time>2020-10-24T13:48:54.146Z</time>
      </trkpt>
      <trkpt lat="46.47205" lon="8.24142">
        <ele>1372</ele>
        <time>2020-10-24T13:48:55.146Z</time>
      </trkpt>
      <trkpt lat="46.47206" lon="8.24142">
        <ele>1372</ele>
        <time>2020-10-24T13:48:56.146Z</time>
      </trkpt>
      <trkpt lat="46.47207" lon="8.24142">
        <ele>1372</ele>
        <time>2020-10-24T13:48:57.146Z</time>
      </trkpt>
      <trkpt lat="46.47208" lon="8.24142">
        <ele>1372</ele>
        <time>2020-10-24T13:48:58.146Z</time>
      </trkpt>
      <trkpt lat="46.4721" lon="8.2414">
        <ele>1371</ele>
        <time>2020-10-24T13:48:59.146Z</time>
      </trkpt>
      <trkpt lat="46.47211" lon="8.24139">
        <ele>1371</ele>
        <time>2020-10-24T13:49:00.145Z</time>
      </trkpt>
      <trkpt lat="46.47213" lon="8.24139">
        <ele>1371</ele>
        <time>2020-10-24T13:49:01.145Z</time>
      </trkpt>
      <trkpt lat="46.47215" lon="8.24138">
        <ele>1371</ele>
        <time>2020-10-24T13:49:02.146Z</time>
      </trkpt>
      <trkpt lat="46.47217" lon="8.24137">
        <ele>1372</ele>
        <time>2020-10-24T13:49:03.146Z</time>
      </trkpt>
      <trkpt lat="46.47218" lon="8.24137">
        <ele>1372</ele>
        <time>2020-10-24T13:49:04.146Z</time>
      </trkpt>
      <trkpt lat="46.47219" lon="8.24137">
        <ele>1372</ele>
        <time>2020-10-24T13:49:05.146Z</time>
      </trkpt>
      <trkpt lat="46.47221" lon="8.24137">
        <ele>1372</ele>
        <time>2020-10-24T13:49:06.145Z</time>
      </trkpt>
      <trkpt lat="46.47222" lon="8.24137">
        <ele>1372</ele>
        <time>2020-10-24T13:49:07.145Z</time>
      </trkpt>
      <trkpt lat="46.47223" lon="8.24136">
        <ele>1372</ele>
        <time>2020-10-24T13:49:08.146Z</time>
      </trkpt>
      <trkpt lat="46.47224" lon="8.24136">
        <ele>1372</ele>
        <time>2020-10-24T13:49:09.146Z</time>
      </trkpt>
      <trkpt lat="46.47225" lon="8.24136">
        <ele>1372</ele>
        <time>2020-10-24T13:49:10.146Z</time>
      </trkpt>
      <trkpt lat="46.47226" lon="8.24137">
        <ele>1372</ele>
        <time>2020-10-24T13:49:11.146Z</time>
      </trkpt>
      <trkpt lat="46.47227" lon="8.24137">
        <ele>1372</ele>
        <time>2020-10-24T13:49:12.146Z</time>
      </trkpt>
      <trkpt lat="46.47227" lon="8.24137">
        <ele>1372</ele>
        <time>2020-10-24T13:49:13.145Z</time>
      </trkpt>
      <trkpt lat="46.47229" lon="8.24136">
        <ele>1372</ele>
        <time>2020-10-24T13:49:14.145Z</time>
      </trkpt>
      <trkpt lat="46.47231" lon="8.24136">
        <ele>1372</ele>
        <time>2020-10-24T13:49:15.145Z</time>
      </trkpt>
      <trkpt lat="46.47232" lon="8.24136">
        <ele>1373</ele>
        <time>2020-10-24T13:49:16.145Z</time>
      </trkpt>
      <trkpt lat="46.47234" lon="8.24137">
        <ele>1373</ele>
        <time>2020-10-24T13:49:17.146Z</time>
      </trkpt>
      <trkpt lat="46.47235" lon="8.24138">
        <ele>1373</ele>
        <time>2020-10-24T13:49:18.146Z</time>
      </trkpt>
      <trkpt lat="46.47236" lon="8.24138">
        <ele>1373</ele>
        <time>2020-10-24T13:49:19.145Z</time>
      </trkpt>
      <trkpt lat="46.47236" lon="8.24138">
        <ele>1373</ele>
        <time>2020-10-24T13:49:20.146Z</time>
      </trkpt>
      <trkpt lat="46.47237" lon="8.24138">
        <ele>1374</ele>
        <time>2020-10-24T13:49:21.146Z</time>
      </trkpt>
      <trkpt lat="46.47237" lon="8.24138">
        <ele>1374</ele>
        <time>2020-10-24T13:49:22.146Z</time>
      </trkpt>
      <trkpt lat="46.47238" lon="8.24139">
        <ele>1375</ele>
        <time>2020-10-24T13:49:23.146Z</time>
      </trkpt>
      <trkpt lat="46.47239" lon="8.24138">
        <ele>1375</ele>
        <time>2020-10-24T13:49:24.145Z</time>
      </trkpt>
      <trkpt lat="46.47241" lon="8.24137">
        <ele>1376</ele>
        <time>2020-10-24T13:49:25.145Z</time>
      </trkpt>
      <trkpt lat="46.47242" lon="8.24136">
        <ele>1376</ele>
        <time>2020-10-24T13:49:26.145Z</time>
      </trkpt>
      <trkpt lat="46.47243" lon="8.24137">
        <ele>1376</ele>
        <time>2020-10-24T13:49:27.146Z</time>
      </trkpt>
      <trkpt lat="46.47243" lon="8.24138">
        <ele>1376</ele>
        <time>2020-10-24T13:49:28.145Z</time>
      </trkpt>
      <trkpt lat="46.47244" lon="8.24138">
        <ele>1376</ele>
        <time>2020-10-24T13:49:29.146Z</time>
      </trkpt>
      <trkpt lat="46.47245" lon="8.24139">
        <ele>1377</ele>
        <time>2020-10-24T13:49:30.146Z</time>
      </trkpt>
      <trkpt lat="46.47246" lon="8.24139">
        <ele>1377</ele>
        <time>2020-10-24T13:49:31.146Z</time>
      </trkpt>
      <trkpt lat="46.47247" lon="8.24138">
        <ele>1377</ele>
        <time>2020-10-24T13:49:32.145Z</time>
      </trkpt>
      <trkpt lat="46.47248" lon="8.24139">
        <ele>1377</ele>
        <time>2020-10-24T13:49:33.146Z</time>
      </trkpt>
      <trkpt lat="46.47248" lon="8.24139">
        <ele>1378</ele>
        <time>2020-10-24T13:49:34.146Z</time>
      </trkpt>
      <trkpt lat="46.47249" lon="8.2414">
        <ele>1378</ele>
        <time>2020-10-24T13:49:35.146Z</time>
      </trkpt>
      <trkpt lat="46.47249" lon="8.2414">
        <ele>1378</ele>
        <time>2020-10-24T13:49:36.146Z</time>
      </trkpt>
      <trkpt lat="46.4725" lon="8.24141">
        <ele>1378</ele>
        <time>2020-10-24T13:49:37.146Z</time>
      </trkpt>
      <trkpt lat="46.4725" lon="8.24142">
        <ele>1378</ele>
        <time>2020-10-24T13:49:38.146Z</time>
      </trkpt>
      <trkpt lat="46.4725" lon="8.24143">
        <ele>1378</ele>
        <time>2020-10-24T13:49:39.146Z</time>
      </trkpt>
      <trkpt lat="46.4725" lon="8.24144">
        <ele>1378</ele>
        <time>2020-10-24T13:49:40.146Z</time>
      </trkpt>
      <trkpt lat="46.4725" lon="8.24145">
        <ele>1378</ele>
        <time>2020-10-24T13:49:41.146Z</time>
      </trkpt>
      <trkpt lat="46.47251" lon="8.24145">
        <ele>1378</ele>
        <time>2020-10-24T13:49:42.145Z</time>
      </trkpt>
      <trkpt lat="46.47251" lon="8.24147">
        <ele>1378</ele>
        <time>2020-10-24T13:49:43.146Z</time>
      </trkpt>
      <trkpt lat="46.47251" lon="8.24148">
        <ele>1378</ele>
        <time>2020-10-24T13:49:44.145Z</time>
      </trkpt>
      <trkpt lat="46.47251" lon="8.24149">
        <ele>1378</ele>
        <time>2020-10-24T13:49:45.146Z</time>
      </trkpt>
      <trkpt lat="46.47251" lon="8.2415">
        <ele>1379</ele>
        <time>2020-10-24T13:49:46.146Z</time>
      </trkpt>
      <trkpt lat="46.47252" lon="8.24151">
        <ele>1379</ele>
        <time>2020-10-24T13:49:47.146Z</time>
      </trkpt>
      <trkpt lat="46.47253" lon="8.24152">
        <ele>1380</ele>
        <time>2020-10-24T13:49:48.146Z</time>
      </trkpt>
      <trkpt lat="46.47253" lon="8.24152">
        <ele>1380</ele>
        <time>2020-10-24T13:49:49.145Z</time>
      </trkpt>
      <trkpt lat="46.47254" lon="8.24153">
        <ele>1380</ele>
        <time>2020-10-24T13:49:50.146Z</time>
      </trkpt>
      <trkpt lat="46.47254" lon="8.24154">
        <ele>1380</ele>
        <time>2020-10-24T13:49:51.146Z</time>
      </trkpt>
      <trkpt lat="46.47254" lon="8.24155">
        <ele>1381</ele>
        <time>2020-10-24T13:49:52.145Z</time>
      </trkpt>
      <trkpt lat="46.47255" lon="8.24156">
        <ele>1381</ele>
        <time>2020-10-24T13:49:53.145Z</time>
      </trkpt>
      <trkpt lat="46.47255" lon="8.24157">
        <ele>1381</ele>
        <time>2020-10-24T13:49:54.145Z</time>
      </trkpt>
      <trkpt lat="46.47256" lon="8.24157">
        <ele>1381</ele>
        <time>2020-10-24T13:49:55.146Z</time>
      </trkpt>
      <trkpt lat="46.47257" lon="8.24158">
        <ele>1381</ele>
        <time>2020-10-24T13:49:56.145Z</time>
      </trkpt>
      <trkpt lat="46.47258" lon="8.24158">
        <ele>1381</ele>
        <time>2020-10-24T13:49:57.146Z</time>
      </trkpt>
      <trkpt lat="46.47259" lon="8.24158">
        <ele>1381</ele>
        <time>2020-10-24T13:49:58.146Z</time>
      </trkpt>
      <trkpt lat="46.4726" lon="8.24158">
        <ele>1382</ele>
        <time>2020-10-24T13:49:59.146Z</time>
      </trkpt>
      <trkpt lat="46.47261" lon="8.24158">
        <ele>1383</ele>
        <time>2020-10-24T13:50:00.146Z</time>
      </trkpt>
      <trkpt lat="46.47262" lon="8.24158">
        <ele>1383</ele>
        <time>2020-10-24T13:50:01.146Z</time>
      </trkpt>
      <trkpt lat="46.47262" lon="8.24158">
        <ele>1384</ele>
        <time>2020-10-24T13:50:02.146Z</time>
      </trkpt>
      <trkpt lat="46.47263" lon="8.24159">
        <ele>1385</ele>
        <time>2020-10-24T13:50:03.146Z</time>
      </trkpt>
      <trkpt lat="46.47264" lon="8.24159">
        <ele>1386</ele>
        <time>2020-10-24T13:50:04.146Z</time>
      </trkpt>
      <trkpt lat="46.47264" lon="8.2416">
        <ele>1386</ele>
        <time>2020-10-24T13:50:05.146Z</time>
      </trkpt>
      <trkpt lat="46.47265" lon="8.2416">
        <ele>1386</ele>
        <time>2020-10-24T13:50:06.146Z</time>
      </trkpt>
      <trkpt lat="46.47266" lon="8.2416">
        <ele>1386</ele>
        <time>2020-10-24T13:50:07.146Z</time>
      </trkpt>
      <trkpt lat="46.47267" lon="8.2416">
        <ele>1386</ele>
        <time>2020-10-24T13:50:08.146Z</time>
      </trkpt>
      <trkpt lat="46.47267" lon="8.2416">
        <ele>1386</ele>
        <time>2020-10-24T13:50:09.146Z</time>
      </trkpt>
      <trkpt lat="46.47268" lon="8.2416">
        <ele>1386</ele>
        <time>2020-10-24T13:50:10.146Z</time>
      </trkpt>
      <trkpt lat="46.47269" lon="8.2416">
        <ele>1386</ele>
        <time>2020-10-24T13:50:11.146Z</time>
      </trkpt>
      <trkpt lat="46.4727" lon="8.24161">
        <ele>1386</ele>
        <time>2020-10-24T13:50:12.146Z</time>
      </trkpt>
      <trkpt lat="46.47271" lon="8.24161">
        <ele>1386</ele>
        <time>2020-10-24T13:50:13.146Z</time>
      </trkpt>
      <trkpt lat="46.47272" lon="8.24161">
        <ele>1386</ele>
        <time>2020-10-24T13:50:14.146Z</time>
      </trkpt>
      <trkpt lat="46.47273" lon="8.24161">
        <ele>1386</ele>
        <time>2020-10-24T13:50:15.145Z</time>
      </trkpt>
      <trkpt lat="46.47273" lon="8.24161">
        <ele>1387</ele>
        <time>2020-10-24T13:50:16.145Z</time>
      </trkpt>
      <trkpt lat="46.47274" lon="8.24161">
        <ele>1387</ele>
        <time>2020-10-24T13:50:17.145Z</time>
      </trkpt>
      <trkpt lat="46.47274" lon="8.24161">
        <ele>1387</ele>
        <time>2020-10-24T13:50:18.145Z</time>
      </trkpt>
      <trkpt lat="46.47275" lon="8.24161">
        <ele>1387</ele>
        <time>2020-10-24T13:50:19.145Z</time>
      </trkpt>
      <trkpt lat="46.47276" lon="8.24161">
        <ele>1386</ele>
        <time>2020-10-24T13:50:20.146Z</time>
      </trkpt>
      <trkpt lat="46.47277" lon="8.24161">
        <ele>1386</ele>
        <time>2020-10-24T13:50:21.145Z</time>
      </trkpt>
      <trkpt lat="46.47279" lon="8.24162">
        <ele>1386</ele>
        <time>2020-10-24T13:50:22.146Z</time>
      </trkpt>
      <trkpt lat="46.47279" lon="8.24162">
        <ele>1386</ele>
        <time>2020-10-24T13:50:23.146Z</time>
      </trkpt>
      <trkpt lat="46.4728" lon="8.24162">
        <ele>1386</ele>
        <time>2020-10-24T13:50:24.146Z</time>
      </trkpt>
      <trkpt lat="46.47281" lon="8.24163">
        <ele>1386</ele>
        <time>2020-10-24T13:50:25.146Z</time>
      </trkpt>
      <trkpt lat="46.47282" lon="8.24163">
        <ele>1387</ele>
        <time>2020-10-24T13:50:26.146Z</time>
      </trkpt>
      <trkpt lat="46.47282" lon="8.24163">
        <ele>1387</ele>
        <time>2020-10-24T13:50:27.146Z</time>
      </trkpt>
      <trkpt lat="46.47283" lon="8.24163">
        <ele>1387</ele>
        <time>2020-10-24T13:50:28.145Z</time>
      </trkpt>
      <trkpt lat="46.47283" lon="8.24163">
        <ele>1388</ele>
        <time>2020-10-24T13:50:29.146Z</time>
      </trkpt>
      <trkpt lat="46.47284" lon="8.24163">
        <ele>1388</ele>
        <time>2020-10-24T13:50:30.145Z</time>
      </trkpt>
      <trkpt lat="46.47285" lon="8.24163">
        <ele>1388</ele>
        <time>2020-10-24T13:50:31.146Z</time>
      </trkpt>
      <trkpt lat="46.47286" lon="8.24163">
        <ele>1389</ele>
        <time>2020-10-24T13:50:32.146Z</time>
      </trkpt>
      <trkpt lat="46.47287" lon="8.24163">
        <ele>1389</ele>
        <time>2020-10-24T13:50:33.145Z</time>
      </trkpt>
      <trkpt lat="46.47288" lon="8.24163">
        <ele>1389</ele>
        <time>2020-10-24T13:50:34.145Z</time>
      </trkpt>
      <trkpt lat="46.47288" lon="8.24163">
        <ele>1389</ele>
        <time>2020-10-24T13:50:35.145Z</time>
      </trkpt>
      <trkpt lat="46.47289" lon="8.24163">
        <ele>1389</ele>
        <time>2020-10-24T13:50:36.145Z</time>
      </trkpt>
      <trkpt lat="46.4729" lon="8.24163">
        <ele>1389</ele>
        <time>2020-10-24T13:50:37.146Z</time>
      </trkpt>
      <trkpt lat="46.4729" lon="8.24163">
        <ele>1389</ele>
        <time>2020-10-24T13:50:38.146Z</time>
      </trkpt>
      <trkpt lat="46.47291" lon="8.24163">
        <ele>1389</ele>
        <time>2020-10-24T13:50:39.146Z</time>
      </trkpt>
      <trkpt lat="46.47292" lon="8.24164">
        <ele>1389</ele>
        <time>2020-10-24T13:50:40.146Z</time>
      </trkpt>
      <trkpt lat="46.47293" lon="8.24164">
        <ele>1390</ele>
        <time>2020-10-24T13:50:41.146Z</time>
      </trkpt>
      <trkpt lat="46.47293" lon="8.24165">
        <ele>1390</ele>
        <time>2020-10-24T13:50:42.145Z</time>
      </trkpt>
      <trkpt lat="46.47293" lon="8.24166">
        <ele>1391</ele>
        <time>2020-10-24T13:50:43.146Z</time>
      </trkpt>
      <trkpt lat="46.47294" lon="8.24167">
        <ele>1391</ele>
        <time>2020-10-24T13:50:44.145Z</time>
      </trkpt>
      <trkpt lat="46.47294" lon="8.24168">
        <ele>1391</ele>
        <time>2020-10-24T13:50:45.146Z</time>
      </trkpt>
      <trkpt lat="46.47295" lon="8.24169">
        <ele>1392</ele>
        <time>2020-10-24T13:50:46.146Z</time>
      </trkpt>
      <trkpt lat="46.47295" lon="8.2417">
        <ele>1393</ele>
        <time>2020-10-24T13:50:47.146Z</time>
      </trkpt>
      <trkpt lat="46.47295" lon="8.24172">
        <ele>1393</ele>
        <time>2020-10-24T13:50:48.145Z</time>
      </trkpt>
      <trkpt lat="46.47296" lon="8.24172">
        <ele>1393</ele>
        <time>2020-10-24T13:50:49.146Z</time>
      </trkpt>
      <trkpt lat="46.47296" lon="8.24173">
        <ele>1394</ele>
        <time>2020-10-24T13:50:50.146Z</time>
      </trkpt>
      <trkpt lat="46.47297" lon="8.24175">
        <ele>1394</ele>
        <time>2020-10-24T13:50:51.145Z</time>
      </trkpt>
      <trkpt lat="46.47297" lon="8.24176">
        <ele>1395</ele>
        <time>2020-10-24T13:50:52.145Z</time>
      </trkpt>
      <trkpt lat="46.47297" lon="8.24177">
        <ele>1396</ele>
        <time>2020-10-24T13:50:53.146Z</time>
      </trkpt>
      <trkpt lat="46.47297" lon="8.24178">
        <ele>1396</ele>
        <time>2020-10-24T13:50:54.146Z</time>
      </trkpt>
      <trkpt lat="46.47298" lon="8.24179">
        <ele>1396</ele>
        <time>2020-10-24T13:50:55.146Z</time>
      </trkpt>
      <trkpt lat="46.47298" lon="8.2418">
        <ele>1396</ele>
        <time>2020-10-24T13:50:56.145Z</time>
      </trkpt>
      <trkpt lat="46.47298" lon="8.24181">
        <ele>1396</ele>
        <time>2020-10-24T13:50:57.146Z</time>
      </trkpt>
      <trkpt lat="46.47299" lon="8.24182">
        <ele>1396</ele>
        <time>2020-10-24T13:50:58.145Z</time>
      </trkpt>
      <trkpt lat="46.473" lon="8.24183">
        <ele>1396</ele>
        <time>2020-10-24T13:50:59.145Z</time>
      </trkpt>
      <trkpt lat="46.473" lon="8.24184">
        <ele>1396</ele>
        <time>2020-10-24T13:51:00.146Z</time>
      </trkpt>
      <trkpt lat="46.47301" lon="8.24185">
        <ele>1395</ele>
        <time>2020-10-24T13:51:01.146Z</time>
      </trkpt>
      <trkpt lat="46.47301" lon="8.24185">
        <ele>1395</ele>
        <time>2020-10-24T13:51:02.146Z</time>
      </trkpt>
      <trkpt lat="46.47302" lon="8.24185">
        <ele>1395</ele>
        <time>2020-10-24T13:51:03.146Z</time>
      </trkpt>
      <trkpt lat="46.47303" lon="8.24185">
        <ele>1395</ele>
        <time>2020-10-24T13:51:04.146Z</time>
      </trkpt>
      <trkpt lat="46.47304" lon="8.24185">
        <ele>1395</ele>
        <time>2020-10-24T13:51:05.146Z</time>
      </trkpt>
      <trkpt lat="46.47304" lon="8.24186">
        <ele>1395</ele>
        <time>2020-10-24T13:51:06.146Z</time>
      </trkpt>
      <trkpt lat="46.47306" lon="8.24187">
        <ele>1395</ele>
        <time>2020-10-24T13:51:07.146Z</time>
      </trkpt>
      <trkpt lat="46.47307" lon="8.24186">
        <ele>1394</ele>
        <time>2020-10-24T13:51:08.146Z</time>
      </trkpt>
      <trkpt lat="46.47308" lon="8.24186">
        <ele>1394</ele>
        <time>2020-10-24T13:51:09.146Z</time>
      </trkpt>
      <trkpt lat="46.47309" lon="8.24186">
        <ele>1394</ele>
        <time>2020-10-24T13:51:10.146Z</time>
      </trkpt>
      <trkpt lat="46.4731" lon="8.24186">
        <ele>1393</ele>
        <time>2020-10-24T13:51:11.145Z</time>
      </trkpt>
      <trkpt lat="46.47311" lon="8.24186">
        <ele>1393</ele>
        <time>2020-10-24T13:51:12.146Z</time>
      </trkpt>
      <trkpt lat="46.47312" lon="8.24186">
        <ele>1393</ele>
        <time>2020-10-24T13:51:13.145Z</time>
      </trkpt>
      <trkpt lat="46.47313" lon="8.24187">
        <ele>1393</ele>
        <time>2020-10-24T13:51:14.146Z</time>
      </trkpt>
      <trkpt lat="46.47314" lon="8.24187">
        <ele>1393</ele>
        <time>2020-10-24T13:51:15.146Z</time>
      </trkpt>
      <trkpt lat="46.47315" lon="8.24187">
        <ele>1393</ele>
        <time>2020-10-24T13:51:16.145Z</time>
      </trkpt>
      <trkpt lat="46.47316" lon="8.24187">
        <ele>1393</ele>
        <time>2020-10-24T13:51:17.145Z</time>
      </trkpt>
      <trkpt lat="46.47317" lon="8.24187">
        <ele>1393</ele>
        <time>2020-10-24T13:51:18.145Z</time>
      </trkpt>
      <trkpt lat="46.47318" lon="8.24188">
        <ele>1392</ele>
        <time>2020-10-24T13:51:19.145Z</time>
      </trkpt>
      <trkpt lat="46.47319" lon="8.24188">
        <ele>1392</ele>
        <time>2020-10-24T13:51:20.146Z</time>
      </trkpt>
      <trkpt lat="46.47319" lon="8.24188">
        <ele>1392</ele>
        <time>2020-10-24T13:51:21.146Z</time>
      </trkpt>
      <trkpt lat="46.4732" lon="8.24188">
        <ele>1392</ele>
        <time>2020-10-24T13:51:22.146Z</time>
      </trkpt>
      <trkpt lat="46.47321" lon="8.24189">
        <ele>1392</ele>
        <time>2020-10-24T13:51:23.146Z</time>
      </trkpt>
      <trkpt lat="46.47321" lon="8.24189">
        <ele>1392</ele>
        <time>2020-10-24T13:51:24.145Z</time>
      </trkpt>
      <trkpt lat="46.47322" lon="8.2419">
        <ele>1392</ele>
        <time>2020-10-24T13:51:25.146Z</time>
      </trkpt>
      <trkpt lat="46.47323" lon="8.2419">
        <ele>1392</ele>
        <time>2020-10-24T13:51:26.146Z</time>
      </trkpt>
      <trkpt lat="46.47323" lon="8.2419">
        <ele>1392</ele>
        <time>2020-10-24T13:51:27.146Z</time>
      </trkpt>
      <trkpt lat="46.47324" lon="8.2419">
        <ele>1392</ele>
        <time>2020-10-24T13:51:28.146Z</time>
      </trkpt>
      <trkpt lat="46.47324" lon="8.24191">
        <ele>1392</ele>
        <time>2020-10-24T13:51:29.146Z</time>
      </trkpt>
      <trkpt lat="46.47325" lon="8.24191">
        <ele>1392</ele>
        <time>2020-10-24T13:51:30.146Z</time>
      </trkpt>
      <trkpt lat="46.47326" lon="8.24192">
        <ele>1392</ele>
        <time>2020-10-24T13:51:31.146Z</time>
      </trkpt>
      <trkpt lat="46.47327" lon="8.24192">
        <ele>1393</ele>
        <time>2020-10-24T13:51:32.145Z</time>
      </trkpt>
      <trkpt lat="46.47328" lon="8.24193">
        <ele>1393</ele>
        <time>2020-10-24T13:51:33.145Z</time>
      </trkpt>
      <trkpt lat="46.47329" lon="8.24193">
        <ele>1393</ele>
        <time>2020-10-24T13:51:34.146Z</time>
      </trkpt>
      <trkpt lat="46.47329" lon="8.24193">
        <ele>1393</ele>
        <time>2020-10-24T13:51:35.146Z</time>
      </trkpt>
      <trkpt lat="46.4733" lon="8.24194">
        <ele>1394</ele>
        <time>2020-10-24T13:51:36.146Z</time>
      </trkpt>
      <trkpt lat="46.47332" lon="8.24194">
        <ele>1394</ele>
        <time>2020-10-24T13:51:37.146Z</time>
      </trkpt>
      <trkpt lat="46.47332" lon="8.24194">
        <ele>1395</ele>
        <time>2020-10-24T13:51:38.146Z</time>
      </trkpt>
      <trkpt lat="46.47333" lon="8.24195">
        <ele>1395</ele>
        <time>2020-10-24T13:51:39.145Z</time>
      </trkpt>
      <trkpt lat="46.47334" lon="8.24195">
        <ele>1396</ele>
        <time>2020-10-24T13:51:40.146Z</time>
      </trkpt>
      <trkpt lat="46.47335" lon="8.24195">
        <ele>1396</ele>
        <time>2020-10-24T13:51:41.146Z</time>
      </trkpt>
      <trkpt lat="46.47336" lon="8.24195">
        <ele>1396</ele>
        <time>2020-10-24T13:51:42.146Z</time>
      </trkpt>
      <trkpt lat="46.47336" lon="8.24196">
        <ele>1397</ele>
        <time>2020-10-24T13:51:43.145Z</time>
      </trkpt>
      <trkpt lat="46.47337" lon="8.24197">
        <ele>1397</ele>
        <time>2020-10-24T13:51:44.146Z</time>
      </trkpt>
      <trkpt lat="46.47337" lon="8.24198">
        <ele>1397</ele>
        <time>2020-10-24T13:51:45.145Z</time>
      </trkpt>
      <trkpt lat="46.47338" lon="8.242">
        <ele>1397</ele>
        <time>2020-10-24T13:51:46.145Z</time>
      </trkpt>
      <trkpt lat="46.47338" lon="8.24201">
        <ele>1398</ele>
        <time>2020-10-24T13:51:47.146Z</time>
      </trkpt>
      <trkpt lat="46.47338" lon="8.24202">
        <ele>1399</ele>
        <time>2020-10-24T13:51:48.146Z</time>
      </trkpt>
      <trkpt lat="46.47339" lon="8.24203">
        <ele>1399</ele>
        <time>2020-10-24T13:51:49.146Z</time>
      </trkpt>
      <trkpt lat="46.4734" lon="8.24203">
        <ele>1399</ele>
        <time>2020-10-24T13:51:50.146Z</time>
      </trkpt>
      <trkpt lat="46.47341" lon="8.24203">
        <ele>1399</ele>
        <time>2020-10-24T13:51:51.146Z</time>
      </trkpt>
      <trkpt lat="46.47342" lon="8.24203">
        <ele>1399</ele>
        <time>2020-10-24T13:51:52.145Z</time>
      </trkpt>
      <trkpt lat="46.47343" lon="8.24204">
        <ele>1399</ele>
        <time>2020-10-24T13:51:53.146Z</time>
      </trkpt>
      <trkpt lat="46.47344" lon="8.24205">
        <ele>1399</ele>
        <time>2020-10-24T13:51:54.145Z</time>
      </trkpt>
      <trkpt lat="46.47344" lon="8.24205">
        <ele>1399</ele>
        <time>2020-10-24T13:51:55.146Z</time>
      </trkpt>
      <trkpt lat="46.47346" lon="8.24206">
        <ele>1399</ele>
        <time>2020-10-24T13:51:56.146Z</time>
      </trkpt>
      <trkpt lat="46.47347" lon="8.24206">
        <ele>1399</ele>
        <time>2020-10-24T13:51:57.145Z</time>
      </trkpt>
      <trkpt lat="46.47348" lon="8.24206">
        <ele>1399</ele>
        <time>2020-10-24T13:51:58.146Z</time>
      </trkpt>
      <trkpt lat="46.47349" lon="8.24207">
        <ele>1399</ele>
        <time>2020-10-24T13:51:59.145Z</time>
      </trkpt>
      <trkpt lat="46.4735" lon="8.24208">
        <ele>1399</ele>
        <time>2020-10-24T13:52:00.145Z</time>
      </trkpt>
      <trkpt lat="46.4735" lon="8.24208">
        <ele>1399</ele>
        <time>2020-10-24T13:52:01.145Z</time>
      </trkpt>
      <trkpt lat="46.47351" lon="8.24208">
        <ele>1399</ele>
        <time>2020-10-24T13:52:02.146Z</time>
      </trkpt>
      <trkpt lat="46.47352" lon="8.24209">
        <ele>1399</ele>
        <time>2020-10-24T13:52:03.146Z</time>
      </trkpt>
      <trkpt lat="46.47353" lon="8.24209">
        <ele>1400</ele>
        <time>2020-10-24T13:52:04.146Z</time>
      </trkpt>
      <trkpt lat="46.47354" lon="8.2421">
        <ele>1400</ele>
        <time>2020-10-24T13:52:05.146Z</time>
      </trkpt>
      <trkpt lat="46.47355" lon="8.2421">
        <ele>1401</ele>
        <time>2020-10-24T13:52:06.146Z</time>
      </trkpt>
      <trkpt lat="46.47356" lon="8.2421">
        <ele>1401</ele>
        <time>2020-10-24T13:52:07.146Z</time>
      </trkpt>
      <trkpt lat="46.47357" lon="8.2421">
        <ele>1402</ele>
        <time>2020-10-24T13:52:08.145Z</time>
      </trkpt>
      <trkpt lat="46.47357" lon="8.24211">
        <ele>1403</ele>
        <time>2020-10-24T13:52:09.146Z</time>
      </trkpt>
      <trkpt lat="46.47358" lon="8.24211">
        <ele>1403</ele>
        <time>2020-10-24T13:52:10.145Z</time>
      </trkpt>
      <trkpt lat="46.47359" lon="8.24212">
        <ele>1403</ele>
        <time>2020-10-24T13:52:11.146Z</time>
      </trkpt>
      <trkpt lat="46.4736" lon="8.24212">
        <ele>1403</ele>
        <time>2020-10-24T13:52:12.146Z</time>
      </trkpt>
      <trkpt lat="46.47361" lon="8.24212">
        <ele>1402</ele>
        <time>2020-10-24T13:52:13.146Z</time>
      </trkpt>
      <trkpt lat="46.47362" lon="8.24212">
        <ele>1402</ele>
        <time>2020-10-24T13:52:14.146Z</time>
      </trkpt>
      <trkpt lat="46.47362" lon="8.24213">
        <ele>1402</ele>
        <time>2020-10-24T13:52:15.145Z</time>
      </trkpt>
      <trkpt lat="46.47363" lon="8.24213">
        <ele>1402</ele>
        <time>2020-10-24T13:52:16.146Z</time>
      </trkpt>
      <trkpt lat="46.47364" lon="8.24214">
        <ele>1402</ele>
        <time>2020-10-24T13:52:17.145Z</time>
      </trkpt>
      <trkpt lat="46.47365" lon="8.24215">
        <ele>1401</ele>
        <time>2020-10-24T13:52:18.146Z</time>
      </trkpt>
      <trkpt lat="46.47366" lon="8.24215">
        <ele>1400</ele>
        <time>2020-10-24T13:52:19.145Z</time>
      </trkpt>
      <trkpt lat="46.47367" lon="8.24215">
        <ele>1400</ele>
        <time>2020-10-24T13:52:20.146Z</time>
      </trkpt>
      <trkpt lat="46.47367" lon="8.24216">
        <ele>1399</ele>
        <time>2020-10-24T13:52:21.146Z</time>
      </trkpt>
      <trkpt lat="46.47368" lon="8.24216">
        <ele>1399</ele>
        <time>2020-10-24T13:52:22.146Z</time>
      </trkpt>
      <trkpt lat="46.47369" lon="8.24216">
        <ele>1399</ele>
        <time>2020-10-24T13:52:23.146Z</time>
      </trkpt>
      <trkpt lat="46.4737" lon="8.24217">
        <ele>1399</ele>
        <time>2020-10-24T13:52:24.146Z</time>
      </trkpt>
      <trkpt lat="46.4737" lon="8.24217">
        <ele>1399</ele>
        <time>2020-10-24T13:52:25.145Z</time>
      </trkpt>
      <trkpt lat="46.47371" lon="8.24217">
        <ele>1400</ele>
        <time>2020-10-24T13:52:26.145Z</time>
      </trkpt>
      <trkpt lat="46.47372" lon="8.24217">
        <ele>1400</ele>
        <time>2020-10-24T13:52:27.146Z</time>
      </trkpt>
      <trkpt lat="46.47373" lon="8.24217">
        <ele>1401</ele>
        <time>2020-10-24T13:52:28.145Z</time>
      </trkpt>
      <trkpt lat="46.47374" lon="8.24217">
        <ele>1401</ele>
        <time>2020-10-24T13:52:29.145Z</time>
      </trkpt>
      <trkpt lat="46.47375" lon="8.24217">
        <ele>1402</ele>
        <time>2020-10-24T13:52:30.146Z</time>
      </trkpt>
      <trkpt lat="46.47376" lon="8.24217">
        <ele>1402</ele>
        <time>2020-10-24T13:52:31.146Z</time>
      </trkpt>
      <trkpt lat="46.47377" lon="8.24217">
        <ele>1403</ele>
        <time>2020-10-24T13:52:32.146Z</time>
      </trkpt>
      <trkpt lat="46.47378" lon="8.24217">
        <ele>1403</ele>
        <time>2020-10-24T13:52:33.146Z</time>
      </trkpt>
      <trkpt lat="46.47378" lon="8.24218">
        <ele>1403</ele>
        <time>2020-10-24T13:52:34.145Z</time>
      </trkpt>
      <trkpt lat="46.47379" lon="8.24218">
        <ele>1404</ele>
        <time>2020-10-24T13:52:35.146Z</time>
      </trkpt>
      <trkpt lat="46.4738" lon="8.24219">
        <ele>1404</ele>
        <time>2020-10-24T13:52:36.146Z</time>
      </trkpt>
      <trkpt lat="46.47381" lon="8.24219">
        <ele>1404</ele>
        <time>2020-10-24T13:52:37.145Z</time>
      </trkpt>
      <trkpt lat="46.47383" lon="8.2422">
        <ele>1405</ele>
        <time>2020-10-24T13:52:38.146Z</time>
      </trkpt>
      <trkpt lat="46.47384" lon="8.2422">
        <ele>1405</ele>
        <time>2020-10-24T13:52:39.145Z</time>
      </trkpt>
      <trkpt lat="46.47384" lon="8.2422">
        <ele>1405</ele>
        <time>2020-10-24T13:52:40.146Z</time>
      </trkpt>
      <trkpt lat="46.47385" lon="8.24221">
        <ele>1404</ele>
        <time>2020-10-24T13:52:41.146Z</time>
      </trkpt>
      <trkpt lat="46.47386" lon="8.24222">
        <ele>1404</ele>
        <time>2020-10-24T13:52:42.146Z</time>
      </trkpt>
      <trkpt lat="46.47386" lon="8.24223">
        <ele>1404</ele>
        <time>2020-10-24T13:52:43.145Z</time>
      </trkpt>
      <trkpt lat="46.47386" lon="8.24224">
        <ele>1403</ele>
        <time>2020-10-24T13:52:44.146Z</time>
      </trkpt>
      <trkpt lat="46.47387" lon="8.24225">
        <ele>1403</ele>
        <time>2020-10-24T13:52:45.146Z</time>
      </trkpt>
      <trkpt lat="46.47387" lon="8.24226">
        <ele>1403</ele>
        <time>2020-10-24T13:52:46.146Z</time>
      </trkpt>
      <trkpt lat="46.47388" lon="8.24227">
        <ele>1403</ele>
        <time>2020-10-24T13:52:47.146Z</time>
      </trkpt>
      <trkpt lat="46.47388" lon="8.24228">
        <ele>1403</ele>
        <time>2020-10-24T13:52:48.146Z</time>
      </trkpt>
      <trkpt lat="46.47388" lon="8.2423">
        <ele>1404</ele>
        <time>2020-10-24T13:52:49.145Z</time>
      </trkpt>
      <trkpt lat="46.47388" lon="8.2423">
        <ele>1404</ele>
        <time>2020-10-24T13:52:50.146Z</time>
      </trkpt>
      <trkpt lat="46.47388" lon="8.24231">
        <ele>1404</ele>
        <time>2020-10-24T13:52:51.145Z</time>
      </trkpt>
      <trkpt lat="46.47389" lon="8.24231">
        <ele>1405</ele>
        <time>2020-10-24T13:52:52.146Z</time>
      </trkpt>
      <trkpt lat="46.47389" lon="8.24232">
        <ele>1405</ele>
        <time>2020-10-24T13:52:53.146Z</time>
      </trkpt>
      <trkpt lat="46.4739" lon="8.24232">
        <ele>1406</ele>
        <time>2020-10-24T13:52:54.146Z</time>
      </trkpt>
      <trkpt lat="46.4739" lon="8.24233">
        <ele>1406</ele>
        <time>2020-10-24T13:52:55.146Z</time>
      </trkpt>
      <trkpt lat="46.4739" lon="8.24233">
        <ele>1407</ele>
        <time>2020-10-24T13:52:56.145Z</time>
      </trkpt>
      <trkpt lat="46.4739" lon="8.24234">
        <ele>1408</ele>
        <time>2020-10-24T13:52:57.146Z</time>
      </trkpt>
      <trkpt lat="46.4739" lon="8.24236">
        <ele>1408</ele>
        <time>2020-10-24T13:52:58.145Z</time>
      </trkpt>
      <trkpt lat="46.4739" lon="8.24237">
        <ele>1408</ele>
        <time>2020-10-24T13:52:59.146Z</time>
      </trkpt>
      <trkpt lat="46.47389" lon="8.24239">
        <ele>1407</ele>
        <time>2020-10-24T13:53:00.145Z</time>
      </trkpt>
      <trkpt lat="46.47389" lon="8.24241">
        <ele>1407</ele>
        <time>2020-10-24T13:53:01.146Z</time>
      </trkpt>
      <trkpt lat="46.47387" lon="8.24244">
        <ele>1407</ele>
        <time>2020-10-24T13:53:02.145Z</time>
      </trkpt>
      <trkpt lat="46.47387" lon="8.24245">
        <ele>1406</ele>
        <time>2020-10-24T13:53:03.145Z</time>
      </trkpt>
      <trkpt lat="46.47389" lon="8.24246">
        <ele>1406</ele>
        <time>2020-10-24T13:53:04.146Z</time>
      </trkpt>
      <trkpt lat="46.47389" lon="8.24247">
        <ele>1406</ele>
        <time>2020-10-24T13:53:05.146Z</time>
      </trkpt>
      <trkpt lat="46.4739" lon="8.24248">
        <ele>1405</ele>
        <time>2020-10-24T13:53:06.146Z</time>
      </trkpt>
      <trkpt lat="46.4739" lon="8.24248">
        <ele>1405</ele>
        <time>2020-10-24T13:53:07.145Z</time>
      </trkpt>
      <trkpt lat="46.47389" lon="8.24249">
        <ele>1404</ele>
        <time>2020-10-24T13:53:08.145Z</time>
      </trkpt>
      <trkpt lat="46.47389" lon="8.2425">
        <ele>1403</ele>
        <time>2020-10-24T13:53:09.146Z</time>
      </trkpt>
      <trkpt lat="46.47386" lon="8.24254">
        <ele>1403</ele>
        <time>2020-10-24T13:53:10.145Z</time>
      </trkpt>
      <trkpt lat="46.47385" lon="8.24255">
        <ele>1403</ele>
        <time>2020-10-24T13:53:11.146Z</time>
      </trkpt>
      <trkpt lat="46.47386" lon="8.24255">
        <ele>1403</ele>
        <time>2020-10-24T13:53:12.145Z</time>
      </trkpt>
      <trkpt lat="46.47386" lon="8.24256">
        <ele>1403</ele>
        <time>2020-10-24T13:53:13.145Z</time>
      </trkpt>
      <trkpt lat="46.47386" lon="8.24257">
        <ele>1403</ele>
        <time>2020-10-24T13:53:14.146Z</time>
      </trkpt>
      <trkpt lat="46.47386" lon="8.24259">
        <ele>1403</ele>
        <time>2020-10-24T13:53:15.145Z</time>
      </trkpt>
      <trkpt lat="46.47386" lon="8.2426">
        <ele>1402</ele>
        <time>2020-10-24T13:53:16.146Z</time>
      </trkpt>
      <trkpt lat="46.47387" lon="8.24261">
        <ele>1402</ele>
        <time>2020-10-24T13:53:17.146Z</time>
      </trkpt>
      <trkpt lat="46.47387" lon="8.24263">
        <ele>1402</ele>
        <time>2020-10-24T13:53:18.146Z</time>
      </trkpt>
      <trkpt lat="46.47387" lon="8.24264">
        <ele>1402</ele>
        <time>2020-10-24T13:53:19.146Z</time>
      </trkpt>
      <trkpt lat="46.47387" lon="8.24264">
        <ele>1402</ele>
        <time>2020-10-24T13:53:20.145Z</time>
      </trkpt>
      <trkpt lat="46.47387" lon="8.24264">
        <ele>1401</ele>
        <time>2020-10-24T13:53:21.146Z</time>
      </trkpt>
      <trkpt lat="46.47387" lon="8.24266">
        <ele>1402</ele>
        <time>2020-10-24T13:53:22.145Z</time>
      </trkpt>
      <trkpt lat="46.47387" lon="8.24267">
        <ele>1401</ele>
        <time>2020-10-24T13:53:23.145Z</time>
      </trkpt>
      <trkpt lat="46.47387" lon="8.24268">
        <ele>1401</ele>
        <time>2020-10-24T13:53:24.145Z</time>
      </trkpt>
      <trkpt lat="46.47387" lon="8.24269">
        <ele>1400</ele>
        <time>2020-10-24T13:53:25.146Z</time>
      </trkpt>
      <trkpt lat="46.47387" lon="8.24269">
        <ele>1400</ele>
        <time>2020-10-24T13:53:26.146Z</time>
      </trkpt>
      <trkpt lat="46.47386" lon="8.24269">
        <ele>1399</ele>
        <time>2020-10-24T13:53:27.146Z</time>
      </trkpt>
      <trkpt lat="46.47386" lon="8.24269">
        <ele>1399</ele>
        <time>2020-10-24T13:53:28.146Z</time>
      </trkpt>
      <trkpt lat="46.47386" lon="8.24269">
        <ele>1398</ele>
        <time>2020-10-24T13:53:29.146Z</time>
      </trkpt>
      <trkpt lat="46.47386" lon="8.24268">
        <ele>1397</ele>
        <time>2020-10-24T13:53:30.145Z</time>
      </trkpt>
      <trkpt lat="46.47389" lon="8.24266">
        <ele>1396</ele>
        <time>2020-10-24T13:53:31.146Z</time>
      </trkpt>
      <trkpt lat="46.47389" lon="8.24269">
        <ele>1396</ele>
        <time>2020-10-24T13:53:32.145Z</time>
      </trkpt>
      <trkpt lat="46.4739" lon="8.24269">
        <ele>1396</ele>
        <time>2020-10-24T13:53:33.145Z</time>
      </trkpt>
      <trkpt lat="46.47391" lon="8.24268">
        <ele>1396</ele>
        <time>2020-10-24T13:53:34.145Z</time>
      </trkpt>
      <trkpt lat="46.47391" lon="8.24267">
        <ele>1396</ele>
        <time>2020-10-24T13:53:35.145Z</time>
      </trkpt>
      <trkpt lat="46.47389" lon="8.24261">
        <ele>1398</ele>
        <time>2020-10-24T13:53:36.148Z</time>
      </trkpt>
      <trkpt lat="46.47389" lon="8.2426">
        <ele>1398</ele>
        <time>2020-10-24T13:53:37.148Z</time>
      </trkpt>
      <trkpt lat="46.47389" lon="8.24259">
        <ele>1398</ele>
        <time>2020-10-24T13:53:38.147Z</time>
      </trkpt>
      <trkpt lat="46.47389" lon="8.24256">
        <ele>1408</ele>
        <time>2020-10-24T13:53:39.147Z</time>
      </trkpt>
      <trkpt lat="46.47392" lon="8.24256">
        <ele>1408</ele>
        <time>2020-10-24T13:53:40.147Z</time>
      </trkpt>
      <trkpt lat="46.47393" lon="8.24257">
        <ele>1408</ele>
        <time>2020-10-24T13:53:41.147Z</time>
      </trkpt>
      <trkpt lat="46.47394" lon="8.24257">
        <ele>1407</ele>
        <time>2020-10-24T13:53:42.148Z</time>
      </trkpt>
      <trkpt lat="46.47392" lon="8.24256">
        <ele>1394</ele>
        <time>2020-10-24T13:53:43.148Z</time>
      </trkpt>
      <trkpt lat="46.47392" lon="8.24256">
        <ele>1393</ele>
        <time>2020-10-24T13:53:44.148Z</time>
      </trkpt>
      <trkpt lat="46.47391" lon="8.24255">
        <ele>1392</ele>
        <time>2020-10-24T13:53:45.148Z</time>
      </trkpt>
      <trkpt lat="46.47391" lon="8.24255">
        <ele>1391</ele>
        <time>2020-10-24T13:53:46.148Z</time>
      </trkpt>
      <trkpt lat="46.47392" lon="8.24256">
        <ele>1390</ele>
        <time>2020-10-24T13:53:47.147Z</time>
      </trkpt>
      <trkpt lat="46.47392" lon="8.24257">
        <ele>1389</ele>
        <time>2020-10-24T13:53:48.148Z</time>
      </trkpt>
      <trkpt lat="46.47392" lon="8.24258">
        <ele>1389</ele>
        <time>2020-10-24T13:53:49.147Z</time>
      </trkpt>
      <trkpt lat="46.47391" lon="8.2426">
        <ele>1389</ele>
        <time>2020-10-24T13:53:50.148Z</time>
      </trkpt>
      <trkpt lat="46.47392" lon="8.24261">
        <ele>1390</ele>
        <time>2020-10-24T13:53:51.148Z</time>
      </trkpt>
      <trkpt lat="46.47393" lon="8.24261">
        <ele>1390</ele>
        <time>2020-10-24T13:53:52.148Z</time>
      </trkpt>
      <trkpt lat="46.47394" lon="8.24262">
        <ele>1391</ele>
        <time>2020-10-24T13:53:53.147Z</time>
      </trkpt>
      <trkpt lat="46.47396" lon="8.24263">
        <ele>1391</ele>
        <time>2020-10-24T13:53:54.147Z</time>
      </trkpt>
      <trkpt lat="46.47397" lon="8.24264">
        <ele>1392</ele>
        <time>2020-10-24T13:53:55.148Z</time>
      </trkpt>
      <trkpt lat="46.47398" lon="8.24265">
        <ele>1393</ele>
        <time>2020-10-24T13:53:56.148Z</time>
      </trkpt>
      <trkpt lat="46.47398" lon="8.24266">
        <ele>1393</ele>
        <time>2020-10-24T13:53:57.148Z</time>
      </trkpt>
      <trkpt lat="46.47397" lon="8.24268">
        <ele>1394</ele>
        <time>2020-10-24T13:53:58.147Z</time>
      </trkpt>
      <trkpt lat="46.47397" lon="8.24269">
        <ele>1395</ele>
        <time>2020-10-24T13:53:59.147Z</time>
      </trkpt>
      <trkpt lat="46.47398" lon="8.2427">
        <ele>1396</ele>
        <time>2020-10-24T13:54:00.147Z</time>
      </trkpt>
      <trkpt lat="46.47398" lon="8.24272">
        <ele>1397</ele>
        <time>2020-10-24T13:54:01.148Z</time>
      </trkpt>
      <trkpt lat="46.47397" lon="8.24273">
        <ele>1398</ele>
        <time>2020-10-24T13:54:02.147Z</time>
      </trkpt>
      <trkpt lat="46.47396" lon="8.24274">
        <ele>1398</ele>
        <time>2020-10-24T13:54:03.148Z</time>
      </trkpt>
      <trkpt lat="46.47395" lon="8.24275">
        <ele>1399</ele>
        <time>2020-10-24T13:54:04.147Z</time>
      </trkpt>
      <trkpt lat="46.47394" lon="8.24277">
        <ele>1399</ele>
        <time>2020-10-24T13:54:05.148Z</time>
      </trkpt>
      <trkpt lat="46.47394" lon="8.24279">
        <ele>1400</ele>
        <time>2020-10-24T13:54:06.148Z</time>
      </trkpt>
      <trkpt lat="46.47393" lon="8.24281">
        <ele>1400</ele>
        <time>2020-10-24T13:54:07.148Z</time>
      </trkpt>
      <trkpt lat="46.47393" lon="8.24283">
        <ele>1401</ele>
        <time>2020-10-24T13:54:08.148Z</time>
      </trkpt>
      <trkpt lat="46.47392" lon="8.24286">
        <ele>1401</ele>
        <time>2020-10-24T13:54:09.148Z</time>
      </trkpt>
      <trkpt lat="46.47391" lon="8.24289">
        <ele>1402</ele>
        <time>2020-10-24T13:54:10.148Z</time>
      </trkpt>
      <trkpt lat="46.4739" lon="8.24291">
        <ele>1402</ele>
        <time>2020-10-24T13:54:11.148Z</time>
      </trkpt>
      <trkpt lat="46.47389" lon="8.24294">
        <ele>1403</ele>
        <time>2020-10-24T13:54:12.148Z</time>
      </trkpt>
      <trkpt lat="46.47389" lon="8.24296">
        <ele>1404</ele>
        <time>2020-10-24T13:54:13.148Z</time>
      </trkpt>
      <trkpt lat="46.47388" lon="8.24298">
        <ele>1404</ele>
        <time>2020-10-24T13:54:14.148Z</time>
      </trkpt>
      <trkpt lat="46.47387" lon="8.243">
        <ele>1404</ele>
        <time>2020-10-24T13:54:15.148Z</time>
      </trkpt>
      <trkpt lat="46.47387" lon="8.24303">
        <ele>1404</ele>
        <time>2020-10-24T13:54:16.148Z</time>
      </trkpt>
      <trkpt lat="46.47387" lon="8.24304">
        <ele>1404</ele>
        <time>2020-10-24T13:54:17.148Z</time>
      </trkpt>
      <trkpt lat="46.47388" lon="8.24306">
        <ele>1404</ele>
        <time>2020-10-24T13:54:18.148Z</time>
      </trkpt>
      <trkpt lat="46.47388" lon="8.24306">
        <ele>1404</ele>
        <time>2020-10-24T13:54:19.147Z</time>
      </trkpt>
      <trkpt lat="46.47388" lon="8.24307">
        <ele>1403</ele>
        <time>2020-10-24T13:54:20.147Z</time>
      </trkpt>
      <trkpt lat="46.47388" lon="8.24309">
        <ele>1403</ele>
        <time>2020-10-24T13:54:21.148Z</time>
      </trkpt>
      <trkpt lat="46.47388" lon="8.2431">
        <ele>1403</ele>
        <time>2020-10-24T13:54:22.148Z</time>
      </trkpt>
      <trkpt lat="46.47388" lon="8.24312">
        <ele>1403</ele>
        <time>2020-10-24T13:54:23.147Z</time>
      </trkpt>
      <trkpt lat="46.47388" lon="8.24314">
        <ele>1403</ele>
        <time>2020-10-24T13:54:24.147Z</time>
      </trkpt>
      <trkpt lat="46.47388" lon="8.24316">
        <ele>1403</ele>
        <time>2020-10-24T13:54:25.148Z</time>
      </trkpt>
      <trkpt lat="46.47388" lon="8.24317">
        <ele>1403</ele>
        <time>2020-10-24T13:54:26.148Z</time>
      </trkpt>
      <trkpt lat="46.47388" lon="8.24319">
        <ele>1403</ele>
        <time>2020-10-24T13:54:27.148Z</time>
      </trkpt>
      <trkpt lat="46.47388" lon="8.24321">
        <ele>1403</ele>
        <time>2020-10-24T13:54:28.148Z</time>
      </trkpt>
      <trkpt lat="46.47388" lon="8.24323">
        <ele>1403</ele>
        <time>2020-10-24T13:54:29.147Z</time>
      </trkpt>
      <trkpt lat="46.47388" lon="8.24324">
        <ele>1403</ele>
        <time>2020-10-24T13:54:30.147Z</time>
      </trkpt>
      <trkpt lat="46.47389" lon="8.24326">
        <ele>1403</ele>
        <time>2020-10-24T13:54:31.147Z</time>
      </trkpt>
      <trkpt lat="46.47389" lon="8.24327">
        <ele>1404</ele>
        <time>2020-10-24T13:54:32.147Z</time>
      </trkpt>
      <trkpt lat="46.47389" lon="8.24328">
        <ele>1404</ele>
        <time>2020-10-24T13:54:33.147Z</time>
      </trkpt>
      <trkpt lat="46.4739" lon="8.24329">
        <ele>1404</ele>
        <time>2020-10-24T13:54:34.147Z</time>
      </trkpt>
      <trkpt lat="46.47392" lon="8.2433">
        <ele>1404</ele>
        <time>2020-10-24T13:54:35.148Z</time>
      </trkpt>
      <trkpt lat="46.47394" lon="8.24331">
        <ele>1404</ele>
        <time>2020-10-24T13:54:36.147Z</time>
      </trkpt>
      <trkpt lat="46.47394" lon="8.24332">
        <ele>1405</ele>
        <time>2020-10-24T13:54:37.148Z</time>
      </trkpt>
      <trkpt lat="46.47395" lon="8.24333">
        <ele>1405</ele>
        <time>2020-10-24T13:54:38.147Z</time>
      </trkpt>
      <trkpt lat="46.47395" lon="8.24334">
        <ele>1405</ele>
        <time>2020-10-24T13:54:39.148Z</time>
      </trkpt>
      <trkpt lat="46.47395" lon="8.24336">
        <ele>1405</ele>
        <time>2020-10-24T13:54:40.148Z</time>
      </trkpt>
      <trkpt lat="46.47395" lon="8.24337">
        <ele>1405</ele>
        <time>2020-10-24T13:54:41.147Z</time>
      </trkpt>
      <trkpt lat="46.47395" lon="8.24339">
        <ele>1405</ele>
        <time>2020-10-24T13:54:42.148Z</time>
      </trkpt>
      <trkpt lat="46.47394" lon="8.2434">
        <ele>1405</ele>
        <time>2020-10-24T13:54:43.148Z</time>
      </trkpt>
      <trkpt lat="46.47394" lon="8.24342">
        <ele>1405</ele>
        <time>2020-10-24T13:54:44.147Z</time>
      </trkpt>
      <trkpt lat="46.47394" lon="8.24344">
        <ele>1404</ele>
        <time>2020-10-24T13:54:45.147Z</time>
      </trkpt>
      <trkpt lat="46.47395" lon="8.24346">
        <ele>1404</ele>
        <time>2020-10-24T13:54:46.148Z</time>
      </trkpt>
      <trkpt lat="46.47395" lon="8.24347">
        <ele>1404</ele>
        <time>2020-10-24T13:54:47.148Z</time>
      </trkpt>
      <trkpt lat="46.47396" lon="8.24348">
        <ele>1404</ele>
        <time>2020-10-24T13:54:48.147Z</time>
      </trkpt>
      <trkpt lat="46.47396" lon="8.2435">
        <ele>1403</ele>
        <time>2020-10-24T13:54:49.147Z</time>
      </trkpt>
      <trkpt lat="46.47396" lon="8.24351">
        <ele>1403</ele>
        <time>2020-10-24T13:54:50.147Z</time>
      </trkpt>
      <trkpt lat="46.47397" lon="8.24353">
        <ele>1403</ele>
        <time>2020-10-24T13:54:51.147Z</time>
      </trkpt>
      <trkpt lat="46.47397" lon="8.24354">
        <ele>1403</ele>
        <time>2020-10-24T13:54:52.147Z</time>
      </trkpt>
      <trkpt lat="46.47398" lon="8.24355">
        <ele>1403</ele>
        <time>2020-10-24T13:54:53.147Z</time>
      </trkpt>
      <trkpt lat="46.47399" lon="8.24356">
        <ele>1403</ele>
        <time>2020-10-24T13:54:54.148Z</time>
      </trkpt>
      <trkpt lat="46.474" lon="8.24357">
        <ele>1403</ele>
        <time>2020-10-24T13:54:55.148Z</time>
      </trkpt>
      <trkpt lat="46.474" lon="8.24358">
        <ele>1403</ele>
        <time>2020-10-24T13:54:56.147Z</time>
      </trkpt>
      <trkpt lat="46.474" lon="8.2436">
        <ele>1402</ele>
        <time>2020-10-24T13:54:57.147Z</time>
      </trkpt>
      <trkpt lat="46.474" lon="8.24361">
        <ele>1402</ele>
        <time>2020-10-24T13:54:58.147Z</time>
      </trkpt>
      <trkpt lat="46.47401" lon="8.24362">
        <ele>1402</ele>
        <time>2020-10-24T13:54:59.148Z</time>
      </trkpt>
      <trkpt lat="46.47401" lon="8.24364">
        <ele>1402</ele>
        <time>2020-10-24T13:55:00.148Z</time>
      </trkpt>
      <trkpt lat="46.47401" lon="8.24366">
        <ele>1402</ele>
        <time>2020-10-24T13:55:01.147Z</time>
      </trkpt>
      <trkpt lat="46.47401" lon="8.24367">
        <ele>1401</ele>
        <time>2020-10-24T13:55:02.148Z</time>
      </trkpt>
      <trkpt lat="46.47401" lon="8.24369">
        <ele>1401</ele>
        <time>2020-10-24T13:55:03.148Z</time>
      </trkpt>
      <trkpt lat="46.474" lon="8.24372">
        <ele>1401</ele>
        <time>2020-10-24T13:55:04.147Z</time>
      </trkpt>
      <trkpt lat="46.47399" lon="8.24375">
        <ele>1402</ele>
        <time>2020-10-24T13:55:05.148Z</time>
      </trkpt>
      <trkpt lat="46.47399" lon="8.24376">
        <ele>1402</ele>
        <time>2020-10-24T13:55:06.147Z</time>
      </trkpt>
      <trkpt lat="46.47399" lon="8.24378">
        <ele>1402</ele>
        <time>2020-10-24T13:55:07.148Z</time>
      </trkpt>
      <trkpt lat="46.474" lon="8.2438">
        <ele>1402</ele>
        <time>2020-10-24T13:55:08.147Z</time>
      </trkpt>
      <trkpt lat="46.47401" lon="8.24381">
        <ele>1402</ele>
        <time>2020-10-24T13:55:09.147Z</time>
      </trkpt>
      <trkpt lat="46.47402" lon="8.24381">
        <ele>1402</ele>
        <time>2020-10-24T13:55:10.147Z</time>
      </trkpt>
      <trkpt lat="46.47403" lon="8.24381">
        <ele>1402</ele>
        <time>2020-10-24T13:55:11.147Z</time>
      </trkpt>
      <trkpt lat="46.47404" lon="8.24381">
        <ele>1402</ele>
        <time>2020-10-24T13:55:12.148Z</time>
      </trkpt>
      <trkpt lat="46.47405" lon="8.24381">
        <ele>1402</ele>
        <time>2020-10-24T13:55:13.148Z</time>
      </trkpt>
      <trkpt lat="46.47407" lon="8.2438">
        <ele>1402</ele>
        <time>2020-10-24T13:55:14.147Z</time>
      </trkpt>
      <trkpt lat="46.47408" lon="8.2438">
        <ele>1402</ele>
        <time>2020-10-24T13:55:15.148Z</time>
      </trkpt>
      <trkpt lat="46.47408" lon="8.2438">
        <ele>1402</ele>
        <time>2020-10-24T13:55:16.148Z</time>
      </trkpt>
      <trkpt lat="46.47408" lon="8.2438">
        <ele>1402</ele>
        <time>2020-10-24T13:55:17.148Z</time>
      </trkpt>
      <trkpt lat="46.47409" lon="8.24379">
        <ele>1402</ele>
        <time>2020-10-24T13:55:18.148Z</time>
      </trkpt>
      <trkpt lat="46.47411" lon="8.24375">
        <ele>1397</ele>
        <time>2020-10-24T13:55:19.148Z</time>
      </trkpt>
      <trkpt lat="46.47412" lon="8.24376">
        <ele>1397</ele>
        <time>2020-10-24T13:55:20.148Z</time>
      </trkpt>
      <trkpt lat="46.47412" lon="8.24377">
        <ele>1398</ele>
        <time>2020-10-24T13:55:21.147Z</time>
      </trkpt>
      <trkpt lat="46.47412" lon="8.24378">
        <ele>1398</ele>
        <time>2020-10-24T13:55:22.148Z</time>
      </trkpt>
      <trkpt lat="46.47412" lon="8.24379">
        <ele>1399</ele>
        <time>2020-10-24T13:55:23.148Z</time>
      </trkpt>
      <trkpt lat="46.47411" lon="8.2438">
        <ele>1399</ele>
        <time>2020-10-24T13:55:24.147Z</time>
      </trkpt>
      <trkpt lat="46.4741" lon="8.24382">
        <ele>1399</ele>
        <time>2020-10-24T13:55:25.147Z</time>
      </trkpt>
      <trkpt lat="46.47409" lon="8.24384">
        <ele>1400</ele>
        <time>2020-10-24T13:55:26.148Z</time>
      </trkpt>
      <trkpt lat="46.47407" lon="8.24387">
        <ele>1400</ele>
        <time>2020-10-24T13:55:27.147Z</time>
      </trkpt>
      <trkpt lat="46.47407" lon="8.24389">
        <ele>1401</ele>
        <time>2020-10-24T13:55:28.148Z</time>
      </trkpt>
      <trkpt lat="46.47406" lon="8.24391">
        <ele>1401</ele>
        <time>2020-10-24T13:55:29.148Z</time>
      </trkpt>
      <trkpt lat="46.47405" lon="8.24392">
        <ele>1402</ele>
        <time>2020-10-24T13:55:30.148Z</time>
      </trkpt>
      <trkpt lat="46.47404" lon="8.24393">
        <ele>1402</ele>
        <time>2020-10-24T13:55:31.148Z</time>
      </trkpt>
      <trkpt lat="46.47403" lon="8.24394">
        <ele>1402</ele>
        <time>2020-10-24T13:55:32.148Z</time>
      </trkpt>
      <trkpt lat="46.47403" lon="8.24395">
        <ele>1402</ele>
        <time>2020-10-24T13:55:33.148Z</time>
      </trkpt>
      <trkpt lat="46.47403" lon="8.24395">
        <ele>1402</ele>
        <time>2020-10-24T13:55:34.148Z</time>
      </trkpt>
      <trkpt lat="46.47404" lon="8.24396">
        <ele>1402</ele>
        <time>2020-10-24T13:55:35.147Z</time>
      </trkpt>
      <trkpt lat="46.47405" lon="8.24397">
        <ele>1403</ele>
        <time>2020-10-24T13:55:36.148Z</time>
      </trkpt>
      <trkpt lat="46.47406" lon="8.24397">
        <ele>1403</ele>
        <time>2020-10-24T13:55:37.148Z</time>
      </trkpt>
      <trkpt lat="46.47407" lon="8.24398">
        <ele>1403</ele>
        <time>2020-10-24T13:55:38.147Z</time>
      </trkpt>
      <trkpt lat="46.47408" lon="8.24398">
        <ele>1403</ele>
        <time>2020-10-24T13:55:39.148Z</time>
      </trkpt>
      <trkpt lat="46.47409" lon="8.24399">
        <ele>1403</ele>
        <time>2020-10-24T13:55:40.148Z</time>
      </trkpt>
      <trkpt lat="46.47411" lon="8.244">
        <ele>1403</ele>
        <time>2020-10-24T13:55:41.148Z</time>
      </trkpt>
      <trkpt lat="46.47411" lon="8.24401">
        <ele>1404</ele>
        <time>2020-10-24T13:55:42.148Z</time>
      </trkpt>
      <trkpt lat="46.47412" lon="8.24401">
        <ele>1404</ele>
        <time>2020-10-24T13:55:43.148Z</time>
      </trkpt>
      <trkpt lat="46.47412" lon="8.24402">
        <ele>1404</ele>
        <time>2020-10-24T13:55:44.148Z</time>
      </trkpt>
      <trkpt lat="46.47413" lon="8.24403">
        <ele>1404</ele>
        <time>2020-10-24T13:55:45.147Z</time>
      </trkpt>
      <trkpt lat="46.47413" lon="8.24404">
        <ele>1404</ele>
        <time>2020-10-24T13:55:46.147Z</time>
      </trkpt>
      <trkpt lat="46.47414" lon="8.24405">
        <ele>1404</ele>
        <time>2020-10-24T13:55:47.148Z</time>
      </trkpt>
      <trkpt lat="46.47415" lon="8.24405">
        <ele>1403</ele>
        <time>2020-10-24T13:55:48.148Z</time>
      </trkpt>
      <trkpt lat="46.47417" lon="8.24406">
        <ele>1403</ele>
        <time>2020-10-24T13:55:49.148Z</time>
      </trkpt>
      <trkpt lat="46.47417" lon="8.24407">
        <ele>1404</ele>
        <time>2020-10-24T13:55:50.148Z</time>
      </trkpt>
      <trkpt lat="46.47418" lon="8.24409">
        <ele>1404</ele>
        <time>2020-10-24T13:55:51.148Z</time>
      </trkpt>
      <trkpt lat="46.47417" lon="8.24411">
        <ele>1405</ele>
        <time>2020-10-24T13:55:52.148Z</time>
      </trkpt>
      <trkpt lat="46.47418" lon="8.24412">
        <ele>1406</ele>
        <time>2020-10-24T13:55:53.148Z</time>
      </trkpt>
      <trkpt lat="46.47418" lon="8.24413">
        <ele>1406</ele>
        <time>2020-10-24T13:55:54.147Z</time>
      </trkpt>
      <trkpt lat="46.47419" lon="8.24414">
        <ele>1407</ele>
        <time>2020-10-24T13:55:55.148Z</time>
      </trkpt>
      <trkpt lat="46.4742" lon="8.24414">
        <ele>1407</ele>
        <time>2020-10-24T13:55:56.148Z</time>
      </trkpt>
      <trkpt lat="46.4742" lon="8.24415">
        <ele>1407</ele>
        <time>2020-10-24T13:55:57.147Z</time>
      </trkpt>
      <trkpt lat="46.47421" lon="8.24415">
        <ele>1407</ele>
        <time>2020-10-24T13:55:58.148Z</time>
      </trkpt>
      <trkpt lat="46.47422" lon="8.24415">
        <ele>1408</ele>
        <time>2020-10-24T13:55:59.147Z</time>
      </trkpt>
      <trkpt lat="46.47423" lon="8.24416">
        <ele>1408</ele>
        <time>2020-10-24T13:56:00.147Z</time>
      </trkpt>
      <trkpt lat="46.47423" lon="8.24417">
        <ele>1408</ele>
        <time>2020-10-24T13:56:01.148Z</time>
      </trkpt>
      <trkpt lat="46.47424" lon="8.24418">
        <ele>1408</ele>
        <time>2020-10-24T13:56:02.147Z</time>
      </trkpt>
      <trkpt lat="46.47424" lon="8.24419">
        <ele>1408</ele>
        <time>2020-10-24T13:56:03.148Z</time>
      </trkpt>
      <trkpt lat="46.47424" lon="8.24421">
        <ele>1408</ele>
        <time>2020-10-24T13:56:04.147Z</time>
      </trkpt>
      <trkpt lat="46.47425" lon="8.24422">
        <ele>1408</ele>
        <time>2020-10-24T13:56:05.148Z</time>
      </trkpt>
      <trkpt lat="46.47425" lon="8.24423">
        <ele>1408</ele>
        <time>2020-10-24T13:56:06.148Z</time>
      </trkpt>
      <trkpt lat="46.47425" lon="8.24424">
        <ele>1408</ele>
        <time>2020-10-24T13:56:07.148Z</time>
      </trkpt>
      <trkpt lat="46.47426" lon="8.24425">
        <ele>1408</ele>
        <time>2020-10-24T13:56:08.147Z</time>
      </trkpt>
      <trkpt lat="46.47427" lon="8.24424">
        <ele>1408</ele>
        <time>2020-10-24T13:56:09.147Z</time>
      </trkpt>
      <trkpt lat="46.47428" lon="8.24423">
        <ele>1408</ele>
        <time>2020-10-24T13:56:10.147Z</time>
      </trkpt>
      <trkpt lat="46.47428" lon="8.24422">
        <ele>1408</ele>
        <time>2020-10-24T13:56:11.148Z</time>
      </trkpt>
      <trkpt lat="46.4743" lon="8.24422">
        <ele>1407</ele>
        <time>2020-10-24T13:56:12.148Z</time>
      </trkpt>
      <trkpt lat="46.47431" lon="8.2442">
        <ele>1407</ele>
        <time>2020-10-24T13:56:13.148Z</time>
      </trkpt>
      <trkpt lat="46.47431" lon="8.24419">
        <ele>1407</ele>
        <time>2020-10-24T13:56:14.147Z</time>
      </trkpt>
      <trkpt lat="46.47431" lon="8.24417">
        <ele>1406</ele>
        <time>2020-10-24T13:56:15.147Z</time>
      </trkpt>
      <trkpt lat="46.47431" lon="8.24415">
        <ele>1406</ele>
        <time>2020-10-24T13:56:16.148Z</time>
      </trkpt>
      <trkpt lat="46.47431" lon="8.24413">
        <ele>1405</ele>
        <time>2020-10-24T13:56:17.148Z</time>
      </trkpt>
      <trkpt lat="46.47431" lon="8.24412">
        <ele>1404</ele>
        <time>2020-10-24T13:56:18.147Z</time>
      </trkpt>
      <trkpt lat="46.47431" lon="8.24411">
        <ele>1404</ele>
        <time>2020-10-24T13:56:19.148Z</time>
      </trkpt>
      <trkpt lat="46.47431" lon="8.24409">
        <ele>1404</ele>
        <time>2020-10-24T13:56:20.148Z</time>
      </trkpt>
      <trkpt lat="46.47431" lon="8.24407">
        <ele>1404</ele>
        <time>2020-10-24T13:56:21.148Z</time>
      </trkpt>
      <trkpt lat="46.47431" lon="8.24406">
        <ele>1403</ele>
        <time>2020-10-24T13:56:22.147Z</time>
      </trkpt>
      <trkpt lat="46.47431" lon="8.24405">
        <ele>1403</ele>
        <time>2020-10-24T13:56:23.147Z</time>
      </trkpt>
      <trkpt lat="46.47431" lon="8.24404">
        <ele>1403</ele>
        <time>2020-10-24T13:56:24.148Z</time>
      </trkpt>
      <trkpt lat="46.47431" lon="8.24402">
        <ele>1404</ele>
        <time>2020-10-24T13:56:25.147Z</time>
      </trkpt>
      <trkpt lat="46.47431" lon="8.24401">
        <ele>1404</ele>
        <time>2020-10-24T13:56:26.148Z</time>
      </trkpt>
      <trkpt lat="46.4743" lon="8.244">
        <ele>1404</ele>
        <time>2020-10-24T13:56:27.148Z</time>
      </trkpt>
      <trkpt lat="46.4743" lon="8.24398">
        <ele>1404</ele>
        <time>2020-10-24T13:56:28.147Z</time>
      </trkpt>
      <trkpt lat="46.4743" lon="8.24397">
        <ele>1404</ele>
        <time>2020-10-24T13:56:29.147Z</time>
      </trkpt>
      <trkpt lat="46.4743" lon="8.24396">
        <ele>1404</ele>
        <time>2020-10-24T13:56:30.148Z</time>
      </trkpt>
      <trkpt lat="46.47429" lon="8.24395">
        <ele>1404</ele>
        <time>2020-10-24T13:56:31.147Z</time>
      </trkpt>
      <trkpt lat="46.47429" lon="8.24394">
        <ele>1404</ele>
        <time>2020-10-24T13:56:32.148Z</time>
      </trkpt>
      <trkpt lat="46.47428" lon="8.24393">
        <ele>1404</ele>
        <time>2020-10-24T13:56:33.147Z</time>
      </trkpt>
      <trkpt lat="46.47428" lon="8.24392">
        <ele>1404</ele>
        <time>2020-10-24T13:56:34.148Z</time>
      </trkpt>
      <trkpt lat="46.47428" lon="8.24391">
        <ele>1404</ele>
        <time>2020-10-24T13:56:35.147Z</time>
      </trkpt>
      <trkpt lat="46.47427" lon="8.2439">
        <ele>1404</ele>
        <time>2020-10-24T13:56:36.147Z</time>
      </trkpt>
      <trkpt lat="46.47427" lon="8.24389">
        <ele>1404</ele>
        <time>2020-10-24T13:56:37.148Z</time>
      </trkpt>
      <trkpt lat="46.47426" lon="8.24389">
        <ele>1404</ele>
        <time>2020-10-24T13:56:38.147Z</time>
      </trkpt>
      <trkpt lat="46.47426" lon="8.24388">
        <ele>1403</ele>
        <time>2020-10-24T13:56:39.148Z</time>
      </trkpt>
      <trkpt lat="46.47426" lon="8.24387">
        <ele>1403</ele>
        <time>2020-10-24T13:56:40.148Z</time>
      </trkpt>
      <trkpt lat="46.47426" lon="8.24386">
        <ele>1403</ele>
        <time>2020-10-24T13:56:41.148Z</time>
      </trkpt>
      <trkpt lat="46.47427" lon="8.24385">
        <ele>1402</ele>
        <time>2020-10-24T13:56:42.148Z</time>
      </trkpt>
      <trkpt lat="46.47428" lon="8.24384">
        <ele>1402</ele>
        <time>2020-10-24T13:56:43.148Z</time>
      </trkpt>
      <trkpt lat="46.47428" lon="8.24383">
        <ele>1403</ele>
        <time>2020-10-24T13:56:44.148Z</time>
      </trkpt>
      <trkpt lat="46.47428" lon="8.24382">
        <ele>1403</ele>
        <time>2020-10-24T13:56:45.148Z</time>
      </trkpt>
      <trkpt lat="46.4743" lon="8.24381">
        <ele>1403</ele>
        <time>2020-10-24T13:56:46.148Z</time>
      </trkpt>
      <trkpt lat="46.47432" lon="8.24379">
        <ele>1404</ele>
        <time>2020-10-24T13:56:47.148Z</time>
      </trkpt>
      <trkpt lat="46.47432" lon="8.24379">
        <ele>1405</ele>
        <time>2020-10-24T13:56:48.147Z</time>
      </trkpt>
      <trkpt lat="46.47431" lon="8.24378">
        <ele>1406</ele>
        <time>2020-10-24T13:56:49.147Z</time>
      </trkpt>
      <trkpt lat="46.47432" lon="8.24378">
        <ele>1406</ele>
        <time>2020-10-24T13:56:50.148Z</time>
      </trkpt>
      <trkpt lat="46.47432" lon="8.24378">
        <ele>1407</ele>
        <time>2020-10-24T13:56:51.148Z</time>
      </trkpt>
      <trkpt lat="46.47433" lon="8.24378">
        <ele>1407</ele>
        <time>2020-10-24T13:56:52.148Z</time>
      </trkpt>
      <trkpt lat="46.47434" lon="8.24378">
        <ele>1407</ele>
        <time>2020-10-24T13:56:53.148Z</time>
      </trkpt>
      <trkpt lat="46.47434" lon="8.24379">
        <ele>1407</ele>
        <time>2020-10-24T13:56:54.148Z</time>
      </trkpt>
      <trkpt lat="46.47437" lon="8.2438">
        <ele>1407</ele>
        <time>2020-10-24T13:56:55.147Z</time>
      </trkpt>
      <trkpt lat="46.47438" lon="8.24381">
        <ele>1408</ele>
        <time>2020-10-24T13:56:56.147Z</time>
      </trkpt>
      <trkpt lat="46.47439" lon="8.24381">
        <ele>1408</ele>
        <time>2020-10-24T13:56:57.148Z</time>
      </trkpt>
      <trkpt lat="46.4744" lon="8.24382">
        <ele>1407</ele>
        <time>2020-10-24T13:56:58.147Z</time>
      </trkpt>
      <trkpt lat="46.47441" lon="8.24382">
        <ele>1407</ele>
        <time>2020-10-24T13:56:59.148Z</time>
      </trkpt>
      <trkpt lat="46.47442" lon="8.24382">
        <ele>1407</ele>
        <time>2020-10-24T13:57:00.147Z</time>
      </trkpt>
      <trkpt lat="46.47443" lon="8.24382">
        <ele>1407</ele>
        <time>2020-10-24T13:57:01.147Z</time>
      </trkpt>
      <trkpt lat="46.47444" lon="8.24383">
        <ele>1407</ele>
        <time>2020-10-24T13:57:02.148Z</time>
      </trkpt>
      <trkpt lat="46.47444" lon="8.24383">
        <ele>1407</ele>
        <time>2020-10-24T13:57:03.148Z</time>
      </trkpt>
      <trkpt lat="46.47445" lon="8.24383">
        <ele>1408</ele>
        <time>2020-10-24T13:57:04.148Z</time>
      </trkpt>
      <trkpt lat="46.47446" lon="8.24383">
        <ele>1408</ele>
        <time>2020-10-24T13:57:05.148Z</time>
      </trkpt>
      <trkpt lat="46.47446" lon="8.24384">
        <ele>1407</ele>
        <time>2020-10-24T13:57:06.147Z</time>
      </trkpt>
      <trkpt lat="46.47447" lon="8.24384">
        <ele>1407</ele>
        <time>2020-10-24T13:57:07.148Z</time>
      </trkpt>
      <trkpt lat="46.47448" lon="8.24385">
        <ele>1408</ele>
        <time>2020-10-24T13:57:08.148Z</time>
      </trkpt>
      <trkpt lat="46.47448" lon="8.24386">
        <ele>1408</ele>
        <time>2020-10-24T13:57:09.147Z</time>
      </trkpt>
      <trkpt lat="46.47449" lon="8.24387">
        <ele>1409</ele>
        <time>2020-10-24T13:57:10.148Z</time>
      </trkpt>
      <trkpt lat="46.4745" lon="8.24387">
        <ele>1409</ele>
        <time>2020-10-24T13:57:11.147Z</time>
      </trkpt>
      <trkpt lat="46.4745" lon="8.24388">
        <ele>1409</ele>
        <time>2020-10-24T13:57:12.148Z</time>
      </trkpt>
      <trkpt lat="46.47451" lon="8.24388">
        <ele>1410</ele>
        <time>2020-10-24T13:57:13.148Z</time>
      </trkpt>
      <trkpt lat="46.47452" lon="8.24389">
        <ele>1410</ele>
        <time>2020-10-24T13:57:14.148Z</time>
      </trkpt>
      <trkpt lat="46.47454" lon="8.24389">
        <ele>1410</ele>
        <time>2020-10-24T13:57:15.148Z</time>
      </trkpt>
      <trkpt lat="46.47454" lon="8.24389">
        <ele>1411</ele>
        <time>2020-10-24T13:57:16.147Z</time>
      </trkpt>
      <trkpt lat="46.47455" lon="8.2439">
        <ele>1411</ele>
        <time>2020-10-24T13:57:17.148Z</time>
      </trkpt>
      <trkpt lat="46.47456" lon="8.2439">
        <ele>1412</ele>
        <time>2020-10-24T13:57:18.148Z</time>
      </trkpt>
      <trkpt lat="46.47456" lon="8.24391">
        <ele>1412</ele>
        <time>2020-10-24T13:57:19.148Z</time>
      </trkpt>
      <trkpt lat="46.47457" lon="8.24392">
        <ele>1412</ele>
        <time>2020-10-24T13:57:20.147Z</time>
      </trkpt>
      <trkpt lat="46.47458" lon="8.24392">
        <ele>1412</ele>
        <time>2020-10-24T13:57:21.147Z</time>
      </trkpt>
      <trkpt lat="46.47459" lon="8.24393">
        <ele>1412</ele>
        <time>2020-10-24T13:57:22.148Z</time>
      </trkpt>
      <trkpt lat="46.4746" lon="8.24393">
        <ele>1411</ele>
        <time>2020-10-24T13:57:23.148Z</time>
      </trkpt>
      <trkpt lat="46.4746" lon="8.24393">
        <ele>1411</ele>
        <time>2020-10-24T13:57:24.147Z</time>
      </trkpt>
      <trkpt lat="46.47461" lon="8.24394">
        <ele>1411</ele>
        <time>2020-10-24T13:57:25.148Z</time>
      </trkpt>
      <trkpt lat="46.47461" lon="8.24394">
        <ele>1411</ele>
        <time>2020-10-24T13:57:26.148Z</time>
      </trkpt>
      <trkpt lat="46.47462" lon="8.24395">
        <ele>1411</ele>
        <time>2020-10-24T13:57:27.148Z</time>
      </trkpt>
      <trkpt lat="46.47463" lon="8.24395">
        <ele>1411</ele>
        <time>2020-10-24T13:57:28.148Z</time>
      </trkpt>
      <trkpt lat="46.47463" lon="8.24396">
        <ele>1410</ele>
        <time>2020-10-24T13:57:29.147Z</time>
      </trkpt>
      <trkpt lat="46.47464" lon="8.24397">
        <ele>1411</ele>
        <time>2020-10-24T13:57:30.148Z</time>
      </trkpt>
      <trkpt lat="46.47464" lon="8.24397">
        <ele>1411</ele>
        <time>2020-10-24T13:57:31.147Z</time>
      </trkpt>
      <trkpt lat="46.47465" lon="8.24398">
        <ele>1411</ele>
        <time>2020-10-24T13:57:32.148Z</time>
      </trkpt>
      <trkpt lat="46.47466" lon="8.24399">
        <ele>1412</ele>
        <time>2020-10-24T13:57:33.147Z</time>
      </trkpt>
      <trkpt lat="46.47467" lon="8.24399">
        <ele>1412</ele>
        <time>2020-10-24T13:57:34.147Z</time>
      </trkpt>
      <trkpt lat="46.47467" lon="8.244">
        <ele>1413</ele>
        <time>2020-10-24T13:57:35.148Z</time>
      </trkpt>
      <trkpt lat="46.47468" lon="8.244">
        <ele>1414</ele>
        <time>2020-10-24T13:57:36.148Z</time>
      </trkpt>
      <trkpt lat="46.47468" lon="8.24401">
        <ele>1414</ele>
        <time>2020-10-24T13:57:37.148Z</time>
      </trkpt>
      <trkpt lat="46.47469" lon="8.24401">
        <ele>1414</ele>
        <time>2020-10-24T13:57:38.147Z</time>
      </trkpt>
      <trkpt lat="46.4747" lon="8.24402">
        <ele>1414</ele>
        <time>2020-10-24T13:57:39.148Z</time>
      </trkpt>
      <trkpt lat="46.47471" lon="8.24402">
        <ele>1414</ele>
        <time>2020-10-24T13:57:40.148Z</time>
      </trkpt>
      <trkpt lat="46.47472" lon="8.24402">
        <ele>1414</ele>
        <time>2020-10-24T13:57:41.147Z</time>
      </trkpt>
      <trkpt lat="46.47473" lon="8.24403">
        <ele>1413</ele>
        <time>2020-10-24T13:57:42.147Z</time>
      </trkpt>
      <trkpt lat="46.47473" lon="8.24403">
        <ele>1413</ele>
        <time>2020-10-24T13:57:43.148Z</time>
      </trkpt>
      <trkpt lat="46.47474" lon="8.24404">
        <ele>1413</ele>
        <time>2020-10-24T13:57:44.148Z</time>
      </trkpt>
      <trkpt lat="46.47475" lon="8.24404">
        <ele>1412</ele>
        <time>2020-10-24T13:57:45.148Z</time>
      </trkpt>
      <trkpt lat="46.47476" lon="8.24405">
        <ele>1412</ele>
        <time>2020-10-24T13:57:46.148Z</time>
      </trkpt>
      <trkpt lat="46.47477" lon="8.24406">
        <ele>1412</ele>
        <time>2020-10-24T13:57:47.147Z</time>
      </trkpt>
      <trkpt lat="46.47478" lon="8.24406">
        <ele>1412</ele>
        <time>2020-10-24T13:57:48.147Z</time>
      </trkpt>
      <trkpt lat="46.47479" lon="8.24407">
        <ele>1413</ele>
        <time>2020-10-24T13:57:49.147Z</time>
      </trkpt>
      <trkpt lat="46.4748" lon="8.24407">
        <ele>1413</ele>
        <time>2020-10-24T13:57:50.147Z</time>
      </trkpt>
      <trkpt lat="46.4748" lon="8.24408">
        <ele>1413</ele>
        <time>2020-10-24T13:57:51.148Z</time>
      </trkpt>
      <trkpt lat="46.47481" lon="8.24408">
        <ele>1413</ele>
        <time>2020-10-24T13:57:52.147Z</time>
      </trkpt>
      <trkpt lat="46.47482" lon="8.24408">
        <ele>1413</ele>
        <time>2020-10-24T13:57:53.147Z</time>
      </trkpt>
      <trkpt lat="46.47483" lon="8.24409">
        <ele>1414</ele>
        <time>2020-10-24T13:57:54.147Z</time>
      </trkpt>
      <trkpt lat="46.47484" lon="8.2441">
        <ele>1414</ele>
        <time>2020-10-24T13:57:55.148Z</time>
      </trkpt>
      <trkpt lat="46.47484" lon="8.2441">
        <ele>1414</ele>
        <time>2020-10-24T13:57:56.148Z</time>
      </trkpt>
      <trkpt lat="46.47485" lon="8.24411">
        <ele>1414</ele>
        <time>2020-10-24T13:57:57.147Z</time>
      </trkpt>
      <trkpt lat="46.47486" lon="8.24412">
        <ele>1415</ele>
        <time>2020-10-24T13:57:58.148Z</time>
      </trkpt>
      <trkpt lat="46.47487" lon="8.24413">
        <ele>1415</ele>
        <time>2020-10-24T13:57:59.147Z</time>
      </trkpt>
      <trkpt lat="46.47488" lon="8.24414">
        <ele>1415</ele>
        <time>2020-10-24T13:58:00.148Z</time>
      </trkpt>
      <trkpt lat="46.47488" lon="8.24414">
        <ele>1415</ele>
        <time>2020-10-24T13:58:01.148Z</time>
      </trkpt>
      <trkpt lat="46.47489" lon="8.24415">
        <ele>1415</ele>
        <time>2020-10-24T13:58:02.148Z</time>
      </trkpt>
      <trkpt lat="46.4749" lon="8.24415">
        <ele>1415</ele>
        <time>2020-10-24T13:58:03.148Z</time>
      </trkpt>
      <trkpt lat="46.47491" lon="8.24416">
        <ele>1416</ele>
        <time>2020-10-24T13:58:04.147Z</time>
      </trkpt>
      <trkpt lat="46.47491" lon="8.24417">
        <ele>1416</ele>
        <time>2020-10-24T13:58:05.148Z</time>
      </trkpt>
      <trkpt lat="46.47492" lon="8.24418">
        <ele>1416</ele>
        <time>2020-10-24T13:58:06.148Z</time>
      </trkpt>
      <trkpt lat="46.47493" lon="8.24418">
        <ele>1416</ele>
        <time>2020-10-24T13:58:07.148Z</time>
      </trkpt>
      <trkpt lat="46.47494" lon="8.24419">
        <ele>1416</ele>
        <time>2020-10-24T13:58:08.148Z</time>
      </trkpt>
      <trkpt lat="46.47495" lon="8.24419">
        <ele>1415</ele>
        <time>2020-10-24T13:58:09.148Z</time>
      </trkpt>
      <trkpt lat="46.47496" lon="8.24419">
        <ele>1415</ele>
        <time>2020-10-24T13:58:10.147Z</time>
      </trkpt>
      <trkpt lat="46.47497" lon="8.2442">
        <ele>1416</ele>
        <time>2020-10-24T13:58:11.148Z</time>
      </trkpt>
      <trkpt lat="46.47498" lon="8.2442">
        <ele>1416</ele>
        <time>2020-10-24T13:58:12.148Z</time>
      </trkpt>
      <trkpt lat="46.47499" lon="8.2442">
        <ele>1416</ele>
        <time>2020-10-24T13:58:13.148Z</time>
      </trkpt>
      <trkpt lat="46.475" lon="8.2442">
        <ele>1416</ele>
        <time>2020-10-24T13:58:14.148Z</time>
      </trkpt>
      <trkpt lat="46.47501" lon="8.24421">
        <ele>1416</ele>
        <time>2020-10-24T13:58:15.147Z</time>
      </trkpt>
      <trkpt lat="46.47502" lon="8.24422">
        <ele>1416</ele>
        <time>2020-10-24T13:58:16.148Z</time>
      </trkpt>
      <trkpt lat="46.47503" lon="8.24422">
        <ele>1417</ele>
        <time>2020-10-24T13:58:17.148Z</time>
      </trkpt>
      <trkpt lat="46.47504" lon="8.24422">
        <ele>1417</ele>
        <time>2020-10-24T13:58:18.148Z</time>
      </trkpt>
      <trkpt lat="46.47505" lon="8.24423">
        <ele>1417</ele>
        <time>2020-10-24T13:58:19.148Z</time>
      </trkpt>
      <trkpt lat="46.47506" lon="8.24423">
        <ele>1418</ele>
        <time>2020-10-24T13:58:20.148Z</time>
      </trkpt>
      <trkpt lat="46.47506" lon="8.24424">
        <ele>1418</ele>
        <time>2020-10-24T13:58:21.147Z</time>
      </trkpt>
      <trkpt lat="46.47507" lon="8.24424">
        <ele>1418</ele>
        <time>2020-10-24T13:58:22.148Z</time>
      </trkpt>
      <trkpt lat="46.47508" lon="8.24424">
        <ele>1419</ele>
        <time>2020-10-24T13:58:23.147Z</time>
      </trkpt>
      <trkpt lat="46.47509" lon="8.24424">
        <ele>1419</ele>
        <time>2020-10-24T13:58:24.147Z</time>
      </trkpt>
      <trkpt lat="46.4751" lon="8.24425">
        <ele>1419</ele>
        <time>2020-10-24T13:58:25.148Z</time>
      </trkpt>
      <trkpt lat="46.47511" lon="8.24425">
        <ele>1420</ele>
        <time>2020-10-24T13:58:26.147Z</time>
      </trkpt>
      <trkpt lat="46.47512" lon="8.24426">
        <ele>1420</ele>
        <time>2020-10-24T13:58:27.147Z</time>
      </trkpt>
      <trkpt lat="46.47513" lon="8.24426">
        <ele>1419</ele>
        <time>2020-10-24T13:58:28.147Z</time>
      </trkpt>
      <trkpt lat="46.47514" lon="8.24426">
        <ele>1419</ele>
        <time>2020-10-24T13:58:29.148Z</time>
      </trkpt>
      <trkpt lat="46.47515" lon="8.24426">
        <ele>1419</ele>
        <time>2020-10-24T13:58:30.147Z</time>
      </trkpt>
      <trkpt lat="46.47516" lon="8.24426">
        <ele>1419</ele>
        <time>2020-10-24T13:58:31.147Z</time>
      </trkpt>
      <trkpt lat="46.47517" lon="8.24426">
        <ele>1419</ele>
        <time>2020-10-24T13:58:32.148Z</time>
      </trkpt>
      <trkpt lat="46.47518" lon="8.24427">
        <ele>1419</ele>
        <time>2020-10-24T13:58:33.147Z</time>
      </trkpt>
      <trkpt lat="46.47518" lon="8.24427">
        <ele>1418</ele>
        <time>2020-10-24T13:58:34.148Z</time>
      </trkpt>
      <trkpt lat="46.47519" lon="8.24427">
        <ele>1418</ele>
        <time>2020-10-24T13:58:35.147Z</time>
      </trkpt>
      <trkpt lat="46.4752" lon="8.24427">
        <ele>1418</ele>
        <time>2020-10-24T13:58:36.147Z</time>
      </trkpt>
      <trkpt lat="46.47521" lon="8.24427">
        <ele>1418</ele>
        <time>2020-10-24T13:58:37.147Z</time>
      </trkpt>
      <trkpt lat="46.47523" lon="8.24427">
        <ele>1418</ele>
        <time>2020-10-24T13:58:38.147Z</time>
      </trkpt>
      <trkpt lat="46.47524" lon="8.24427">
        <ele>1418</ele>
        <time>2020-10-24T13:58:39.147Z</time>
      </trkpt>
      <trkpt lat="46.47525" lon="8.24427">
        <ele>1418</ele>
        <time>2020-10-24T13:58:40.148Z</time>
      </trkpt>
      <trkpt lat="46.47526" lon="8.24427">
        <ele>1418</ele>
        <time>2020-10-24T13:58:41.147Z</time>
      </trkpt>
      <trkpt lat="46.47527" lon="8.24428">
        <ele>1418</ele>
        <time>2020-10-24T13:58:42.148Z</time>
      </trkpt>
      <trkpt lat="46.47528" lon="8.24428">
        <ele>1418</ele>
        <time>2020-10-24T13:58:43.148Z</time>
      </trkpt>
      <trkpt lat="46.47529" lon="8.24428">
        <ele>1418</ele>
        <time>2020-10-24T13:58:44.148Z</time>
      </trkpt>
      <trkpt lat="46.4753" lon="8.24429">
        <ele>1418</ele>
        <time>2020-10-24T13:58:45.148Z</time>
      </trkpt>
      <trkpt lat="46.47531" lon="8.24429">
        <ele>1418</ele>
        <time>2020-10-24T13:58:46.147Z</time>
      </trkpt>
      <trkpt lat="46.47532" lon="8.2443">
        <ele>1418</ele>
        <time>2020-10-24T13:58:47.147Z</time>
      </trkpt>
      <trkpt lat="46.47533" lon="8.2443">
        <ele>1419</ele>
        <time>2020-10-24T13:58:48.148Z</time>
      </trkpt>
      <trkpt lat="46.47533" lon="8.24431">
        <ele>1419</ele>
        <time>2020-10-24T13:58:49.148Z</time>
      </trkpt>
      <trkpt lat="46.47534" lon="8.24431">
        <ele>1420</ele>
        <time>2020-10-24T13:58:50.148Z</time>
      </trkpt>
      <trkpt lat="46.47535" lon="8.24431">
        <ele>1420</ele>
        <time>2020-10-24T13:58:51.147Z</time>
      </trkpt>
      <trkpt lat="46.47536" lon="8.24432">
        <ele>1421</ele>
        <time>2020-10-24T13:58:52.148Z</time>
      </trkpt>
      <trkpt lat="46.47537" lon="8.24432">
        <ele>1421</ele>
        <time>2020-10-24T13:58:53.148Z</time>
      </trkpt>
      <trkpt lat="46.47539" lon="8.24432">
        <ele>1421</ele>
        <time>2020-10-24T13:58:54.147Z</time>
      </trkpt>
      <trkpt lat="46.4754" lon="8.24432">
        <ele>1421</ele>
        <time>2020-10-24T13:58:55.148Z</time>
      </trkpt>
      <trkpt lat="46.4754" lon="8.24433">
        <ele>1421</ele>
        <time>2020-10-24T13:58:56.148Z</time>
      </trkpt>
      <trkpt lat="46.47541" lon="8.24434">
        <ele>1421</ele>
        <time>2020-10-24T13:58:57.147Z</time>
      </trkpt>
      <trkpt lat="46.47542" lon="8.24435">
        <ele>1421</ele>
        <time>2020-10-24T13:58:58.148Z</time>
      </trkpt>
      <trkpt lat="46.47543" lon="8.24436">
        <ele>1420</ele>
        <time>2020-10-24T13:58:59.147Z</time>
      </trkpt>
      <trkpt lat="46.47544" lon="8.24436">
        <ele>1420</ele>
        <time>2020-10-24T13:59:00.148Z</time>
      </trkpt>
      <trkpt lat="46.47545" lon="8.24437">
        <ele>1419</ele>
        <time>2020-10-24T13:59:01.148Z</time>
      </trkpt>
      <trkpt lat="46.47546" lon="8.24437">
        <ele>1419</ele>
        <time>2020-10-24T13:59:02.147Z</time>
      </trkpt>
      <trkpt lat="46.47547" lon="8.24438">
        <ele>1419</ele>
        <time>2020-10-24T13:59:03.148Z</time>
      </trkpt>
      <trkpt lat="46.47548" lon="8.24438">
        <ele>1419</ele>
        <time>2020-10-24T13:59:04.147Z</time>
      </trkpt>
      <trkpt lat="46.4755" lon="8.24438">
        <ele>1419</ele>
        <time>2020-10-24T13:59:05.148Z</time>
      </trkpt>
      <trkpt lat="46.47551" lon="8.24438">
        <ele>1419</ele>
        <time>2020-10-24T13:59:06.148Z</time>
      </trkpt>
      <trkpt lat="46.47552" lon="8.24437">
        <ele>1419</ele>
        <time>2020-10-24T13:59:07.147Z</time>
      </trkpt>
      <trkpt lat="46.47553" lon="8.24437">
        <ele>1419</ele>
        <time>2020-10-24T13:59:08.148Z</time>
      </trkpt>
      <trkpt lat="46.47554" lon="8.24437">
        <ele>1419</ele>
        <time>2020-10-24T13:59:09.148Z</time>
      </trkpt>
      <trkpt lat="46.47556" lon="8.24436">
        <ele>1420</ele>
        <time>2020-10-24T13:59:10.148Z</time>
      </trkpt>
      <trkpt lat="46.47557" lon="8.24435">
        <ele>1421</ele>
        <time>2020-10-24T13:59:11.148Z</time>
      </trkpt>
      <trkpt lat="46.47557" lon="8.24435">
        <ele>1421</ele>
        <time>2020-10-24T13:59:12.148Z</time>
      </trkpt>
      <trkpt lat="46.47558" lon="8.24434">
        <ele>1422</ele>
        <time>2020-10-24T13:59:13.147Z</time>
      </trkpt>
      <trkpt lat="46.47559" lon="8.24433">
        <ele>1422</ele>
        <time>2020-10-24T13:59:14.148Z</time>
      </trkpt>
      <trkpt lat="46.47559" lon="8.24432">
        <ele>1423</ele>
        <time>2020-10-24T13:59:15.147Z</time>
      </trkpt>
      <trkpt lat="46.4756" lon="8.24431">
        <ele>1423</ele>
        <time>2020-10-24T13:59:16.148Z</time>
      </trkpt>
      <trkpt lat="46.4756" lon="8.2443">
        <ele>1424</ele>
        <time>2020-10-24T13:59:17.148Z</time>
      </trkpt>
      <trkpt lat="46.47561" lon="8.24428">
        <ele>1424</ele>
        <time>2020-10-24T13:59:18.147Z</time>
      </trkpt>
      <trkpt lat="46.4756" lon="8.24427">
        <ele>1423</ele>
        <time>2020-10-24T13:59:19.147Z</time>
      </trkpt>
      <trkpt lat="46.4756" lon="8.24426">
        <ele>1423</ele>
        <time>2020-10-24T13:59:20.148Z</time>
      </trkpt>
      <trkpt lat="46.47561" lon="8.24425">
        <ele>1423</ele>
        <time>2020-10-24T13:59:21.148Z</time>
      </trkpt>
      <trkpt lat="46.47561" lon="8.24424">
        <ele>1422</ele>
        <time>2020-10-24T13:59:22.148Z</time>
      </trkpt>
      <trkpt lat="46.47561" lon="8.24423">
        <ele>1422</ele>
        <time>2020-10-24T13:59:23.148Z</time>
      </trkpt>
      <trkpt lat="46.47561" lon="8.24421">
        <ele>1422</ele>
        <time>2020-10-24T13:59:24.148Z</time>
      </trkpt>
      <trkpt lat="46.47561" lon="8.2442">
        <ele>1421</ele>
        <time>2020-10-24T13:59:25.148Z</time>
      </trkpt>
      <trkpt lat="46.47561" lon="8.24419">
        <ele>1421</ele>
        <time>2020-10-24T13:59:26.148Z</time>
      </trkpt>
      <trkpt lat="46.4756" lon="8.24418">
        <ele>1421</ele>
        <time>2020-10-24T13:59:27.148Z</time>
      </trkpt>
      <trkpt lat="46.4756" lon="8.24417">
        <ele>1421</ele>
        <time>2020-10-24T13:59:28.147Z</time>
      </trkpt>
      <trkpt lat="46.4756" lon="8.24416">
        <ele>1421</ele>
        <time>2020-10-24T13:59:29.148Z</time>
      </trkpt>
      <trkpt lat="46.4756" lon="8.24415">
        <ele>1422</ele>
        <time>2020-10-24T13:59:30.147Z</time>
      </trkpt>
      <trkpt lat="46.4756" lon="8.24414">
        <ele>1422</ele>
        <time>2020-10-24T13:59:31.148Z</time>
      </trkpt>
      <trkpt lat="46.4756" lon="8.24413">
        <ele>1422</ele>
        <time>2020-10-24T13:59:32.148Z</time>
      </trkpt>
      <trkpt lat="46.47559" lon="8.24412">
        <ele>1422</ele>
        <time>2020-10-24T13:59:33.148Z</time>
      </trkpt>
      <trkpt lat="46.47559" lon="8.24411">
        <ele>1422</ele>
        <time>2020-10-24T13:59:34.148Z</time>
      </trkpt>
      <trkpt lat="46.47559" lon="8.2441">
        <ele>1422</ele>
        <time>2020-10-24T13:59:35.148Z</time>
      </trkpt>
      <trkpt lat="46.47559" lon="8.24409">
        <ele>1422</ele>
        <time>2020-10-24T13:59:36.148Z</time>
      </trkpt>
      <trkpt lat="46.4756" lon="8.24408">
        <ele>1423</ele>
        <time>2020-10-24T13:59:37.147Z</time>
      </trkpt>
      <trkpt lat="46.4756" lon="8.24407">
        <ele>1423</ele>
        <time>2020-10-24T13:59:38.148Z</time>
      </trkpt>
      <trkpt lat="46.47561" lon="8.24406">
        <ele>1423</ele>
        <time>2020-10-24T13:59:39.148Z</time>
      </trkpt>
      <trkpt lat="46.47561" lon="8.24405">
        <ele>1424</ele>
        <time>2020-10-24T13:59:40.148Z</time>
      </trkpt>
      <trkpt lat="46.47561" lon="8.24404">
        <ele>1425</ele>
        <time>2020-10-24T13:59:41.147Z</time>
      </trkpt>
      <trkpt lat="46.47562" lon="8.24404">
        <ele>1425</ele>
        <time>2020-10-24T13:59:42.148Z</time>
      </trkpt>
      <trkpt lat="46.47562" lon="8.24402">
        <ele>1426</ele>
        <time>2020-10-24T13:59:43.148Z</time>
      </trkpt>
      <trkpt lat="46.47562" lon="8.24402">
        <ele>1426</ele>
        <time>2020-10-24T13:59:44.148Z</time>
      </trkpt>
      <trkpt lat="46.47562" lon="8.24401">
        <ele>1426</ele>
        <time>2020-10-24T13:59:45.147Z</time>
      </trkpt>
      <trkpt lat="46.47563" lon="8.244">
        <ele>1426</ele>
        <time>2020-10-24T13:59:46.148Z</time>
      </trkpt>
      <trkpt lat="46.47563" lon="8.24399">
        <ele>1425</ele>
        <time>2020-10-24T13:59:47.148Z</time>
      </trkpt>
      <trkpt lat="46.47563" lon="8.24398">
        <ele>1425</ele>
        <time>2020-10-24T13:59:48.147Z</time>
      </trkpt>
      <trkpt lat="46.47564" lon="8.24397">
        <ele>1424</ele>
        <time>2020-10-24T13:59:49.147Z</time>
      </trkpt>
      <trkpt lat="46.47564" lon="8.24396">
        <ele>1424</ele>
        <time>2020-10-24T13:59:50.148Z</time>
      </trkpt>
      <trkpt lat="46.47564" lon="8.24395">
        <ele>1423</ele>
        <time>2020-10-24T13:59:51.148Z</time>
      </trkpt>
      <trkpt lat="46.47564" lon="8.24394">
        <ele>1423</ele>
        <time>2020-10-24T13:59:52.148Z</time>
      </trkpt>
      <trkpt lat="46.47563" lon="8.24393">
        <ele>1423</ele>
        <time>2020-10-24T13:59:53.147Z</time>
      </trkpt>
      <trkpt lat="46.47563" lon="8.24392">
        <ele>1423</ele>
        <time>2020-10-24T13:59:54.147Z</time>
      </trkpt>
      <trkpt lat="46.47563" lon="8.24392">
        <ele>1423</ele>
        <time>2020-10-24T13:59:55.148Z</time>
      </trkpt>
      <trkpt lat="46.47562" lon="8.24391">
        <ele>1423</ele>
        <time>2020-10-24T13:59:56.148Z</time>
      </trkpt>
      <trkpt lat="46.47562" lon="8.24389">
        <ele>1424</ele>
        <time>2020-10-24T13:59:57.147Z</time>
      </trkpt>
      <trkpt lat="46.47562" lon="8.24388">
        <ele>1425</ele>
        <time>2020-10-24T13:59:58.148Z</time>
      </trkpt>
      <trkpt lat="46.47562" lon="8.24387">
        <ele>1425</ele>
        <time>2020-10-24T13:59:59.148Z</time>
      </trkpt>
      <trkpt lat="46.47562" lon="8.24386">
        <ele>1426</ele>
        <time>2020-10-24T14:00:00.147Z</time>
      </trkpt>
      <trkpt lat="46.47562" lon="8.24384">
        <ele>1426</ele>
        <time>2020-10-24T14:00:01.147Z</time>
      </trkpt>
      <trkpt lat="46.47562" lon="8.24383">
        <ele>1426</ele>
        <time>2020-10-24T14:00:02.148Z</time>
      </trkpt>
      <trkpt lat="46.47562" lon="8.24382">
        <ele>1427</ele>
        <time>2020-10-24T14:00:03.148Z</time>
      </trkpt>
      <trkpt lat="46.47562" lon="8.24381">
        <ele>1428</ele>
        <time>2020-10-24T14:00:04.148Z</time>
      </trkpt>
      <trkpt lat="46.47562" lon="8.2438">
        <ele>1429</ele>
        <time>2020-10-24T14:00:05.148Z</time>
      </trkpt>
      <trkpt lat="46.47561" lon="8.24378">
        <ele>1429</ele>
        <time>2020-10-24T14:00:06.148Z</time>
      </trkpt>
      <trkpt lat="46.47561" lon="8.24377">
        <ele>1430</ele>
        <time>2020-10-24T14:00:07.148Z</time>
      </trkpt>
      <trkpt lat="46.47562" lon="8.24376">
        <ele>1430</ele>
        <time>2020-10-24T14:00:08.148Z</time>
      </trkpt>
      <trkpt lat="46.47562" lon="8.24375">
        <ele>1430</ele>
        <time>2020-10-24T14:00:09.148Z</time>
      </trkpt>
      <trkpt lat="46.47563" lon="8.24375">
        <ele>1430</ele>
        <time>2020-10-24T14:00:10.148Z</time>
      </trkpt>
      <trkpt lat="46.47562" lon="8.24374">
        <ele>1430</ele>
        <time>2020-10-24T14:00:11.148Z</time>
      </trkpt>
      <trkpt lat="46.47562" lon="8.24373">
        <ele>1430</ele>
        <time>2020-10-24T14:00:12.148Z</time>
      </trkpt>
      <trkpt lat="46.47562" lon="8.24372">
        <ele>1430</ele>
        <time>2020-10-24T14:00:13.147Z</time>
      </trkpt>
      <trkpt lat="46.47562" lon="8.24372">
        <ele>1431</ele>
        <time>2020-10-24T14:00:14.148Z</time>
      </trkpt>
      <trkpt lat="46.47562" lon="8.24371">
        <ele>1431</ele>
        <time>2020-10-24T14:00:15.148Z</time>
      </trkpt>
      <trkpt lat="46.47563" lon="8.24371">
        <ele>1432</ele>
        <time>2020-10-24T14:00:16.147Z</time>
      </trkpt>
      <trkpt lat="46.47563" lon="8.2437">
        <ele>1433</ele>
        <time>2020-10-24T14:00:17.147Z</time>
      </trkpt>
      <trkpt lat="46.47563" lon="8.2437">
        <ele>1434</ele>
        <time>2020-10-24T14:00:18.148Z</time>
      </trkpt>
      <trkpt lat="46.47563" lon="8.2437">
        <ele>1435</ele>
        <time>2020-10-24T14:00:19.147Z</time>
      </trkpt>
      <trkpt lat="46.47563" lon="8.24369">
        <ele>1436</ele>
        <time>2020-10-24T14:00:20.147Z</time>
      </trkpt>
      <trkpt lat="46.47563" lon="8.24369">
        <ele>1436</ele>
        <time>2020-10-24T14:00:21.147Z</time>
      </trkpt>
      <trkpt lat="46.47565" lon="8.24368">
        <ele>1435</ele>
        <time>2020-10-24T14:00:22.148Z</time>
      </trkpt>
      <trkpt lat="46.47565" lon="8.24368">
        <ele>1435</ele>
        <time>2020-10-24T14:00:23.148Z</time>
      </trkpt>
      <trkpt lat="46.47564" lon="8.24369">
        <ele>1434</ele>
        <time>2020-10-24T14:00:24.147Z</time>
      </trkpt>
      <trkpt lat="46.47566" lon="8.24369">
        <ele>1435</ele>
        <time>2020-10-24T14:00:25.148Z</time>
      </trkpt>
      <trkpt lat="46.47566" lon="8.24369">
        <ele>1435</ele>
        <time>2020-10-24T14:00:26.148Z</time>
      </trkpt>
      <trkpt lat="46.47565" lon="8.24371">
        <ele>1428</ele>
        <time>2020-10-24T14:00:27.149Z</time>
      </trkpt>
      <trkpt lat="46.47566" lon="8.24372">
        <ele>1428</ele>
        <time>2020-10-24T14:00:28.149Z</time>
      </trkpt>
      <trkpt lat="46.47567" lon="8.24372">
        <ele>1428</ele>
        <time>2020-10-24T14:00:29.148Z</time>
      </trkpt>
      <trkpt lat="46.47567" lon="8.24372">
        <ele>1428</ele>
        <time>2020-10-24T14:00:30.149Z</time>
      </trkpt>
      <trkpt lat="46.47568" lon="8.24373">
        <ele>1429</ele>
        <time>2020-10-24T14:00:31.149Z</time>
      </trkpt>
      <trkpt lat="46.47569" lon="8.24374">
        <ele>1429</ele>
        <time>2020-10-24T14:00:32.148Z</time>
      </trkpt>
      <trkpt lat="46.47569" lon="8.24375">
        <ele>1430</ele>
        <time>2020-10-24T14:00:33.149Z</time>
      </trkpt>
      <trkpt lat="46.47569" lon="8.24376">
        <ele>1430</ele>
        <time>2020-10-24T14:00:34.149Z</time>
      </trkpt>
      <trkpt lat="46.4757" lon="8.24377">
        <ele>1430</ele>
        <time>2020-10-24T14:00:35.148Z</time>
      </trkpt>
      <trkpt lat="46.47571" lon="8.24378">
        <ele>1430</ele>
        <time>2020-10-24T14:00:36.149Z</time>
      </trkpt>
      <trkpt lat="46.47571" lon="8.24379">
        <ele>1430</ele>
        <time>2020-10-24T14:00:37.149Z</time>
      </trkpt>
      <trkpt lat="46.47571" lon="8.2438">
        <ele>1430</ele>
        <time>2020-10-24T14:00:38.148Z</time>
      </trkpt>
      <trkpt lat="46.47571" lon="8.24381">
        <ele>1430</ele>
        <time>2020-10-24T14:00:39.148Z</time>
      </trkpt>
      <trkpt lat="46.47572" lon="8.24382">
        <ele>1430</ele>
        <time>2020-10-24T14:00:40.149Z</time>
      </trkpt>
      <trkpt lat="46.47573" lon="8.24382">
        <ele>1431</ele>
        <time>2020-10-24T14:00:41.148Z</time>
      </trkpt>
      <trkpt lat="46.47574" lon="8.24383">
        <ele>1431</ele>
        <time>2020-10-24T14:00:42.149Z</time>
      </trkpt>
      <trkpt lat="46.47575" lon="8.24383">
        <ele>1432</ele>
        <time>2020-10-24T14:00:43.148Z</time>
      </trkpt>
      <trkpt lat="46.47576" lon="8.24384">
        <ele>1433</ele>
        <time>2020-10-24T14:00:44.149Z</time>
      </trkpt>
      <trkpt lat="46.47577" lon="8.24385">
        <ele>1434</ele>
        <time>2020-10-24T14:00:45.149Z</time>
      </trkpt>
      <trkpt lat="46.47578" lon="8.24386">
        <ele>1435</ele>
        <time>2020-10-24T14:00:46.148Z</time>
      </trkpt>
      <trkpt lat="46.47579" lon="8.24387">
        <ele>1435</ele>
        <time>2020-10-24T14:00:47.148Z</time>
      </trkpt>
      <trkpt lat="46.47579" lon="8.24388">
        <ele>1435</ele>
        <time>2020-10-24T14:00:48.148Z</time>
      </trkpt>
      <trkpt lat="46.4758" lon="8.24389">
        <ele>1435</ele>
        <time>2020-10-24T14:00:49.149Z</time>
      </trkpt>
      <trkpt lat="46.47581" lon="8.24389">
        <ele>1436</ele>
        <time>2020-10-24T14:00:50.149Z</time>
      </trkpt>
      <trkpt lat="46.47581" lon="8.2439">
        <ele>1436</ele>
        <time>2020-10-24T14:00:51.149Z</time>
      </trkpt>
      <trkpt lat="46.47582" lon="8.24391">
        <ele>1436</ele>
        <time>2020-10-24T14:00:52.149Z</time>
      </trkpt>
      <trkpt lat="46.47583" lon="8.24392">
        <ele>1436</ele>
        <time>2020-10-24T14:00:53.148Z</time>
      </trkpt>
      <trkpt lat="46.47584" lon="8.24393">
        <ele>1436</ele>
        <time>2020-10-24T14:00:54.148Z</time>
      </trkpt>
      <trkpt lat="46.47585" lon="8.24393">
        <ele>1436</ele>
        <time>2020-10-24T14:00:55.149Z</time>
      </trkpt>
      <trkpt lat="46.47586" lon="8.24394">
        <ele>1436</ele>
        <time>2020-10-24T14:00:56.148Z</time>
      </trkpt>
      <trkpt lat="46.47587" lon="8.24394">
        <ele>1436</ele>
        <time>2020-10-24T14:00:57.148Z</time>
      </trkpt>
      <trkpt lat="46.47588" lon="8.24395">
        <ele>1437</ele>
        <time>2020-10-24T14:00:58.149Z</time>
      </trkpt>
      <trkpt lat="46.47589" lon="8.24395">
        <ele>1437</ele>
        <time>2020-10-24T14:00:59.149Z</time>
      </trkpt>
      <trkpt lat="46.4759" lon="8.24396">
        <ele>1437</ele>
        <time>2020-10-24T14:01:00.149Z</time>
      </trkpt>
      <trkpt lat="46.47592" lon="8.24396">
        <ele>1437</ele>
        <time>2020-10-24T14:01:01.148Z</time>
      </trkpt>
      <trkpt lat="46.47593" lon="8.24396">
        <ele>1438</ele>
        <time>2020-10-24T14:01:02.148Z</time>
      </trkpt>
      <trkpt lat="46.47594" lon="8.24396">
        <ele>1438</ele>
        <time>2020-10-24T14:01:03.148Z</time>
      </trkpt>
      <trkpt lat="46.47595" lon="8.24397">
        <ele>1438</ele>
        <time>2020-10-24T14:01:04.148Z</time>
      </trkpt>
      <trkpt lat="46.47596" lon="8.24398">
        <ele>1438</ele>
        <time>2020-10-24T14:01:05.149Z</time>
      </trkpt>
      <trkpt lat="46.47596" lon="8.24399">
        <ele>1438</ele>
        <time>2020-10-24T14:01:06.149Z</time>
      </trkpt>
      <trkpt lat="46.47597" lon="8.244">
        <ele>1439</ele>
        <time>2020-10-24T14:01:07.149Z</time>
      </trkpt>
      <trkpt lat="46.47598" lon="8.244">
        <ele>1439</ele>
        <time>2020-10-24T14:01:08.149Z</time>
      </trkpt>
      <trkpt lat="46.47599" lon="8.24401">
        <ele>1439</ele>
        <time>2020-10-24T14:01:09.149Z</time>
      </trkpt>
      <trkpt lat="46.47599" lon="8.24401">
        <ele>1440</ele>
        <time>2020-10-24T14:01:10.149Z</time>
      </trkpt>
      <trkpt lat="46.476" lon="8.24401">
        <ele>1440</ele>
        <time>2020-10-24T14:01:11.148Z</time>
      </trkpt>
      <trkpt lat="46.47601" lon="8.24402">
        <ele>1440</ele>
        <time>2020-10-24T14:01:12.148Z</time>
      </trkpt>
      <trkpt lat="46.47602" lon="8.24402">
        <ele>1440</ele>
        <time>2020-10-24T14:01:13.149Z</time>
      </trkpt>
      <trkpt lat="46.47602" lon="8.24403">
        <ele>1439</ele>
        <time>2020-10-24T14:01:14.149Z</time>
      </trkpt>
      <trkpt lat="46.47603" lon="8.24404">
        <ele>1439</ele>
        <time>2020-10-24T14:01:15.148Z</time>
      </trkpt>
      <trkpt lat="46.47603" lon="8.24404">
        <ele>1439</ele>
        <time>2020-10-24T14:01:16.148Z</time>
      </trkpt>
      <trkpt lat="46.47604" lon="8.24404">
        <ele>1438</ele>
        <time>2020-10-24T14:01:17.149Z</time>
      </trkpt>
      <trkpt lat="46.47605" lon="8.24404">
        <ele>1438</ele>
        <time>2020-10-24T14:01:18.148Z</time>
      </trkpt>
      <trkpt lat="46.47605" lon="8.24404">
        <ele>1438</ele>
        <time>2020-10-24T14:01:19.149Z</time>
      </trkpt>
      <trkpt lat="46.47606" lon="8.24405">
        <ele>1438</ele>
        <time>2020-10-24T14:01:20.149Z</time>
      </trkpt>
      <trkpt lat="46.47607" lon="8.24405">
        <ele>1437</ele>
        <time>2020-10-24T14:01:21.149Z</time>
      </trkpt>
      <trkpt lat="46.47608" lon="8.24405">
        <ele>1436</ele>
        <time>2020-10-24T14:01:22.149Z</time>
      </trkpt>
      <trkpt lat="46.47609" lon="8.24405">
        <ele>1436</ele>
        <time>2020-10-24T14:01:23.148Z</time>
      </trkpt>
      <trkpt lat="46.4761" lon="8.24406">
        <ele>1436</ele>
        <time>2020-10-24T14:01:24.149Z</time>
      </trkpt>
      <trkpt lat="46.47611" lon="8.24406">
        <ele>1436</ele>
        <time>2020-10-24T14:01:25.148Z</time>
      </trkpt>
      <trkpt lat="46.47611" lon="8.24407">
        <ele>1436</ele>
        <time>2020-10-24T14:01:26.148Z</time>
      </trkpt>
      <trkpt lat="46.47612" lon="8.24408">
        <ele>1436</ele>
        <time>2020-10-24T14:01:27.148Z</time>
      </trkpt>
      <trkpt lat="46.47613" lon="8.24408">
        <ele>1436</ele>
        <time>2020-10-24T14:01:28.149Z</time>
      </trkpt>
      <trkpt lat="46.47613" lon="8.24409">
        <ele>1436</ele>
        <time>2020-10-24T14:01:29.149Z</time>
      </trkpt>
      <trkpt lat="46.47614" lon="8.24409">
        <ele>1437</ele>
        <time>2020-10-24T14:01:30.149Z</time>
      </trkpt>
      <trkpt lat="46.47615" lon="8.2441">
        <ele>1437</ele>
        <time>2020-10-24T14:01:31.148Z</time>
      </trkpt>
      <trkpt lat="46.47616" lon="8.2441">
        <ele>1437</ele>
        <time>2020-10-24T14:01:32.148Z</time>
      </trkpt>
      <trkpt lat="46.47617" lon="8.2441">
        <ele>1437</ele>
        <time>2020-10-24T14:01:33.148Z</time>
      </trkpt>
      <trkpt lat="46.47617" lon="8.2441">
        <ele>1437</ele>
        <time>2020-10-24T14:01:34.148Z</time>
      </trkpt>
      <trkpt lat="46.47618" lon="8.2441">
        <ele>1437</ele>
        <time>2020-10-24T14:01:35.148Z</time>
      </trkpt>
      <trkpt lat="46.47619" lon="8.24411">
        <ele>1437</ele>
        <time>2020-10-24T14:01:36.149Z</time>
      </trkpt>
      <trkpt lat="46.47619" lon="8.24411">
        <ele>1437</ele>
        <time>2020-10-24T14:01:37.149Z</time>
      </trkpt>
      <trkpt lat="46.4762" lon="8.24411">
        <ele>1437</ele>
        <time>2020-10-24T14:01:38.149Z</time>
      </trkpt>
      <trkpt lat="46.47621" lon="8.24412">
        <ele>1438</ele>
        <time>2020-10-24T14:01:39.148Z</time>
      </trkpt>
      <trkpt lat="46.47622" lon="8.24411">
        <ele>1438</ele>
        <time>2020-10-24T14:01:40.148Z</time>
      </trkpt>
      <trkpt lat="46.47623" lon="8.24411">
        <ele>1439</ele>
        <time>2020-10-24T14:01:41.148Z</time>
      </trkpt>
      <trkpt lat="46.47624" lon="8.2441">
        <ele>1439</ele>
        <time>2020-10-24T14:01:42.149Z</time>
      </trkpt>
      <trkpt lat="46.47624" lon="8.2441">
        <ele>1439</ele>
        <time>2020-10-24T14:01:43.148Z</time>
      </trkpt>
      <trkpt lat="46.47626" lon="8.24409">
        <ele>1438</ele>
        <time>2020-10-24T14:01:44.149Z</time>
      </trkpt>
      <trkpt lat="46.47626" lon="8.24409">
        <ele>1438</ele>
        <time>2020-10-24T14:01:45.149Z</time>
      </trkpt>
      <trkpt lat="46.47627" lon="8.24408">
        <ele>1438</ele>
        <time>2020-10-24T14:01:46.149Z</time>
      </trkpt>
      <trkpt lat="46.47628" lon="8.24408">
        <ele>1438</ele>
        <time>2020-10-24T14:01:47.149Z</time>
      </trkpt>
      <trkpt lat="46.47629" lon="8.24407">
        <ele>1438</ele>
        <time>2020-10-24T14:01:48.148Z</time>
      </trkpt>
      <trkpt lat="46.47629" lon="8.24406">
        <ele>1438</ele>
        <time>2020-10-24T14:01:49.149Z</time>
      </trkpt>
      <trkpt lat="46.4763" lon="8.24406">
        <ele>1437</ele>
        <time>2020-10-24T14:01:50.149Z</time>
      </trkpt>
      <trkpt lat="46.47631" lon="8.24405">
        <ele>1437</ele>
        <time>2020-10-24T14:01:51.148Z</time>
      </trkpt>
      <trkpt lat="46.47632" lon="8.24405">
        <ele>1437</ele>
        <time>2020-10-24T14:01:52.149Z</time>
      </trkpt>
      <trkpt lat="46.47632" lon="8.24405">
        <ele>1437</ele>
        <time>2020-10-24T14:01:53.149Z</time>
      </trkpt>
      <trkpt lat="46.47633" lon="8.24404">
        <ele>1437</ele>
        <time>2020-10-24T14:01:54.149Z</time>
      </trkpt>
      <trkpt lat="46.47634" lon="8.24404">
        <ele>1437</ele>
        <time>2020-10-24T14:01:55.148Z</time>
      </trkpt>
      <trkpt lat="46.47635" lon="8.24403">
        <ele>1438</ele>
        <time>2020-10-24T14:01:56.149Z</time>
      </trkpt>
      <trkpt lat="46.47635" lon="8.24404">
        <ele>1438</ele>
        <time>2020-10-24T14:01:57.149Z</time>
      </trkpt>
      <trkpt lat="46.47636" lon="8.24405">
        <ele>1439</ele>
        <time>2020-10-24T14:01:58.148Z</time>
      </trkpt>
      <trkpt lat="46.47637" lon="8.24406">
        <ele>1439</ele>
        <time>2020-10-24T14:01:59.148Z</time>
      </trkpt>
      <trkpt lat="46.47637" lon="8.24406">
        <ele>1440</ele>
        <time>2020-10-24T14:02:00.149Z</time>
      </trkpt>
      <trkpt lat="46.47638" lon="8.24406">
        <ele>1440</ele>
        <time>2020-10-24T14:02:01.148Z</time>
      </trkpt>
      <trkpt lat="46.47639" lon="8.24407">
        <ele>1441</ele>
        <time>2020-10-24T14:02:02.149Z</time>
      </trkpt>
      <trkpt lat="46.4764" lon="8.24407">
        <ele>1442</ele>
        <time>2020-10-24T14:02:03.149Z</time>
      </trkpt>
      <trkpt lat="46.47641" lon="8.24408">
        <ele>1443</ele>
        <time>2020-10-24T14:02:04.149Z</time>
      </trkpt>
      <trkpt lat="46.47642" lon="8.24408">
        <ele>1443</ele>
        <time>2020-10-24T14:02:05.149Z</time>
      </trkpt>
      <trkpt lat="46.47643" lon="8.24408">
        <ele>1444</ele>
        <time>2020-10-24T14:02:06.148Z</time>
      </trkpt>
      <trkpt lat="46.47644" lon="8.24407">
        <ele>1445</ele>
        <time>2020-10-24T14:02:07.148Z</time>
      </trkpt>
      <trkpt lat="46.47645" lon="8.24407">
        <ele>1445</ele>
        <time>2020-10-24T14:02:08.148Z</time>
      </trkpt>
      <trkpt lat="46.47646" lon="8.24407">
        <ele>1445</ele>
        <time>2020-10-24T14:02:09.149Z</time>
      </trkpt>
      <trkpt lat="46.47647" lon="8.24407">
        <ele>1445</ele>
        <time>2020-10-24T14:02:10.149Z</time>
      </trkpt>
      <trkpt lat="46.47647" lon="8.24407">
        <ele>1445</ele>
        <time>2020-10-24T14:02:11.149Z</time>
      </trkpt>
      <trkpt lat="46.47648" lon="8.24407">
        <ele>1444</ele>
        <time>2020-10-24T14:02:12.148Z</time>
      </trkpt>
      <trkpt lat="46.47649" lon="8.24407">
        <ele>1444</ele>
        <time>2020-10-24T14:02:13.149Z</time>
      </trkpt>
      <trkpt lat="46.4765" lon="8.24406">
        <ele>1444</ele>
        <time>2020-10-24T14:02:14.148Z</time>
      </trkpt>
      <trkpt lat="46.47651" lon="8.24406">
        <ele>1444</ele>
        <time>2020-10-24T14:02:15.148Z</time>
      </trkpt>
      <trkpt lat="46.47651" lon="8.24406">
        <ele>1444</ele>
        <time>2020-10-24T14:02:16.148Z</time>
      </trkpt>
      <trkpt lat="46.47652" lon="8.24406">
        <ele>1444</ele>
        <time>2020-10-24T14:02:17.149Z</time>
      </trkpt>
      <trkpt lat="46.47653" lon="8.24406">
        <ele>1444</ele>
        <time>2020-10-24T14:02:18.148Z</time>
      </trkpt>
      <trkpt lat="46.47654" lon="8.24406">
        <ele>1444</ele>
        <time>2020-10-24T14:02:19.149Z</time>
      </trkpt>
      <trkpt lat="46.47655" lon="8.24405">
        <ele>1445</ele>
        <time>2020-10-24T14:02:20.149Z</time>
      </trkpt>
      <trkpt lat="46.47656" lon="8.24404">
        <ele>1446</ele>
        <time>2020-10-24T14:02:21.148Z</time>
      </trkpt>
      <trkpt lat="46.47657" lon="8.24404">
        <ele>1446</ele>
        <time>2020-10-24T14:02:22.149Z</time>
      </trkpt>
      <trkpt lat="46.47658" lon="8.24403">
        <ele>1447</ele>
        <time>2020-10-24T14:02:23.148Z</time>
      </trkpt>
      <trkpt lat="46.47659" lon="8.24403">
        <ele>1447</ele>
        <time>2020-10-24T14:02:24.149Z</time>
      </trkpt>
      <trkpt lat="46.4766" lon="8.24402">
        <ele>1447</ele>
        <time>2020-10-24T14:02:25.149Z</time>
      </trkpt>
      <trkpt lat="46.4766" lon="8.24402">
        <ele>1447</ele>
        <time>2020-10-24T14:02:26.148Z</time>
      </trkpt>
      <trkpt lat="46.47661" lon="8.24402">
        <ele>1447</ele>
        <time>2020-10-24T14:02:27.149Z</time>
      </trkpt>
      <trkpt lat="46.47662" lon="8.24401">
        <ele>1447</ele>
        <time>2020-10-24T14:02:28.149Z</time>
      </trkpt>
      <trkpt lat="46.47663" lon="8.24401">
        <ele>1447</ele>
        <time>2020-10-24T14:02:29.148Z</time>
      </trkpt>
      <trkpt lat="46.47664" lon="8.244">
        <ele>1447</ele>
        <time>2020-10-24T14:02:30.149Z</time>
      </trkpt>
      <trkpt lat="46.47665" lon="8.244">
        <ele>1447</ele>
        <time>2020-10-24T14:02:31.149Z</time>
      </trkpt>
      <trkpt lat="46.47666" lon="8.244">
        <ele>1446</ele>
        <time>2020-10-24T14:02:32.148Z</time>
      </trkpt>
      <trkpt lat="46.47666" lon="8.24399">
        <ele>1446</ele>
        <time>2020-10-24T14:02:33.148Z</time>
      </trkpt>
      <trkpt lat="46.47667" lon="8.24399">
        <ele>1446</ele>
        <time>2020-10-24T14:02:34.148Z</time>
      </trkpt>
      <trkpt lat="46.47668" lon="8.24399">
        <ele>1446</ele>
        <time>2020-10-24T14:02:35.148Z</time>
      </trkpt>
      <trkpt lat="46.47668" lon="8.24398">
        <ele>1446</ele>
        <time>2020-10-24T14:02:36.149Z</time>
      </trkpt>
      <trkpt lat="46.47669" lon="8.24397">
        <ele>1446</ele>
        <time>2020-10-24T14:02:37.149Z</time>
      </trkpt>
      <trkpt lat="46.4767" lon="8.24397">
        <ele>1446</ele>
        <time>2020-10-24T14:02:38.149Z</time>
      </trkpt>
      <trkpt lat="46.4767" lon="8.24396">
        <ele>1446</ele>
        <time>2020-10-24T14:02:39.149Z</time>
      </trkpt>
      <trkpt lat="46.47671" lon="8.24396">
        <ele>1447</ele>
        <time>2020-10-24T14:02:40.148Z</time>
      </trkpt>
      <trkpt lat="46.47671" lon="8.24395">
        <ele>1447</ele>
        <time>2020-10-24T14:02:41.149Z</time>
      </trkpt>
      <trkpt lat="46.47672" lon="8.24395">
        <ele>1447</ele>
        <time>2020-10-24T14:02:42.148Z</time>
      </trkpt>
      <trkpt lat="46.47673" lon="8.24394">
        <ele>1447</ele>
        <time>2020-10-24T14:02:43.148Z</time>
      </trkpt>
      <trkpt lat="46.47674" lon="8.24394">
        <ele>1447</ele>
        <time>2020-10-24T14:02:44.149Z</time>
      </trkpt>
      <trkpt lat="46.47674" lon="8.24393">
        <ele>1447</ele>
        <time>2020-10-24T14:02:45.149Z</time>
      </trkpt>
      <trkpt lat="46.47675" lon="8.24393">
        <ele>1447</ele>
        <time>2020-10-24T14:02:46.149Z</time>
      </trkpt>
      <trkpt lat="46.47675" lon="8.24392">
        <ele>1447</ele>
        <time>2020-10-24T14:02:47.149Z</time>
      </trkpt>
      <trkpt lat="46.47676" lon="8.24392">
        <ele>1446</ele>
        <time>2020-10-24T14:02:48.149Z</time>
      </trkpt>
      <trkpt lat="46.47675" lon="8.24391">
        <ele>1446</ele>
        <time>2020-10-24T14:02:49.148Z</time>
      </trkpt>
      <trkpt lat="46.47675" lon="8.2439">
        <ele>1445</ele>
        <time>2020-10-24T14:02:50.149Z</time>
      </trkpt>
      <trkpt lat="46.47675" lon="8.24389">
        <ele>1445</ele>
        <time>2020-10-24T14:02:51.149Z</time>
      </trkpt>
      <trkpt lat="46.47676" lon="8.24388">
        <ele>1445</ele>
        <time>2020-10-24T14:02:52.149Z</time>
      </trkpt>
      <trkpt lat="46.47676" lon="8.24387">
        <ele>1445</ele>
        <time>2020-10-24T14:02:53.149Z</time>
      </trkpt>
      <trkpt lat="46.47676" lon="8.24386">
        <ele>1445</ele>
        <time>2020-10-24T14:02:54.149Z</time>
      </trkpt>
      <trkpt lat="46.47676" lon="8.24385">
        <ele>1446</ele>
        <time>2020-10-24T14:02:55.148Z</time>
      </trkpt>
      <trkpt lat="46.47676" lon="8.24385">
        <ele>1445</ele>
        <time>2020-10-24T14:02:56.148Z</time>
      </trkpt>
      <trkpt lat="46.47676" lon="8.24384">
        <ele>1445</ele>
        <time>2020-10-24T14:02:57.149Z</time>
      </trkpt>
      <trkpt lat="46.47676" lon="8.24384">
        <ele>1445</ele>
        <time>2020-10-24T14:02:58.148Z</time>
      </trkpt>
      <trkpt lat="46.47676" lon="8.24383">
        <ele>1445</ele>
        <time>2020-10-24T14:02:59.148Z</time>
      </trkpt>
      <trkpt lat="46.47676" lon="8.24383">
        <ele>1445</ele>
        <time>2020-10-24T14:03:00.149Z</time>
      </trkpt>
      <trkpt lat="46.47677" lon="8.24382">
        <ele>1446</ele>
        <time>2020-10-24T14:03:01.149Z</time>
      </trkpt>
      <trkpt lat="46.47678" lon="8.24381">
        <ele>1446</ele>
        <time>2020-10-24T14:03:02.148Z</time>
      </trkpt>
      <trkpt lat="46.47678" lon="8.2438">
        <ele>1447</ele>
        <time>2020-10-24T14:03:03.148Z</time>
      </trkpt>
      <trkpt lat="46.47679" lon="8.2438">
        <ele>1448</ele>
        <time>2020-10-24T14:03:04.149Z</time>
      </trkpt>
      <trkpt lat="46.47679" lon="8.24379">
        <ele>1449</ele>
        <time>2020-10-24T14:03:05.148Z</time>
      </trkpt>
      <trkpt lat="46.47679" lon="8.24378">
        <ele>1450</ele>
        <time>2020-10-24T14:03:06.148Z</time>
      </trkpt>
      <trkpt lat="46.47679" lon="8.24377">
        <ele>1451</ele>
        <time>2020-10-24T14:03:07.149Z</time>
      </trkpt>
      <trkpt lat="46.47679" lon="8.24376">
        <ele>1452</ele>
        <time>2020-10-24T14:03:08.149Z</time>
      </trkpt>
      <trkpt lat="46.4768" lon="8.24375">
        <ele>1452</ele>
        <time>2020-10-24T14:03:09.149Z</time>
      </trkpt>
      <trkpt lat="46.4768" lon="8.24374">
        <ele>1453</ele>
        <time>2020-10-24T14:03:10.149Z</time>
      </trkpt>
      <trkpt lat="46.4768" lon="8.24374">
        <ele>1453</ele>
        <time>2020-10-24T14:03:11.149Z</time>
      </trkpt>
      <trkpt lat="46.47681" lon="8.24373">
        <ele>1453</ele>
        <time>2020-10-24T14:03:12.148Z</time>
      </trkpt>
      <trkpt lat="46.47682" lon="8.24372">
        <ele>1454</ele>
        <time>2020-10-24T14:03:13.149Z</time>
      </trkpt>
      <trkpt lat="46.47683" lon="8.24372">
        <ele>1454</ele>
        <time>2020-10-24T14:03:14.149Z</time>
      </trkpt>
      <trkpt lat="46.47683" lon="8.24373">
        <ele>1455</ele>
        <time>2020-10-24T14:03:15.148Z</time>
      </trkpt>
      <trkpt lat="46.47684" lon="8.24373">
        <ele>1455</ele>
        <time>2020-10-24T14:03:16.149Z</time>
      </trkpt>
      <trkpt lat="46.47684" lon="8.24374">
        <ele>1455</ele>
        <time>2020-10-24T14:03:17.149Z</time>
      </trkpt>
      <trkpt lat="46.47684" lon="8.24374">
        <ele>1455</ele>
        <time>2020-10-24T14:03:18.149Z</time>
      </trkpt>
      <trkpt lat="46.47685" lon="8.24375">
        <ele>1455</ele>
        <time>2020-10-24T14:03:19.149Z</time>
      </trkpt>
      <trkpt lat="46.47685" lon="8.24375">
        <ele>1454</ele>
        <time>2020-10-24T14:03:20.148Z</time>
      </trkpt>
      <trkpt lat="46.47686" lon="8.24376">
        <ele>1454</ele>
        <time>2020-10-24T14:03:21.148Z</time>
      </trkpt>
      <trkpt lat="46.47687" lon="8.24377">
        <ele>1453</ele>
        <time>2020-10-24T14:03:22.148Z</time>
      </trkpt>
      <trkpt lat="46.47687" lon="8.24378">
        <ele>1453</ele>
        <time>2020-10-24T14:03:23.149Z</time>
      </trkpt>
      <trkpt lat="46.47687" lon="8.24379">
        <ele>1453</ele>
        <time>2020-10-24T14:03:24.149Z</time>
      </trkpt>
      <trkpt lat="46.47688" lon="8.2438">
        <ele>1453</ele>
        <time>2020-10-24T14:03:25.149Z</time>
      </trkpt>
      <trkpt lat="46.47688" lon="8.24381">
        <ele>1453</ele>
        <time>2020-10-24T14:03:26.148Z</time>
      </trkpt>
      <trkpt lat="46.47689" lon="8.24382">
        <ele>1453</ele>
        <time>2020-10-24T14:03:27.148Z</time>
      </trkpt>
      <trkpt lat="46.47689" lon="8.24383">
        <ele>1453</ele>
        <time>2020-10-24T14:03:28.148Z</time>
      </trkpt>
      <trkpt lat="46.47689" lon="8.24384">
        <ele>1453</ele>
        <time>2020-10-24T14:03:29.148Z</time>
      </trkpt>
      <trkpt lat="46.47689" lon="8.24386">
        <ele>1454</ele>
        <time>2020-10-24T14:03:30.148Z</time>
      </trkpt>
      <trkpt lat="46.4769" lon="8.24387">
        <ele>1454</ele>
        <time>2020-10-24T14:03:31.149Z</time>
      </trkpt>
      <trkpt lat="46.47691" lon="8.24388">
        <ele>1455</ele>
        <time>2020-10-24T14:03:32.148Z</time>
      </trkpt>
      <trkpt lat="46.47691" lon="8.24389">
        <ele>1456</ele>
        <time>2020-10-24T14:03:33.148Z</time>
      </trkpt>
      <trkpt lat="46.47691" lon="8.24391">
        <ele>1456</ele>
        <time>2020-10-24T14:03:34.148Z</time>
      </trkpt>
      <trkpt lat="46.47691" lon="8.24392">
        <ele>1457</ele>
        <time>2020-10-24T14:03:35.148Z</time>
      </trkpt>
      <trkpt lat="46.47691" lon="8.24393">
        <ele>1456</ele>
        <time>2020-10-24T14:03:36.148Z</time>
      </trkpt>
      <trkpt lat="46.47691" lon="8.24395">
        <ele>1456</ele>
        <time>2020-10-24T14:03:37.148Z</time>
      </trkpt>
      <trkpt lat="46.47691" lon="8.24396">
        <ele>1456</ele>
        <time>2020-10-24T14:03:38.149Z</time>
      </trkpt>
      <trkpt lat="46.47692" lon="8.24397">
        <ele>1455</ele>
        <time>2020-10-24T14:03:39.149Z</time>
      </trkpt>
      <trkpt lat="46.47692" lon="8.24398">
        <ele>1455</ele>
        <time>2020-10-24T14:03:40.149Z</time>
      </trkpt>
      <trkpt lat="46.47692" lon="8.244">
        <ele>1455</ele>
        <time>2020-10-24T14:03:41.149Z</time>
      </trkpt>
      <trkpt lat="46.47693" lon="8.24401">
        <ele>1455</ele>
        <time>2020-10-24T14:03:42.148Z</time>
      </trkpt>
      <trkpt lat="46.47693" lon="8.24402">
        <ele>1455</ele>
        <time>2020-10-24T14:03:43.148Z</time>
      </trkpt>
      <trkpt lat="46.47693" lon="8.24404">
        <ele>1456</ele>
        <time>2020-10-24T14:03:44.148Z</time>
      </trkpt>
      <trkpt lat="46.47693" lon="8.24405">
        <ele>1456</ele>
        <time>2020-10-24T14:03:45.149Z</time>
      </trkpt>
      <trkpt lat="46.47693" lon="8.24406">
        <ele>1456</ele>
        <time>2020-10-24T14:03:46.149Z</time>
      </trkpt>
      <trkpt lat="46.47693" lon="8.24407">
        <ele>1456</ele>
        <time>2020-10-24T14:03:47.148Z</time>
      </trkpt>
      <trkpt lat="46.47693" lon="8.24408">
        <ele>1456</ele>
        <time>2020-10-24T14:03:48.149Z</time>
      </trkpt>
      <trkpt lat="46.47694" lon="8.24409">
        <ele>1455</ele>
        <time>2020-10-24T14:03:49.149Z</time>
      </trkpt>
      <trkpt lat="46.47694" lon="8.24411">
        <ele>1455</ele>
        <time>2020-10-24T14:03:50.148Z</time>
      </trkpt>
      <trkpt lat="46.47694" lon="8.24412">
        <ele>1455</ele>
        <time>2020-10-24T14:03:51.149Z</time>
      </trkpt>
      <trkpt lat="46.47694" lon="8.24413">
        <ele>1455</ele>
        <time>2020-10-24T14:03:52.149Z</time>
      </trkpt>
      <trkpt lat="46.47694" lon="8.24415">
        <ele>1455</ele>
        <time>2020-10-24T14:03:53.148Z</time>
      </trkpt>
      <trkpt lat="46.47694" lon="8.24416">
        <ele>1455</ele>
        <time>2020-10-24T14:03:54.149Z</time>
      </trkpt>
      <trkpt lat="46.47693" lon="8.24417">
        <ele>1455</ele>
        <time>2020-10-24T14:03:55.149Z</time>
      </trkpt>
      <trkpt lat="46.47693" lon="8.24418">
        <ele>1455</ele>
        <time>2020-10-24T14:03:56.149Z</time>
      </trkpt>
      <trkpt lat="46.47693" lon="8.24419">
        <ele>1456</ele>
        <time>2020-10-24T14:03:57.148Z</time>
      </trkpt>
      <trkpt lat="46.47693" lon="8.2442">
        <ele>1456</ele>
        <time>2020-10-24T14:03:58.148Z</time>
      </trkpt>
      <trkpt lat="46.47692" lon="8.24421">
        <ele>1456</ele>
        <time>2020-10-24T14:03:59.148Z</time>
      </trkpt>
      <trkpt lat="46.47692" lon="8.24422">
        <ele>1456</ele>
        <time>2020-10-24T14:04:00.148Z</time>
      </trkpt>
      <trkpt lat="46.47692" lon="8.24424">
        <ele>1457</ele>
        <time>2020-10-24T14:04:01.149Z</time>
      </trkpt>
      <trkpt lat="46.47691" lon="8.24425">
        <ele>1458</ele>
        <time>2020-10-24T14:04:02.148Z</time>
      </trkpt>
      <trkpt lat="46.47692" lon="8.24427">
        <ele>1458</ele>
        <time>2020-10-24T14:04:03.149Z</time>
      </trkpt>
      <trkpt lat="46.47692" lon="8.24427">
        <ele>1459</ele>
        <time>2020-10-24T14:04:04.149Z</time>
      </trkpt>
      <trkpt lat="46.47692" lon="8.24429">
        <ele>1459</ele>
        <time>2020-10-24T14:04:05.149Z</time>
      </trkpt>
      <trkpt lat="46.47692" lon="8.2443">
        <ele>1459</ele>
        <time>2020-10-24T14:04:06.148Z</time>
      </trkpt>
      <trkpt lat="46.47692" lon="8.2443">
        <ele>1459</ele>
        <time>2020-10-24T14:04:07.148Z</time>
      </trkpt>
      <trkpt lat="46.47693" lon="8.24432">
        <ele>1458</ele>
        <time>2020-10-24T14:04:08.149Z</time>
      </trkpt>
      <trkpt lat="46.47693" lon="8.24433">
        <ele>1458</ele>
        <time>2020-10-24T14:04:09.149Z</time>
      </trkpt>
      <trkpt lat="46.47693" lon="8.24434">
        <ele>1459</ele>
        <time>2020-10-24T14:04:10.149Z</time>
      </trkpt>
      <trkpt lat="46.47693" lon="8.24436">
        <ele>1459</ele>
        <time>2020-10-24T14:04:11.149Z</time>
      </trkpt>
      <trkpt lat="46.47694" lon="8.24437">
        <ele>1459</ele>
        <time>2020-10-24T14:04:12.149Z</time>
      </trkpt>
      <trkpt lat="46.47694" lon="8.24438">
        <ele>1459</ele>
        <time>2020-10-24T14:04:13.149Z</time>
      </trkpt>
      <trkpt lat="46.47694" lon="8.24439">
        <ele>1459</ele>
        <time>2020-10-24T14:04:14.149Z</time>
      </trkpt>
      <trkpt lat="46.47694" lon="8.2444">
        <ele>1459</ele>
        <time>2020-10-24T14:04:15.149Z</time>
      </trkpt>
      <trkpt lat="46.47694" lon="8.2444">
        <ele>1460</ele>
        <time>2020-10-24T14:04:16.149Z</time>
      </trkpt>
      <trkpt lat="46.47694" lon="8.24442">
        <ele>1460</ele>
        <time>2020-10-24T14:04:17.149Z</time>
      </trkpt>
      <trkpt lat="46.47694" lon="8.24443">
        <ele>1461</ele>
        <time>2020-10-24T14:04:18.149Z</time>
      </trkpt>
      <trkpt lat="46.47694" lon="8.24444">
        <ele>1462</ele>
        <time>2020-10-24T14:04:19.149Z</time>
      </trkpt>
      <trkpt lat="46.47694" lon="8.24445">
        <ele>1462</ele>
        <time>2020-10-24T14:04:20.148Z</time>
      </trkpt>
      <trkpt lat="46.47695" lon="8.24446">
        <ele>1463</ele>
        <time>2020-10-24T14:04:21.148Z</time>
      </trkpt>
      <trkpt lat="46.47695" lon="8.24447">
        <ele>1463</ele>
        <time>2020-10-24T14:04:22.149Z</time>
      </trkpt>
      <trkpt lat="46.47695" lon="8.24448">
        <ele>1464</ele>
        <time>2020-10-24T14:04:23.149Z</time>
      </trkpt>
      <trkpt lat="46.47695" lon="8.24449">
        <ele>1464</ele>
        <time>2020-10-24T14:04:24.149Z</time>
      </trkpt>
      <trkpt lat="46.47695" lon="8.2445">
        <ele>1464</ele>
        <time>2020-10-24T14:04:25.149Z</time>
      </trkpt>
      <trkpt lat="46.47695" lon="8.24452">
        <ele>1465</ele>
        <time>2020-10-24T14:04:26.148Z</time>
      </trkpt>
      <trkpt lat="46.47694" lon="8.24453">
        <ele>1466</ele>
        <time>2020-10-24T14:04:27.149Z</time>
      </trkpt>
      <trkpt lat="46.47695" lon="8.24454">
        <ele>1466</ele>
        <time>2020-10-24T14:04:28.149Z</time>
      </trkpt>
      <trkpt lat="46.47695" lon="8.24455">
        <ele>1467</ele>
        <time>2020-10-24T14:04:29.149Z</time>
      </trkpt>
      <trkpt lat="46.47695" lon="8.24456">
        <ele>1466</ele>
        <time>2020-10-24T14:04:30.148Z</time>
      </trkpt>
      <trkpt lat="46.47695" lon="8.24456">
        <ele>1466</ele>
        <time>2020-10-24T14:04:31.149Z</time>
      </trkpt>
      <trkpt lat="46.47695" lon="8.24457">
        <ele>1466</ele>
        <time>2020-10-24T14:04:32.148Z</time>
      </trkpt>
      <trkpt lat="46.47696" lon="8.24457">
        <ele>1466</ele>
        <time>2020-10-24T14:04:33.148Z</time>
      </trkpt>
      <trkpt lat="46.47696" lon="8.24458">
        <ele>1466</ele>
        <time>2020-10-24T14:04:34.149Z</time>
      </trkpt>
      <trkpt lat="46.47696" lon="8.24459">
        <ele>1467</ele>
        <time>2020-10-24T14:04:35.148Z</time>
      </trkpt>
      <trkpt lat="46.47696" lon="8.2446">
        <ele>1467</ele>
        <time>2020-10-24T14:04:36.149Z</time>
      </trkpt>
      <trkpt lat="46.47696" lon="8.24461">
        <ele>1468</ele>
        <time>2020-10-24T14:04:37.149Z</time>
      </trkpt>
      <trkpt lat="46.47697" lon="8.24462">
        <ele>1469</ele>
        <time>2020-10-24T14:04:38.149Z</time>
      </trkpt>
      <trkpt lat="46.47697" lon="8.24462">
        <ele>1469</ele>
        <time>2020-10-24T14:04:39.148Z</time>
      </trkpt>
      <trkpt lat="46.47698" lon="8.24463">
        <ele>1469</ele>
        <time>2020-10-24T14:04:40.149Z</time>
      </trkpt>
      <trkpt lat="46.47698" lon="8.24464">
        <ele>1469</ele>
        <time>2020-10-24T14:04:41.148Z</time>
      </trkpt>
      <trkpt lat="46.47698" lon="8.24465">
        <ele>1469</ele>
        <time>2020-10-24T14:04:42.148Z</time>
      </trkpt>
      <trkpt lat="46.47698" lon="8.24466">
        <ele>1470</ele>
        <time>2020-10-24T14:04:43.148Z</time>
      </trkpt>
      <trkpt lat="46.47698" lon="8.24467">
        <ele>1471</ele>
        <time>2020-10-24T14:04:44.149Z</time>
      </trkpt>
      <trkpt lat="46.47699" lon="8.24468">
        <ele>1471</ele>
        <time>2020-10-24T14:04:45.148Z</time>
      </trkpt>
      <trkpt lat="46.47699" lon="8.24469">
        <ele>1471</ele>
        <time>2020-10-24T14:04:46.148Z</time>
      </trkpt>
      <trkpt lat="46.477" lon="8.24471">
        <ele>1471</ele>
        <time>2020-10-24T14:04:47.148Z</time>
      </trkpt>
      <trkpt lat="46.47701" lon="8.24471">
        <ele>1470</ele>
        <time>2020-10-24T14:04:48.149Z</time>
      </trkpt>
      <trkpt lat="46.47701" lon="8.24472">
        <ele>1470</ele>
        <time>2020-10-24T14:04:49.149Z</time>
      </trkpt>
      <trkpt lat="46.47701" lon="8.24473">
        <ele>1470</ele>
        <time>2020-10-24T14:04:50.149Z</time>
      </trkpt>
      <trkpt lat="46.47701" lon="8.24474">
        <ele>1470</ele>
        <time>2020-10-24T14:04:51.149Z</time>
      </trkpt>
      <trkpt lat="46.47702" lon="8.24476">
        <ele>1470</ele>
        <time>2020-10-24T14:04:52.149Z</time>
      </trkpt>
      <trkpt lat="46.47702" lon="8.24477">
        <ele>1471</ele>
        <time>2020-10-24T14:04:53.149Z</time>
      </trkpt>
      <trkpt lat="46.47702" lon="8.24478">
        <ele>1471</ele>
        <time>2020-10-24T14:04:54.149Z</time>
      </trkpt>
      <trkpt lat="46.47703" lon="8.2448">
        <ele>1471</ele>
        <time>2020-10-24T14:04:55.148Z</time>
      </trkpt>
      <trkpt lat="46.47703" lon="8.24481">
        <ele>1471</ele>
        <time>2020-10-24T14:04:56.148Z</time>
      </trkpt>
      <trkpt lat="46.47704" lon="8.24482">
        <ele>1471</ele>
        <time>2020-10-24T14:04:57.148Z</time>
      </trkpt>
      <trkpt lat="46.47705" lon="8.24483">
        <ele>1471</ele>
        <time>2020-10-24T14:04:58.148Z</time>
      </trkpt>
      <trkpt lat="46.47706" lon="8.24484">
        <ele>1471</ele>
        <time>2020-10-24T14:04:59.149Z</time>
      </trkpt>
      <trkpt lat="46.47706" lon="8.24485">
        <ele>1471</ele>
        <time>2020-10-24T14:05:00.149Z</time>
      </trkpt>
      <trkpt lat="46.47707" lon="8.24486">
        <ele>1470</ele>
        <time>2020-10-24T14:05:01.148Z</time>
      </trkpt>
      <trkpt lat="46.47708" lon="8.24487">
        <ele>1471</ele>
        <time>2020-10-24T14:05:02.149Z</time>
      </trkpt>
      <trkpt lat="46.47709" lon="8.24488">
        <ele>1471</ele>
        <time>2020-10-24T14:05:03.149Z</time>
      </trkpt>
      <trkpt lat="46.47709" lon="8.24489">
        <ele>1471</ele>
        <time>2020-10-24T14:05:04.149Z</time>
      </trkpt>
      <trkpt lat="46.4771" lon="8.2449">
        <ele>1471</ele>
        <time>2020-10-24T14:05:05.149Z</time>
      </trkpt>
      <trkpt lat="46.47711" lon="8.2449">
        <ele>1471</ele>
        <time>2020-10-24T14:05:06.149Z</time>
      </trkpt>
      <trkpt lat="46.47712" lon="8.24491">
        <ele>1471</ele>
        <time>2020-10-24T14:05:07.149Z</time>
      </trkpt>
      <trkpt lat="46.47712" lon="8.24492">
        <ele>1472</ele>
        <time>2020-10-24T14:05:08.149Z</time>
      </trkpt>
      <trkpt lat="46.47713" lon="8.24492">
        <ele>1472</ele>
        <time>2020-10-24T14:05:09.149Z</time>
      </trkpt>
      <trkpt lat="46.47713" lon="8.24493">
        <ele>1473</ele>
        <time>2020-10-24T14:05:10.148Z</time>
      </trkpt>
      <trkpt lat="46.47713" lon="8.24494">
        <ele>1473</ele>
        <time>2020-10-24T14:05:11.149Z</time>
      </trkpt>
      <trkpt lat="46.47714" lon="8.24496">
        <ele>1474</ele>
        <time>2020-10-24T14:05:12.149Z</time>
      </trkpt>
      <trkpt lat="46.47714" lon="8.24497">
        <ele>1474</ele>
        <time>2020-10-24T14:05:13.149Z</time>
      </trkpt>
      <trkpt lat="46.47715" lon="8.24498">
        <ele>1474</ele>
        <time>2020-10-24T14:05:14.149Z</time>
      </trkpt>
      <trkpt lat="46.47715" lon="8.24499">
        <ele>1474</ele>
        <time>2020-10-24T14:05:15.148Z</time>
      </trkpt>
      <trkpt lat="46.47715" lon="8.24499">
        <ele>1474</ele>
        <time>2020-10-24T14:05:16.148Z</time>
      </trkpt>
      <trkpt lat="46.47716" lon="8.245">
        <ele>1474</ele>
        <time>2020-10-24T14:05:17.149Z</time>
      </trkpt>
      <trkpt lat="46.47716" lon="8.24501">
        <ele>1474</ele>
        <time>2020-10-24T14:05:18.149Z</time>
      </trkpt>
      <trkpt lat="46.47716" lon="8.24501">
        <ele>1474</ele>
        <time>2020-10-24T14:05:19.149Z</time>
      </trkpt>
      <trkpt lat="46.47717" lon="8.24501">
        <ele>1474</ele>
        <time>2020-10-24T14:05:20.149Z</time>
      </trkpt>
      <trkpt lat="46.47718" lon="8.24501">
        <ele>1474</ele>
        <time>2020-10-24T14:05:21.148Z</time>
      </trkpt>
      <trkpt lat="46.47718" lon="8.24501">
        <ele>1475</ele>
        <time>2020-10-24T14:05:22.149Z</time>
      </trkpt>
      <trkpt lat="46.47718" lon="8.24501">
        <ele>1475</ele>
        <time>2020-10-24T14:05:23.149Z</time>
      </trkpt>
      <trkpt lat="46.47717" lon="8.245">
        <ele>1476</ele>
        <time>2020-10-24T14:05:24.150Z</time>
      </trkpt>
      <trkpt lat="46.47717" lon="8.24501">
        <ele>1477</ele>
        <time>2020-10-24T14:05:25.150Z</time>
      </trkpt>
      <trkpt lat="46.47717" lon="8.24501">
        <ele>1477</ele>
        <time>2020-10-24T14:05:26.150Z</time>
      </trkpt>
      <trkpt lat="46.47716" lon="8.24504">
        <ele>1479</ele>
        <time>2020-10-24T14:05:27.150Z</time>
      </trkpt>
      <trkpt lat="46.47716" lon="8.24504">
        <ele>1479</ele>
        <time>2020-10-24T14:05:28.150Z</time>
      </trkpt>
      <trkpt lat="46.47716" lon="8.24504">
        <ele>1479</ele>
        <time>2020-10-24T14:05:29.149Z</time>
      </trkpt>
      <trkpt lat="46.47719" lon="8.24504">
        <ele>1476</ele>
        <time>2020-10-24T14:05:30.151Z</time>
      </trkpt>
      <trkpt lat="46.47719" lon="8.24504">
        <ele>1476</ele>
        <time>2020-10-24T14:05:31.150Z</time>
      </trkpt>
      <trkpt lat="46.4772" lon="8.24504">
        <ele>1476</ele>
        <time>2020-10-24T14:05:32.150Z</time>
      </trkpt>
      <trkpt lat="46.4772" lon="8.24503">
        <ele>1478</ele>
        <time>2020-10-24T14:05:33.151Z</time>
      </trkpt>
      <trkpt lat="46.4772" lon="8.24504">
        <ele>1481</ele>
        <time>2020-10-24T14:05:34.151Z</time>
      </trkpt>
      <trkpt lat="46.47719" lon="8.24503">
        <ele>1482</ele>
        <time>2020-10-24T14:05:35.150Z</time>
      </trkpt>
      <trkpt lat="46.47718" lon="8.24503">
        <ele>1483</ele>
        <time>2020-10-24T14:05:36.151Z</time>
      </trkpt>
      <trkpt lat="46.47718" lon="8.24502">
        <ele>1483</ele>
        <time>2020-10-24T14:05:37.150Z</time>
      </trkpt>
      <trkpt lat="46.47713" lon="8.24502">
        <ele>1480</ele>
        <time>2020-10-24T14:05:38.151Z</time>
      </trkpt>
      <trkpt lat="46.47714" lon="8.24502">
        <ele>1480</ele>
        <time>2020-10-24T14:05:39.150Z</time>
      </trkpt>
      <trkpt lat="46.47714" lon="8.24502">
        <ele>1480</ele>
        <time>2020-10-24T14:05:40.151Z</time>
      </trkpt>
      <trkpt lat="46.47714" lon="8.24502">
        <ele>1479</ele>
        <time>2020-10-24T14:05:41.151Z</time>
      </trkpt>
      <trkpt lat="46.47715" lon="8.24501">
        <ele>1479</ele>
        <time>2020-10-24T14:05:42.151Z</time>
      </trkpt>
      <trkpt lat="46.47716" lon="8.24502">
        <ele>1479</ele>
        <time>2020-10-24T14:05:43.151Z</time>
      </trkpt>
      <trkpt lat="46.47716" lon="8.24502">
        <ele>1479</ele>
        <time>2020-10-24T14:05:44.150Z</time>
      </trkpt>
      <trkpt lat="46.47716" lon="8.24504">
        <ele>1478</ele>
        <time>2020-10-24T14:05:45.151Z</time>
      </trkpt>
      <trkpt lat="46.47717" lon="8.24506">
        <ele>1477</ele>
        <time>2020-10-24T14:05:46.150Z</time>
      </trkpt>
      <trkpt lat="46.47717" lon="8.24507">
        <ele>1475</ele>
        <time>2020-10-24T14:05:47.151Z</time>
      </trkpt>
      <trkpt lat="46.47717" lon="8.24507">
        <ele>1474</ele>
        <time>2020-10-24T14:05:48.150Z</time>
      </trkpt>
      <trkpt lat="46.47717" lon="8.24506">
        <ele>1473</ele>
        <time>2020-10-24T14:05:49.150Z</time>
      </trkpt>
      <trkpt lat="46.47718" lon="8.24503">
        <ele>1470</ele>
        <time>2020-10-24T14:05:50.151Z</time>
      </trkpt>
      <trkpt lat="46.47717" lon="8.24504">
        <ele>1471</ele>
        <time>2020-10-24T14:05:51.151Z</time>
      </trkpt>
      <trkpt lat="46.47718" lon="8.24504">
        <ele>1472</ele>
        <time>2020-10-24T14:05:52.150Z</time>
      </trkpt>
      <trkpt lat="46.47718" lon="8.24504">
        <ele>1472</ele>
        <time>2020-10-24T14:05:53.150Z</time>
      </trkpt>
      <trkpt lat="46.47718" lon="8.24504">
        <ele>1472</ele>
        <time>2020-10-24T14:05:54.150Z</time>
      </trkpt>
      <trkpt lat="46.47719" lon="8.24504">
        <ele>1472</ele>
        <time>2020-10-24T14:05:55.150Z</time>
      </trkpt>
      <trkpt lat="46.47719" lon="8.24504">
        <ele>1472</ele>
        <time>2020-10-24T14:05:56.151Z</time>
      </trkpt>
      <trkpt lat="46.47719" lon="8.24503">
        <ele>1474</ele>
        <time>2020-10-24T14:05:57.152Z</time>
      </trkpt>
      <trkpt lat="46.47721" lon="8.24504">
        <ele>1475</ele>
        <time>2020-10-24T14:05:58.152Z</time>
      </trkpt>
      <trkpt lat="46.47722" lon="8.24504">
        <ele>1475</ele>
        <time>2020-10-24T14:05:59.152Z</time>
      </trkpt>
      <trkpt lat="46.47723" lon="8.24505">
        <ele>1476</ele>
        <time>2020-10-24T14:06:00.153Z</time>
      </trkpt>
      <trkpt lat="46.47724" lon="8.24505">
        <ele>1476</ele>
        <time>2020-10-24T14:06:01.152Z</time>
      </trkpt>
      <trkpt lat="46.47725" lon="8.24506">
        <ele>1477</ele>
        <time>2020-10-24T14:06:02.152Z</time>
      </trkpt>
      <trkpt lat="46.47725" lon="8.24507">
        <ele>1477</ele>
        <time>2020-10-24T14:06:03.152Z</time>
      </trkpt>
      <trkpt lat="46.47725" lon="8.24507">
        <ele>1478</ele>
        <time>2020-10-24T14:06:04.152Z</time>
      </trkpt>
      <trkpt lat="46.47726" lon="8.24508">
        <ele>1478</ele>
        <time>2020-10-24T14:06:05.152Z</time>
      </trkpt>
      <trkpt lat="46.47726" lon="8.24509">
        <ele>1478</ele>
        <time>2020-10-24T14:06:06.152Z</time>
      </trkpt>
      <trkpt lat="46.47727" lon="8.2451">
        <ele>1479</ele>
        <time>2020-10-24T14:06:07.152Z</time>
      </trkpt>
      <trkpt lat="46.47728" lon="8.24511">
        <ele>1479</ele>
        <time>2020-10-24T14:06:08.152Z</time>
      </trkpt>
      <trkpt lat="46.47729" lon="8.24512">
        <ele>1479</ele>
        <time>2020-10-24T14:06:09.153Z</time>
      </trkpt>
      <trkpt lat="46.47729" lon="8.24512">
        <ele>1479</ele>
        <time>2020-10-24T14:06:10.152Z</time>
      </trkpt>
      <trkpt lat="46.47729" lon="8.24514">
        <ele>1479</ele>
        <time>2020-10-24T14:06:11.152Z</time>
      </trkpt>
      <trkpt lat="46.47729" lon="8.24515">
        <ele>1479</ele>
        <time>2020-10-24T14:06:12.153Z</time>
      </trkpt>
      <trkpt lat="46.47729" lon="8.24517">
        <ele>1479</ele>
        <time>2020-10-24T14:06:13.153Z</time>
      </trkpt>
      <trkpt lat="46.4773" lon="8.24518">
        <ele>1480</ele>
        <time>2020-10-24T14:06:14.153Z</time>
      </trkpt>
      <trkpt lat="46.4773" lon="8.24519">
        <ele>1480</ele>
        <time>2020-10-24T14:06:15.153Z</time>
      </trkpt>
      <trkpt lat="46.47729" lon="8.2452">
        <ele>1480</ele>
        <time>2020-10-24T14:06:16.153Z</time>
      </trkpt>
      <trkpt lat="46.47728" lon="8.24521">
        <ele>1480</ele>
        <time>2020-10-24T14:06:17.153Z</time>
      </trkpt>
      <trkpt lat="46.47729" lon="8.24521">
        <ele>1480</ele>
        <time>2020-10-24T14:06:18.153Z</time>
      </trkpt>
      <trkpt lat="46.4773" lon="8.24522">
        <ele>1480</ele>
        <time>2020-10-24T14:06:19.153Z</time>
      </trkpt>
      <trkpt lat="46.4773" lon="8.24522">
        <ele>1481</ele>
        <time>2020-10-24T14:06:20.153Z</time>
      </trkpt>
      <trkpt lat="46.47731" lon="8.24523">
        <ele>1481</ele>
        <time>2020-10-24T14:06:21.152Z</time>
      </trkpt>
      <trkpt lat="46.47731" lon="8.24523">
        <ele>1481</ele>
        <time>2020-10-24T14:06:22.153Z</time>
      </trkpt>
      <trkpt lat="46.47732" lon="8.24524">
        <ele>1482</ele>
        <time>2020-10-24T14:06:23.153Z</time>
      </trkpt>
      <trkpt lat="46.47732" lon="8.24525">
        <ele>1482</ele>
        <time>2020-10-24T14:06:24.153Z</time>
      </trkpt>
      <trkpt lat="46.47732" lon="8.24526">
        <ele>1482</ele>
        <time>2020-10-24T14:06:25.152Z</time>
      </trkpt>
      <trkpt lat="46.47733" lon="8.24526">
        <ele>1482</ele>
        <time>2020-10-24T14:06:26.152Z</time>
      </trkpt>
      <trkpt lat="46.47733" lon="8.24527">
        <ele>1482</ele>
        <time>2020-10-24T14:06:27.153Z</time>
      </trkpt>
      <trkpt lat="46.47734" lon="8.24527">
        <ele>1482</ele>
        <time>2020-10-24T14:06:28.153Z</time>
      </trkpt>
      <trkpt lat="46.47734" lon="8.24528">
        <ele>1482</ele>
        <time>2020-10-24T14:06:29.153Z</time>
      </trkpt>
      <trkpt lat="46.47735" lon="8.24529">
        <ele>1482</ele>
        <time>2020-10-24T14:06:30.153Z</time>
      </trkpt>
      <trkpt lat="46.47735" lon="8.2453">
        <ele>1482</ele>
        <time>2020-10-24T14:06:31.152Z</time>
      </trkpt>
      <trkpt lat="46.47736" lon="8.2453">
        <ele>1483</ele>
        <time>2020-10-24T14:06:32.153Z</time>
      </trkpt>
      <trkpt lat="46.47737" lon="8.2453">
        <ele>1483</ele>
        <time>2020-10-24T14:06:33.153Z</time>
      </trkpt>
      <trkpt lat="46.47737" lon="8.24531">
        <ele>1483</ele>
        <time>2020-10-24T14:06:34.152Z</time>
      </trkpt>
      <trkpt lat="46.47737" lon="8.24532">
        <ele>1483</ele>
        <time>2020-10-24T14:06:35.153Z</time>
      </trkpt>
      <trkpt lat="46.47737" lon="8.24533">
        <ele>1483</ele>
        <time>2020-10-24T14:06:36.153Z</time>
      </trkpt>
      <trkpt lat="46.47738" lon="8.24533">
        <ele>1483</ele>
        <time>2020-10-24T14:06:37.153Z</time>
      </trkpt>
      <trkpt lat="46.47739" lon="8.24534">
        <ele>1483</ele>
        <time>2020-10-24T14:06:38.153Z</time>
      </trkpt>
      <trkpt lat="46.4774" lon="8.24535">
        <ele>1483</ele>
        <time>2020-10-24T14:06:39.153Z</time>
      </trkpt>
      <trkpt lat="46.4774" lon="8.24535">
        <ele>1484</ele>
        <time>2020-10-24T14:06:40.152Z</time>
      </trkpt>
      <trkpt lat="46.47741" lon="8.24536">
        <ele>1484</ele>
        <time>2020-10-24T14:06:41.153Z</time>
      </trkpt>
      <trkpt lat="46.47741" lon="8.24537">
        <ele>1484</ele>
        <time>2020-10-24T14:06:42.153Z</time>
      </trkpt>
      <trkpt lat="46.47741" lon="8.24538">
        <ele>1484</ele>
        <time>2020-10-24T14:06:43.152Z</time>
      </trkpt>
      <trkpt lat="46.47741" lon="8.24539">
        <ele>1484</ele>
        <time>2020-10-24T14:06:44.153Z</time>
      </trkpt>
      <trkpt lat="46.47741" lon="8.2454">
        <ele>1485</ele>
        <time>2020-10-24T14:06:45.152Z</time>
      </trkpt>
      <trkpt lat="46.47742" lon="8.24541">
        <ele>1485</ele>
        <time>2020-10-24T14:06:46.153Z</time>
      </trkpt>
      <trkpt lat="46.47742" lon="8.24542">
        <ele>1485</ele>
        <time>2020-10-24T14:06:47.153Z</time>
      </trkpt>
      <trkpt lat="46.47742" lon="8.24543">
        <ele>1485</ele>
        <time>2020-10-24T14:06:48.153Z</time>
      </trkpt>
      <trkpt lat="46.47743" lon="8.24544">
        <ele>1485</ele>
        <time>2020-10-24T14:06:49.152Z</time>
      </trkpt>
      <trkpt lat="46.47744" lon="8.24546">
        <ele>1485</ele>
        <time>2020-10-24T14:06:50.153Z</time>
      </trkpt>
      <trkpt lat="46.47744" lon="8.24547">
        <ele>1484</ele>
        <time>2020-10-24T14:06:51.153Z</time>
      </trkpt>
      <trkpt lat="46.47744" lon="8.24548">
        <ele>1484</ele>
        <time>2020-10-24T14:06:52.153Z</time>
      </trkpt>
      <trkpt lat="46.47745" lon="8.24548">
        <ele>1485</ele>
        <time>2020-10-24T14:06:53.152Z</time>
      </trkpt>
      <trkpt lat="46.47745" lon="8.24548">
        <ele>1485</ele>
        <time>2020-10-24T14:06:54.152Z</time>
      </trkpt>
      <trkpt lat="46.47746" lon="8.24549">
        <ele>1485</ele>
        <time>2020-10-24T14:06:55.152Z</time>
      </trkpt>
      <trkpt lat="46.47746" lon="8.24551">
        <ele>1485</ele>
        <time>2020-10-24T14:06:56.153Z</time>
      </trkpt>
      <trkpt lat="46.47746" lon="8.24551">
        <ele>1485</ele>
        <time>2020-10-24T14:06:57.153Z</time>
      </trkpt>
      <trkpt lat="46.47747" lon="8.24552">
        <ele>1485</ele>
        <time>2020-10-24T14:06:58.153Z</time>
      </trkpt>
      <trkpt lat="46.47747" lon="8.24553">
        <ele>1486</ele>
        <time>2020-10-24T14:06:59.153Z</time>
      </trkpt>
      <trkpt lat="46.47747" lon="8.24553">
        <ele>1486</ele>
        <time>2020-10-24T14:07:00.153Z</time>
      </trkpt>
      <trkpt lat="46.47748" lon="8.24554">
        <ele>1486</ele>
        <time>2020-10-24T14:07:01.153Z</time>
      </trkpt>
      <trkpt lat="46.47748" lon="8.24555">
        <ele>1486</ele>
        <time>2020-10-24T14:07:02.152Z</time>
      </trkpt>
      <trkpt lat="46.47748" lon="8.24555">
        <ele>1487</ele>
        <time>2020-10-24T14:07:03.153Z</time>
      </trkpt>
      <trkpt lat="46.47749" lon="8.24556">
        <ele>1487</ele>
        <time>2020-10-24T14:07:04.153Z</time>
      </trkpt>
      <trkpt lat="46.4775" lon="8.24557">
        <ele>1488</ele>
        <time>2020-10-24T14:07:05.153Z</time>
      </trkpt>
      <trkpt lat="46.4775" lon="8.24558">
        <ele>1488</ele>
        <time>2020-10-24T14:07:06.152Z</time>
      </trkpt>
      <trkpt lat="46.4775" lon="8.24558">
        <ele>1489</ele>
        <time>2020-10-24T14:07:07.153Z</time>
      </trkpt>
      <trkpt lat="46.47751" lon="8.24559">
        <ele>1489</ele>
        <time>2020-10-24T14:07:08.153Z</time>
      </trkpt>
      <trkpt lat="46.47751" lon="8.24559">
        <ele>1489</ele>
        <time>2020-10-24T14:07:09.153Z</time>
      </trkpt>
      <trkpt lat="46.47752" lon="8.2456">
        <ele>1489</ele>
        <time>2020-10-24T14:07:10.153Z</time>
      </trkpt>
      <trkpt lat="46.47753" lon="8.2456">
        <ele>1489</ele>
        <time>2020-10-24T14:07:11.152Z</time>
      </trkpt>
      <trkpt lat="46.47753" lon="8.2456">
        <ele>1489</ele>
        <time>2020-10-24T14:07:12.152Z</time>
      </trkpt>
      <trkpt lat="46.47754" lon="8.2456">
        <ele>1489</ele>
        <time>2020-10-24T14:07:13.152Z</time>
      </trkpt>
      <trkpt lat="46.47755" lon="8.24561">
        <ele>1489</ele>
        <time>2020-10-24T14:07:14.153Z</time>
      </trkpt>
      <trkpt lat="46.47754" lon="8.24562">
        <ele>1490</ele>
        <time>2020-10-24T14:07:15.153Z</time>
      </trkpt>
      <trkpt lat="46.47755" lon="8.24563">
        <ele>1490</ele>
        <time>2020-10-24T14:07:16.153Z</time>
      </trkpt>
      <trkpt lat="46.47755" lon="8.24564">
        <ele>1491</ele>
        <time>2020-10-24T14:07:17.153Z</time>
      </trkpt>
      <trkpt lat="46.47755" lon="8.24565">
        <ele>1492</ele>
        <time>2020-10-24T14:07:18.153Z</time>
      </trkpt>
      <trkpt lat="46.47757" lon="8.24565">
        <ele>1493</ele>
        <time>2020-10-24T14:07:19.152Z</time>
      </trkpt>
      <trkpt lat="46.47758" lon="8.24566">
        <ele>1493</ele>
        <time>2020-10-24T14:07:20.152Z</time>
      </trkpt>
      <trkpt lat="46.47759" lon="8.24566">
        <ele>1493</ele>
        <time>2020-10-24T14:07:21.153Z</time>
      </trkpt>
      <trkpt lat="46.4776" lon="8.24567">
        <ele>1494</ele>
        <time>2020-10-24T14:07:22.153Z</time>
      </trkpt>
      <trkpt lat="46.47761" lon="8.24567">
        <ele>1493</ele>
        <time>2020-10-24T14:07:23.153Z</time>
      </trkpt>
      <trkpt lat="46.47761" lon="8.24567">
        <ele>1493</ele>
        <time>2020-10-24T14:07:24.152Z</time>
      </trkpt>
      <trkpt lat="46.47762" lon="8.24568">
        <ele>1493</ele>
        <time>2020-10-24T14:07:25.153Z</time>
      </trkpt>
      <trkpt lat="46.47762" lon="8.24569">
        <ele>1493</ele>
        <time>2020-10-24T14:07:26.153Z</time>
      </trkpt>
      <trkpt lat="46.47763" lon="8.2457">
        <ele>1493</ele>
        <time>2020-10-24T14:07:27.153Z</time>
      </trkpt>
      <trkpt lat="46.47763" lon="8.2457">
        <ele>1493</ele>
        <time>2020-10-24T14:07:28.152Z</time>
      </trkpt>
      <trkpt lat="46.47764" lon="8.24571">
        <ele>1493</ele>
        <time>2020-10-24T14:07:29.153Z</time>
      </trkpt>
      <trkpt lat="46.47765" lon="8.24571">
        <ele>1493</ele>
        <time>2020-10-24T14:07:30.153Z</time>
      </trkpt>
      <trkpt lat="46.47765" lon="8.24572">
        <ele>1493</ele>
        <time>2020-10-24T14:07:31.153Z</time>
      </trkpt>
      <trkpt lat="46.47766" lon="8.24573">
        <ele>1493</ele>
        <time>2020-10-24T14:07:32.153Z</time>
      </trkpt>
      <trkpt lat="46.47767" lon="8.24573">
        <ele>1493</ele>
        <time>2020-10-24T14:07:33.153Z</time>
      </trkpt>
      <trkpt lat="46.47767" lon="8.24574">
        <ele>1494</ele>
        <time>2020-10-24T14:07:34.152Z</time>
      </trkpt>
      <trkpt lat="46.47768" lon="8.24574">
        <ele>1495</ele>
        <time>2020-10-24T14:07:35.153Z</time>
      </trkpt>
      <trkpt lat="46.47769" lon="8.24574">
        <ele>1495</ele>
        <time>2020-10-24T14:07:36.152Z</time>
      </trkpt>
      <trkpt lat="46.4777" lon="8.24575">
        <ele>1496</ele>
        <time>2020-10-24T14:07:37.152Z</time>
      </trkpt>
      <trkpt lat="46.4777" lon="8.24576">
        <ele>1496</ele>
        <time>2020-10-24T14:07:38.153Z</time>
      </trkpt>
      <trkpt lat="46.47771" lon="8.24576">
        <ele>1497</ele>
        <time>2020-10-24T14:07:39.153Z</time>
      </trkpt>
      <trkpt lat="46.47771" lon="8.24577">
        <ele>1498</ele>
        <time>2020-10-24T14:07:40.153Z</time>
      </trkpt>
      <trkpt lat="46.47772" lon="8.24578">
        <ele>1499</ele>
        <time>2020-10-24T14:07:41.152Z</time>
      </trkpt>
      <trkpt lat="46.47773" lon="8.24578">
        <ele>1499</ele>
        <time>2020-10-24T14:07:42.153Z</time>
      </trkpt>
      <trkpt lat="46.47774" lon="8.24579">
        <ele>1500</ele>
        <time>2020-10-24T14:07:43.152Z</time>
      </trkpt>
      <trkpt lat="46.47774" lon="8.24579">
        <ele>1500</ele>
        <time>2020-10-24T14:07:44.152Z</time>
      </trkpt>
      <trkpt lat="46.47775" lon="8.2458">
        <ele>1500</ele>
        <time>2020-10-24T14:07:45.153Z</time>
      </trkpt>
      <trkpt lat="46.47776" lon="8.2458">
        <ele>1501</ele>
        <time>2020-10-24T14:07:46.152Z</time>
      </trkpt>
      <trkpt lat="46.47776" lon="8.24581">
        <ele>1502</ele>
        <time>2020-10-24T14:07:47.153Z</time>
      </trkpt>
      <trkpt lat="46.47777" lon="8.24581">
        <ele>1502</ele>
        <time>2020-10-24T14:07:48.153Z</time>
      </trkpt>
      <trkpt lat="46.47778" lon="8.24581">
        <ele>1503</ele>
        <time>2020-10-24T14:07:49.153Z</time>
      </trkpt>
      <trkpt lat="46.47779" lon="8.24582">
        <ele>1503</ele>
        <time>2020-10-24T14:07:50.153Z</time>
      </trkpt>
      <trkpt lat="46.47779" lon="8.24582">
        <ele>1504</ele>
        <time>2020-10-24T14:07:51.153Z</time>
      </trkpt>
      <trkpt lat="46.4778" lon="8.24583">
        <ele>1504</ele>
        <time>2020-10-24T14:07:52.152Z</time>
      </trkpt>
      <trkpt lat="46.4778" lon="8.24583">
        <ele>1505</ele>
        <time>2020-10-24T14:07:53.153Z</time>
      </trkpt>
      <trkpt lat="46.47781" lon="8.24583">
        <ele>1505</ele>
        <time>2020-10-24T14:07:54.153Z</time>
      </trkpt>
      <trkpt lat="46.47782" lon="8.24584">
        <ele>1505</ele>
        <time>2020-10-24T14:07:55.152Z</time>
      </trkpt>
      <trkpt lat="46.47783" lon="8.24584">
        <ele>1505</ele>
        <time>2020-10-24T14:07:56.153Z</time>
      </trkpt>
      <trkpt lat="46.47784" lon="8.24584">
        <ele>1505</ele>
        <time>2020-10-24T14:07:57.153Z</time>
      </trkpt>
      <trkpt lat="46.47784" lon="8.24585">
        <ele>1506</ele>
        <time>2020-10-24T14:07:58.153Z</time>
      </trkpt>
      <trkpt lat="46.47785" lon="8.24585">
        <ele>1506</ele>
        <time>2020-10-24T14:07:59.153Z</time>
      </trkpt>
      <trkpt lat="46.47786" lon="8.24586">
        <ele>1506</ele>
        <time>2020-10-24T14:08:00.152Z</time>
      </trkpt>
      <trkpt lat="46.47786" lon="8.24586">
        <ele>1506</ele>
        <time>2020-10-24T14:08:01.152Z</time>
      </trkpt>
      <trkpt lat="46.47787" lon="8.24587">
        <ele>1506</ele>
        <time>2020-10-24T14:08:02.152Z</time>
      </trkpt>
      <trkpt lat="46.47787" lon="8.24588">
        <ele>1505</ele>
        <time>2020-10-24T14:08:03.152Z</time>
      </trkpt>
      <trkpt lat="46.47788" lon="8.24588">
        <ele>1505</ele>
        <time>2020-10-24T14:08:04.152Z</time>
      </trkpt>
      <trkpt lat="46.47788" lon="8.24589">
        <ele>1505</ele>
        <time>2020-10-24T14:08:05.152Z</time>
      </trkpt>
      <trkpt lat="46.47789" lon="8.2459">
        <ele>1506</ele>
        <time>2020-10-24T14:08:06.152Z</time>
      </trkpt>
      <trkpt lat="46.47789" lon="8.24591">
        <ele>1506</ele>
        <time>2020-10-24T14:08:07.153Z</time>
      </trkpt>
      <trkpt lat="46.4779" lon="8.24592">
        <ele>1506</ele>
        <time>2020-10-24T14:08:08.153Z</time>
      </trkpt>
      <trkpt lat="46.47791" lon="8.24592">
        <ele>1507</ele>
        <time>2020-10-24T14:08:09.153Z</time>
      </trkpt>
      <trkpt lat="46.47792" lon="8.24593">
        <ele>1507</ele>
        <time>2020-10-24T14:08:10.153Z</time>
      </trkpt>
      <trkpt lat="46.47792" lon="8.24593">
        <ele>1508</ele>
        <time>2020-10-24T14:08:11.153Z</time>
      </trkpt>
      <trkpt lat="46.47793" lon="8.24594">
        <ele>1508</ele>
        <time>2020-10-24T14:08:12.152Z</time>
      </trkpt>
      <trkpt lat="46.47795" lon="8.24595">
        <ele>1509</ele>
        <time>2020-10-24T14:08:13.153Z</time>
      </trkpt>
      <trkpt lat="46.47796" lon="8.24596">
        <ele>1510</ele>
        <time>2020-10-24T14:08:14.153Z</time>
      </trkpt>
      <trkpt lat="46.47796" lon="8.24597">
        <ele>1511</ele>
        <time>2020-10-24T14:08:15.152Z</time>
      </trkpt>
      <trkpt lat="46.47797" lon="8.24597">
        <ele>1512</ele>
        <time>2020-10-24T14:08:16.153Z</time>
      </trkpt>
      <trkpt lat="46.47797" lon="8.24598">
        <ele>1512</ele>
        <time>2020-10-24T14:08:17.153Z</time>
      </trkpt>
      <trkpt lat="46.47797" lon="8.24599">
        <ele>1512</ele>
        <time>2020-10-24T14:08:18.152Z</time>
      </trkpt>
      <trkpt lat="46.47798" lon="8.24599">
        <ele>1513</ele>
        <time>2020-10-24T14:08:19.152Z</time>
      </trkpt>
      <trkpt lat="46.47799" lon="8.246">
        <ele>1513</ele>
        <time>2020-10-24T14:08:20.153Z</time>
      </trkpt>
      <trkpt lat="46.478" lon="8.246">
        <ele>1513</ele>
        <time>2020-10-24T14:08:21.153Z</time>
      </trkpt>
      <trkpt lat="46.47801" lon="8.24601">
        <ele>1513</ele>
        <time>2020-10-24T14:08:22.153Z</time>
      </trkpt>
      <trkpt lat="46.47801" lon="8.24602">
        <ele>1513</ele>
        <time>2020-10-24T14:08:23.152Z</time>
      </trkpt>
      <trkpt lat="46.47802" lon="8.24602">
        <ele>1513</ele>
        <time>2020-10-24T14:08:24.152Z</time>
      </trkpt>
      <trkpt lat="46.47803" lon="8.24603">
        <ele>1514</ele>
        <time>2020-10-24T14:08:25.152Z</time>
      </trkpt>
      <trkpt lat="46.47804" lon="8.24603">
        <ele>1514</ele>
        <time>2020-10-24T14:08:26.152Z</time>
      </trkpt>
      <trkpt lat="46.47804" lon="8.24603">
        <ele>1515</ele>
        <time>2020-10-24T14:08:27.152Z</time>
      </trkpt>
      <trkpt lat="46.47805" lon="8.24603">
        <ele>1515</ele>
        <time>2020-10-24T14:08:28.152Z</time>
      </trkpt>
      <trkpt lat="46.47806" lon="8.24603">
        <ele>1515</ele>
        <time>2020-10-24T14:08:29.153Z</time>
      </trkpt>
      <trkpt lat="46.47807" lon="8.24604">
        <ele>1514</ele>
        <time>2020-10-24T14:08:30.153Z</time>
      </trkpt>
      <trkpt lat="46.47807" lon="8.24604">
        <ele>1514</ele>
        <time>2020-10-24T14:08:31.152Z</time>
      </trkpt>
      <trkpt lat="46.47808" lon="8.24604">
        <ele>1514</ele>
        <time>2020-10-24T14:08:32.153Z</time>
      </trkpt>
      <trkpt lat="46.47809" lon="8.24604">
        <ele>1514</ele>
        <time>2020-10-24T14:08:33.153Z</time>
      </trkpt>
      <trkpt lat="46.4781" lon="8.24605">
        <ele>1514</ele>
        <time>2020-10-24T14:08:34.153Z</time>
      </trkpt>
      <trkpt lat="46.47811" lon="8.24605">
        <ele>1515</ele>
        <time>2020-10-24T14:08:35.152Z</time>
      </trkpt>
      <trkpt lat="46.47812" lon="8.24605">
        <ele>1515</ele>
        <time>2020-10-24T14:08:36.153Z</time>
      </trkpt>
      <trkpt lat="46.47813" lon="8.24605">
        <ele>1515</ele>
        <time>2020-10-24T14:08:37.153Z</time>
      </trkpt>
      <trkpt lat="46.47814" lon="8.24605">
        <ele>1516</ele>
        <time>2020-10-24T14:08:38.153Z</time>
      </trkpt>
      <trkpt lat="46.47815" lon="8.24606">
        <ele>1516</ele>
        <time>2020-10-24T14:08:39.152Z</time>
      </trkpt>
      <trkpt lat="46.47816" lon="8.24606">
        <ele>1516</ele>
        <time>2020-10-24T14:08:40.153Z</time>
      </trkpt>
      <trkpt lat="46.47816" lon="8.24606">
        <ele>1516</ele>
        <time>2020-10-24T14:08:41.153Z</time>
      </trkpt>
      <trkpt lat="46.47817" lon="8.24607">
        <ele>1516</ele>
        <time>2020-10-24T14:08:42.152Z</time>
      </trkpt>
      <trkpt lat="46.47818" lon="8.24608">
        <ele>1516</ele>
        <time>2020-10-24T14:08:43.153Z</time>
      </trkpt>
      <trkpt lat="46.47819" lon="8.24608">
        <ele>1516</ele>
        <time>2020-10-24T14:08:44.152Z</time>
      </trkpt>
      <trkpt lat="46.47819" lon="8.24608">
        <ele>1516</ele>
        <time>2020-10-24T14:08:45.153Z</time>
      </trkpt>
      <trkpt lat="46.47819" lon="8.24609">
        <ele>1515</ele>
        <time>2020-10-24T14:08:46.152Z</time>
      </trkpt>
      <trkpt lat="46.47817" lon="8.24609">
        <ele>1515</ele>
        <time>2020-10-24T14:08:47.152Z</time>
      </trkpt>
      <trkpt lat="46.47818" lon="8.24609">
        <ele>1516</ele>
        <time>2020-10-24T14:08:48.152Z</time>
      </trkpt>
      <trkpt lat="46.47819" lon="8.24607">
        <ele>1518</ele>
        <time>2020-10-24T14:08:49.153Z</time>
      </trkpt>
      <trkpt lat="46.47819" lon="8.24607">
        <ele>1518</ele>
        <time>2020-10-24T14:08:50.153Z</time>
      </trkpt>
      <trkpt lat="46.47819" lon="8.24606">
        <ele>1518</ele>
        <time>2020-10-24T14:08:51.152Z</time>
      </trkpt>
      <trkpt lat="46.47819" lon="8.24606">
        <ele>1518</ele>
        <time>2020-10-24T14:08:52.152Z</time>
      </trkpt>
      <trkpt lat="46.4782" lon="8.24606">
        <ele>1518</ele>
        <time>2020-10-24T14:08:53.152Z</time>
      </trkpt>
      <trkpt lat="46.47822" lon="8.24606">
        <ele>1519</ele>
        <time>2020-10-24T14:08:54.153Z</time>
      </trkpt>
      <trkpt lat="46.47822" lon="8.24607">
        <ele>1519</ele>
        <time>2020-10-24T14:08:55.153Z</time>
      </trkpt>
      <trkpt lat="46.47823" lon="8.24607">
        <ele>1519</ele>
        <time>2020-10-24T14:08:56.152Z</time>
      </trkpt>
      <trkpt lat="46.47823" lon="8.24608">
        <ele>1518</ele>
        <time>2020-10-24T14:08:57.153Z</time>
      </trkpt>
      <trkpt lat="46.47824" lon="8.24608">
        <ele>1519</ele>
        <time>2020-10-24T14:08:58.152Z</time>
      </trkpt>
      <trkpt lat="46.47824" lon="8.24609">
        <ele>1518</ele>
        <time>2020-10-24T14:08:59.152Z</time>
      </trkpt>
      <trkpt lat="46.47824" lon="8.24609">
        <ele>1518</ele>
        <time>2020-10-24T14:09:00.152Z</time>
      </trkpt>
      <trkpt lat="46.47825" lon="8.2461">
        <ele>1518</ele>
        <time>2020-10-24T14:09:01.152Z</time>
      </trkpt>
      <trkpt lat="46.47825" lon="8.2461">
        <ele>1517</ele>
        <time>2020-10-24T14:09:02.153Z</time>
      </trkpt>
      <trkpt lat="46.47825" lon="8.2461">
        <ele>1517</ele>
        <time>2020-10-24T14:09:03.152Z</time>
      </trkpt>
      <trkpt lat="46.47825" lon="8.24611">
        <ele>1516</ele>
        <time>2020-10-24T14:09:04.153Z</time>
      </trkpt>
      <trkpt lat="46.47825" lon="8.24612">
        <ele>1516</ele>
        <time>2020-10-24T14:09:05.152Z</time>
      </trkpt>
      <trkpt lat="46.47825" lon="8.24613">
        <ele>1515</ele>
        <time>2020-10-24T14:09:06.153Z</time>
      </trkpt>
      <trkpt lat="46.47825" lon="8.24614">
        <ele>1515</ele>
        <time>2020-10-24T14:09:07.153Z</time>
      </trkpt>
      <trkpt lat="46.47825" lon="8.24615">
        <ele>1515</ele>
        <time>2020-10-24T14:09:08.153Z</time>
      </trkpt>
      <trkpt lat="46.47825" lon="8.24616">
        <ele>1515</ele>
        <time>2020-10-24T14:09:09.153Z</time>
      </trkpt>
      <trkpt lat="46.47826" lon="8.24616">
        <ele>1516</ele>
        <time>2020-10-24T14:09:10.153Z</time>
      </trkpt>
      <trkpt lat="46.47827" lon="8.24618">
        <ele>1517</ele>
        <time>2020-10-24T14:09:11.152Z</time>
      </trkpt>
      <trkpt lat="46.47827" lon="8.24619">
        <ele>1517</ele>
        <time>2020-10-24T14:09:12.153Z</time>
      </trkpt>
      <trkpt lat="46.47828" lon="8.24619">
        <ele>1518</ele>
        <time>2020-10-24T14:09:13.152Z</time>
      </trkpt>
      <trkpt lat="46.47828" lon="8.2462">
        <ele>1518</ele>
        <time>2020-10-24T14:09:14.152Z</time>
      </trkpt>
      <trkpt lat="46.47829" lon="8.2462">
        <ele>1519</ele>
        <time>2020-10-24T14:09:15.153Z</time>
      </trkpt>
      <trkpt lat="46.47829" lon="8.2462">
        <ele>1519</ele>
        <time>2020-10-24T14:09:16.153Z</time>
      </trkpt>
      <trkpt lat="46.4783" lon="8.2462">
        <ele>1519</ele>
        <time>2020-10-24T14:09:17.152Z</time>
      </trkpt>
      <trkpt lat="46.47831" lon="8.24621">
        <ele>1520</ele>
        <time>2020-10-24T14:09:18.153Z</time>
      </trkpt>
      <trkpt lat="46.47832" lon="8.24621">
        <ele>1520</ele>
        <time>2020-10-24T14:09:19.152Z</time>
      </trkpt>
      <trkpt lat="46.47833" lon="8.24622">
        <ele>1521</ele>
        <time>2020-10-24T14:09:20.153Z</time>
      </trkpt>
      <trkpt lat="46.47834" lon="8.24622">
        <ele>1522</ele>
        <time>2020-10-24T14:09:21.152Z</time>
      </trkpt>
      <trkpt lat="46.47835" lon="8.24622">
        <ele>1522</ele>
        <time>2020-10-24T14:09:22.153Z</time>
      </trkpt>
      <trkpt lat="46.47837" lon="8.24622">
        <ele>1522</ele>
        <time>2020-10-24T14:09:23.153Z</time>
      </trkpt>
      <trkpt lat="46.47838" lon="8.24622">
        <ele>1523</ele>
        <time>2020-10-24T14:09:24.152Z</time>
      </trkpt>
      <trkpt lat="46.47839" lon="8.24622">
        <ele>1524</ele>
        <time>2020-10-24T14:09:25.153Z</time>
      </trkpt>
      <trkpt lat="46.4784" lon="8.24622">
        <ele>1524</ele>
        <time>2020-10-24T14:09:26.152Z</time>
      </trkpt>
      <trkpt lat="46.47841" lon="8.24622">
        <ele>1525</ele>
        <time>2020-10-24T14:09:27.153Z</time>
      </trkpt>
      <trkpt lat="46.47842" lon="8.24623">
        <ele>1525</ele>
        <time>2020-10-24T14:09:28.152Z</time>
      </trkpt>
      <trkpt lat="46.47843" lon="8.24623">
        <ele>1526</ele>
        <time>2020-10-24T14:09:29.153Z</time>
      </trkpt>
      <trkpt lat="46.47844" lon="8.24623">
        <ele>1527</ele>
        <time>2020-10-24T14:09:30.153Z</time>
      </trkpt>
      <trkpt lat="46.47844" lon="8.24624">
        <ele>1527</ele>
        <time>2020-10-24T14:09:31.153Z</time>
      </trkpt>
      <trkpt lat="46.47845" lon="8.24624">
        <ele>1528</ele>
        <time>2020-10-24T14:09:32.153Z</time>
      </trkpt>
      <trkpt lat="46.47845" lon="8.24625">
        <ele>1528</ele>
        <time>2020-10-24T14:09:33.152Z</time>
      </trkpt>
      <trkpt lat="46.47845" lon="8.24625">
        <ele>1528</ele>
        <time>2020-10-24T14:09:34.152Z</time>
      </trkpt>
      <trkpt lat="46.47845" lon="8.24626">
        <ele>1528</ele>
        <time>2020-10-24T14:09:35.153Z</time>
      </trkpt>
      <trkpt lat="46.47847" lon="8.24626">
        <ele>1528</ele>
        <time>2020-10-24T14:09:36.153Z</time>
      </trkpt>
      <trkpt lat="46.47847" lon="8.24626">
        <ele>1527</ele>
        <time>2020-10-24T14:09:37.153Z</time>
      </trkpt>
      <trkpt lat="46.47848" lon="8.24626">
        <ele>1527</ele>
        <time>2020-10-24T14:09:38.153Z</time>
      </trkpt>
      <trkpt lat="46.47849" lon="8.24626">
        <ele>1526</ele>
        <time>2020-10-24T14:09:39.152Z</time>
      </trkpt>
      <trkpt lat="46.47849" lon="8.24626">
        <ele>1526</ele>
        <time>2020-10-24T14:09:40.153Z</time>
      </trkpt>
      <trkpt lat="46.47851" lon="8.24626">
        <ele>1526</ele>
        <time>2020-10-24T14:09:41.153Z</time>
      </trkpt>
      <trkpt lat="46.47852" lon="8.24626">
        <ele>1526</ele>
        <time>2020-10-24T14:09:42.153Z</time>
      </trkpt>
      <trkpt lat="46.47853" lon="8.24626">
        <ele>1526</ele>
        <time>2020-10-24T14:09:43.153Z</time>
      </trkpt>
      <trkpt lat="46.47854" lon="8.24625">
        <ele>1525</ele>
        <time>2020-10-24T14:09:44.152Z</time>
      </trkpt>
      <trkpt lat="46.47854" lon="8.24625">
        <ele>1525</ele>
        <time>2020-10-24T14:09:45.153Z</time>
      </trkpt>
      <trkpt lat="46.47855" lon="8.24625">
        <ele>1525</ele>
        <time>2020-10-24T14:09:46.153Z</time>
      </trkpt>
      <trkpt lat="46.47855" lon="8.24626">
        <ele>1524</ele>
        <time>2020-10-24T14:09:47.153Z</time>
      </trkpt>
      <trkpt lat="46.47854" lon="8.24626">
        <ele>1523</ele>
        <time>2020-10-24T14:09:48.153Z</time>
      </trkpt>
      <trkpt lat="46.47855" lon="8.24627">
        <ele>1522</ele>
        <time>2020-10-24T14:09:49.153Z</time>
      </trkpt>
      <trkpt lat="46.47855" lon="8.24627">
        <ele>1522</ele>
        <time>2020-10-24T14:09:50.152Z</time>
      </trkpt>
      <trkpt lat="46.47855" lon="8.24626">
        <ele>1521</ele>
        <time>2020-10-24T14:09:51.153Z</time>
      </trkpt>
      <trkpt lat="46.47855" lon="8.24626">
        <ele>1521</ele>
        <time>2020-10-24T14:09:52.152Z</time>
      </trkpt>
      <trkpt lat="46.47856" lon="8.24626">
        <ele>1520</ele>
        <time>2020-10-24T14:09:53.153Z</time>
      </trkpt>
      <trkpt lat="46.47856" lon="8.24626">
        <ele>1518</ele>
        <time>2020-10-24T14:09:54.155Z</time>
      </trkpt>
      <trkpt lat="46.47856" lon="8.24625">
        <ele>1518</ele>
        <time>2020-10-24T14:09:55.155Z</time>
      </trkpt>
      <trkpt lat="46.47856" lon="8.24625">
        <ele>1518</ele>
        <time>2020-10-24T14:09:56.154Z</time>
      </trkpt>
      <trkpt lat="46.47855" lon="8.24625">
        <ele>1518</ele>
        <time>2020-10-24T14:09:57.154Z</time>
      </trkpt>
      <trkpt lat="46.47854" lon="8.24625">
        <ele>1518</ele>
        <time>2020-10-24T14:09:58.154Z</time>
      </trkpt>
      <trkpt lat="46.47851" lon="8.24624">
        <ele>1517</ele>
        <time>2020-10-24T14:09:59.154Z</time>
      </trkpt>
      <trkpt lat="46.4785" lon="8.24624">
        <ele>1517</ele>
        <time>2020-10-24T14:10:00.154Z</time>
      </trkpt>
      <trkpt lat="46.47849" lon="8.24624">
        <ele>1517</ele>
        <time>2020-10-24T14:10:01.155Z</time>
      </trkpt>
      <trkpt lat="46.47848" lon="8.24624">
        <ele>1517</ele>
        <time>2020-10-24T14:10:02.154Z</time>
      </trkpt>
      <trkpt lat="46.47847" lon="8.24624">
        <ele>1517</ele>
        <time>2020-10-24T14:10:03.155Z</time>
      </trkpt>
      <trkpt lat="46.47846" lon="8.24624">
        <ele>1518</ele>
        <time>2020-10-24T14:10:04.155Z</time>
      </trkpt>
      <trkpt lat="46.47845" lon="8.24624">
        <ele>1518</ele>
        <time>2020-10-24T14:10:05.155Z</time>
      </trkpt>
      <trkpt lat="46.47845" lon="8.24624">
        <ele>1519</ele>
        <time>2020-10-24T14:10:06.155Z</time>
      </trkpt>
      <trkpt lat="46.47844" lon="8.24624">
        <ele>1519</ele>
        <time>2020-10-24T14:10:07.155Z</time>
      </trkpt>
      <trkpt lat="46.47843" lon="8.24623">
        <ele>1519</ele>
        <time>2020-10-24T14:10:08.154Z</time>
      </trkpt>
      <trkpt lat="46.47841" lon="8.24623">
        <ele>1520</ele>
        <time>2020-10-24T14:10:09.154Z</time>
      </trkpt>
      <trkpt lat="46.47841" lon="8.24622">
        <ele>1520</ele>
        <time>2020-10-24T14:10:10.155Z</time>
      </trkpt>
      <trkpt lat="46.47841" lon="8.24623">
        <ele>1519</ele>
        <time>2020-10-24T14:10:11.155Z</time>
      </trkpt>
      <trkpt lat="46.4784" lon="8.24623">
        <ele>1519</ele>
        <time>2020-10-24T14:10:12.155Z</time>
      </trkpt>
      <trkpt lat="46.4784" lon="8.24624">
        <ele>1519</ele>
        <time>2020-10-24T14:10:13.155Z</time>
      </trkpt>
      <trkpt lat="46.47839" lon="8.24624">
        <ele>1519</ele>
        <time>2020-10-24T14:10:14.154Z</time>
      </trkpt>
      <trkpt lat="46.47839" lon="8.24625">
        <ele>1518</ele>
        <time>2020-10-24T14:10:15.155Z</time>
      </trkpt>
      <trkpt lat="46.47839" lon="8.24625">
        <ele>1518</ele>
        <time>2020-10-24T14:10:16.155Z</time>
      </trkpt>
      <trkpt lat="46.4784" lon="8.24625">
        <ele>1518</ele>
        <time>2020-10-24T14:10:17.155Z</time>
      </trkpt>
      <trkpt lat="46.47844" lon="8.24625">
        <ele>1516</ele>
        <time>2020-10-24T14:10:18.157Z</time>
      </trkpt>
      <trkpt lat="46.47844" lon="8.24625">
        <ele>1516</ele>
        <time>2020-10-24T14:10:19.157Z</time>
      </trkpt>
      <trkpt lat="46.47843" lon="8.24625">
        <ele>1516</ele>
        <time>2020-10-24T14:10:20.157Z</time>
      </trkpt>
      <trkpt lat="46.47845" lon="8.24626">
        <ele>1513</ele>
        <time>2020-10-24T14:10:21.157Z</time>
      </trkpt>
      <trkpt lat="46.47845" lon="8.24626">
        <ele>1513</ele>
        <time>2020-10-24T14:10:22.158Z</time>
      </trkpt>
      <trkpt lat="46.47845" lon="8.24626">
        <ele>1513</ele>
        <time>2020-10-24T14:10:23.158Z</time>
      </trkpt>
      <trkpt lat="46.47845" lon="8.24628">
        <ele>1514</ele>
        <time>2020-10-24T14:10:24.158Z</time>
      </trkpt>
      <trkpt lat="46.47844" lon="8.24627">
        <ele>1515</ele>
        <time>2020-10-24T14:10:25.159Z</time>
      </trkpt>
      <trkpt lat="46.47848" lon="8.24627">
        <ele>1518</ele>
        <time>2020-10-24T14:10:26.160Z</time>
      </trkpt>
      <trkpt lat="46.47849" lon="8.24626">
        <ele>1518</ele>
        <time>2020-10-24T14:10:27.160Z</time>
      </trkpt>
      <trkpt lat="46.47849" lon="8.24625">
        <ele>1518</ele>
        <time>2020-10-24T14:10:28.159Z</time>
      </trkpt>
      <trkpt lat="46.47849" lon="8.24624">
        <ele>1518</ele>
        <time>2020-10-24T14:10:29.159Z</time>
      </trkpt>
      <trkpt lat="46.4785" lon="8.24624">
        <ele>1518</ele>
        <time>2020-10-24T14:10:30.160Z</time>
      </trkpt>
      <trkpt lat="46.47851" lon="8.24623">
        <ele>1518</ele>
        <time>2020-10-24T14:10:31.160Z</time>
      </trkpt>
      <trkpt lat="46.47851" lon="8.24622">
        <ele>1518</ele>
        <time>2020-10-24T14:10:32.159Z</time>
      </trkpt>
      <trkpt lat="46.47852" lon="8.24622">
        <ele>1518</ele>
        <time>2020-10-24T14:10:33.159Z</time>
      </trkpt>
      <trkpt lat="46.47852" lon="8.24621">
        <ele>1519</ele>
        <time>2020-10-24T14:10:34.160Z</time>
      </trkpt>
      <trkpt lat="46.47853" lon="8.24621">
        <ele>1519</ele>
        <time>2020-10-24T14:10:35.160Z</time>
      </trkpt>
      <trkpt lat="46.47853" lon="8.2462">
        <ele>1520</ele>
        <time>2020-10-24T14:10:36.160Z</time>
      </trkpt>
      <trkpt lat="46.47854" lon="8.2462">
        <ele>1520</ele>
        <time>2020-10-24T14:10:37.159Z</time>
      </trkpt>
      <trkpt lat="46.47855" lon="8.24619">
        <ele>1521</ele>
        <time>2020-10-24T14:10:38.160Z</time>
      </trkpt>
      <trkpt lat="46.47856" lon="8.24618">
        <ele>1522</ele>
        <time>2020-10-24T14:10:39.159Z</time>
      </trkpt>
      <trkpt lat="46.47857" lon="8.24617">
        <ele>1522</ele>
        <time>2020-10-24T14:10:40.160Z</time>
      </trkpt>
      <trkpt lat="46.47858" lon="8.24617">
        <ele>1522</ele>
        <time>2020-10-24T14:10:41.160Z</time>
      </trkpt>
      <trkpt lat="46.47858" lon="8.24616">
        <ele>1522</ele>
        <time>2020-10-24T14:10:42.160Z</time>
      </trkpt>
      <trkpt lat="46.47859" lon="8.24615">
        <ele>1522</ele>
        <time>2020-10-24T14:10:43.160Z</time>
      </trkpt>
      <trkpt lat="46.47859" lon="8.24615">
        <ele>1522</ele>
        <time>2020-10-24T14:10:44.160Z</time>
      </trkpt>
      <trkpt lat="46.47859" lon="8.24614">
        <ele>1522</ele>
        <time>2020-10-24T14:10:45.159Z</time>
      </trkpt>
      <trkpt lat="46.47858" lon="8.24613">
        <ele>1522</ele>
        <time>2020-10-24T14:10:46.160Z</time>
      </trkpt>
      <trkpt lat="46.47858" lon="8.24612">
        <ele>1522</ele>
        <time>2020-10-24T14:10:47.160Z</time>
      </trkpt>
      <trkpt lat="46.47858" lon="8.24611">
        <ele>1522</ele>
        <time>2020-10-24T14:10:48.160Z</time>
      </trkpt>
      <trkpt lat="46.47858" lon="8.2461">
        <ele>1522</ele>
        <time>2020-10-24T14:10:49.159Z</time>
      </trkpt>
      <trkpt lat="46.47858" lon="8.24609">
        <ele>1522</ele>
        <time>2020-10-24T14:10:50.160Z</time>
      </trkpt>
      <trkpt lat="46.47858" lon="8.24608">
        <ele>1522</ele>
        <time>2020-10-24T14:10:51.159Z</time>
      </trkpt>
      <trkpt lat="46.47858" lon="8.24608">
        <ele>1521</ele>
        <time>2020-10-24T14:10:52.159Z</time>
      </trkpt>
      <trkpt lat="46.47858" lon="8.24607">
        <ele>1521</ele>
        <time>2020-10-24T14:10:53.160Z</time>
      </trkpt>
      <trkpt lat="46.47857" lon="8.24606">
        <ele>1522</ele>
        <time>2020-10-24T14:10:54.160Z</time>
      </trkpt>
      <trkpt lat="46.47857" lon="8.24605">
        <ele>1523</ele>
        <time>2020-10-24T14:10:55.160Z</time>
      </trkpt>
      <trkpt lat="46.47856" lon="8.24604">
        <ele>1524</ele>
        <time>2020-10-24T14:10:56.160Z</time>
      </trkpt>
      <trkpt lat="46.47856" lon="8.24604">
        <ele>1524</ele>
        <time>2020-10-24T14:10:57.160Z</time>
      </trkpt>
      <trkpt lat="46.47856" lon="8.24603">
        <ele>1524</ele>
        <time>2020-10-24T14:10:58.159Z</time>
      </trkpt>
      <trkpt lat="46.47856" lon="8.24602">
        <ele>1525</ele>
        <time>2020-10-24T14:10:59.159Z</time>
      </trkpt>
      <trkpt lat="46.47856" lon="8.24602">
        <ele>1525</ele>
        <time>2020-10-24T14:11:00.160Z</time>
      </trkpt>
      <trkpt lat="46.47856" lon="8.24601">
        <ele>1525</ele>
        <time>2020-10-24T14:11:01.160Z</time>
      </trkpt>
      <trkpt lat="46.47865" lon="8.24562">
        <ele>1537</ele>
        <time>2020-10-24T14:11:02.159Z</time>
      </trkpt>
      <trkpt lat="46.47862" lon="8.24553">
        <ele>1538</ele>
        <time>2020-10-24T14:11:03.159Z</time>
      </trkpt>
      <trkpt lat="46.47861" lon="8.24554">
        <ele>1541</ele>
        <time>2020-10-24T14:11:04.159Z</time>
      </trkpt>
      <trkpt lat="46.4786" lon="8.24559">
        <ele>1543</ele>
        <time>2020-10-24T14:11:05.160Z</time>
      </trkpt>
      <trkpt lat="46.47858" lon="8.24567">
        <ele>1544</ele>
        <time>2020-10-24T14:11:06.160Z</time>
      </trkpt>
      <trkpt lat="46.47857" lon="8.24575">
        <ele>1535</ele>
        <time>2020-10-24T14:11:07.160Z</time>
      </trkpt>
      <trkpt lat="46.47857" lon="8.24578">
        <ele>1535</ele>
        <time>2020-10-24T14:11:08.159Z</time>
      </trkpt>
      <trkpt lat="46.47857" lon="8.2458">
        <ele>1534</ele>
        <time>2020-10-24T14:11:09.159Z</time>
      </trkpt>
      <trkpt lat="46.47857" lon="8.24581">
        <ele>1533</ele>
        <time>2020-10-24T14:11:10.159Z</time>
      </trkpt>
      <trkpt lat="46.47856" lon="8.24582">
        <ele>1532</ele>
        <time>2020-10-24T14:11:11.160Z</time>
      </trkpt>
      <trkpt lat="46.47856" lon="8.24582">
        <ele>1532</ele>
        <time>2020-10-24T14:11:12.160Z</time>
      </trkpt>
      <trkpt lat="46.47856" lon="8.24582">
        <ele>1531</ele>
        <time>2020-10-24T14:11:13.160Z</time>
      </trkpt>
      <trkpt lat="46.47856" lon="8.24582">
        <ele>1531</ele>
        <time>2020-10-24T14:11:14.160Z</time>
      </trkpt>
      <trkpt lat="46.47855" lon="8.24581">
        <ele>1530</ele>
        <time>2020-10-24T14:11:15.159Z</time>
      </trkpt>
      <trkpt lat="46.47855" lon="8.24581">
        <ele>1530</ele>
        <time>2020-10-24T14:11:16.160Z</time>
      </trkpt>
      <trkpt lat="46.47855" lon="8.24581">
        <ele>1530</ele>
        <time>2020-10-24T14:11:17.160Z</time>
      </trkpt>
      <trkpt lat="46.47855" lon="8.24581">
        <ele>1530</ele>
        <time>2020-10-24T14:11:18.160Z</time>
      </trkpt>
      <trkpt lat="46.47854" lon="8.24582">
        <ele>1530</ele>
        <time>2020-10-24T14:11:19.160Z</time>
      </trkpt>
      <trkpt lat="46.47854" lon="8.24581">
        <ele>1530</ele>
        <time>2020-10-24T14:11:20.159Z</time>
      </trkpt>
      <trkpt lat="46.47854" lon="8.24581">
        <ele>1530</ele>
        <time>2020-10-24T14:11:21.160Z</time>
      </trkpt>
      <trkpt lat="46.47854" lon="8.24581">
        <ele>1530</ele>
        <time>2020-10-24T14:11:22.160Z</time>
      </trkpt>
      <trkpt lat="46.47854" lon="8.24581">
        <ele>1530</ele>
        <time>2020-10-24T14:11:23.161Z</time>
      </trkpt>
      <trkpt lat="46.47853" lon="8.2458">
        <ele>1530</ele>
        <time>2020-10-24T14:11:24.160Z</time>
      </trkpt>
      <trkpt lat="46.47853" lon="8.24579">
        <ele>1530</ele>
        <time>2020-10-24T14:11:25.160Z</time>
      </trkpt>
      <trkpt lat="46.47853" lon="8.24578">
        <ele>1530</ele>
        <time>2020-10-24T14:11:26.161Z</time>
      </trkpt>
      <trkpt lat="46.47852" lon="8.24577">
        <ele>1531</ele>
        <time>2020-10-24T14:11:27.161Z</time>
      </trkpt>
      <trkpt lat="46.47852" lon="8.24577">
        <ele>1531</ele>
        <time>2020-10-24T14:11:28.161Z</time>
      </trkpt>
      <trkpt lat="46.47852" lon="8.24576">
        <ele>1531</ele>
        <time>2020-10-24T14:11:29.161Z</time>
      </trkpt>
      <trkpt lat="46.47851" lon="8.24575">
        <ele>1531</ele>
        <time>2020-10-24T14:11:30.161Z</time>
      </trkpt>
      <trkpt lat="46.4785" lon="8.24575">
        <ele>1531</ele>
        <time>2020-10-24T14:11:31.161Z</time>
      </trkpt>
      <trkpt lat="46.4785" lon="8.24574">
        <ele>1531</ele>
        <time>2020-10-24T14:11:32.161Z</time>
      </trkpt>
      <trkpt lat="46.47849" lon="8.24573">
        <ele>1531</ele>
        <time>2020-10-24T14:11:33.161Z</time>
      </trkpt>
      <trkpt lat="46.47849" lon="8.24573">
        <ele>1532</ele>
        <time>2020-10-24T14:11:34.160Z</time>
      </trkpt>
      <trkpt lat="46.47848" lon="8.24572">
        <ele>1532</ele>
        <time>2020-10-24T14:11:35.160Z</time>
      </trkpt>
      <trkpt lat="46.47848" lon="8.24572">
        <ele>1533</ele>
        <time>2020-10-24T14:11:36.161Z</time>
      </trkpt>
      <trkpt lat="46.47848" lon="8.24571">
        <ele>1533</ele>
        <time>2020-10-24T14:11:37.161Z</time>
      </trkpt>
      <trkpt lat="46.47847" lon="8.24571">
        <ele>1533</ele>
        <time>2020-10-24T14:11:38.161Z</time>
      </trkpt>
      <trkpt lat="46.47847" lon="8.2457">
        <ele>1533</ele>
        <time>2020-10-24T14:11:39.161Z</time>
      </trkpt>
      <trkpt lat="46.47847" lon="8.2457">
        <ele>1533</ele>
        <time>2020-10-24T14:11:40.161Z</time>
      </trkpt>
      <trkpt lat="46.47847" lon="8.24569">
        <ele>1533</ele>
        <time>2020-10-24T14:11:41.160Z</time>
      </trkpt>
      <trkpt lat="46.47846" lon="8.24568">
        <ele>1532</ele>
        <time>2020-10-24T14:11:42.161Z</time>
      </trkpt>
      <trkpt lat="46.47846" lon="8.24567">
        <ele>1532</ele>
        <time>2020-10-24T14:11:43.161Z</time>
      </trkpt>
      <trkpt lat="46.47846" lon="8.24566">
        <ele>1532</ele>
        <time>2020-10-24T14:11:44.161Z</time>
      </trkpt>
      <trkpt lat="46.47845" lon="8.24566">
        <ele>1532</ele>
        <time>2020-10-24T14:11:45.160Z</time>
      </trkpt>
      <trkpt lat="46.47844" lon="8.24565">
        <ele>1532</ele>
        <time>2020-10-24T14:11:46.161Z</time>
      </trkpt>
      <trkpt lat="46.47843" lon="8.24564">
        <ele>1533</ele>
        <time>2020-10-24T14:11:47.161Z</time>
      </trkpt>
      <trkpt lat="46.47843" lon="8.24563">
        <ele>1533</ele>
        <time>2020-10-24T14:11:48.160Z</time>
      </trkpt>
      <trkpt lat="46.47842" lon="8.24563">
        <ele>1533</ele>
        <time>2020-10-24T14:11:49.160Z</time>
      </trkpt>
      <trkpt lat="46.47841" lon="8.24562">
        <ele>1533</ele>
        <time>2020-10-24T14:11:50.161Z</time>
      </trkpt>
      <trkpt lat="46.47841" lon="8.24561">
        <ele>1533</ele>
        <time>2020-10-24T14:11:51.160Z</time>
      </trkpt>
      <trkpt lat="46.4784" lon="8.2456">
        <ele>1534</ele>
        <time>2020-10-24T14:11:52.161Z</time>
      </trkpt>
      <trkpt lat="46.47839" lon="8.24559">
        <ele>1534</ele>
        <time>2020-10-24T14:11:53.160Z</time>
      </trkpt>
      <trkpt lat="46.47839" lon="8.24558">
        <ele>1535</ele>
        <time>2020-10-24T14:11:54.161Z</time>
      </trkpt>
      <trkpt lat="46.47839" lon="8.24558">
        <ele>1535</ele>
        <time>2020-10-24T14:11:55.160Z</time>
      </trkpt>
      <trkpt lat="46.47838" lon="8.24557">
        <ele>1535</ele>
        <time>2020-10-24T14:11:56.160Z</time>
      </trkpt>
      <trkpt lat="46.47837" lon="8.24556">
        <ele>1535</ele>
        <time>2020-10-24T14:11:57.161Z</time>
      </trkpt>
      <trkpt lat="46.47836" lon="8.24555">
        <ele>1536</ele>
        <time>2020-10-24T14:11:58.161Z</time>
      </trkpt>
      <trkpt lat="46.47836" lon="8.24555">
        <ele>1536</ele>
        <time>2020-10-24T14:11:59.161Z</time>
      </trkpt>
      <trkpt lat="46.47836" lon="8.24554">
        <ele>1536</ele>
        <time>2020-10-24T14:12:00.161Z</time>
      </trkpt>
      <trkpt lat="46.47836" lon="8.24553">
        <ele>1535</ele>
        <time>2020-10-24T14:12:01.160Z</time>
      </trkpt>
      <trkpt lat="46.47835" lon="8.24552">
        <ele>1535</ele>
        <time>2020-10-24T14:12:02.161Z</time>
      </trkpt>
      <trkpt lat="46.47835" lon="8.24552">
        <ele>1535</ele>
        <time>2020-10-24T14:12:03.160Z</time>
      </trkpt>
      <trkpt lat="46.47835" lon="8.24551">
        <ele>1535</ele>
        <time>2020-10-24T14:12:04.160Z</time>
      </trkpt>
      <trkpt lat="46.47835" lon="8.2455">
        <ele>1535</ele>
        <time>2020-10-24T14:12:05.160Z</time>
      </trkpt>
      <trkpt lat="46.47835" lon="8.24548">
        <ele>1536</ele>
        <time>2020-10-24T14:12:06.160Z</time>
      </trkpt>
      <trkpt lat="46.47835" lon="8.24547">
        <ele>1536</ele>
        <time>2020-10-24T14:12:07.160Z</time>
      </trkpt>
      <trkpt lat="46.47835" lon="8.24547">
        <ele>1536</ele>
        <time>2020-10-24T14:12:08.161Z</time>
      </trkpt>
      <trkpt lat="46.47836" lon="8.24546">
        <ele>1537</ele>
        <time>2020-10-24T14:12:09.161Z</time>
      </trkpt>
      <trkpt lat="46.47836" lon="8.24546">
        <ele>1538</ele>
        <time>2020-10-24T14:12:10.161Z</time>
      </trkpt>
      <trkpt lat="46.47836" lon="8.24546">
        <ele>1539</ele>
        <time>2020-10-24T14:12:11.161Z</time>
      </trkpt>
      <trkpt lat="46.47836" lon="8.24546">
        <ele>1540</ele>
        <time>2020-10-24T14:12:12.161Z</time>
      </trkpt>
      <trkpt lat="46.47837" lon="8.24547">
        <ele>1541</ele>
        <time>2020-10-24T14:12:13.161Z</time>
      </trkpt>
      <trkpt lat="46.47837" lon="8.24548">
        <ele>1541</ele>
        <time>2020-10-24T14:12:14.161Z</time>
      </trkpt>
      <trkpt lat="46.47838" lon="8.24548">
        <ele>1542</ele>
        <time>2020-10-24T14:12:15.161Z</time>
      </trkpt>
      <trkpt lat="46.47839" lon="8.24548">
        <ele>1543</ele>
        <time>2020-10-24T14:12:16.161Z</time>
      </trkpt>
      <trkpt lat="46.4784" lon="8.24549">
        <ele>1544</ele>
        <time>2020-10-24T14:12:17.161Z</time>
      </trkpt>
      <trkpt lat="46.47841" lon="8.24549">
        <ele>1544</ele>
        <time>2020-10-24T14:12:18.161Z</time>
      </trkpt>
      <trkpt lat="46.47841" lon="8.24549">
        <ele>1545</ele>
        <time>2020-10-24T14:12:19.161Z</time>
      </trkpt>
      <trkpt lat="46.47842" lon="8.24549">
        <ele>1545</ele>
        <time>2020-10-24T14:12:20.160Z</time>
      </trkpt>
      <trkpt lat="46.47842" lon="8.24549">
        <ele>1546</ele>
        <time>2020-10-24T14:12:21.161Z</time>
      </trkpt>
      <trkpt lat="46.47842" lon="8.24549">
        <ele>1546</ele>
        <time>2020-10-24T14:12:22.161Z</time>
      </trkpt>
      <trkpt lat="46.47843" lon="8.24548">
        <ele>1546</ele>
        <time>2020-10-24T14:12:23.161Z</time>
      </trkpt>
      <trkpt lat="46.47843" lon="8.24547">
        <ele>1546</ele>
        <time>2020-10-24T14:12:24.160Z</time>
      </trkpt>
      <trkpt lat="46.47844" lon="8.24547">
        <ele>1546</ele>
        <time>2020-10-24T14:12:25.161Z</time>
      </trkpt>
      <trkpt lat="46.47845" lon="8.24546">
        <ele>1546</ele>
        <time>2020-10-24T14:12:26.160Z</time>
      </trkpt>
      <trkpt lat="46.47846" lon="8.24546">
        <ele>1546</ele>
        <time>2020-10-24T14:12:27.161Z</time>
      </trkpt>
      <trkpt lat="46.47848" lon="8.24545">
        <ele>1546</ele>
        <time>2020-10-24T14:12:28.161Z</time>
      </trkpt>
      <trkpt lat="46.47849" lon="8.24546">
        <ele>1546</ele>
        <time>2020-10-24T14:12:29.161Z</time>
      </trkpt>
      <trkpt lat="46.47849" lon="8.24546">
        <ele>1547</ele>
        <time>2020-10-24T14:12:30.161Z</time>
      </trkpt>
      <trkpt lat="46.4785" lon="8.24545">
        <ele>1547</ele>
        <time>2020-10-24T14:12:31.161Z</time>
      </trkpt>
      <trkpt lat="46.47851" lon="8.24545">
        <ele>1547</ele>
        <time>2020-10-24T14:12:32.160Z</time>
      </trkpt>
      <trkpt lat="46.47852" lon="8.24545">
        <ele>1548</ele>
        <time>2020-10-24T14:12:33.161Z</time>
      </trkpt>
      <trkpt lat="46.47853" lon="8.24545">
        <ele>1549</ele>
        <time>2020-10-24T14:12:34.161Z</time>
      </trkpt>
      <trkpt lat="46.47854" lon="8.24545">
        <ele>1550</ele>
        <time>2020-10-24T14:12:35.160Z</time>
      </trkpt>
      <trkpt lat="46.47855" lon="8.24544">
        <ele>1551</ele>
        <time>2020-10-24T14:12:36.160Z</time>
      </trkpt>
      <trkpt lat="46.47856" lon="8.24544">
        <ele>1552</ele>
        <time>2020-10-24T14:12:37.160Z</time>
      </trkpt>
      <trkpt lat="46.47857" lon="8.24543">
        <ele>1552</ele>
        <time>2020-10-24T14:12:38.160Z</time>
      </trkpt>
      <trkpt lat="46.47857" lon="8.24542">
        <ele>1553</ele>
        <time>2020-10-24T14:12:39.161Z</time>
      </trkpt>
      <trkpt lat="46.47857" lon="8.24541">
        <ele>1553</ele>
        <time>2020-10-24T14:12:40.161Z</time>
      </trkpt>
      <trkpt lat="46.47856" lon="8.2454">
        <ele>1553</ele>
        <time>2020-10-24T14:12:41.161Z</time>
      </trkpt>
      <trkpt lat="46.47857" lon="8.2454">
        <ele>1553</ele>
        <time>2020-10-24T14:12:42.161Z</time>
      </trkpt>
      <trkpt lat="46.47857" lon="8.24539">
        <ele>1554</ele>
        <time>2020-10-24T14:12:43.161Z</time>
      </trkpt>
      <trkpt lat="46.47858" lon="8.24539">
        <ele>1554</ele>
        <time>2020-10-24T14:12:44.160Z</time>
      </trkpt>
      <trkpt lat="46.47858" lon="8.24539">
        <ele>1554</ele>
        <time>2020-10-24T14:12:45.161Z</time>
      </trkpt>
      <trkpt lat="46.47859" lon="8.24539">
        <ele>1554</ele>
        <time>2020-10-24T14:12:46.161Z</time>
      </trkpt>
      <trkpt lat="46.47863" lon="8.24538">
        <ele>1555</ele>
        <time>2020-10-24T14:12:47.162Z</time>
      </trkpt>
      <trkpt lat="46.47863" lon="8.24537">
        <ele>1556</ele>
        <time>2020-10-24T14:12:48.163Z</time>
      </trkpt>
      <trkpt lat="46.47864" lon="8.24538">
        <ele>1556</ele>
        <time>2020-10-24T14:12:49.162Z</time>
      </trkpt>
      <trkpt lat="46.47865" lon="8.24538">
        <ele>1556</ele>
        <time>2020-10-24T14:12:50.163Z</time>
      </trkpt>
      <trkpt lat="46.47865" lon="8.24539">
        <ele>1557</ele>
        <time>2020-10-24T14:12:51.163Z</time>
      </trkpt>
      <trkpt lat="46.47866" lon="8.24539">
        <ele>1557</ele>
        <time>2020-10-24T14:12:52.163Z</time>
      </trkpt>
      <trkpt lat="46.47866" lon="8.24538">
        <ele>1557</ele>
        <time>2020-10-24T14:12:53.163Z</time>
      </trkpt>
      <trkpt lat="46.47866" lon="8.24537">
        <ele>1557</ele>
        <time>2020-10-24T14:12:54.163Z</time>
      </trkpt>
      <trkpt lat="46.47866" lon="8.24536">
        <ele>1557</ele>
        <time>2020-10-24T14:12:55.162Z</time>
      </trkpt>
      <trkpt lat="46.47866" lon="8.24534">
        <ele>1557</ele>
        <time>2020-10-24T14:12:56.163Z</time>
      </trkpt>
      <trkpt lat="46.47866" lon="8.24533">
        <ele>1557</ele>
        <time>2020-10-24T14:12:57.163Z</time>
      </trkpt>
      <trkpt lat="46.47865" lon="8.24531">
        <ele>1557</ele>
        <time>2020-10-24T14:12:58.163Z</time>
      </trkpt>
      <trkpt lat="46.47864" lon="8.2453">
        <ele>1557</ele>
        <time>2020-10-24T14:12:59.163Z</time>
      </trkpt>
      <trkpt lat="46.47863" lon="8.24528">
        <ele>1557</ele>
        <time>2020-10-24T14:13:00.163Z</time>
      </trkpt>
      <trkpt lat="46.47863" lon="8.24527">
        <ele>1557</ele>
        <time>2020-10-24T14:13:01.162Z</time>
      </trkpt>
      <trkpt lat="46.47863" lon="8.24526">
        <ele>1557</ele>
        <time>2020-10-24T14:13:02.163Z</time>
      </trkpt>
      <trkpt lat="46.47863" lon="8.24525">
        <ele>1557</ele>
        <time>2020-10-24T14:13:03.163Z</time>
      </trkpt>
      <trkpt lat="46.47863" lon="8.24525">
        <ele>1556</ele>
        <time>2020-10-24T14:13:04.163Z</time>
      </trkpt>
      <trkpt lat="46.47863" lon="8.24524">
        <ele>1556</ele>
        <time>2020-10-24T14:13:05.162Z</time>
      </trkpt>
      <trkpt lat="46.47864" lon="8.24524">
        <ele>1556</ele>
        <time>2020-10-24T14:13:06.162Z</time>
      </trkpt>
      <trkpt lat="46.47865" lon="8.24524">
        <ele>1556</ele>
        <time>2020-10-24T14:13:07.162Z</time>
      </trkpt>
      <trkpt lat="46.47865" lon="8.24524">
        <ele>1556</ele>
        <time>2020-10-24T14:13:08.162Z</time>
      </trkpt>
      <trkpt lat="46.47865" lon="8.24524">
        <ele>1556</ele>
        <time>2020-10-24T14:13:09.163Z</time>
      </trkpt>
      <trkpt lat="46.47866" lon="8.24523">
        <ele>1557</ele>
        <time>2020-10-24T14:13:10.163Z</time>
      </trkpt>
      <trkpt lat="46.47867" lon="8.24523">
        <ele>1558</ele>
        <time>2020-10-24T14:13:11.162Z</time>
      </trkpt>
      <trkpt lat="46.47868" lon="8.24523">
        <ele>1558</ele>
        <time>2020-10-24T14:13:12.163Z</time>
      </trkpt>
      <trkpt lat="46.47868" lon="8.24523">
        <ele>1558</ele>
        <time>2020-10-24T14:13:13.162Z</time>
      </trkpt>
      <trkpt lat="46.47869" lon="8.24524">
        <ele>1559</ele>
        <time>2020-10-24T14:13:14.162Z</time>
      </trkpt>
      <trkpt lat="46.4787" lon="8.24524">
        <ele>1559</ele>
        <time>2020-10-24T14:13:15.162Z</time>
      </trkpt>
      <trkpt lat="46.4787" lon="8.24524">
        <ele>1559</ele>
        <time>2020-10-24T14:13:16.163Z</time>
      </trkpt>
      <trkpt lat="46.47871" lon="8.24524">
        <ele>1558</ele>
        <time>2020-10-24T14:13:17.162Z</time>
      </trkpt>
      <trkpt lat="46.47871" lon="8.24524">
        <ele>1558</ele>
        <time>2020-10-24T14:13:18.163Z</time>
      </trkpt>
      <trkpt lat="46.47871" lon="8.24523">
        <ele>1559</ele>
        <time>2020-10-24T14:13:19.164Z</time>
      </trkpt>
      <trkpt lat="46.47873" lon="8.24524">
        <ele>1560</ele>
        <time>2020-10-24T14:13:20.164Z</time>
      </trkpt>
      <trkpt lat="46.47874" lon="8.24524">
        <ele>1560</ele>
        <time>2020-10-24T14:13:21.165Z</time>
      </trkpt>
      <trkpt lat="46.47874" lon="8.24525">
        <ele>1560</ele>
        <time>2020-10-24T14:13:22.164Z</time>
      </trkpt>
      <trkpt lat="46.47874" lon="8.24526">
        <ele>1560</ele>
        <time>2020-10-24T14:13:23.164Z</time>
      </trkpt>
      <trkpt lat="46.47874" lon="8.24527">
        <ele>1561</ele>
        <time>2020-10-24T14:13:24.164Z</time>
      </trkpt>
      <trkpt lat="46.47874" lon="8.24527">
        <ele>1561</ele>
        <time>2020-10-24T14:13:25.164Z</time>
      </trkpt>
      <trkpt lat="46.47874" lon="8.24527">
        <ele>1561</ele>
        <time>2020-10-24T14:13:26.164Z</time>
      </trkpt>
      <trkpt lat="46.47874" lon="8.24526">
        <ele>1561</ele>
        <time>2020-10-24T14:13:27.164Z</time>
      </trkpt>
      <trkpt lat="46.47874" lon="8.24526">
        <ele>1561</ele>
        <time>2020-10-24T14:13:28.164Z</time>
      </trkpt>
      <trkpt lat="46.47874" lon="8.24527">
        <ele>1560</ele>
        <time>2020-10-24T14:13:29.164Z</time>
      </trkpt>
      <trkpt lat="46.47871" lon="8.24525">
        <ele>1563</ele>
        <time>2020-10-24T14:13:30.166Z</time>
      </trkpt>
      <trkpt lat="46.47871" lon="8.24525">
        <ele>1564</ele>
        <time>2020-10-24T14:13:31.166Z</time>
      </trkpt>
      <trkpt lat="46.47871" lon="8.24521">
        <ele>1569</ele>
        <time>2020-10-24T14:13:32.166Z</time>
      </trkpt>
      <trkpt lat="46.47871" lon="8.2452">
        <ele>1569</ele>
        <time>2020-10-24T14:13:33.167Z</time>
      </trkpt>
      <trkpt lat="46.47871" lon="8.2452">
        <ele>1570</ele>
        <time>2020-10-24T14:13:34.166Z</time>
      </trkpt>
      <trkpt lat="46.47871" lon="8.2452">
        <ele>1570</ele>
        <time>2020-10-24T14:13:35.167Z</time>
      </trkpt>
      <trkpt lat="46.47871" lon="8.24521">
        <ele>1570</ele>
        <time>2020-10-24T14:13:36.167Z</time>
      </trkpt>
      <trkpt lat="46.47872" lon="8.24524">
        <ele>1567</ele>
        <time>2020-10-24T14:13:37.168Z</time>
      </trkpt>
      <trkpt lat="46.47871" lon="8.24524">
        <ele>1566</ele>
        <time>2020-10-24T14:13:38.168Z</time>
      </trkpt>
      <trkpt lat="46.47871" lon="8.24524">
        <ele>1566</ele>
        <time>2020-10-24T14:13:39.167Z</time>
      </trkpt>
      <trkpt lat="46.47871" lon="8.24525">
        <ele>1565</ele>
        <time>2020-10-24T14:13:40.167Z</time>
      </trkpt>
      <trkpt lat="46.47871" lon="8.24525">
        <ele>1565</ele>
        <time>2020-10-24T14:13:41.168Z</time>
      </trkpt>
      <trkpt lat="46.4787" lon="8.24525">
        <ele>1564</ele>
        <time>2020-10-24T14:13:42.168Z</time>
      </trkpt>
      <trkpt lat="46.47871" lon="8.24525">
        <ele>1563</ele>
        <time>2020-10-24T14:13:43.168Z</time>
      </trkpt>
      <trkpt lat="46.47871" lon="8.24526">
        <ele>1561</ele>
        <time>2020-10-24T14:13:44.168Z</time>
      </trkpt>
      <trkpt lat="46.47871" lon="8.24527">
        <ele>1560</ele>
        <time>2020-10-24T14:13:45.167Z</time>
      </trkpt>
      <trkpt lat="46.47873" lon="8.24528">
        <ele>1558</ele>
        <time>2020-10-24T14:13:46.168Z</time>
      </trkpt>
      <trkpt lat="46.47873" lon="8.24529">
        <ele>1558</ele>
        <time>2020-10-24T14:13:47.168Z</time>
      </trkpt>
      <trkpt lat="46.47873" lon="8.2453">
        <ele>1558</ele>
        <time>2020-10-24T14:13:48.167Z</time>
      </trkpt>
      <trkpt lat="46.47873" lon="8.24531">
        <ele>1558</ele>
        <time>2020-10-24T14:13:49.167Z</time>
      </trkpt>
      <trkpt lat="46.47874" lon="8.24532">
        <ele>1558</ele>
        <time>2020-10-24T14:13:50.168Z</time>
      </trkpt>
      <trkpt lat="46.47875" lon="8.24533">
        <ele>1558</ele>
        <time>2020-10-24T14:13:51.168Z</time>
      </trkpt>
      <trkpt lat="46.47876" lon="8.24534">
        <ele>1558</ele>
        <time>2020-10-24T14:13:52.167Z</time>
      </trkpt>
      <trkpt lat="46.47878" lon="8.24535">
        <ele>1558</ele>
        <time>2020-10-24T14:13:53.168Z</time>
      </trkpt>
      <trkpt lat="46.47878" lon="8.24536">
        <ele>1558</ele>
        <time>2020-10-24T14:13:54.168Z</time>
      </trkpt>
      <trkpt lat="46.4788" lon="8.24536">
        <ele>1559</ele>
        <time>2020-10-24T14:13:55.167Z</time>
      </trkpt>
      <trkpt lat="46.47882" lon="8.24537">
        <ele>1559</ele>
        <time>2020-10-24T14:13:56.167Z</time>
      </trkpt>
      <trkpt lat="46.47882" lon="8.24538">
        <ele>1559</ele>
        <time>2020-10-24T14:13:57.168Z</time>
      </trkpt>
      <trkpt lat="46.47883" lon="8.24538">
        <ele>1560</ele>
        <time>2020-10-24T14:13:58.168Z</time>
      </trkpt>
      <trkpt lat="46.47884" lon="8.24538">
        <ele>1560</ele>
        <time>2020-10-24T14:13:59.168Z</time>
      </trkpt>
      <trkpt lat="46.47884" lon="8.24539">
        <ele>1560</ele>
        <time>2020-10-24T14:14:00.168Z</time>
      </trkpt>
      <trkpt lat="46.47885" lon="8.2454">
        <ele>1560</ele>
        <time>2020-10-24T14:14:01.168Z</time>
      </trkpt>
      <trkpt lat="46.47886" lon="8.2454">
        <ele>1560</ele>
        <time>2020-10-24T14:14:02.167Z</time>
      </trkpt>
      <trkpt lat="46.47887" lon="8.24541">
        <ele>1561</ele>
        <time>2020-10-24T14:14:03.168Z</time>
      </trkpt>
      <trkpt lat="46.47888" lon="8.24542">
        <ele>1561</ele>
        <time>2020-10-24T14:14:04.168Z</time>
      </trkpt>
      <trkpt lat="46.47889" lon="8.24542">
        <ele>1561</ele>
        <time>2020-10-24T14:14:05.167Z</time>
      </trkpt>
      <trkpt lat="46.47891" lon="8.24542">
        <ele>1561</ele>
        <time>2020-10-24T14:14:06.168Z</time>
      </trkpt>
      <trkpt lat="46.47893" lon="8.24542">
        <ele>1561</ele>
        <time>2020-10-24T14:14:07.168Z</time>
      </trkpt>
      <trkpt lat="46.47894" lon="8.24543">
        <ele>1561</ele>
        <time>2020-10-24T14:14:08.167Z</time>
      </trkpt>
      <trkpt lat="46.47896" lon="8.24543">
        <ele>1562</ele>
        <time>2020-10-24T14:14:09.167Z</time>
      </trkpt>
      <trkpt lat="46.47897" lon="8.24544">
        <ele>1562</ele>
        <time>2020-10-24T14:14:10.168Z</time>
      </trkpt>
      <trkpt lat="46.47897" lon="8.24545">
        <ele>1562</ele>
        <time>2020-10-24T14:14:11.167Z</time>
      </trkpt>
      <trkpt lat="46.47898" lon="8.24546">
        <ele>1563</ele>
        <time>2020-10-24T14:14:12.168Z</time>
      </trkpt>
      <trkpt lat="46.47899" lon="8.24547">
        <ele>1563</ele>
        <time>2020-10-24T14:14:13.167Z</time>
      </trkpt>
      <trkpt lat="46.47899" lon="8.24548">
        <ele>1564</ele>
        <time>2020-10-24T14:14:14.167Z</time>
      </trkpt>
      <trkpt lat="46.479" lon="8.24549">
        <ele>1565</ele>
        <time>2020-10-24T14:14:15.167Z</time>
      </trkpt>
      <trkpt lat="46.479" lon="8.24551">
        <ele>1565</ele>
        <time>2020-10-24T14:14:16.167Z</time>
      </trkpt>
      <trkpt lat="46.479" lon="8.24552">
        <ele>1565</ele>
        <time>2020-10-24T14:14:17.168Z</time>
      </trkpt>
      <trkpt lat="46.47901" lon="8.24553">
        <ele>1565</ele>
        <time>2020-10-24T14:14:18.168Z</time>
      </trkpt>
      <trkpt lat="46.47901" lon="8.24554">
        <ele>1565</ele>
        <time>2020-10-24T14:14:19.168Z</time>
      </trkpt>
      <trkpt lat="46.47902" lon="8.24555">
        <ele>1565</ele>
        <time>2020-10-24T14:14:20.168Z</time>
      </trkpt>
      <trkpt lat="46.47903" lon="8.24556">
        <ele>1565</ele>
        <time>2020-10-24T14:14:21.168Z</time>
      </trkpt>
      <trkpt lat="46.47904" lon="8.24556">
        <ele>1565</ele>
        <time>2020-10-24T14:14:22.168Z</time>
      </trkpt>
      <trkpt lat="46.47905" lon="8.24557">
        <ele>1565</ele>
        <time>2020-10-24T14:14:23.167Z</time>
      </trkpt>
      <trkpt lat="46.47906" lon="8.24557">
        <ele>1565</ele>
        <time>2020-10-24T14:14:24.168Z</time>
      </trkpt>
      <trkpt lat="46.47908" lon="8.24557">
        <ele>1564</ele>
        <time>2020-10-24T14:14:25.168Z</time>
      </trkpt>
      <trkpt lat="46.47908" lon="8.24558">
        <ele>1564</ele>
        <time>2020-10-24T14:14:26.168Z</time>
      </trkpt>
      <trkpt lat="46.47909" lon="8.24559">
        <ele>1564</ele>
        <time>2020-10-24T14:14:27.167Z</time>
      </trkpt>
      <trkpt lat="46.4791" lon="8.2456">
        <ele>1564</ele>
        <time>2020-10-24T14:14:28.167Z</time>
      </trkpt>
      <trkpt lat="46.4791" lon="8.24561">
        <ele>1564</ele>
        <time>2020-10-24T14:14:29.168Z</time>
      </trkpt>
      <trkpt lat="46.4791" lon="8.24562">
        <ele>1565</ele>
        <time>2020-10-24T14:14:30.168Z</time>
      </trkpt>
      <trkpt lat="46.47909" lon="8.24564">
        <ele>1565</ele>
        <time>2020-10-24T14:14:31.167Z</time>
      </trkpt>
      <trkpt lat="46.4792" lon="8.24563">
        <ele>1565</ele>
        <time>2020-10-24T14:14:32.167Z</time>
      </trkpt>
      <trkpt lat="46.47934" lon="8.24558">
        <ele>1565</ele>
        <time>2020-10-24T14:14:33.168Z</time>
      </trkpt>
      <trkpt lat="46.47938" lon="8.24557">
        <ele>1566</ele>
        <time>2020-10-24T14:14:34.168Z</time>
      </trkpt>
      <trkpt lat="46.47941" lon="8.24558">
        <ele>1566</ele>
        <time>2020-10-24T14:14:35.167Z</time>
      </trkpt>
      <trkpt lat="46.47943" lon="8.24558">
        <ele>1566</ele>
        <time>2020-10-24T14:14:36.168Z</time>
      </trkpt>
      <trkpt lat="46.47944" lon="8.24559">
        <ele>1566</ele>
        <time>2020-10-24T14:14:37.167Z</time>
      </trkpt>
      <trkpt lat="46.47945" lon="8.2456">
        <ele>1566</ele>
        <time>2020-10-24T14:14:38.168Z</time>
      </trkpt>
      <trkpt lat="46.47947" lon="8.2456">
        <ele>1566</ele>
        <time>2020-10-24T14:14:39.168Z</time>
      </trkpt>
      <trkpt lat="46.47948" lon="8.24561">
        <ele>1566</ele>
        <time>2020-10-24T14:14:40.168Z</time>
      </trkpt>
      <trkpt lat="46.47949" lon="8.24561">
        <ele>1566</ele>
        <time>2020-10-24T14:14:41.168Z</time>
      </trkpt>
      <trkpt lat="46.4795" lon="8.24562">
        <ele>1567</ele>
        <time>2020-10-24T14:14:42.168Z</time>
      </trkpt>
      <trkpt lat="46.47951" lon="8.24562">
        <ele>1568</ele>
        <time>2020-10-24T14:14:43.167Z</time>
      </trkpt>
      <trkpt lat="46.47952" lon="8.24562">
        <ele>1568</ele>
        <time>2020-10-24T14:14:44.168Z</time>
      </trkpt>
      <trkpt lat="46.47953" lon="8.24563">
        <ele>1569</ele>
        <time>2020-10-24T14:14:45.167Z</time>
      </trkpt>
      <trkpt lat="46.47954" lon="8.24563">
        <ele>1569</ele>
        <time>2020-10-24T14:14:46.168Z</time>
      </trkpt>
      <trkpt lat="46.47955" lon="8.24564">
        <ele>1570</ele>
        <time>2020-10-24T14:14:47.168Z</time>
      </trkpt>
      <trkpt lat="46.47957" lon="8.24564">
        <ele>1570</ele>
        <time>2020-10-24T14:14:48.168Z</time>
      </trkpt>
      <trkpt lat="46.47958" lon="8.24565">
        <ele>1571</ele>
        <time>2020-10-24T14:14:49.168Z</time>
      </trkpt>
      <trkpt lat="46.47959" lon="8.24565">
        <ele>1571</ele>
        <time>2020-10-24T14:14:50.168Z</time>
      </trkpt>
      <trkpt lat="46.4796" lon="8.24566">
        <ele>1571</ele>
        <time>2020-10-24T14:14:51.168Z</time>
      </trkpt>
      <trkpt lat="46.47961" lon="8.24567">
        <ele>1571</ele>
        <time>2020-10-24T14:14:52.168Z</time>
      </trkpt>
      <trkpt lat="46.47961" lon="8.24568">
        <ele>1571</ele>
        <time>2020-10-24T14:14:53.168Z</time>
      </trkpt>
      <trkpt lat="46.47962" lon="8.24569">
        <ele>1570</ele>
        <time>2020-10-24T14:14:54.168Z</time>
      </trkpt>
      <trkpt lat="46.47963" lon="8.2457">
        <ele>1570</ele>
        <time>2020-10-24T14:14:55.168Z</time>
      </trkpt>
      <trkpt lat="46.47963" lon="8.24571">
        <ele>1570</ele>
        <time>2020-10-24T14:14:56.167Z</time>
      </trkpt>
      <trkpt lat="46.47963" lon="8.24573">
        <ele>1569</ele>
        <time>2020-10-24T14:14:57.167Z</time>
      </trkpt>
      <trkpt lat="46.47963" lon="8.24574">
        <ele>1569</ele>
        <time>2020-10-24T14:14:58.167Z</time>
      </trkpt>
      <trkpt lat="46.47962" lon="8.24577">
        <ele>1569</ele>
        <time>2020-10-24T14:14:59.168Z</time>
      </trkpt>
      <trkpt lat="46.4796" lon="8.24579">
        <ele>1568</ele>
        <time>2020-10-24T14:15:00.168Z</time>
      </trkpt>
      <trkpt lat="46.47958" lon="8.24582">
        <ele>1568</ele>
        <time>2020-10-24T14:15:01.168Z</time>
      </trkpt>
      <trkpt lat="46.47955" lon="8.24584">
        <ele>1568</ele>
        <time>2020-10-24T14:15:02.168Z</time>
      </trkpt>
      <trkpt lat="46.47953" lon="8.24587">
        <ele>1568</ele>
        <time>2020-10-24T14:15:03.167Z</time>
      </trkpt>
      <trkpt lat="46.47951" lon="8.24589">
        <ele>1568</ele>
        <time>2020-10-24T14:15:04.168Z</time>
      </trkpt>
      <trkpt lat="46.4795" lon="8.24591">
        <ele>1568</ele>
        <time>2020-10-24T14:15:05.167Z</time>
      </trkpt>
      <trkpt lat="46.47948" lon="8.24594">
        <ele>1568</ele>
        <time>2020-10-24T14:15:06.168Z</time>
      </trkpt>
      <trkpt lat="46.47947" lon="8.24596">
        <ele>1568</ele>
        <time>2020-10-24T14:15:07.168Z</time>
      </trkpt>
      <trkpt lat="46.47947" lon="8.24598">
        <ele>1568</ele>
        <time>2020-10-24T14:15:08.168Z</time>
      </trkpt>
      <trkpt lat="46.47947" lon="8.24599">
        <ele>1568</ele>
        <time>2020-10-24T14:15:09.167Z</time>
      </trkpt>
      <trkpt lat="46.47948" lon="8.246">
        <ele>1568</ele>
        <time>2020-10-24T14:15:10.168Z</time>
      </trkpt>
      <trkpt lat="46.47949" lon="8.24601">
        <ele>1568</ele>
        <time>2020-10-24T14:15:11.168Z</time>
      </trkpt>
      <trkpt lat="46.4795" lon="8.24602">
        <ele>1568</ele>
        <time>2020-10-24T14:15:12.167Z</time>
      </trkpt>
      <trkpt lat="46.4795" lon="8.24604">
        <ele>1568</ele>
        <time>2020-10-24T14:15:13.168Z</time>
      </trkpt>
      <trkpt lat="46.47951" lon="8.24605">
        <ele>1568</ele>
        <time>2020-10-24T14:15:14.168Z</time>
      </trkpt>
      <trkpt lat="46.47952" lon="8.24606">
        <ele>1568</ele>
        <time>2020-10-24T14:15:15.167Z</time>
      </trkpt>
      <trkpt lat="46.47953" lon="8.24608">
        <ele>1568</ele>
        <time>2020-10-24T14:15:16.168Z</time>
      </trkpt>
      <trkpt lat="46.47953" lon="8.24609">
        <ele>1568</ele>
        <time>2020-10-24T14:15:17.167Z</time>
      </trkpt>
      <trkpt lat="46.47953" lon="8.2461">
        <ele>1568</ele>
        <time>2020-10-24T14:15:18.168Z</time>
      </trkpt>
      <trkpt lat="46.47954" lon="8.24611">
        <ele>1568</ele>
        <time>2020-10-24T14:15:19.168Z</time>
      </trkpt>
      <trkpt lat="46.47955" lon="8.24612">
        <ele>1568</ele>
        <time>2020-10-24T14:15:20.167Z</time>
      </trkpt>
      <trkpt lat="46.47956" lon="8.24613">
        <ele>1568</ele>
        <time>2020-10-24T14:15:21.167Z</time>
      </trkpt>
      <trkpt lat="46.47957" lon="8.24614">
        <ele>1568</ele>
        <time>2020-10-24T14:15:22.167Z</time>
      </trkpt>
      <trkpt lat="46.47958" lon="8.24615">
        <ele>1568</ele>
        <time>2020-10-24T14:15:23.167Z</time>
      </trkpt>
      <trkpt lat="46.47959" lon="8.24616">
        <ele>1568</ele>
        <time>2020-10-24T14:15:24.168Z</time>
      </trkpt>
      <trkpt lat="46.4796" lon="8.24616">
        <ele>1568</ele>
        <time>2020-10-24T14:15:25.168Z</time>
      </trkpt>
      <trkpt lat="46.4796" lon="8.24617">
        <ele>1568</ele>
        <time>2020-10-24T14:15:26.168Z</time>
      </trkpt>
      <trkpt lat="46.47961" lon="8.24617">
        <ele>1568</ele>
        <time>2020-10-24T14:15:27.168Z</time>
      </trkpt>
      <trkpt lat="46.47962" lon="8.24618">
        <ele>1568</ele>
        <time>2020-10-24T14:15:28.167Z</time>
      </trkpt>
      <trkpt lat="46.47963" lon="8.24619">
        <ele>1568</ele>
        <time>2020-10-24T14:15:29.168Z</time>
      </trkpt>
      <trkpt lat="46.47964" lon="8.2462">
        <ele>1568</ele>
        <time>2020-10-24T14:15:30.168Z</time>
      </trkpt>
      <trkpt lat="46.47964" lon="8.24621">
        <ele>1568</ele>
        <time>2020-10-24T14:15:31.168Z</time>
      </trkpt>
      <trkpt lat="46.47965" lon="8.24622">
        <ele>1568</ele>
        <time>2020-10-24T14:15:32.168Z</time>
      </trkpt>
      <trkpt lat="46.47966" lon="8.24623">
        <ele>1569</ele>
        <time>2020-10-24T14:15:33.167Z</time>
      </trkpt>
      <trkpt lat="46.47967" lon="8.24624">
        <ele>1569</ele>
        <time>2020-10-24T14:15:34.167Z</time>
      </trkpt>
      <trkpt lat="46.47968" lon="8.24625">
        <ele>1569</ele>
        <time>2020-10-24T14:15:35.168Z</time>
      </trkpt>
      <trkpt lat="46.47968" lon="8.24625">
        <ele>1569</ele>
        <time>2020-10-24T14:15:36.168Z</time>
      </trkpt>
      <trkpt lat="46.47969" lon="8.24626">
        <ele>1569</ele>
        <time>2020-10-24T14:15:37.168Z</time>
      </trkpt>
      <trkpt lat="46.4797" lon="8.24627">
        <ele>1569</ele>
        <time>2020-10-24T14:15:38.168Z</time>
      </trkpt>
      <trkpt lat="46.47971" lon="8.24628">
        <ele>1570</ele>
        <time>2020-10-24T14:15:39.167Z</time>
      </trkpt>
      <trkpt lat="46.47972" lon="8.24628">
        <ele>1570</ele>
        <time>2020-10-24T14:15:40.167Z</time>
      </trkpt>
      <trkpt lat="46.47973" lon="8.24629">
        <ele>1570</ele>
        <time>2020-10-24T14:15:41.168Z</time>
      </trkpt>
      <trkpt lat="46.47974" lon="8.24629">
        <ele>1571</ele>
        <time>2020-10-24T14:15:42.168Z</time>
      </trkpt>
      <trkpt lat="46.47975" lon="8.2463">
        <ele>1571</ele>
        <time>2020-10-24T14:15:43.168Z</time>
      </trkpt>
      <trkpt lat="46.47976" lon="8.2463">
        <ele>1572</ele>
        <time>2020-10-24T14:15:44.168Z</time>
      </trkpt>
      <trkpt lat="46.47977" lon="8.24631">
        <ele>1572</ele>
        <time>2020-10-24T14:15:45.168Z</time>
      </trkpt>
      <trkpt lat="46.47978" lon="8.24632">
        <ele>1573</ele>
        <time>2020-10-24T14:15:46.167Z</time>
      </trkpt>
      <trkpt lat="46.47978" lon="8.24633">
        <ele>1573</ele>
        <time>2020-10-24T14:15:47.168Z</time>
      </trkpt>
      <trkpt lat="46.47979" lon="8.24633">
        <ele>1573</ele>
        <time>2020-10-24T14:15:48.168Z</time>
      </trkpt>
      <trkpt lat="46.47979" lon="8.24633">
        <ele>1573</ele>
        <time>2020-10-24T14:15:49.168Z</time>
      </trkpt>
      <trkpt lat="46.47979" lon="8.24633">
        <ele>1573</ele>
        <time>2020-10-24T14:15:50.168Z</time>
      </trkpt>
      <trkpt lat="46.4798" lon="8.24632">
        <ele>1570</ele>
        <time>2020-10-24T14:15:51.168Z</time>
      </trkpt>
      <trkpt lat="46.47981" lon="8.24632">
        <ele>1569</ele>
        <time>2020-10-24T14:15:52.168Z</time>
      </trkpt>
      <trkpt lat="46.47983" lon="8.24633">
        <ele>1569</ele>
        <time>2020-10-24T14:15:53.167Z</time>
      </trkpt>
      <trkpt lat="46.47984" lon="8.24634">
        <ele>1569</ele>
        <time>2020-10-24T14:15:54.168Z</time>
      </trkpt>
      <trkpt lat="46.47984" lon="8.24634">
        <ele>1569</ele>
        <time>2020-10-24T14:15:55.168Z</time>
      </trkpt>
      <trkpt lat="46.47985" lon="8.24635">
        <ele>1570</ele>
        <time>2020-10-24T14:15:56.168Z</time>
      </trkpt>
      <trkpt lat="46.47986" lon="8.24636">
        <ele>1570</ele>
        <time>2020-10-24T14:15:57.168Z</time>
      </trkpt>
      <trkpt lat="46.47987" lon="8.24636">
        <ele>1571</ele>
        <time>2020-10-24T14:15:58.168Z</time>
      </trkpt>
      <trkpt lat="46.47989" lon="8.24637">
        <ele>1572</ele>
        <time>2020-10-24T14:15:59.168Z</time>
      </trkpt>
      <trkpt lat="46.47989" lon="8.24637">
        <ele>1572</ele>
        <time>2020-10-24T14:16:00.168Z</time>
      </trkpt>
      <trkpt lat="46.4799" lon="8.24638">
        <ele>1572</ele>
        <time>2020-10-24T14:16:01.168Z</time>
      </trkpt>
      <trkpt lat="46.47991" lon="8.24639">
        <ele>1572</ele>
        <time>2020-10-24T14:16:02.168Z</time>
      </trkpt>
      <trkpt lat="46.47992" lon="8.24639">
        <ele>1572</ele>
        <time>2020-10-24T14:16:03.168Z</time>
      </trkpt>
      <trkpt lat="46.47993" lon="8.24639">
        <ele>1573</ele>
        <time>2020-10-24T14:16:04.167Z</time>
      </trkpt>
      <trkpt lat="46.47994" lon="8.24639">
        <ele>1573</ele>
        <time>2020-10-24T14:16:05.167Z</time>
      </trkpt>
      <trkpt lat="46.47995" lon="8.24639">
        <ele>1574</ele>
        <time>2020-10-24T14:16:06.168Z</time>
      </trkpt>
      <trkpt lat="46.47996" lon="8.24639">
        <ele>1574</ele>
        <time>2020-10-24T14:16:07.168Z</time>
      </trkpt>
      <trkpt lat="46.47997" lon="8.24639">
        <ele>1574</ele>
        <time>2020-10-24T14:16:08.167Z</time>
      </trkpt>
      <trkpt lat="46.47998" lon="8.2464">
        <ele>1575</ele>
        <time>2020-10-24T14:16:09.168Z</time>
      </trkpt>
      <trkpt lat="46.47999" lon="8.2464">
        <ele>1575</ele>
        <time>2020-10-24T14:16:10.168Z</time>
      </trkpt>
      <trkpt lat="46.48" lon="8.2464">
        <ele>1576</ele>
        <time>2020-10-24T14:16:11.167Z</time>
      </trkpt>
      <trkpt lat="46.48001" lon="8.2464">
        <ele>1576</ele>
        <time>2020-10-24T14:16:12.168Z</time>
      </trkpt>
      <trkpt lat="46.48002" lon="8.2464">
        <ele>1576</ele>
        <time>2020-10-24T14:16:13.168Z</time>
      </trkpt>
      <trkpt lat="46.48004" lon="8.2464">
        <ele>1576</ele>
        <time>2020-10-24T14:16:14.168Z</time>
      </trkpt>
      <trkpt lat="46.48005" lon="8.2464">
        <ele>1576</ele>
        <time>2020-10-24T14:16:15.168Z</time>
      </trkpt>
      <trkpt lat="46.48005" lon="8.2464">
        <ele>1576</ele>
        <time>2020-10-24T14:16:16.168Z</time>
      </trkpt>
      <trkpt lat="46.48006" lon="8.24641">
        <ele>1576</ele>
        <time>2020-10-24T14:16:17.168Z</time>
      </trkpt>
      <trkpt lat="46.48007" lon="8.24642">
        <ele>1575</ele>
        <time>2020-10-24T14:16:18.167Z</time>
      </trkpt>
      <trkpt lat="46.48008" lon="8.24642">
        <ele>1575</ele>
        <time>2020-10-24T14:16:19.167Z</time>
      </trkpt>
      <trkpt lat="46.4801" lon="8.24642">
        <ele>1575</ele>
        <time>2020-10-24T14:16:20.167Z</time>
      </trkpt>
      <trkpt lat="46.48011" lon="8.24643">
        <ele>1575</ele>
        <time>2020-10-24T14:16:21.168Z</time>
      </trkpt>
      <trkpt lat="46.48012" lon="8.24643">
        <ele>1575</ele>
        <time>2020-10-24T14:16:22.168Z</time>
      </trkpt>
      <trkpt lat="46.48013" lon="8.24644">
        <ele>1575</ele>
        <time>2020-10-24T14:16:23.167Z</time>
      </trkpt>
      <trkpt lat="46.48013" lon="8.24645">
        <ele>1574</ele>
        <time>2020-10-24T14:16:24.168Z</time>
      </trkpt>
      <trkpt lat="46.48014" lon="8.24647">
        <ele>1574</ele>
        <time>2020-10-24T14:16:25.168Z</time>
      </trkpt>
      <trkpt lat="46.48015" lon="8.24648">
        <ele>1574</ele>
        <time>2020-10-24T14:16:26.168Z</time>
      </trkpt>
      <trkpt lat="46.48016" lon="8.24648">
        <ele>1574</ele>
        <time>2020-10-24T14:16:27.168Z</time>
      </trkpt>
      <trkpt lat="46.48017" lon="8.24649">
        <ele>1573</ele>
        <time>2020-10-24T14:16:28.167Z</time>
      </trkpt>
      <trkpt lat="46.48018" lon="8.2465">
        <ele>1573</ele>
        <time>2020-10-24T14:16:29.168Z</time>
      </trkpt>
      <trkpt lat="46.48019" lon="8.24651">
        <ele>1573</ele>
        <time>2020-10-24T14:16:30.168Z</time>
      </trkpt>
      <trkpt lat="46.4802" lon="8.24653">
        <ele>1573</ele>
        <time>2020-10-24T14:16:31.168Z</time>
      </trkpt>
      <trkpt lat="46.48021" lon="8.24654">
        <ele>1572</ele>
        <time>2020-10-24T14:16:32.168Z</time>
      </trkpt>
      <trkpt lat="46.48022" lon="8.24655">
        <ele>1572</ele>
        <time>2020-10-24T14:16:33.167Z</time>
      </trkpt>
      <trkpt lat="46.48023" lon="8.24655">
        <ele>1572</ele>
        <time>2020-10-24T14:16:34.167Z</time>
      </trkpt>
      <trkpt lat="46.48024" lon="8.24656">
        <ele>1572</ele>
        <time>2020-10-24T14:16:35.168Z</time>
      </trkpt>
      <trkpt lat="46.48025" lon="8.24657">
        <ele>1572</ele>
        <time>2020-10-24T14:16:36.168Z</time>
      </trkpt>
      <trkpt lat="46.48026" lon="8.24659">
        <ele>1572</ele>
        <time>2020-10-24T14:16:37.167Z</time>
      </trkpt>
      <trkpt lat="46.48027" lon="8.2466">
        <ele>1572</ele>
        <time>2020-10-24T14:16:38.168Z</time>
      </trkpt>
      <trkpt lat="46.48028" lon="8.24661">
        <ele>1572</ele>
        <time>2020-10-24T14:16:39.168Z</time>
      </trkpt>
      <trkpt lat="46.48029" lon="8.24662">
        <ele>1572</ele>
        <time>2020-10-24T14:16:40.167Z</time>
      </trkpt>
      <trkpt lat="46.4803" lon="8.24662">
        <ele>1572</ele>
        <time>2020-10-24T14:16:41.167Z</time>
      </trkpt>
      <trkpt lat="46.48031" lon="8.24664">
        <ele>1572</ele>
        <time>2020-10-24T14:16:42.167Z</time>
      </trkpt>
      <trkpt lat="46.48032" lon="8.24665">
        <ele>1573</ele>
        <time>2020-10-24T14:16:43.167Z</time>
      </trkpt>
      <trkpt lat="46.48033" lon="8.24666">
        <ele>1573</ele>
        <time>2020-10-24T14:16:44.168Z</time>
      </trkpt>
      <trkpt lat="46.48034" lon="8.24666">
        <ele>1573</ele>
        <time>2020-10-24T14:16:45.168Z</time>
      </trkpt>
      <trkpt lat="46.48036" lon="8.24667">
        <ele>1574</ele>
        <time>2020-10-24T14:16:46.168Z</time>
      </trkpt>
      <trkpt lat="46.48037" lon="8.24667">
        <ele>1574</ele>
        <time>2020-10-24T14:16:47.168Z</time>
      </trkpt>
      <trkpt lat="46.48038" lon="8.24668">
        <ele>1575</ele>
        <time>2020-10-24T14:16:48.168Z</time>
      </trkpt>
      <trkpt lat="46.48039" lon="8.24668">
        <ele>1575</ele>
        <time>2020-10-24T14:16:49.168Z</time>
      </trkpt>
      <trkpt lat="46.48041" lon="8.24668">
        <ele>1575</ele>
        <time>2020-10-24T14:16:50.167Z</time>
      </trkpt>
      <trkpt lat="46.48042" lon="8.24669">
        <ele>1576</ele>
        <time>2020-10-24T14:16:51.167Z</time>
      </trkpt>
      <trkpt lat="46.48043" lon="8.24669">
        <ele>1576</ele>
        <time>2020-10-24T14:16:52.167Z</time>
      </trkpt>
      <trkpt lat="46.48044" lon="8.24669">
        <ele>1577</ele>
        <time>2020-10-24T14:16:53.167Z</time>
      </trkpt>
      <trkpt lat="46.48046" lon="8.24668">
        <ele>1577</ele>
        <time>2020-10-24T14:16:54.168Z</time>
      </trkpt>
      <trkpt lat="46.48047" lon="8.24668">
        <ele>1577</ele>
        <time>2020-10-24T14:16:55.168Z</time>
      </trkpt>
      <trkpt lat="46.48049" lon="8.24668">
        <ele>1577</ele>
        <time>2020-10-24T14:16:56.168Z</time>
      </trkpt>
      <trkpt lat="46.4805" lon="8.24668">
        <ele>1578</ele>
        <time>2020-10-24T14:16:57.168Z</time>
      </trkpt>
      <trkpt lat="46.48051" lon="8.24669">
        <ele>1578</ele>
        <time>2020-10-24T14:16:58.168Z</time>
      </trkpt>
      <trkpt lat="46.48051" lon="8.24669">
        <ele>1578</ele>
        <time>2020-10-24T14:16:59.167Z</time>
      </trkpt>
      <trkpt lat="46.48052" lon="8.2467">
        <ele>1578</ele>
        <time>2020-10-24T14:17:00.167Z</time>
      </trkpt>
      <trkpt lat="46.48053" lon="8.24671">
        <ele>1578</ele>
        <time>2020-10-24T14:17:01.167Z</time>
      </trkpt>
      <trkpt lat="46.48053" lon="8.24672">
        <ele>1578</ele>
        <time>2020-10-24T14:17:02.167Z</time>
      </trkpt>
      <trkpt lat="46.48054" lon="8.24673">
        <ele>1578</ele>
        <time>2020-10-24T14:17:03.168Z</time>
      </trkpt>
      <trkpt lat="46.48055" lon="8.24675">
        <ele>1579</ele>
        <time>2020-10-24T14:17:04.168Z</time>
      </trkpt>
      <trkpt lat="46.48056" lon="8.24676">
        <ele>1579</ele>
        <time>2020-10-24T14:17:05.167Z</time>
      </trkpt>
      <trkpt lat="46.48057" lon="8.24677">
        <ele>1579</ele>
        <time>2020-10-24T14:17:06.167Z</time>
      </trkpt>
      <trkpt lat="46.48059" lon="8.24678">
        <ele>1580</ele>
        <time>2020-10-24T14:17:07.168Z</time>
      </trkpt>
      <trkpt lat="46.48059" lon="8.24679">
        <ele>1580</ele>
        <time>2020-10-24T14:17:08.168Z</time>
      </trkpt>
      <trkpt lat="46.4806" lon="8.24679">
        <ele>1579</ele>
        <time>2020-10-24T14:17:09.167Z</time>
      </trkpt>
      <trkpt lat="46.48061" lon="8.24679">
        <ele>1579</ele>
        <time>2020-10-24T14:17:10.167Z</time>
      </trkpt>
      <trkpt lat="46.48062" lon="8.2468">
        <ele>1578</ele>
        <time>2020-10-24T14:17:11.167Z</time>
      </trkpt>
      <trkpt lat="46.48063" lon="8.24681">
        <ele>1578</ele>
        <time>2020-10-24T14:17:12.168Z</time>
      </trkpt>
      <trkpt lat="46.48064" lon="8.24682">
        <ele>1578</ele>
        <time>2020-10-24T14:17:13.168Z</time>
      </trkpt>
      <trkpt lat="46.48065" lon="8.24683">
        <ele>1578</ele>
        <time>2020-10-24T14:17:14.167Z</time>
      </trkpt>
      <trkpt lat="46.48066" lon="8.24685">
        <ele>1577</ele>
        <time>2020-10-24T14:17:15.168Z</time>
      </trkpt>
      <trkpt lat="46.48066" lon="8.24686">
        <ele>1577</ele>
        <time>2020-10-24T14:17:16.167Z</time>
      </trkpt>
      <trkpt lat="46.48067" lon="8.24687">
        <ele>1577</ele>
        <time>2020-10-24T14:17:17.167Z</time>
      </trkpt>
      <trkpt lat="46.48068" lon="8.24688">
        <ele>1576</ele>
        <time>2020-10-24T14:17:18.168Z</time>
      </trkpt>
      <trkpt lat="46.48068" lon="8.2469">
        <ele>1576</ele>
        <time>2020-10-24T14:17:19.168Z</time>
      </trkpt>
      <trkpt lat="46.48069" lon="8.24691">
        <ele>1575</ele>
        <time>2020-10-24T14:17:20.167Z</time>
      </trkpt>
      <trkpt lat="46.4807" lon="8.24692">
        <ele>1575</ele>
        <time>2020-10-24T14:17:21.167Z</time>
      </trkpt>
      <trkpt lat="46.4807" lon="8.24694">
        <ele>1575</ele>
        <time>2020-10-24T14:17:22.167Z</time>
      </trkpt>
      <trkpt lat="46.4807" lon="8.24695">
        <ele>1575</ele>
        <time>2020-10-24T14:17:23.168Z</time>
      </trkpt>
      <trkpt lat="46.48071" lon="8.24697">
        <ele>1575</ele>
        <time>2020-10-24T14:17:24.168Z</time>
      </trkpt>
      <trkpt lat="46.48071" lon="8.24698">
        <ele>1575</ele>
        <time>2020-10-24T14:17:25.168Z</time>
      </trkpt>
      <trkpt lat="46.48072" lon="8.247">
        <ele>1575</ele>
        <time>2020-10-24T14:17:26.168Z</time>
      </trkpt>
      <trkpt lat="46.48072" lon="8.24701">
        <ele>1575</ele>
        <time>2020-10-24T14:17:27.167Z</time>
      </trkpt>
      <trkpt lat="46.48073" lon="8.24702">
        <ele>1575</ele>
        <time>2020-10-24T14:17:28.168Z</time>
      </trkpt>
      <trkpt lat="46.48073" lon="8.24703">
        <ele>1576</ele>
        <time>2020-10-24T14:17:29.167Z</time>
      </trkpt>
      <trkpt lat="46.48074" lon="8.24705">
        <ele>1576</ele>
        <time>2020-10-24T14:17:30.168Z</time>
      </trkpt>
      <trkpt lat="46.48074" lon="8.24706">
        <ele>1577</ele>
        <time>2020-10-24T14:17:31.168Z</time>
      </trkpt>
      <trkpt lat="46.48075" lon="8.24707">
        <ele>1577</ele>
        <time>2020-10-24T14:17:32.168Z</time>
      </trkpt>
      <trkpt lat="46.48076" lon="8.24708">
        <ele>1577</ele>
        <time>2020-10-24T14:17:33.168Z</time>
      </trkpt>
      <trkpt lat="46.48076" lon="8.24709">
        <ele>1577</ele>
        <time>2020-10-24T14:17:34.167Z</time>
      </trkpt>
      <trkpt lat="46.48077" lon="8.2471">
        <ele>1577</ele>
        <time>2020-10-24T14:17:35.168Z</time>
      </trkpt>
      <trkpt lat="46.48077" lon="8.24711">
        <ele>1577</ele>
        <time>2020-10-24T14:17:36.168Z</time>
      </trkpt>
      <trkpt lat="46.48078" lon="8.24712">
        <ele>1576</ele>
        <time>2020-10-24T14:17:37.168Z</time>
      </trkpt>
      <trkpt lat="46.48078" lon="8.24713">
        <ele>1576</ele>
        <time>2020-10-24T14:17:38.168Z</time>
      </trkpt>
      <trkpt lat="46.48079" lon="8.24714">
        <ele>1577</ele>
        <time>2020-10-24T14:17:39.168Z</time>
      </trkpt>
      <trkpt lat="46.48079" lon="8.24714">
        <ele>1577</ele>
        <time>2020-10-24T14:17:40.167Z</time>
      </trkpt>
      <trkpt lat="46.48079" lon="8.24715">
        <ele>1577</ele>
        <time>2020-10-24T14:17:41.168Z</time>
      </trkpt>
      <trkpt lat="46.48079" lon="8.24715">
        <ele>1578</ele>
        <time>2020-10-24T14:17:42.168Z</time>
      </trkpt>
      <trkpt lat="46.48079" lon="8.24714">
        <ele>1579</ele>
        <time>2020-10-24T14:17:43.168Z</time>
      </trkpt>
      <trkpt lat="46.48076" lon="8.2471">
        <ele>1584</ele>
        <time>2020-10-24T14:17:44.168Z</time>
      </trkpt>
      <trkpt lat="46.48075" lon="8.2471">
        <ele>1584</ele>
        <time>2020-10-24T14:17:45.169Z</time>
      </trkpt>
      <trkpt lat="46.48075" lon="8.2471">
        <ele>1585</ele>
        <time>2020-10-24T14:17:46.168Z</time>
      </trkpt>
      <trkpt lat="46.48075" lon="8.24712">
        <ele>1585</ele>
        <time>2020-10-24T14:17:47.169Z</time>
      </trkpt>
      <trkpt lat="46.48075" lon="8.24711">
        <ele>1585</ele>
        <time>2020-10-24T14:17:48.168Z</time>
      </trkpt>
      <trkpt lat="46.48075" lon="8.24711">
        <ele>1584</ele>
        <time>2020-10-24T14:17:49.169Z</time>
      </trkpt>
      <trkpt lat="46.48075" lon="8.24712">
        <ele>1583</ele>
        <time>2020-10-24T14:17:50.168Z</time>
      </trkpt>
      <trkpt lat="46.48075" lon="8.24713">
        <ele>1582</ele>
        <time>2020-10-24T14:17:51.169Z</time>
      </trkpt>
      <trkpt lat="46.48077" lon="8.24713">
        <ele>1580</ele>
        <time>2020-10-24T14:17:52.169Z</time>
      </trkpt>
      <trkpt lat="46.48077" lon="8.24713">
        <ele>1576</ele>
        <time>2020-10-24T14:17:53.169Z</time>
      </trkpt>
      <trkpt lat="46.48078" lon="8.24713">
        <ele>1576</ele>
        <time>2020-10-24T14:17:54.170Z</time>
      </trkpt>
      <trkpt lat="46.48078" lon="8.24714">
        <ele>1576</ele>
        <time>2020-10-24T14:17:55.169Z</time>
      </trkpt>
      <trkpt lat="46.48078" lon="8.24714">
        <ele>1575</ele>
        <time>2020-10-24T14:17:56.170Z</time>
      </trkpt>
      <trkpt lat="46.48081" lon="8.24712">
        <ele>1570</ele>
        <time>2020-10-24T14:17:57.171Z</time>
      </trkpt>
      <trkpt lat="46.48081" lon="8.24712">
        <ele>1570</ele>
        <time>2020-10-24T14:17:58.171Z</time>
      </trkpt>
      <trkpt lat="46.48082" lon="8.24714">
        <ele>1572</ele>
        <time>2020-10-24T14:17:59.171Z</time>
      </trkpt>
      <trkpt lat="46.48079" lon="8.24712">
        <ele>1576</ele>
        <time>2020-10-24T14:18:00.171Z</time>
      </trkpt>
      <trkpt lat="46.48078" lon="8.24712">
        <ele>1576</ele>
        <time>2020-10-24T14:18:01.172Z</time>
      </trkpt>
      <trkpt lat="46.48078" lon="8.24712">
        <ele>1577</ele>
        <time>2020-10-24T14:18:02.172Z</time>
      </trkpt>
      <trkpt lat="46.48075" lon="8.24712">
        <ele>1581</ele>
        <time>2020-10-24T14:18:03.172Z</time>
      </trkpt>
      <trkpt lat="46.48075" lon="8.24712">
        <ele>1581</ele>
        <time>2020-10-24T14:18:04.173Z</time>
      </trkpt>
      <trkpt lat="46.48075" lon="8.24712">
        <ele>1581</ele>
        <time>2020-10-24T14:18:05.172Z</time>
      </trkpt>
      <trkpt lat="46.48075" lon="8.24711">
        <ele>1581</ele>
        <time>2020-10-24T14:18:06.172Z</time>
      </trkpt>
      <trkpt lat="46.48074" lon="8.24712">
        <ele>1581</ele>
        <time>2020-10-24T14:18:07.172Z</time>
      </trkpt>
      <trkpt lat="46.48075" lon="8.24716">
        <ele>1578</ele>
        <time>2020-10-24T14:18:08.173Z</time>
      </trkpt>
      <trkpt lat="46.48075" lon="8.24716">
        <ele>1579</ele>
        <time>2020-10-24T14:18:09.172Z</time>
      </trkpt>
      <trkpt lat="46.48076" lon="8.24716">
        <ele>1579</ele>
        <time>2020-10-24T14:18:10.172Z</time>
      </trkpt>
      <trkpt lat="46.48076" lon="8.24716">
        <ele>1579</ele>
        <time>2020-10-24T14:18:11.172Z</time>
      </trkpt>
      <trkpt lat="46.48077" lon="8.24717">
        <ele>1579</ele>
        <time>2020-10-24T14:18:12.173Z</time>
      </trkpt>
      <trkpt lat="46.48077" lon="8.24717">
        <ele>1580</ele>
        <time>2020-10-24T14:18:13.172Z</time>
      </trkpt>
      <trkpt lat="46.48077" lon="8.24718">
        <ele>1580</ele>
        <time>2020-10-24T14:18:14.172Z</time>
      </trkpt>
      <trkpt lat="46.48078" lon="8.24719">
        <ele>1581</ele>
        <time>2020-10-24T14:18:15.173Z</time>
      </trkpt>
      <trkpt lat="46.48078" lon="8.24719">
        <ele>1581</ele>
        <time>2020-10-24T14:18:16.172Z</time>
      </trkpt>
      <trkpt lat="46.48079" lon="8.2472">
        <ele>1582</ele>
        <time>2020-10-24T14:18:17.172Z</time>
      </trkpt>
      <trkpt lat="46.4808" lon="8.2472">
        <ele>1582</ele>
        <time>2020-10-24T14:18:18.173Z</time>
      </trkpt>
      <trkpt lat="46.48081" lon="8.2472">
        <ele>1582</ele>
        <time>2020-10-24T14:18:19.172Z</time>
      </trkpt>
      <trkpt lat="46.48082" lon="8.24721">
        <ele>1581</ele>
        <time>2020-10-24T14:18:20.172Z</time>
      </trkpt>
      <trkpt lat="46.48082" lon="8.24722">
        <ele>1581</ele>
        <time>2020-10-24T14:18:21.172Z</time>
      </trkpt>
      <trkpt lat="46.48083" lon="8.24723">
        <ele>1580</ele>
        <time>2020-10-24T14:18:22.172Z</time>
      </trkpt>
      <trkpt lat="46.48084" lon="8.24724">
        <ele>1580</ele>
        <time>2020-10-24T14:18:23.173Z</time>
      </trkpt>
      <trkpt lat="46.48084" lon="8.24724">
        <ele>1580</ele>
        <time>2020-10-24T14:18:24.173Z</time>
      </trkpt>
      <trkpt lat="46.48085" lon="8.24725">
        <ele>1580</ele>
        <time>2020-10-24T14:18:25.172Z</time>
      </trkpt>
      <trkpt lat="46.48085" lon="8.24725">
        <ele>1580</ele>
        <time>2020-10-24T14:18:26.172Z</time>
      </trkpt>
      <trkpt lat="46.48085" lon="8.24725">
        <ele>1580</ele>
        <time>2020-10-24T14:18:27.173Z</time>
      </trkpt>
      <trkpt lat="46.48085" lon="8.24725">
        <ele>1580</ele>
        <time>2020-10-24T14:18:28.173Z</time>
      </trkpt>
      <trkpt lat="46.48086" lon="8.24721">
        <ele>1584</ele>
        <time>2020-10-24T14:18:29.174Z</time>
      </trkpt>
      <trkpt lat="46.48086" lon="8.24721">
        <ele>1584</ele>
        <time>2020-10-24T14:18:30.173Z</time>
      </trkpt>
      <trkpt lat="46.48086" lon="8.24721">
        <ele>1585</ele>
        <time>2020-10-24T14:18:31.173Z</time>
      </trkpt>
      <trkpt lat="46.48086" lon="8.2472">
        <ele>1580</ele>
        <time>2020-10-24T14:18:32.173Z</time>
      </trkpt>
      <trkpt lat="46.48086" lon="8.24721">
        <ele>1578</ele>
        <time>2020-10-24T14:18:33.173Z</time>
      </trkpt>
      <trkpt lat="46.48086" lon="8.24721">
        <ele>1577</ele>
        <time>2020-10-24T14:18:34.173Z</time>
      </trkpt>
      <trkpt lat="46.48086" lon="8.24722">
        <ele>1576</ele>
        <time>2020-10-24T14:18:35.173Z</time>
      </trkpt>
      <trkpt lat="46.48087" lon="8.24722">
        <ele>1575</ele>
        <time>2020-10-24T14:18:36.174Z</time>
      </trkpt>
      <trkpt lat="46.48087" lon="8.24723">
        <ele>1575</ele>
        <time>2020-10-24T14:18:37.173Z</time>
      </trkpt>
      <trkpt lat="46.48087" lon="8.24723">
        <ele>1574</ele>
        <time>2020-10-24T14:18:38.174Z</time>
      </trkpt>
      <trkpt lat="46.48088" lon="8.24722">
        <ele>1579</ele>
        <time>2020-10-24T14:18:39.174Z</time>
      </trkpt>
      <trkpt lat="46.48088" lon="8.24722">
        <ele>1578</ele>
        <time>2020-10-24T14:18:40.175Z</time>
      </trkpt>
      <trkpt lat="46.48088" lon="8.24722">
        <ele>1577</ele>
        <time>2020-10-24T14:18:41.174Z</time>
      </trkpt>
      <trkpt lat="46.48088" lon="8.24722">
        <ele>1576</ele>
        <time>2020-10-24T14:18:42.175Z</time>
      </trkpt>
      <trkpt lat="46.48088" lon="8.24729">
        <ele>1572</ele>
        <time>2020-10-24T14:18:43.175Z</time>
      </trkpt>
      <trkpt lat="46.48088" lon="8.2473">
        <ele>1572</ele>
        <time>2020-10-24T14:18:44.175Z</time>
      </trkpt>
      <trkpt lat="46.48088" lon="8.24732">
        <ele>1573</ele>
        <time>2020-10-24T14:18:45.174Z</time>
      </trkpt>
      <trkpt lat="46.48085" lon="8.2473">
        <ele>1578</ele>
        <time>2020-10-24T14:18:46.175Z</time>
      </trkpt>
      <trkpt lat="46.48085" lon="8.24731">
        <ele>1578</ele>
        <time>2020-10-24T14:18:47.174Z</time>
      </trkpt>
      <trkpt lat="46.48084" lon="8.24732">
        <ele>1579</ele>
        <time>2020-10-24T14:18:48.174Z</time>
      </trkpt>
      <trkpt lat="46.48084" lon="8.24732">
        <ele>1580</ele>
        <time>2020-10-24T14:18:49.175Z</time>
      </trkpt>
      <trkpt lat="46.48083" lon="8.24732">
        <ele>1580</ele>
        <time>2020-10-24T14:18:50.174Z</time>
      </trkpt>
      <trkpt lat="46.48089" lon="8.24719">
        <ele>1564</ele>
        <time>2020-10-24T14:18:51.176Z</time>
      </trkpt>
      <trkpt lat="46.48089" lon="8.24718">
        <ele>1564</ele>
        <time>2020-10-24T14:18:52.176Z</time>
      </trkpt>
      <trkpt lat="46.48089" lon="8.24718">
        <ele>1563</ele>
        <time>2020-10-24T14:18:53.175Z</time>
      </trkpt>
      <trkpt lat="46.48085" lon="8.24718">
        <ele>1568</ele>
        <time>2020-10-24T14:18:54.176Z</time>
      </trkpt>
      <trkpt lat="46.48085" lon="8.24719">
        <ele>1569</ele>
        <time>2020-10-24T14:18:55.176Z</time>
      </trkpt>
      <trkpt lat="46.48085" lon="8.24719">
        <ele>1570</ele>
        <time>2020-10-24T14:18:56.176Z</time>
      </trkpt>
      <trkpt lat="46.48086" lon="8.2472">
        <ele>1575</ele>
        <time>2020-10-24T14:18:57.176Z</time>
      </trkpt>
      <trkpt lat="46.48086" lon="8.24721">
        <ele>1575</ele>
        <time>2020-10-24T14:18:58.176Z</time>
      </trkpt>
      <trkpt lat="46.48086" lon="8.24722">
        <ele>1577</ele>
        <time>2020-10-24T14:18:59.177Z</time>
      </trkpt>
      <trkpt lat="46.48086" lon="8.24722">
        <ele>1577</ele>
        <time>2020-10-24T14:19:00.178Z</time>
      </trkpt>
      <trkpt lat="46.48088" lon="8.24726">
        <ele>1576</ele>
        <time>2020-10-24T14:19:01.177Z</time>
      </trkpt>
      <trkpt lat="46.48089" lon="8.24726">
        <ele>1576</ele>
        <time>2020-10-24T14:19:02.177Z</time>
      </trkpt>
      <trkpt lat="46.4809" lon="8.24723">
        <ele>1573</ele>
        <time>2020-10-24T14:19:03.178Z</time>
      </trkpt>
      <trkpt lat="46.48089" lon="8.24723">
        <ele>1572</ele>
        <time>2020-10-24T14:19:04.179Z</time>
      </trkpt>
      <trkpt lat="46.48089" lon="8.24723">
        <ele>1572</ele>
        <time>2020-10-24T14:19:05.178Z</time>
      </trkpt>
      <trkpt lat="46.48089" lon="8.24723">
        <ele>1572</ele>
        <time>2020-10-24T14:19:06.179Z</time>
      </trkpt>
      <trkpt lat="46.48089" lon="8.24724">
        <ele>1571</ele>
        <time>2020-10-24T14:19:07.179Z</time>
      </trkpt>
      <trkpt lat="46.48087" lon="8.24725">
        <ele>1573</ele>
        <time>2020-10-24T14:19:08.180Z</time>
      </trkpt>
      <trkpt lat="46.48087" lon="8.24724">
        <ele>1575</ele>
        <time>2020-10-24T14:19:09.180Z</time>
      </trkpt>
      <trkpt lat="46.48088" lon="8.24724">
        <ele>1576</ele>
        <time>2020-10-24T14:19:10.179Z</time>
      </trkpt>
      <trkpt lat="46.48089" lon="8.24723">
        <ele>1577</ele>
        <time>2020-10-24T14:19:11.180Z</time>
      </trkpt>
      <trkpt lat="46.48089" lon="8.24725">
        <ele>1582</ele>
        <time>2020-10-24T14:19:12.180Z</time>
      </trkpt>
      <trkpt lat="46.48088" lon="8.24725">
        <ele>1583</ele>
        <time>2020-10-24T14:19:13.180Z</time>
      </trkpt>
      <trkpt lat="46.48085" lon="8.24725">
        <ele>1583</ele>
        <time>2020-10-24T14:19:14.179Z</time>
      </trkpt>
      <trkpt lat="46.48083" lon="8.24725">
        <ele>1584</ele>
        <time>2020-10-24T14:19:15.180Z</time>
      </trkpt>
      <trkpt lat="46.4808" lon="8.24726">
        <ele>1584</ele>
        <time>2020-10-24T14:19:16.180Z</time>
      </trkpt>
      <trkpt lat="46.48078" lon="8.24726">
        <ele>1584</ele>
        <time>2020-10-24T14:19:17.179Z</time>
      </trkpt>
      <trkpt lat="46.48075" lon="8.24726">
        <ele>1585</ele>
        <time>2020-10-24T14:19:18.179Z</time>
      </trkpt>
      <trkpt lat="46.48072" lon="8.24727">
        <ele>1585</ele>
        <time>2020-10-24T14:19:19.179Z</time>
      </trkpt>
      <trkpt lat="46.48068" lon="8.24728">
        <ele>1586</ele>
        <time>2020-10-24T14:19:20.179Z</time>
      </trkpt>
      <trkpt lat="46.48064" lon="8.24729">
        <ele>1587</ele>
        <time>2020-10-24T14:19:21.179Z</time>
      </trkpt>
      <trkpt lat="46.48061" lon="8.2473">
        <ele>1587</ele>
        <time>2020-10-24T14:19:22.179Z</time>
      </trkpt>
      <trkpt lat="46.48057" lon="8.24731">
        <ele>1588</ele>
        <time>2020-10-24T14:19:23.179Z</time>
      </trkpt>
      <trkpt lat="46.48054" lon="8.24732">
        <ele>1588</ele>
        <time>2020-10-24T14:19:24.180Z</time>
      </trkpt>
      <trkpt lat="46.4805" lon="8.24734">
        <ele>1589</ele>
        <time>2020-10-24T14:19:25.179Z</time>
      </trkpt>
      <trkpt lat="46.48047" lon="8.24735">
        <ele>1589</ele>
        <time>2020-10-24T14:19:26.179Z</time>
      </trkpt>
      <trkpt lat="46.48045" lon="8.24736">
        <ele>1590</ele>
        <time>2020-10-24T14:19:27.179Z</time>
      </trkpt>
      <trkpt lat="46.48044" lon="8.24736">
        <ele>1590</ele>
        <time>2020-10-24T14:19:28.179Z</time>
      </trkpt>
      <trkpt lat="46.48043" lon="8.24736">
        <ele>1591</ele>
        <time>2020-10-24T14:19:29.179Z</time>
      </trkpt>
      <trkpt lat="46.48042" lon="8.24737">
        <ele>1591</ele>
        <time>2020-10-24T14:19:30.179Z</time>
      </trkpt>
      <trkpt lat="46.4804" lon="8.24737">
        <ele>1592</ele>
        <time>2020-10-24T14:19:31.179Z</time>
      </trkpt>
      <trkpt lat="46.48038" lon="8.24738">
        <ele>1592</ele>
        <time>2020-10-24T14:19:32.179Z</time>
      </trkpt>
      <trkpt lat="46.48036" lon="8.24738">
        <ele>1592</ele>
        <time>2020-10-24T14:19:33.180Z</time>
      </trkpt>
      <trkpt lat="46.48034" lon="8.24739">
        <ele>1593</ele>
        <time>2020-10-24T14:19:34.179Z</time>
      </trkpt>
      <trkpt lat="46.48032" lon="8.24739">
        <ele>1593</ele>
        <time>2020-10-24T14:19:35.179Z</time>
      </trkpt>
      <trkpt lat="46.4803" lon="8.2474">
        <ele>1593</ele>
        <time>2020-10-24T14:19:36.180Z</time>
      </trkpt>
      <trkpt lat="46.48027" lon="8.24741">
        <ele>1594</ele>
        <time>2020-10-24T14:19:37.179Z</time>
      </trkpt>
      <trkpt lat="46.48024" lon="8.24742">
        <ele>1594</ele>
        <time>2020-10-24T14:19:38.180Z</time>
      </trkpt>
      <trkpt lat="46.48021" lon="8.24743">
        <ele>1595</ele>
        <time>2020-10-24T14:19:39.180Z</time>
      </trkpt>
      <trkpt lat="46.48018" lon="8.24744">
        <ele>1595</ele>
        <time>2020-10-24T14:19:40.180Z</time>
      </trkpt>
      <trkpt lat="46.48015" lon="8.24745">
        <ele>1595</ele>
        <time>2020-10-24T14:19:41.179Z</time>
      </trkpt>
      <trkpt lat="46.48012" lon="8.24746">
        <ele>1595</ele>
        <time>2020-10-24T14:19:42.180Z</time>
      </trkpt>
      <trkpt lat="46.4801" lon="8.24748">
        <ele>1595</ele>
        <time>2020-10-24T14:19:43.180Z</time>
      </trkpt>
      <trkpt lat="46.48007" lon="8.24749">
        <ele>1595</ele>
        <time>2020-10-24T14:19:44.180Z</time>
      </trkpt>
      <trkpt lat="46.48005" lon="8.2475">
        <ele>1596</ele>
        <time>2020-10-24T14:19:45.180Z</time>
      </trkpt>
      <trkpt lat="46.48004" lon="8.24751">
        <ele>1596</ele>
        <time>2020-10-24T14:19:46.180Z</time>
      </trkpt>
      <trkpt lat="46.48003" lon="8.24752">
        <ele>1597</ele>
        <time>2020-10-24T14:19:47.179Z</time>
      </trkpt>
      <trkpt lat="46.48002" lon="8.24753">
        <ele>1597</ele>
        <time>2020-10-24T14:19:48.180Z</time>
      </trkpt>
      <trkpt lat="46.47999" lon="8.24754">
        <ele>1598</ele>
        <time>2020-10-24T14:19:49.180Z</time>
      </trkpt>
      <trkpt lat="46.47998" lon="8.24754">
        <ele>1599</ele>
        <time>2020-10-24T14:19:50.179Z</time>
      </trkpt>
      <trkpt lat="46.47998" lon="8.24754">
        <ele>1598</ele>
        <time>2020-10-24T14:19:51.180Z</time>
      </trkpt>
      <trkpt lat="46.48001" lon="8.24752">
        <ele>1597</ele>
        <time>2020-10-24T14:19:52.180Z</time>
      </trkpt>
      <trkpt lat="46.48005" lon="8.24749">
        <ele>1596</ele>
        <time>2020-10-24T14:19:53.180Z</time>
      </trkpt>
      <trkpt lat="46.4801" lon="8.24747">
        <ele>1596</ele>
        <time>2020-10-24T14:19:54.180Z</time>
      </trkpt>
      <trkpt lat="46.48014" lon="8.24746">
        <ele>1595</ele>
        <time>2020-10-24T14:19:55.180Z</time>
      </trkpt>
      <trkpt lat="46.48016" lon="8.24745">
        <ele>1595</ele>
        <time>2020-10-24T14:19:56.180Z</time>
      </trkpt>
      <trkpt lat="46.48018" lon="8.24744">
        <ele>1594</ele>
        <time>2020-10-24T14:19:57.180Z</time>
      </trkpt>
      <trkpt lat="46.48019" lon="8.24744">
        <ele>1594</ele>
        <time>2020-10-24T14:19:58.180Z</time>
      </trkpt>
      <trkpt lat="46.48021" lon="8.24743">
        <ele>1593</ele>
        <time>2020-10-24T14:19:59.180Z</time>
      </trkpt>
      <trkpt lat="46.48022" lon="8.24742">
        <ele>1593</ele>
        <time>2020-10-24T14:20:00.179Z</time>
      </trkpt>
      <trkpt lat="46.48023" lon="8.24741">
        <ele>1592</ele>
        <time>2020-10-24T14:20:01.180Z</time>
      </trkpt>
      <trkpt lat="46.48041" lon="8.24736">
        <ele>1576</ele>
        <time>2020-10-24T14:20:02.182Z</time>
      </trkpt>
      <trkpt lat="46.48043" lon="8.24736">
        <ele>1576</ele>
        <time>2020-10-24T14:20:03.181Z</time>
      </trkpt>
      <trkpt lat="46.48045" lon="8.24736">
        <ele>1576</ele>
        <time>2020-10-24T14:20:04.181Z</time>
      </trkpt>
      <trkpt lat="46.48047" lon="8.24736">
        <ele>1576</ele>
        <time>2020-10-24T14:20:05.181Z</time>
      </trkpt>
      <trkpt lat="46.48059" lon="8.24732">
        <ele>1576</ele>
        <time>2020-10-24T14:20:06.182Z</time>
      </trkpt>
      <trkpt lat="46.4806" lon="8.24733">
        <ele>1576</ele>
        <time>2020-10-24T14:20:07.183Z</time>
      </trkpt>
      <trkpt lat="46.48061" lon="8.24733">
        <ele>1576</ele>
        <time>2020-10-24T14:20:08.182Z</time>
      </trkpt>
      <trkpt lat="46.48063" lon="8.24734">
        <ele>1575</ele>
        <time>2020-10-24T14:20:09.183Z</time>
      </trkpt>
      <trkpt lat="46.48064" lon="8.24734">
        <ele>1575</ele>
        <time>2020-10-24T14:20:10.183Z</time>
      </trkpt>
      <trkpt lat="46.48065" lon="8.24734">
        <ele>1575</ele>
        <time>2020-10-24T14:20:11.183Z</time>
      </trkpt>
      <trkpt lat="46.48067" lon="8.24735">
        <ele>1574</ele>
        <time>2020-10-24T14:20:12.182Z</time>
      </trkpt>
      <trkpt lat="46.48068" lon="8.24735">
        <ele>1574</ele>
        <time>2020-10-24T14:20:13.183Z</time>
      </trkpt>
      <trkpt lat="46.48071" lon="8.24737">
        <ele>1574</ele>
        <time>2020-10-24T14:20:14.183Z</time>
      </trkpt>
      <trkpt lat="46.48073" lon="8.24738">
        <ele>1574</ele>
        <time>2020-10-24T14:20:15.183Z</time>
      </trkpt>
      <trkpt lat="46.48075" lon="8.24741">
        <ele>1573</ele>
        <time>2020-10-24T14:20:16.183Z</time>
      </trkpt>
      <trkpt lat="46.48078" lon="8.24743">
        <ele>1572</ele>
        <time>2020-10-24T14:20:17.183Z</time>
      </trkpt>
      <trkpt lat="46.4808" lon="8.24745">
        <ele>1572</ele>
        <time>2020-10-24T14:20:18.183Z</time>
      </trkpt>
      <trkpt lat="46.48081" lon="8.24746">
        <ele>1571</ele>
        <time>2020-10-24T14:20:19.182Z</time>
      </trkpt>
      <trkpt lat="46.48082" lon="8.24746">
        <ele>1570</ele>
        <time>2020-10-24T14:20:20.183Z</time>
      </trkpt>
      <trkpt lat="46.48083" lon="8.24747">
        <ele>1569</ele>
        <time>2020-10-24T14:20:21.182Z</time>
      </trkpt>
      <trkpt lat="46.48084" lon="8.24747">
        <ele>1569</ele>
        <time>2020-10-24T14:20:22.183Z</time>
      </trkpt>
      <trkpt lat="46.48085" lon="8.24748">
        <ele>1568</ele>
        <time>2020-10-24T14:20:23.182Z</time>
      </trkpt>
      <trkpt lat="46.48086" lon="8.24748">
        <ele>1566</ele>
        <time>2020-10-24T14:20:24.182Z</time>
      </trkpt>
      <trkpt lat="46.48086" lon="8.24748">
        <ele>1566</ele>
        <time>2020-10-24T14:20:25.182Z</time>
      </trkpt>
      <trkpt lat="46.48087" lon="8.24748">
        <ele>1565</ele>
        <time>2020-10-24T14:20:26.183Z</time>
      </trkpt>
      <trkpt lat="46.48088" lon="8.24748">
        <ele>1564</ele>
        <time>2020-10-24T14:20:27.182Z</time>
      </trkpt>
      <trkpt lat="46.48088" lon="8.24748">
        <ele>1564</ele>
        <time>2020-10-24T14:20:28.182Z</time>
      </trkpt>
      <trkpt lat="46.48088" lon="8.24748">
        <ele>1564</ele>
        <time>2020-10-24T14:20:29.183Z</time>
      </trkpt>
      <trkpt lat="46.48088" lon="8.24748">
        <ele>1564</ele>
        <time>2020-10-24T14:20:30.182Z</time>
      </trkpt>
      <trkpt lat="46.48089" lon="8.24748">
        <ele>1564</ele>
        <time>2020-10-24T14:20:31.182Z</time>
      </trkpt>
      <trkpt lat="46.4809" lon="8.24747">
        <ele>1564</ele>
        <time>2020-10-24T14:20:32.182Z</time>
      </trkpt>
      <trkpt lat="46.48091" lon="8.24747">
        <ele>1565</ele>
        <time>2020-10-24T14:20:33.182Z</time>
      </trkpt>
      <trkpt lat="46.48092" lon="8.24747">
        <ele>1565</ele>
        <time>2020-10-24T14:20:34.182Z</time>
      </trkpt>
      <trkpt lat="46.48092" lon="8.24748">
        <ele>1565</ele>
        <time>2020-10-24T14:20:35.182Z</time>
      </trkpt>
      <trkpt lat="46.48093" lon="8.24749">
        <ele>1565</ele>
        <time>2020-10-24T14:20:36.182Z</time>
      </trkpt>
      <trkpt lat="46.48094" lon="8.24749">
        <ele>1565</ele>
        <time>2020-10-24T14:20:37.183Z</time>
      </trkpt>
      <trkpt lat="46.48095" lon="8.2475">
        <ele>1565</ele>
        <time>2020-10-24T14:20:38.182Z</time>
      </trkpt>
      <trkpt lat="46.48096" lon="8.2475">
        <ele>1565</ele>
        <time>2020-10-24T14:20:39.183Z</time>
      </trkpt>
      <trkpt lat="46.48096" lon="8.24751">
        <ele>1566</ele>
        <time>2020-10-24T14:20:40.183Z</time>
      </trkpt>
      <trkpt lat="46.48096" lon="8.2475">
        <ele>1566</ele>
        <time>2020-10-24T14:20:41.183Z</time>
      </trkpt>
      <trkpt lat="46.48096" lon="8.2475">
        <ele>1566</ele>
        <time>2020-10-24T14:20:42.183Z</time>
      </trkpt>
      <trkpt lat="46.48098" lon="8.24746">
        <ele>1566</ele>
        <time>2020-10-24T14:20:43.183Z</time>
      </trkpt>
      <trkpt lat="46.48099" lon="8.24745">
        <ele>1567</ele>
        <time>2020-10-24T14:20:44.183Z</time>
      </trkpt>
      <trkpt lat="46.48099" lon="8.24745">
        <ele>1567</ele>
        <time>2020-10-24T14:20:45.183Z</time>
      </trkpt>
      <trkpt lat="46.48102" lon="8.24741">
        <ele>1571</ele>
        <time>2020-10-24T14:20:46.183Z</time>
      </trkpt>
      <trkpt lat="46.48104" lon="8.24739">
        <ele>1571</ele>
        <time>2020-10-24T14:20:47.183Z</time>
      </trkpt>
      <trkpt lat="46.48105" lon="8.24738">
        <ele>1572</ele>
        <time>2020-10-24T14:20:48.183Z</time>
      </trkpt>
      <trkpt lat="46.48107" lon="8.24737">
        <ele>1572</ele>
        <time>2020-10-24T14:20:49.183Z</time>
      </trkpt>
      <trkpt lat="46.48108" lon="8.24736">
        <ele>1573</ele>
        <time>2020-10-24T14:20:50.183Z</time>
      </trkpt>
      <trkpt lat="46.48109" lon="8.24736">
        <ele>1573</ele>
        <time>2020-10-24T14:20:51.182Z</time>
      </trkpt>
      <trkpt lat="46.4811" lon="8.24736">
        <ele>1574</ele>
        <time>2020-10-24T14:20:52.183Z</time>
      </trkpt>
      <trkpt lat="46.48111" lon="8.24735">
        <ele>1575</ele>
        <time>2020-10-24T14:20:53.183Z</time>
      </trkpt>
      <trkpt lat="46.48112" lon="8.24735">
        <ele>1575</ele>
        <time>2020-10-24T14:20:54.182Z</time>
      </trkpt>
      <trkpt lat="46.48114" lon="8.24735">
        <ele>1576</ele>
        <time>2020-10-24T14:20:55.183Z</time>
      </trkpt>
      <trkpt lat="46.48115" lon="8.24734">
        <ele>1576</ele>
        <time>2020-10-24T14:20:56.183Z</time>
      </trkpt>
      <trkpt lat="46.48116" lon="8.24735">
        <ele>1576</ele>
        <time>2020-10-24T14:20:57.182Z</time>
      </trkpt>
      <trkpt lat="46.48117" lon="8.24735">
        <ele>1576</ele>
        <time>2020-10-24T14:20:58.183Z</time>
      </trkpt>
      <trkpt lat="46.48117" lon="8.24736">
        <ele>1575</ele>
        <time>2020-10-24T14:20:59.183Z</time>
      </trkpt>
      <trkpt lat="46.48117" lon="8.24737">
        <ele>1575</ele>
        <time>2020-10-24T14:21:00.183Z</time>
      </trkpt>
      <trkpt lat="46.48116" lon="8.24738">
        <ele>1575</ele>
        <time>2020-10-24T14:21:01.183Z</time>
      </trkpt>
      <trkpt lat="46.48116" lon="8.24738">
        <ele>1575</ele>
        <time>2020-10-24T14:21:02.182Z</time>
      </trkpt>
      <trkpt lat="46.48116" lon="8.24738">
        <ele>1576</ele>
        <time>2020-10-24T14:21:03.183Z</time>
      </trkpt>
      <trkpt lat="46.48117" lon="8.24738">
        <ele>1576</ele>
        <time>2020-10-24T14:21:04.182Z</time>
      </trkpt>
      <trkpt lat="46.48117" lon="8.24737">
        <ele>1576</ele>
        <time>2020-10-24T14:21:05.182Z</time>
      </trkpt>
      <trkpt lat="46.48118" lon="8.24737">
        <ele>1576</ele>
        <time>2020-10-24T14:21:06.183Z</time>
      </trkpt>
      <trkpt lat="46.48119" lon="8.24736">
        <ele>1576</ele>
        <time>2020-10-24T14:21:07.183Z</time>
      </trkpt>
      <trkpt lat="46.4812" lon="8.24734">
        <ele>1576</ele>
        <time>2020-10-24T14:21:08.183Z</time>
      </trkpt>
      <trkpt lat="46.4812" lon="8.24733">
        <ele>1577</ele>
        <time>2020-10-24T14:21:09.182Z</time>
      </trkpt>
      <trkpt lat="46.4812" lon="8.24733">
        <ele>1577</ele>
        <time>2020-10-24T14:21:10.183Z</time>
      </trkpt>
      <trkpt lat="46.48121" lon="8.24734">
        <ele>1578</ele>
        <time>2020-10-24T14:21:11.182Z</time>
      </trkpt>
      <trkpt lat="46.48122" lon="8.24735">
        <ele>1578</ele>
        <time>2020-10-24T14:21:12.183Z</time>
      </trkpt>
      <trkpt lat="46.48122" lon="8.24735">
        <ele>1578</ele>
        <time>2020-10-24T14:21:13.183Z</time>
      </trkpt>
      <trkpt lat="46.48122" lon="8.24736">
        <ele>1579</ele>
        <time>2020-10-24T14:21:14.183Z</time>
      </trkpt>
      <trkpt lat="46.48122" lon="8.24737">
        <ele>1579</ele>
        <time>2020-10-24T14:21:15.182Z</time>
      </trkpt>
      <trkpt lat="46.48121" lon="8.24737">
        <ele>1579</ele>
        <time>2020-10-24T14:21:16.183Z</time>
      </trkpt>
      <trkpt lat="46.4812" lon="8.24738">
        <ele>1579</ele>
        <time>2020-10-24T14:21:17.183Z</time>
      </trkpt>
      <trkpt lat="46.48118" lon="8.2474">
        <ele>1579</ele>
        <time>2020-10-24T14:21:18.183Z</time>
      </trkpt>
      <trkpt lat="46.48118" lon="8.24741">
        <ele>1579</ele>
        <time>2020-10-24T14:21:19.183Z</time>
      </trkpt>
      <trkpt lat="46.48118" lon="8.24742">
        <ele>1579</ele>
        <time>2020-10-24T14:21:20.183Z</time>
      </trkpt>
      <trkpt lat="46.48118" lon="8.24742">
        <ele>1579</ele>
        <time>2020-10-24T14:21:21.182Z</time>
      </trkpt>
      <trkpt lat="46.48119" lon="8.24742">
        <ele>1579</ele>
        <time>2020-10-24T14:21:22.183Z</time>
      </trkpt>
      <trkpt lat="46.48119" lon="8.24743">
        <ele>1579</ele>
        <time>2020-10-24T14:21:23.183Z</time>
      </trkpt>
      <trkpt lat="46.48119" lon="8.24743">
        <ele>1580</ele>
        <time>2020-10-24T14:21:24.183Z</time>
      </trkpt>
      <trkpt lat="46.48119" lon="8.24744">
        <ele>1580</ele>
        <time>2020-10-24T14:21:25.183Z</time>
      </trkpt>
      <trkpt lat="46.48122" lon="8.24745">
        <ele>1580</ele>
        <time>2020-10-24T14:21:26.183Z</time>
      </trkpt>
      <trkpt lat="46.48128" lon="8.24745">
        <ele>1580</ele>
        <time>2020-10-24T14:21:27.183Z</time>
      </trkpt>
      <trkpt lat="46.48131" lon="8.24747">
        <ele>1580</ele>
        <time>2020-10-24T14:21:28.183Z</time>
      </trkpt>
      <trkpt lat="46.48132" lon="8.24748">
        <ele>1580</ele>
        <time>2020-10-24T14:21:29.183Z</time>
      </trkpt>
      <trkpt lat="46.48133" lon="8.24749">
        <ele>1580</ele>
        <time>2020-10-24T14:21:30.183Z</time>
      </trkpt>
      <trkpt lat="46.48133" lon="8.2475">
        <ele>1580</ele>
        <time>2020-10-24T14:21:31.183Z</time>
      </trkpt>
      <trkpt lat="46.48133" lon="8.24752">
        <ele>1581</ele>
        <time>2020-10-24T14:21:32.183Z</time>
      </trkpt>
      <trkpt lat="46.48133" lon="8.24754">
        <ele>1581</ele>
        <time>2020-10-24T14:21:33.183Z</time>
      </trkpt>
      <trkpt lat="46.48134" lon="8.24755">
        <ele>1582</ele>
        <time>2020-10-24T14:21:34.183Z</time>
      </trkpt>
      <trkpt lat="46.48135" lon="8.24756">
        <ele>1582</ele>
        <time>2020-10-24T14:21:35.182Z</time>
      </trkpt>
      <trkpt lat="46.48137" lon="8.24756">
        <ele>1582</ele>
        <time>2020-10-24T14:21:36.183Z</time>
      </trkpt>
      <trkpt lat="46.48138" lon="8.24757">
        <ele>1582</ele>
        <time>2020-10-24T14:21:37.182Z</time>
      </trkpt>
      <trkpt lat="46.48138" lon="8.24758">
        <ele>1581</ele>
        <time>2020-10-24T14:21:38.183Z</time>
      </trkpt>
      <trkpt lat="46.48139" lon="8.24759">
        <ele>1581</ele>
        <time>2020-10-24T14:21:39.183Z</time>
      </trkpt>
      <trkpt lat="46.48139" lon="8.2476">
        <ele>1581</ele>
        <time>2020-10-24T14:21:40.183Z</time>
      </trkpt>
      <trkpt lat="46.48139" lon="8.24762">
        <ele>1580</ele>
        <time>2020-10-24T14:21:41.182Z</time>
      </trkpt>
      <trkpt lat="46.4814" lon="8.24763">
        <ele>1580</ele>
        <time>2020-10-24T14:21:42.182Z</time>
      </trkpt>
      <trkpt lat="46.4814" lon="8.24765">
        <ele>1579</ele>
        <time>2020-10-24T14:21:43.182Z</time>
      </trkpt>
      <trkpt lat="46.4814" lon="8.24766">
        <ele>1579</ele>
        <time>2020-10-24T14:21:44.183Z</time>
      </trkpt>
      <trkpt lat="46.4814" lon="8.24768">
        <ele>1579</ele>
        <time>2020-10-24T14:21:45.182Z</time>
      </trkpt>
      <trkpt lat="46.48139" lon="8.24769">
        <ele>1579</ele>
        <time>2020-10-24T14:21:46.182Z</time>
      </trkpt>
      <trkpt lat="46.48137" lon="8.24771">
        <ele>1578</ele>
        <time>2020-10-24T14:21:47.183Z</time>
      </trkpt>
      <trkpt lat="46.48136" lon="8.24771">
        <ele>1578</ele>
        <time>2020-10-24T14:21:48.183Z</time>
      </trkpt>
      <trkpt lat="46.48135" lon="8.24773">
        <ele>1577</ele>
        <time>2020-10-24T14:21:49.183Z</time>
      </trkpt>
      <trkpt lat="46.48135" lon="8.24773">
        <ele>1577</ele>
        <time>2020-10-24T14:21:50.183Z</time>
      </trkpt>
      <trkpt lat="46.48134" lon="8.24774">
        <ele>1577</ele>
        <time>2020-10-24T14:21:51.183Z</time>
      </trkpt>
      <trkpt lat="46.48134" lon="8.24775">
        <ele>1576</ele>
        <time>2020-10-24T14:21:52.182Z</time>
      </trkpt>
      <trkpt lat="46.48133" lon="8.24775">
        <ele>1576</ele>
        <time>2020-10-24T14:21:53.182Z</time>
      </trkpt>
      <trkpt lat="46.48133" lon="8.24776">
        <ele>1577</ele>
        <time>2020-10-24T14:21:54.183Z</time>
      </trkpt>
      <trkpt lat="46.48132" lon="8.24777">
        <ele>1577</ele>
        <time>2020-10-24T14:21:55.182Z</time>
      </trkpt>
      <trkpt lat="46.48131" lon="8.24778">
        <ele>1577</ele>
        <time>2020-10-24T14:21:56.183Z</time>
      </trkpt>
      <trkpt lat="46.4813" lon="8.24778">
        <ele>1577</ele>
        <time>2020-10-24T14:21:57.182Z</time>
      </trkpt>
      <trkpt lat="46.4813" lon="8.24779">
        <ele>1577</ele>
        <time>2020-10-24T14:21:58.183Z</time>
      </trkpt>
      <trkpt lat="46.48131" lon="8.2478">
        <ele>1577</ele>
        <time>2020-10-24T14:21:59.183Z</time>
      </trkpt>
      <trkpt lat="46.48132" lon="8.24779">
        <ele>1577</ele>
        <time>2020-10-24T14:22:00.183Z</time>
      </trkpt>
      <trkpt lat="46.48133" lon="8.24778">
        <ele>1577</ele>
        <time>2020-10-24T14:22:01.183Z</time>
      </trkpt>
      <trkpt lat="46.48134" lon="8.24776">
        <ele>1577</ele>
        <time>2020-10-24T14:22:02.182Z</time>
      </trkpt>
      <trkpt lat="46.48136" lon="8.24775">
        <ele>1576</ele>
        <time>2020-10-24T14:22:03.183Z</time>
      </trkpt>
      <trkpt lat="46.48139" lon="8.24774">
        <ele>1576</ele>
        <time>2020-10-24T14:22:04.183Z</time>
      </trkpt>
      <trkpt lat="46.48143" lon="8.24773">
        <ele>1576</ele>
        <time>2020-10-24T14:22:05.183Z</time>
      </trkpt>
      <trkpt lat="46.48145" lon="8.24772">
        <ele>1575</ele>
        <time>2020-10-24T14:22:06.183Z</time>
      </trkpt>
      <trkpt lat="46.48146" lon="8.24772">
        <ele>1575</ele>
        <time>2020-10-24T14:22:07.183Z</time>
      </trkpt>
      <trkpt lat="46.48145" lon="8.24773">
        <ele>1575</ele>
        <time>2020-10-24T14:22:08.182Z</time>
      </trkpt>
      <trkpt lat="46.48145" lon="8.24774">
        <ele>1574</ele>
        <time>2020-10-24T14:22:09.182Z</time>
      </trkpt>
      <trkpt lat="46.48145" lon="8.24775">
        <ele>1574</ele>
        <time>2020-10-24T14:22:10.183Z</time>
      </trkpt>
      <trkpt lat="46.48145" lon="8.24777">
        <ele>1574</ele>
        <time>2020-10-24T14:22:11.183Z</time>
      </trkpt>
      <trkpt lat="46.48145" lon="8.24779">
        <ele>1574</ele>
        <time>2020-10-24T14:22:12.183Z</time>
      </trkpt>
      <trkpt lat="46.48145" lon="8.2478">
        <ele>1574</ele>
        <time>2020-10-24T14:22:13.183Z</time>
      </trkpt>
      <trkpt lat="46.48146" lon="8.2478">
        <ele>1573</ele>
        <time>2020-10-24T14:22:14.183Z</time>
      </trkpt>
      <trkpt lat="46.48147" lon="8.2478">
        <ele>1572</ele>
        <time>2020-10-24T14:22:15.183Z</time>
      </trkpt>
      <trkpt lat="46.48147" lon="8.2478">
        <ele>1572</ele>
        <time>2020-10-24T14:22:16.182Z</time>
      </trkpt>
      <trkpt lat="46.48148" lon="8.24781">
        <ele>1571</ele>
        <time>2020-10-24T14:22:17.182Z</time>
      </trkpt>
      <trkpt lat="46.48149" lon="8.24783">
        <ele>1570</ele>
        <time>2020-10-24T14:22:18.182Z</time>
      </trkpt>
      <trkpt lat="46.48149" lon="8.24785">
        <ele>1570</ele>
        <time>2020-10-24T14:22:19.182Z</time>
      </trkpt>
      <trkpt lat="46.4815" lon="8.24786">
        <ele>1569</ele>
        <time>2020-10-24T14:22:20.182Z</time>
      </trkpt>
      <trkpt lat="46.48151" lon="8.24787">
        <ele>1569</ele>
        <time>2020-10-24T14:22:21.183Z</time>
      </trkpt>
      <trkpt lat="46.48151" lon="8.24787">
        <ele>1569</ele>
        <time>2020-10-24T14:22:22.182Z</time>
      </trkpt>
      <trkpt lat="46.48152" lon="8.24789">
        <ele>1569</ele>
        <time>2020-10-24T14:22:23.183Z</time>
      </trkpt>
      <trkpt lat="46.48154" lon="8.24788">
        <ele>1569</ele>
        <time>2020-10-24T14:22:24.183Z</time>
      </trkpt>
      <trkpt lat="46.48155" lon="8.24788">
        <ele>1569</ele>
        <time>2020-10-24T14:22:25.183Z</time>
      </trkpt>
      <trkpt lat="46.48157" lon="8.24788">
        <ele>1569</ele>
        <time>2020-10-24T14:22:26.183Z</time>
      </trkpt>
      <trkpt lat="46.48156" lon="8.24791">
        <ele>1569</ele>
        <time>2020-10-24T14:22:27.183Z</time>
      </trkpt>
      <trkpt lat="46.48157" lon="8.24794">
        <ele>1570</ele>
        <time>2020-10-24T14:22:28.183Z</time>
      </trkpt>
      <trkpt lat="46.48159" lon="8.24795">
        <ele>1570</ele>
        <time>2020-10-24T14:22:29.183Z</time>
      </trkpt>
      <trkpt lat="46.4816" lon="8.24795">
        <ele>1570</ele>
        <time>2020-10-24T14:22:30.183Z</time>
      </trkpt>
      <trkpt lat="46.48162" lon="8.24794">
        <ele>1570</ele>
        <time>2020-10-24T14:22:31.182Z</time>
      </trkpt>
      <trkpt lat="46.48163" lon="8.24794">
        <ele>1569</ele>
        <time>2020-10-24T14:22:32.183Z</time>
      </trkpt>
      <trkpt lat="46.48164" lon="8.24794">
        <ele>1569</ele>
        <time>2020-10-24T14:22:33.183Z</time>
      </trkpt>
      <trkpt lat="46.48166" lon="8.24794">
        <ele>1568</ele>
        <time>2020-10-24T14:22:34.183Z</time>
      </trkpt>
      <trkpt lat="46.48167" lon="8.24794">
        <ele>1568</ele>
        <time>2020-10-24T14:22:35.183Z</time>
      </trkpt>
      <trkpt lat="46.48168" lon="8.24794">
        <ele>1568</ele>
        <time>2020-10-24T14:22:36.183Z</time>
      </trkpt>
      <trkpt lat="46.4817" lon="8.24793">
        <ele>1567</ele>
        <time>2020-10-24T14:22:37.183Z</time>
      </trkpt>
      <trkpt lat="46.4817" lon="8.24795">
        <ele>1567</ele>
        <time>2020-10-24T14:22:38.182Z</time>
      </trkpt>
      <trkpt lat="46.4817" lon="8.24797">
        <ele>1567</ele>
        <time>2020-10-24T14:22:39.182Z</time>
      </trkpt>
      <trkpt lat="46.4817" lon="8.24799">
        <ele>1567</ele>
        <time>2020-10-24T14:22:40.183Z</time>
      </trkpt>
      <trkpt lat="46.4817" lon="8.24803">
        <ele>1567</ele>
        <time>2020-10-24T14:22:41.183Z</time>
      </trkpt>
      <trkpt lat="46.4817" lon="8.24807">
        <ele>1566</ele>
        <time>2020-10-24T14:22:42.183Z</time>
      </trkpt>
      <trkpt lat="46.4817" lon="8.24809">
        <ele>1567</ele>
        <time>2020-10-24T14:22:43.182Z</time>
      </trkpt>
      <trkpt lat="46.48171" lon="8.24811">
        <ele>1567</ele>
        <time>2020-10-24T14:22:44.182Z</time>
      </trkpt>
      <trkpt lat="46.48172" lon="8.24813">
        <ele>1567</ele>
        <time>2020-10-24T14:22:45.182Z</time>
      </trkpt>
      <trkpt lat="46.48174" lon="8.24815">
        <ele>1567</ele>
        <time>2020-10-24T14:22:46.183Z</time>
      </trkpt>
      <trkpt lat="46.48175" lon="8.24817">
        <ele>1567</ele>
        <time>2020-10-24T14:22:47.183Z</time>
      </trkpt>
      <trkpt lat="46.48176" lon="8.24818">
        <ele>1568</ele>
        <time>2020-10-24T14:22:48.183Z</time>
      </trkpt>
      <trkpt lat="46.48176" lon="8.2482">
        <ele>1569</ele>
        <time>2020-10-24T14:22:49.183Z</time>
      </trkpt>
      <trkpt lat="46.48176" lon="8.24821">
        <ele>1569</ele>
        <time>2020-10-24T14:22:50.182Z</time>
      </trkpt>
      <trkpt lat="46.48176" lon="8.24821">
        <ele>1570</ele>
        <time>2020-10-24T14:22:51.182Z</time>
      </trkpt>
      <trkpt lat="46.48176" lon="8.24822">
        <ele>1570</ele>
        <time>2020-10-24T14:22:52.183Z</time>
      </trkpt>
      <trkpt lat="46.48176" lon="8.24821">
        <ele>1570</ele>
        <time>2020-10-24T14:22:53.182Z</time>
      </trkpt>
      <trkpt lat="46.48175" lon="8.24822">
        <ele>1570</ele>
        <time>2020-10-24T14:22:54.183Z</time>
      </trkpt>
      <trkpt lat="46.48172" lon="8.24828">
        <ele>1570</ele>
        <time>2020-10-24T14:22:55.183Z</time>
      </trkpt>
      <trkpt lat="46.48172" lon="8.24829">
        <ele>1570</ele>
        <time>2020-10-24T14:22:56.182Z</time>
      </trkpt>
      <trkpt lat="46.48172" lon="8.2483">
        <ele>1570</ele>
        <time>2020-10-24T14:22:57.183Z</time>
      </trkpt>
      <trkpt lat="46.48172" lon="8.24832">
        <ele>1570</ele>
        <time>2020-10-24T14:22:58.183Z</time>
      </trkpt>
      <trkpt lat="46.48172" lon="8.24833">
        <ele>1571</ele>
        <time>2020-10-24T14:22:59.183Z</time>
      </trkpt>
      <trkpt lat="46.48171" lon="8.24835">
        <ele>1571</ele>
        <time>2020-10-24T14:23:00.183Z</time>
      </trkpt>
      <trkpt lat="46.48171" lon="8.24836">
        <ele>1572</ele>
        <time>2020-10-24T14:23:01.183Z</time>
      </trkpt>
      <trkpt lat="46.48172" lon="8.24835">
        <ele>1572</ele>
        <time>2020-10-24T14:23:02.183Z</time>
      </trkpt>
      <trkpt lat="46.48174" lon="8.24833">
        <ele>1572</ele>
        <time>2020-10-24T14:23:03.183Z</time>
      </trkpt>
      <trkpt lat="46.48175" lon="8.24832">
        <ele>1572</ele>
        <time>2020-10-24T14:23:04.183Z</time>
      </trkpt>
      <trkpt lat="46.48176" lon="8.2483">
        <ele>1572</ele>
        <time>2020-10-24T14:23:05.183Z</time>
      </trkpt>
      <trkpt lat="46.48176" lon="8.24827">
        <ele>1572</ele>
        <time>2020-10-24T14:23:06.183Z</time>
      </trkpt>
      <trkpt lat="46.48176" lon="8.24825">
        <ele>1572</ele>
        <time>2020-10-24T14:23:07.183Z</time>
      </trkpt>
      <trkpt lat="46.48175" lon="8.24823">
        <ele>1572</ele>
        <time>2020-10-24T14:23:08.183Z</time>
      </trkpt>
      <trkpt lat="46.48175" lon="8.24822">
        <ele>1571</ele>
        <time>2020-10-24T14:23:09.182Z</time>
      </trkpt>
      <trkpt lat="46.48174" lon="8.24824">
        <ele>1571</ele>
        <time>2020-10-24T14:23:10.182Z</time>
      </trkpt>
      <trkpt lat="46.48172" lon="8.24827">
        <ele>1572</ele>
        <time>2020-10-24T14:23:11.182Z</time>
      </trkpt>
      <trkpt lat="46.48171" lon="8.2483">
        <ele>1572</ele>
        <time>2020-10-24T14:23:12.183Z</time>
      </trkpt>
      <trkpt lat="46.4817" lon="8.24834">
        <ele>1572</ele>
        <time>2020-10-24T14:23:13.182Z</time>
      </trkpt>
      <trkpt lat="46.48169" lon="8.24839">
        <ele>1572</ele>
        <time>2020-10-24T14:23:14.182Z</time>
      </trkpt>
      <trkpt lat="46.48169" lon="8.24844">
        <ele>1572</ele>
        <time>2020-10-24T14:23:15.182Z</time>
      </trkpt>
      <trkpt lat="46.48168" lon="8.24848">
        <ele>1573</ele>
        <time>2020-10-24T14:23:16.183Z</time>
      </trkpt>
      <trkpt lat="46.48168" lon="8.24853">
        <ele>1573</ele>
        <time>2020-10-24T14:23:17.183Z</time>
      </trkpt>
      <trkpt lat="46.48168" lon="8.24857">
        <ele>1573</ele>
        <time>2020-10-24T14:23:18.182Z</time>
      </trkpt>
      <trkpt lat="46.48167" lon="8.24861">
        <ele>1574</ele>
        <time>2020-10-24T14:23:19.182Z</time>
      </trkpt>
      <trkpt lat="46.48168" lon="8.24862">
        <ele>1574</ele>
        <time>2020-10-24T14:23:20.182Z</time>
      </trkpt>
      <trkpt lat="46.48168" lon="8.24862">
        <ele>1574</ele>
        <time>2020-10-24T14:23:21.182Z</time>
      </trkpt>
      <trkpt lat="46.48168" lon="8.24861">
        <ele>1574</ele>
        <time>2020-10-24T14:23:22.182Z</time>
      </trkpt>
      <trkpt lat="46.48169" lon="8.24859">
        <ele>1573</ele>
        <time>2020-10-24T14:23:23.182Z</time>
      </trkpt>
      <trkpt lat="46.4817" lon="8.24859">
        <ele>1573</ele>
        <time>2020-10-24T14:23:24.182Z</time>
      </trkpt>
      <trkpt lat="46.4817" lon="8.24859">
        <ele>1573</ele>
        <time>2020-10-24T14:23:25.182Z</time>
      </trkpt>
      <trkpt lat="46.48171" lon="8.24859">
        <ele>1573</ele>
        <time>2020-10-24T14:23:26.183Z</time>
      </trkpt>
      <trkpt lat="46.48171" lon="8.2486">
        <ele>1573</ele>
        <time>2020-10-24T14:23:27.182Z</time>
      </trkpt>
      <trkpt lat="46.48172" lon="8.24859">
        <ele>1573</ele>
        <time>2020-10-24T14:23:28.182Z</time>
      </trkpt>
      <trkpt lat="46.48173" lon="8.24858">
        <ele>1573</ele>
        <time>2020-10-24T14:23:29.182Z</time>
      </trkpt>
      <trkpt lat="46.48175" lon="8.24858">
        <ele>1572</ele>
        <time>2020-10-24T14:23:30.182Z</time>
      </trkpt>
      <trkpt lat="46.48176" lon="8.24858">
        <ele>1571</ele>
        <time>2020-10-24T14:23:31.182Z</time>
      </trkpt>
      <trkpt lat="46.48177" lon="8.24858">
        <ele>1571</ele>
        <time>2020-10-24T14:23:32.182Z</time>
      </trkpt>
      <trkpt lat="46.48178" lon="8.24859">
        <ele>1571</ele>
        <time>2020-10-24T14:23:33.182Z</time>
      </trkpt>
      <trkpt lat="46.48179" lon="8.24858">
        <ele>1571</ele>
        <time>2020-10-24T14:23:34.182Z</time>
      </trkpt>
      <trkpt lat="46.48181" lon="8.24857">
        <ele>1570</ele>
        <time>2020-10-24T14:23:35.182Z</time>
      </trkpt>
      <trkpt lat="46.48182" lon="8.24856">
        <ele>1570</ele>
        <time>2020-10-24T14:23:36.183Z</time>
      </trkpt>
      <trkpt lat="46.48183" lon="8.24855">
        <ele>1569</ele>
        <time>2020-10-24T14:23:37.183Z</time>
      </trkpt>
      <trkpt lat="46.48183" lon="8.24854">
        <ele>1568</ele>
        <time>2020-10-24T14:23:38.182Z</time>
      </trkpt>
      <trkpt lat="46.48184" lon="8.24853">
        <ele>1568</ele>
        <time>2020-10-24T14:23:39.182Z</time>
      </trkpt>
      <trkpt lat="46.48185" lon="8.24852">
        <ele>1568</ele>
        <time>2020-10-24T14:23:40.182Z</time>
      </trkpt>
      <trkpt lat="46.48186" lon="8.24852">
        <ele>1567</ele>
        <time>2020-10-24T14:23:41.182Z</time>
      </trkpt>
      <trkpt lat="46.48186" lon="8.24852">
        <ele>1567</ele>
        <time>2020-10-24T14:23:42.183Z</time>
      </trkpt>
      <trkpt lat="46.48187" lon="8.24851">
        <ele>1567</ele>
        <time>2020-10-24T14:23:43.182Z</time>
      </trkpt>
      <trkpt lat="46.48187" lon="8.2485">
        <ele>1567</ele>
        <time>2020-10-24T14:23:44.182Z</time>
      </trkpt>
      <trkpt lat="46.48185" lon="8.24849">
        <ele>1566</ele>
        <time>2020-10-24T14:23:45.182Z</time>
      </trkpt>
      <trkpt lat="46.48184" lon="8.24847">
        <ele>1566</ele>
        <time>2020-10-24T14:23:46.182Z</time>
      </trkpt>
      <trkpt lat="46.48184" lon="8.24846">
        <ele>1566</ele>
        <time>2020-10-24T14:23:47.182Z</time>
      </trkpt>
      <trkpt lat="46.48183" lon="8.24846">
        <ele>1565</ele>
        <time>2020-10-24T14:23:48.182Z</time>
      </trkpt>
      <trkpt lat="46.48183" lon="8.24846">
        <ele>1564</ele>
        <time>2020-10-24T14:23:49.182Z</time>
      </trkpt>
      <trkpt lat="46.48182" lon="8.24845">
        <ele>1564</ele>
        <time>2020-10-24T14:23:50.182Z</time>
      </trkpt>
      <trkpt lat="46.48181" lon="8.24844">
        <ele>1564</ele>
        <time>2020-10-24T14:23:51.182Z</time>
      </trkpt>
      <trkpt lat="46.4818" lon="8.24844">
        <ele>1564</ele>
        <time>2020-10-24T14:23:52.182Z</time>
      </trkpt>
      <trkpt lat="46.48178" lon="8.24844">
        <ele>1564</ele>
        <time>2020-10-24T14:23:53.182Z</time>
      </trkpt>
      <trkpt lat="46.48176" lon="8.24844">
        <ele>1564</ele>
        <time>2020-10-24T14:23:54.182Z</time>
      </trkpt>
      <trkpt lat="46.48174" lon="8.24844">
        <ele>1564</ele>
        <time>2020-10-24T14:23:55.182Z</time>
      </trkpt>
      <trkpt lat="46.48173" lon="8.24844">
        <ele>1564</ele>
        <time>2020-10-24T14:23:56.183Z</time>
      </trkpt>
      <trkpt lat="46.48172" lon="8.24844">
        <ele>1565</ele>
        <time>2020-10-24T14:23:57.182Z</time>
      </trkpt>
      <trkpt lat="46.48171" lon="8.24845">
        <ele>1565</ele>
        <time>2020-10-24T14:23:58.182Z</time>
      </trkpt>
      <trkpt lat="46.48171" lon="8.24846">
        <ele>1565</ele>
        <time>2020-10-24T14:23:59.182Z</time>
      </trkpt>
      <trkpt lat="46.48171" lon="8.24849">
        <ele>1566</ele>
        <time>2020-10-24T14:24:00.182Z</time>
      </trkpt>
      <trkpt lat="46.48171" lon="8.24851">
        <ele>1566</ele>
        <time>2020-10-24T14:24:01.182Z</time>
      </trkpt>
      <trkpt lat="46.4817" lon="8.24852">
        <ele>1566</ele>
        <time>2020-10-24T14:24:02.182Z</time>
      </trkpt>
      <trkpt lat="46.4817" lon="8.24852">
        <ele>1567</ele>
        <time>2020-10-24T14:24:03.182Z</time>
      </trkpt>
      <trkpt lat="46.4817" lon="8.24853">
        <ele>1567</ele>
        <time>2020-10-24T14:24:04.182Z</time>
      </trkpt>
      <trkpt lat="46.4817" lon="8.24854">
        <ele>1567</ele>
        <time>2020-10-24T14:24:05.182Z</time>
      </trkpt>
      <trkpt lat="46.48169" lon="8.24856">
        <ele>1567</ele>
        <time>2020-10-24T14:24:06.182Z</time>
      </trkpt>
      <trkpt lat="46.4817" lon="8.24858">
        <ele>1566</ele>
        <time>2020-10-24T14:24:07.183Z</time>
      </trkpt>
      <trkpt lat="46.4817" lon="8.24861">
        <ele>1565</ele>
        <time>2020-10-24T14:24:08.182Z</time>
      </trkpt>
      <trkpt lat="46.48171" lon="8.24863">
        <ele>1564</ele>
        <time>2020-10-24T14:24:09.182Z</time>
      </trkpt>
      <trkpt lat="46.48171" lon="8.24866">
        <ele>1563</ele>
        <time>2020-10-24T14:24:10.182Z</time>
      </trkpt>
      <trkpt lat="46.48171" lon="8.24868">
        <ele>1562</ele>
        <time>2020-10-24T14:24:11.182Z</time>
      </trkpt>
      <trkpt lat="46.48171" lon="8.24869">
        <ele>1562</ele>
        <time>2020-10-24T14:24:12.182Z</time>
      </trkpt>
      <trkpt lat="46.48171" lon="8.2487">
        <ele>1561</ele>
        <time>2020-10-24T14:24:13.182Z</time>
      </trkpt>
      <trkpt lat="46.48171" lon="8.24872">
        <ele>1561</ele>
        <time>2020-10-24T14:24:14.182Z</time>
      </trkpt>
      <trkpt lat="46.48171" lon="8.24874">
        <ele>1561</ele>
        <time>2020-10-24T14:24:15.182Z</time>
      </trkpt>
      <trkpt lat="46.48171" lon="8.24876">
        <ele>1560</ele>
        <time>2020-10-24T14:24:16.182Z</time>
      </trkpt>
      <trkpt lat="46.4817" lon="8.24878">
        <ele>1560</ele>
        <time>2020-10-24T14:24:17.182Z</time>
      </trkpt>
      <trkpt lat="46.4817" lon="8.24879">
        <ele>1560</ele>
        <time>2020-10-24T14:24:18.182Z</time>
      </trkpt>
      <trkpt lat="46.48169" lon="8.24881">
        <ele>1559</ele>
        <time>2020-10-24T14:24:19.182Z</time>
      </trkpt>
      <trkpt lat="46.48169" lon="8.24884">
        <ele>1559</ele>
        <time>2020-10-24T14:24:20.182Z</time>
      </trkpt>
      <trkpt lat="46.48168" lon="8.24886">
        <ele>1558</ele>
        <time>2020-10-24T14:24:21.182Z</time>
      </trkpt>
      <trkpt lat="46.48169" lon="8.2489">
        <ele>1557</ele>
        <time>2020-10-24T14:24:22.182Z</time>
      </trkpt>
      <trkpt lat="46.48169" lon="8.24893">
        <ele>1555</ele>
        <time>2020-10-24T14:24:23.182Z</time>
      </trkpt>
      <trkpt lat="46.4817" lon="8.24896">
        <ele>1554</ele>
        <time>2020-10-24T14:24:24.182Z</time>
      </trkpt>
      <trkpt lat="46.48172" lon="8.24898">
        <ele>1553</ele>
        <time>2020-10-24T14:24:25.182Z</time>
      </trkpt>
      <trkpt lat="46.48172" lon="8.24899">
        <ele>1552</ele>
        <time>2020-10-24T14:24:26.182Z</time>
      </trkpt>
      <trkpt lat="46.48172" lon="8.249">
        <ele>1552</ele>
        <time>2020-10-24T14:24:27.182Z</time>
      </trkpt>
      <trkpt lat="46.48172" lon="8.24902">
        <ele>1551</ele>
        <time>2020-10-24T14:24:28.182Z</time>
      </trkpt>
      <trkpt lat="46.48171" lon="8.24904">
        <ele>1551</ele>
        <time>2020-10-24T14:24:29.182Z</time>
      </trkpt>
      <trkpt lat="46.4817" lon="8.24905">
        <ele>1551</ele>
        <time>2020-10-24T14:24:30.182Z</time>
      </trkpt>
      <trkpt lat="46.4817" lon="8.24907">
        <ele>1551</ele>
        <time>2020-10-24T14:24:31.183Z</time>
      </trkpt>
      <trkpt lat="46.48169" lon="8.24909">
        <ele>1551</ele>
        <time>2020-10-24T14:24:32.182Z</time>
      </trkpt>
      <trkpt lat="46.48168" lon="8.24911">
        <ele>1551</ele>
        <time>2020-10-24T14:24:33.182Z</time>
      </trkpt>
      <trkpt lat="46.48166" lon="8.24913">
        <ele>1550</ele>
        <time>2020-10-24T14:24:34.182Z</time>
      </trkpt>
      <trkpt lat="46.48164" lon="8.24916">
        <ele>1551</ele>
        <time>2020-10-24T14:24:35.182Z</time>
      </trkpt>
      <trkpt lat="46.48163" lon="8.24918">
        <ele>1551</ele>
        <time>2020-10-24T14:24:36.182Z</time>
      </trkpt>
      <trkpt lat="46.48162" lon="8.2492">
        <ele>1551</ele>
        <time>2020-10-24T14:24:37.182Z</time>
      </trkpt>
      <trkpt lat="46.48161" lon="8.24923">
        <ele>1551</ele>
        <time>2020-10-24T14:24:38.182Z</time>
      </trkpt>
      <trkpt lat="46.48161" lon="8.24925">
        <ele>1551</ele>
        <time>2020-10-24T14:24:39.182Z</time>
      </trkpt>
      <trkpt lat="46.48161" lon="8.24927">
        <ele>1551</ele>
        <time>2020-10-24T14:24:40.182Z</time>
      </trkpt>
      <trkpt lat="46.48162" lon="8.24929">
        <ele>1550</ele>
        <time>2020-10-24T14:24:41.182Z</time>
      </trkpt>
      <trkpt lat="46.48162" lon="8.24931">
        <ele>1550</ele>
        <time>2020-10-24T14:24:42.182Z</time>
      </trkpt>
      <trkpt lat="46.48163" lon="8.24933">
        <ele>1550</ele>
        <time>2020-10-24T14:24:43.182Z</time>
      </trkpt>
      <trkpt lat="46.48163" lon="8.24936">
        <ele>1549</ele>
        <time>2020-10-24T14:24:44.182Z</time>
      </trkpt>
      <trkpt lat="46.48163" lon="8.24938">
        <ele>1549</ele>
        <time>2020-10-24T14:24:45.182Z</time>
      </trkpt>
      <trkpt lat="46.48164" lon="8.2494">
        <ele>1548</ele>
        <time>2020-10-24T14:24:46.182Z</time>
      </trkpt>
      <trkpt lat="46.48164" lon="8.24942">
        <ele>1548</ele>
        <time>2020-10-24T14:24:47.182Z</time>
      </trkpt>
      <trkpt lat="46.48165" lon="8.24944">
        <ele>1547</ele>
        <time>2020-10-24T14:24:48.183Z</time>
      </trkpt>
      <trkpt lat="46.48166" lon="8.24946">
        <ele>1547</ele>
        <time>2020-10-24T14:24:49.182Z</time>
      </trkpt>
      <trkpt lat="46.48166" lon="8.24948">
        <ele>1546</ele>
        <time>2020-10-24T14:24:50.182Z</time>
      </trkpt>
      <trkpt lat="46.48167" lon="8.24949">
        <ele>1546</ele>
        <time>2020-10-24T14:24:51.182Z</time>
      </trkpt>
      <trkpt lat="46.48169" lon="8.2495">
        <ele>1545</ele>
        <time>2020-10-24T14:24:52.182Z</time>
      </trkpt>
      <trkpt lat="46.48172" lon="8.24952">
        <ele>1544</ele>
        <time>2020-10-24T14:24:53.182Z</time>
      </trkpt>
      <trkpt lat="46.48174" lon="8.24953">
        <ele>1544</ele>
        <time>2020-10-24T14:24:54.182Z</time>
      </trkpt>
      <trkpt lat="46.48176" lon="8.24954">
        <ele>1543</ele>
        <time>2020-10-24T14:24:55.182Z</time>
      </trkpt>
      <trkpt lat="46.48178" lon="8.24955">
        <ele>1543</ele>
        <time>2020-10-24T14:24:56.182Z</time>
      </trkpt>
      <trkpt lat="46.48179" lon="8.24957">
        <ele>1542</ele>
        <time>2020-10-24T14:24:57.182Z</time>
      </trkpt>
      <trkpt lat="46.48181" lon="8.24958">
        <ele>1542</ele>
        <time>2020-10-24T14:24:58.182Z</time>
      </trkpt>
      <trkpt lat="46.48181" lon="8.24959">
        <ele>1542</ele>
        <time>2020-10-24T14:24:59.182Z</time>
      </trkpt>
      <trkpt lat="46.48182" lon="8.24961">
        <ele>1541</ele>
        <time>2020-10-24T14:25:00.182Z</time>
      </trkpt>
      <trkpt lat="46.48182" lon="8.24962">
        <ele>1541</ele>
        <time>2020-10-24T14:25:01.182Z</time>
      </trkpt>
      <trkpt lat="46.48183" lon="8.24964">
        <ele>1541</ele>
        <time>2020-10-24T14:25:02.182Z</time>
      </trkpt>
      <trkpt lat="46.48184" lon="8.24966">
        <ele>1542</ele>
        <time>2020-10-24T14:25:03.182Z</time>
      </trkpt>
      <trkpt lat="46.48185" lon="8.24967">
        <ele>1542</ele>
        <time>2020-10-24T14:25:04.182Z</time>
      </trkpt>
      <trkpt lat="46.48186" lon="8.24969">
        <ele>1542</ele>
        <time>2020-10-24T14:25:05.182Z</time>
      </trkpt>
      <trkpt lat="46.48187" lon="8.24971">
        <ele>1542</ele>
        <time>2020-10-24T14:25:06.182Z</time>
      </trkpt>
      <trkpt lat="46.48188" lon="8.24972">
        <ele>1543</ele>
        <time>2020-10-24T14:25:07.182Z</time>
      </trkpt>
      <trkpt lat="46.4819" lon="8.24973">
        <ele>1543</ele>
        <time>2020-10-24T14:25:08.182Z</time>
      </trkpt>
      <trkpt lat="46.48192" lon="8.24974">
        <ele>1543</ele>
        <time>2020-10-24T14:25:09.182Z</time>
      </trkpt>
      <trkpt lat="46.48193" lon="8.24974">
        <ele>1544</ele>
        <time>2020-10-24T14:25:10.182Z</time>
      </trkpt>
      <trkpt lat="46.48195" lon="8.24974">
        <ele>1544</ele>
        <time>2020-10-24T14:25:11.182Z</time>
      </trkpt>
      <trkpt lat="46.48196" lon="8.24975">
        <ele>1544</ele>
        <time>2020-10-24T14:25:12.183Z</time>
      </trkpt>
      <trkpt lat="46.48198" lon="8.24975">
        <ele>1544</ele>
        <time>2020-10-24T14:25:13.182Z</time>
      </trkpt>
      <trkpt lat="46.48199" lon="8.24976">
        <ele>1544</ele>
        <time>2020-10-24T14:25:14.182Z</time>
      </trkpt>
      <trkpt lat="46.482" lon="8.24978">
        <ele>1544</ele>
        <time>2020-10-24T14:25:15.182Z</time>
      </trkpt>
      <trkpt lat="46.48202" lon="8.24979">
        <ele>1545</ele>
        <time>2020-10-24T14:25:16.182Z</time>
      </trkpt>
      <trkpt lat="46.48203" lon="8.2498">
        <ele>1545</ele>
        <time>2020-10-24T14:25:17.182Z</time>
      </trkpt>
      <trkpt lat="46.48204" lon="8.2498">
        <ele>1546</ele>
        <time>2020-10-24T14:25:18.183Z</time>
      </trkpt>
      <trkpt lat="46.48206" lon="8.24981">
        <ele>1546</ele>
        <time>2020-10-24T14:25:19.182Z</time>
      </trkpt>
      <trkpt lat="46.48208" lon="8.24981">
        <ele>1546</ele>
        <time>2020-10-24T14:25:20.182Z</time>
      </trkpt>
      <trkpt lat="46.48209" lon="8.24982">
        <ele>1545</ele>
        <time>2020-10-24T14:25:21.183Z</time>
      </trkpt>
      <trkpt lat="46.4821" lon="8.24983">
        <ele>1546</ele>
        <time>2020-10-24T14:25:22.182Z</time>
      </trkpt>
      <trkpt lat="46.48211" lon="8.24985">
        <ele>1546</ele>
        <time>2020-10-24T14:25:23.182Z</time>
      </trkpt>
      <trkpt lat="46.48212" lon="8.24987">
        <ele>1546</ele>
        <time>2020-10-24T14:25:24.182Z</time>
      </trkpt>
      <trkpt lat="46.48213" lon="8.24988">
        <ele>1547</ele>
        <time>2020-10-24T14:25:25.182Z</time>
      </trkpt>
      <trkpt lat="46.48213" lon="8.2499">
        <ele>1547</ele>
        <time>2020-10-24T14:25:26.182Z</time>
      </trkpt>
      <trkpt lat="46.48214" lon="8.2499">
        <ele>1547</ele>
        <time>2020-10-24T14:25:27.182Z</time>
      </trkpt>
      <trkpt lat="46.48215" lon="8.24991">
        <ele>1547</ele>
        <time>2020-10-24T14:25:28.182Z</time>
      </trkpt>
      <trkpt lat="46.48216" lon="8.24991">
        <ele>1547</ele>
        <time>2020-10-24T14:25:29.182Z</time>
      </trkpt>
      <trkpt lat="46.48216" lon="8.24991">
        <ele>1547</ele>
        <time>2020-10-24T14:25:30.182Z</time>
      </trkpt>
      <trkpt lat="46.48217" lon="8.24992">
        <ele>1546</ele>
        <time>2020-10-24T14:25:31.182Z</time>
      </trkpt>
      <trkpt lat="46.48219" lon="8.24993">
        <ele>1546</ele>
        <time>2020-10-24T14:25:32.182Z</time>
      </trkpt>
      <trkpt lat="46.4822" lon="8.24993">
        <ele>1546</ele>
        <time>2020-10-24T14:25:33.183Z</time>
      </trkpt>
      <trkpt lat="46.48221" lon="8.24994">
        <ele>1546</ele>
        <time>2020-10-24T14:25:34.182Z</time>
      </trkpt>
      <trkpt lat="46.48222" lon="8.24995">
        <ele>1546</ele>
        <time>2020-10-24T14:25:35.182Z</time>
      </trkpt>
      <trkpt lat="46.48223" lon="8.24996">
        <ele>1545</ele>
        <time>2020-10-24T14:25:36.182Z</time>
      </trkpt>
      <trkpt lat="46.48223" lon="8.24997">
        <ele>1545</ele>
        <time>2020-10-24T14:25:37.182Z</time>
      </trkpt>
      <trkpt lat="46.48224" lon="8.24998">
        <ele>1545</ele>
        <time>2020-10-24T14:25:38.182Z</time>
      </trkpt>
      <trkpt lat="46.48225" lon="8.25">
        <ele>1544</ele>
        <time>2020-10-24T14:25:39.182Z</time>
      </trkpt>
      <trkpt lat="46.48226" lon="8.25001">
        <ele>1543</ele>
        <time>2020-10-24T14:25:44.231Z</time>
      </trkpt>
      <trkpt lat="46.48226" lon="8.25002">
        <ele>1542</ele>
        <time>2020-10-24T14:25:45.231Z</time>
      </trkpt>
      <trkpt lat="46.48227" lon="8.25003">
        <ele>1542</ele>
        <time>2020-10-24T14:25:46.231Z</time>
      </trkpt>
      <trkpt lat="46.48228" lon="8.25005">
        <ele>1542</ele>
        <time>2020-10-24T14:25:47.232Z</time>
      </trkpt>
      <trkpt lat="46.48229" lon="8.25006">
        <ele>1542</ele>
        <time>2020-10-24T14:25:48.232Z</time>
      </trkpt>
      <trkpt lat="46.48229" lon="8.25007">
        <ele>1541</ele>
        <time>2020-10-24T14:25:49.231Z</time>
      </trkpt>
      <trkpt lat="46.4823" lon="8.25008">
        <ele>1542</ele>
        <time>2020-10-24T14:25:50.231Z</time>
      </trkpt>
      <trkpt lat="46.48231" lon="8.25009">
        <ele>1542</ele>
        <time>2020-10-24T14:25:51.231Z</time>
      </trkpt>
      <trkpt lat="46.48232" lon="8.25012">
        <ele>1542</ele>
        <time>2020-10-24T14:25:52.231Z</time>
      </trkpt>
      <trkpt lat="46.48232" lon="8.25013">
        <ele>1542</ele>
        <time>2020-10-24T14:25:53.231Z</time>
      </trkpt>
      <trkpt lat="46.48233" lon="8.25014">
        <ele>1542</ele>
        <time>2020-10-24T14:25:54.231Z</time>
      </trkpt>
      <trkpt lat="46.48233" lon="8.25015">
        <ele>1542</ele>
        <time>2020-10-24T14:25:55.231Z</time>
      </trkpt>
      <trkpt lat="46.48233" lon="8.25016">
        <ele>1542</ele>
        <time>2020-10-24T14:25:56.231Z</time>
      </trkpt>
      <trkpt lat="46.48234" lon="8.25018">
        <ele>1542</ele>
        <time>2020-10-24T14:25:57.231Z</time>
      </trkpt>
      <trkpt lat="46.48235" lon="8.25018">
        <ele>1542</ele>
        <time>2020-10-24T14:25:58.231Z</time>
      </trkpt>
      <trkpt lat="46.48236" lon="8.25019">
        <ele>1542</ele>
        <time>2020-10-24T14:25:59.231Z</time>
      </trkpt>
      <trkpt lat="46.48237" lon="8.2502">
        <ele>1541</ele>
        <time>2020-10-24T14:26:00.231Z</time>
      </trkpt>
      <trkpt lat="46.48237" lon="8.25021">
        <ele>1541</ele>
        <time>2020-10-24T14:26:01.231Z</time>
      </trkpt>
      <trkpt lat="46.48237" lon="8.25023">
        <ele>1541</ele>
        <time>2020-10-24T14:26:02.231Z</time>
      </trkpt>
      <trkpt lat="46.48238" lon="8.25025">
        <ele>1541</ele>
        <time>2020-10-24T14:26:03.231Z</time>
      </trkpt>
      <trkpt lat="46.48238" lon="8.25026">
        <ele>1541</ele>
        <time>2020-10-24T14:26:04.232Z</time>
      </trkpt>
      <trkpt lat="46.48239" lon="8.25027">
        <ele>1541</ele>
        <time>2020-10-24T14:26:05.232Z</time>
      </trkpt>
      <trkpt lat="46.4824" lon="8.25027">
        <ele>1541</ele>
        <time>2020-10-24T14:26:06.232Z</time>
      </trkpt>
      <trkpt lat="46.48241" lon="8.25027">
        <ele>1541</ele>
        <time>2020-10-24T14:26:07.231Z</time>
      </trkpt>
      <trkpt lat="46.48241" lon="8.25027">
        <ele>1540</ele>
        <time>2020-10-24T14:26:08.231Z</time>
      </trkpt>
      <trkpt lat="46.48242" lon="8.25028">
        <ele>1540</ele>
        <time>2020-10-24T14:26:09.232Z</time>
      </trkpt>
      <trkpt lat="46.48242" lon="8.25028">
        <ele>1541</ele>
        <time>2020-10-24T14:26:10.231Z</time>
      </trkpt>
      <trkpt lat="46.48242" lon="8.25028">
        <ele>1541</ele>
        <time>2020-10-24T14:26:11.232Z</time>
      </trkpt>
      <trkpt lat="46.48243" lon="8.25028">
        <ele>1540</ele>
        <time>2020-10-24T14:26:12.231Z</time>
      </trkpt>
      <trkpt lat="46.48243" lon="8.2503">
        <ele>1539</ele>
        <time>2020-10-24T14:26:13.232Z</time>
      </trkpt>
      <trkpt lat="46.48244" lon="8.25031">
        <ele>1539</ele>
        <time>2020-10-24T14:26:14.231Z</time>
      </trkpt>
      <trkpt lat="46.48245" lon="8.25032">
        <ele>1539</ele>
        <time>2020-10-24T14:26:15.231Z</time>
      </trkpt>
      <trkpt lat="46.48246" lon="8.25033">
        <ele>1539</ele>
        <time>2020-10-24T14:26:16.231Z</time>
      </trkpt>
      <trkpt lat="46.48247" lon="8.25034">
        <ele>1538</ele>
        <time>2020-10-24T14:26:17.231Z</time>
      </trkpt>
      <trkpt lat="46.48248" lon="8.25035">
        <ele>1538</ele>
        <time>2020-10-24T14:26:18.231Z</time>
      </trkpt>
      <trkpt lat="46.48248" lon="8.25036">
        <ele>1538</ele>
        <time>2020-10-24T14:26:19.231Z</time>
      </trkpt>
      <trkpt lat="46.48248" lon="8.25037">
        <ele>1538</ele>
        <time>2020-10-24T14:26:20.231Z</time>
      </trkpt>
      <trkpt lat="46.48248" lon="8.2504">
        <ele>1538</ele>
        <time>2020-10-24T14:26:21.231Z</time>
      </trkpt>
      <trkpt lat="46.48249" lon="8.25042">
        <ele>1538</ele>
        <time>2020-10-24T14:26:22.231Z</time>
      </trkpt>
      <trkpt lat="46.48249" lon="8.25044">
        <ele>1538</ele>
        <time>2020-10-24T14:26:23.231Z</time>
      </trkpt>
      <trkpt lat="46.48249" lon="8.25046">
        <ele>1538</ele>
        <time>2020-10-24T14:26:24.231Z</time>
      </trkpt>
      <trkpt lat="46.48249" lon="8.25048">
        <ele>1539</ele>
        <time>2020-10-24T14:26:25.231Z</time>
      </trkpt>
      <trkpt lat="46.4825" lon="8.25049">
        <ele>1539</ele>
        <time>2020-10-24T14:26:26.231Z</time>
      </trkpt>
      <trkpt lat="46.4825" lon="8.25051">
        <ele>1539</ele>
        <time>2020-10-24T14:26:27.231Z</time>
      </trkpt>
      <trkpt lat="46.4825" lon="8.25053">
        <ele>1540</ele>
        <time>2020-10-24T14:26:28.231Z</time>
      </trkpt>
      <trkpt lat="46.4825" lon="8.25055">
        <ele>1540</ele>
        <time>2020-10-24T14:26:29.232Z</time>
      </trkpt>
      <trkpt lat="46.48251" lon="8.25057">
        <ele>1541</ele>
        <time>2020-10-24T14:26:30.231Z</time>
      </trkpt>
      <trkpt lat="46.48251" lon="8.25058">
        <ele>1542</ele>
        <time>2020-10-24T14:26:31.232Z</time>
      </trkpt>
      <trkpt lat="46.48251" lon="8.2506">
        <ele>1542</ele>
        <time>2020-10-24T14:26:32.231Z</time>
      </trkpt>
      <trkpt lat="46.48251" lon="8.25062">
        <ele>1543</ele>
        <time>2020-10-24T14:26:33.231Z</time>
      </trkpt>
      <trkpt lat="46.48251" lon="8.25063">
        <ele>1543</ele>
        <time>2020-10-24T14:26:34.232Z</time>
      </trkpt>
      <trkpt lat="46.48252" lon="8.25064">
        <ele>1544</ele>
        <time>2020-10-24T14:26:35.231Z</time>
      </trkpt>
      <trkpt lat="46.48252" lon="8.25066">
        <ele>1544</ele>
        <time>2020-10-24T14:26:36.231Z</time>
      </trkpt>
      <trkpt lat="46.48252" lon="8.25067">
        <ele>1544</ele>
        <time>2020-10-24T14:26:37.231Z</time>
      </trkpt>
      <trkpt lat="46.48252" lon="8.25068">
        <ele>1545</ele>
        <time>2020-10-24T14:26:38.231Z</time>
      </trkpt>
      <trkpt lat="46.48253" lon="8.25069">
        <ele>1545</ele>
        <time>2020-10-24T14:26:39.231Z</time>
      </trkpt>
      <trkpt lat="46.48253" lon="8.25071">
        <ele>1545</ele>
        <time>2020-10-24T14:26:40.231Z</time>
      </trkpt>
      <trkpt lat="46.48254" lon="8.25073">
        <ele>1545</ele>
        <time>2020-10-24T14:26:41.231Z</time>
      </trkpt>
      <trkpt lat="46.48254" lon="8.25076">
        <ele>1545</ele>
        <time>2020-10-24T14:26:42.231Z</time>
      </trkpt>
      <trkpt lat="46.48254" lon="8.25077">
        <ele>1544</ele>
        <time>2020-10-24T14:26:43.231Z</time>
      </trkpt>
      <trkpt lat="46.48255" lon="8.25078">
        <ele>1544</ele>
        <time>2020-10-24T14:26:44.231Z</time>
      </trkpt>
      <trkpt lat="46.48255" lon="8.25078">
        <ele>1544</ele>
        <time>2020-10-24T14:26:45.232Z</time>
      </trkpt>
      <trkpt lat="46.48255" lon="8.25078">
        <ele>1544</ele>
        <time>2020-10-24T14:26:46.231Z</time>
      </trkpt>
      <trkpt lat="46.48255" lon="8.25077">
        <ele>1543</ele>
        <time>2020-10-24T14:26:47.234Z</time>
      </trkpt>
      <trkpt lat="46.48254" lon="8.25076">
        <ele>1542</ele>
        <time>2020-10-24T14:26:48.234Z</time>
      </trkpt>
      <trkpt lat="46.48255" lon="8.25073">
        <ele>1542</ele>
        <time>2020-10-24T14:26:49.234Z</time>
      </trkpt>
      <trkpt lat="46.48254" lon="8.25071">
        <ele>1541</ele>
        <time>2020-10-24T14:26:50.233Z</time>
      </trkpt>
      <trkpt lat="46.48254" lon="8.25068">
        <ele>1541</ele>
        <time>2020-10-24T14:26:51.233Z</time>
      </trkpt>
      <trkpt lat="46.48253" lon="8.25066">
        <ele>1540</ele>
        <time>2020-10-24T14:26:52.234Z</time>
      </trkpt>
      <trkpt lat="46.48252" lon="8.25064">
        <ele>1539</ele>
        <time>2020-10-24T14:26:53.234Z</time>
      </trkpt>
      <trkpt lat="46.48252" lon="8.25063">
        <ele>1539</ele>
        <time>2020-10-24T14:26:54.234Z</time>
      </trkpt>
      <trkpt lat="46.48252" lon="8.25062">
        <ele>1538</ele>
        <time>2020-10-24T14:26:55.233Z</time>
      </trkpt>
      <trkpt lat="46.48252" lon="8.25063">
        <ele>1537</ele>
        <time>2020-10-24T14:26:56.234Z</time>
      </trkpt>
      <trkpt lat="46.48252" lon="8.25063">
        <ele>1536</ele>
        <time>2020-10-24T14:26:57.233Z</time>
      </trkpt>
      <trkpt lat="46.4825" lon="8.25063">
        <ele>1527</ele>
        <time>2020-10-24T14:26:58.235Z</time>
      </trkpt>
      <trkpt lat="46.4825" lon="8.25063">
        <ele>1527</ele>
        <time>2020-10-24T14:26:59.234Z</time>
      </trkpt>
      <trkpt lat="46.48249" lon="8.25061">
        <ele>1526</ele>
        <time>2020-10-24T14:27:00.234Z</time>
      </trkpt>
      <trkpt lat="46.48249" lon="8.2506">
        <ele>1526</ele>
        <time>2020-10-24T14:27:01.234Z</time>
      </trkpt>
      <trkpt lat="46.48248" lon="8.25059">
        <ele>1526</ele>
        <time>2020-10-24T14:27:02.235Z</time>
      </trkpt>
      <trkpt lat="46.48247" lon="8.25057">
        <ele>1526</ele>
        <time>2020-10-24T14:27:03.234Z</time>
      </trkpt>
      <trkpt lat="46.48245" lon="8.25055">
        <ele>1526</ele>
        <time>2020-10-24T14:27:04.234Z</time>
      </trkpt>
      <trkpt lat="46.48244" lon="8.25054">
        <ele>1526</ele>
        <time>2020-10-24T14:27:05.235Z</time>
      </trkpt>
      <trkpt lat="46.48242" lon="8.25052">
        <ele>1526</ele>
        <time>2020-10-24T14:27:06.235Z</time>
      </trkpt>
      <trkpt lat="46.4824" lon="8.2505">
        <ele>1526</ele>
        <time>2020-10-24T14:27:07.235Z</time>
      </trkpt>
      <trkpt lat="46.48238" lon="8.25049">
        <ele>1527</ele>
        <time>2020-10-24T14:27:08.235Z</time>
      </trkpt>
      <trkpt lat="46.48236" lon="8.25048">
        <ele>1527</ele>
        <time>2020-10-24T14:27:09.235Z</time>
      </trkpt>
      <trkpt lat="46.48235" lon="8.25048">
        <ele>1527</ele>
        <time>2020-10-24T14:27:10.234Z</time>
      </trkpt>
      <trkpt lat="46.48233" lon="8.25048">
        <ele>1527</ele>
        <time>2020-10-24T14:27:11.235Z</time>
      </trkpt>
      <trkpt lat="46.48231" lon="8.25047">
        <ele>1527</ele>
        <time>2020-10-24T14:27:12.235Z</time>
      </trkpt>
      <trkpt lat="46.48228" lon="8.25046">
        <ele>1526</ele>
        <time>2020-10-24T14:27:13.234Z</time>
      </trkpt>
      <trkpt lat="46.48226" lon="8.25046">
        <ele>1526</ele>
        <time>2020-10-24T14:27:14.235Z</time>
      </trkpt>
      <trkpt lat="46.48224" lon="8.25046">
        <ele>1526</ele>
        <time>2020-10-24T14:27:15.235Z</time>
      </trkpt>
      <trkpt lat="46.48223" lon="8.25046">
        <ele>1526</ele>
        <time>2020-10-24T14:27:16.234Z</time>
      </trkpt>
      <trkpt lat="46.48222" lon="8.25046">
        <ele>1526</ele>
        <time>2020-10-24T14:27:17.234Z</time>
      </trkpt>
      <trkpt lat="46.48221" lon="8.25046">
        <ele>1526</ele>
        <time>2020-10-24T14:27:18.235Z</time>
      </trkpt>
      <trkpt lat="46.4822" lon="8.25047">
        <ele>1526</ele>
        <time>2020-10-24T14:27:19.235Z</time>
      </trkpt>
      <trkpt lat="46.48219" lon="8.25047">
        <ele>1527</ele>
        <time>2020-10-24T14:27:20.234Z</time>
      </trkpt>
      <trkpt lat="46.48218" lon="8.25049">
        <ele>1527</ele>
        <time>2020-10-24T14:27:21.235Z</time>
      </trkpt>
      <trkpt lat="46.48217" lon="8.25049">
        <ele>1527</ele>
        <time>2020-10-24T14:27:22.235Z</time>
      </trkpt>
      <trkpt lat="46.48216" lon="8.25049">
        <ele>1527</ele>
        <time>2020-10-24T14:27:23.235Z</time>
      </trkpt>
      <trkpt lat="46.48214" lon="8.25049">
        <ele>1526</ele>
        <time>2020-10-24T14:27:24.235Z</time>
      </trkpt>
      <trkpt lat="46.48213" lon="8.25049">
        <ele>1526</ele>
        <time>2020-10-24T14:27:25.234Z</time>
      </trkpt>
      <trkpt lat="46.48212" lon="8.25049">
        <ele>1525</ele>
        <time>2020-10-24T14:27:26.234Z</time>
      </trkpt>
      <trkpt lat="46.48211" lon="8.25048">
        <ele>1524</ele>
        <time>2020-10-24T14:27:27.234Z</time>
      </trkpt>
      <trkpt lat="46.4821" lon="8.25048">
        <ele>1522</ele>
        <time>2020-10-24T14:27:28.235Z</time>
      </trkpt>
      <trkpt lat="46.4821" lon="8.25047">
        <ele>1521</ele>
        <time>2020-10-24T14:27:29.235Z</time>
      </trkpt>
      <trkpt lat="46.48209" lon="8.25047">
        <ele>1520</ele>
        <time>2020-10-24T14:27:30.235Z</time>
      </trkpt>
      <trkpt lat="46.48208" lon="8.25046">
        <ele>1520</ele>
        <time>2020-10-24T14:27:31.235Z</time>
      </trkpt>
      <trkpt lat="46.48208" lon="8.25045">
        <ele>1519</ele>
        <time>2020-10-24T14:27:32.235Z</time>
      </trkpt>
      <trkpt lat="46.48207" lon="8.25044">
        <ele>1518</ele>
        <time>2020-10-24T14:27:33.235Z</time>
      </trkpt>
      <trkpt lat="46.48206" lon="8.25043">
        <ele>1518</ele>
        <time>2020-10-24T14:27:34.235Z</time>
      </trkpt>
      <trkpt lat="46.48204" lon="8.25042">
        <ele>1518</ele>
        <time>2020-10-24T14:27:35.234Z</time>
      </trkpt>
      <trkpt lat="46.48204" lon="8.25041">
        <ele>1517</ele>
        <time>2020-10-24T14:27:36.234Z</time>
      </trkpt>
      <trkpt lat="46.48203" lon="8.2504">
        <ele>1517</ele>
        <time>2020-10-24T14:27:37.235Z</time>
      </trkpt>
      <trkpt lat="46.48203" lon="8.25039">
        <ele>1517</ele>
        <time>2020-10-24T14:27:38.235Z</time>
      </trkpt>
      <trkpt lat="46.48203" lon="8.25038">
        <ele>1516</ele>
        <time>2020-10-24T14:27:39.235Z</time>
      </trkpt>
      <trkpt lat="46.48202" lon="8.25038">
        <ele>1516</ele>
        <time>2020-10-24T14:27:40.234Z</time>
      </trkpt>
      <trkpt lat="46.48202" lon="8.25037">
        <ele>1516</ele>
        <time>2020-10-24T14:27:41.234Z</time>
      </trkpt>
      <trkpt lat="46.48202" lon="8.25036">
        <ele>1516</ele>
        <time>2020-10-24T14:27:42.235Z</time>
      </trkpt>
      <trkpt lat="46.48203" lon="8.25036">
        <ele>1516</ele>
        <time>2020-10-24T14:27:43.235Z</time>
      </trkpt>
      <trkpt lat="46.48203" lon="8.25036">
        <ele>1516</ele>
        <time>2020-10-24T14:27:44.235Z</time>
      </trkpt>
      <trkpt lat="46.48203" lon="8.25035">
        <ele>1517</ele>
        <time>2020-10-24T14:27:45.234Z</time>
      </trkpt>
      <trkpt lat="46.48203" lon="8.25034">
        <ele>1517</ele>
        <time>2020-10-24T14:27:46.234Z</time>
      </trkpt>
      <trkpt lat="46.48203" lon="8.25032">
        <ele>1517</ele>
        <time>2020-10-24T14:27:47.235Z</time>
      </trkpt>
      <trkpt lat="46.48202" lon="8.25031">
        <ele>1518</ele>
        <time>2020-10-24T14:27:48.235Z</time>
      </trkpt>
      <trkpt lat="46.48201" lon="8.2503">
        <ele>1518</ele>
        <time>2020-10-24T14:27:49.235Z</time>
      </trkpt>
      <trkpt lat="46.482" lon="8.25029">
        <ele>1518</ele>
        <time>2020-10-24T14:27:50.234Z</time>
      </trkpt>
      <trkpt lat="46.48199" lon="8.25028">
        <ele>1518</ele>
        <time>2020-10-24T14:27:51.234Z</time>
      </trkpt>
      <trkpt lat="46.48197" lon="8.25028">
        <ele>1517</ele>
        <time>2020-10-24T14:27:52.234Z</time>
      </trkpt>
      <trkpt lat="46.48196" lon="8.25027">
        <ele>1517</ele>
        <time>2020-10-24T14:27:53.234Z</time>
      </trkpt>
      <trkpt lat="46.48195" lon="8.25028">
        <ele>1517</ele>
        <time>2020-10-24T14:27:54.234Z</time>
      </trkpt>
      <trkpt lat="46.48194" lon="8.25029">
        <ele>1517</ele>
        <time>2020-10-24T14:27:55.234Z</time>
      </trkpt>
      <trkpt lat="46.48192" lon="8.25029">
        <ele>1517</ele>
        <time>2020-10-24T14:27:56.234Z</time>
      </trkpt>
      <trkpt lat="46.4819" lon="8.2503">
        <ele>1516</ele>
        <time>2020-10-24T14:27:57.235Z</time>
      </trkpt>
      <trkpt lat="46.48189" lon="8.25031">
        <ele>1516</ele>
        <time>2020-10-24T14:27:58.235Z</time>
      </trkpt>
      <trkpt lat="46.48188" lon="8.25033">
        <ele>1516</ele>
        <time>2020-10-24T14:27:59.235Z</time>
      </trkpt>
      <trkpt lat="46.48188" lon="8.25035">
        <ele>1516</ele>
        <time>2020-10-24T14:28:00.234Z</time>
      </trkpt>
      <trkpt lat="46.48187" lon="8.25037">
        <ele>1515</ele>
        <time>2020-10-24T14:28:01.234Z</time>
      </trkpt>
      <trkpt lat="46.48187" lon="8.25039">
        <ele>1515</ele>
        <time>2020-10-24T14:28:02.235Z</time>
      </trkpt>
      <trkpt lat="46.48187" lon="8.25041">
        <ele>1514</ele>
        <time>2020-10-24T14:28:03.234Z</time>
      </trkpt>
      <trkpt lat="46.48187" lon="8.25044">
        <ele>1514</ele>
        <time>2020-10-24T14:28:04.235Z</time>
      </trkpt>
      <trkpt lat="46.48187" lon="8.25046">
        <ele>1514</ele>
        <time>2020-10-24T14:28:05.234Z</time>
      </trkpt>
      <trkpt lat="46.48187" lon="8.25048">
        <ele>1514</ele>
        <time>2020-10-24T14:28:06.234Z</time>
      </trkpt>
      <trkpt lat="46.48188" lon="8.25049">
        <ele>1514</ele>
        <time>2020-10-24T14:28:07.235Z</time>
      </trkpt>
      <trkpt lat="46.48189" lon="8.25051">
        <ele>1514</ele>
        <time>2020-10-24T14:28:08.235Z</time>
      </trkpt>
      <trkpt lat="46.48189" lon="8.25052">
        <ele>1514</ele>
        <time>2020-10-24T14:28:09.234Z</time>
      </trkpt>
      <trkpt lat="46.4819" lon="8.25053">
        <ele>1514</ele>
        <time>2020-10-24T14:28:10.234Z</time>
      </trkpt>
      <trkpt lat="46.48191" lon="8.25053">
        <ele>1514</ele>
        <time>2020-10-24T14:28:11.234Z</time>
      </trkpt>
      <trkpt lat="46.48192" lon="8.25054">
        <ele>1514</ele>
        <time>2020-10-24T14:28:12.235Z</time>
      </trkpt>
      <trkpt lat="46.48193" lon="8.25054">
        <ele>1514</ele>
        <time>2020-10-24T14:28:13.235Z</time>
      </trkpt>
      <trkpt lat="46.48193" lon="8.25055">
        <ele>1514</ele>
        <time>2020-10-24T14:28:14.235Z</time>
      </trkpt>
      <trkpt lat="46.48193" lon="8.25055">
        <ele>1513</ele>
        <time>2020-10-24T14:28:15.235Z</time>
      </trkpt>
      <trkpt lat="46.48194" lon="8.25056">
        <ele>1511</ele>
        <time>2020-10-24T14:28:16.234Z</time>
      </trkpt>
      <trkpt lat="46.48194" lon="8.25056">
        <ele>1511</ele>
        <time>2020-10-24T14:28:17.235Z</time>
      </trkpt>
      <trkpt lat="46.48195" lon="8.25057">
        <ele>1511</ele>
        <time>2020-10-24T14:28:18.234Z</time>
      </trkpt>
      <trkpt lat="46.48195" lon="8.25057">
        <ele>1511</ele>
        <time>2020-10-24T14:28:19.234Z</time>
      </trkpt>
      <trkpt lat="46.48196" lon="8.25058">
        <ele>1510</ele>
        <time>2020-10-24T14:28:20.235Z</time>
      </trkpt>
      <trkpt lat="46.48197" lon="8.25059">
        <ele>1510</ele>
        <time>2020-10-24T14:28:21.235Z</time>
      </trkpt>
      <trkpt lat="46.48198" lon="8.2506">
        <ele>1510</ele>
        <time>2020-10-24T14:28:22.235Z</time>
      </trkpt>
      <trkpt lat="46.48199" lon="8.25061">
        <ele>1511</ele>
        <time>2020-10-24T14:28:23.234Z</time>
      </trkpt>
      <trkpt lat="46.482" lon="8.25062">
        <ele>1511</ele>
        <time>2020-10-24T14:28:24.234Z</time>
      </trkpt>
      <trkpt lat="46.48201" lon="8.25063">
        <ele>1512</ele>
        <time>2020-10-24T14:28:25.234Z</time>
      </trkpt>
      <trkpt lat="46.48202" lon="8.25064">
        <ele>1513</ele>
        <time>2020-10-24T14:28:26.235Z</time>
      </trkpt>
      <trkpt lat="46.48203" lon="8.25065">
        <ele>1514</ele>
        <time>2020-10-24T14:28:27.234Z</time>
      </trkpt>
      <trkpt lat="46.48204" lon="8.25066">
        <ele>1515</ele>
        <time>2020-10-24T14:28:28.235Z</time>
      </trkpt>
      <trkpt lat="46.48205" lon="8.25067">
        <ele>1515</ele>
        <time>2020-10-24T14:28:29.234Z</time>
      </trkpt>
      <trkpt lat="46.48206" lon="8.25068">
        <ele>1516</ele>
        <time>2020-10-24T14:28:30.235Z</time>
      </trkpt>
      <trkpt lat="46.48207" lon="8.25069">
        <ele>1516</ele>
        <time>2020-10-24T14:28:31.235Z</time>
      </trkpt>
      <trkpt lat="46.48208" lon="8.25069">
        <ele>1517</ele>
        <time>2020-10-24T14:28:32.235Z</time>
      </trkpt>
      <trkpt lat="46.48209" lon="8.2507">
        <ele>1518</ele>
        <time>2020-10-24T14:28:33.235Z</time>
      </trkpt>
      <trkpt lat="46.4821" lon="8.25071">
        <ele>1519</ele>
        <time>2020-10-24T14:28:34.235Z</time>
      </trkpt>
      <trkpt lat="46.48211" lon="8.25072">
        <ele>1519</ele>
        <time>2020-10-24T14:28:35.234Z</time>
      </trkpt>
      <trkpt lat="46.48212" lon="8.25072">
        <ele>1520</ele>
        <time>2020-10-24T14:28:36.235Z</time>
      </trkpt>
      <trkpt lat="46.48212" lon="8.25072">
        <ele>1520</ele>
        <time>2020-10-24T14:28:37.235Z</time>
      </trkpt>
      <trkpt lat="46.48213" lon="8.25071">
        <ele>1520</ele>
        <time>2020-10-24T14:28:38.234Z</time>
      </trkpt>
      <trkpt lat="46.48213" lon="8.25072">
        <ele>1514</ele>
        <time>2020-10-24T14:28:39.235Z</time>
      </trkpt>
      <trkpt lat="46.48214" lon="8.25073">
        <ele>1514</ele>
        <time>2020-10-24T14:28:40.236Z</time>
      </trkpt>
      <trkpt lat="46.48214" lon="8.25074">
        <ele>1513</ele>
        <time>2020-10-24T14:28:41.236Z</time>
      </trkpt>
      <trkpt lat="46.48215" lon="8.25076">
        <ele>1513</ele>
        <time>2020-10-24T14:28:42.235Z</time>
      </trkpt>
      <trkpt lat="46.48215" lon="8.25078">
        <ele>1513</ele>
        <time>2020-10-24T14:28:43.236Z</time>
      </trkpt>
      <trkpt lat="46.48216" lon="8.2508">
        <ele>1514</ele>
        <time>2020-10-24T14:28:44.236Z</time>
      </trkpt>
      <trkpt lat="46.48216" lon="8.25082">
        <ele>1514</ele>
        <time>2020-10-24T14:28:45.236Z</time>
      </trkpt>
      <trkpt lat="46.48216" lon="8.25084">
        <ele>1514</ele>
        <time>2020-10-24T14:28:46.235Z</time>
      </trkpt>
      <trkpt lat="46.48217" lon="8.25085">
        <ele>1514</ele>
        <time>2020-10-24T14:28:47.236Z</time>
      </trkpt>
      <trkpt lat="46.48217" lon="8.25086">
        <ele>1514</ele>
        <time>2020-10-24T14:28:48.236Z</time>
      </trkpt>
      <trkpt lat="46.48218" lon="8.25088">
        <ele>1514</ele>
        <time>2020-10-24T14:28:49.236Z</time>
      </trkpt>
      <trkpt lat="46.48219" lon="8.25089">
        <ele>1514</ele>
        <time>2020-10-24T14:28:50.235Z</time>
      </trkpt>
      <trkpt lat="46.48219" lon="8.25091">
        <ele>1514</ele>
        <time>2020-10-24T14:28:51.236Z</time>
      </trkpt>
      <trkpt lat="46.48219" lon="8.25093">
        <ele>1514</ele>
        <time>2020-10-24T14:28:52.236Z</time>
      </trkpt>
      <trkpt lat="46.48219" lon="8.25095">
        <ele>1515</ele>
        <time>2020-10-24T14:28:53.236Z</time>
      </trkpt>
      <trkpt lat="46.4822" lon="8.25096">
        <ele>1515</ele>
        <time>2020-10-24T14:28:54.236Z</time>
      </trkpt>
      <trkpt lat="46.4822" lon="8.25097">
        <ele>1515</ele>
        <time>2020-10-24T14:28:55.236Z</time>
      </trkpt>
      <trkpt lat="46.48222" lon="8.25098">
        <ele>1515</ele>
        <time>2020-10-24T14:28:56.235Z</time>
      </trkpt>
      <trkpt lat="46.48223" lon="8.25099">
        <ele>1515</ele>
        <time>2020-10-24T14:28:57.236Z</time>
      </trkpt>
      <trkpt lat="46.48224" lon="8.251">
        <ele>1515</ele>
        <time>2020-10-24T14:28:58.236Z</time>
      </trkpt>
      <trkpt lat="46.48225" lon="8.25101">
        <ele>1515</ele>
        <time>2020-10-24T14:28:59.235Z</time>
      </trkpt>
      <trkpt lat="46.48225" lon="8.25101">
        <ele>1515</ele>
        <time>2020-10-24T14:29:00.236Z</time>
      </trkpt>
      <trkpt lat="46.48226" lon="8.25103">
        <ele>1516</ele>
        <time>2020-10-24T14:29:01.236Z</time>
      </trkpt>
      <trkpt lat="46.48227" lon="8.25104">
        <ele>1516</ele>
        <time>2020-10-24T14:29:02.235Z</time>
      </trkpt>
      <trkpt lat="46.48228" lon="8.25106">
        <ele>1516</ele>
        <time>2020-10-24T14:29:03.235Z</time>
      </trkpt>
      <trkpt lat="46.48228" lon="8.25107">
        <ele>1515</ele>
        <time>2020-10-24T14:29:04.235Z</time>
      </trkpt>
      <trkpt lat="46.48229" lon="8.25108">
        <ele>1515</ele>
        <time>2020-10-24T14:29:05.235Z</time>
      </trkpt>
      <trkpt lat="46.4823" lon="8.2511">
        <ele>1515</ele>
        <time>2020-10-24T14:29:06.236Z</time>
      </trkpt>
      <trkpt lat="46.48231" lon="8.25111">
        <ele>1514</ele>
        <time>2020-10-24T14:29:07.235Z</time>
      </trkpt>
      <trkpt lat="46.48231" lon="8.25112">
        <ele>1513</ele>
        <time>2020-10-24T14:29:08.236Z</time>
      </trkpt>
      <trkpt lat="46.48232" lon="8.25113">
        <ele>1513</ele>
        <time>2020-10-24T14:29:09.235Z</time>
      </trkpt>
      <trkpt lat="46.48233" lon="8.25114">
        <ele>1512</ele>
        <time>2020-10-24T14:29:10.236Z</time>
      </trkpt>
      <trkpt lat="46.48234" lon="8.25115">
        <ele>1511</ele>
        <time>2020-10-24T14:29:11.236Z</time>
      </trkpt>
      <trkpt lat="46.48235" lon="8.25116">
        <ele>1510</ele>
        <time>2020-10-24T14:29:12.236Z</time>
      </trkpt>
      <trkpt lat="46.48236" lon="8.25117">
        <ele>1510</ele>
        <time>2020-10-24T14:29:13.236Z</time>
      </trkpt>
      <trkpt lat="46.48237" lon="8.25118">
        <ele>1509</ele>
        <time>2020-10-24T14:29:14.236Z</time>
      </trkpt>
      <trkpt lat="46.48238" lon="8.25119">
        <ele>1509</ele>
        <time>2020-10-24T14:29:15.236Z</time>
      </trkpt>
      <trkpt lat="46.48238" lon="8.2512">
        <ele>1509</ele>
        <time>2020-10-24T14:29:16.236Z</time>
      </trkpt>
      <trkpt lat="46.48239" lon="8.25122">
        <ele>1508</ele>
        <time>2020-10-24T14:29:17.236Z</time>
      </trkpt>
      <trkpt lat="46.4824" lon="8.25123">
        <ele>1508</ele>
        <time>2020-10-24T14:29:18.236Z</time>
      </trkpt>
      <trkpt lat="46.48241" lon="8.25124">
        <ele>1507</ele>
        <time>2020-10-24T14:29:19.236Z</time>
      </trkpt>
      <trkpt lat="46.48242" lon="8.25124">
        <ele>1507</ele>
        <time>2020-10-24T14:29:20.236Z</time>
      </trkpt>
      <trkpt lat="46.48243" lon="8.25125">
        <ele>1507</ele>
        <time>2020-10-24T14:29:21.236Z</time>
      </trkpt>
      <trkpt lat="46.48244" lon="8.25126">
        <ele>1506</ele>
        <time>2020-10-24T14:29:22.236Z</time>
      </trkpt>
      <trkpt lat="46.48244" lon="8.25127">
        <ele>1505</ele>
        <time>2020-10-24T14:29:23.236Z</time>
      </trkpt>
      <trkpt lat="46.48245" lon="8.25128">
        <ele>1505</ele>
        <time>2020-10-24T14:29:24.236Z</time>
      </trkpt>
      <trkpt lat="46.48246" lon="8.2513">
        <ele>1504</ele>
        <time>2020-10-24T14:29:25.235Z</time>
      </trkpt>
      <trkpt lat="46.48246" lon="8.25131">
        <ele>1504</ele>
        <time>2020-10-24T14:29:26.236Z</time>
      </trkpt>
      <trkpt lat="46.48247" lon="8.25133">
        <ele>1504</ele>
        <time>2020-10-24T14:29:27.236Z</time>
      </trkpt>
      <trkpt lat="46.48247" lon="8.25135">
        <ele>1504</ele>
        <time>2020-10-24T14:29:28.235Z</time>
      </trkpt>
      <trkpt lat="46.48248" lon="8.25137">
        <ele>1505</ele>
        <time>2020-10-24T14:29:29.235Z</time>
      </trkpt>
      <trkpt lat="46.48248" lon="8.25139">
        <ele>1505</ele>
        <time>2020-10-24T14:29:30.236Z</time>
      </trkpt>
      <trkpt lat="46.48248" lon="8.25141">
        <ele>1506</ele>
        <time>2020-10-24T14:29:31.235Z</time>
      </trkpt>
      <trkpt lat="46.48249" lon="8.25142">
        <ele>1506</ele>
        <time>2020-10-24T14:29:32.235Z</time>
      </trkpt>
      <trkpt lat="46.4825" lon="8.25143">
        <ele>1507</ele>
        <time>2020-10-24T14:29:33.235Z</time>
      </trkpt>
      <trkpt lat="46.48251" lon="8.25144">
        <ele>1508</ele>
        <time>2020-10-24T14:29:34.235Z</time>
      </trkpt>
      <trkpt lat="46.48252" lon="8.25144">
        <ele>1508</ele>
        <time>2020-10-24T14:29:35.235Z</time>
      </trkpt>
      <trkpt lat="46.48253" lon="8.25144">
        <ele>1508</ele>
        <time>2020-10-24T14:29:36.236Z</time>
      </trkpt>
      <trkpt lat="46.48255" lon="8.25144">
        <ele>1508</ele>
        <time>2020-10-24T14:29:37.236Z</time>
      </trkpt>
      <trkpt lat="46.48256" lon="8.25145">
        <ele>1508</ele>
        <time>2020-10-24T14:29:38.236Z</time>
      </trkpt>
      <trkpt lat="46.48257" lon="8.25146">
        <ele>1508</ele>
        <time>2020-10-24T14:29:39.236Z</time>
      </trkpt>
      <trkpt lat="46.48258" lon="8.25147">
        <ele>1507</ele>
        <time>2020-10-24T14:29:40.236Z</time>
      </trkpt>
      <trkpt lat="46.48259" lon="8.25148">
        <ele>1507</ele>
        <time>2020-10-24T14:29:41.236Z</time>
      </trkpt>
      <trkpt lat="46.4826" lon="8.25148">
        <ele>1506</ele>
        <time>2020-10-24T14:29:42.236Z</time>
      </trkpt>
      <trkpt lat="46.48261" lon="8.25149">
        <ele>1506</ele>
        <time>2020-10-24T14:29:43.236Z</time>
      </trkpt>
      <trkpt lat="46.48262" lon="8.25151">
        <ele>1506</ele>
        <time>2020-10-24T14:29:44.236Z</time>
      </trkpt>
      <trkpt lat="46.48263" lon="8.25152">
        <ele>1505</ele>
        <time>2020-10-24T14:29:45.236Z</time>
      </trkpt>
      <trkpt lat="46.48263" lon="8.25153">
        <ele>1505</ele>
        <time>2020-10-24T14:29:46.235Z</time>
      </trkpt>
      <trkpt lat="46.48264" lon="8.25154">
        <ele>1505</ele>
        <time>2020-10-24T14:29:47.236Z</time>
      </trkpt>
      <trkpt lat="46.48265" lon="8.25154">
        <ele>1505</ele>
        <time>2020-10-24T14:29:48.236Z</time>
      </trkpt>
      <trkpt lat="46.48266" lon="8.25156">
        <ele>1504</ele>
        <time>2020-10-24T14:29:49.236Z</time>
      </trkpt>
      <trkpt lat="46.48267" lon="8.25157">
        <ele>1504</ele>
        <time>2020-10-24T14:29:50.236Z</time>
      </trkpt>
      <trkpt lat="46.48267" lon="8.25158">
        <ele>1504</ele>
        <time>2020-10-24T14:29:51.236Z</time>
      </trkpt>
      <trkpt lat="46.48268" lon="8.2516">
        <ele>1503</ele>
        <time>2020-10-24T14:29:52.235Z</time>
      </trkpt>
      <trkpt lat="46.48269" lon="8.25161">
        <ele>1503</ele>
        <time>2020-10-24T14:29:53.235Z</time>
      </trkpt>
      <trkpt lat="46.4827" lon="8.25161">
        <ele>1504</ele>
        <time>2020-10-24T14:29:54.235Z</time>
      </trkpt>
      <trkpt lat="46.48271" lon="8.25162">
        <ele>1504</ele>
        <time>2020-10-24T14:29:55.235Z</time>
      </trkpt>
      <trkpt lat="46.48272" lon="8.25162">
        <ele>1503</ele>
        <time>2020-10-24T14:29:56.235Z</time>
      </trkpt>
      <trkpt lat="46.48273" lon="8.25163">
        <ele>1503</ele>
        <time>2020-10-24T14:29:57.235Z</time>
      </trkpt>
      <trkpt lat="46.48274" lon="8.25164">
        <ele>1503</ele>
        <time>2020-10-24T14:29:58.235Z</time>
      </trkpt>
      <trkpt lat="46.48275" lon="8.25164">
        <ele>1503</ele>
        <time>2020-10-24T14:29:59.236Z</time>
      </trkpt>
      <trkpt lat="46.48276" lon="8.25165">
        <ele>1503</ele>
        <time>2020-10-24T14:30:00.236Z</time>
      </trkpt>
      <trkpt lat="46.48277" lon="8.25166">
        <ele>1503</ele>
        <time>2020-10-24T14:30:01.236Z</time>
      </trkpt>
      <trkpt lat="46.48278" lon="8.25167">
        <ele>1504</ele>
        <time>2020-10-24T14:30:02.236Z</time>
      </trkpt>
      <trkpt lat="46.48279" lon="8.25169">
        <ele>1504</ele>
        <time>2020-10-24T14:30:03.236Z</time>
      </trkpt>
      <trkpt lat="46.48279" lon="8.2517">
        <ele>1504</ele>
        <time>2020-10-24T14:30:04.235Z</time>
      </trkpt>
      <trkpt lat="46.4828" lon="8.25172">
        <ele>1505</ele>
        <time>2020-10-24T14:30:05.236Z</time>
      </trkpt>
      <trkpt lat="46.4828" lon="8.25174">
        <ele>1505</ele>
        <time>2020-10-24T14:30:06.235Z</time>
      </trkpt>
      <trkpt lat="46.48281" lon="8.25175">
        <ele>1505</ele>
        <time>2020-10-24T14:30:07.235Z</time>
      </trkpt>
      <trkpt lat="46.48282" lon="8.25176">
        <ele>1506</ele>
        <time>2020-10-24T14:30:08.235Z</time>
      </trkpt>
      <trkpt lat="46.48283" lon="8.25177">
        <ele>1506</ele>
        <time>2020-10-24T14:30:09.236Z</time>
      </trkpt>
      <trkpt lat="46.48283" lon="8.25179">
        <ele>1507</ele>
        <time>2020-10-24T14:30:10.236Z</time>
      </trkpt>
      <trkpt lat="46.48284" lon="8.2518">
        <ele>1507</ele>
        <time>2020-10-24T14:30:11.235Z</time>
      </trkpt>
      <trkpt lat="46.48285" lon="8.25182">
        <ele>1507</ele>
        <time>2020-10-24T14:30:12.236Z</time>
      </trkpt>
      <trkpt lat="46.48286" lon="8.25182">
        <ele>1508</ele>
        <time>2020-10-24T14:30:13.235Z</time>
      </trkpt>
      <trkpt lat="46.48287" lon="8.25183">
        <ele>1508</ele>
        <time>2020-10-24T14:30:14.235Z</time>
      </trkpt>
      <trkpt lat="46.48288" lon="8.25184">
        <ele>1508</ele>
        <time>2020-10-24T14:30:15.236Z</time>
      </trkpt>
      <trkpt lat="46.48289" lon="8.25185">
        <ele>1508</ele>
        <time>2020-10-24T14:30:16.236Z</time>
      </trkpt>
      <trkpt lat="46.48289" lon="8.25186">
        <ele>1507</ele>
        <time>2020-10-24T14:30:17.236Z</time>
      </trkpt>
      <trkpt lat="46.4829" lon="8.25187">
        <ele>1507</ele>
        <time>2020-10-24T14:30:18.236Z</time>
      </trkpt>
      <trkpt lat="46.48291" lon="8.25188">
        <ele>1507</ele>
        <time>2020-10-24T14:30:19.236Z</time>
      </trkpt>
      <trkpt lat="46.48292" lon="8.25189">
        <ele>1506</ele>
        <time>2020-10-24T14:30:20.236Z</time>
      </trkpt>
      <trkpt lat="46.48293" lon="8.2519">
        <ele>1506</ele>
        <time>2020-10-24T14:30:21.236Z</time>
      </trkpt>
      <trkpt lat="46.48294" lon="8.25191">
        <ele>1506</ele>
        <time>2020-10-24T14:30:22.236Z</time>
      </trkpt>
      <trkpt lat="46.48294" lon="8.25192">
        <ele>1506</ele>
        <time>2020-10-24T14:30:23.236Z</time>
      </trkpt>
      <trkpt lat="46.48295" lon="8.25194">
        <ele>1505</ele>
        <time>2020-10-24T14:30:24.236Z</time>
      </trkpt>
      <trkpt lat="46.48296" lon="8.25195">
        <ele>1505</ele>
        <time>2020-10-24T14:30:25.235Z</time>
      </trkpt>
      <trkpt lat="46.48297" lon="8.25196">
        <ele>1505</ele>
        <time>2020-10-24T14:30:26.235Z</time>
      </trkpt>
      <trkpt lat="46.48297" lon="8.25197">
        <ele>1505</ele>
        <time>2020-10-24T14:30:27.235Z</time>
      </trkpt>
      <trkpt lat="46.48298" lon="8.25198">
        <ele>1505</ele>
        <time>2020-10-24T14:30:28.236Z</time>
      </trkpt>
      <trkpt lat="46.48299" lon="8.25199">
        <ele>1505</ele>
        <time>2020-10-24T14:30:29.235Z</time>
      </trkpt>
      <trkpt lat="46.483" lon="8.25201">
        <ele>1505</ele>
        <time>2020-10-24T14:30:30.236Z</time>
      </trkpt>
      <trkpt lat="46.48301" lon="8.25201">
        <ele>1505</ele>
        <time>2020-10-24T14:30:31.236Z</time>
      </trkpt>
      <trkpt lat="46.48302" lon="8.25202">
        <ele>1505</ele>
        <time>2020-10-24T14:30:32.236Z</time>
      </trkpt>
      <trkpt lat="46.48303" lon="8.25204">
        <ele>1505</ele>
        <time>2020-10-24T14:30:33.235Z</time>
      </trkpt>
      <trkpt lat="46.48303" lon="8.25205">
        <ele>1505</ele>
        <time>2020-10-24T14:30:34.235Z</time>
      </trkpt>
      <trkpt lat="46.48304" lon="8.25207">
        <ele>1506</ele>
        <time>2020-10-24T14:30:35.236Z</time>
      </trkpt>
      <trkpt lat="46.48304" lon="8.25209">
        <ele>1506</ele>
        <time>2020-10-24T14:30:36.235Z</time>
      </trkpt>
      <trkpt lat="46.48305" lon="8.25211">
        <ele>1506</ele>
        <time>2020-10-24T14:30:37.236Z</time>
      </trkpt>
      <trkpt lat="46.48305" lon="8.25212">
        <ele>1507</ele>
        <time>2020-10-24T14:30:38.236Z</time>
      </trkpt>
      <trkpt lat="46.48306" lon="8.25214">
        <ele>1507</ele>
        <time>2020-10-24T14:30:39.236Z</time>
      </trkpt>
      <trkpt lat="46.48307" lon="8.25215">
        <ele>1507</ele>
        <time>2020-10-24T14:30:40.236Z</time>
      </trkpt>
      <trkpt lat="46.48307" lon="8.25216">
        <ele>1507</ele>
        <time>2020-10-24T14:30:41.236Z</time>
      </trkpt>
      <trkpt lat="46.48308" lon="8.25218">
        <ele>1507</ele>
        <time>2020-10-24T14:30:42.236Z</time>
      </trkpt>
      <trkpt lat="46.48309" lon="8.25219">
        <ele>1507</ele>
        <time>2020-10-24T14:30:43.236Z</time>
      </trkpt>
      <trkpt lat="46.4831" lon="8.2522">
        <ele>1507</ele>
        <time>2020-10-24T14:30:44.236Z</time>
      </trkpt>
      <trkpt lat="46.48311" lon="8.25221">
        <ele>1507</ele>
        <time>2020-10-24T14:30:45.235Z</time>
      </trkpt>
      <trkpt lat="46.48312" lon="8.25223">
        <ele>1507</ele>
        <time>2020-10-24T14:30:46.236Z</time>
      </trkpt>
      <trkpt lat="46.48313" lon="8.25223">
        <ele>1508</ele>
        <time>2020-10-24T14:30:47.236Z</time>
      </trkpt>
      <trkpt lat="46.48313" lon="8.25225">
        <ele>1508</ele>
        <time>2020-10-24T14:30:48.236Z</time>
      </trkpt>
      <trkpt lat="46.48314" lon="8.25226">
        <ele>1508</ele>
        <time>2020-10-24T14:30:49.235Z</time>
      </trkpt>
      <trkpt lat="46.48315" lon="8.25227">
        <ele>1508</ele>
        <time>2020-10-24T14:30:50.236Z</time>
      </trkpt>
      <trkpt lat="46.48316" lon="8.25227">
        <ele>1508</ele>
        <time>2020-10-24T14:30:51.235Z</time>
      </trkpt>
      <trkpt lat="46.48317" lon="8.25227">
        <ele>1508</ele>
        <time>2020-10-24T14:30:52.235Z</time>
      </trkpt>
      <trkpt lat="46.48319" lon="8.25227">
        <ele>1508</ele>
        <time>2020-10-24T14:30:53.236Z</time>
      </trkpt>
      <trkpt lat="46.4832" lon="8.25226">
        <ele>1508</ele>
        <time>2020-10-24T14:30:54.236Z</time>
      </trkpt>
      <trkpt lat="46.48322" lon="8.25226">
        <ele>1508</ele>
        <time>2020-10-24T14:30:55.235Z</time>
      </trkpt>
      <trkpt lat="46.48323" lon="8.25226">
        <ele>1507</ele>
        <time>2020-10-24T14:30:56.235Z</time>
      </trkpt>
      <trkpt lat="46.48325" lon="8.25225">
        <ele>1507</ele>
        <time>2020-10-24T14:30:57.236Z</time>
      </trkpt>
      <trkpt lat="46.48327" lon="8.25225">
        <ele>1507</ele>
        <time>2020-10-24T14:30:58.235Z</time>
      </trkpt>
      <trkpt lat="46.48329" lon="8.25223">
        <ele>1506</ele>
        <time>2020-10-24T14:30:59.236Z</time>
      </trkpt>
      <trkpt lat="46.48331" lon="8.25222">
        <ele>1506</ele>
        <time>2020-10-24T14:31:00.236Z</time>
      </trkpt>
      <trkpt lat="46.48332" lon="8.25222">
        <ele>1505</ele>
        <time>2020-10-24T14:31:01.236Z</time>
      </trkpt>
      <trkpt lat="46.48334" lon="8.25222">
        <ele>1504</ele>
        <time>2020-10-24T14:31:02.236Z</time>
      </trkpt>
      <trkpt lat="46.48335" lon="8.25223">
        <ele>1503</ele>
        <time>2020-10-24T14:31:03.236Z</time>
      </trkpt>
      <trkpt lat="46.48335" lon="8.25223">
        <ele>1502</ele>
        <time>2020-10-24T14:31:04.236Z</time>
      </trkpt>
      <trkpt lat="46.48336" lon="8.25224">
        <ele>1502</ele>
        <time>2020-10-24T14:31:05.235Z</time>
      </trkpt>
      <trkpt lat="46.48337" lon="8.25225">
        <ele>1501</ele>
        <time>2020-10-24T14:31:06.236Z</time>
      </trkpt>
      <trkpt lat="46.48338" lon="8.25226">
        <ele>1501</ele>
        <time>2020-10-24T14:31:07.235Z</time>
      </trkpt>
      <trkpt lat="46.48339" lon="8.25227">
        <ele>1501</ele>
        <time>2020-10-24T14:31:08.236Z</time>
      </trkpt>
      <trkpt lat="46.4834" lon="8.25228">
        <ele>1500</ele>
        <time>2020-10-24T14:31:09.236Z</time>
      </trkpt>
      <trkpt lat="46.48341" lon="8.2523">
        <ele>1500</ele>
        <time>2020-10-24T14:31:10.236Z</time>
      </trkpt>
      <trkpt lat="46.48342" lon="8.25231">
        <ele>1500</ele>
        <time>2020-10-24T14:31:11.235Z</time>
      </trkpt>
      <trkpt lat="46.48343" lon="8.25233">
        <ele>1500</ele>
        <time>2020-10-24T14:31:12.236Z</time>
      </trkpt>
      <trkpt lat="46.48344" lon="8.25234">
        <ele>1500</ele>
        <time>2020-10-24T14:31:13.236Z</time>
      </trkpt>
      <trkpt lat="46.48345" lon="8.25235">
        <ele>1500</ele>
        <time>2020-10-24T14:31:14.236Z</time>
      </trkpt>
      <trkpt lat="46.48345" lon="8.25236">
        <ele>1500</ele>
        <time>2020-10-24T14:31:15.236Z</time>
      </trkpt>
      <trkpt lat="46.48346" lon="8.25237">
        <ele>1500</ele>
        <time>2020-10-24T14:31:16.236Z</time>
      </trkpt>
      <trkpt lat="46.48346" lon="8.25238">
        <ele>1499</ele>
        <time>2020-10-24T14:31:17.236Z</time>
      </trkpt>
      <trkpt lat="46.48347" lon="8.25239">
        <ele>1498</ele>
        <time>2020-10-24T14:31:18.235Z</time>
      </trkpt>
      <trkpt lat="46.48347" lon="8.2524">
        <ele>1497</ele>
        <time>2020-10-24T14:31:19.236Z</time>
      </trkpt>
      <trkpt lat="46.48348" lon="8.25241">
        <ele>1496</ele>
        <time>2020-10-24T14:31:20.236Z</time>
      </trkpt>
      <trkpt lat="46.48348" lon="8.25242">
        <ele>1496</ele>
        <time>2020-10-24T14:31:21.235Z</time>
      </trkpt>
      <trkpt lat="46.48349" lon="8.25243">
        <ele>1495</ele>
        <time>2020-10-24T14:31:22.236Z</time>
      </trkpt>
      <trkpt lat="46.48349" lon="8.25244">
        <ele>1494</ele>
        <time>2020-10-24T14:31:23.236Z</time>
      </trkpt>
      <trkpt lat="46.4835" lon="8.25245">
        <ele>1493</ele>
        <time>2020-10-24T14:31:24.236Z</time>
      </trkpt>
      <trkpt lat="46.4835" lon="8.25246">
        <ele>1492</ele>
        <time>2020-10-24T14:31:25.235Z</time>
      </trkpt>
      <trkpt lat="46.48351" lon="8.25247">
        <ele>1492</ele>
        <time>2020-10-24T14:31:26.235Z</time>
      </trkpt>
      <trkpt lat="46.48352" lon="8.25249">
        <ele>1491</ele>
        <time>2020-10-24T14:31:27.236Z</time>
      </trkpt>
      <trkpt lat="46.48352" lon="8.2525">
        <ele>1491</ele>
        <time>2020-10-24T14:31:28.235Z</time>
      </trkpt>
      <trkpt lat="46.48353" lon="8.25251">
        <ele>1490</ele>
        <time>2020-10-24T14:31:29.235Z</time>
      </trkpt>
      <trkpt lat="46.48353" lon="8.25253">
        <ele>1490</ele>
        <time>2020-10-24T14:31:30.235Z</time>
      </trkpt>
      <trkpt lat="46.48353" lon="8.25255">
        <ele>1489</ele>
        <time>2020-10-24T14:31:31.236Z</time>
      </trkpt>
      <trkpt lat="46.48354" lon="8.25257">
        <ele>1489</ele>
        <time>2020-10-24T14:31:32.235Z</time>
      </trkpt>
      <trkpt lat="46.48354" lon="8.25259">
        <ele>1489</ele>
        <time>2020-10-24T14:31:33.236Z</time>
      </trkpt>
      <trkpt lat="46.48355" lon="8.2526">
        <ele>1489</ele>
        <time>2020-10-24T14:31:34.236Z</time>
      </trkpt>
      <trkpt lat="46.48355" lon="8.25262">
        <ele>1489</ele>
        <time>2020-10-24T14:31:35.236Z</time>
      </trkpt>
      <trkpt lat="46.48356" lon="8.25263">
        <ele>1489</ele>
        <time>2020-10-24T14:31:36.235Z</time>
      </trkpt>
      <trkpt lat="46.48356" lon="8.25264">
        <ele>1488</ele>
        <time>2020-10-24T14:31:37.235Z</time>
      </trkpt>
      <trkpt lat="46.48357" lon="8.25265">
        <ele>1488</ele>
        <time>2020-10-24T14:31:38.235Z</time>
      </trkpt>
      <trkpt lat="46.48358" lon="8.25266">
        <ele>1488</ele>
        <time>2020-10-24T14:31:39.235Z</time>
      </trkpt>
      <trkpt lat="46.48358" lon="8.25267">
        <ele>1487</ele>
        <time>2020-10-24T14:31:40.236Z</time>
      </trkpt>
      <trkpt lat="46.48359" lon="8.25268">
        <ele>1486</ele>
        <time>2020-10-24T14:31:41.236Z</time>
      </trkpt>
      <trkpt lat="46.4836" lon="8.25269">
        <ele>1486</ele>
        <time>2020-10-24T14:31:42.236Z</time>
      </trkpt>
      <trkpt lat="46.48361" lon="8.2527">
        <ele>1486</ele>
        <time>2020-10-24T14:31:43.235Z</time>
      </trkpt>
      <trkpt lat="46.48361" lon="8.25272">
        <ele>1486</ele>
        <time>2020-10-24T14:31:44.236Z</time>
      </trkpt>
      <trkpt lat="46.48362" lon="8.25273">
        <ele>1487</ele>
        <time>2020-10-24T14:31:45.235Z</time>
      </trkpt>
      <trkpt lat="46.48362" lon="8.25275">
        <ele>1487</ele>
        <time>2020-10-24T14:31:46.235Z</time>
      </trkpt>
      <trkpt lat="46.48363" lon="8.25276">
        <ele>1487</ele>
        <time>2020-10-24T14:31:47.236Z</time>
      </trkpt>
      <trkpt lat="46.48363" lon="8.25278">
        <ele>1487</ele>
        <time>2020-10-24T14:31:48.236Z</time>
      </trkpt>
      <trkpt lat="46.48364" lon="8.2528">
        <ele>1487</ele>
        <time>2020-10-24T14:31:49.236Z</time>
      </trkpt>
      <trkpt lat="46.48364" lon="8.25281">
        <ele>1487</ele>
        <time>2020-10-24T14:31:50.236Z</time>
      </trkpt>
      <trkpt lat="46.48365" lon="8.25283">
        <ele>1486</ele>
        <time>2020-10-24T14:31:51.235Z</time>
      </trkpt>
      <trkpt lat="46.48365" lon="8.25285">
        <ele>1486</ele>
        <time>2020-10-24T14:31:52.236Z</time>
      </trkpt>
      <trkpt lat="46.48366" lon="8.25286">
        <ele>1486</ele>
        <time>2020-10-24T14:31:53.236Z</time>
      </trkpt>
      <trkpt lat="46.48367" lon="8.25288">
        <ele>1486</ele>
        <time>2020-10-24T14:31:54.236Z</time>
      </trkpt>
      <trkpt lat="46.48367" lon="8.2529">
        <ele>1486</ele>
        <time>2020-10-24T14:31:55.235Z</time>
      </trkpt>
      <trkpt lat="46.48367" lon="8.25292">
        <ele>1486</ele>
        <time>2020-10-24T14:31:56.235Z</time>
      </trkpt>
      <trkpt lat="46.48368" lon="8.25294">
        <ele>1486</ele>
        <time>2020-10-24T14:31:57.236Z</time>
      </trkpt>
      <trkpt lat="46.48368" lon="8.25296">
        <ele>1486</ele>
        <time>2020-10-24T14:31:58.236Z</time>
      </trkpt>
      <trkpt lat="46.48368" lon="8.25298">
        <ele>1486</ele>
        <time>2020-10-24T14:31:59.235Z</time>
      </trkpt>
      <trkpt lat="46.48369" lon="8.25299">
        <ele>1486</ele>
        <time>2020-10-24T14:32:00.236Z</time>
      </trkpt>
      <trkpt lat="46.4837" lon="8.253">
        <ele>1486</ele>
        <time>2020-10-24T14:32:01.236Z</time>
      </trkpt>
      <trkpt lat="46.4837" lon="8.25301">
        <ele>1486</ele>
        <time>2020-10-24T14:32:02.235Z</time>
      </trkpt>
      <trkpt lat="46.48371" lon="8.25302">
        <ele>1485</ele>
        <time>2020-10-24T14:32:03.236Z</time>
      </trkpt>
      <trkpt lat="46.48373" lon="8.25302">
        <ele>1485</ele>
        <time>2020-10-24T14:32:04.236Z</time>
      </trkpt>
      <trkpt lat="46.48373" lon="8.25303">
        <ele>1485</ele>
        <time>2020-10-24T14:32:05.236Z</time>
      </trkpt>
      <trkpt lat="46.48375" lon="8.25303">
        <ele>1484</ele>
        <time>2020-10-24T14:32:06.236Z</time>
      </trkpt>
      <trkpt lat="46.48375" lon="8.25304">
        <ele>1484</ele>
        <time>2020-10-24T14:32:07.236Z</time>
      </trkpt>
      <trkpt lat="46.48376" lon="8.25305">
        <ele>1483</ele>
        <time>2020-10-24T14:32:08.235Z</time>
      </trkpt>
      <trkpt lat="46.48377" lon="8.25306">
        <ele>1483</ele>
        <time>2020-10-24T14:32:09.235Z</time>
      </trkpt>
      <trkpt lat="46.48378" lon="8.25308">
        <ele>1482</ele>
        <time>2020-10-24T14:32:10.235Z</time>
      </trkpt>
      <trkpt lat="46.48378" lon="8.25309">
        <ele>1482</ele>
        <time>2020-10-24T14:32:11.235Z</time>
      </trkpt>
      <trkpt lat="46.48379" lon="8.2531">
        <ele>1482</ele>
        <time>2020-10-24T14:32:12.236Z</time>
      </trkpt>
      <trkpt lat="46.4838" lon="8.25311">
        <ele>1481</ele>
        <time>2020-10-24T14:32:13.236Z</time>
      </trkpt>
      <trkpt lat="46.4838" lon="8.25312">
        <ele>1481</ele>
        <time>2020-10-24T14:32:14.236Z</time>
      </trkpt>
      <trkpt lat="46.48381" lon="8.25312">
        <ele>1480</ele>
        <time>2020-10-24T14:32:15.236Z</time>
      </trkpt>
      <trkpt lat="46.48382" lon="8.25313">
        <ele>1479</ele>
        <time>2020-10-24T14:32:16.235Z</time>
      </trkpt>
      <trkpt lat="46.48383" lon="8.25315">
        <ele>1479</ele>
        <time>2020-10-24T14:32:17.236Z</time>
      </trkpt>
      <trkpt lat="46.48383" lon="8.25316">
        <ele>1479</ele>
        <time>2020-10-24T14:32:18.236Z</time>
      </trkpt>
      <trkpt lat="46.48383" lon="8.25318">
        <ele>1479</ele>
        <time>2020-10-24T14:32:19.235Z</time>
      </trkpt>
      <trkpt lat="46.48385" lon="8.25319">
        <ele>1478</ele>
        <time>2020-10-24T14:32:20.235Z</time>
      </trkpt>
      <trkpt lat="46.48385" lon="8.2532">
        <ele>1478</ele>
        <time>2020-10-24T14:32:21.236Z</time>
      </trkpt>
      <trkpt lat="46.48386" lon="8.25322">
        <ele>1478</ele>
        <time>2020-10-24T14:32:22.236Z</time>
      </trkpt>
      <trkpt lat="46.48387" lon="8.25324">
        <ele>1478</ele>
        <time>2020-10-24T14:32:23.236Z</time>
      </trkpt>
      <trkpt lat="46.48387" lon="8.25326">
        <ele>1478</ele>
        <time>2020-10-24T14:32:24.236Z</time>
      </trkpt>
      <trkpt lat="46.48388" lon="8.25328">
        <ele>1478</ele>
        <time>2020-10-24T14:32:25.235Z</time>
      </trkpt>
      <trkpt lat="46.48388" lon="8.2533">
        <ele>1478</ele>
        <time>2020-10-24T14:32:26.235Z</time>
      </trkpt>
      <trkpt lat="46.48389" lon="8.25331">
        <ele>1479</ele>
        <time>2020-10-24T14:32:27.236Z</time>
      </trkpt>
      <trkpt lat="46.48389" lon="8.25333">
        <ele>1479</ele>
        <time>2020-10-24T14:32:28.236Z</time>
      </trkpt>
      <trkpt lat="46.48389" lon="8.25335">
        <ele>1480</ele>
        <time>2020-10-24T14:32:29.235Z</time>
      </trkpt>
      <trkpt lat="46.4839" lon="8.25336">
        <ele>1480</ele>
        <time>2020-10-24T14:32:30.236Z</time>
      </trkpt>
      <trkpt lat="46.48391" lon="8.25338">
        <ele>1479</ele>
        <time>2020-10-24T14:32:31.235Z</time>
      </trkpt>
      <trkpt lat="46.48391" lon="8.25339">
        <ele>1479</ele>
        <time>2020-10-24T14:32:32.236Z</time>
      </trkpt>
      <trkpt lat="46.48392" lon="8.2534">
        <ele>1479</ele>
        <time>2020-10-24T14:32:33.236Z</time>
      </trkpt>
      <trkpt lat="46.48392" lon="8.25341">
        <ele>1479</ele>
        <time>2020-10-24T14:32:34.236Z</time>
      </trkpt>
      <trkpt lat="46.48393" lon="8.25343">
        <ele>1478</ele>
        <time>2020-10-24T14:32:35.235Z</time>
      </trkpt>
      <trkpt lat="46.48394" lon="8.25344">
        <ele>1478</ele>
        <time>2020-10-24T14:32:36.235Z</time>
      </trkpt>
      <trkpt lat="46.48394" lon="8.25345">
        <ele>1478</ele>
        <time>2020-10-24T14:32:37.235Z</time>
      </trkpt>
      <trkpt lat="46.48394" lon="8.25346">
        <ele>1478</ele>
        <time>2020-10-24T14:32:38.236Z</time>
      </trkpt>
      <trkpt lat="46.48394" lon="8.25348">
        <ele>1478</ele>
        <time>2020-10-24T14:32:39.236Z</time>
      </trkpt>
      <trkpt lat="46.48394" lon="8.25349">
        <ele>1478</ele>
        <time>2020-10-24T14:32:48.384Z</time>
      </trkpt>
      <trkpt lat="46.48394" lon="8.25351">
        <ele>1477</ele>
        <time>2020-10-24T14:32:49.384Z</time>
      </trkpt>
      <trkpt lat="46.48394" lon="8.25352">
        <ele>1477</ele>
        <time>2020-10-24T14:32:50.384Z</time>
      </trkpt>
      <trkpt lat="46.48395" lon="8.25354">
        <ele>1476</ele>
        <time>2020-10-24T14:32:51.384Z</time>
      </trkpt>
      <trkpt lat="46.48395" lon="8.25355">
        <ele>1476</ele>
        <time>2020-10-24T14:32:52.384Z</time>
      </trkpt>
      <trkpt lat="46.48396" lon="8.25356">
        <ele>1476</ele>
        <time>2020-10-24T14:32:53.384Z</time>
      </trkpt>
      <trkpt lat="46.48397" lon="8.25357">
        <ele>1476</ele>
        <time>2020-10-24T14:32:54.384Z</time>
      </trkpt>
      <trkpt lat="46.48397" lon="8.25358">
        <ele>1476</ele>
        <time>2020-10-24T14:32:55.384Z</time>
      </trkpt>
      <trkpt lat="46.48398" lon="8.25359">
        <ele>1477</ele>
        <time>2020-10-24T14:32:56.384Z</time>
      </trkpt>
      <trkpt lat="46.48399" lon="8.2536">
        <ele>1477</ele>
        <time>2020-10-24T14:32:57.384Z</time>
      </trkpt>
      <trkpt lat="46.484" lon="8.25362">
        <ele>1476</ele>
        <time>2020-10-24T14:32:58.383Z</time>
      </trkpt>
      <trkpt lat="46.48401" lon="8.25363">
        <ele>1475</ele>
        <time>2020-10-24T14:32:59.384Z</time>
      </trkpt>
      <trkpt lat="46.48402" lon="8.25364">
        <ele>1474</ele>
        <time>2020-10-24T14:33:00.384Z</time>
      </trkpt>
      <trkpt lat="46.48402" lon="8.25366">
        <ele>1474</ele>
        <time>2020-10-24T14:33:01.384Z</time>
      </trkpt>
      <trkpt lat="46.48403" lon="8.25367">
        <ele>1473</ele>
        <time>2020-10-24T14:33:02.384Z</time>
      </trkpt>
      <trkpt lat="46.48404" lon="8.25369">
        <ele>1473</ele>
        <time>2020-10-24T14:33:03.384Z</time>
      </trkpt>
      <trkpt lat="46.48404" lon="8.2537">
        <ele>1473</ele>
        <time>2020-10-24T14:33:04.383Z</time>
      </trkpt>
      <trkpt lat="46.48405" lon="8.25372">
        <ele>1473</ele>
        <time>2020-10-24T14:33:05.384Z</time>
      </trkpt>
      <trkpt lat="46.48406" lon="8.25373">
        <ele>1473</ele>
        <time>2020-10-24T14:33:06.383Z</time>
      </trkpt>
      <trkpt lat="46.48406" lon="8.25375">
        <ele>1472</ele>
        <time>2020-10-24T14:33:07.384Z</time>
      </trkpt>
      <trkpt lat="46.48407" lon="8.25377">
        <ele>1472</ele>
        <time>2020-10-24T14:33:08.383Z</time>
      </trkpt>
      <trkpt lat="46.48407" lon="8.25378">
        <ele>1471</ele>
        <time>2020-10-24T14:33:09.383Z</time>
      </trkpt>
      <trkpt lat="46.48408" lon="8.2538">
        <ele>1471</ele>
        <time>2020-10-24T14:33:10.383Z</time>
      </trkpt>
      <trkpt lat="46.48408" lon="8.25381">
        <ele>1470</ele>
        <time>2020-10-24T14:33:11.383Z</time>
      </trkpt>
      <trkpt lat="46.48409" lon="8.25383">
        <ele>1470</ele>
        <time>2020-10-24T14:33:12.384Z</time>
      </trkpt>
      <trkpt lat="46.4841" lon="8.25384">
        <ele>1470</ele>
        <time>2020-10-24T14:33:13.384Z</time>
      </trkpt>
      <trkpt lat="46.4841" lon="8.25386">
        <ele>1469</ele>
        <time>2020-10-24T14:33:14.383Z</time>
      </trkpt>
      <trkpt lat="46.48411" lon="8.25387">
        <ele>1469</ele>
        <time>2020-10-24T14:33:15.383Z</time>
      </trkpt>
      <trkpt lat="46.48412" lon="8.25388">
        <ele>1470</ele>
        <time>2020-10-24T14:33:16.384Z</time>
      </trkpt>
      <trkpt lat="46.48412" lon="8.2539">
        <ele>1470</ele>
        <time>2020-10-24T14:33:17.384Z</time>
      </trkpt>
      <trkpt lat="46.48413" lon="8.25391">
        <ele>1471</ele>
        <time>2020-10-24T14:33:18.384Z</time>
      </trkpt>
      <trkpt lat="46.48413" lon="8.25393">
        <ele>1471</ele>
        <time>2020-10-24T14:33:19.383Z</time>
      </trkpt>
      <trkpt lat="46.48414" lon="8.25395">
        <ele>1471</ele>
        <time>2020-10-24T14:33:20.384Z</time>
      </trkpt>
      <trkpt lat="46.48415" lon="8.25396">
        <ele>1470</ele>
        <time>2020-10-24T14:33:21.384Z</time>
      </trkpt>
      <trkpt lat="46.48415" lon="8.25398">
        <ele>1470</ele>
        <time>2020-10-24T14:33:22.384Z</time>
      </trkpt>
      <trkpt lat="46.48416" lon="8.25399">
        <ele>1470</ele>
        <time>2020-10-24T14:33:23.384Z</time>
      </trkpt>
      <trkpt lat="46.48417" lon="8.25401">
        <ele>1470</ele>
        <time>2020-10-24T14:33:24.383Z</time>
      </trkpt>
      <trkpt lat="46.48418" lon="8.25402">
        <ele>1470</ele>
        <time>2020-10-24T14:33:25.384Z</time>
      </trkpt>
      <trkpt lat="46.48418" lon="8.25403">
        <ele>1470</ele>
        <time>2020-10-24T14:33:26.383Z</time>
      </trkpt>
      <trkpt lat="46.48419" lon="8.25405">
        <ele>1469</ele>
        <time>2020-10-24T14:33:27.383Z</time>
      </trkpt>
      <trkpt lat="46.4842" lon="8.25406">
        <ele>1469</ele>
        <time>2020-10-24T14:33:28.384Z</time>
      </trkpt>
      <trkpt lat="46.48421" lon="8.25407">
        <ele>1469</ele>
        <time>2020-10-24T14:33:29.384Z</time>
      </trkpt>
      <trkpt lat="46.48422" lon="8.25409">
        <ele>1469</ele>
        <time>2020-10-24T14:33:30.384Z</time>
      </trkpt>
      <trkpt lat="46.48422" lon="8.2541">
        <ele>1468</ele>
        <time>2020-10-24T14:33:31.384Z</time>
      </trkpt>
      <trkpt lat="46.48423" lon="8.25411">
        <ele>1468</ele>
        <time>2020-10-24T14:33:32.383Z</time>
      </trkpt>
      <trkpt lat="46.48424" lon="8.25413">
        <ele>1467</ele>
        <time>2020-10-24T14:33:33.383Z</time>
      </trkpt>
      <trkpt lat="46.48425" lon="8.25414">
        <ele>1467</ele>
        <time>2020-10-24T14:33:34.384Z</time>
      </trkpt>
      <trkpt lat="46.48426" lon="8.25416">
        <ele>1467</ele>
        <time>2020-10-24T14:33:35.384Z</time>
      </trkpt>
      <trkpt lat="46.48427" lon="8.25417">
        <ele>1467</ele>
        <time>2020-10-24T14:33:36.383Z</time>
      </trkpt>
      <trkpt lat="46.48427" lon="8.25418">
        <ele>1467</ele>
        <time>2020-10-24T14:33:37.384Z</time>
      </trkpt>
      <trkpt lat="46.48428" lon="8.25419">
        <ele>1467</ele>
        <time>2020-10-24T14:33:38.384Z</time>
      </trkpt>
      <trkpt lat="46.48429" lon="8.25421">
        <ele>1467</ele>
        <time>2020-10-24T14:33:39.384Z</time>
      </trkpt>
      <trkpt lat="46.48429" lon="8.25423">
        <ele>1467</ele>
        <time>2020-10-24T14:33:40.384Z</time>
      </trkpt>
      <trkpt lat="46.4843" lon="8.25424">
        <ele>1467</ele>
        <time>2020-10-24T14:33:41.383Z</time>
      </trkpt>
      <trkpt lat="46.48431" lon="8.25426">
        <ele>1468</ele>
        <time>2020-10-24T14:33:42.383Z</time>
      </trkpt>
      <trkpt lat="46.48432" lon="8.25427">
        <ele>1469</ele>
        <time>2020-10-24T14:33:43.383Z</time>
      </trkpt>
      <trkpt lat="46.48433" lon="8.25429">
        <ele>1470</ele>
        <time>2020-10-24T14:33:44.383Z</time>
      </trkpt>
      <trkpt lat="46.48434" lon="8.2543">
        <ele>1471</ele>
        <time>2020-10-24T14:33:45.384Z</time>
      </trkpt>
      <trkpt lat="46.48434" lon="8.25431">
        <ele>1471</ele>
        <time>2020-10-24T14:33:46.384Z</time>
      </trkpt>
      <trkpt lat="46.48435" lon="8.25433">
        <ele>1472</ele>
        <time>2020-10-24T14:33:47.384Z</time>
      </trkpt>
      <trkpt lat="46.48435" lon="8.25435">
        <ele>1472</ele>
        <time>2020-10-24T14:33:48.383Z</time>
      </trkpt>
      <trkpt lat="46.48436" lon="8.25436">
        <ele>1473</ele>
        <time>2020-10-24T14:33:49.383Z</time>
      </trkpt>
      <trkpt lat="46.48436" lon="8.25438">
        <ele>1474</ele>
        <time>2020-10-24T14:33:50.383Z</time>
      </trkpt>
      <trkpt lat="46.48437" lon="8.25439">
        <ele>1474</ele>
        <time>2020-10-24T14:33:51.383Z</time>
      </trkpt>
      <trkpt lat="46.48438" lon="8.2544">
        <ele>1474</ele>
        <time>2020-10-24T14:33:52.384Z</time>
      </trkpt>
      <trkpt lat="46.48438" lon="8.25441">
        <ele>1473</ele>
        <time>2020-10-24T14:33:53.384Z</time>
      </trkpt>
      <trkpt lat="46.48439" lon="8.25443">
        <ele>1472</ele>
        <time>2020-10-24T14:33:54.384Z</time>
      </trkpt>
      <trkpt lat="46.4844" lon="8.25444">
        <ele>1471</ele>
        <time>2020-10-24T14:33:55.384Z</time>
      </trkpt>
      <trkpt lat="46.4844" lon="8.25445">
        <ele>1470</ele>
        <time>2020-10-24T14:33:56.384Z</time>
      </trkpt>
      <trkpt lat="46.48441" lon="8.25447">
        <ele>1470</ele>
        <time>2020-10-24T14:33:57.384Z</time>
      </trkpt>
      <trkpt lat="46.48442" lon="8.25448">
        <ele>1469</ele>
        <time>2020-10-24T14:33:58.383Z</time>
      </trkpt>
      <trkpt lat="46.48442" lon="8.2545">
        <ele>1468</ele>
        <time>2020-10-24T14:33:59.383Z</time>
      </trkpt>
      <trkpt lat="46.48443" lon="8.25451">
        <ele>1468</ele>
        <time>2020-10-24T14:34:00.384Z</time>
      </trkpt>
      <trkpt lat="46.48443" lon="8.25453">
        <ele>1468</ele>
        <time>2020-10-24T14:34:01.383Z</time>
      </trkpt>
      <trkpt lat="46.48444" lon="8.25454">
        <ele>1467</ele>
        <time>2020-10-24T14:34:02.383Z</time>
      </trkpt>
      <trkpt lat="46.48444" lon="8.25456">
        <ele>1467</ele>
        <time>2020-10-24T14:34:03.384Z</time>
      </trkpt>
      <trkpt lat="46.48445" lon="8.25457">
        <ele>1468</ele>
        <time>2020-10-24T14:34:04.383Z</time>
      </trkpt>
      <trkpt lat="46.48445" lon="8.25458">
        <ele>1468</ele>
        <time>2020-10-24T14:34:05.384Z</time>
      </trkpt>
      <trkpt lat="46.48446" lon="8.2546">
        <ele>1468</ele>
        <time>2020-10-24T14:34:06.383Z</time>
      </trkpt>
      <trkpt lat="46.48447" lon="8.25461">
        <ele>1468</ele>
        <time>2020-10-24T14:34:07.384Z</time>
      </trkpt>
      <trkpt lat="46.48447" lon="8.25462">
        <ele>1468</ele>
        <time>2020-10-24T14:34:08.384Z</time>
      </trkpt>
      <trkpt lat="46.48448" lon="8.25463">
        <ele>1468</ele>
        <time>2020-10-24T14:34:09.384Z</time>
      </trkpt>
      <trkpt lat="46.48448" lon="8.25464">
        <ele>1467</ele>
        <time>2020-10-24T14:34:10.384Z</time>
      </trkpt>
      <trkpt lat="46.48449" lon="8.25465">
        <ele>1467</ele>
        <time>2020-10-24T14:34:11.384Z</time>
      </trkpt>
      <trkpt lat="46.4845" lon="8.25467">
        <ele>1466</ele>
        <time>2020-10-24T14:34:12.384Z</time>
      </trkpt>
      <trkpt lat="46.48451" lon="8.25468">
        <ele>1466</ele>
        <time>2020-10-24T14:34:13.383Z</time>
      </trkpt>
      <trkpt lat="46.48451" lon="8.2547">
        <ele>1465</ele>
        <time>2020-10-24T14:34:14.383Z</time>
      </trkpt>
      <trkpt lat="46.48452" lon="8.25471">
        <ele>1465</ele>
        <time>2020-10-24T14:34:15.384Z</time>
      </trkpt>
      <trkpt lat="46.48453" lon="8.25472">
        <ele>1464</ele>
        <time>2020-10-24T14:34:16.384Z</time>
      </trkpt>
      <trkpt lat="46.48453" lon="8.25474">
        <ele>1464</ele>
        <time>2020-10-24T14:34:17.384Z</time>
      </trkpt>
      <trkpt lat="46.48454" lon="8.25476">
        <ele>1463</ele>
        <time>2020-10-24T14:34:18.383Z</time>
      </trkpt>
      <trkpt lat="46.48454" lon="8.25477">
        <ele>1463</ele>
        <time>2020-10-24T14:34:19.383Z</time>
      </trkpt>
      <trkpt lat="46.48455" lon="8.25478">
        <ele>1463</ele>
        <time>2020-10-24T14:34:20.384Z</time>
      </trkpt>
      <trkpt lat="46.48456" lon="8.2548">
        <ele>1463</ele>
        <time>2020-10-24T14:34:21.384Z</time>
      </trkpt>
      <trkpt lat="46.48456" lon="8.25481">
        <ele>1463</ele>
        <time>2020-10-24T14:34:22.384Z</time>
      </trkpt>
      <trkpt lat="46.48457" lon="8.25482">
        <ele>1463</ele>
        <time>2020-10-24T14:34:23.384Z</time>
      </trkpt>
      <trkpt lat="46.48458" lon="8.25483">
        <ele>1463</ele>
        <time>2020-10-24T14:34:24.384Z</time>
      </trkpt>
      <trkpt lat="46.48459" lon="8.25484">
        <ele>1462</ele>
        <time>2020-10-24T14:34:25.384Z</time>
      </trkpt>
      <trkpt lat="46.48459" lon="8.25485">
        <ele>1462</ele>
        <time>2020-10-24T14:34:26.383Z</time>
      </trkpt>
      <trkpt lat="46.4846" lon="8.25487">
        <ele>1462</ele>
        <time>2020-10-24T14:34:27.383Z</time>
      </trkpt>
      <trkpt lat="46.48461" lon="8.25489">
        <ele>1462</ele>
        <time>2020-10-24T14:34:28.383Z</time>
      </trkpt>
      <trkpt lat="46.48462" lon="8.2549">
        <ele>1462</ele>
        <time>2020-10-24T14:34:29.383Z</time>
      </trkpt>
      <trkpt lat="46.48462" lon="8.25491">
        <ele>1461</ele>
        <time>2020-10-24T14:34:30.383Z</time>
      </trkpt>
      <trkpt lat="46.48463" lon="8.25492">
        <ele>1461</ele>
        <time>2020-10-24T14:34:31.383Z</time>
      </trkpt>
      <trkpt lat="46.48464" lon="8.25494">
        <ele>1461</ele>
        <time>2020-10-24T14:34:32.384Z</time>
      </trkpt>
      <trkpt lat="46.48464" lon="8.25495">
        <ele>1460</ele>
        <time>2020-10-24T14:34:33.384Z</time>
      </trkpt>
      <trkpt lat="46.48465" lon="8.25496">
        <ele>1461</ele>
        <time>2020-10-24T14:34:34.384Z</time>
      </trkpt>
      <trkpt lat="46.48466" lon="8.25498">
        <ele>1461</ele>
        <time>2020-10-24T14:34:35.384Z</time>
      </trkpt>
      <trkpt lat="46.48467" lon="8.25499">
        <ele>1461</ele>
        <time>2020-10-24T14:34:36.384Z</time>
      </trkpt>
      <trkpt lat="46.48467" lon="8.255">
        <ele>1462</ele>
        <time>2020-10-24T14:34:37.383Z</time>
      </trkpt>
      <trkpt lat="46.48468" lon="8.25502">
        <ele>1462</ele>
        <time>2020-10-24T14:34:38.384Z</time>
      </trkpt>
      <trkpt lat="46.48469" lon="8.25503">
        <ele>1463</ele>
        <time>2020-10-24T14:34:39.384Z</time>
      </trkpt>
      <trkpt lat="46.4847" lon="8.25504">
        <ele>1463</ele>
        <time>2020-10-24T14:34:40.384Z</time>
      </trkpt>
      <trkpt lat="46.4847" lon="8.25505">
        <ele>1463</ele>
        <time>2020-10-24T14:34:41.383Z</time>
      </trkpt>
      <trkpt lat="46.48471" lon="8.25506">
        <ele>1462</ele>
        <time>2020-10-24T14:34:42.384Z</time>
      </trkpt>
      <trkpt lat="46.48471" lon="8.25508">
        <ele>1462</ele>
        <time>2020-10-24T14:34:43.384Z</time>
      </trkpt>
      <trkpt lat="46.48472" lon="8.25509">
        <ele>1462</ele>
        <time>2020-10-24T14:34:44.383Z</time>
      </trkpt>
      <trkpt lat="46.48472" lon="8.2551">
        <ele>1461</ele>
        <time>2020-10-24T14:34:45.383Z</time>
      </trkpt>
      <trkpt lat="46.48473" lon="8.25511">
        <ele>1461</ele>
        <time>2020-10-24T14:34:46.384Z</time>
      </trkpt>
      <trkpt lat="46.48474" lon="8.25512">
        <ele>1461</ele>
        <time>2020-10-24T14:34:47.383Z</time>
      </trkpt>
      <trkpt lat="46.48475" lon="8.25514">
        <ele>1461</ele>
        <time>2020-10-24T14:34:48.383Z</time>
      </trkpt>
      <trkpt lat="46.48475" lon="8.25515">
        <ele>1461</ele>
        <time>2020-10-24T14:34:49.384Z</time>
      </trkpt>
      <trkpt lat="46.48476" lon="8.25516">
        <ele>1460</ele>
        <time>2020-10-24T14:34:50.384Z</time>
      </trkpt>
      <trkpt lat="46.48477" lon="8.25518">
        <ele>1460</ele>
        <time>2020-10-24T14:34:51.384Z</time>
      </trkpt>
      <trkpt lat="46.48477" lon="8.2552">
        <ele>1460</ele>
        <time>2020-10-24T14:34:52.384Z</time>
      </trkpt>
      <trkpt lat="46.48478" lon="8.25521">
        <ele>1460</ele>
        <time>2020-10-24T14:34:53.384Z</time>
      </trkpt>
      <trkpt lat="46.48479" lon="8.25522">
        <ele>1459</ele>
        <time>2020-10-24T14:34:55.475Z</time>
      </trkpt>
      <trkpt lat="46.48479" lon="8.25523">
        <ele>1460</ele>
        <time>2020-10-24T14:34:56.475Z</time>
      </trkpt>
      <trkpt lat="46.4848" lon="8.25524">
        <ele>1460</ele>
        <time>2020-10-24T14:34:57.475Z</time>
      </trkpt>
      <trkpt lat="46.4848" lon="8.25526">
        <ele>1460</ele>
        <time>2020-10-24T14:34:58.474Z</time>
      </trkpt>
      <trkpt lat="46.48481" lon="8.25527">
        <ele>1459</ele>
        <time>2020-10-24T14:34:59.474Z</time>
      </trkpt>
      <trkpt lat="46.48482" lon="8.25528">
        <ele>1459</ele>
        <time>2020-10-24T14:35:00.474Z</time>
      </trkpt>
      <trkpt lat="46.48482" lon="8.2553">
        <ele>1459</ele>
        <time>2020-10-24T14:35:01.475Z</time>
      </trkpt>
      <trkpt lat="46.48483" lon="8.25531">
        <ele>1458</ele>
        <time>2020-10-24T14:35:02.475Z</time>
      </trkpt>
      <trkpt lat="46.48484" lon="8.25533">
        <ele>1459</ele>
        <time>2020-10-24T14:35:03.474Z</time>
      </trkpt>
      <trkpt lat="46.48484" lon="8.25534">
        <ele>1459</ele>
        <time>2020-10-24T14:35:04.474Z</time>
      </trkpt>
      <trkpt lat="46.48485" lon="8.25535">
        <ele>1458</ele>
        <time>2020-10-24T14:35:05.475Z</time>
      </trkpt>
      <trkpt lat="46.48486" lon="8.25537">
        <ele>1458</ele>
        <time>2020-10-24T14:35:06.475Z</time>
      </trkpt>
      <trkpt lat="46.48486" lon="8.25538">
        <ele>1458</ele>
        <time>2020-10-24T14:35:07.474Z</time>
      </trkpt>
      <trkpt lat="46.48487" lon="8.25539">
        <ele>1458</ele>
        <time>2020-10-24T14:35:08.474Z</time>
      </trkpt>
      <trkpt lat="46.48488" lon="8.2554">
        <ele>1458</ele>
        <time>2020-10-24T14:35:09.475Z</time>
      </trkpt>
      <trkpt lat="46.48489" lon="8.25541">
        <ele>1458</ele>
        <time>2020-10-24T14:35:10.475Z</time>
      </trkpt>
      <trkpt lat="46.4849" lon="8.25542">
        <ele>1458</ele>
        <time>2020-10-24T14:35:11.475Z</time>
      </trkpt>
      <trkpt lat="46.4849" lon="8.25544">
        <ele>1458</ele>
        <time>2020-10-24T14:35:12.474Z</time>
      </trkpt>
      <trkpt lat="46.48491" lon="8.25545">
        <ele>1457</ele>
        <time>2020-10-24T14:35:13.474Z</time>
      </trkpt>
      <trkpt lat="46.48491" lon="8.25546">
        <ele>1457</ele>
        <time>2020-10-24T14:35:14.475Z</time>
      </trkpt>
      <trkpt lat="46.48492" lon="8.25547">
        <ele>1457</ele>
        <time>2020-10-24T14:35:15.474Z</time>
      </trkpt>
      <trkpt lat="46.48493" lon="8.25549">
        <ele>1457</ele>
        <time>2020-10-24T14:35:16.474Z</time>
      </trkpt>
      <trkpt lat="46.48493" lon="8.2555">
        <ele>1457</ele>
        <time>2020-10-24T14:35:17.475Z</time>
      </trkpt>
      <trkpt lat="46.48494" lon="8.25551">
        <ele>1457</ele>
        <time>2020-10-24T14:35:19.495Z</time>
      </trkpt>
      <trkpt lat="46.48495" lon="8.25553">
        <ele>1457</ele>
        <time>2020-10-24T14:35:20.496Z</time>
      </trkpt>
      <trkpt lat="46.48496" lon="8.25554">
        <ele>1457</ele>
        <time>2020-10-24T14:35:21.496Z</time>
      </trkpt>
      <trkpt lat="46.48497" lon="8.25555">
        <ele>1457</ele>
        <time>2020-10-24T14:35:22.496Z</time>
      </trkpt>
      <trkpt lat="46.48497" lon="8.25556">
        <ele>1457</ele>
        <time>2020-10-24T14:35:23.496Z</time>
      </trkpt>
      <trkpt lat="46.48498" lon="8.25558">
        <ele>1456</ele>
        <time>2020-10-24T14:35:24.496Z</time>
      </trkpt>
      <trkpt lat="46.48499" lon="8.25559">
        <ele>1456</ele>
        <time>2020-10-24T14:35:25.495Z</time>
      </trkpt>
      <trkpt lat="46.48499" lon="8.25561">
        <ele>1456</ele>
        <time>2020-10-24T14:35:26.496Z</time>
      </trkpt>
      <trkpt lat="46.485" lon="8.25562">
        <ele>1457</ele>
        <time>2020-10-24T14:35:27.496Z</time>
      </trkpt>
      <trkpt lat="46.48501" lon="8.25564">
        <ele>1457</ele>
        <time>2020-10-24T14:35:28.495Z</time>
      </trkpt>
      <trkpt lat="46.48501" lon="8.25565">
        <ele>1457</ele>
        <time>2020-10-24T14:35:29.495Z</time>
      </trkpt>
      <trkpt lat="46.48502" lon="8.25566">
        <ele>1457</ele>
        <time>2020-10-24T14:35:30.496Z</time>
      </trkpt>
      <trkpt lat="46.48503" lon="8.25567">
        <ele>1457</ele>
        <time>2020-10-24T14:35:31.496Z</time>
      </trkpt>
      <trkpt lat="46.48503" lon="8.25569">
        <ele>1456</ele>
        <time>2020-10-24T14:35:32.496Z</time>
      </trkpt>
      <trkpt lat="46.48504" lon="8.2557">
        <ele>1456</ele>
        <time>2020-10-24T14:35:33.496Z</time>
      </trkpt>
      <trkpt lat="46.48505" lon="8.25571">
        <ele>1455</ele>
        <time>2020-10-24T14:35:34.496Z</time>
      </trkpt>
      <trkpt lat="46.48506" lon="8.25573">
        <ele>1455</ele>
        <time>2020-10-24T14:35:35.495Z</time>
      </trkpt>
      <trkpt lat="46.48507" lon="8.25575">
        <ele>1455</ele>
        <time>2020-10-24T14:35:36.495Z</time>
      </trkpt>
      <trkpt lat="46.48507" lon="8.25576">
        <ele>1456</ele>
        <time>2020-10-24T14:35:37.496Z</time>
      </trkpt>
      <trkpt lat="46.48508" lon="8.25578">
        <ele>1456</ele>
        <time>2020-10-24T14:35:38.496Z</time>
      </trkpt>
      <trkpt lat="46.48509" lon="8.25579">
        <ele>1456</ele>
        <time>2020-10-24T14:35:39.496Z</time>
      </trkpt>
      <trkpt lat="46.48509" lon="8.25581">
        <ele>1456</ele>
        <time>2020-10-24T14:35:42.472Z</time>
      </trkpt>
      <trkpt lat="46.4851" lon="8.25583">
        <ele>1456</ele>
        <time>2020-10-24T14:35:43.472Z</time>
      </trkpt>
      <trkpt lat="46.48511" lon="8.25584">
        <ele>1456</ele>
        <time>2020-10-24T14:35:44.472Z</time>
      </trkpt>
      <trkpt lat="46.48512" lon="8.25586">
        <ele>1456</ele>
        <time>2020-10-24T14:35:45.472Z</time>
      </trkpt>
      <trkpt lat="46.48513" lon="8.25587">
        <ele>1456</ele>
        <time>2020-10-24T14:35:46.472Z</time>
      </trkpt>
      <trkpt lat="46.48514" lon="8.25588">
        <ele>1455</ele>
        <time>2020-10-24T14:35:47.472Z</time>
      </trkpt>
      <trkpt lat="46.48515" lon="8.2559">
        <ele>1455</ele>
        <time>2020-10-24T14:35:48.472Z</time>
      </trkpt>
      <trkpt lat="46.48515" lon="8.25591">
        <ele>1455</ele>
        <time>2020-10-24T14:35:49.471Z</time>
      </trkpt>
      <trkpt lat="46.48516" lon="8.25592">
        <ele>1454</ele>
        <time>2020-10-24T14:35:50.472Z</time>
      </trkpt>
      <trkpt lat="46.48517" lon="8.25594">
        <ele>1454</ele>
        <time>2020-10-24T14:35:51.472Z</time>
      </trkpt>
      <trkpt lat="46.48517" lon="8.25595">
        <ele>1454</ele>
        <time>2020-10-24T14:35:52.472Z</time>
      </trkpt>
      <trkpt lat="46.48518" lon="8.25596">
        <ele>1453</ele>
        <time>2020-10-24T14:35:53.471Z</time>
      </trkpt>
      <trkpt lat="46.48519" lon="8.25598">
        <ele>1453</ele>
        <time>2020-10-24T14:35:54.472Z</time>
      </trkpt>
      <trkpt lat="46.48519" lon="8.25599">
        <ele>1453</ele>
        <time>2020-10-24T14:35:55.472Z</time>
      </trkpt>
      <trkpt lat="46.4852" lon="8.256">
        <ele>1453</ele>
        <time>2020-10-24T14:35:56.471Z</time>
      </trkpt>
      <trkpt lat="46.48521" lon="8.25602">
        <ele>1453</ele>
        <time>2020-10-24T14:35:57.471Z</time>
      </trkpt>
      <trkpt lat="46.48522" lon="8.25603">
        <ele>1452</ele>
        <time>2020-10-24T14:35:58.472Z</time>
      </trkpt>
      <trkpt lat="46.48523" lon="8.25604">
        <ele>1452</ele>
        <time>2020-10-24T14:35:59.472Z</time>
      </trkpt>
      <trkpt lat="46.48524" lon="8.25606">
        <ele>1452</ele>
        <time>2020-10-24T14:36:00.471Z</time>
      </trkpt>
      <trkpt lat="46.48525" lon="8.25607">
        <ele>1452</ele>
        <time>2020-10-24T14:36:01.472Z</time>
      </trkpt>
      <trkpt lat="46.48525" lon="8.25609">
        <ele>1452</ele>
        <time>2020-10-24T14:36:02.471Z</time>
      </trkpt>
      <trkpt lat="46.48526" lon="8.2561">
        <ele>1452</ele>
        <time>2020-10-24T14:36:03.472Z</time>
      </trkpt>
      <trkpt lat="46.48527" lon="8.25612">
        <ele>1452</ele>
        <time>2020-10-24T14:36:04.472Z</time>
      </trkpt>
      <trkpt lat="46.48527" lon="8.25613">
        <ele>1452</ele>
        <time>2020-10-24T14:36:05.472Z</time>
      </trkpt>
      <trkpt lat="46.48528" lon="8.25615">
        <ele>1452</ele>
        <time>2020-10-24T14:36:06.471Z</time>
      </trkpt>
      <trkpt lat="46.48529" lon="8.25616">
        <ele>1451</ele>
        <time>2020-10-24T14:36:07.471Z</time>
      </trkpt>
      <trkpt lat="46.48529" lon="8.25618">
        <ele>1452</ele>
        <time>2020-10-24T14:36:08.471Z</time>
      </trkpt>
      <trkpt lat="46.4853" lon="8.25619">
        <ele>1452</ele>
        <time>2020-10-24T14:36:09.472Z</time>
      </trkpt>
      <trkpt lat="46.48531" lon="8.2562">
        <ele>1452</ele>
        <time>2020-10-24T14:36:10.471Z</time>
      </trkpt>
      <trkpt lat="46.48531" lon="8.25621">
        <ele>1452</ele>
        <time>2020-10-24T14:36:11.472Z</time>
      </trkpt>
      <trkpt lat="46.48532" lon="8.25623">
        <ele>1452</ele>
        <time>2020-10-24T14:36:12.472Z</time>
      </trkpt>
      <trkpt lat="46.48533" lon="8.25625">
        <ele>1451</ele>
        <time>2020-10-24T14:36:13.472Z</time>
      </trkpt>
      <trkpt lat="46.48533" lon="8.25626">
        <ele>1451</ele>
        <time>2020-10-24T14:36:14.472Z</time>
      </trkpt>
      <trkpt lat="46.48533" lon="8.25628">
        <ele>1451</ele>
        <time>2020-10-24T14:36:15.472Z</time>
      </trkpt>
      <trkpt lat="46.48534" lon="8.25629">
        <ele>1451</ele>
        <time>2020-10-24T14:36:16.472Z</time>
      </trkpt>
      <trkpt lat="46.48535" lon="8.25631">
        <ele>1451</ele>
        <time>2020-10-24T14:36:17.471Z</time>
      </trkpt>
      <trkpt lat="46.48535" lon="8.25633">
        <ele>1451</ele>
        <time>2020-10-24T14:36:18.472Z</time>
      </trkpt>
      <trkpt lat="46.48536" lon="8.25634">
        <ele>1451</ele>
        <time>2020-10-24T14:36:19.472Z</time>
      </trkpt>
      <trkpt lat="46.48536" lon="8.25635">
        <ele>1451</ele>
        <time>2020-10-24T14:36:20.471Z</time>
      </trkpt>
      <trkpt lat="46.48537" lon="8.25635">
        <ele>1451</ele>
        <time>2020-10-24T14:36:21.472Z</time>
      </trkpt>
      <trkpt lat="46.48537" lon="8.25635">
        <ele>1450</ele>
        <time>2020-10-24T14:36:22.472Z</time>
      </trkpt>
      <trkpt lat="46.4854" lon="8.25635">
        <ele>1447</ele>
        <time>2020-10-24T14:36:23.473Z</time>
      </trkpt>
      <trkpt lat="46.4854" lon="8.25636">
        <ele>1447</ele>
        <time>2020-10-24T14:36:24.474Z</time>
      </trkpt>
      <trkpt lat="46.48541" lon="8.25637">
        <ele>1447</ele>
        <time>2020-10-24T14:36:25.473Z</time>
      </trkpt>
      <trkpt lat="46.48541" lon="8.25639">
        <ele>1447</ele>
        <time>2020-10-24T14:36:26.474Z</time>
      </trkpt>
      <trkpt lat="46.48542" lon="8.2564">
        <ele>1448</ele>
        <time>2020-10-24T14:36:27.473Z</time>
      </trkpt>
      <trkpt lat="46.48542" lon="8.25641">
        <ele>1448</ele>
        <time>2020-10-24T14:36:28.474Z</time>
      </trkpt>
      <trkpt lat="46.48543" lon="8.25642">
        <ele>1449</ele>
        <time>2020-10-24T14:36:29.474Z</time>
      </trkpt>
      <trkpt lat="46.48543" lon="8.25644">
        <ele>1449</ele>
        <time>2020-10-24T14:36:30.474Z</time>
      </trkpt>
      <trkpt lat="46.48544" lon="8.25645">
        <ele>1449</ele>
        <time>2020-10-24T14:36:31.473Z</time>
      </trkpt>
      <trkpt lat="46.48544" lon="8.25647">
        <ele>1449</ele>
        <time>2020-10-24T14:36:32.473Z</time>
      </trkpt>
      <trkpt lat="46.48545" lon="8.25649">
        <ele>1448</ele>
        <time>2020-10-24T14:36:33.474Z</time>
      </trkpt>
      <trkpt lat="46.48546" lon="8.2565">
        <ele>1448</ele>
        <time>2020-10-24T14:36:34.473Z</time>
      </trkpt>
      <trkpt lat="46.48546" lon="8.25652">
        <ele>1448</ele>
        <time>2020-10-24T14:36:35.474Z</time>
      </trkpt>
      <trkpt lat="46.48547" lon="8.25653">
        <ele>1447</ele>
        <time>2020-10-24T14:36:36.473Z</time>
      </trkpt>
      <trkpt lat="46.48547" lon="8.25655">
        <ele>1447</ele>
        <time>2020-10-24T14:36:37.474Z</time>
      </trkpt>
      <trkpt lat="46.48548" lon="8.25656">
        <ele>1446</ele>
        <time>2020-10-24T14:36:38.473Z</time>
      </trkpt>
      <trkpt lat="46.48548" lon="8.25657">
        <ele>1446</ele>
        <time>2020-10-24T14:36:39.474Z</time>
      </trkpt>
      <trkpt lat="46.48549" lon="8.25659">
        <ele>1446</ele>
        <time>2020-10-24T14:36:40.474Z</time>
      </trkpt>
      <trkpt lat="46.48549" lon="8.2566">
        <ele>1446</ele>
        <time>2020-10-24T14:36:41.473Z</time>
      </trkpt>
      <trkpt lat="46.48549" lon="8.25662">
        <ele>1446</ele>
        <time>2020-10-24T14:36:42.474Z</time>
      </trkpt>
      <trkpt lat="46.4855" lon="8.25663">
        <ele>1446</ele>
        <time>2020-10-24T14:36:43.473Z</time>
      </trkpt>
      <trkpt lat="46.48551" lon="8.25665">
        <ele>1445</ele>
        <time>2020-10-24T14:36:44.474Z</time>
      </trkpt>
      <trkpt lat="46.48551" lon="8.25666">
        <ele>1445</ele>
        <time>2020-10-24T14:36:45.473Z</time>
      </trkpt>
      <trkpt lat="46.48552" lon="8.25668">
        <ele>1445</ele>
        <time>2020-10-24T14:36:46.474Z</time>
      </trkpt>
      <trkpt lat="46.48552" lon="8.25669">
        <ele>1444</ele>
        <time>2020-10-24T14:36:47.473Z</time>
      </trkpt>
      <trkpt lat="46.48553" lon="8.2567">
        <ele>1444</ele>
        <time>2020-10-24T14:36:48.474Z</time>
      </trkpt>
      <trkpt lat="46.48554" lon="8.25671">
        <ele>1443</ele>
        <time>2020-10-24T14:36:49.474Z</time>
      </trkpt>
      <trkpt lat="46.48554" lon="8.2567">
        <ele>1443</ele>
        <time>2020-10-24T14:36:50.473Z</time>
      </trkpt>
      <trkpt lat="46.48554" lon="8.2567">
        <ele>1443</ele>
        <time>2020-10-24T14:36:51.473Z</time>
      </trkpt>
      <trkpt lat="46.48553" lon="8.2567">
        <ele>1445</ele>
        <time>2020-10-24T14:36:52.474Z</time>
      </trkpt>
      <trkpt lat="46.48553" lon="8.25669">
        <ele>1447</ele>
        <time>2020-10-24T14:36:53.473Z</time>
      </trkpt>
      <trkpt lat="46.48553" lon="8.2567">
        <ele>1448</ele>
        <time>2020-10-24T14:36:54.473Z</time>
      </trkpt>
      <trkpt lat="46.48553" lon="8.25671">
        <ele>1448</ele>
        <time>2020-10-24T14:36:55.473Z</time>
      </trkpt>
      <trkpt lat="46.48554" lon="8.25672">
        <ele>1447</ele>
        <time>2020-10-24T14:36:56.473Z</time>
      </trkpt>
      <trkpt lat="46.48554" lon="8.25673">
        <ele>1447</ele>
        <time>2020-10-24T14:36:57.473Z</time>
      </trkpt>
      <trkpt lat="46.48555" lon="8.25674">
        <ele>1447</ele>
        <time>2020-10-24T14:36:58.473Z</time>
      </trkpt>
      <trkpt lat="46.48556" lon="8.25676">
        <ele>1447</ele>
        <time>2020-10-24T14:36:59.473Z</time>
      </trkpt>
      <trkpt lat="46.48556" lon="8.25677">
        <ele>1447</ele>
        <time>2020-10-24T14:37:00.473Z</time>
      </trkpt>
      <trkpt lat="46.48557" lon="8.25679">
        <ele>1448</ele>
        <time>2020-10-24T14:37:01.473Z</time>
      </trkpt>
      <trkpt lat="46.48557" lon="8.25681">
        <ele>1448</ele>
        <time>2020-10-24T14:37:02.473Z</time>
      </trkpt>
      <trkpt lat="46.48557" lon="8.25682">
        <ele>1449</ele>
        <time>2020-10-24T14:37:03.473Z</time>
      </trkpt>
      <trkpt lat="46.48558" lon="8.25684">
        <ele>1449</ele>
        <time>2020-10-24T14:37:04.473Z</time>
      </trkpt>
      <trkpt lat="46.48558" lon="8.25686">
        <ele>1449</ele>
        <time>2020-10-24T14:37:05.473Z</time>
      </trkpt>
      <trkpt lat="46.48558" lon="8.25687">
        <ele>1448</ele>
        <time>2020-10-24T14:37:06.473Z</time>
      </trkpt>
      <trkpt lat="46.48558" lon="8.25689">
        <ele>1448</ele>
        <time>2020-10-24T14:37:07.473Z</time>
      </trkpt>
      <trkpt lat="46.48559" lon="8.2569">
        <ele>1448</ele>
        <time>2020-10-24T14:37:08.473Z</time>
      </trkpt>
      <trkpt lat="46.4856" lon="8.25691">
        <ele>1447</ele>
        <time>2020-10-24T14:37:09.473Z</time>
      </trkpt>
      <trkpt lat="46.4856" lon="8.25692">
        <ele>1447</ele>
        <time>2020-10-24T14:37:10.473Z</time>
      </trkpt>
      <trkpt lat="46.48561" lon="8.25693">
        <ele>1447</ele>
        <time>2020-10-24T14:37:11.473Z</time>
      </trkpt>
      <trkpt lat="46.48562" lon="8.25694">
        <ele>1447</ele>
        <time>2020-10-24T14:37:12.473Z</time>
      </trkpt>
      <trkpt lat="46.48562" lon="8.25696">
        <ele>1446</ele>
        <time>2020-10-24T14:37:13.473Z</time>
      </trkpt>
      <trkpt lat="46.48563" lon="8.25698">
        <ele>1445</ele>
        <time>2020-10-24T14:37:14.473Z</time>
      </trkpt>
      <trkpt lat="46.48564" lon="8.25699">
        <ele>1444</ele>
        <time>2020-10-24T14:37:15.473Z</time>
      </trkpt>
      <trkpt lat="46.48564" lon="8.25701">
        <ele>1443</ele>
        <time>2020-10-24T14:37:16.473Z</time>
      </trkpt>
      <trkpt lat="46.48565" lon="8.25702">
        <ele>1442</ele>
        <time>2020-10-24T14:37:17.473Z</time>
      </trkpt>
      <trkpt lat="46.48566" lon="8.25703">
        <ele>1442</ele>
        <time>2020-10-24T14:37:18.473Z</time>
      </trkpt>
      <trkpt lat="46.48567" lon="8.25704">
        <ele>1442</ele>
        <time>2020-10-24T14:37:19.473Z</time>
      </trkpt>
      <trkpt lat="46.48567" lon="8.25705">
        <ele>1441</ele>
        <time>2020-10-24T14:37:20.473Z</time>
      </trkpt>
      <trkpt lat="46.48568" lon="8.25707">
        <ele>1441</ele>
        <time>2020-10-24T14:37:21.473Z</time>
      </trkpt>
      <trkpt lat="46.48568" lon="8.25708">
        <ele>1441</ele>
        <time>2020-10-24T14:37:22.473Z</time>
      </trkpt>
      <trkpt lat="46.48569" lon="8.2571">
        <ele>1441</ele>
        <time>2020-10-24T14:37:23.473Z</time>
      </trkpt>
      <trkpt lat="46.4857" lon="8.25711">
        <ele>1441</ele>
        <time>2020-10-24T14:37:24.473Z</time>
      </trkpt>
      <trkpt lat="46.4857" lon="8.25712">
        <ele>1441</ele>
        <time>2020-10-24T14:37:25.473Z</time>
      </trkpt>
      <trkpt lat="46.48571" lon="8.25714">
        <ele>1441</ele>
        <time>2020-10-24T14:37:26.473Z</time>
      </trkpt>
      <trkpt lat="46.48572" lon="8.25715">
        <ele>1441</ele>
        <time>2020-10-24T14:37:27.473Z</time>
      </trkpt>
      <trkpt lat="46.48572" lon="8.25717">
        <ele>1441</ele>
        <time>2020-10-24T14:37:28.473Z</time>
      </trkpt>
      <trkpt lat="46.48573" lon="8.25718">
        <ele>1441</ele>
        <time>2020-10-24T14:37:29.473Z</time>
      </trkpt>
      <trkpt lat="46.48574" lon="8.2572">
        <ele>1441</ele>
        <time>2020-10-24T14:37:30.473Z</time>
      </trkpt>
      <trkpt lat="46.48574" lon="8.25721">
        <ele>1441</ele>
        <time>2020-10-24T14:37:31.473Z</time>
      </trkpt>
      <trkpt lat="46.48575" lon="8.25723">
        <ele>1441</ele>
        <time>2020-10-24T14:37:32.473Z</time>
      </trkpt>
      <trkpt lat="46.48576" lon="8.25724">
        <ele>1441</ele>
        <time>2020-10-24T14:37:33.473Z</time>
      </trkpt>
      <trkpt lat="46.48576" lon="8.25725">
        <ele>1441</ele>
        <time>2020-10-24T14:37:34.473Z</time>
      </trkpt>
      <trkpt lat="46.48577" lon="8.25727">
        <ele>1441</ele>
        <time>2020-10-24T14:37:35.473Z</time>
      </trkpt>
      <trkpt lat="46.48577" lon="8.25728">
        <ele>1441</ele>
        <time>2020-10-24T14:37:36.473Z</time>
      </trkpt>
      <trkpt lat="46.48578" lon="8.2573">
        <ele>1440</ele>
        <time>2020-10-24T14:37:37.473Z</time>
      </trkpt>
      <trkpt lat="46.48579" lon="8.25731">
        <ele>1441</ele>
        <time>2020-10-24T14:37:38.473Z</time>
      </trkpt>
      <trkpt lat="46.48579" lon="8.25733">
        <ele>1441</ele>
        <time>2020-10-24T14:37:39.473Z</time>
      </trkpt>
      <trkpt lat="46.4858" lon="8.25734">
        <ele>1441</ele>
        <time>2020-10-24T14:37:40.473Z</time>
      </trkpt>
      <trkpt lat="46.48581" lon="8.25735">
        <ele>1441</ele>
        <time>2020-10-24T14:37:41.473Z</time>
      </trkpt>
      <trkpt lat="46.48582" lon="8.25737">
        <ele>1441</ele>
        <time>2020-10-24T14:37:42.473Z</time>
      </trkpt>
      <trkpt lat="46.48582" lon="8.25739">
        <ele>1441</ele>
        <time>2020-10-24T14:37:43.473Z</time>
      </trkpt>
      <trkpt lat="46.48583" lon="8.2574">
        <ele>1441</ele>
        <time>2020-10-24T14:37:44.473Z</time>
      </trkpt>
      <trkpt lat="46.48584" lon="8.25741">
        <ele>1441</ele>
        <time>2020-10-24T14:37:45.473Z</time>
      </trkpt>
      <trkpt lat="46.48584" lon="8.25743">
        <ele>1441</ele>
        <time>2020-10-24T14:37:46.473Z</time>
      </trkpt>
      <trkpt lat="46.48585" lon="8.25744">
        <ele>1441</ele>
        <time>2020-10-24T14:37:47.473Z</time>
      </trkpt>
      <trkpt lat="46.48585" lon="8.25746">
        <ele>1442</ele>
        <time>2020-10-24T14:37:48.473Z</time>
      </trkpt>
      <trkpt lat="46.48586" lon="8.25748">
        <ele>1442</ele>
        <time>2020-10-24T14:37:49.473Z</time>
      </trkpt>
      <trkpt lat="46.48586" lon="8.2575">
        <ele>1443</ele>
        <time>2020-10-24T14:37:50.473Z</time>
      </trkpt>
      <trkpt lat="46.48587" lon="8.25752">
        <ele>1443</ele>
        <time>2020-10-24T14:37:51.473Z</time>
      </trkpt>
      <trkpt lat="46.48587" lon="8.25754">
        <ele>1443</ele>
        <time>2020-10-24T14:37:52.473Z</time>
      </trkpt>
      <trkpt lat="46.48588" lon="8.25755">
        <ele>1444</ele>
        <time>2020-10-24T14:37:53.473Z</time>
      </trkpt>
      <trkpt lat="46.48588" lon="8.25757">
        <ele>1444</ele>
        <time>2020-10-24T14:37:54.473Z</time>
      </trkpt>
      <trkpt lat="46.48589" lon="8.25759">
        <ele>1445</ele>
        <time>2020-10-24T14:37:55.473Z</time>
      </trkpt>
      <trkpt lat="46.4859" lon="8.2576">
        <ele>1444</ele>
        <time>2020-10-24T14:37:56.473Z</time>
      </trkpt>
      <trkpt lat="46.48591" lon="8.25762">
        <ele>1443</ele>
        <time>2020-10-24T14:37:57.473Z</time>
      </trkpt>
      <trkpt lat="46.48591" lon="8.25763">
        <ele>1443</ele>
        <time>2020-10-24T14:37:58.473Z</time>
      </trkpt>
      <trkpt lat="46.48591" lon="8.25764">
        <ele>1442</ele>
        <time>2020-10-24T14:37:59.473Z</time>
      </trkpt>
      <trkpt lat="46.48592" lon="8.25765">
        <ele>1442</ele>
        <time>2020-10-24T14:38:00.473Z</time>
      </trkpt>
      <trkpt lat="46.48593" lon="8.25767">
        <ele>1442</ele>
        <time>2020-10-24T14:38:01.473Z</time>
      </trkpt>
      <trkpt lat="46.48594" lon="8.25768">
        <ele>1441</ele>
        <time>2020-10-24T14:38:02.473Z</time>
      </trkpt>
      <trkpt lat="46.48595" lon="8.2577">
        <ele>1441</ele>
        <time>2020-10-24T14:38:03.473Z</time>
      </trkpt>
      <trkpt lat="46.48595" lon="8.25772">
        <ele>1441</ele>
        <time>2020-10-24T14:38:04.473Z</time>
      </trkpt>
      <trkpt lat="46.48596" lon="8.25773">
        <ele>1441</ele>
        <time>2020-10-24T14:38:05.473Z</time>
      </trkpt>
      <trkpt lat="46.48596" lon="8.25775">
        <ele>1441</ele>
        <time>2020-10-24T14:38:06.473Z</time>
      </trkpt>
      <trkpt lat="46.48597" lon="8.25777">
        <ele>1441</ele>
        <time>2020-10-24T14:38:07.473Z</time>
      </trkpt>
      <trkpt lat="46.48597" lon="8.25779">
        <ele>1441</ele>
        <time>2020-10-24T14:38:08.473Z</time>
      </trkpt>
      <trkpt lat="46.48598" lon="8.2578">
        <ele>1441</ele>
        <time>2020-10-24T14:38:09.473Z</time>
      </trkpt>
      <trkpt lat="46.48599" lon="8.25781">
        <ele>1440</ele>
        <time>2020-10-24T14:38:10.473Z</time>
      </trkpt>
      <trkpt lat="46.48599" lon="8.25783">
        <ele>1440</ele>
        <time>2020-10-24T14:38:11.473Z</time>
      </trkpt>
      <trkpt lat="46.486" lon="8.25785">
        <ele>1439</ele>
        <time>2020-10-24T14:38:12.473Z</time>
      </trkpt>
      <trkpt lat="46.486" lon="8.25787">
        <ele>1439</ele>
        <time>2020-10-24T14:38:13.473Z</time>
      </trkpt>
      <trkpt lat="46.486" lon="8.25789">
        <ele>1439</ele>
        <time>2020-10-24T14:38:14.473Z</time>
      </trkpt>
      <trkpt lat="46.48601" lon="8.2579">
        <ele>1439</ele>
        <time>2020-10-24T14:38:15.473Z</time>
      </trkpt>
      <trkpt lat="46.48602" lon="8.25791">
        <ele>1439</ele>
        <time>2020-10-24T14:38:16.473Z</time>
      </trkpt>
      <trkpt lat="46.48603" lon="8.25793">
        <ele>1439</ele>
        <time>2020-10-24T14:38:17.473Z</time>
      </trkpt>
      <trkpt lat="46.48603" lon="8.25794">
        <ele>1439</ele>
        <time>2020-10-24T14:38:18.473Z</time>
      </trkpt>
      <trkpt lat="46.48604" lon="8.25795">
        <ele>1439</ele>
        <time>2020-10-24T14:38:19.473Z</time>
      </trkpt>
      <trkpt lat="46.48605" lon="8.25797">
        <ele>1438</ele>
        <time>2020-10-24T14:38:20.473Z</time>
      </trkpt>
      <trkpt lat="46.48606" lon="8.25798">
        <ele>1438</ele>
        <time>2020-10-24T14:38:21.473Z</time>
      </trkpt>
      <trkpt lat="46.48606" lon="8.25799">
        <ele>1438</ele>
        <time>2020-10-24T14:38:22.473Z</time>
      </trkpt>
      <trkpt lat="46.48607" lon="8.258">
        <ele>1437</ele>
        <time>2020-10-24T14:38:23.473Z</time>
      </trkpt>
      <trkpt lat="46.48608" lon="8.25801">
        <ele>1437</ele>
        <time>2020-10-24T14:38:24.473Z</time>
      </trkpt>
      <trkpt lat="46.48609" lon="8.25802">
        <ele>1436</ele>
        <time>2020-10-24T14:38:25.473Z</time>
      </trkpt>
      <trkpt lat="46.48609" lon="8.25804">
        <ele>1436</ele>
        <time>2020-10-24T14:38:26.473Z</time>
      </trkpt>
      <trkpt lat="46.4861" lon="8.25805">
        <ele>1436</ele>
        <time>2020-10-24T14:38:27.473Z</time>
      </trkpt>
      <trkpt lat="46.48611" lon="8.25806">
        <ele>1435</ele>
        <time>2020-10-24T14:38:28.473Z</time>
      </trkpt>
      <trkpt lat="46.48612" lon="8.25807">
        <ele>1434</ele>
        <time>2020-10-24T14:38:29.473Z</time>
      </trkpt>
      <trkpt lat="46.48613" lon="8.25809">
        <ele>1434</ele>
        <time>2020-10-24T14:38:30.473Z</time>
      </trkpt>
      <trkpt lat="46.48613" lon="8.2581">
        <ele>1433</ele>
        <time>2020-10-24T14:38:31.473Z</time>
      </trkpt>
      <trkpt lat="46.48614" lon="8.25812">
        <ele>1433</ele>
        <time>2020-10-24T14:38:32.473Z</time>
      </trkpt>
      <trkpt lat="46.48615" lon="8.25813">
        <ele>1433</ele>
        <time>2020-10-24T14:38:33.473Z</time>
      </trkpt>
      <trkpt lat="46.48615" lon="8.25815">
        <ele>1432</ele>
        <time>2020-10-24T14:38:34.473Z</time>
      </trkpt>
      <trkpt lat="46.48616" lon="8.25817">
        <ele>1432</ele>
        <time>2020-10-24T14:38:35.473Z</time>
      </trkpt>
      <trkpt lat="46.48616" lon="8.25819">
        <ele>1432</ele>
        <time>2020-10-24T14:38:36.473Z</time>
      </trkpt>
      <trkpt lat="46.48617" lon="8.2582">
        <ele>1432</ele>
        <time>2020-10-24T14:38:37.473Z</time>
      </trkpt>
      <trkpt lat="46.48618" lon="8.25822">
        <ele>1432</ele>
        <time>2020-10-24T14:38:38.473Z</time>
      </trkpt>
      <trkpt lat="46.48618" lon="8.25824">
        <ele>1432</ele>
        <time>2020-10-24T14:38:39.473Z</time>
      </trkpt>
      <trkpt lat="46.48619" lon="8.25825">
        <ele>1432</ele>
        <time>2020-10-24T14:38:40.473Z</time>
      </trkpt>
      <trkpt lat="46.4862" lon="8.25826">
        <ele>1433</ele>
        <time>2020-10-24T14:38:41.473Z</time>
      </trkpt>
      <trkpt lat="46.4862" lon="8.25828">
        <ele>1432</ele>
        <time>2020-10-24T14:38:42.473Z</time>
      </trkpt>
      <trkpt lat="46.48621" lon="8.25829">
        <ele>1432</ele>
        <time>2020-10-24T14:38:43.473Z</time>
      </trkpt>
      <trkpt lat="46.48622" lon="8.25831">
        <ele>1432</ele>
        <time>2020-10-24T14:38:44.473Z</time>
      </trkpt>
      <trkpt lat="46.48622" lon="8.25832">
        <ele>1432</ele>
        <time>2020-10-24T14:38:45.473Z</time>
      </trkpt>
      <trkpt lat="46.48623" lon="8.25833">
        <ele>1432</ele>
        <time>2020-10-24T14:38:46.473Z</time>
      </trkpt>
      <trkpt lat="46.48623" lon="8.25835">
        <ele>1431</ele>
        <time>2020-10-24T14:38:47.473Z</time>
      </trkpt>
      <trkpt lat="46.48624" lon="8.25836">
        <ele>1431</ele>
        <time>2020-10-24T14:38:48.473Z</time>
      </trkpt>
      <trkpt lat="46.48625" lon="8.25838">
        <ele>1431</ele>
        <time>2020-10-24T14:38:49.473Z</time>
      </trkpt>
      <trkpt lat="46.48626" lon="8.25839">
        <ele>1431</ele>
        <time>2020-10-24T14:38:50.473Z</time>
      </trkpt>
      <trkpt lat="46.48626" lon="8.2584">
        <ele>1431</ele>
        <time>2020-10-24T14:38:51.473Z</time>
      </trkpt>
      <trkpt lat="46.48627" lon="8.25841">
        <ele>1431</ele>
        <time>2020-10-24T14:38:52.473Z</time>
      </trkpt>
      <trkpt lat="46.48628" lon="8.25843">
        <ele>1431</ele>
        <time>2020-10-24T14:38:53.473Z</time>
      </trkpt>
      <trkpt lat="46.48629" lon="8.25844">
        <ele>1431</ele>
        <time>2020-10-24T14:38:54.473Z</time>
      </trkpt>
      <trkpt lat="46.48629" lon="8.25846">
        <ele>1431</ele>
        <time>2020-10-24T14:38:55.473Z</time>
      </trkpt>
      <trkpt lat="46.4863" lon="8.25848">
        <ele>1431</ele>
        <time>2020-10-24T14:38:56.473Z</time>
      </trkpt>
      <trkpt lat="46.48631" lon="8.25849">
        <ele>1430</ele>
        <time>2020-10-24T14:38:57.473Z</time>
      </trkpt>
      <trkpt lat="46.48631" lon="8.25851">
        <ele>1430</ele>
        <time>2020-10-24T14:38:58.473Z</time>
      </trkpt>
      <trkpt lat="46.48632" lon="8.25852">
        <ele>1430</ele>
        <time>2020-10-24T14:38:59.473Z</time>
      </trkpt>
      <trkpt lat="46.48633" lon="8.25853">
        <ele>1430</ele>
        <time>2020-10-24T14:39:00.473Z</time>
      </trkpt>
      <trkpt lat="46.48633" lon="8.25855">
        <ele>1430</ele>
        <time>2020-10-24T14:39:01.473Z</time>
      </trkpt>
      <trkpt lat="46.48634" lon="8.25856">
        <ele>1430</ele>
        <time>2020-10-24T14:39:02.473Z</time>
      </trkpt>
      <trkpt lat="46.48634" lon="8.25857">
        <ele>1430</ele>
        <time>2020-10-24T14:39:03.473Z</time>
      </trkpt>
      <trkpt lat="46.48635" lon="8.25859">
        <ele>1429</ele>
        <time>2020-10-24T14:39:04.473Z</time>
      </trkpt>
      <trkpt lat="46.48636" lon="8.2586">
        <ele>1429</ele>
        <time>2020-10-24T14:39:05.473Z</time>
      </trkpt>
      <trkpt lat="46.48636" lon="8.25862">
        <ele>1428</ele>
        <time>2020-10-24T14:39:06.473Z</time>
      </trkpt>
      <trkpt lat="46.48637" lon="8.25863">
        <ele>1428</ele>
        <time>2020-10-24T14:39:07.473Z</time>
      </trkpt>
      <trkpt lat="46.48638" lon="8.25864">
        <ele>1428</ele>
        <time>2020-10-24T14:39:08.473Z</time>
      </trkpt>
      <trkpt lat="46.48639" lon="8.25866">
        <ele>1428</ele>
        <time>2020-10-24T14:39:09.473Z</time>
      </trkpt>
      <trkpt lat="46.48639" lon="8.25868">
        <ele>1428</ele>
        <time>2020-10-24T14:39:10.473Z</time>
      </trkpt>
      <trkpt lat="46.4864" lon="8.25869">
        <ele>1428</ele>
        <time>2020-10-24T14:39:11.473Z</time>
      </trkpt>
      <trkpt lat="46.48641" lon="8.25871">
        <ele>1428</ele>
        <time>2020-10-24T14:39:12.473Z</time>
      </trkpt>
      <trkpt lat="46.48642" lon="8.25872">
        <ele>1427</ele>
        <time>2020-10-24T14:39:13.473Z</time>
      </trkpt>
      <trkpt lat="46.48643" lon="8.25874">
        <ele>1428</ele>
        <time>2020-10-24T14:39:14.473Z</time>
      </trkpt>
      <trkpt lat="46.48643" lon="8.25875">
        <ele>1427</ele>
        <time>2020-10-24T14:39:15.473Z</time>
      </trkpt>
      <trkpt lat="46.48644" lon="8.25877">
        <ele>1427</ele>
        <time>2020-10-24T14:39:16.473Z</time>
      </trkpt>
      <trkpt lat="46.48645" lon="8.25878">
        <ele>1427</ele>
        <time>2020-10-24T14:39:17.473Z</time>
      </trkpt>
      <trkpt lat="46.48645" lon="8.2588">
        <ele>1427</ele>
        <time>2020-10-24T14:39:18.473Z</time>
      </trkpt>
      <trkpt lat="46.48646" lon="8.25881">
        <ele>1427</ele>
        <time>2020-10-24T14:39:19.473Z</time>
      </trkpt>
      <trkpt lat="46.48646" lon="8.25883">
        <ele>1427</ele>
        <time>2020-10-24T14:39:20.473Z</time>
      </trkpt>
      <trkpt lat="46.48647" lon="8.25885">
        <ele>1427</ele>
        <time>2020-10-24T14:39:21.473Z</time>
      </trkpt>
      <trkpt lat="46.48647" lon="8.25887">
        <ele>1427</ele>
        <time>2020-10-24T14:39:22.473Z</time>
      </trkpt>
      <trkpt lat="46.48647" lon="8.25888">
        <ele>1427</ele>
        <time>2020-10-24T14:39:23.473Z</time>
      </trkpt>
      <trkpt lat="46.48647" lon="8.2589">
        <ele>1427</ele>
        <time>2020-10-24T14:39:24.473Z</time>
      </trkpt>
      <trkpt lat="46.48647" lon="8.25892">
        <ele>1427</ele>
        <time>2020-10-24T14:39:25.473Z</time>
      </trkpt>
      <trkpt lat="46.48647" lon="8.25893">
        <ele>1427</ele>
        <time>2020-10-24T14:39:26.473Z</time>
      </trkpt>
      <trkpt lat="46.48647" lon="8.25895">
        <ele>1426</ele>
        <time>2020-10-24T14:39:27.473Z</time>
      </trkpt>
      <trkpt lat="46.48646" lon="8.25897">
        <ele>1425</ele>
        <time>2020-10-24T14:39:28.473Z</time>
      </trkpt>
      <trkpt lat="46.48646" lon="8.25898">
        <ele>1425</ele>
        <time>2020-10-24T14:39:29.473Z</time>
      </trkpt>
      <trkpt lat="46.48645" lon="8.259">
        <ele>1424</ele>
        <time>2020-10-24T14:39:30.473Z</time>
      </trkpt>
      <trkpt lat="46.48645" lon="8.25901">
        <ele>1424</ele>
        <time>2020-10-24T14:39:31.473Z</time>
      </trkpt>
      <trkpt lat="46.48644" lon="8.25902">
        <ele>1424</ele>
        <time>2020-10-24T14:39:32.473Z</time>
      </trkpt>
      <trkpt lat="46.48643" lon="8.25904">
        <ele>1424</ele>
        <time>2020-10-24T14:39:34.513Z</time>
      </trkpt>
      <trkpt lat="46.48642" lon="8.25905">
        <ele>1425</ele>
        <time>2020-10-24T14:39:35.513Z</time>
      </trkpt>
      <trkpt lat="46.48641" lon="8.25906">
        <ele>1425</ele>
        <time>2020-10-24T14:39:36.513Z</time>
      </trkpt>
      <trkpt lat="46.4864" lon="8.25907">
        <ele>1426</ele>
        <time>2020-10-24T14:39:37.513Z</time>
      </trkpt>
      <trkpt lat="46.48639" lon="8.25909">
        <ele>1426</ele>
        <time>2020-10-24T14:39:38.513Z</time>
      </trkpt>
      <trkpt lat="46.48638" lon="8.25911">
        <ele>1426</ele>
        <time>2020-10-24T14:39:42.612Z</time>
      </trkpt>
      <trkpt lat="46.48638" lon="8.25913">
        <ele>1425</ele>
        <time>2020-10-24T14:39:43.612Z</time>
      </trkpt>
      <trkpt lat="46.48637" lon="8.25915">
        <ele>1425</ele>
        <time>2020-10-24T14:39:44.612Z</time>
      </trkpt>
      <trkpt lat="46.48637" lon="8.25916">
        <ele>1425</ele>
        <time>2020-10-24T14:39:45.612Z</time>
      </trkpt>
      <trkpt lat="46.48636" lon="8.25918">
        <ele>1425</ele>
        <time>2020-10-24T14:39:46.612Z</time>
      </trkpt>
      <trkpt lat="46.48636" lon="8.2592">
        <ele>1425</ele>
        <time>2020-10-24T14:39:47.612Z</time>
      </trkpt>
      <trkpt lat="46.48636" lon="8.25921">
        <ele>1424</ele>
        <time>2020-10-24T14:39:48.612Z</time>
      </trkpt>
      <trkpt lat="46.48636" lon="8.25923">
        <ele>1424</ele>
        <time>2020-10-24T14:39:50.617Z</time>
      </trkpt>
      <trkpt lat="46.48637" lon="8.25925">
        <ele>1424</ele>
        <time>2020-10-24T14:39:51.617Z</time>
      </trkpt>
      <trkpt lat="46.48637" lon="8.25927">
        <ele>1425</ele>
        <time>2020-10-24T14:39:52.617Z</time>
      </trkpt>
      <trkpt lat="46.48637" lon="8.25928">
        <ele>1425</ele>
        <time>2020-10-24T14:39:54.638Z</time>
      </trkpt>
      <trkpt lat="46.48638" lon="8.2593">
        <ele>1424</ele>
        <time>2020-10-24T14:39:55.638Z</time>
      </trkpt>
      <trkpt lat="46.48639" lon="8.25932">
        <ele>1424</ele>
        <time>2020-10-24T14:39:56.638Z</time>
      </trkpt>
      <trkpt lat="46.4864" lon="8.25933">
        <ele>1424</ele>
        <time>2020-10-24T14:39:57.638Z</time>
      </trkpt>
      <trkpt lat="46.4864" lon="8.25935">
        <ele>1423</ele>
        <time>2020-10-24T14:39:58.638Z</time>
      </trkpt>
      <trkpt lat="46.48641" lon="8.25936">
        <ele>1423</ele>
        <time>2020-10-24T14:39:59.638Z</time>
      </trkpt>
      <trkpt lat="46.48642" lon="8.25938">
        <ele>1423</ele>
        <time>2020-10-24T14:40:23.609Z</time>
      </trkpt>
      <trkpt lat="46.48643" lon="8.25939">
        <ele>1422</ele>
        <time>2020-10-24T14:40:24.609Z</time>
      </trkpt>
      <trkpt lat="46.48643" lon="8.25941">
        <ele>1422</ele>
        <time>2020-10-24T14:40:25.609Z</time>
      </trkpt>
      <trkpt lat="46.48644" lon="8.25942">
        <ele>1422</ele>
        <time>2020-10-24T14:40:26.609Z</time>
      </trkpt>
      <trkpt lat="46.48644" lon="8.25944">
        <ele>1422</ele>
        <time>2020-10-24T14:40:27.609Z</time>
      </trkpt>
      <trkpt lat="46.48645" lon="8.25945">
        <ele>1422</ele>
        <time>2020-10-24T14:40:28.609Z</time>
      </trkpt>
      <trkpt lat="46.48646" lon="8.25946">
        <ele>1422</ele>
        <time>2020-10-24T14:40:29.609Z</time>
      </trkpt>
      <trkpt lat="46.48647" lon="8.25948">
        <ele>1423</ele>
        <time>2020-10-24T14:40:30.609Z</time>
      </trkpt>
      <trkpt lat="46.48648" lon="8.25949">
        <ele>1423</ele>
        <time>2020-10-24T14:40:31.609Z</time>
      </trkpt>
      <trkpt lat="46.48649" lon="8.2595">
        <ele>1423</ele>
        <time>2020-10-24T14:40:32.609Z</time>
      </trkpt>
      <trkpt lat="46.4865" lon="8.25951">
        <ele>1423</ele>
        <time>2020-10-24T14:40:33.609Z</time>
      </trkpt>
      <trkpt lat="46.4865" lon="8.25953">
        <ele>1423</ele>
        <time>2020-10-24T14:40:34.609Z</time>
      </trkpt>
      <trkpt lat="46.48651" lon="8.25955">
        <ele>1423</ele>
        <time>2020-10-24T14:40:35.609Z</time>
      </trkpt>
      <trkpt lat="46.48651" lon="8.25956">
        <ele>1423</ele>
        <time>2020-10-24T14:40:36.609Z</time>
      </trkpt>
      <trkpt lat="46.48652" lon="8.25958">
        <ele>1423</ele>
        <time>2020-10-24T14:40:37.609Z</time>
      </trkpt>
      <trkpt lat="46.48652" lon="8.2596">
        <ele>1423</ele>
        <time>2020-10-24T14:40:38.609Z</time>
      </trkpt>
      <trkpt lat="46.48652" lon="8.25961">
        <ele>1422</ele>
        <time>2020-10-24T14:40:39.609Z</time>
      </trkpt>
      <trkpt lat="46.48653" lon="8.25963">
        <ele>1422</ele>
        <time>2020-10-24T14:40:40.609Z</time>
      </trkpt>
      <trkpt lat="46.48654" lon="8.25964">
        <ele>1422</ele>
        <time>2020-10-24T14:40:41.609Z</time>
      </trkpt>
      <trkpt lat="46.48655" lon="8.25966">
        <ele>1422</ele>
        <time>2020-10-24T14:40:42.609Z</time>
      </trkpt>
      <trkpt lat="46.48655" lon="8.25969">
        <ele>1422</ele>
        <time>2020-10-24T14:40:43.609Z</time>
      </trkpt>
      <trkpt lat="46.48656" lon="8.2597">
        <ele>1421</ele>
        <time>2020-10-24T14:40:44.609Z</time>
      </trkpt>
      <trkpt lat="46.48656" lon="8.25972">
        <ele>1421</ele>
        <time>2020-10-24T14:40:45.609Z</time>
      </trkpt>
      <trkpt lat="46.48656" lon="8.25974">
        <ele>1421</ele>
        <time>2020-10-24T14:40:46.609Z</time>
      </trkpt>
      <trkpt lat="46.48656" lon="8.25975">
        <ele>1421</ele>
        <time>2020-10-24T14:40:47.609Z</time>
      </trkpt>
      <trkpt lat="46.48657" lon="8.25975">
        <ele>1421</ele>
        <time>2020-10-24T14:40:48.609Z</time>
      </trkpt>
      <trkpt lat="46.48657" lon="8.25976">
        <ele>1421</ele>
        <time>2020-10-24T14:40:49.609Z</time>
      </trkpt>
      <trkpt lat="46.48657" lon="8.25977">
        <ele>1421</ele>
        <time>2020-10-24T14:40:50.609Z</time>
      </trkpt>
      <trkpt lat="46.48657" lon="8.25978">
        <ele>1422</ele>
        <time>2020-10-24T14:40:51.609Z</time>
      </trkpt>
      <trkpt lat="46.48657" lon="8.2598">
        <ele>1422</ele>
        <time>2020-10-24T14:40:52.609Z</time>
      </trkpt>
      <trkpt lat="46.48657" lon="8.25981">
        <ele>1423</ele>
        <time>2020-10-24T14:40:53.609Z</time>
      </trkpt>
      <trkpt lat="46.48658" lon="8.25982">
        <ele>1424</ele>
        <time>2020-10-24T14:40:54.609Z</time>
      </trkpt>
      <trkpt lat="46.48658" lon="8.25984">
        <ele>1425</ele>
        <time>2020-10-24T14:40:55.609Z</time>
      </trkpt>
      <trkpt lat="46.48658" lon="8.25985">
        <ele>1425</ele>
        <time>2020-10-24T14:40:56.609Z</time>
      </trkpt>
      <trkpt lat="46.48659" lon="8.25986">
        <ele>1425</ele>
        <time>2020-10-24T14:40:57.609Z</time>
      </trkpt>
      <trkpt lat="46.4866" lon="8.25988">
        <ele>1425</ele>
        <time>2020-10-24T14:40:58.609Z</time>
      </trkpt>
      <trkpt lat="46.48661" lon="8.2599">
        <ele>1425</ele>
        <time>2020-10-24T14:40:59.609Z</time>
      </trkpt>
      <trkpt lat="46.48661" lon="8.25992">
        <ele>1425</ele>
        <time>2020-10-24T14:41:00.609Z</time>
      </trkpt>
      <trkpt lat="46.48662" lon="8.25995">
        <ele>1425</ele>
        <time>2020-10-24T14:41:01.609Z</time>
      </trkpt>
      <trkpt lat="46.48662" lon="8.25997">
        <ele>1425</ele>
        <time>2020-10-24T14:41:02.609Z</time>
      </trkpt>
      <trkpt lat="46.48663" lon="8.25999">
        <ele>1425</ele>
        <time>2020-10-24T14:41:03.609Z</time>
      </trkpt>
      <trkpt lat="46.48663" lon="8.26001">
        <ele>1426</ele>
        <time>2020-10-24T14:41:04.609Z</time>
      </trkpt>
      <trkpt lat="46.48664" lon="8.26003">
        <ele>1426</ele>
        <time>2020-10-24T14:41:05.609Z</time>
      </trkpt>
      <trkpt lat="46.48665" lon="8.26004">
        <ele>1426</ele>
        <time>2020-10-24T14:41:06.609Z</time>
      </trkpt>
      <trkpt lat="46.48666" lon="8.26006">
        <ele>1426</ele>
        <time>2020-10-24T14:41:07.609Z</time>
      </trkpt>
      <trkpt lat="46.48666" lon="8.26007">
        <ele>1426</ele>
        <time>2020-10-24T14:41:08.609Z</time>
      </trkpt>
      <trkpt lat="46.48667" lon="8.26008">
        <ele>1426</ele>
        <time>2020-10-24T14:41:09.609Z</time>
      </trkpt>
      <trkpt lat="46.48668" lon="8.26008">
        <ele>1425</ele>
        <time>2020-10-24T14:41:10.609Z</time>
      </trkpt>
      <trkpt lat="46.48668" lon="8.26009">
        <ele>1425</ele>
        <time>2020-10-24T14:41:11.609Z</time>
      </trkpt>
      <trkpt lat="46.48669" lon="8.2601">
        <ele>1424</ele>
        <time>2020-10-24T14:41:12.609Z</time>
      </trkpt>
      <trkpt lat="46.4867" lon="8.26011">
        <ele>1424</ele>
        <time>2020-10-24T14:41:13.609Z</time>
      </trkpt>
      <trkpt lat="46.48671" lon="8.26012">
        <ele>1423</ele>
        <time>2020-10-24T14:41:14.609Z</time>
      </trkpt>
      <trkpt lat="46.48671" lon="8.26013">
        <ele>1423</ele>
        <time>2020-10-24T14:41:15.609Z</time>
      </trkpt>
      <trkpt lat="46.48672" lon="8.26013">
        <ele>1422</ele>
        <time>2020-10-24T14:41:16.609Z</time>
      </trkpt>
      <trkpt lat="46.48673" lon="8.26014">
        <ele>1422</ele>
        <time>2020-10-24T14:41:17.609Z</time>
      </trkpt>
      <trkpt lat="46.48674" lon="8.26015">
        <ele>1421</ele>
        <time>2020-10-24T14:41:18.609Z</time>
      </trkpt>
      <trkpt lat="46.48675" lon="8.26016">
        <ele>1421</ele>
        <time>2020-10-24T14:41:19.609Z</time>
      </trkpt>
      <trkpt lat="46.48676" lon="8.26017">
        <ele>1420</ele>
        <time>2020-10-24T14:41:20.609Z</time>
      </trkpt>
      <trkpt lat="46.48677" lon="8.26018">
        <ele>1420</ele>
        <time>2020-10-24T14:41:21.609Z</time>
      </trkpt>
      <trkpt lat="46.48678" lon="8.26019">
        <ele>1420</ele>
        <time>2020-10-24T14:41:22.609Z</time>
      </trkpt>
      <trkpt lat="46.48679" lon="8.26021">
        <ele>1420</ele>
        <time>2020-10-24T14:41:23.609Z</time>
      </trkpt>
      <trkpt lat="46.48681" lon="8.26023">
        <ele>1420</ele>
        <time>2020-10-24T14:41:24.609Z</time>
      </trkpt>
      <trkpt lat="46.48682" lon="8.26025">
        <ele>1420</ele>
        <time>2020-10-24T14:41:25.609Z</time>
      </trkpt>
      <trkpt lat="46.48683" lon="8.26027">
        <ele>1420</ele>
        <time>2020-10-24T14:41:26.609Z</time>
      </trkpt>
      <trkpt lat="46.48683" lon="8.26029">
        <ele>1420</ele>
        <time>2020-10-24T14:41:27.609Z</time>
      </trkpt>
      <trkpt lat="46.48682" lon="8.26031">
        <ele>1421</ele>
        <time>2020-10-24T14:41:28.609Z</time>
      </trkpt>
      <trkpt lat="46.48683" lon="8.26032">
        <ele>1421</ele>
        <time>2020-10-24T14:41:29.609Z</time>
      </trkpt>
      <trkpt lat="46.48685" lon="8.26034">
        <ele>1421</ele>
        <time>2020-10-24T14:41:30.609Z</time>
      </trkpt>
      <trkpt lat="46.48688" lon="8.26036">
        <ele>1421</ele>
        <time>2020-10-24T14:41:31.609Z</time>
      </trkpt>
      <trkpt lat="46.48689" lon="8.26037">
        <ele>1421</ele>
        <time>2020-10-24T14:41:32.609Z</time>
      </trkpt>
      <trkpt lat="46.4869" lon="8.26038">
        <ele>1421</ele>
        <time>2020-10-24T14:41:33.609Z</time>
      </trkpt>
      <trkpt lat="46.48691" lon="8.2604">
        <ele>1421</ele>
        <time>2020-10-24T14:41:34.609Z</time>
      </trkpt>
      <trkpt lat="46.48692" lon="8.26041">
        <ele>1421</ele>
        <time>2020-10-24T14:41:35.609Z</time>
      </trkpt>
      <trkpt lat="46.48693" lon="8.26042">
        <ele>1421</ele>
        <time>2020-10-24T14:41:36.609Z</time>
      </trkpt>
      <trkpt lat="46.48694" lon="8.26044">
        <ele>1421</ele>
        <time>2020-10-24T14:41:37.609Z</time>
      </trkpt>
      <trkpt lat="46.48695" lon="8.26045">
        <ele>1421</ele>
        <time>2020-10-24T14:41:38.609Z</time>
      </trkpt>
      <trkpt lat="46.48695" lon="8.26046">
        <ele>1421</ele>
        <time>2020-10-24T14:41:39.609Z</time>
      </trkpt>
      <trkpt lat="46.48696" lon="8.26048">
        <ele>1421</ele>
        <time>2020-10-24T14:41:40.609Z</time>
      </trkpt>
      <trkpt lat="46.48696" lon="8.26049">
        <ele>1420</ele>
        <time>2020-10-24T14:41:41.609Z</time>
      </trkpt>
      <trkpt lat="46.48697" lon="8.2605">
        <ele>1420</ele>
        <time>2020-10-24T14:41:42.609Z</time>
      </trkpt>
      <trkpt lat="46.48698" lon="8.26052">
        <ele>1419</ele>
        <time>2020-10-24T14:41:43.609Z</time>
      </trkpt>
      <trkpt lat="46.48698" lon="8.26053">
        <ele>1418</ele>
        <time>2020-10-24T14:41:44.609Z</time>
      </trkpt>
      <trkpt lat="46.48698" lon="8.26054">
        <ele>1418</ele>
        <time>2020-10-24T14:41:45.609Z</time>
      </trkpt>
      <trkpt lat="46.48698" lon="8.26055">
        <ele>1417</ele>
        <time>2020-10-24T14:41:46.609Z</time>
      </trkpt>
      <trkpt lat="46.48698" lon="8.26055">
        <ele>1417</ele>
        <time>2020-10-24T14:41:47.609Z</time>
      </trkpt>
      <trkpt lat="46.48698" lon="8.26057">
        <ele>1416</ele>
        <time>2020-10-24T14:41:48.609Z</time>
      </trkpt>
      <trkpt lat="46.48698" lon="8.26058">
        <ele>1415</ele>
        <time>2020-10-24T14:41:49.609Z</time>
      </trkpt>
      <trkpt lat="46.48698" lon="8.2606">
        <ele>1415</ele>
        <time>2020-10-24T14:41:50.609Z</time>
      </trkpt>
      <trkpt lat="46.48699" lon="8.26061">
        <ele>1414</ele>
        <time>2020-10-24T14:41:51.609Z</time>
      </trkpt>
      <trkpt lat="46.48699" lon="8.26063">
        <ele>1414</ele>
        <time>2020-10-24T14:41:52.609Z</time>
      </trkpt>
      <trkpt lat="46.487" lon="8.26065">
        <ele>1414</ele>
        <time>2020-10-24T14:41:53.609Z</time>
      </trkpt>
      <trkpt lat="46.487" lon="8.26066">
        <ele>1414</ele>
        <time>2020-10-24T14:41:54.609Z</time>
      </trkpt>
      <trkpt lat="46.487" lon="8.26068">
        <ele>1414</ele>
        <time>2020-10-24T14:41:55.609Z</time>
      </trkpt>
      <trkpt lat="46.48701" lon="8.2607">
        <ele>1413</ele>
        <time>2020-10-24T14:41:56.609Z</time>
      </trkpt>
      <trkpt lat="46.48701" lon="8.26071">
        <ele>1413</ele>
        <time>2020-10-24T14:41:58.593Z</time>
      </trkpt>
      <trkpt lat="46.48702" lon="8.26073">
        <ele>1413</ele>
        <time>2020-10-24T14:41:59.593Z</time>
      </trkpt>
      <trkpt lat="46.48703" lon="8.26075">
        <ele>1413</ele>
        <time>2020-10-24T14:42:00.593Z</time>
      </trkpt>
      <trkpt lat="46.48704" lon="8.26077">
        <ele>1413</ele>
        <time>2020-10-24T14:42:01.593Z</time>
      </trkpt>
      <trkpt lat="46.48704" lon="8.26079">
        <ele>1413</ele>
        <time>2020-10-24T14:42:02.593Z</time>
      </trkpt>
      <trkpt lat="46.48705" lon="8.26081">
        <ele>1414</ele>
        <time>2020-10-24T14:42:03.593Z</time>
      </trkpt>
      <trkpt lat="46.48705" lon="8.26083">
        <ele>1414</ele>
        <time>2020-10-24T14:42:04.593Z</time>
      </trkpt>
      <trkpt lat="46.48706" lon="8.26084">
        <ele>1414</ele>
        <time>2020-10-24T14:42:05.593Z</time>
      </trkpt>
      <trkpt lat="46.48706" lon="8.26085">
        <ele>1414</ele>
        <time>2020-10-24T14:42:06.593Z</time>
      </trkpt>
      <trkpt lat="46.48707" lon="8.26086">
        <ele>1414</ele>
        <time>2020-10-24T14:42:07.593Z</time>
      </trkpt>
      <trkpt lat="46.48707" lon="8.26088">
        <ele>1413</ele>
        <time>2020-10-24T14:42:08.593Z</time>
      </trkpt>
      <trkpt lat="46.48708" lon="8.26089">
        <ele>1413</ele>
        <time>2020-10-24T14:42:09.593Z</time>
      </trkpt>
      <trkpt lat="46.48708" lon="8.26091">
        <ele>1413</ele>
        <time>2020-10-24T14:42:10.593Z</time>
      </trkpt>
      <trkpt lat="46.48709" lon="8.26092">
        <ele>1413</ele>
        <time>2020-10-24T14:42:11.593Z</time>
      </trkpt>
      <trkpt lat="46.48709" lon="8.26094">
        <ele>1412</ele>
        <time>2020-10-24T14:42:12.593Z</time>
      </trkpt>
      <trkpt lat="46.4871" lon="8.26095">
        <ele>1412</ele>
        <time>2020-10-24T14:42:13.593Z</time>
      </trkpt>
      <trkpt lat="46.48711" lon="8.26097">
        <ele>1412</ele>
        <time>2020-10-24T14:42:14.593Z</time>
      </trkpt>
      <trkpt lat="46.48711" lon="8.26098">
        <ele>1411</ele>
        <time>2020-10-24T14:42:15.593Z</time>
      </trkpt>
      <trkpt lat="46.48712" lon="8.261">
        <ele>1411</ele>
        <time>2020-10-24T14:42:16.593Z</time>
      </trkpt>
      <trkpt lat="46.48713" lon="8.26102">
        <ele>1412</ele>
        <time>2020-10-24T14:42:17.593Z</time>
      </trkpt>
      <trkpt lat="46.48713" lon="8.26104">
        <ele>1412</ele>
        <time>2020-10-24T14:42:18.593Z</time>
      </trkpt>
      <trkpt lat="46.48714" lon="8.26106">
        <ele>1412</ele>
        <time>2020-10-24T14:42:19.593Z</time>
      </trkpt>
      <trkpt lat="46.48715" lon="8.26107">
        <ele>1412</ele>
        <time>2020-10-24T14:42:20.593Z</time>
      </trkpt>
      <trkpt lat="46.48716" lon="8.26109">
        <ele>1413</ele>
        <time>2020-10-24T14:42:21.593Z</time>
      </trkpt>
      <trkpt lat="46.48716" lon="8.26111">
        <ele>1413</ele>
        <time>2020-10-24T14:42:22.593Z</time>
      </trkpt>
      <trkpt lat="46.48717" lon="8.26113">
        <ele>1414</ele>
        <time>2020-10-24T14:42:23.593Z</time>
      </trkpt>
      <trkpt lat="46.48718" lon="8.26114">
        <ele>1414</ele>
        <time>2020-10-24T14:42:24.593Z</time>
      </trkpt>
      <trkpt lat="46.48718" lon="8.26116">
        <ele>1415</ele>
        <time>2020-10-24T14:42:25.593Z</time>
      </trkpt>
      <trkpt lat="46.48719" lon="8.26117">
        <ele>1416</ele>
        <time>2020-10-24T14:42:26.593Z</time>
      </trkpt>
      <trkpt lat="46.4872" lon="8.26119">
        <ele>1416</ele>
        <time>2020-10-24T14:42:27.593Z</time>
      </trkpt>
      <trkpt lat="46.48721" lon="8.2612">
        <ele>1416</ele>
        <time>2020-10-24T14:42:28.593Z</time>
      </trkpt>
      <trkpt lat="46.48722" lon="8.26121">
        <ele>1416</ele>
        <time>2020-10-24T14:42:29.593Z</time>
      </trkpt>
      <trkpt lat="46.48723" lon="8.26123">
        <ele>1416</ele>
        <time>2020-10-24T14:42:30.593Z</time>
      </trkpt>
      <trkpt lat="46.48724" lon="8.26124">
        <ele>1416</ele>
        <time>2020-10-24T14:42:31.593Z</time>
      </trkpt>
      <trkpt lat="46.48725" lon="8.26125">
        <ele>1417</ele>
        <time>2020-10-24T14:42:32.593Z</time>
      </trkpt>
      <trkpt lat="46.48726" lon="8.26126">
        <ele>1417</ele>
        <time>2020-10-24T14:42:33.593Z</time>
      </trkpt>
      <trkpt lat="46.48727" lon="8.26127">
        <ele>1416</ele>
        <time>2020-10-24T14:42:34.593Z</time>
      </trkpt>
      <trkpt lat="46.48727" lon="8.26128">
        <ele>1416</ele>
        <time>2020-10-24T14:42:35.593Z</time>
      </trkpt>
      <trkpt lat="46.48728" lon="8.26129">
        <ele>1416</ele>
        <time>2020-10-24T14:42:36.593Z</time>
      </trkpt>
      <trkpt lat="46.48729" lon="8.2613">
        <ele>1416</ele>
        <time>2020-10-24T14:42:37.593Z</time>
      </trkpt>
      <trkpt lat="46.48731" lon="8.26131">
        <ele>1416</ele>
        <time>2020-10-24T14:42:38.593Z</time>
      </trkpt>
      <trkpt lat="46.48732" lon="8.26131">
        <ele>1415</ele>
        <time>2020-10-24T14:42:39.593Z</time>
      </trkpt>
      <trkpt lat="46.48734" lon="8.2613">
        <ele>1415</ele>
        <time>2020-10-24T14:42:40.593Z</time>
      </trkpt>
      <trkpt lat="46.48735" lon="8.2613">
        <ele>1414</ele>
        <time>2020-10-24T14:42:41.593Z</time>
      </trkpt>
      <trkpt lat="46.48737" lon="8.2613">
        <ele>1414</ele>
        <time>2020-10-24T14:42:42.593Z</time>
      </trkpt>
      <trkpt lat="46.48739" lon="8.2613">
        <ele>1413</ele>
        <time>2020-10-24T14:42:43.593Z</time>
      </trkpt>
      <trkpt lat="46.48741" lon="8.2613">
        <ele>1413</ele>
        <time>2020-10-24T14:42:44.593Z</time>
      </trkpt>
      <trkpt lat="46.48743" lon="8.26131">
        <ele>1413</ele>
        <time>2020-10-24T14:42:45.593Z</time>
      </trkpt>
      <trkpt lat="46.48745" lon="8.26133">
        <ele>1413</ele>
        <time>2020-10-24T14:42:46.593Z</time>
      </trkpt>
      <trkpt lat="46.48747" lon="8.26134">
        <ele>1412</ele>
        <time>2020-10-24T14:42:47.593Z</time>
      </trkpt>
      <trkpt lat="46.48747" lon="8.26135">
        <ele>1411</ele>
        <time>2020-10-24T14:42:48.593Z</time>
      </trkpt>
      <trkpt lat="46.48747" lon="8.26136">
        <ele>1410</ele>
        <time>2020-10-24T14:42:49.593Z</time>
      </trkpt>
      <trkpt lat="46.48747" lon="8.26138">
        <ele>1410</ele>
        <time>2020-10-24T14:42:50.593Z</time>
      </trkpt>
      <trkpt lat="46.48748" lon="8.2614">
        <ele>1410</ele>
        <time>2020-10-24T14:42:51.593Z</time>
      </trkpt>
      <trkpt lat="46.48748" lon="8.26141">
        <ele>1409</ele>
        <time>2020-10-24T14:42:52.593Z</time>
      </trkpt>
      <trkpt lat="46.48749" lon="8.26142">
        <ele>1408</ele>
        <time>2020-10-24T14:42:53.593Z</time>
      </trkpt>
      <trkpt lat="46.48749" lon="8.26143">
        <ele>1408</ele>
        <time>2020-10-24T14:42:54.593Z</time>
      </trkpt>
      <trkpt lat="46.4875" lon="8.26145">
        <ele>1407</ele>
        <time>2020-10-24T14:42:55.593Z</time>
      </trkpt>
      <trkpt lat="46.4875" lon="8.26146">
        <ele>1406</ele>
        <time>2020-10-24T14:42:56.593Z</time>
      </trkpt>
      <trkpt lat="46.4875" lon="8.26148">
        <ele>1406</ele>
        <time>2020-10-24T14:42:57.593Z</time>
      </trkpt>
      <trkpt lat="46.4875" lon="8.2615">
        <ele>1405</ele>
        <time>2020-10-24T14:42:58.593Z</time>
      </trkpt>
      <trkpt lat="46.48751" lon="8.26151">
        <ele>1404</ele>
        <time>2020-10-24T14:42:59.593Z</time>
      </trkpt>
      <trkpt lat="46.48751" lon="8.26152">
        <ele>1403</ele>
        <time>2020-10-24T14:43:00.593Z</time>
      </trkpt>
      <trkpt lat="46.48751" lon="8.26153">
        <ele>1403</ele>
        <time>2020-10-24T14:43:01.593Z</time>
      </trkpt>
      <trkpt lat="46.48752" lon="8.26155">
        <ele>1402</ele>
        <time>2020-10-24T14:43:02.593Z</time>
      </trkpt>
      <trkpt lat="46.48752" lon="8.26156">
        <ele>1401</ele>
        <time>2020-10-24T14:43:03.593Z</time>
      </trkpt>
      <trkpt lat="46.48753" lon="8.26158">
        <ele>1401</ele>
        <time>2020-10-24T14:43:04.593Z</time>
      </trkpt>
      <trkpt lat="46.48754" lon="8.26159">
        <ele>1401</ele>
        <time>2020-10-24T14:43:05.593Z</time>
      </trkpt>
      <trkpt lat="46.48755" lon="8.26161">
        <ele>1401</ele>
        <time>2020-10-24T14:43:06.593Z</time>
      </trkpt>
      <trkpt lat="46.48755" lon="8.26163">
        <ele>1401</ele>
        <time>2020-10-24T14:43:07.593Z</time>
      </trkpt>
      <trkpt lat="46.48756" lon="8.26165">
        <ele>1401</ele>
        <time>2020-10-24T14:43:08.593Z</time>
      </trkpt>
      <trkpt lat="46.48756" lon="8.26167">
        <ele>1401</ele>
        <time>2020-10-24T14:43:09.593Z</time>
      </trkpt>
      <trkpt lat="46.48757" lon="8.26169">
        <ele>1402</ele>
        <time>2020-10-24T14:43:10.593Z</time>
      </trkpt>
      <trkpt lat="46.48757" lon="8.26171">
        <ele>1402</ele>
        <time>2020-10-24T14:43:11.593Z</time>
      </trkpt>
      <trkpt lat="46.48758" lon="8.26173">
        <ele>1402</ele>
        <time>2020-10-24T14:43:12.593Z</time>
      </trkpt>
      <trkpt lat="46.48759" lon="8.26175">
        <ele>1403</ele>
        <time>2020-10-24T14:43:13.593Z</time>
      </trkpt>
      <trkpt lat="46.48759" lon="8.26176">
        <ele>1403</ele>
        <time>2020-10-24T14:43:14.593Z</time>
      </trkpt>
      <trkpt lat="46.4876" lon="8.26177">
        <ele>1403</ele>
        <time>2020-10-24T14:43:15.593Z</time>
      </trkpt>
      <trkpt lat="46.48761" lon="8.26178">
        <ele>1403</ele>
        <time>2020-10-24T14:43:16.593Z</time>
      </trkpt>
      <trkpt lat="46.48761" lon="8.26179">
        <ele>1402</ele>
        <time>2020-10-24T14:43:17.593Z</time>
      </trkpt>
      <trkpt lat="46.48762" lon="8.2618">
        <ele>1402</ele>
        <time>2020-10-24T14:43:18.593Z</time>
      </trkpt>
      <trkpt lat="46.48763" lon="8.26182">
        <ele>1401</ele>
        <time>2020-10-24T14:43:19.593Z</time>
      </trkpt>
      <trkpt lat="46.48763" lon="8.26183">
        <ele>1401</ele>
        <time>2020-10-24T14:43:20.593Z</time>
      </trkpt>
      <trkpt lat="46.48764" lon="8.26185">
        <ele>1401</ele>
        <time>2020-10-24T14:43:21.593Z</time>
      </trkpt>
      <trkpt lat="46.48765" lon="8.26186">
        <ele>1401</ele>
        <time>2020-10-24T14:43:22.593Z</time>
      </trkpt>
      <trkpt lat="46.48765" lon="8.26188">
        <ele>1401</ele>
        <time>2020-10-24T14:43:23.593Z</time>
      </trkpt>
      <trkpt lat="46.48766" lon="8.2619">
        <ele>1402</ele>
        <time>2020-10-24T14:43:24.593Z</time>
      </trkpt>
      <trkpt lat="46.48767" lon="8.26191">
        <ele>1402</ele>
        <time>2020-10-24T14:43:25.593Z</time>
      </trkpt>
      <trkpt lat="46.48768" lon="8.26193">
        <ele>1401</ele>
        <time>2020-10-24T14:43:26.593Z</time>
      </trkpt>
      <trkpt lat="46.48769" lon="8.26194">
        <ele>1401</ele>
        <time>2020-10-24T14:43:27.593Z</time>
      </trkpt>
      <trkpt lat="46.4877" lon="8.26196">
        <ele>1401</ele>
        <time>2020-10-24T14:43:28.593Z</time>
      </trkpt>
      <trkpt lat="46.48771" lon="8.26197">
        <ele>1400</ele>
        <time>2020-10-24T14:43:29.593Z</time>
      </trkpt>
      <trkpt lat="46.48772" lon="8.26199">
        <ele>1400</ele>
        <time>2020-10-24T14:43:30.593Z</time>
      </trkpt>
      <trkpt lat="46.48773" lon="8.26201">
        <ele>1401</ele>
        <time>2020-10-24T14:43:31.593Z</time>
      </trkpt>
      <trkpt lat="46.48773" lon="8.26203">
        <ele>1401</ele>
        <time>2020-10-24T14:43:32.593Z</time>
      </trkpt>
      <trkpt lat="46.48774" lon="8.26205">
        <ele>1401</ele>
        <time>2020-10-24T14:43:33.593Z</time>
      </trkpt>
      <trkpt lat="46.48775" lon="8.26207">
        <ele>1401</ele>
        <time>2020-10-24T14:43:34.593Z</time>
      </trkpt>
      <trkpt lat="46.48776" lon="8.26209">
        <ele>1401</ele>
        <time>2020-10-24T14:43:35.593Z</time>
      </trkpt>
      <trkpt lat="46.48777" lon="8.2621">
        <ele>1401</ele>
        <time>2020-10-24T14:43:36.593Z</time>
      </trkpt>
      <trkpt lat="46.48778" lon="8.26212">
        <ele>1401</ele>
        <time>2020-10-24T14:43:37.593Z</time>
      </trkpt>
      <trkpt lat="46.48779" lon="8.26213">
        <ele>1402</ele>
        <time>2020-10-24T14:43:38.593Z</time>
      </trkpt>
      <trkpt lat="46.4878" lon="8.26213">
        <ele>1402</ele>
        <time>2020-10-24T14:43:39.593Z</time>
      </trkpt>
      <trkpt lat="46.48781" lon="8.26214">
        <ele>1402</ele>
        <time>2020-10-24T14:43:40.593Z</time>
      </trkpt>
      <trkpt lat="46.48782" lon="8.26216">
        <ele>1403</ele>
        <time>2020-10-24T14:43:41.593Z</time>
      </trkpt>
      <trkpt lat="46.48783" lon="8.26217">
        <ele>1404</ele>
        <time>2020-10-24T14:43:42.593Z</time>
      </trkpt>
      <trkpt lat="46.48785" lon="8.26218">
        <ele>1405</ele>
        <time>2020-10-24T14:43:43.593Z</time>
      </trkpt>
      <trkpt lat="46.48786" lon="8.26219">
        <ele>1405</ele>
        <time>2020-10-24T14:43:44.593Z</time>
      </trkpt>
      <trkpt lat="46.48788" lon="8.26219">
        <ele>1405</ele>
        <time>2020-10-24T14:43:45.593Z</time>
      </trkpt>
      <trkpt lat="46.48789" lon="8.2622">
        <ele>1406</ele>
        <time>2020-10-24T14:43:46.593Z</time>
      </trkpt>
      <trkpt lat="46.4879" lon="8.26221">
        <ele>1406</ele>
        <time>2020-10-24T14:43:47.593Z</time>
      </trkpt>
      <trkpt lat="46.48791" lon="8.26222">
        <ele>1406</ele>
        <time>2020-10-24T14:43:48.593Z</time>
      </trkpt>
      <trkpt lat="46.48792" lon="8.26223">
        <ele>1406</ele>
        <time>2020-10-24T14:43:49.593Z</time>
      </trkpt>
      <trkpt lat="46.48793" lon="8.26224">
        <ele>1406</ele>
        <time>2020-10-24T14:43:50.593Z</time>
      </trkpt>
      <trkpt lat="46.48794" lon="8.26225">
        <ele>1405</ele>
        <time>2020-10-24T14:43:51.593Z</time>
      </trkpt>
      <trkpt lat="46.48795" lon="8.26226">
        <ele>1405</ele>
        <time>2020-10-24T14:43:52.593Z</time>
      </trkpt>
      <trkpt lat="46.48796" lon="8.26226">
        <ele>1405</ele>
        <time>2020-10-24T14:43:53.593Z</time>
      </trkpt>
      <trkpt lat="46.48798" lon="8.26227">
        <ele>1404</ele>
        <time>2020-10-24T14:43:54.593Z</time>
      </trkpt>
      <trkpt lat="46.48799" lon="8.26227">
        <ele>1404</ele>
        <time>2020-10-24T14:43:55.593Z</time>
      </trkpt>
      <trkpt lat="46.488" lon="8.26228">
        <ele>1403</ele>
        <time>2020-10-24T14:43:56.593Z</time>
      </trkpt>
      <trkpt lat="46.48801" lon="8.26229">
        <ele>1403</ele>
        <time>2020-10-24T14:43:57.593Z</time>
      </trkpt>
      <trkpt lat="46.48802" lon="8.2623">
        <ele>1402</ele>
        <time>2020-10-24T14:43:58.593Z</time>
      </trkpt>
      <trkpt lat="46.48803" lon="8.26231">
        <ele>1401</ele>
        <time>2020-10-24T14:43:59.593Z</time>
      </trkpt>
      <trkpt lat="46.48804" lon="8.26232">
        <ele>1401</ele>
        <time>2020-10-24T14:44:00.593Z</time>
      </trkpt>
      <trkpt lat="46.48805" lon="8.26234">
        <ele>1400</ele>
        <time>2020-10-24T14:44:01.593Z</time>
      </trkpt>
      <trkpt lat="46.48805" lon="8.26236">
        <ele>1400</ele>
        <time>2020-10-24T14:44:02.593Z</time>
      </trkpt>
      <trkpt lat="46.48806" lon="8.26237">
        <ele>1400</ele>
        <time>2020-10-24T14:44:03.593Z</time>
      </trkpt>
      <trkpt lat="46.48806" lon="8.26239">
        <ele>1400</ele>
        <time>2020-10-24T14:44:04.593Z</time>
      </trkpt>
      <trkpt lat="46.48807" lon="8.26241">
        <ele>1400</ele>
        <time>2020-10-24T14:44:05.593Z</time>
      </trkpt>
      <trkpt lat="46.48807" lon="8.26242">
        <ele>1400</ele>
        <time>2020-10-24T14:44:06.593Z</time>
      </trkpt>
      <trkpt lat="46.48807" lon="8.26244">
        <ele>1400</ele>
        <time>2020-10-24T14:44:07.593Z</time>
      </trkpt>
      <trkpt lat="46.48807" lon="8.26245">
        <ele>1400</ele>
        <time>2020-10-24T14:44:08.593Z</time>
      </trkpt>
      <trkpt lat="46.48807" lon="8.26247">
        <ele>1400</ele>
        <time>2020-10-24T14:44:09.593Z</time>
      </trkpt>
      <trkpt lat="46.48807" lon="8.26248">
        <ele>1399</ele>
        <time>2020-10-24T14:44:10.593Z</time>
      </trkpt>
      <trkpt lat="46.48806" lon="8.2625">
        <ele>1399</ele>
        <time>2020-10-24T14:44:11.593Z</time>
      </trkpt>
      <trkpt lat="46.48806" lon="8.26251">
        <ele>1399</ele>
        <time>2020-10-24T14:44:12.593Z</time>
      </trkpt>
      <trkpt lat="46.48806" lon="8.26252">
        <ele>1399</ele>
        <time>2020-10-24T14:44:13.593Z</time>
      </trkpt>
      <trkpt lat="46.48806" lon="8.26253">
        <ele>1399</ele>
        <time>2020-10-24T14:44:14.593Z</time>
      </trkpt>
      <trkpt lat="46.48806" lon="8.26255">
        <ele>1398</ele>
        <time>2020-10-24T14:44:15.593Z</time>
      </trkpt>
      <trkpt lat="46.48805" lon="8.26256">
        <ele>1398</ele>
        <time>2020-10-24T14:44:16.593Z</time>
      </trkpt>
      <trkpt lat="46.48805" lon="8.26258">
        <ele>1398</ele>
        <time>2020-10-24T14:44:17.593Z</time>
      </trkpt>
      <trkpt lat="46.48804" lon="8.2626">
        <ele>1398</ele>
        <time>2020-10-24T14:44:18.593Z</time>
      </trkpt>
      <trkpt lat="46.48804" lon="8.26262">
        <ele>1398</ele>
        <time>2020-10-24T14:44:19.593Z</time>
      </trkpt>
      <trkpt lat="46.48804" lon="8.26264">
        <ele>1398</ele>
        <time>2020-10-24T14:44:20.593Z</time>
      </trkpt>
      <trkpt lat="46.48803" lon="8.26266">
        <ele>1398</ele>
        <time>2020-10-24T14:44:21.593Z</time>
      </trkpt>
      <trkpt lat="46.48803" lon="8.26268">
        <ele>1399</ele>
        <time>2020-10-24T14:44:22.593Z</time>
      </trkpt>
      <trkpt lat="46.48803" lon="8.2627">
        <ele>1399</ele>
        <time>2020-10-24T14:44:23.593Z</time>
      </trkpt>
      <trkpt lat="46.48803" lon="8.26272">
        <ele>1398</ele>
        <time>2020-10-24T14:44:24.593Z</time>
      </trkpt>
      <trkpt lat="46.48802" lon="8.26274">
        <ele>1398</ele>
        <time>2020-10-24T14:44:25.593Z</time>
      </trkpt>
      <trkpt lat="46.48802" lon="8.26275">
        <ele>1398</ele>
        <time>2020-10-24T14:44:26.593Z</time>
      </trkpt>
      <trkpt lat="46.48801" lon="8.26277">
        <ele>1398</ele>
        <time>2020-10-24T14:44:27.593Z</time>
      </trkpt>
      <trkpt lat="46.48801" lon="8.26279">
        <ele>1398</ele>
        <time>2020-10-24T14:44:28.593Z</time>
      </trkpt>
      <trkpt lat="46.488" lon="8.2628">
        <ele>1398</ele>
        <time>2020-10-24T14:44:29.593Z</time>
      </trkpt>
      <trkpt lat="46.488" lon="8.26282">
        <ele>1398</ele>
        <time>2020-10-24T14:44:30.593Z</time>
      </trkpt>
      <trkpt lat="46.48799" lon="8.26283">
        <ele>1398</ele>
        <time>2020-10-24T14:44:31.593Z</time>
      </trkpt>
      <trkpt lat="46.48799" lon="8.26285">
        <ele>1398</ele>
        <time>2020-10-24T14:44:32.593Z</time>
      </trkpt>
      <trkpt lat="46.48799" lon="8.26286">
        <ele>1398</ele>
        <time>2020-10-24T14:44:33.593Z</time>
      </trkpt>
      <trkpt lat="46.48798" lon="8.26288">
        <ele>1398</ele>
        <time>2020-10-24T14:44:34.593Z</time>
      </trkpt>
      <trkpt lat="46.48798" lon="8.26289">
        <ele>1398</ele>
        <time>2020-10-24T14:44:35.593Z</time>
      </trkpt>
      <trkpt lat="46.48797" lon="8.2629">
        <ele>1398</ele>
        <time>2020-10-24T14:44:36.593Z</time>
      </trkpt>
      <trkpt lat="46.48797" lon="8.26292">
        <ele>1397</ele>
        <time>2020-10-24T14:44:37.593Z</time>
      </trkpt>
      <trkpt lat="46.48796" lon="8.26293">
        <ele>1397</ele>
        <time>2020-10-24T14:44:38.593Z</time>
      </trkpt>
      <trkpt lat="46.48795" lon="8.26294">
        <ele>1397</ele>
        <time>2020-10-24T14:44:39.593Z</time>
      </trkpt>
      <trkpt lat="46.48795" lon="8.26296">
        <ele>1396</ele>
        <time>2020-10-24T14:44:40.593Z</time>
      </trkpt>
      <trkpt lat="46.48794" lon="8.26297">
        <ele>1396</ele>
        <time>2020-10-24T14:44:41.593Z</time>
      </trkpt>
      <trkpt lat="46.48794" lon="8.26299">
        <ele>1395</ele>
        <time>2020-10-24T14:44:42.593Z</time>
      </trkpt>
      <trkpt lat="46.48794" lon="8.26301">
        <ele>1395</ele>
        <time>2020-10-24T14:44:43.593Z</time>
      </trkpt>
      <trkpt lat="46.48795" lon="8.26302">
        <ele>1395</ele>
        <time>2020-10-24T14:44:44.593Z</time>
      </trkpt>
      <trkpt lat="46.48795" lon="8.26304">
        <ele>1395</ele>
        <time>2020-10-24T14:44:45.593Z</time>
      </trkpt>
      <trkpt lat="46.48796" lon="8.26305">
        <ele>1394</ele>
        <time>2020-10-24T14:44:46.593Z</time>
      </trkpt>
      <trkpt lat="46.48797" lon="8.26306">
        <ele>1394</ele>
        <time>2020-10-24T14:44:47.593Z</time>
      </trkpt>
      <trkpt lat="46.48797" lon="8.26307">
        <ele>1394</ele>
        <time>2020-10-24T14:44:48.593Z</time>
      </trkpt>
      <trkpt lat="46.48798" lon="8.26309">
        <ele>1394</ele>
        <time>2020-10-24T14:44:49.593Z</time>
      </trkpt>
      <trkpt lat="46.48798" lon="8.2631">
        <ele>1394</ele>
        <time>2020-10-24T14:44:50.593Z</time>
      </trkpt>
      <trkpt lat="46.48798" lon="8.26311">
        <ele>1394</ele>
        <time>2020-10-24T14:44:51.593Z</time>
      </trkpt>
      <trkpt lat="46.48798" lon="8.26313">
        <ele>1394</ele>
        <time>2020-10-24T14:44:52.593Z</time>
      </trkpt>
      <trkpt lat="46.48797" lon="8.26315">
        <ele>1394</ele>
        <time>2020-10-24T14:44:53.593Z</time>
      </trkpt>
      <trkpt lat="46.48796" lon="8.26317">
        <ele>1393</ele>
        <time>2020-10-24T14:44:54.593Z</time>
      </trkpt>
      <trkpt lat="46.48796" lon="8.26319">
        <ele>1393</ele>
        <time>2020-10-24T14:44:55.593Z</time>
      </trkpt>
      <trkpt lat="46.48796" lon="8.2632">
        <ele>1393</ele>
        <time>2020-10-24T14:44:56.593Z</time>
      </trkpt>
      <trkpt lat="46.48795" lon="8.26322">
        <ele>1393</ele>
        <time>2020-10-24T14:44:57.593Z</time>
      </trkpt>
      <trkpt lat="46.48795" lon="8.26322">
        <ele>1393</ele>
        <time>2020-10-24T14:44:58.593Z</time>
      </trkpt>
      <trkpt lat="46.48794" lon="8.26325">
        <ele>1393</ele>
        <time>2020-10-24T14:44:59.593Z</time>
      </trkpt>
      <trkpt lat="46.48794" lon="8.26325">
        <ele>1393</ele>
        <time>2020-10-24T14:45:00.593Z</time>
      </trkpt>
      <trkpt lat="46.48793" lon="8.26326">
        <ele>1393</ele>
        <time>2020-10-24T14:45:01.593Z</time>
      </trkpt>
      <trkpt lat="46.48793" lon="8.26327">
        <ele>1394</ele>
        <time>2020-10-24T14:45:02.593Z</time>
      </trkpt>
      <trkpt lat="46.48791" lon="8.26329">
        <ele>1394</ele>
        <time>2020-10-24T14:45:03.593Z</time>
      </trkpt>
      <trkpt lat="46.4879" lon="8.2633">
        <ele>1394</ele>
        <time>2020-10-24T14:45:04.593Z</time>
      </trkpt>
      <trkpt lat="46.4879" lon="8.26331">
        <ele>1394</ele>
        <time>2020-10-24T14:45:05.593Z</time>
      </trkpt>
      <trkpt lat="46.48789" lon="8.26333">
        <ele>1394</ele>
        <time>2020-10-24T14:45:06.593Z</time>
      </trkpt>
      <trkpt lat="46.48789" lon="8.26334">
        <ele>1394</ele>
        <time>2020-10-24T14:45:14.636Z</time>
      </trkpt>
      <trkpt lat="46.48789" lon="8.26335">
        <ele>1394</ele>
        <time>2020-10-24T14:45:15.636Z</time>
      </trkpt>
      <trkpt lat="46.48789" lon="8.26336">
        <ele>1394</ele>
        <time>2020-10-24T14:45:21.516Z</time>
      </trkpt>
      <trkpt lat="46.48789" lon="8.26337">
        <ele>1394</ele>
        <time>2020-10-24T14:45:22.516Z</time>
      </trkpt>
      <trkpt lat="46.48789" lon="8.26338">
        <ele>1394</ele>
        <time>2020-10-24T14:45:23.516Z</time>
      </trkpt>
      <trkpt lat="46.4879" lon="8.2634">
        <ele>1394</ele>
        <time>2020-10-24T14:45:24.516Z</time>
      </trkpt>
      <trkpt lat="46.4879" lon="8.26341">
        <ele>1395</ele>
        <time>2020-10-24T14:45:25.516Z</time>
      </trkpt>
      <trkpt lat="46.48791" lon="8.26342">
        <ele>1395</ele>
        <time>2020-10-24T14:45:26.516Z</time>
      </trkpt>
      <trkpt lat="46.48792" lon="8.26343">
        <ele>1396</ele>
        <time>2020-10-24T14:45:27.516Z</time>
      </trkpt>
      <trkpt lat="46.48793" lon="8.26343">
        <ele>1396</ele>
        <time>2020-10-24T14:45:28.516Z</time>
      </trkpt>
      <trkpt lat="46.48794" lon="8.26343">
        <ele>1397</ele>
        <time>2020-10-24T14:45:29.516Z</time>
      </trkpt>
      <trkpt lat="46.48795" lon="8.26343">
        <ele>1397</ele>
        <time>2020-10-24T14:45:30.516Z</time>
      </trkpt>
      <trkpt lat="46.48796" lon="8.26343">
        <ele>1397</ele>
        <time>2020-10-24T14:45:31.516Z</time>
      </trkpt>
      <trkpt lat="46.48797" lon="8.26343">
        <ele>1398</ele>
        <time>2020-10-24T14:45:32.516Z</time>
      </trkpt>
      <trkpt lat="46.48798" lon="8.26343">
        <ele>1398</ele>
        <time>2020-10-24T14:45:33.516Z</time>
      </trkpt>
      <trkpt lat="46.48799" lon="8.26343">
        <ele>1398</ele>
        <time>2020-10-24T14:45:34.516Z</time>
      </trkpt>
      <trkpt lat="46.488" lon="8.26343">
        <ele>1398</ele>
        <time>2020-10-24T14:45:35.516Z</time>
      </trkpt>
      <trkpt lat="46.48801" lon="8.26343">
        <ele>1398</ele>
        <time>2020-10-24T14:45:36.516Z</time>
      </trkpt>
      <trkpt lat="46.48802" lon="8.26343">
        <ele>1398</ele>
        <time>2020-10-24T14:45:37.516Z</time>
      </trkpt>
      <trkpt lat="46.48804" lon="8.26344">
        <ele>1398</ele>
        <time>2020-10-24T14:45:38.516Z</time>
      </trkpt>
      <trkpt lat="46.48805" lon="8.26345">
        <ele>1398</ele>
        <time>2020-10-24T14:45:39.516Z</time>
      </trkpt>
      <trkpt lat="46.48805" lon="8.26346">
        <ele>1399</ele>
        <time>2020-10-24T14:45:40.516Z</time>
      </trkpt>
      <trkpt lat="46.48805" lon="8.26347">
        <ele>1399</ele>
        <time>2020-10-24T14:45:41.516Z</time>
      </trkpt>
      <trkpt lat="46.48805" lon="8.26349">
        <ele>1399</ele>
        <time>2020-10-24T14:45:42.516Z</time>
      </trkpt>
      <trkpt lat="46.48806" lon="8.26351">
        <ele>1399</ele>
        <time>2020-10-24T14:45:43.516Z</time>
      </trkpt>
      <trkpt lat="46.48807" lon="8.26353">
        <ele>1399</ele>
        <time>2020-10-24T14:45:44.516Z</time>
      </trkpt>
      <trkpt lat="46.48808" lon="8.26354">
        <ele>1399</ele>
        <time>2020-10-24T14:45:45.516Z</time>
      </trkpt>
      <trkpt lat="46.48809" lon="8.26356">
        <ele>1399</ele>
        <time>2020-10-24T14:45:46.516Z</time>
      </trkpt>
      <trkpt lat="46.48809" lon="8.26358">
        <ele>1399</ele>
        <time>2020-10-24T14:45:47.516Z</time>
      </trkpt>
      <trkpt lat="46.48809" lon="8.2636">
        <ele>1399</ele>
        <time>2020-10-24T14:45:48.516Z</time>
      </trkpt>
      <trkpt lat="46.4881" lon="8.26361">
        <ele>1400</ele>
        <time>2020-10-24T14:45:49.516Z</time>
      </trkpt>
      <trkpt lat="46.4881" lon="8.26363">
        <ele>1400</ele>
        <time>2020-10-24T14:45:50.516Z</time>
      </trkpt>
      <trkpt lat="46.4881" lon="8.26364">
        <ele>1399</ele>
        <time>2020-10-24T14:45:51.516Z</time>
      </trkpt>
      <trkpt lat="46.4881" lon="8.26365">
        <ele>1399</ele>
        <time>2020-10-24T14:45:52.516Z</time>
      </trkpt>
      <trkpt lat="46.4881" lon="8.26367">
        <ele>1399</ele>
        <time>2020-10-24T14:45:53.516Z</time>
      </trkpt>
      <trkpt lat="46.48809" lon="8.26368">
        <ele>1400</ele>
        <time>2020-10-24T14:45:54.516Z</time>
      </trkpt>
      <trkpt lat="46.48809" lon="8.2637">
        <ele>1400</ele>
        <time>2020-10-24T14:45:55.516Z</time>
      </trkpt>
      <trkpt lat="46.48809" lon="8.26371">
        <ele>1400</ele>
        <time>2020-10-24T14:45:56.516Z</time>
      </trkpt>
      <trkpt lat="46.48809" lon="8.26371">
        <ele>1400</ele>
        <time>2020-10-24T14:45:57.516Z</time>
      </trkpt>
      <trkpt lat="46.4881" lon="8.26372">
        <ele>1401</ele>
        <time>2020-10-24T14:45:58.516Z</time>
      </trkpt>
      <trkpt lat="46.48811" lon="8.26373">
        <ele>1401</ele>
        <time>2020-10-24T14:45:59.516Z</time>
      </trkpt>
      <trkpt lat="46.48812" lon="8.26373">
        <ele>1401</ele>
        <time>2020-10-24T14:46:00.516Z</time>
      </trkpt>
      <trkpt lat="46.48812" lon="8.26373">
        <ele>1402</ele>
        <time>2020-10-24T14:46:01.516Z</time>
      </trkpt>
      <trkpt lat="46.48813" lon="8.26373">
        <ele>1402</ele>
        <time>2020-10-24T14:46:02.516Z</time>
      </trkpt>
      <trkpt lat="46.48814" lon="8.26373">
        <ele>1402</ele>
        <time>2020-10-24T14:46:03.516Z</time>
      </trkpt>
      <trkpt lat="46.48815" lon="8.26373">
        <ele>1403</ele>
        <time>2020-10-24T14:46:04.516Z</time>
      </trkpt>
      <trkpt lat="46.48816" lon="8.26372">
        <ele>1404</ele>
        <time>2020-10-24T14:46:05.516Z</time>
      </trkpt>
      <trkpt lat="46.48817" lon="8.26372">
        <ele>1404</ele>
        <time>2020-10-24T14:46:06.516Z</time>
      </trkpt>
      <trkpt lat="46.48817" lon="8.26372">
        <ele>1405</ele>
        <time>2020-10-24T14:46:07.516Z</time>
      </trkpt>
      <trkpt lat="46.48818" lon="8.26371">
        <ele>1406</ele>
        <time>2020-10-24T14:46:08.516Z</time>
      </trkpt>
      <trkpt lat="46.48818" lon="8.2637">
        <ele>1406</ele>
        <time>2020-10-24T14:46:09.516Z</time>
      </trkpt>
      <trkpt lat="46.48818" lon="8.2637">
        <ele>1407</ele>
        <time>2020-10-24T14:46:10.516Z</time>
      </trkpt>
      <trkpt lat="46.48817" lon="8.26369">
        <ele>1408</ele>
        <time>2020-10-24T14:46:11.516Z</time>
      </trkpt>
      <trkpt lat="46.48827" lon="8.2638">
        <ele>1408</ele>
        <time>2020-10-24T14:46:29.516Z</time>
      </trkpt>
      <trkpt lat="46.48826" lon="8.26369">
        <ele>1409</ele>
        <time>2020-10-24T14:46:30.516Z</time>
      </trkpt>
      <trkpt lat="46.4882" lon="8.2638">
        <ele>1410</ele>
        <time>2020-10-24T14:46:31.516Z</time>
      </trkpt>
      <trkpt lat="46.48822" lon="8.26379">
        <ele>1410</ele>
        <time>2020-10-24T14:46:32.516Z</time>
      </trkpt>
      <trkpt lat="46.48818" lon="8.26377">
        <ele>1412</ele>
        <time>2020-10-24T14:46:33.517Z</time>
      </trkpt>
      <trkpt lat="46.48818" lon="8.26377">
        <ele>1412</ele>
        <time>2020-10-24T14:46:34.516Z</time>
      </trkpt>
      <trkpt lat="46.48818" lon="8.26378">
        <ele>1412</ele>
        <time>2020-10-24T14:46:35.516Z</time>
      </trkpt>
      <trkpt lat="46.48817" lon="8.26379">
        <ele>1412</ele>
        <time>2020-10-24T14:46:36.517Z</time>
      </trkpt>
      <trkpt lat="46.48816" lon="8.2638">
        <ele>1412</ele>
        <time>2020-10-24T14:46:37.516Z</time>
      </trkpt>
      <trkpt lat="46.48816" lon="8.26381">
        <ele>1412</ele>
        <time>2020-10-24T14:46:38.517Z</time>
      </trkpt>
      <trkpt lat="46.48817" lon="8.26383">
        <ele>1412</ele>
        <time>2020-10-24T14:46:39.517Z</time>
      </trkpt>
      <trkpt lat="46.48816" lon="8.26385">
        <ele>1412</ele>
        <time>2020-10-24T14:46:40.517Z</time>
      </trkpt>
      <trkpt lat="46.48817" lon="8.26383">
        <ele>1412</ele>
        <time>2020-10-24T14:46:41.517Z</time>
      </trkpt>
      <trkpt lat="46.48818" lon="8.26383">
        <ele>1412</ele>
        <time>2020-10-24T14:46:42.517Z</time>
      </trkpt>
      <trkpt lat="46.48819" lon="8.26382">
        <ele>1412</ele>
        <time>2020-10-24T14:46:43.516Z</time>
      </trkpt>
      <trkpt lat="46.48819" lon="8.26382">
        <ele>1412</ele>
        <time>2020-10-24T14:46:44.517Z</time>
      </trkpt>
      <trkpt lat="46.48818" lon="8.26382">
        <ele>1412</ele>
        <time>2020-10-24T14:46:45.517Z</time>
      </trkpt>
      <trkpt lat="46.48813" lon="8.26382">
        <ele>1412</ele>
        <time>2020-10-24T14:46:46.518Z</time>
      </trkpt>
      <trkpt lat="46.48813" lon="8.26382">
        <ele>1412</ele>
        <time>2020-10-24T14:46:47.518Z</time>
      </trkpt>
      <trkpt lat="46.4881" lon="8.26381">
        <ele>1412</ele>
        <time>2020-10-24T14:46:48.518Z</time>
      </trkpt>
      <trkpt lat="46.48809" lon="8.2638">
        <ele>1412</ele>
        <time>2020-10-24T14:46:49.518Z</time>
      </trkpt>
      <trkpt lat="46.48809" lon="8.2638">
        <ele>1413</ele>
        <time>2020-10-24T14:46:50.517Z</time>
      </trkpt>
      <trkpt lat="46.4881" lon="8.26379">
        <ele>1413</ele>
        <time>2020-10-24T14:46:51.518Z</time>
      </trkpt>
      <trkpt lat="46.48809" lon="8.26379">
        <ele>1413</ele>
        <time>2020-10-24T14:46:52.518Z</time>
      </trkpt>
      <trkpt lat="46.48809" lon="8.26378">
        <ele>1413</ele>
        <time>2020-10-24T14:46:53.518Z</time>
      </trkpt>
      <trkpt lat="46.48809" lon="8.26377">
        <ele>1413</ele>
        <time>2020-10-24T14:46:54.517Z</time>
      </trkpt>
      <trkpt lat="46.48808" lon="8.26376">
        <ele>1413</ele>
        <time>2020-10-24T14:46:55.518Z</time>
      </trkpt>
      <trkpt lat="46.48807" lon="8.26375">
        <ele>1413</ele>
        <time>2020-10-24T14:46:56.518Z</time>
      </trkpt>
      <trkpt lat="46.48806" lon="8.26375">
        <ele>1413</ele>
        <time>2020-10-24T14:46:57.518Z</time>
      </trkpt>
      <trkpt lat="46.48805" lon="8.26374">
        <ele>1413</ele>
        <time>2020-10-24T14:46:58.518Z</time>
      </trkpt>
      <trkpt lat="46.48804" lon="8.26373">
        <ele>1413</ele>
        <time>2020-10-24T14:46:59.517Z</time>
      </trkpt>
      <trkpt lat="46.48803" lon="8.26374">
        <ele>1413</ele>
        <time>2020-10-24T14:47:00.518Z</time>
      </trkpt>
      <trkpt lat="46.48802" lon="8.26372">
        <ele>1412</ele>
        <time>2020-10-24T14:47:01.518Z</time>
      </trkpt>
      <trkpt lat="46.48802" lon="8.26372">
        <ele>1412</ele>
        <time>2020-10-24T14:47:02.518Z</time>
      </trkpt>
      <trkpt lat="46.48802" lon="8.26374">
        <ele>1411</ele>
        <time>2020-10-24T14:47:03.517Z</time>
      </trkpt>
      <trkpt lat="46.48804" lon="8.26375">
        <ele>1410</ele>
        <time>2020-10-24T14:47:04.518Z</time>
      </trkpt>
      <trkpt lat="46.48805" lon="8.26376">
        <ele>1409</ele>
        <time>2020-10-24T14:47:05.518Z</time>
      </trkpt>
      <trkpt lat="46.48805" lon="8.26375">
        <ele>1408</ele>
        <time>2020-10-24T14:47:06.518Z</time>
      </trkpt>
      <trkpt lat="46.48808" lon="8.26374">
        <ele>1404</ele>
        <time>2020-10-24T14:47:07.517Z</time>
      </trkpt>
      <trkpt lat="46.48808" lon="8.26373">
        <ele>1403</ele>
        <time>2020-10-24T14:47:08.517Z</time>
      </trkpt>
      <trkpt lat="46.48806" lon="8.26372">
        <ele>1404</ele>
        <time>2020-10-24T14:47:09.518Z</time>
      </trkpt>
      <trkpt lat="46.48806" lon="8.26373">
        <ele>1404</ele>
        <time>2020-10-24T14:47:10.518Z</time>
      </trkpt>
      <trkpt lat="46.48807" lon="8.2637">
        <ele>1406</ele>
        <time>2020-10-24T14:47:11.517Z</time>
      </trkpt>
      <trkpt lat="46.48807" lon="8.26369">
        <ele>1406</ele>
        <time>2020-10-24T14:47:12.518Z</time>
      </trkpt>
      <trkpt lat="46.48807" lon="8.26369">
        <ele>1406</ele>
        <time>2020-10-24T14:47:13.517Z</time>
      </trkpt>
      <trkpt lat="46.48808" lon="8.26369">
        <ele>1407</ele>
        <time>2020-10-24T14:47:14.519Z</time>
      </trkpt>
      <trkpt lat="46.48808" lon="8.26369">
        <ele>1407</ele>
        <time>2020-10-24T14:47:15.518Z</time>
      </trkpt>
      <trkpt lat="46.48808" lon="8.2637">
        <ele>1409</ele>
        <time>2020-10-24T14:47:16.518Z</time>
      </trkpt>
      <trkpt lat="46.48809" lon="8.26371">
        <ele>1409</ele>
        <time>2020-10-24T14:47:17.518Z</time>
      </trkpt>
      <trkpt lat="46.48809" lon="8.26372">
        <ele>1409</ele>
        <time>2020-10-24T14:47:18.518Z</time>
      </trkpt>
      <trkpt lat="46.4881" lon="8.26373">
        <ele>1409</ele>
        <time>2020-10-24T14:47:19.518Z</time>
      </trkpt>
      <trkpt lat="46.4881" lon="8.26373">
        <ele>1410</ele>
        <time>2020-10-24T14:47:20.519Z</time>
      </trkpt>
      <trkpt lat="46.4881" lon="8.26373">
        <ele>1410</ele>
        <time>2020-10-24T14:47:21.518Z</time>
      </trkpt>
      <trkpt lat="46.4881" lon="8.26372">
        <ele>1409</ele>
        <time>2020-10-24T14:47:22.519Z</time>
      </trkpt>
      <trkpt lat="46.48811" lon="8.26372">
        <ele>1409</ele>
        <time>2020-10-24T14:47:23.518Z</time>
      </trkpt>
      <trkpt lat="46.48811" lon="8.26372">
        <ele>1409</ele>
        <time>2020-10-24T14:47:24.519Z</time>
      </trkpt>
      <trkpt lat="46.48812" lon="8.26372">
        <ele>1408</ele>
        <time>2020-10-24T14:47:25.519Z</time>
      </trkpt>
      <trkpt lat="46.48812" lon="8.26373">
        <ele>1408</ele>
        <time>2020-10-24T14:47:26.519Z</time>
      </trkpt>
      <trkpt lat="46.48813" lon="8.26373">
        <ele>1408</ele>
        <time>2020-10-24T14:47:27.519Z</time>
      </trkpt>
      <trkpt lat="46.48813" lon="8.26374">
        <ele>1408</ele>
        <time>2020-10-24T14:47:28.519Z</time>
      </trkpt>
      <trkpt lat="46.48814" lon="8.26375">
        <ele>1408</ele>
        <time>2020-10-24T14:47:29.519Z</time>
      </trkpt>
      <trkpt lat="46.48814" lon="8.26376">
        <ele>1408</ele>
        <time>2020-10-24T14:47:30.519Z</time>
      </trkpt>
      <trkpt lat="46.48815" lon="8.26377">
        <ele>1408</ele>
        <time>2020-10-24T14:47:31.519Z</time>
      </trkpt>
      <trkpt lat="46.48816" lon="8.26378">
        <ele>1409</ele>
        <time>2020-10-24T14:47:32.519Z</time>
      </trkpt>
      <trkpt lat="46.48816" lon="8.26378">
        <ele>1409</ele>
        <time>2020-10-24T14:47:33.519Z</time>
      </trkpt>
      <trkpt lat="46.48816" lon="8.2638">
        <ele>1410</ele>
        <time>2020-10-24T14:47:34.519Z</time>
      </trkpt>
      <trkpt lat="46.48816" lon="8.2638">
        <ele>1410</ele>
        <time>2020-10-24T14:47:35.518Z</time>
      </trkpt>
      <trkpt lat="46.48815" lon="8.2638">
        <ele>1411</ele>
        <time>2020-10-24T14:47:36.519Z</time>
      </trkpt>
      <trkpt lat="46.48815" lon="8.26379">
        <ele>1412</ele>
        <time>2020-10-24T14:47:37.519Z</time>
      </trkpt>
      <trkpt lat="46.48816" lon="8.2638">
        <ele>1412</ele>
        <time>2020-10-24T14:47:38.518Z</time>
      </trkpt>
      <trkpt lat="46.48815" lon="8.26379">
        <ele>1413</ele>
        <time>2020-10-24T14:47:39.519Z</time>
      </trkpt>
      <trkpt lat="46.48815" lon="8.26379">
        <ele>1413</ele>
        <time>2020-10-24T14:47:40.519Z</time>
      </trkpt>
      <trkpt lat="46.48815" lon="8.2638">
        <ele>1414</ele>
        <time>2020-10-24T14:47:41.519Z</time>
      </trkpt>
      <trkpt lat="46.48815" lon="8.26382">
        <ele>1414</ele>
        <time>2020-10-24T14:47:42.519Z</time>
      </trkpt>
      <trkpt lat="46.48814" lon="8.26383">
        <ele>1414</ele>
        <time>2020-10-24T14:47:43.518Z</time>
      </trkpt>
      <trkpt lat="46.48813" lon="8.26385">
        <ele>1415</ele>
        <time>2020-10-24T14:47:44.519Z</time>
      </trkpt>
      <trkpt lat="46.48813" lon="8.26382">
        <ele>1415</ele>
        <time>2020-10-24T14:47:45.519Z</time>
      </trkpt>
      <trkpt lat="46.48812" lon="8.26383">
        <ele>1415</ele>
        <time>2020-10-24T14:47:46.518Z</time>
      </trkpt>
      <trkpt lat="46.4881" lon="8.26384">
        <ele>1415</ele>
        <time>2020-10-24T14:47:47.518Z</time>
      </trkpt>
      <trkpt lat="46.4881" lon="8.26383">
        <ele>1416</ele>
        <time>2020-10-24T14:47:48.518Z</time>
      </trkpt>
      <trkpt lat="46.4881" lon="8.26382">
        <ele>1416</ele>
        <time>2020-10-24T14:47:49.519Z</time>
      </trkpt>
      <trkpt lat="46.48811" lon="8.26381">
        <ele>1416</ele>
        <time>2020-10-24T14:47:50.519Z</time>
      </trkpt>
      <trkpt lat="46.48813" lon="8.26379">
        <ele>1415</ele>
        <time>2020-10-24T14:47:51.519Z</time>
      </trkpt>
      <trkpt lat="46.48813" lon="8.26378">
        <ele>1415</ele>
        <time>2020-10-24T14:47:52.518Z</time>
      </trkpt>
      <trkpt lat="46.48813" lon="8.26379">
        <ele>1415</ele>
        <time>2020-10-24T14:47:53.518Z</time>
      </trkpt>
      <trkpt lat="46.48813" lon="8.26379">
        <ele>1415</ele>
        <time>2020-10-24T14:47:54.519Z</time>
      </trkpt>
      <trkpt lat="46.48813" lon="8.26379">
        <ele>1415</ele>
        <time>2020-10-24T14:47:55.519Z</time>
      </trkpt>
      <trkpt lat="46.48813" lon="8.2638">
        <ele>1414</ele>
        <time>2020-10-24T14:47:56.518Z</time>
      </trkpt>
      <trkpt lat="46.48814" lon="8.2638">
        <ele>1414</ele>
        <time>2020-10-24T14:48:00.518Z</time>
      </trkpt>
      <trkpt lat="46.48814" lon="8.26379">
        <ele>1414</ele>
        <time>2020-10-24T14:48:01.517Z</time>
      </trkpt>
      <trkpt lat="46.48815" lon="8.2638">
        <ele>1414</ele>
        <time>2020-10-24T14:48:07.251Z</time>
      </trkpt>
      <trkpt lat="46.48815" lon="8.2638">
        <ele>1414</ele>
        <time>2020-10-24T14:48:13.014Z</time>
      </trkpt>
      <trkpt lat="46.48816" lon="8.26381">
        <ele>1413</ele>
        <time>2020-10-24T14:48:14.014Z</time>
      </trkpt>
      <trkpt lat="46.48816" lon="8.26382">
        <ele>1413</ele>
        <time>2020-10-24T14:48:15.014Z</time>
      </trkpt>
      <trkpt lat="46.48816" lon="8.26382">
        <ele>1413</ele>
        <time>2020-10-24T14:48:16.014Z</time>
      </trkpt>
      <trkpt lat="46.48816" lon="8.26381">
        <ele>1412</ele>
        <time>2020-10-24T14:48:35.110Z</time>
      </trkpt>
      <trkpt lat="46.48817" lon="8.26381">
        <ele>1412</ele>
        <time>2020-10-24T14:48:36.110Z</time>
      </trkpt>
      <trkpt lat="46.48817" lon="8.26381">
        <ele>1411</ele>
        <time>2020-10-24T14:48:37.109Z</time>
      </trkpt>
      <trkpt lat="46.48816" lon="8.26378">
        <ele>1411</ele>
        <time>2020-10-24T14:48:42.133Z</time>
      </trkpt>
      <trkpt lat="46.48815" lon="8.26376">
        <ele>1411</ele>
        <time>2020-10-24T14:48:43.133Z</time>
      </trkpt>
      <trkpt lat="46.48815" lon="8.26375">
        <ele>1411</ele>
        <time>2020-10-24T14:48:44.133Z</time>
      </trkpt>
      <trkpt lat="46.48815" lon="8.26374">
        <ele>1411</ele>
        <time>2020-10-24T14:48:45.133Z</time>
      </trkpt>
      <trkpt lat="46.48815" lon="8.26374">
        <ele>1410</ele>
        <time>2020-10-24T14:48:46.133Z</time>
      </trkpt>
      <trkpt lat="46.48815" lon="8.26374">
        <ele>1410</ele>
        <time>2020-10-24T14:48:47.132Z</time>
      </trkpt>
      <trkpt lat="46.48814" lon="8.26374">
        <ele>1410</ele>
        <time>2020-10-24T14:48:48.133Z</time>
      </trkpt>
      <trkpt lat="46.48814" lon="8.26375">
        <ele>1410</ele>
        <time>2020-10-24T14:48:49.133Z</time>
      </trkpt>
      <trkpt lat="46.48815" lon="8.26376">
        <ele>1411</ele>
        <time>2020-10-24T14:48:50.133Z</time>
      </trkpt>
      <trkpt lat="46.48815" lon="8.26375">
        <ele>1411</ele>
        <time>2020-10-24T14:48:51.133Z</time>
      </trkpt>
      <trkpt lat="46.48816" lon="8.26376">
        <ele>1411</ele>
        <time>2020-10-24T14:48:52.132Z</time>
      </trkpt>
      <trkpt lat="46.48815" lon="8.26375">
        <ele>1411</ele>
        <time>2020-10-24T14:48:53.132Z</time>
      </trkpt>
      <trkpt lat="46.48815" lon="8.26376">
        <ele>1411</ele>
        <time>2020-10-24T14:48:54.133Z</time>
      </trkpt>
      <trkpt lat="46.48817" lon="8.26376">
        <ele>1411</ele>
        <time>2020-10-24T14:48:55.133Z</time>
      </trkpt>
      <trkpt lat="46.48818" lon="8.26376">
        <ele>1411</ele>
        <time>2020-10-24T14:48:56.133Z</time>
      </trkpt>
      <trkpt lat="46.48818" lon="8.26377">
        <ele>1411</ele>
        <time>2020-10-24T14:48:57.133Z</time>
      </trkpt>
      <trkpt lat="46.48818" lon="8.26378">
        <ele>1411</ele>
        <time>2020-10-24T14:48:58.133Z</time>
      </trkpt>
      <trkpt lat="46.48818" lon="8.26377">
        <ele>1411</ele>
        <time>2020-10-24T14:48:59.133Z</time>
      </trkpt>
      <trkpt lat="46.4882" lon="8.26376">
        <ele>1411</ele>
        <time>2020-10-24T14:49:00.133Z</time>
      </trkpt>
      <trkpt lat="46.48821" lon="8.26375">
        <ele>1411</ele>
        <time>2020-10-24T14:49:01.133Z</time>
      </trkpt>
      <trkpt lat="46.48822" lon="8.26375">
        <ele>1411</ele>
        <time>2020-10-24T14:49:02.133Z</time>
      </trkpt>
      <trkpt lat="46.48822" lon="8.26374">
        <ele>1411</ele>
        <time>2020-10-24T14:49:03.133Z</time>
      </trkpt>
      <trkpt lat="46.48821" lon="8.26374">
        <ele>1411</ele>
        <time>2020-10-24T14:49:04.132Z</time>
      </trkpt>
      <trkpt lat="46.48819" lon="8.26374">
        <ele>1411</ele>
        <time>2020-10-24T14:49:05.133Z</time>
      </trkpt>
      <trkpt lat="46.48819" lon="8.26374">
        <ele>1411</ele>
        <time>2020-10-24T14:49:06.133Z</time>
      </trkpt>
      <trkpt lat="46.4882" lon="8.26374">
        <ele>1411</ele>
        <time>2020-10-24T14:49:07.132Z</time>
      </trkpt>
      <trkpt lat="46.4882" lon="8.26375">
        <ele>1411</ele>
        <time>2020-10-24T14:49:08.133Z</time>
      </trkpt>
      <trkpt lat="46.4882" lon="8.26375">
        <ele>1411</ele>
        <time>2020-10-24T14:49:09.133Z</time>
      </trkpt>
      <trkpt lat="46.4882" lon="8.26375">
        <ele>1411</ele>
        <time>2020-10-24T14:49:10.132Z</time>
      </trkpt>
      <trkpt lat="46.48821" lon="8.26376">
        <ele>1411</ele>
        <time>2020-10-24T14:49:11.133Z</time>
      </trkpt>
      <trkpt lat="46.48822" lon="8.26375">
        <ele>1411</ele>
        <time>2020-10-24T14:49:12.133Z</time>
      </trkpt>
      <trkpt lat="46.48823" lon="8.26373">
        <ele>1412</ele>
        <time>2020-10-24T14:49:13.132Z</time>
      </trkpt>
      <trkpt lat="46.48824" lon="8.26372">
        <ele>1412</ele>
        <time>2020-10-24T14:49:14.132Z</time>
      </trkpt>
      <trkpt lat="46.48825" lon="8.2637">
        <ele>1412</ele>
        <time>2020-10-24T14:49:15.133Z</time>
      </trkpt>
      <trkpt lat="46.48824" lon="8.26369">
        <ele>1412</ele>
        <time>2020-10-24T14:49:16.133Z</time>
      </trkpt>
      <trkpt lat="46.48823" lon="8.26369">
        <ele>1412</ele>
        <time>2020-10-24T14:49:17.133Z</time>
      </trkpt>
      <trkpt lat="46.48822" lon="8.26367">
        <ele>1413</ele>
        <time>2020-10-24T14:49:18.133Z</time>
      </trkpt>
      <trkpt lat="46.48821" lon="8.26366">
        <ele>1413</ele>
        <time>2020-10-24T14:49:19.133Z</time>
      </trkpt>
      <trkpt lat="46.48821" lon="8.26363">
        <ele>1413</ele>
        <time>2020-10-24T14:49:20.133Z</time>
      </trkpt>
      <trkpt lat="46.48821" lon="8.2636">
        <ele>1413</ele>
        <time>2020-10-24T14:49:21.132Z</time>
      </trkpt>
      <trkpt lat="46.4882" lon="8.26357">
        <ele>1413</ele>
        <time>2020-10-24T14:49:22.132Z</time>
      </trkpt>
      <trkpt lat="46.4882" lon="8.26357">
        <ele>1413</ele>
        <time>2020-10-24T14:49:23.133Z</time>
      </trkpt>
      <trkpt lat="46.48818" lon="8.26356">
        <ele>1413</ele>
        <time>2020-10-24T14:49:24.133Z</time>
      </trkpt>
      <trkpt lat="46.48816" lon="8.26356">
        <ele>1413</ele>
        <time>2020-10-24T14:49:25.133Z</time>
      </trkpt>
      <trkpt lat="46.48814" lon="8.26353">
        <ele>1412</ele>
        <time>2020-10-24T14:49:26.133Z</time>
      </trkpt>
      <trkpt lat="46.48809" lon="8.26347">
        <ele>1411</ele>
        <time>2020-10-24T14:49:27.132Z</time>
      </trkpt>
      <trkpt lat="46.48808" lon="8.26347">
        <ele>1411</ele>
        <time>2020-10-24T14:49:28.133Z</time>
      </trkpt>
      <trkpt lat="46.48808" lon="8.26346">
        <ele>1411</ele>
        <time>2020-10-24T14:49:29.133Z</time>
      </trkpt>
      <trkpt lat="46.48807" lon="8.26346">
        <ele>1410</ele>
        <time>2020-10-24T14:49:30.132Z</time>
      </trkpt>
      <trkpt lat="46.48807" lon="8.26347">
        <ele>1410</ele>
        <time>2020-10-24T14:49:31.133Z</time>
      </trkpt>
      <trkpt lat="46.48808" lon="8.26348">
        <ele>1409</ele>
        <time>2020-10-24T14:49:32.133Z</time>
      </trkpt>
      <trkpt lat="46.4881" lon="8.26349">
        <ele>1408</ele>
        <time>2020-10-24T14:49:33.133Z</time>
      </trkpt>
      <trkpt lat="46.48811" lon="8.26349">
        <ele>1408</ele>
        <time>2020-10-24T14:49:34.133Z</time>
      </trkpt>
      <trkpt lat="46.48811" lon="8.2635">
        <ele>1407</ele>
        <time>2020-10-24T14:49:35.132Z</time>
      </trkpt>
      <trkpt lat="46.48811" lon="8.26351">
        <ele>1406</ele>
        <time>2020-10-24T14:49:36.133Z</time>
      </trkpt>
      <trkpt lat="46.48811" lon="8.26353">
        <ele>1405</ele>
        <time>2020-10-24T14:49:37.133Z</time>
      </trkpt>
      <trkpt lat="46.48812" lon="8.26354">
        <ele>1405</ele>
        <time>2020-10-24T14:49:38.132Z</time>
      </trkpt>
      <trkpt lat="46.48812" lon="8.26355">
        <ele>1404</ele>
        <time>2020-10-24T14:49:39.132Z</time>
      </trkpt>
      <trkpt lat="46.48813" lon="8.26356">
        <ele>1403</ele>
        <time>2020-10-24T14:49:40.132Z</time>
      </trkpt>
      <trkpt lat="46.48814" lon="8.26358">
        <ele>1403</ele>
        <time>2020-10-24T14:49:41.133Z</time>
      </trkpt>
      <trkpt lat="46.48816" lon="8.26359">
        <ele>1402</ele>
        <time>2020-10-24T14:49:42.133Z</time>
      </trkpt>
      <trkpt lat="46.48816" lon="8.26361">
        <ele>1401</ele>
        <time>2020-10-24T14:49:43.133Z</time>
      </trkpt>
      <trkpt lat="46.48815" lon="8.26361">
        <ele>1401</ele>
        <time>2020-10-24T14:49:44.133Z</time>
      </trkpt>
      <trkpt lat="46.48815" lon="8.26363">
        <ele>1401</ele>
        <time>2020-10-24T14:49:45.133Z</time>
      </trkpt>
      <trkpt lat="46.48816" lon="8.26363">
        <ele>1400</ele>
        <time>2020-10-24T14:49:46.133Z</time>
      </trkpt>
      <trkpt lat="46.48816" lon="8.26365">
        <ele>1400</ele>
        <time>2020-10-24T14:49:47.133Z</time>
      </trkpt>
    </trkseg>
  </trk>
</gpx>